<?xml version='1.0' encoding='UTF-8'?><gpx version="1.1" creator="JPX - https://github.com/jenetics/jpx" xmlns="http://www.topografix.com/GPX/1/1"><trk><trkseg><trkpt lat="45.840803435852045" lon="9.07487097934705"><ele>216.0</ele><time>2026-04-25T08:22:26Z</time></trkpt><trkpt lat="45.84085987894871" lon="9.074823638692365"><ele>216.00000000000003</ele><time>2026-04-25T08:22:27Z</time></trkpt><trkpt lat="45.84092285950109" lon="9.074771349757764"><ele>216.00000000000003</ele><time>2026-04-25T08:22:28Z</time></trkpt><trkpt lat="45.84102378555809" lon="9.074679874235118"><ele>216.0</ele><time>2026-04-25T08:22:30Z</time></trkpt><trkpt lat="45.84112480800431" lon="9.074593087495384"><ele>216.0</ele><time>2026-04-25T08:22:31.999Z</time></trkpt><trkpt lat="45.84121587358788" lon="9.07455947883477"><ele>216.4</ele><time>2026-04-25T08:22:33.999Z</time></trkpt><trkpt lat="45.84131835359147" lon="9.07456321082015"><ele>216.8</ele><time>2026-04-25T08:22:35.999Z</time></trkpt><trkpt lat="45.84143028904046" lon="9.074473414975692"><ele>217.20000000000002</ele><time>2026-04-25T08:22:37.999Z</time></trkpt><trkpt lat="45.841497008580895" lon="9.0744221809785"><ele>217.60000000000002</ele><time>2026-04-25T08:22:38.999Z</time></trkpt><trkpt lat="45.84157062467917" lon="9.074372911406103"><ele>218.0</ele><time>2026-04-25T08:22:39.999Z</time></trkpt><trkpt lat="45.841649235310214" lon="9.074319084933691"><ele>218.00000000000003</ele><time>2026-04-25T08:22:40.999Z</time></trkpt><trkpt lat="45.84172629085314" lon="9.074272895342895"><ele>218.0</ele><time>2026-04-25T08:22:41.999Z</time></trkpt><trkpt lat="45.84179297889404" lon="9.074231080945669"><ele>218.0</ele><time>2026-04-25T08:22:42.999Z</time></trkpt><trkpt lat="45.8418688988257" lon="9.074176656015041"><ele>218.0</ele><time>2026-04-25T08:22:43.999Z</time></trkpt><trkpt lat="45.841953478811945" lon="9.074111278889108"><ele>218.00000000000003</ele><time>2026-04-25T08:22:44.999Z</time></trkpt><trkpt lat="45.84204184914871" lon="9.07403984342699"><ele>218.0</ele><time>2026-04-25T08:22:45.999Z</time></trkpt><trkpt lat="45.84212578901191" lon="9.073983483309648"><ele>219.8</ele><time>2026-04-25T08:22:46.999Z</time></trkpt><trkpt lat="45.8422120551634" lon="9.073919746750104"><ele>221.60000000000002</ele><time>2026-04-25T08:22:47.999Z</time></trkpt><trkpt lat="45.84229728285598" lon="9.07386048819735"><ele>223.39999999999998</ele><time>2026-04-25T08:22:48.999Z</time></trkpt><trkpt lat="45.84240122272838" lon="9.07385309704338"><ele>225.2</ele><time>2026-04-25T08:22:49.999Z</time></trkpt><trkpt lat="45.84246894543961" lon="9.07373995596653"><ele>227.0</ele><time>2026-04-25T08:22:50.999Z</time></trkpt><trkpt lat="45.84254941424793" lon="9.07367890700016"><ele>227.0</ele><time>2026-04-25T08:22:51.999Z</time></trkpt><trkpt lat="45.84262320441313" lon="9.07362439430647"><ele>227.0</ele><time>2026-04-25T08:22:52.999Z</time></trkpt><trkpt lat="45.842704261334056" lon="9.073571948793218"><ele>227.0</ele><time>2026-04-25T08:22:53.999Z</time></trkpt><trkpt lat="45.842793256324896" lon="9.07352548114488"><ele>227.0</ele><time>2026-04-25T08:22:54.999Z</time></trkpt><trkpt lat="45.84288417283875" lon="9.073484668841195"><ele>227.0</ele><time>2026-04-25T08:22:55.999Z</time></trkpt><trkpt lat="45.842983212019" lon="9.073448630147654"><ele>227.39999999999998</ele><time>2026-04-25T08:22:56.999Z</time></trkpt><trkpt lat="45.84308007047331" lon="9.073420743205002"><ele>227.79999999999998</ele><time>2026-04-25T08:22:57.999Z</time></trkpt><trkpt lat="45.8431831593984" lon="9.073392203756548"><ele>228.2</ele><time>2026-04-25T08:22:58.999Z</time></trkpt><trkpt lat="45.84328781327825" lon="9.073367003273997"><ele>228.6</ele><time>2026-04-25T08:22:59.999Z</time></trkpt><trkpt lat="45.843396301700466" lon="9.073381717715199"><ele>229.0</ele><time>2026-04-25T08:23:00.999Z</time></trkpt><trkpt lat="45.843499834641925" lon="9.073358750292137"><ele>231.0</ele><time>2026-04-25T08:23:01.999Z</time></trkpt><trkpt lat="45.843599306915344" lon="9.073327764522256"><ele>232.99999999999997</ele><time>2026-04-25T08:23:02.999Z</time></trkpt><trkpt lat="45.84369830626688" lon="9.073302424253491"><ele>234.99999999999997</ele><time>2026-04-25T08:23:03.999Z</time></trkpt><trkpt lat="45.84377770540379" lon="9.073297571481332"><ele>237.0</ele><time>2026-04-25T08:23:04.999Z</time></trkpt><trkpt lat="45.843844716048444" lon="9.073279531492707"><ele>239.0</ele><time>2026-04-25T08:23:05.999Z</time></trkpt><trkpt lat="45.84396075537249" lon="9.073310473064122"><ele>239.00000000000003</ele><time>2026-04-25T08:23:07.999Z</time></trkpt><trkpt lat="45.84402134830923" lon="9.0734071534312"><ele>239.0</ele><time>2026-04-25T08:23:09.999Z</time></trkpt><trkpt lat="45.844004277846565" lon="9.073495164639919"><ele>239.0</ele><time>2026-04-25T08:23:10.999Z</time></trkpt><trkpt lat="45.84398788738317" lon="9.07361074606817"><ele>239.0</ele><time>2026-04-25T08:23:11.999Z</time></trkpt><trkpt lat="45.84397638537629" lon="9.073724872341101"><ele>239.00000000000003</ele><time>2026-04-25T08:23:12.999Z</time></trkpt><trkpt lat="45.84395221613826" lon="9.073863266563025"><ele>239.0</ele><time>2026-04-25T08:23:13.999Z</time></trkpt><trkpt lat="45.843928929788525" lon="9.073995454843034"><ele>239.33333333333334</ele><time>2026-04-25T08:23:14.999Z</time></trkpt><trkpt lat="45.843915808093485" lon="9.074125266474773"><ele>239.66666666666669</ele><time>2026-04-25T08:23:15.999Z</time></trkpt><trkpt lat="45.84391308560436" lon="9.074245725287026"><ele>240.0</ele><time>2026-04-25T08:23:16.999Z</time></trkpt><trkpt lat="45.84392169776507" lon="9.074367228941329"><ele>240.33333333333331</ele><time>2026-04-25T08:23:17.999Z</time></trkpt><trkpt lat="45.84393613493191" lon="9.07449587514621"><ele>240.66666666666666</ele><time>2026-04-25T08:23:18.999Z</time></trkpt><trkpt lat="45.843947105001945" lon="9.074623649436154"><ele>241.0</ele><time>2026-04-25T08:23:19.999Z</time></trkpt><trkpt lat="45.84396044702177" lon="9.074739865989741"><ele>241.0</ele><time>2026-04-25T08:23:20.999Z</time></trkpt><trkpt lat="45.84397149391692" lon="9.074843104877782"><ele>241.00000000000003</ele><time>2026-04-25T08:23:21.999Z</time></trkpt><trkpt lat="45.843991937408475" lon="9.07500548422436"><ele>241.00000000000003</ele><time>2026-04-25T08:23:23.999Z</time></trkpt><trkpt lat="45.84399638381271" lon="9.075151486254548"><ele>241.0</ele><time>2026-04-25T08:23:25.999Z</time></trkpt><trkpt lat="45.84412811913533" lon="9.075265306316615"><ele>241.0</ele><time>2026-04-25T08:23:27.999Z</time></trkpt><trkpt lat="45.84419292233458" lon="9.075331830422897"><ele>240.99999999999997</ele><time>2026-04-25T08:23:28.999Z</time></trkpt><trkpt lat="45.844261849109095" lon="9.075405753989294"><ele>241.0</ele><time>2026-04-25T08:23:29.999Z</time></trkpt><trkpt lat="45.84431396593961" lon="9.075463848145839"><ele>241.0</ele><time>2026-04-25T08:23:30.999Z</time></trkpt><trkpt lat="45.84442145250568" lon="9.075541458144013"><ele>241.0</ele><time>2026-04-25T08:23:32.999Z</time></trkpt><trkpt lat="45.844497000055526" lon="9.075483713053366"><ele>240.99999999999997</ele><time>2026-04-25T08:23:33.999Z</time></trkpt><trkpt lat="45.84453487429682" lon="9.075370590779071"><ele>241.0</ele><time>2026-04-25T08:23:34.999Z</time></trkpt><trkpt lat="45.84461005710543" lon="9.075266334553033"><ele>243.99999999999997</ele><time>2026-04-25T08:23:36.999Z</time></trkpt><trkpt lat="45.8446781324024" lon="9.07524747901918"><ele>247.0</ele><time>2026-04-25T08:23:37.999Z</time></trkpt><trkpt lat="45.84475705896187" lon="9.075243612228933"><ele>250.0</ele><time>2026-04-25T08:23:38.999Z</time></trkpt><trkpt lat="45.84484258855427" lon="9.075225822593229"><ele>253.0</ele><time>2026-04-25T08:23:39.999Z</time></trkpt><trkpt lat="45.844917994027135" lon="9.075218448387318"><ele>255.99999999999997</ele><time>2026-04-25T08:23:40.999Z</time></trkpt><trkpt lat="45.8449842743055" lon="9.075221806073472"><ele>259.0</ele><time>2026-04-25T08:23:41.999Z</time></trkpt><trkpt lat="45.84506228787371" lon="9.07534524967179"><ele>259.0</ele><time>2026-04-25T08:23:43.999Z</time></trkpt><trkpt lat="45.84511286886151" lon="9.075426758915425"><ele>259.0</ele><time>2026-04-25T08:23:44.999Z</time></trkpt><trkpt lat="45.84516432097161" lon="9.075513486517462"><ele>259.0</ele><time>2026-04-25T08:23:45.999Z</time></trkpt><trkpt lat="45.84523047698254" lon="9.07560167831785"><ele>259.0</ele><time>2026-04-25T08:23:46.999Z</time></trkpt><trkpt lat="45.845313787717004" lon="9.075682515248882"><ele>259.0</ele><time>2026-04-25T08:23:47.999Z</time></trkpt><trkpt lat="45.84541550331833" lon="9.075772636593985"><ele>258.2</ele><time>2026-04-25T08:23:48.999Z</time></trkpt><trkpt lat="45.84553503748938" lon="9.075797431619169"><ele>257.4</ele><time>2026-04-25T08:23:49.999Z</time></trkpt><trkpt lat="45.84563699706866" lon="9.075782151377918"><ele>256.6</ele><time>2026-04-25T08:23:50.999Z</time></trkpt><trkpt lat="45.84574104285261" lon="9.075718964414085"><ele>255.8</ele><time>2026-04-25T08:23:51.999Z</time></trkpt><trkpt lat="45.845842937234536" lon="9.075679351589903"><ele>255.0</ele><time>2026-04-25T08:23:52.999Z</time></trkpt><trkpt lat="45.84593848795597" lon="9.075641006407718"><ele>259.0</ele><time>2026-04-25T08:23:53.999Z</time></trkpt><trkpt lat="45.84604896497327" lon="9.075589100114042"><ele>263.0</ele><time>2026-04-25T08:23:54.999Z</time></trkpt><trkpt lat="45.8461460339957" lon="9.07555076328727"><ele>267.0</ele><time>2026-04-25T08:23:55.999Z</time></trkpt><trkpt lat="45.8462444838188" lon="9.075549073571665"><ele>271.0</ele><time>2026-04-25T08:23:56.999Z</time></trkpt><trkpt lat="45.846330675715976" lon="9.075555469921143"><ele>275.0</ele><time>2026-04-25T08:23:57.999Z</time></trkpt><trkpt lat="45.84640575273592" lon="9.075594161051455"><ele>275.0</ele><time>2026-04-25T08:23:58.999Z</time></trkpt><trkpt lat="45.84647369334928" lon="9.075642474109648"><ele>275.0</ele><time>2026-04-25T08:23:59.999Z</time></trkpt><trkpt lat="45.84655660612281" lon="9.0756929054551"><ele>275.0</ele><time>2026-04-25T08:24:00.999Z</time></trkpt><trkpt lat="45.846623068239985" lon="9.075723527997157"><ele>275.0</ele><time>2026-04-25T08:24:01.999Z</time></trkpt><trkpt lat="45.846685652373985" lon="9.075709667934863"><ele>275.0</ele><time>2026-04-25T08:24:02.999Z</time></trkpt><trkpt lat="45.84675155959047" lon="9.075605161503832"><ele>275.0</ele><time>2026-04-25T08:24:04.999Z</time></trkpt><trkpt lat="45.846682595256155" lon="9.07545854921894"><ele>275.0</ele><time>2026-04-25T08:24:06.999Z</time></trkpt><trkpt lat="45.84662546284283" lon="9.07537908209274"><ele>275.0</ele><time>2026-04-25T08:24:07.999Z</time></trkpt><trkpt lat="45.846576473097095" lon="9.075278520869707"><ele>275.0</ele><time>2026-04-25T08:24:08.999Z</time></trkpt><trkpt lat="45.84652391159041" lon="9.075188264992507"><ele>275.0</ele><time>2026-04-25T08:24:09.999Z</time></trkpt><trkpt lat="45.84647741922917" lon="9.075111001883192"><ele>275.0</ele><time>2026-04-25T08:24:10.999Z</time></trkpt><trkpt lat="45.84639423270712" lon="9.075094717028398"><ele>275.0</ele><time>2026-04-25T08:24:11.999Z</time></trkpt><trkpt lat="45.846302274353725" lon="9.07510504863929"><ele>275.0</ele><time>2026-04-25T08:24:12.999Z</time></trkpt><trkpt lat="45.8462097351707" lon="9.07513821563264"><ele>275.0</ele><time>2026-04-25T08:24:13.999Z</time></trkpt><trkpt lat="45.84611966741859" lon="9.075180360250485"><ele>275.0</ele><time>2026-04-25T08:24:14.999Z</time></trkpt><trkpt lat="45.84605146609116" lon="9.075257930878792"><ele>275.0</ele><time>2026-04-25T08:24:15.999Z</time></trkpt><trkpt lat="45.84598695979544" lon="9.075322697574432"><ele>275.0</ele><time>2026-04-25T08:24:16.999Z</time></trkpt><trkpt lat="45.84592624022872" lon="9.075359744569067"><ele>275.0</ele><time>2026-04-25T08:24:17.999Z</time></trkpt><trkpt lat="45.84586682697269" lon="9.075391214294209"><ele>275.0</ele><time>2026-04-25T08:24:18.999Z</time></trkpt><trkpt lat="45.845792341869114" lon="9.075434408799746"><ele>275.0</ele><time>2026-04-25T08:24:20.999Z</time></trkpt><trkpt lat="45.845802990805055" lon="9.075313682788682"><ele>275.0</ele><time>2026-04-25T08:24:23.999Z</time></trkpt><trkpt lat="45.845895670311855" lon="9.075317775645017"><ele>275.0</ele><time>2026-04-25T08:24:25.999Z</time></trkpt><trkpt lat="45.84599899990176" lon="9.075256651900466"><ele>275.0</ele><time>2026-04-25T08:24:27.999Z</time></trkpt><trkpt lat="45.84605269295495" lon="9.075191643841816"><ele>275.0</ele><time>2026-04-25T08:24:28.999Z</time></trkpt><trkpt lat="45.846102797110994" lon="9.075096244246263"><ele>275.0</ele><time>2026-04-25T08:24:29.999Z</time></trkpt><trkpt lat="45.84615367027855" lon="9.074985907507173"><ele>275.0</ele><time>2026-04-25T08:24:30.999Z</time></trkpt><trkpt lat="45.84621066696572" lon="9.07486736522407"><ele>275.0</ele><time>2026-04-25T08:24:31.999Z</time></trkpt><trkpt lat="45.84625461050312" lon="9.074768060271476"><ele>275.0</ele><time>2026-04-25T08:24:32.999Z</time></trkpt><trkpt lat="45.84630013798665" lon="9.0746782832045"><ele>275.0</ele><time>2026-04-25T08:24:33.999Z</time></trkpt><trkpt lat="45.846350035970275" lon="9.074615366090953"><ele>275.0</ele><time>2026-04-25T08:24:34.999Z</time></trkpt><trkpt lat="45.846412847609926" lon="9.074566576983619"><ele>277.83333333333337</ele><time>2026-04-25T08:24:35.999Z</time></trkpt><trkpt lat="45.84647730707547" lon="9.074542517015159"><ele>280.6666666666667</ele><time>2026-04-25T08:24:36.999Z</time></trkpt><trkpt lat="45.84655267685845" lon="9.074559670816319"><ele>283.5</ele><time>2026-04-25T08:24:37.999Z</time></trkpt><trkpt lat="45.8466258794538" lon="9.074595054111144"><ele>286.3333333333333</ele><time>2026-04-25T08:24:38.999Z</time></trkpt><trkpt lat="45.846701220778215" lon="9.074639188586197"><ele>289.16666666666663</ele><time>2026-04-25T08:24:39.999Z</time></trkpt><trkpt lat="45.84678569670676" lon="9.074703300378635"><ele>292.0</ele><time>2026-04-25T08:24:40.999Z</time></trkpt><trkpt lat="45.846876475989845" lon="9.074773372418054"><ele>292.4</ele><time>2026-04-25T08:24:41.999Z</time></trkpt><trkpt lat="45.846968307872174" lon="9.074850106916678"><ele>292.79999999999995</ele><time>2026-04-25T08:24:42.999Z</time></trkpt><trkpt lat="45.84706146065427" lon="9.074930202416592"><ele>293.2</ele><time>2026-04-25T08:24:43.999Z</time></trkpt><trkpt lat="45.847143845134084" lon="9.075001514696732"><ele>293.59999999999997</ele><time>2026-04-25T08:24:44.999Z</time></trkpt><trkpt lat="45.847215779133194" lon="9.075051563924859"><ele>294.0</ele><time>2026-04-25T08:24:45.999Z</time></trkpt><trkpt lat="45.84729590326232" lon="9.07507039874905"><ele>294.0</ele><time>2026-04-25T08:24:46.999Z</time></trkpt><trkpt lat="45.84737656207876" lon="9.07505757823264"><ele>294.0</ele><time>2026-04-25T08:24:47.999Z</time></trkpt><trkpt lat="45.84744239318037" lon="9.075039433224358"><ele>294.0</ele><time>2026-04-25T08:24:48.999Z</time></trkpt><trkpt lat="45.84755809145417" lon="9.075051304058741"><ele>294.0</ele><time>2026-04-25T08:24:50.999Z</time></trkpt><trkpt lat="45.84764312126081" lon="9.075200517564657"><ele>294.0</ele><time>2026-04-25T08:24:52.999Z</time></trkpt><trkpt lat="45.847701332382876" lon="9.075269979325993"><ele>298.1666666666667</ele><time>2026-04-25T08:24:53.999Z</time></trkpt><trkpt lat="45.847756499615976" lon="9.075423272537508"><ele>302.3333333333333</ele><time>2026-04-25T08:24:55.999Z</time></trkpt><trkpt lat="45.84778006954364" lon="9.075507586864354"><ele>306.5</ele><time>2026-04-25T08:24:56.999Z</time></trkpt><trkpt lat="45.847780028836986" lon="9.075610866450228"><ele>310.66666666666663</ele><time>2026-04-25T08:24:57.999Z</time></trkpt><trkpt lat="45.84777599011327" lon="9.07573351440239"><ele>314.8333333333333</ele><time>2026-04-25T08:24:58.999Z</time></trkpt><trkpt lat="45.84776881944983" lon="9.075881184801855"><ele>319.0</ele><time>2026-04-25T08:24:59.999Z</time></trkpt><trkpt lat="45.8477683891008" lon="9.076040957519709"><ele>320.75</ele><time>2026-04-25T08:25:00.999Z</time></trkpt><trkpt lat="45.84774651526582" lon="9.076199765091037"><ele>322.5</ele><time>2026-04-25T08:25:01.999Z</time></trkpt><trkpt lat="45.847729026693045" lon="9.076393786606946"><ele>324.25</ele><time>2026-04-25T08:25:02.999Z</time></trkpt><trkpt lat="45.84771812089862" lon="9.076560354916381"><ele>326.0</ele><time>2026-04-25T08:25:03.999Z</time></trkpt><trkpt lat="45.847713083672346" lon="9.076709872366875"><ele>327.0</ele><time>2026-04-25T08:25:04.999Z</time></trkpt><trkpt lat="45.84771541463275" lon="9.076869051024515"><ele>328.0</ele><time>2026-04-25T08:25:05.999Z</time></trkpt><trkpt lat="45.847707212190436" lon="9.077037216297732"><ele>329.0</ele><time>2026-04-25T08:25:06.999Z</time></trkpt><trkpt lat="45.8476903735099" lon="9.077208962509909"><ele>330.0</ele><time>2026-04-25T08:25:07.999Z</time></trkpt><trkpt lat="45.84766789549409" lon="9.077388964278466"><ele>331.0</ele><time>2026-04-25T08:25:08.999Z</time></trkpt><trkpt lat="45.84764192544964" lon="9.077574346986895"><ele>332.0</ele><time>2026-04-25T08:25:09.999Z</time></trkpt><trkpt lat="45.84762501973167" lon="9.07775939531448"><ele>333.0</ele><time>2026-04-25T08:25:10.999Z</time></trkpt><trkpt lat="45.847616166454046" lon="9.077927282041554"><ele>334.0</ele><time>2026-04-25T08:25:11.999Z</time></trkpt><trkpt lat="45.84761484004274" lon="9.078087526141207"><ele>324.75</ele><time>2026-04-25T08:25:12.999Z</time></trkpt><trkpt lat="45.84760163622732" lon="9.078246696309785"><ele>315.5</ele><time>2026-04-25T08:25:13.999Z</time></trkpt><trkpt lat="45.8475708525197" lon="9.078407125864517"><ele>306.25</ele><time>2026-04-25T08:25:14.999Z</time></trkpt><trkpt lat="45.84750531459232" lon="9.078557824185975"><ele>297.0</ele><time>2026-04-25T08:25:15.999Z</time></trkpt><trkpt lat="45.84746390915941" lon="9.078718951410867"><ele>297.0</ele><time>2026-04-25T08:25:16.999Z</time></trkpt><trkpt lat="45.847427982874834" lon="9.078880117448515"><ele>297.0</ele><time>2026-04-25T08:25:17.999Z</time></trkpt><trkpt lat="45.8474060653825" lon="9.079039405012264"><ele>297.0</ele><time>2026-04-25T08:25:18.999Z</time></trkpt><trkpt lat="45.84740007088966" lon="9.079200614305819"><ele>297.0</ele><time>2026-04-25T08:25:19.999Z</time></trkpt><trkpt lat="45.8474027520288" lon="9.079377374849289"><ele>298.6</ele><time>2026-04-25T08:25:20.999Z</time></trkpt><trkpt lat="45.84740521226062" lon="9.07955611671731"><ele>300.2</ele><time>2026-04-25T08:25:21.999Z</time></trkpt><trkpt lat="45.847408845215696" lon="9.079701130975563"><ele>301.8</ele><time>2026-04-25T08:25:22.999Z</time></trkpt><trkpt lat="45.84740299121545" lon="9.079846401924499"><ele>303.4</ele><time>2026-04-25T08:25:23.999Z</time></trkpt><trkpt lat="45.84740714335237" lon="9.079984226168893"><ele>305.0</ele><time>2026-04-25T08:25:24.999Z</time></trkpt><trkpt lat="45.84741508149539" lon="9.080113851041896"><ele>305.33333333333337</ele><time>2026-04-25T08:25:25.999Z</time></trkpt><trkpt lat="45.847419071410776" lon="9.08024497824777"><ele>305.6666666666667</ele><time>2026-04-25T08:25:26.999Z</time></trkpt><trkpt lat="45.84741934027022" lon="9.080368259336803"><ele>306.0</ele><time>2026-04-25T08:25:27.999Z</time></trkpt><trkpt lat="45.84741156800842" lon="9.080493921334742"><ele>306.3333333333333</ele><time>2026-04-25T08:25:28.999Z</time></trkpt><trkpt lat="45.847403209184215" lon="9.080620208812656"><ele>306.66666666666663</ele><time>2026-04-25T08:25:29.999Z</time></trkpt><trkpt lat="45.847397395398815" lon="9.08073886807446"><ele>307.0</ele><time>2026-04-25T08:25:30.999Z</time></trkpt><trkpt lat="45.84739667275488" lon="9.080849993777624"><ele>307.0</ele><time>2026-04-25T08:25:31.999Z</time></trkpt><trkpt lat="45.84739804849056" lon="9.080949114154029"><ele>307.0</ele><time>2026-04-25T08:25:32.999Z</time></trkpt><trkpt lat="45.847448061084364" lon="9.08104632243234"><ele>307.0</ele><time>2026-04-25T08:25:34.999Z</time></trkpt><trkpt lat="45.84753031323397" lon="9.081010272062494"><ele>307.0</ele><time>2026-04-25T08:25:36.999Z</time></trkpt><trkpt lat="45.8475141982309" lon="9.080899338685304"><ele>307.0</ele><time>2026-04-25T08:25:37.999Z</time></trkpt><trkpt lat="45.84748711418252" lon="9.080787583178699"><ele>307.0</ele><time>2026-04-25T08:25:38.999Z</time></trkpt><trkpt lat="45.84748617185482" lon="9.08068605305904"><ele>307.0</ele><time>2026-04-25T08:25:39.999Z</time></trkpt><trkpt lat="45.84752352427246" lon="9.080562352078893"><ele>307.0</ele><time>2026-04-25T08:25:40.999Z</time></trkpt><trkpt lat="45.84756322740585" lon="9.080422025268561"><ele>307.0</ele><time>2026-04-25T08:25:41.999Z</time></trkpt><trkpt lat="45.84759605868265" lon="9.080274556977749"><ele>307.0</ele><time>2026-04-25T08:25:42.999Z</time></trkpt><trkpt lat="45.847624626948274" lon="9.080144184087448"><ele>307.0</ele><time>2026-04-25T08:25:43.999Z</time></trkpt><trkpt lat="45.84764762023861" lon="9.07999243497777"><ele>315.2</ele><time>2026-04-25T08:25:44.999Z</time></trkpt><trkpt lat="45.84764069615688" lon="9.079860391399771"><ele>323.4</ele><time>2026-04-25T08:25:45.999Z</time></trkpt><trkpt lat="45.847652579519064" lon="9.07974947968896"><ele>331.59999999999997</ele><time>2026-04-25T08:25:46.999Z</time></trkpt><trkpt lat="45.84769900510356" lon="9.07956725765264"><ele>339.79999999999995</ele><time>2026-04-25T08:25:48.999Z</time></trkpt><trkpt lat="45.84775197526048" lon="9.079469054232733"><ele>348.0</ele><time>2026-04-25T08:25:49.999Z</time></trkpt><trkpt lat="45.847783318591304" lon="9.079333611091686"><ele>348.0</ele><time>2026-04-25T08:25:50.999Z</time></trkpt><trkpt lat="45.84782799591122" lon="9.079198614330997"><ele>348.0</ele><time>2026-04-25T08:25:51.997Z</time></trkpt><trkpt lat="45.84787592346794" lon="9.079062792559164"><ele>348.0</ele><time>2026-04-25T08:25:52.997Z</time></trkpt><trkpt lat="45.84791257320909" lon="9.078944432181938"><ele>348.0</ele><time>2026-04-25T08:25:53.997Z</time></trkpt><trkpt lat="45.84793849443201" lon="9.078827229022735"><ele>348.0</ele><time>2026-04-25T08:25:54.997Z</time></trkpt><trkpt lat="45.84796971042159" lon="9.078721403878767"><ele>346.3333333333333</ele><time>2026-04-25T08:25:55.997Z</time></trkpt><trkpt lat="45.84801765116668" lon="9.078631025707343"><ele>344.6666666666667</ele><time>2026-04-25T08:25:56.997Z</time></trkpt><trkpt lat="45.84806844096472" lon="9.078559803319097"><ele>343.0</ele><time>2026-04-25T08:25:57.997Z</time></trkpt><trkpt lat="45.84814658942644" lon="9.078460377381925"><ele>341.33333333333337</ele><time>2026-04-25T08:25:59.997Z</time></trkpt><trkpt lat="45.848198682997804" lon="9.078513055606537"><ele>339.6666666666667</ele><time>2026-04-25T08:26:01.997Z</time></trkpt><trkpt lat="45.848124949002646" lon="9.07861905921913"><ele>338.0</ele><time>2026-04-25T08:26:04.997Z</time></trkpt><trkpt lat="45.84802669618031" lon="9.078715400318298"><ele>338.0</ele><time>2026-04-25T08:26:06.998Z</time></trkpt><trkpt lat="45.848006200236945" lon="9.078875342912243"><ele>338.0</ele><time>2026-04-25T08:26:08.998Z</time></trkpt><trkpt lat="45.84800572943119" lon="9.078978894745426"><ele>338.0</ele><time>2026-04-25T08:26:11.998Z</time></trkpt><trkpt lat="45.84799410155865" lon="9.079073806556174"><ele>338.0</ele><time>2026-04-25T08:26:25.999Z</time></trkpt><trkpt lat="45.8479983478519" lon="9.079201721662342"><ele>338.0</ele><time>2026-04-25T08:26:27.999Z</time></trkpt><trkpt lat="45.84799680619656" lon="9.079381018513052"><ele>339.6666666666667</ele><time>2026-04-25T08:26:29.999Z</time></trkpt><trkpt lat="45.84799708533886" lon="9.079476862372248"><ele>341.33333333333337</ele><time>2026-04-25T08:26:30.999Z</time></trkpt><trkpt lat="45.8480047589601" lon="9.079636695435955"><ele>343.0</ele><time>2026-04-25T08:26:32.999Z</time></trkpt><trkpt lat="45.848001644448665" lon="9.079729257944765"><ele>344.6666666666667</ele><time>2026-04-25T08:26:33.999Z</time></trkpt><trkpt lat="45.84799258154892" lon="9.079833037765603"><ele>346.3333333333333</ele><time>2026-04-25T08:26:34.999Z</time></trkpt><trkpt lat="45.84797980542482" lon="9.07994247820953"><ele>348.0</ele><time>2026-04-25T08:26:35.999Z</time></trkpt><trkpt lat="45.84796648941777" lon="9.080055796956897"><ele>349.1666666666667</ele><time>2026-04-25T08:26:36.999Z</time></trkpt><trkpt lat="45.84795850761687" lon="9.080164389970971"><ele>350.3333333333333</ele><time>2026-04-25T08:26:37.999Z</time></trkpt><trkpt lat="45.84795021791308" lon="9.080273263975455"><ele>351.5</ele><time>2026-04-25T08:26:38.999Z</time></trkpt><trkpt lat="45.84793747390665" lon="9.080381615087267"><ele>352.66666666666663</ele><time>2026-04-25T08:26:39.999Z</time></trkpt><trkpt lat="45.84792784847795" lon="9.080489441287094"><ele>353.8333333333333</ele><time>2026-04-25T08:26:40.999Z</time></trkpt><trkpt lat="45.8479178846888" lon="9.080580723070309"><ele>355.0</ele><time>2026-04-25T08:26:41.999Z</time></trkpt><trkpt lat="45.84789993378293" lon="9.080744948307652"><ele>355.0</ele><time>2026-04-25T08:26:43.999Z</time></trkpt><trkpt lat="45.84788190492096" lon="9.080876179350115"><ele>355.0</ele><time>2026-04-25T08:26:45.999Z</time></trkpt><trkpt lat="45.84787903409927" lon="9.080991018239986"><ele>355.0</ele><time>2026-04-25T08:26:47.999Z</time></trkpt><trkpt lat="45.84798417756233" lon="9.080961184777038"><ele>355.0</ele><time>2026-04-25T08:26:51.999Z</time></trkpt><trkpt lat="45.84798333875103" lon="9.080858892741126"><ele>355.0</ele><time>2026-04-25T08:26:52.999Z</time></trkpt><trkpt lat="45.847996083605814" lon="9.080754923479605"><ele>355.0</ele><time>2026-04-25T08:26:53.999Z</time></trkpt><trkpt lat="45.84802437871442" lon="9.080653908560812"><ele>355.0</ele><time>2026-04-25T08:26:54.999Z</time></trkpt><trkpt lat="45.84806704921257" lon="9.080546630959358"><ele>355.0</ele><time>2026-04-25T08:26:55.999Z</time></trkpt><trkpt lat="45.848117707364366" lon="9.080431165105965"><ele>355.0</ele><time>2026-04-25T08:26:56.999Z</time></trkpt><trkpt lat="45.84816779645074" lon="9.080306048021274"><ele>355.0</ele><time>2026-04-25T08:26:57.999Z</time></trkpt><trkpt lat="45.84821312029246" lon="9.08018907503551"><ele>355.0</ele><time>2026-04-25T08:26:58.999Z</time></trkpt><trkpt lat="45.848251721729014" lon="9.08008264529516"><ele>355.0</ele><time>2026-04-25T08:26:59.999Z</time></trkpt><trkpt lat="45.84828281090551" lon="9.079977644067544"><ele>355.0</ele><time>2026-04-25T08:27:00.999Z</time></trkpt><trkpt lat="45.84830209249551" lon="9.07987235622084"><ele>355.0</ele><time>2026-04-25T08:27:01.999Z</time></trkpt><trkpt lat="45.84831549131271" lon="9.079773194019287"><ele>355.0</ele><time>2026-04-25T08:27:02.999Z</time></trkpt><trkpt lat="45.84832677992993" lon="9.079658649690483"><ele>355.0</ele><time>2026-04-25T08:27:03.999Z</time></trkpt><trkpt lat="45.84833713999364" lon="9.079565934056761"><ele>355.0</ele><time>2026-04-25T08:27:04.999Z</time></trkpt><trkpt lat="45.84834574236913" lon="9.079463401485958"><ele>355.0</ele><time>2026-04-25T08:27:05.999Z</time></trkpt><trkpt lat="45.848357599453514" lon="9.07936475085945"><ele>354.0</ele><time>2026-04-25T08:27:06.999Z</time></trkpt><trkpt lat="45.84837890644214" lon="9.07927181358741"><ele>353.0</ele><time>2026-04-25T08:27:07.999Z</time></trkpt><trkpt lat="45.84840593223611" lon="9.079184413979958"><ele>352.0</ele><time>2026-04-25T08:27:08.999Z</time></trkpt><trkpt lat="45.84844686386719" lon="9.079098608677707"><ele>351.0</ele><time>2026-04-25T08:27:09.999Z</time></trkpt><trkpt lat="45.84848582710016" lon="9.079005284016322"><ele>350.0</ele><time>2026-04-25T08:27:10.999Z</time></trkpt><trkpt lat="45.84852275477419" lon="9.078915989581779"><ele>349.0</ele><time>2026-04-25T08:27:11.999Z</time></trkpt><trkpt lat="45.84855976098097" lon="9.078822018518533"><ele>348.0</ele><time>2026-04-25T08:27:12.999Z</time></trkpt><trkpt lat="45.84860048553099" lon="9.078731006774218"><ele>352.3333333333333</ele><time>2026-04-25T08:27:13.999Z</time></trkpt><trkpt lat="45.848633770850526" lon="9.078644978956465"><ele>356.6666666666667</ele><time>2026-04-25T08:27:14.999Z</time></trkpt><trkpt lat="45.8486858910257" lon="9.078525275989245"><ele>361.0</ele><time>2026-04-25T08:27:16.999Z</time></trkpt><trkpt lat="45.848721261657666" lon="9.078436263330962"><ele>365.33333333333337</ele><time>2026-04-25T08:27:18.999Z</time></trkpt><trkpt lat="45.84877117530922" lon="9.07834571186087"><ele>369.6666666666667</ele><time>2026-04-25T08:27:20.999Z</time></trkpt><trkpt lat="45.84884206161705" lon="9.07835745253908"><ele>374.0</ele><time>2026-04-25T08:27:24.999Z</time></trkpt><trkpt lat="45.848781344179514" lon="9.078465388081561"><ele>374.0</ele><time>2026-04-25T08:27:26.999Z</time></trkpt><trkpt lat="45.84872688540674" lon="9.07852321109318"><ele>374.0</ele><time>2026-04-25T08:27:27.999Z</time></trkpt><trkpt lat="45.84869284905028" lon="9.078613510972188"><ele>374.0</ele><time>2026-04-25T08:27:28.999Z</time></trkpt><trkpt lat="45.84865849667309" lon="9.078720008607831"><ele>374.0</ele><time>2026-04-25T08:27:29.999Z</time></trkpt><trkpt lat="45.848630343015344" lon="9.078806633240246"><ele>374.0</ele><time>2026-04-25T08:27:30.999Z</time></trkpt><trkpt lat="45.84860644000446" lon="9.0788950277033"><ele>374.0</ele><time>2026-04-25T08:27:31.999Z</time></trkpt><trkpt lat="45.84858903085424" lon="9.079000349312672"><ele>374.0</ele><time>2026-04-25T08:27:32.999Z</time></trkpt><trkpt lat="45.84857745028595" lon="9.079114123904603"><ele>376.6666666666667</ele><time>2026-04-25T08:27:33.999Z</time></trkpt><trkpt lat="45.84856351115987" lon="9.079223254337387"><ele>379.33333333333337</ele><time>2026-04-25T08:27:34.999Z</time></trkpt><trkpt lat="45.84853729238258" lon="9.079329094094168"><ele>382.0</ele><time>2026-04-25T08:27:35.999Z</time></trkpt><trkpt lat="45.84853397918766" lon="9.079432262335805"><ele>384.6666666666667</ele><time>2026-04-25T08:27:36.999Z</time></trkpt><trkpt lat="45.84854577581137" lon="9.079596971040424"><ele>387.3333333333333</ele><time>2026-04-25T08:27:38.999Z</time></trkpt><trkpt lat="45.84854894920373" lon="9.079698505714477"><ele>390.0</ele><time>2026-04-25T08:27:41.999Z</time></trkpt><trkpt lat="45.84855416436141" lon="9.079834979252382"><ele>391.6</ele><time>2026-04-25T08:27:58.997Z</time></trkpt><trkpt lat="45.8485755843735" lon="9.07999591634176"><ele>393.2</ele><time>2026-04-25T08:28:00.997Z</time></trkpt><trkpt lat="45.84858817275887" lon="9.080090499268895"><ele>394.79999999999995</ele><time>2026-04-25T08:28:01.997Z</time></trkpt><trkpt lat="45.84861470843902" lon="9.08019604591622"><ele>396.4</ele><time>2026-04-25T08:28:02.997Z</time></trkpt><trkpt lat="45.84861841793037" lon="9.080373882522254"><ele>398.0</ele><time>2026-04-25T08:28:04.997Z</time></trkpt><trkpt lat="45.848591350378285" lon="9.080474421751351"><ele>398.0</ele><time>2026-04-25T08:28:05.997Z</time></trkpt><trkpt lat="45.84856081735915" lon="9.080603773817808"><ele>398.0</ele><time>2026-04-25T08:28:06.997Z</time></trkpt><trkpt lat="45.84858015002178" lon="9.080734045439254"><ele>398.0</ele><time>2026-04-25T08:28:07.997Z</time></trkpt><trkpt lat="45.84858951938529" lon="9.080888822018368"><ele>398.0</ele><time>2026-04-25T08:28:08.998Z</time></trkpt><trkpt lat="45.84858502498607" lon="9.081030636123584"><ele>398.0</ele><time>2026-04-25T08:28:09.998Z</time></trkpt><trkpt lat="45.84857674554002" lon="9.081182495242734"><ele>399.59999999999997</ele><time>2026-04-25T08:28:10.998Z</time></trkpt><trkpt lat="45.84857033732103" lon="9.081327859612792"><ele>401.2</ele><time>2026-04-25T08:28:11.998Z</time></trkpt><trkpt lat="45.84856496725524" lon="9.081457075634123"><ele>402.8</ele><time>2026-04-25T08:28:12.998Z</time></trkpt><trkpt lat="45.84855865672777" lon="9.081590767849397"><ele>404.4</ele><time>2026-04-25T08:28:13.998Z</time></trkpt><trkpt lat="45.84855039778335" lon="9.081723386211834"><ele>406.0</ele><time>2026-04-25T08:28:14.998Z</time></trkpt><trkpt lat="45.84854204071274" lon="9.08185789177479"><ele>407.33333333333337</ele><time>2026-04-25T08:28:15.998Z</time></trkpt><trkpt lat="45.84853226271288" lon="9.081987768065394"><ele>408.6666666666667</ele><time>2026-04-25T08:28:16.998Z</time></trkpt><trkpt lat="45.848513594357605" lon="9.082109261879669"><ele>410.0</ele><time>2026-04-25T08:28:17.998Z</time></trkpt><trkpt lat="45.848488678568366" lon="9.082216836472698"><ele>411.33333333333337</ele><time>2026-04-25T08:28:18.998Z</time></trkpt><trkpt lat="45.84846745190155" lon="9.082312058443998"><ele>412.6666666666667</ele><time>2026-04-25T08:28:19.998Z</time></trkpt><trkpt lat="45.84843952566989" lon="9.08246010534908"><ele>414.0</ele><time>2026-04-25T08:28:21.998Z</time></trkpt><trkpt lat="45.84842601097568" lon="9.082551056779119"><ele>414.79999999999995</ele><time>2026-04-25T08:28:23.998Z</time></trkpt><trkpt lat="45.848418832863445" lon="9.082640894742136"><ele>415.59999999999997</ele><time>2026-04-25T08:28:25.999Z</time></trkpt><trkpt lat="45.848406531699794" lon="9.082775759124454"><ele>416.4</ele><time>2026-04-25T08:28:27.999Z</time></trkpt><trkpt lat="45.848367198537424" lon="9.08291137333397"><ele>417.2</ele><time>2026-04-25T08:28:29.999Z</time></trkpt><trkpt lat="45.848394127807154" lon="9.083010464246938"><ele>418.0</ele><time>2026-04-25T08:28:31.999Z</time></trkpt><trkpt lat="45.84849779033367" lon="9.082871213702445"><ele>418.00000000000006</ele><time>2026-04-25T08:28:34.999Z</time></trkpt><trkpt lat="45.848501020137704" lon="9.082761173143828"><ele>418.0</ele><time>2026-04-25T08:28:35.999Z</time></trkpt><trkpt lat="45.84851976247817" lon="9.08267280114994"><ele>418.0</ele><time>2026-04-25T08:28:36.999Z</time></trkpt><trkpt lat="45.84856764042054" lon="9.082521056344437"><ele>418.0</ele><time>2026-04-25T08:28:38.999Z</time></trkpt><trkpt lat="45.84859941282892" lon="9.082437511471015"><ele>418.00000000000006</ele><time>2026-04-25T08:28:39.999Z</time></trkpt><trkpt lat="45.84863554334457" lon="9.082347077596047"><ele>418.0</ele><time>2026-04-25T08:28:40.999Z</time></trkpt><trkpt lat="45.84867423347554" lon="9.082261968038932"><ele>417.2</ele><time>2026-04-25T08:28:41.999Z</time></trkpt><trkpt lat="45.848713344163784" lon="9.08218282628972"><ele>416.4</ele><time>2026-04-25T08:28:42.999Z</time></trkpt><trkpt lat="45.84871112047605" lon="9.08203127602026"><ele>415.59999999999997</ele><time>2026-04-25T08:28:44.999Z</time></trkpt><trkpt lat="45.84880670599564" lon="9.08199450536718"><ele>414.79999999999995</ele><time>2026-04-25T08:28:45.999Z</time></trkpt><trkpt lat="45.848842128638786" lon="9.08187669182952"><ele>414.0</ele><time>2026-04-25T08:28:47.999Z</time></trkpt><trkpt lat="45.84885662347105" lon="9.081711265585561"><ele>412.6666666666667</ele><time>2026-04-25T08:28:49.999Z</time></trkpt><trkpt lat="45.848871499773594" lon="9.081526492236215"><ele>411.33333333333337</ele><time>2026-04-25T08:28:51.999Z</time></trkpt><trkpt lat="45.84888224504336" lon="9.081425723460695"><ele>410.0</ele><time>2026-04-25T08:28:52.999Z</time></trkpt><trkpt lat="45.848886414989245" lon="9.081321723765145"><ele>408.6666666666667</ele><time>2026-04-25T08:28:53.999Z</time></trkpt><trkpt lat="45.848908721546756" lon="9.081225155702683"><ele>407.33333333333337</ele><time>2026-04-25T08:28:54.999Z</time></trkpt><trkpt lat="45.848922840042846" lon="9.08112991841373"><ele>406.0</ele><time>2026-04-25T08:28:55.999Z</time></trkpt><trkpt lat="45.8489432304869" lon="9.081039105150431"><ele>406.0</ele><time>2026-04-25T08:28:56.999Z</time></trkpt><trkpt lat="45.84896061015766" lon="9.080945292909293"><ele>406.0</ele><time>2026-04-25T08:28:57.999Z</time></trkpt><trkpt lat="45.84900163837325" lon="9.080865336948031"><ele>406.0</ele><time>2026-04-25T08:28:58.999Z</time></trkpt><trkpt lat="45.8490302364665" lon="9.080771720779875"><ele>406.0</ele><time>2026-04-25T08:28:59.999Z</time></trkpt><trkpt lat="45.849041946514085" lon="9.080669404093541"><ele>406.0</ele><time>2026-04-25T08:29:00.999Z</time></trkpt><trkpt lat="45.84905434318554" lon="9.080572220244692"><ele>406.0</ele><time>2026-04-25T08:29:01.999Z</time></trkpt><trkpt lat="45.84907161608844" lon="9.080470171980096"><ele>406.0</ele><time>2026-04-25T08:29:02.999Z</time></trkpt><trkpt lat="45.84910494495864" lon="9.080362788699775"><ele>404.6666666666667</ele><time>2026-04-25T08:29:03.999Z</time></trkpt><trkpt lat="45.84914578769033" lon="9.080254542563868"><ele>403.33333333333337</ele><time>2026-04-25T08:29:04.999Z</time></trkpt><trkpt lat="45.84920322995107" lon="9.08015574336167"><ele>402.0</ele><time>2026-04-25T08:29:06Z</time></trkpt><trkpt lat="45.84923347573383" lon="9.080031615485584"><ele>400.66666666666663</ele><time>2026-04-25T08:29:07Z</time></trkpt><trkpt lat="45.84926928045575" lon="9.07992521553018"><ele>399.3333333333333</ele><time>2026-04-25T08:29:08Z</time></trkpt><trkpt lat="45.849300628594" lon="9.079816457667713"><ele>398.0</ele><time>2026-04-25T08:29:09Z</time></trkpt><trkpt lat="45.84932909241776" lon="9.0797219039782"><ele>401.59999999999997</ele><time>2026-04-25T08:29:10Z</time></trkpt><trkpt lat="45.84937506549465" lon="9.079575507006384"><ele>405.2</ele><time>2026-04-25T08:29:12Z</time></trkpt><trkpt lat="45.849380115382715" lon="9.07947133698583"><ele>408.8</ele><time>2026-04-25T08:29:14Z</time></trkpt><trkpt lat="45.849382660030415" lon="9.079350461674212"><ele>412.4</ele><time>2026-04-25T08:29:17Z</time></trkpt><trkpt lat="45.849430416703115" lon="9.079245971111012"><ele>416.0</ele><time>2026-04-25T08:29:20Z</time></trkpt><trkpt lat="45.84949924592937" lon="9.079402983611999"><ele>416.0</ele><time>2026-04-25T08:29:23Z</time></trkpt><trkpt lat="45.84949360591729" lon="9.0795077875104"><ele>416.0</ele><time>2026-04-25T08:29:24Z</time></trkpt><trkpt lat="45.8495055391492" lon="9.079608685771781"><ele>416.0</ele><time>2026-04-25T08:29:25Z</time></trkpt><trkpt lat="45.84952632247993" lon="9.07971676652237"><ele>416.0</ele><time>2026-04-25T08:29:26Z</time></trkpt><trkpt lat="45.84954209567792" lon="9.079814589575994"><ele>416.0</ele><time>2026-04-25T08:29:27Z</time></trkpt><trkpt lat="45.849543035109704" lon="9.079915431886226"><ele>416.0</ele><time>2026-04-25T08:29:28Z</time></trkpt><trkpt lat="45.849535772729034" lon="9.08001649124536"><ele>416.0</ele><time>2026-04-25T08:29:29Z</time></trkpt><trkpt lat="45.84951462684213" lon="9.08010639752551"><ele>414.57142857142856</ele><time>2026-04-25T08:29:30Z</time></trkpt><trkpt lat="45.84948175721078" lon="9.080186823259133"><ele>413.14285714285717</ele><time>2026-04-25T08:29:31Z</time></trkpt><trkpt lat="45.849450236540974" lon="9.080274910382476"><ele>411.7142857142857</ele><time>2026-04-25T08:29:32Z</time></trkpt><trkpt lat="45.84941206594014" lon="9.080362038123281"><ele>410.2857142857143</ele><time>2026-04-25T08:29:33Z</time></trkpt><trkpt lat="45.84937051050145" lon="9.080449223723308"><ele>408.8571428571429</ele><time>2026-04-25T08:29:34Z</time></trkpt><trkpt lat="45.849329112677346" lon="9.080537625755968"><ele>407.42857142857144</ele><time>2026-04-25T08:29:35Z</time></trkpt><trkpt lat="45.849299344576764" lon="9.080633812465699"><ele>406.0</ele><time>2026-04-25T08:29:36Z</time></trkpt><trkpt lat="45.84927101235128" lon="9.080803176340652"><ele>406.00000000000006</ele><time>2026-04-25T08:29:38Z</time></trkpt><trkpt lat="45.849263073407634" lon="9.080932246168018"><ele>406.0</ele><time>2026-04-25T08:29:40Z</time></trkpt><trkpt lat="45.849248664156924" lon="9.081033740722136"><ele>406.0</ele><time>2026-04-25T08:29:42Z</time></trkpt><trkpt lat="45.84923847239163" lon="9.081136604091043"><ele>406.0</ele><time>2026-04-25T08:29:45Z</time></trkpt><trkpt lat="45.84920996197743" lon="9.081242351845644"><ele>406.00000000000006</ele><time>2026-04-25T08:29:47Z</time></trkpt><trkpt lat="45.84919632075594" lon="9.08141476464773"><ele>406.0</ele><time>2026-04-25T08:29:49Z</time></trkpt><trkpt lat="45.84918622237128" lon="9.081548151970257"><ele>407.33333333333337</ele><time>2026-04-25T08:29:51Z</time></trkpt><trkpt lat="45.84917676919748" lon="9.081700968875564"><ele>408.6666666666667</ele><time>2026-04-25T08:29:53Z</time></trkpt><trkpt lat="45.84917532575516" lon="9.081798752978685"><ele>410.0</ele><time>2026-04-25T08:29:54Z</time></trkpt><trkpt lat="45.849170766237926" lon="9.08191542892865"><ele>411.33333333333337</ele><time>2026-04-25T08:29:55Z</time></trkpt><trkpt lat="45.84917087641217" lon="9.08202283751693"><ele>412.6666666666667</ele><time>2026-04-25T08:29:56Z</time></trkpt><trkpt lat="45.84916823164675" lon="9.082129754607102"><ele>414.0</ele><time>2026-04-25T08:29:57Z</time></trkpt><trkpt lat="45.849162454134685" lon="9.082236095297318"><ele>414.0</ele><time>2026-04-25T08:29:58Z</time></trkpt><trkpt lat="45.849152729432056" lon="9.08235111404012"><ele>414.0</ele><time>2026-04-25T08:29:59Z</time></trkpt><trkpt lat="45.84914753924038" lon="9.082461153123543"><ele>414.0</ele><time>2026-04-25T08:30:00Z</time></trkpt><trkpt lat="45.84914036996069" lon="9.082559321617886"><ele>414.0</ele><time>2026-04-25T08:30:01Z</time></trkpt><trkpt lat="45.84913494087369" lon="9.082655116902629"><ele>414.0</ele><time>2026-04-25T08:30:02Z</time></trkpt><trkpt lat="45.84912241584467" lon="9.082823331164784"><ele>414.0</ele><time>2026-04-25T08:30:03.998Z</time></trkpt><trkpt lat="45.84910808480728" lon="9.082967089851557"><ele>414.79999999999995</ele><time>2026-04-25T08:30:05.998Z</time></trkpt><trkpt lat="45.84910209398461" lon="9.08310023031167"><ele>415.59999999999997</ele><time>2026-04-25T08:30:07.998Z</time></trkpt><trkpt lat="45.84910944729599" lon="9.08327229376957"><ele>416.4</ele><time>2026-04-25T08:30:09.998Z</time></trkpt><trkpt lat="45.849135903471925" lon="9.083455029184124"><ele>417.2</ele><time>2026-04-25T08:30:11.998Z</time></trkpt><trkpt lat="45.84916444048387" lon="9.083541365062514"><ele>418.0</ele><time>2026-04-25T08:30:12.998Z</time></trkpt><trkpt lat="45.84920006668268" lon="9.083628164803565"><ele>418.6666666666667</ele><time>2026-04-25T08:30:13.998Z</time></trkpt><trkpt lat="45.84923573468868" lon="9.083728584726373"><ele>419.33333333333337</ele><time>2026-04-25T08:30:14.998Z</time></trkpt><trkpt lat="45.84928531499905" lon="9.083818976573317"><ele>420.0</ele><time>2026-04-25T08:30:15.998Z</time></trkpt><trkpt lat="45.849341739099124" lon="9.083911983255517"><ele>420.66666666666663</ele><time>2026-04-25T08:30:16.998Z</time></trkpt><trkpt lat="45.8493978178615" lon="9.084000690279924"><ele>421.3333333333333</ele><time>2026-04-25T08:30:17.998Z</time></trkpt><trkpt lat="45.84945463693965" lon="9.084078797661109"><ele>422.0</ele><time>2026-04-25T08:30:18.998Z</time></trkpt><trkpt lat="45.84951409626853" lon="9.084151461754853"><ele>423.57142857142856</ele><time>2026-04-25T08:30:19.998Z</time></trkpt><trkpt lat="45.84956177853172" lon="9.084212291582336"><ele>425.14285714285717</ele><time>2026-04-25T08:30:20.998Z</time></trkpt><trkpt lat="45.84962818524763" lon="9.084288053566748"><ele>426.71428571428567</ele><time>2026-04-25T08:30:22.999Z</time></trkpt><trkpt lat="45.84968684414355" lon="9.084333669387675"><ele>428.2857142857143</ele><time>2026-04-25T08:30:23.999Z</time></trkpt><trkpt lat="45.849757795312144" lon="9.08436795920724"><ele>429.85714285714283</ele><time>2026-04-25T08:30:24.999Z</time></trkpt><trkpt lat="45.84982146641546" lon="9.084388522685353"><ele>431.4285714285714</ele><time>2026-04-25T08:30:25.999Z</time></trkpt><trkpt lat="45.849884627265105" lon="9.084401226303523"><ele>433.0</ele><time>2026-04-25T08:30:26.999Z</time></trkpt><trkpt lat="45.84996990995697" lon="9.084411734613504"><ele>433.0</ele><time>2026-04-25T08:30:27.999Z</time></trkpt><trkpt lat="45.85009825169785" lon="9.084378278226833"><ele>432.99999999999994</ele><time>2026-04-25T08:30:28.999Z</time></trkpt><trkpt lat="45.850151859763535" lon="9.084326515677095"><ele>432.99999999999994</ele><time>2026-04-25T08:30:29.999Z</time></trkpt><trkpt lat="45.85020651069211" lon="9.08423595430415"><ele>433.0</ele><time>2026-04-25T08:30:30.999Z</time></trkpt><trkpt lat="45.85025807102473" lon="9.084115242549258"><ele>433.0</ele><time>2026-04-25T08:30:32.999Z</time></trkpt><trkpt lat="45.85030635586957" lon="9.083984637699515"><ele>434.83333333333337</ele><time>2026-04-25T08:30:34.999Z</time></trkpt><trkpt lat="45.850340120074506" lon="9.083895608598601"><ele>436.6666666666667</ele><time>2026-04-25T08:30:35.999Z</time></trkpt><trkpt lat="45.850372826550554" lon="9.083807685027066"><ele>438.5</ele><time>2026-04-25T08:30:36.999Z</time></trkpt><trkpt lat="45.85040884888043" lon="9.083727009634933"><ele>440.33333333333337</ele><time>2026-04-25T08:30:37.999Z</time></trkpt><trkpt lat="45.85046472102138" lon="9.083605014334548"><ele>442.1666666666667</ele><time>2026-04-25T08:30:38.999Z</time></trkpt><trkpt lat="45.85053070378868" lon="9.0834668008851"><ele>444.0</ele><time>2026-04-25T08:30:39.999Z</time></trkpt><trkpt lat="45.85058125163628" lon="9.083366158092266"><ele>444.0</ele><time>2026-04-25T08:30:40.999Z</time></trkpt><trkpt lat="45.850670866632115" lon="9.083265524358264"><ele>444.0</ele><time>2026-04-25T08:30:42.999Z</time></trkpt><trkpt lat="45.850736273988616" lon="9.083250443783102"><ele>444.0</ele><time>2026-04-25T08:30:43.999Z</time></trkpt><trkpt lat="45.85080318017042" lon="9.083248168777237"><ele>444.0</ele><time>2026-04-25T08:30:44.999Z</time></trkpt><trkpt lat="45.85088025784633" lon="9.083287009534692"><ele>444.0</ele><time>2026-04-25T08:30:46Z</time></trkpt><trkpt lat="45.85095880519686" lon="9.083343136311216"><ele>444.0</ele><time>2026-04-25T08:30:47Z</time></trkpt><trkpt lat="45.85103426124253" lon="9.08342236840664"><ele>446.5</ele><time>2026-04-25T08:30:48Z</time></trkpt><trkpt lat="45.851129040317545" lon="9.083518937899937"><ele>449.0</ele><time>2026-04-25T08:30:49Z</time></trkpt><trkpt lat="45.85123159749399" lon="9.083641667060487"><ele>451.5</ele><time>2026-04-25T08:30:50Z</time></trkpt><trkpt lat="45.851330043521564" lon="9.083747440436095"><ele>454.0</ele><time>2026-04-25T08:30:51Z</time></trkpt><trkpt lat="45.85141594445706" lon="9.083855962265412"><ele>454.0</ele><time>2026-04-25T08:30:52Z</time></trkpt><trkpt lat="45.85150417173417" lon="9.083956748685866"><ele>454.0</ele><time>2026-04-25T08:30:53Z</time></trkpt><trkpt lat="45.851601739440184" lon="9.084050620252041"><ele>454.0</ele><time>2026-04-25T08:30:54Z</time></trkpt><trkpt lat="45.85171378221282" lon="9.084141549418352"><ele>454.0</ele><time>2026-04-25T08:30:55Z</time></trkpt><trkpt lat="45.85183057227551" lon="9.084212717785366"><ele>457.0</ele><time>2026-04-25T08:30:56Z</time></trkpt><trkpt lat="45.851955595092655" lon="9.084284459776603"><ele>460.0</ele><time>2026-04-25T08:30:57Z</time></trkpt><trkpt lat="45.85208108421059" lon="9.084346777629822"><ele>463.0</ele><time>2026-04-25T08:30:58Z</time></trkpt><trkpt lat="45.85218822367046" lon="9.08443502318167"><ele>466.0</ele><time>2026-04-25T08:30:59Z</time></trkpt><trkpt lat="45.85229198887639" lon="9.084516945244511"><ele>466.00000000000006</ele><time>2026-04-25T08:31:00Z</time></trkpt><trkpt lat="45.85237813920729" lon="9.08460634353162"><ele>466.0</ele><time>2026-04-25T08:31:01Z</time></trkpt><trkpt lat="45.852440122616066" lon="9.084676801558235"><ele>466.0</ele><time>2026-04-25T08:31:02Z</time></trkpt><trkpt lat="45.85250584024112" lon="9.084730516563706"><ele>466.0</ele><time>2026-04-25T08:31:03Z</time></trkpt><trkpt lat="45.852556311142855" lon="9.084785774113636"><ele>466.00000000000006</ele><time>2026-04-25T08:31:04Z</time></trkpt><trkpt lat="45.85262627819268" lon="9.084777888604881"><ele>466.0</ele><time>2026-04-25T08:31:06Z</time></trkpt><trkpt lat="45.852653810551686" lon="9.084627479959488"><ele>466.0</ele><time>2026-04-25T08:31:07Z</time></trkpt><trkpt lat="45.85254234031248" lon="9.08444355327087"><ele>466.0</ele><time>2026-04-25T08:31:09Z</time></trkpt><trkpt lat="45.85248218266096" lon="9.084334108625397"><ele>466.0</ele><time>2026-04-25T08:31:10Z</time></trkpt><trkpt lat="45.85243005751107" lon="9.084244130261721"><ele>466.0</ele><time>2026-04-25T08:31:11Z</time></trkpt><trkpt lat="45.852345597824005" lon="9.084091155190047"><ele>467.20000000000005</ele><time>2026-04-25T08:31:12Z</time></trkpt><trkpt lat="45.85228642502509" lon="9.083961659755188"><ele>468.40000000000003</ele><time>2026-04-25T08:31:13Z</time></trkpt><trkpt lat="45.852248327293466" lon="9.083850071405301"><ele>469.6</ele><time>2026-04-25T08:31:14Z</time></trkpt><trkpt lat="45.85222918826543" lon="9.083748699505005"><ele>470.8</ele><time>2026-04-25T08:31:15Z</time></trkpt><trkpt lat="45.85222356795147" lon="9.083559938005148"><ele>472.0</ele><time>2026-04-25T08:31:17Z</time></trkpt><trkpt lat="45.85223145495631" lon="9.083419279988329"><ele>473.25</ele><time>2026-04-25T08:31:18Z</time></trkpt><trkpt lat="45.85224928893025" lon="9.083254242524164"><ele>474.5</ele><time>2026-04-25T08:31:19Z</time></trkpt><trkpt lat="45.85224340669259" lon="9.083075355675545"><ele>475.75</ele><time>2026-04-25T08:31:20Z</time></trkpt><trkpt lat="45.852256614770845" lon="9.082914049895155"><ele>477.0</ele><time>2026-04-25T08:31:21Z</time></trkpt><trkpt lat="45.85225525523921" lon="9.08274228188633"><ele>477.0</ele><time>2026-04-25T08:31:22Z</time></trkpt><trkpt lat="45.852237495663346" lon="9.082565240531476"><ele>477.00000000000006</ele><time>2026-04-25T08:31:23Z</time></trkpt><trkpt lat="45.85222038440503" lon="9.082406508181567"><ele>477.00000000000006</ele><time>2026-04-25T08:31:24Z</time></trkpt><trkpt lat="45.85220989785557" lon="9.082270488129138"><ele>477.0</ele><time>2026-04-25T08:31:25Z</time></trkpt><trkpt lat="45.852219138673114" lon="9.082156594079674"><ele>477.0</ele><time>2026-04-25T08:31:26Z</time></trkpt><trkpt lat="45.852223139573056" lon="9.082061675208825"><ele>479.40000000000003</ele><time>2026-04-25T08:31:27Z</time></trkpt><trkpt lat="45.852273572460824" lon="9.08200119085639"><ele>481.80000000000007</ele><time>2026-04-25T08:31:29.001Z</time></trkpt><trkpt lat="45.85236412636545" lon="9.082115114397887"><ele>484.2</ele><time>2026-04-25T08:31:31.001Z</time></trkpt><trkpt lat="45.852412266509866" lon="9.082191932970895"><ele>486.6</ele><time>2026-04-25T08:31:32.001Z</time></trkpt><trkpt lat="45.852488378095806" lon="9.082268268702556"><ele>489.0</ele><time>2026-04-25T08:31:33.001Z</time></trkpt><trkpt lat="45.852558710021825" lon="9.082374428287828"><ele>494.2</ele><time>2026-04-25T08:31:34.001Z</time></trkpt><trkpt lat="45.852633575122425" lon="9.082502794451077"><ele>499.4</ele><time>2026-04-25T08:31:35.001Z</time></trkpt><trkpt lat="45.85271137934751" lon="9.082613332395646"><ele>504.6</ele><time>2026-04-25T08:31:36.001Z</time></trkpt><trkpt lat="45.85278428444403" lon="9.082728532465033"><ele>509.8</ele><time>2026-04-25T08:31:37.001Z</time></trkpt><trkpt lat="45.852845315893695" lon="9.08283769987339"><ele>515.0</ele><time>2026-04-25T08:31:38.001Z</time></trkpt><trkpt lat="45.85291045793918" lon="9.082963148614583"><ele>515.0</ele><time>2026-04-25T08:31:39.001Z</time></trkpt><trkpt lat="45.85298289850585" lon="9.083073092163522"><ele>515.0</ele><time>2026-04-25T08:31:40.001Z</time></trkpt><trkpt lat="45.85304259948859" lon="9.083165944371359"><ele>515.0</ele><time>2026-04-25T08:31:41.001Z</time></trkpt><trkpt lat="45.85310721242522" lon="9.083290737178167"><ele>515.0</ele><time>2026-04-25T08:31:42.001Z</time></trkpt><trkpt lat="45.85316415125227" lon="9.083419060934416"><ele>515.0</ele><time>2026-04-25T08:31:43.001Z</time></trkpt><trkpt lat="45.8532127857732" lon="9.083554375106267"><ele>517.8</ele><time>2026-04-25T08:31:44.001Z</time></trkpt><trkpt lat="45.85326496073328" lon="9.083687624427537"><ele>520.6</ele><time>2026-04-25T08:31:45.001Z</time></trkpt><trkpt lat="45.853322768696316" lon="9.08381202155961"><ele>523.4</ele><time>2026-04-25T08:31:46.001Z</time></trkpt><trkpt lat="45.85338156551699" lon="9.083943507462447"><ele>526.2</ele><time>2026-04-25T08:31:47.001Z</time></trkpt><trkpt lat="45.853431726797986" lon="9.08406677236184"><ele>529.0</ele><time>2026-04-25T08:31:48.001Z</time></trkpt><trkpt lat="45.85347646009946" lon="9.084168903900792"><ele>529.0</ele><time>2026-04-25T08:31:49.001Z</time></trkpt><trkpt lat="45.85350964559659" lon="9.084254058155123"><ele>529.0</ele><time>2026-04-25T08:31:50.001Z</time></trkpt><trkpt lat="45.853548645566065" lon="9.084327777583315"><ele>529.0</ele><time>2026-04-25T08:31:51.001Z</time></trkpt><trkpt lat="45.85359874222892" lon="9.084431097688324"><ele>529.0</ele><time>2026-04-25T08:31:53.001Z</time></trkpt><trkpt lat="45.853667325406725" lon="9.084411573478565"><ele>529.0</ele><time>2026-04-25T08:31:55.001Z</time></trkpt><trkpt lat="45.853696115694035" lon="9.084316194298239"><ele>529.0</ele><time>2026-04-25T08:31:56.001Z</time></trkpt><trkpt lat="45.853636262599096" lon="9.084209911504113"><ele>531.4</ele><time>2026-04-25T08:31:57.001Z</time></trkpt><trkpt lat="45.853617631952574" lon="9.0840915801986"><ele>533.8</ele><time>2026-04-25T08:31:58.001Z</time></trkpt><trkpt lat="45.85358409286691" lon="9.08397072476024"><ele>536.2</ele><time>2026-04-25T08:31:59.001Z</time></trkpt><trkpt lat="45.85355800391414" lon="9.08383397471028"><ele>538.6</ele><time>2026-04-25T08:32:00.001Z</time></trkpt><trkpt lat="45.85354146450864" lon="9.083684909643628"><ele>541.0</ele><time>2026-04-25T08:32:01.001Z</time></trkpt><trkpt lat="45.85352653652697" lon="9.083529349298145"><ele>541.0</ele><time>2026-04-25T08:32:02.001Z</time></trkpt><trkpt lat="45.85351159095413" lon="9.083391805893594"><ele>541.0</ele><time>2026-04-25T08:32:03.001Z</time></trkpt><trkpt lat="45.85349544989915" lon="9.08325312136477"><ele>541.0</ele><time>2026-04-25T08:32:04.001Z</time></trkpt><trkpt lat="45.85346315122956" lon="9.083127299279482"><ele>541.0</ele><time>2026-04-25T08:32:05.001Z</time></trkpt><trkpt lat="45.853443024867516" lon="9.08299774197413"><ele>541.0</ele><time>2026-04-25T08:32:06.001Z</time></trkpt><trkpt lat="45.853426232424844" lon="9.082863924783357"><ele>539.8333333333334</ele><time>2026-04-25T08:32:07.001Z</time></trkpt><trkpt lat="45.85340261334907" lon="9.082733413945231"><ele>538.6666666666667</ele><time>2026-04-25T08:32:08.001Z</time></trkpt><trkpt lat="45.853368174469665" lon="9.082619473577106"><ele>537.5</ele><time>2026-04-25T08:32:09.001Z</time></trkpt><trkpt lat="45.8533398113345" lon="9.082521145371745"><ele>536.3333333333334</ele><time>2026-04-25T08:32:09.998Z</time></trkpt><trkpt lat="45.853304508556405" lon="9.082381750501261"><ele>535.1666666666666</ele><time>2026-04-25T08:32:11.998Z</time></trkpt><trkpt lat="45.853357464716694" lon="9.082298060135738"><ele>534.0</ele><time>2026-04-25T08:32:13.998Z</time></trkpt><trkpt lat="45.85342625749054" lon="9.082376033208641"><ele>540.2</ele><time>2026-04-25T08:32:15.999Z</time></trkpt><trkpt lat="45.853480232281385" lon="9.082533212657006"><ele>546.4</ele><time>2026-04-25T08:32:17.999Z</time></trkpt><trkpt lat="45.853512680801536" lon="9.082648641286298"><ele>552.6</ele><time>2026-04-25T08:32:18.999Z</time></trkpt><trkpt lat="45.853544797619875" lon="9.082770917675171"><ele>558.8</ele><time>2026-04-25T08:32:19.999Z</time></trkpt><trkpt lat="45.85358321533344" lon="9.082892674004519"><ele>565.0</ele><time>2026-04-25T08:32:20.999Z</time></trkpt><trkpt lat="45.853623302729424" lon="9.083031142174834"><ele>565.0</ele><time>2026-04-25T08:32:21.999Z</time></trkpt><trkpt lat="45.85366376305171" lon="9.083174398965348"><ele>565.0</ele><time>2026-04-25T08:32:22.999Z</time></trkpt><trkpt lat="45.85369007265242" lon="9.083295515926688"><ele>565.0</ele><time>2026-04-25T08:32:23.999Z</time></trkpt><trkpt lat="45.853738068267035" lon="9.083425366505708"><ele>565.0</ele><time>2026-04-25T08:32:24.999Z</time></trkpt><trkpt lat="45.853772762906196" lon="9.083561923740731"><ele>565.0</ele><time>2026-04-25T08:32:25.999Z</time></trkpt><trkpt lat="45.85384311778772" lon="9.083693505669574"><ele>560.2</ele><time>2026-04-25T08:32:26.999Z</time></trkpt><trkpt lat="45.853913742747345" lon="9.083815525711433"><ele>555.4</ele><time>2026-04-25T08:32:27.999Z</time></trkpt><trkpt lat="45.853983724400116" lon="9.083923659909013"><ele>550.6</ele><time>2026-04-25T08:32:28.999Z</time></trkpt><trkpt lat="45.854050734693466" lon="9.08403166994033"><ele>545.8</ele><time>2026-04-25T08:32:29.999Z</time></trkpt><trkpt lat="45.85410475004224" lon="9.084118887278072"><ele>541.0</ele><time>2026-04-25T08:32:30.999Z</time></trkpt><trkpt lat="45.85414635293033" lon="9.084195837409284"><ele>541.0</ele><time>2026-04-25T08:32:31.999Z</time></trkpt><trkpt lat="45.854186357071036" lon="9.084266625195811"><ele>541.0</ele><time>2026-04-25T08:32:32.999Z</time></trkpt><trkpt lat="45.85427645141232" lon="9.084330185951753"><ele>541.0</ele><time>2026-04-25T08:32:34.999Z</time></trkpt><trkpt lat="45.854341781260445" lon="9.084162681604706"><ele>541.0</ele><time>2026-04-25T08:32:36.999Z</time></trkpt><trkpt lat="45.85428688412122" lon="9.084068641418092"><ele>541.0</ele><time>2026-04-25T08:32:38Z</time></trkpt><trkpt lat="45.85424335069967" lon="9.08397728771818"><ele>541.0</ele><time>2026-04-25T08:32:39Z</time></trkpt><trkpt lat="45.85419401328228" lon="9.083875019871432"><ele>541.0</ele><time>2026-04-25T08:32:40Z</time></trkpt><trkpt lat="45.8541426759822" lon="9.083771900424882"><ele>541.0</ele><time>2026-04-25T08:32:41Z</time></trkpt><trkpt lat="45.85409145668118" lon="9.083674428965734"><ele>541.0</ele><time>2026-04-25T08:32:42Z</time></trkpt><trkpt lat="45.854044833558795" lon="9.083597688870444"><ele>541.0</ele><time>2026-04-25T08:32:43Z</time></trkpt><trkpt lat="45.85399816150338" lon="9.083518445116331"><ele>541.0</ele><time>2026-04-25T08:32:44Z</time></trkpt><trkpt lat="45.85398798944535" lon="9.083425525309925"><ele>541.0</ele><time>2026-04-25T08:32:46Z</time></trkpt><trkpt lat="45.85405533969105" lon="9.083406662950466"><ele>541.0</ele><time>2026-04-25T08:32:48Z</time></trkpt><trkpt lat="45.85412631916832" lon="9.083566114132399"><ele>541.0</ele><time>2026-04-25T08:32:50Z</time></trkpt><trkpt lat="45.854186416993876" lon="9.083650012991288"><ele>541.0</ele><time>2026-04-25T08:32:51Z</time></trkpt><trkpt lat="45.854255384037316" lon="9.083734238531768"><ele>541.0</ele><time>2026-04-25T08:32:52Z</time></trkpt><trkpt lat="45.854320266815016" lon="9.083814845425081"><ele>546.0</ele><time>2026-04-25T08:32:53Z</time></trkpt><trkpt lat="45.85438149682313" lon="9.083894298560454"><ele>551.0</ele><time>2026-04-25T08:32:54Z</time></trkpt><trkpt lat="45.8544471509987" lon="9.083984353124713"><ele>556.0</ele><time>2026-04-25T08:32:55Z</time></trkpt><trkpt lat="45.85449637870584" lon="9.08408020081571"><ele>561.0</ele><time>2026-04-25T08:32:56Z</time></trkpt><trkpt lat="45.85454362115052" lon="9.08419578535439"><ele>566.0</ele><time>2026-04-25T08:32:57Z</time></trkpt><trkpt lat="45.854581300533624" lon="9.084311481186795"><ele>571.0</ele><time>2026-04-25T08:32:58Z</time></trkpt><trkpt lat="45.854613068014565" lon="9.084441762420463"><ele>571.0</ele><time>2026-04-25T08:32:59Z</time></trkpt><trkpt lat="45.854635004297435" lon="9.084540868886686"><ele>571.0</ele><time>2026-04-25T08:33:00Z</time></trkpt><trkpt lat="45.854646267753964" lon="9.084656283526332"><ele>571.0</ele><time>2026-04-25T08:33:01Z</time></trkpt><trkpt lat="45.85466926990772" lon="9.084778850132173"><ele>571.0</ele><time>2026-04-25T08:33:02Z</time></trkpt><trkpt lat="45.8546931333165" lon="9.08494836620597"><ele>571.0</ele><time>2026-04-25T08:33:03Z</time></trkpt><trkpt lat="45.85474454825651" lon="9.085129745183469"><ele>567.0</ele><time>2026-04-25T08:33:04Z</time></trkpt><trkpt lat="45.854772817652574" lon="9.085322260670226"><ele>563.0</ele><time>2026-04-25T08:33:05Z</time></trkpt><trkpt lat="45.85484136697892" lon="9.085486153415898"><ele>559.0</ele><time>2026-04-25T08:33:06Z</time></trkpt><trkpt lat="45.85490944330268" lon="9.085663741372871"><ele>555.0</ele><time>2026-04-25T08:33:07Z</time></trkpt><trkpt lat="45.854972409535" lon="9.08587121069093"><ele>555.0</ele><time>2026-04-25T08:33:08Z</time></trkpt><trkpt lat="45.85505777181646" lon="9.086005353990869"><ele>555.0</ele><time>2026-04-25T08:33:09Z</time></trkpt><trkpt lat="45.85490478391321" lon="9.085704270821164"><ele>555.0</ele><time>2026-04-25T08:33:10Z</time></trkpt><trkpt lat="45.85493236669405" lon="9.085806162429337"><ele>553.6666666666666</ele><time>2026-04-25T08:33:11.001Z</time></trkpt><trkpt lat="45.854969650311105" lon="9.085891908229204"><ele>552.3333333333334</ele><time>2026-04-25T08:33:12.001Z</time></trkpt><trkpt lat="45.85502393344922" lon="9.08594999159992"><ele>551.0</ele><time>2026-04-25T08:33:13.001Z</time></trkpt><trkpt lat="45.85510119796512" lon="9.085998690299725"><ele>549.6666666666667</ele><time>2026-04-25T08:33:14.001Z</time></trkpt><trkpt lat="45.85516802654902" lon="9.086043043789413"><ele>548.3333333333334</ele><time>2026-04-25T08:33:15.001Z</time></trkpt><trkpt lat="45.85523962940205" lon="9.08607687066349"><ele>547.0</ele><time>2026-04-25T08:33:16.001Z</time></trkpt><trkpt lat="45.85531545295697" lon="9.086117391936174"><ele>550.6666666666667</ele><time>2026-04-25T08:33:17.001Z</time></trkpt><trkpt lat="45.85538997829437" lon="9.08615231221589"><ele>554.3333333333334</ele><time>2026-04-25T08:33:18.001Z</time></trkpt><trkpt lat="45.855462729807115" lon="9.08619294410216"><ele>558.0</ele><time>2026-04-25T08:33:19.001Z</time></trkpt><trkpt lat="45.855535492579534" lon="9.086244983886374"><ele>561.6666666666666</ele><time>2026-04-25T08:33:20.001Z</time></trkpt><trkpt lat="45.85561235359109" lon="9.08629322395101"><ele>565.3333333333333</ele><time>2026-04-25T08:33:21.001Z</time></trkpt><trkpt lat="45.8556889486889" lon="9.086347990307706"><ele>569.0</ele><time>2026-04-25T08:33:22.001Z</time></trkpt><trkpt lat="45.85577400095717" lon="9.086394674475915"><ele>569.0</ele><time>2026-04-25T08:33:23.001Z</time></trkpt><trkpt lat="45.85585136103745" lon="9.086444439857168"><ele>569.0</ele><time>2026-04-25T08:33:24.001Z</time></trkpt><trkpt lat="45.855930769282836" lon="9.086513837117714"><ele>569.0</ele><time>2026-04-25T08:33:25.001Z</time></trkpt><trkpt lat="45.85605399708352" lon="9.086600803426297"><ele>569.0</ele><time>2026-04-25T08:33:27.001Z</time></trkpt><trkpt lat="45.856130332333656" lon="9.086605858158151"><ele>569.0</ele><time>2026-04-25T08:33:28.001Z</time></trkpt><trkpt lat="45.85622110038155" lon="9.086632990378188"><ele>572.0</ele><time>2026-04-25T08:33:29.001Z</time></trkpt><trkpt lat="45.856352943774844" lon="9.086497221054158"><ele>575.0</ele><time>2026-04-25T08:33:31.001Z</time></trkpt><trkpt lat="45.85644337770207" lon="9.086368975091068"><ele>578.0</ele><time>2026-04-25T08:33:33.001Z</time></trkpt><trkpt lat="45.85650358561734" lon="9.086312862638845"><ele>581.0</ele><time>2026-04-25T08:33:34.001Z</time></trkpt><trkpt lat="45.856571492563546" lon="9.086281352225335"><ele>584.0</ele><time>2026-04-25T08:33:35.001Z</time></trkpt><trkpt lat="45.8566474348829" lon="9.086241218178426"><ele>589.4</ele><time>2026-04-25T08:33:36.001Z</time></trkpt><trkpt lat="45.856798113812786" lon="9.086231904838314"><ele>594.8</ele><time>2026-04-25T08:33:38.001Z</time></trkpt><trkpt lat="45.856878503532286" lon="9.086239957325015"><ele>600.2</ele><time>2026-04-25T08:33:39.001Z</time></trkpt><trkpt lat="45.856977506749686" lon="9.086286762773524"><ele>605.6</ele><time>2026-04-25T08:33:40.001Z</time></trkpt><trkpt lat="45.857069483979195" lon="9.086334934195259"><ele>611.0</ele><time>2026-04-25T08:33:41.001Z</time></trkpt><trkpt lat="45.85713962857481" lon="9.086379397169354"><ele>611.0</ele><time>2026-04-25T08:33:42.001Z</time></trkpt><trkpt lat="45.857197878920836" lon="9.086421162148955"><ele>611.0</ele><time>2026-04-25T08:33:43.001Z</time></trkpt><trkpt lat="45.85727861149735" lon="9.086541582823935"><ele>611.0</ele><time>2026-04-25T08:33:45.001Z</time></trkpt><trkpt lat="45.857308626345535" lon="9.086631691030592"><ele>611.0</ele><time>2026-04-25T08:33:46.001Z</time></trkpt><trkpt lat="45.85733682718257" lon="9.086717723392525"><ele>611.0</ele><time>2026-04-25T08:33:47.001Z</time></trkpt><trkpt lat="45.85737810350515" lon="9.086806605128176"><ele>611.0</ele><time>2026-04-25T08:33:48.001Z</time></trkpt><trkpt lat="45.857429871285234" lon="9.086881774386699"><ele>610.8333333333333</ele><time>2026-04-25T08:33:49.001Z</time></trkpt><trkpt lat="45.857498431051795" lon="9.086923126229294"><ele>610.6666666666666</ele><time>2026-04-25T08:33:50.001Z</time></trkpt><trkpt lat="45.85755489668223" lon="9.08699479580036"><ele>610.5</ele><time>2026-04-25T08:33:51.001Z</time></trkpt><trkpt lat="45.85761713509885" lon="9.087043681910137"><ele>610.3333333333334</ele><time>2026-04-25T08:33:52.002Z</time></trkpt><trkpt lat="45.85767612704092" lon="9.087087816127879"><ele>610.1666666666667</ele><time>2026-04-25T08:33:53.002Z</time></trkpt><trkpt lat="45.857739387032105" lon="9.087120037047502"><ele>610.0</ele><time>2026-04-25T08:33:54.002Z</time></trkpt><trkpt lat="45.857840559812416" lon="9.08714802139557"><ele>610.0</ele><time>2026-04-25T08:33:56.002Z</time></trkpt><trkpt lat="45.85791167497529" lon="9.087170863535711"><ele>610.0</ele><time>2026-04-25T08:33:58.002Z</time></trkpt><trkpt lat="45.85798746681887" lon="9.087196292915415"><ele>610.0</ele><time>2026-04-25T08:34:00.002Z</time></trkpt><trkpt lat="45.8580641212609" lon="9.087222011719522"><ele>610.0</ele><time>2026-04-25T08:34:07.002Z</time></trkpt><trkpt lat="45.85813728898301" lon="9.08722674748701"><ele>610.0</ele><time>2026-04-25T08:34:08.002Z</time></trkpt><trkpt lat="45.85821371889163" lon="9.087259305800243"><ele>610.0</ele><time>2026-04-25T08:34:09.002Z</time></trkpt><trkpt lat="45.85829042921174" lon="9.08731595392582"><ele>610.0</ele><time>2026-04-25T08:34:10.002Z</time></trkpt><trkpt lat="45.85835494722167" lon="9.08736223916748"><ele>610.0</ele><time>2026-04-25T08:34:11.002Z</time></trkpt><trkpt lat="45.85842670266231" lon="9.0874161472233"><ele>610.0</ele><time>2026-04-25T08:34:12.002Z</time></trkpt><trkpt lat="45.858495829693126" lon="9.087468081290364"><ele>610.0</ele><time>2026-04-25T08:34:13.002Z</time></trkpt><trkpt lat="45.858596602909216" lon="9.087544456706299"><ele>610.0</ele><time>2026-04-25T08:34:15.002Z</time></trkpt><trkpt lat="45.85874040201935" lon="9.087654801776463"><ele>609.2857142857143</ele><time>2026-04-25T08:34:16.999Z</time></trkpt><trkpt lat="45.85880420485957" lon="9.087712925647686"><ele>608.5714285714286</ele><time>2026-04-25T08:34:17.999Z</time></trkpt><trkpt lat="45.85886007250383" lon="9.087781535016514"><ele>607.8571428571429</ele><time>2026-04-25T08:34:18.999Z</time></trkpt><trkpt lat="45.858904344695546" lon="9.087857031200208"><ele>607.1428571428571</ele><time>2026-04-25T08:34:19.999Z</time></trkpt><trkpt lat="45.858954723521215" lon="9.087931427489483"><ele>606.4285714285714</ele><time>2026-04-25T08:34:20.999Z</time></trkpt><trkpt lat="45.85899630773204" lon="9.088023140339766"><ele>605.7142857142857</ele><time>2026-04-25T08:34:21.999Z</time></trkpt><trkpt lat="45.85904153695941" lon="9.088096043614856"><ele>605.0</ele><time>2026-04-25T08:34:22.999Z</time></trkpt><trkpt lat="45.85910527542836" lon="9.08815271587376"><ele>605.0</ele><time>2026-04-25T08:34:23.999Z</time></trkpt><trkpt lat="45.85917842763273" lon="9.088204567615213"><ele>605.0</ele><time>2026-04-25T08:34:24.999Z</time></trkpt><trkpt lat="45.859248775080154" lon="9.0882333392334"><ele>605.0</ele><time>2026-04-25T08:34:25.999Z</time></trkpt><trkpt lat="45.859326278669585" lon="9.08829019367679"><ele>605.0</ele><time>2026-04-25T08:34:26.999Z</time></trkpt><trkpt lat="45.85941000768634" lon="9.08830398826425"><ele>605.0</ele><time>2026-04-25T08:34:27.999Z</time></trkpt><trkpt lat="45.85948714469667" lon="9.088341538907846"><ele>605.0</ele><time>2026-04-25T08:34:28.999Z</time></trkpt><trkpt lat="45.85955312251974" lon="9.08840323451699"><ele>605.8333333333333</ele><time>2026-04-25T08:34:29.999Z</time></trkpt><trkpt lat="45.85961003014431" lon="9.088448092302318"><ele>606.6666666666666</ele><time>2026-04-25T08:34:31Z</time></trkpt><trkpt lat="45.859670190730185" lon="9.088496669684965"><ele>607.5</ele><time>2026-04-25T08:34:32Z</time></trkpt><trkpt lat="45.85973488010107" lon="9.088551756104204"><ele>608.3333333333334</ele><time>2026-04-25T08:34:33Z</time></trkpt><trkpt lat="45.85983397344562" lon="9.088645883434136"><ele>609.1666666666667</ele><time>2026-04-25T08:34:34Z</time></trkpt><trkpt lat="45.85990532615827" lon="9.088714785491998"><ele>610.0</ele><time>2026-04-25T08:34:35Z</time></trkpt><trkpt lat="45.85998716979811" lon="9.088776648252438"><ele>610.0</ele><time>2026-04-25T08:34:36Z</time></trkpt><trkpt lat="45.860050679789076" lon="9.088879841132051"><ele>610.0</ele><time>2026-04-25T08:34:37Z</time></trkpt><trkpt lat="45.860117176193825" lon="9.088982344105133"><ele>610.0</ele><time>2026-04-25T08:34:38Z</time></trkpt><trkpt lat="45.86017381653781" lon="9.089092105815801"><ele>610.0</ele><time>2026-04-25T08:34:39Z</time></trkpt><trkpt lat="45.86022379832196" lon="9.089198605114873"><ele>610.0</ele><time>2026-04-25T08:34:40Z</time></trkpt><trkpt lat="45.86028813611993" lon="9.089303869479796"><ele>613.1666666666667</ele><time>2026-04-25T08:34:41Z</time></trkpt><trkpt lat="45.860354914366056" lon="9.089390586552122"><ele>616.3333333333334</ele><time>2026-04-25T08:34:42Z</time></trkpt><trkpt lat="45.860433667468726" lon="9.089455044315118"><ele>619.5</ele><time>2026-04-25T08:34:43Z</time></trkpt><trkpt lat="45.86050202118793" lon="9.0895329850363"><ele>622.6666666666666</ele><time>2026-04-25T08:34:44Z</time></trkpt><trkpt lat="45.86057514081307" lon="9.089565035041439"><ele>625.8333333333333</ele><time>2026-04-25T08:34:45Z</time></trkpt><trkpt lat="45.86064694802746" lon="9.089615882515"><ele>629.0</ele><time>2026-04-25T08:34:46Z</time></trkpt><trkpt lat="45.86071347423541" lon="9.089678459991749"><ele>629.0</ele><time>2026-04-25T08:34:47Z</time></trkpt><trkpt lat="45.86077206168478" lon="9.089731914786032"><ele>629.0</ele><time>2026-04-25T08:34:48Z</time></trkpt><trkpt lat="45.86085485419459" lon="9.08978513217162"><ele>629.0</ele><time>2026-04-25T08:34:49Z</time></trkpt><trkpt lat="45.86090920111773" lon="9.089851677137224"><ele>629.0</ele><time>2026-04-25T08:34:50Z</time></trkpt><trkpt lat="45.86101088654802" lon="9.089889936431772"><ele>629.0</ele><time>2026-04-25T08:34:51Z</time></trkpt><trkpt lat="45.861093306004555" lon="9.089946174060206"><ele>629.0</ele><time>2026-04-25T08:34:52Z</time></trkpt><trkpt lat="45.86116206844712" lon="9.089993241129196"><ele>628.1666666666666</ele><time>2026-04-25T08:34:53Z</time></trkpt><trkpt lat="45.86124565612126" lon="9.090035694159317"><ele>627.3333333333333</ele><time>2026-04-25T08:34:54Z</time></trkpt><trkpt lat="45.86133533351912" lon="9.090077333670722"><ele>626.5</ele><time>2026-04-25T08:34:55Z</time></trkpt><trkpt lat="45.86141021912418" lon="9.090105585200671"><ele>625.6666666666666</ele><time>2026-04-25T08:34:56Z</time></trkpt><trkpt lat="45.861503717962805" lon="9.090129846377204"><ele>624.8333333333334</ele><time>2026-04-25T08:34:57Z</time></trkpt><trkpt lat="45.86158767573109" lon="9.090137213047914"><ele>624.0</ele><time>2026-04-25T08:34:58Z</time></trkpt><trkpt lat="45.861674187837835" lon="9.090117532563838"><ele>624.0</ele><time>2026-04-25T08:34:59.001Z</time></trkpt><trkpt lat="45.86173914825838" lon="9.090105591282065"><ele>624.0</ele><time>2026-04-25T08:35:00.001Z</time></trkpt><trkpt lat="45.86181347049396" lon="9.090095484492597"><ele>624.0</ele><time>2026-04-25T08:35:01.001Z</time></trkpt><trkpt lat="45.86188903212958" lon="9.090104438548808"><ele>624.0</ele><time>2026-04-25T08:35:02.001Z</time></trkpt><trkpt lat="45.86197110638221" lon="9.090126931959741"><ele>624.0</ele><time>2026-04-25T08:35:03.001Z</time></trkpt><trkpt lat="45.86204868761297" lon="9.090149825090863"><ele>624.0</ele><time>2026-04-25T08:35:04.001Z</time></trkpt><trkpt lat="45.86211952832555" lon="9.090164994510623"><ele>623.8</ele><time>2026-04-25T08:35:05.001Z</time></trkpt><trkpt lat="45.862192862527735" lon="9.090167520653578"><ele>623.5999999999999</ele><time>2026-04-25T08:35:06.001Z</time></trkpt><trkpt lat="45.8622796027702" lon="9.090166075226307"><ele>623.4</ele><time>2026-04-25T08:35:07.001Z</time></trkpt><trkpt lat="45.862406734394014" lon="9.09016369781594"><ele>623.1999999999999</ele><time>2026-04-25T08:35:09.001Z</time></trkpt><trkpt lat="45.86250092610968" lon="9.0901459541523"><ele>623.0</ele><time>2026-04-25T08:35:11.001Z</time></trkpt><trkpt lat="45.862587723040654" lon="9.090156150636615"><ele>623.0</ele><time>2026-04-25T08:35:13.001Z</time></trkpt><trkpt lat="45.862658742758434" lon="9.090030275952788"><ele>623.0</ele><time>2026-04-25T08:35:16.001Z</time></trkpt><trkpt lat="45.86264193015673" lon="9.089934887876954"><ele>623.0</ele><time>2026-04-25T08:35:17.001Z</time></trkpt><trkpt lat="45.86256405113751" lon="9.089901304224126"><ele>623.0</ele><time>2026-04-25T08:35:18.001Z</time></trkpt><trkpt lat="45.86250351714093" lon="9.089940647440915"><ele>623.0</ele><time>2026-04-25T08:35:19.001Z</time></trkpt><trkpt lat="45.862418844397936" lon="9.089931052054867"><ele>623.0</ele><time>2026-04-25T08:35:21.001Z</time></trkpt><trkpt lat="45.862343646073924" lon="9.089905959864803"><ele>623.0</ele><time>2026-04-25T08:35:22.001Z</time></trkpt><trkpt lat="45.86226522586575" lon="9.089920441178583"><ele>623.0</ele><time>2026-04-25T08:35:23.001Z</time></trkpt><trkpt lat="45.862172882086796" lon="9.089932181028447"><ele>623.0</ele><time>2026-04-25T08:35:26.001Z</time></trkpt><trkpt lat="45.86208640705149" lon="9.089895134963667"><ele>623.0</ele><time>2026-04-25T08:35:27.001Z</time></trkpt><trkpt lat="45.862023451117494" lon="9.08982665993754"><ele>623.0</ele><time>2026-04-25T08:35:28.001Z</time></trkpt><trkpt lat="45.861956271540656" lon="9.08976201366572"><ele>623.0</ele><time>2026-04-25T08:35:29.001Z</time></trkpt><trkpt lat="45.86188904839087" lon="9.089725416211978"><ele>624.7142857142857</ele><time>2026-04-25T08:35:30.001Z</time></trkpt><trkpt lat="45.861822387343366" lon="9.089683609280934"><ele>626.4285714285714</ele><time>2026-04-25T08:35:31.001Z</time></trkpt><trkpt lat="45.861750035839265" lon="9.089656927680993"><ele>628.1428571428571</ele><time>2026-04-25T08:35:32.001Z</time></trkpt><trkpt lat="45.86167464403588" lon="9.089632860647246"><ele>629.8571428571429</ele><time>2026-04-25T08:35:33.001Z</time></trkpt><trkpt lat="45.86160192218145" lon="9.089635812168613"><ele>631.5714285714286</ele><time>2026-04-25T08:35:34.001Z</time></trkpt><trkpt lat="45.86152169558845" lon="9.089611334563127"><ele>633.2857142857142</ele><time>2026-04-25T08:35:35.001Z</time></trkpt><trkpt lat="45.86146459112239" lon="9.089557126432151"><ele>635.0</ele><time>2026-04-25T08:35:36.001Z</time></trkpt><trkpt lat="45.861410601473466" lon="9.089479565886995"><ele>638.5</ele><time>2026-04-25T08:35:37.002Z</time></trkpt><trkpt lat="45.861339629238024" lon="9.089398874961978"><ele>642.0</ele><time>2026-04-25T08:35:38.002Z</time></trkpt><trkpt lat="45.86128157333821" lon="9.089325112359548"><ele>645.5</ele><time>2026-04-25T08:35:39.002Z</time></trkpt><trkpt lat="45.861225184448294" lon="9.08924515818868"><ele>649.0</ele><time>2026-04-25T08:35:40.002Z</time></trkpt><trkpt lat="45.86116769112633" lon="9.089149062972735"><ele>652.5</ele><time>2026-04-25T08:35:42.002Z</time></trkpt><trkpt lat="45.8611134963113" lon="9.089029019797668"><ele>656.0</ele><time>2026-04-25T08:35:48.002Z</time></trkpt><trkpt lat="45.86107903110497" lon="9.0889373016736"><ele>654.5</ele><time>2026-04-25T08:35:50.002Z</time></trkpt><trkpt lat="45.8610336930763" lon="9.088855867211109"><ele>653.0</ele><time>2026-04-25T08:35:52.002Z</time></trkpt><trkpt lat="45.861003752350555" lon="9.088747157902986"><ele>651.5</ele><time>2026-04-25T08:35:54.002Z</time></trkpt><trkpt lat="45.860946427015946" lon="9.088697481952503"><ele>650.0</ele><time>2026-04-25T08:35:55.002Z</time></trkpt><trkpt lat="45.86088558520376" lon="9.088520358271673"><ele>648.5</ele><time>2026-04-25T08:35:57.002Z</time></trkpt><trkpt lat="45.86088020797908" lon="9.08842617103043"><ele>647.0</ele><time>2026-04-25T08:35:58.002Z</time></trkpt><trkpt lat="45.86087051389485" lon="9.088327794770606"><ele>648.6</ele><time>2026-04-25T08:35:59.002Z</time></trkpt><trkpt lat="45.86086287257529" lon="9.088232142203418"><ele>650.2</ele><time>2026-04-25T08:36:00.002Z</time></trkpt><trkpt lat="45.86084902091649" lon="9.088067921487516"><ele>651.8</ele><time>2026-04-25T08:36:02.002Z</time></trkpt><trkpt lat="45.860827984950255" lon="9.087920258900114"><ele>653.4</ele><time>2026-04-25T08:36:03.002Z</time></trkpt><trkpt lat="45.860799851163165" lon="9.08778846185487"><ele>655.0</ele><time>2026-04-25T08:36:04.002Z</time></trkpt><trkpt lat="45.86073179537599" lon="9.087625643764012"><ele>655.0</ele><time>2026-04-25T08:36:05.002Z</time></trkpt><trkpt lat="45.86067675400228" lon="9.087494331175591"><ele>655.0</ele><time>2026-04-25T08:36:06.002Z</time></trkpt><trkpt lat="45.86062892242633" lon="9.087362714214784"><ele>655.0</ele><time>2026-04-25T08:36:07.002Z</time></trkpt><trkpt lat="45.86053975574096" lon="9.087219322408123"><ele>655.0</ele><time>2026-04-25T08:36:08.002Z</time></trkpt><trkpt lat="45.860442639300345" lon="9.087073495386939"><ele>661.5</ele><time>2026-04-25T08:36:09.002Z</time></trkpt><trkpt lat="45.86036260685137" lon="9.086899427392764"><ele>668.0</ele><time>2026-04-25T08:36:10.002Z</time></trkpt><trkpt lat="45.860277636238834" lon="9.08671851011642"><ele>674.5</ele><time>2026-04-25T08:36:11.002Z</time></trkpt><trkpt lat="45.86018643358086" lon="9.086562999012546"><ele>681.0</ele><time>2026-04-25T08:36:12.002Z</time></trkpt><trkpt lat="45.860106185419916" lon="9.086425732901542"><ele>681.75</ele><time>2026-04-25T08:36:13.002Z</time></trkpt><trkpt lat="45.860031099885646" lon="9.086293252662992"><ele>682.5</ele><time>2026-04-25T08:36:14.002Z</time></trkpt><trkpt lat="45.85995778773068" lon="9.086177564199554"><ele>683.25</ele><time>2026-04-25T08:36:15.003Z</time></trkpt><trkpt lat="45.85985723607559" lon="9.086104956165055"><ele>684.0</ele><time>2026-04-25T08:36:16.003Z</time></trkpt><trkpt lat="45.85976184465618" lon="9.086018727632934"><ele>684.0</ele><time>2026-04-25T08:36:17.003Z</time></trkpt><trkpt lat="45.85967694602448" lon="9.085918416661462"><ele>684.0</ele><time>2026-04-25T08:36:18.003Z</time></trkpt><trkpt lat="45.85959712853631" lon="9.085849606693749"><ele>684.0</ele><time>2026-04-25T08:36:19.003Z</time></trkpt><trkpt lat="45.85952982405123" lon="9.085784292431649"><ele>684.0</ele><time>2026-04-25T08:36:20.003Z</time></trkpt><trkpt lat="45.85945911177701" lon="9.085701700272336"><ele>684.0</ele><time>2026-04-25T08:36:22Z</time></trkpt><trkpt lat="45.85946311136867" lon="9.085578274956545"><ele>684.0</ele><time>2026-04-25T08:36:24Z</time></trkpt><trkpt lat="45.85953157414402" lon="9.085533842468909"><ele>684.0</ele><time>2026-04-25T08:36:26Z</time></trkpt><trkpt lat="45.859582149883906" lon="9.085647237459328"><ele>684.0</ele><time>2026-04-25T08:36:27Z</time></trkpt><trkpt lat="45.859627114756556" lon="9.085733385249696"><ele>684.0</ele><time>2026-04-25T08:36:28Z</time></trkpt><trkpt lat="45.859708597230714" lon="9.085796170605061"><ele>684.0</ele><time>2026-04-25T08:36:29Z</time></trkpt><trkpt lat="45.85978731763821" lon="9.085830418583656"><ele>684.0</ele><time>2026-04-25T08:36:30Z</time></trkpt><trkpt lat="45.85989320014605" lon="9.085852610184144"><ele>684.0</ele><time>2026-04-25T08:36:31Z</time></trkpt><trkpt lat="45.859998717527446" lon="9.085857204042608"><ele>684.0</ele><time>2026-04-25T08:36:32Z</time></trkpt><trkpt lat="45.86007127896129" lon="9.085904915351698"><ele>684.0</ele><time>2026-04-25T08:36:33Z</time></trkpt><trkpt lat="45.860153399666984" lon="9.085984646142407"><ele>684.0</ele><time>2026-04-25T08:36:34Z</time></trkpt><trkpt lat="45.860222003619434" lon="9.086064086516274"><ele>684.0</ele><time>2026-04-25T08:36:35Z</time></trkpt><trkpt lat="45.8603075302851" lon="9.086159988610348"><ele>689.6</ele><time>2026-04-25T08:36:36Z</time></trkpt><trkpt lat="45.86039772794749" lon="9.086249179692796"><ele>695.2</ele><time>2026-04-25T08:36:37Z</time></trkpt><trkpt lat="45.86047078525501" lon="9.08633626994296"><ele>700.8000000000001</ele><time>2026-04-25T08:36:38Z</time></trkpt><trkpt lat="45.86053242147597" lon="9.08640567446554"><ele>706.4000000000001</ele><time>2026-04-25T08:36:39Z</time></trkpt><trkpt lat="45.86060998787211" lon="9.086452514658937"><ele>712.0</ele><time>2026-04-25T08:36:40Z</time></trkpt><trkpt lat="45.86071143889741" lon="9.086473961403511"><ele>712.0</ele><time>2026-04-25T08:36:41Z</time></trkpt><trkpt lat="45.86080967927257" lon="9.086511951326939"><ele>712.0</ele><time>2026-04-25T08:36:42Z</time></trkpt><trkpt lat="45.86091444826554" lon="9.086557742605354"><ele>712.0</ele><time>2026-04-25T08:36:43Z</time></trkpt><trkpt lat="45.86101195961054" lon="9.086609106625223"><ele>712.0</ele><time>2026-04-25T08:36:44Z</time></trkpt><trkpt lat="45.86110954504179" lon="9.086665229313018"><ele>712.0</ele><time>2026-04-25T08:36:45Z</time></trkpt><trkpt lat="45.86120937194214" lon="9.086737387568846"><ele>709.25</ele><time>2026-04-25T08:36:46Z</time></trkpt><trkpt lat="45.861312839722466" lon="9.086803175352578"><ele>706.5</ele><time>2026-04-25T08:36:47Z</time></trkpt><trkpt lat="45.861417664786636" lon="9.086871936051423"><ele>703.75</ele><time>2026-04-25T08:36:48Z</time></trkpt><trkpt lat="45.861526320992105" lon="9.08693360357488"><ele>701.0</ele><time>2026-04-25T08:36:49Z</time></trkpt><trkpt lat="45.86162656362999" lon="9.08699510531553"><ele>701.0</ele><time>2026-04-25T08:36:50Z</time></trkpt><trkpt lat="45.8617048914292" lon="9.087053338325575"><ele>701.0</ele><time>2026-04-25T08:36:51Z</time></trkpt><trkpt lat="45.86176980699707" lon="9.087080902659302"><ele>701.0</ele><time>2026-04-25T08:36:52.001Z</time></trkpt><trkpt lat="45.861863245382054" lon="9.087071040207714"><ele>701.0</ele><time>2026-04-25T08:36:54.001Z</time></trkpt><trkpt lat="45.86188369306266" lon="9.086983419243904"><ele>701.0</ele><time>2026-04-25T08:36:55.001Z</time></trkpt><trkpt lat="45.8618514170587" lon="9.086892620436831"><ele>701.0</ele><time>2026-04-25T08:36:56.001Z</time></trkpt><trkpt lat="45.86175554627925" lon="9.086858857485218"><ele>701.0</ele><time>2026-04-25T08:36:57.001Z</time></trkpt><trkpt lat="45.86167134309496" lon="9.086795266117301"><ele>701.0</ele><time>2026-04-25T08:36:58.001Z</time></trkpt><trkpt lat="45.861585820428786" lon="9.086714993654889"><ele>701.0</ele><time>2026-04-25T08:36:59.001Z</time></trkpt><trkpt lat="45.861491034157694" lon="9.086616424582628"><ele>701.0</ele><time>2026-04-25T08:37:00.001Z</time></trkpt><trkpt lat="45.86139835732021" lon="9.08650332321538"><ele>701.0</ele><time>2026-04-25T08:37:01.001Z</time></trkpt><trkpt lat="45.861299048564085" lon="9.086382464967237"><ele>703.1999999999999</ele><time>2026-04-25T08:37:02.001Z</time></trkpt><trkpt lat="45.861209067002946" lon="9.086280272139806"><ele>705.4</ele><time>2026-04-25T08:37:03.001Z</time></trkpt><trkpt lat="45.86110230112634" lon="9.086220014834112"><ele>707.6</ele><time>2026-04-25T08:37:04.001Z</time></trkpt><trkpt lat="45.86101276883981" lon="9.086124382474674"><ele>709.8</ele><time>2026-04-25T08:37:05.001Z</time></trkpt><trkpt lat="45.86093642499163" lon="9.08606043938611"><ele>712.0</ele><time>2026-04-25T08:37:06.001Z</time></trkpt><trkpt lat="45.86085256204024" lon="9.08597121280062"><ele>712.0</ele><time>2026-04-25T08:37:07.001Z</time></trkpt><trkpt lat="45.860763775421525" lon="9.085867291854457"><ele>712.0</ele><time>2026-04-25T08:37:08.001Z</time></trkpt><trkpt lat="45.860684186939196" lon="9.085750223582123"><ele>712.0</ele><time>2026-04-25T08:37:09.001Z</time></trkpt><trkpt lat="45.86061002134688" lon="9.085640871218748"><ele>712.0</ele><time>2026-04-25T08:37:10.001Z</time></trkpt><trkpt lat="45.860538021472344" lon="9.08552942264925"><ele>712.0</ele><time>2026-04-25T08:37:11.001Z</time></trkpt><trkpt lat="45.86045973115006" lon="9.085418521578312"><ele>718.8</ele><time>2026-04-25T08:37:12.001Z</time></trkpt><trkpt lat="45.86037831104196" lon="9.085331601100304"><ele>725.6</ele><time>2026-04-25T08:37:13.001Z</time></trkpt><trkpt lat="45.86032213490868" lon="9.085210714827765"><ele>732.4</ele><time>2026-04-25T08:37:14.001Z</time></trkpt><trkpt lat="45.86027504407876" lon="9.085073487261138"><ele>739.1999999999999</ele><time>2026-04-25T08:37:15.001Z</time></trkpt><trkpt lat="45.86022866465909" lon="9.084927810138527"><ele>746.0</ele><time>2026-04-25T08:37:16.001Z</time></trkpt><trkpt lat="45.86017308125965" lon="9.084777101053502"><ele>747.0</ele><time>2026-04-25T08:37:17.001Z</time></trkpt><trkpt lat="45.86012830169208" lon="9.084644559451036"><ele>748.0</ele><time>2026-04-25T08:37:18.001Z</time></trkpt><trkpt lat="45.86011110565862" lon="9.084514996297633"><ele>749.0</ele><time>2026-04-25T08:37:19.001Z</time></trkpt><trkpt lat="45.860072035436865" lon="9.084350375988501"><ele>750.0</ele><time>2026-04-25T08:37:20.001Z</time></trkpt><trkpt lat="45.860002922358106" lon="9.084197646873005"><ele>751.0</ele><time>2026-04-25T08:37:21.001Z</time></trkpt><trkpt lat="45.85993315621998" lon="9.084074731357797"><ele>751.0</ele><time>2026-04-25T08:37:22.001Z</time></trkpt><trkpt lat="45.859865101181924" lon="9.083970067870236"><ele>751.0</ele><time>2026-04-25T08:37:23.001Z</time></trkpt><trkpt lat="45.8598179384481" lon="9.08386723068857"><ele>751.0</ele><time>2026-04-25T08:37:24.001Z</time></trkpt><trkpt lat="45.85978376767184" lon="9.083743630133647"><ele>751.0</ele><time>2026-04-25T08:37:25.001Z</time></trkpt><trkpt lat="45.85976798890827" lon="9.08360401942463"><ele>751.0</ele><time>2026-04-25T08:37:26.001Z</time></trkpt><trkpt lat="45.85974623720819" lon="9.083479351026888"><ele>751.0</ele><time>2026-04-25T08:37:27.001Z</time></trkpt><trkpt lat="45.8597121148058" lon="9.083384415719673"><ele>751.0</ele><time>2026-04-25T08:37:28.001Z</time></trkpt><trkpt lat="45.85965751777702" lon="9.083287869781548"><ele>751.0</ele><time>2026-04-25T08:37:29.001Z</time></trkpt><trkpt lat="45.85956995859912" lon="9.08320173620901"><ele>751.0</ele><time>2026-04-25T08:37:30.001Z</time></trkpt><trkpt lat="45.85947888914421" lon="9.083149606190311"><ele>751.0</ele><time>2026-04-25T08:37:31.001Z</time></trkpt><trkpt lat="45.85939336360281" lon="9.083104864836363"><ele>751.5</ele><time>2026-04-25T08:37:32.001Z</time></trkpt><trkpt lat="45.85931398409386" lon="9.083064732953227"><ele>752.0</ele><time>2026-04-25T08:37:33.002Z</time></trkpt><trkpt lat="45.859243032973886" lon="9.083022899245725"><ele>752.5</ele><time>2026-04-25T08:37:34.002Z</time></trkpt><trkpt lat="45.85917813317408" lon="9.082977722867916"><ele>753.0</ele><time>2026-04-25T08:37:35.002Z</time></trkpt><trkpt lat="45.85912658766698" lon="9.082885035118549"><ele>753.5</ele><time>2026-04-25T08:37:36.002Z</time></trkpt><trkpt lat="45.859078739358836" lon="9.082763379659085"><ele>754.0</ele><time>2026-04-25T08:37:37.002Z</time></trkpt><trkpt lat="45.859016040751925" lon="9.082632592946826"><ele>754.0</ele><time>2026-04-25T08:37:38.002Z</time></trkpt><trkpt lat="45.85892599932302" lon="9.082498967591462"><ele>754.0</ele><time>2026-04-25T08:37:39.002Z</time></trkpt><trkpt lat="45.85883533674049" lon="9.082364239465036"><ele>754.0</ele><time>2026-04-25T08:37:40.002Z</time></trkpt><trkpt lat="45.85875580597119" lon="9.082253107738612"><ele>754.0</ele><time>2026-04-25T08:37:41.002Z</time></trkpt><trkpt lat="45.85868391249247" lon="9.082167185561993"><ele>757.0</ele><time>2026-04-25T08:37:42.002Z</time></trkpt><trkpt lat="45.858632062917785" lon="9.082069561126481"><ele>760.0</ele><time>2026-04-25T08:37:43.002Z</time></trkpt><trkpt lat="45.8585746096202" lon="9.08202138968631"><ele>763.0</ele><time>2026-04-25T08:37:44.002Z</time></trkpt><trkpt lat="45.85848769537324" lon="9.082023979784568"><ele>766.0</ele><time>2026-04-25T08:37:45.002Z</time></trkpt><trkpt lat="45.85838461927383" lon="9.082079103592791"><ele>768.9999999999999</ele><time>2026-04-25T08:37:46.002Z</time></trkpt><trkpt lat="45.85830749184442" lon="9.082115796211168"><ele>772.0</ele><time>2026-04-25T08:37:47.002Z</time></trkpt><trkpt lat="45.858206093111505" lon="9.082136612085092"><ele>771.9999999999999</ele><time>2026-04-25T08:37:48.002Z</time></trkpt><trkpt lat="45.85810991504596" lon="9.082122807065815"><ele>772.0</ele><time>2026-04-25T08:37:49.002Z</time></trkpt><trkpt lat="45.858016545618966" lon="9.08214257772089"><ele>772.0</ele><time>2026-04-25T08:37:50.002Z</time></trkpt><trkpt lat="45.85792104903031" lon="9.08213293940697"><ele>772.0</ele><time>2026-04-25T08:37:51.002Z</time></trkpt><trkpt lat="45.857841180966425" lon="9.082114299820436"><ele>771.9999999999999</ele><time>2026-04-25T08:37:52.002Z</time></trkpt><trkpt lat="45.857767506060746" lon="9.082078825139098"><ele>772.0</ele><time>2026-04-25T08:37:53.002Z</time></trkpt><trkpt lat="45.85769140510419" lon="9.082036129244425"><ele>769.4999999999999</ele><time>2026-04-25T08:37:54.002Z</time></trkpt><trkpt lat="45.85761795057562" lon="9.081989733044011"><ele>767.0</ele><time>2026-04-25T08:37:55.002Z</time></trkpt><trkpt lat="45.857533031284426" lon="9.081958023161766"><ele>764.5</ele><time>2026-04-25T08:37:56.002Z</time></trkpt><trkpt lat="45.85744702871814" lon="9.081891097277488"><ele>762.0</ele><time>2026-04-25T08:37:57.002Z</time></trkpt><trkpt lat="45.85737486205268" lon="9.08183550809376"><ele>759.5</ele><time>2026-04-25T08:37:58.002Z</time></trkpt><trkpt lat="45.85730841266062" lon="9.08177956537286"><ele>757.0</ele><time>2026-04-25T08:37:59.002Z</time></trkpt><trkpt lat="45.85725178017567" lon="9.081706769954048"><ele>757.0</ele><time>2026-04-25T08:38:00.002Z</time></trkpt><trkpt lat="45.85719533407646" lon="9.081623662724079"><ele>757.0</ele><time>2026-04-25T08:38:01.002Z</time></trkpt><trkpt lat="45.85713649074199" lon="9.081542751595673"><ele>757.0</ele><time>2026-04-25T08:38:02.002Z</time></trkpt><trkpt lat="45.85707413943476" lon="9.081448908456483"><ele>757.0</ele><time>2026-04-25T08:38:03.002Z</time></trkpt><trkpt lat="45.857022134938816" lon="9.08133760915325"><ele>757.0</ele><time>2026-04-25T08:38:04.002Z</time></trkpt><trkpt lat="45.85695493832531" lon="9.081243330132136"><ele>757.0</ele><time>2026-04-25T08:38:05.002Z</time></trkpt><trkpt lat="45.856886754807924" lon="9.081153139698353"><ele>756.1666666666667</ele><time>2026-04-25T08:38:06.002Z</time></trkpt><trkpt lat="45.85682761126081" lon="9.081065860806099"><ele>755.3333333333334</ele><time>2026-04-25T08:38:07.002Z</time></trkpt><trkpt lat="45.85677711127385" lon="9.080989886010741"><ele>754.5</ele><time>2026-04-25T08:38:08.002Z</time></trkpt><trkpt lat="45.856728838318226" lon="9.080914413364988"><ele>753.6666666666666</ele><time>2026-04-25T08:38:09.002Z</time></trkpt><trkpt lat="45.85668479522491" lon="9.080848680915253"><ele>752.8333333333333</ele><time>2026-04-25T08:38:10.002Z</time></trkpt><trkpt lat="45.85660605748256" lon="9.080736672086065"><ele>752.0</ele><time>2026-04-25T08:38:12.003Z</time></trkpt><trkpt lat="45.85653347527135" lon="9.080573451319458"><ele>757.0</ele><time>2026-04-25T08:38:14.003Z</time></trkpt><trkpt lat="45.856505774547294" lon="9.080464777600962"><ele>762.0</ele><time>2026-04-25T08:38:15.003Z</time></trkpt><trkpt lat="45.85648029933158" lon="9.080345887156653"><ele>767.0</ele><time>2026-04-25T08:38:16.003Z</time></trkpt><trkpt lat="45.85645121852182" lon="9.080217333761173"><ele>772.0</ele><time>2026-04-25T08:38:17.003Z</time></trkpt><trkpt lat="45.85643201860902" lon="9.08008181124694"><ele>777.0</ele><time>2026-04-25T08:38:18.003Z</time></trkpt><trkpt lat="45.85640980701078" lon="9.079951732356601"><ele>782.4000000000001</ele><time>2026-04-25T08:38:19.003Z</time></trkpt><trkpt lat="45.85638538063057" lon="9.079832246607005"><ele>787.8000000000001</ele><time>2026-04-25T08:38:20.003Z</time></trkpt><trkpt lat="45.85636186922653" lon="9.079701249946767"><ele>793.2</ele><time>2026-04-25T08:38:21.003Z</time></trkpt><trkpt lat="45.8563327795298" lon="9.07956012658941"><ele>798.6</ele><time>2026-04-25T08:38:22.003Z</time></trkpt><trkpt lat="45.85629369664528" lon="9.079423235723532"><ele>804.0</ele><time>2026-04-25T08:38:23.003Z</time></trkpt><trkpt lat="45.85624610963713" lon="9.079292401663299"><ele>804.0</ele><time>2026-04-25T08:38:24.003Z</time></trkpt><trkpt lat="45.85619847911924" lon="9.079155439778534"><ele>804.0</ele><time>2026-04-25T08:38:25.003Z</time></trkpt><trkpt lat="45.85615767045328" lon="9.07902180882165"><ele>804.0</ele><time>2026-04-25T08:38:26.003Z</time></trkpt><trkpt lat="45.85611408771418" lon="9.078893148608886"><ele>804.0</ele><time>2026-04-25T08:38:27.003Z</time></trkpt><trkpt lat="45.856083506303875" lon="9.078750972511266"><ele>804.0</ele><time>2026-04-25T08:38:28Z</time></trkpt><trkpt lat="45.85604580019051" lon="9.0786248923382"><ele>801.1428571428571</ele><time>2026-04-25T08:38:29Z</time></trkpt><trkpt lat="45.85601460128236" lon="9.078520242246851"><ele>798.2857142857143</ele><time>2026-04-25T08:38:30Z</time></trkpt><trkpt lat="45.85598549009925" lon="9.078429991758021"><ele>795.4285714285714</ele><time>2026-04-25T08:38:31Z</time></trkpt><trkpt lat="45.855946721003306" lon="9.07834472257139"><ele>792.5714285714286</ele><time>2026-04-25T08:38:32Z</time></trkpt><trkpt lat="45.8559118327571" lon="9.07825380955623"><ele>789.7142857142858</ele><time>2026-04-25T08:38:33Z</time></trkpt><trkpt lat="45.85589191501479" lon="9.078158623086997"><ele>786.8571428571429</ele><time>2026-04-25T08:38:34Z</time></trkpt><trkpt lat="45.85586495305763" lon="9.078066361136665"><ele>784.0</ele><time>2026-04-25T08:38:35Z</time></trkpt><trkpt lat="45.85583877883922" lon="9.07797302146174"><ele>784.0</ele><time>2026-04-25T08:38:36Z</time></trkpt><trkpt lat="45.85581251709423" lon="9.07787538815938"><ele>784.0</ele><time>2026-04-25T08:38:37Z</time></trkpt><trkpt lat="45.85578412547797" lon="9.077777920440097"><ele>784.0</ele><time>2026-04-25T08:38:38Z</time></trkpt><trkpt lat="45.85575411164155" lon="9.077675208955787"><ele>784.0</ele><time>2026-04-25T08:38:39Z</time></trkpt><trkpt lat="45.85572702415225" lon="9.077576554280062"><ele>784.0</ele><time>2026-04-25T08:38:40Z</time></trkpt><trkpt lat="45.85570221109164" lon="9.077475524586346"><ele>784.0</ele><time>2026-04-25T08:38:41Z</time></trkpt><trkpt lat="45.85567732670866" lon="9.077377072343815"><ele>784.0</ele><time>2026-04-25T08:38:42Z</time></trkpt><trkpt lat="45.85565103970973" lon="9.077277435795786"><ele>786.1666666666666</ele><time>2026-04-25T08:38:43Z</time></trkpt><trkpt lat="45.85562563900237" lon="9.077176756169893"><ele>788.3333333333333</ele><time>2026-04-25T08:38:44Z</time></trkpt><trkpt lat="45.855603079760975" lon="9.07706615715813"><ele>790.5</ele><time>2026-04-25T08:38:45Z</time></trkpt><trkpt lat="45.85558282236582" lon="9.076944691104885"><ele>792.6666666666667</ele><time>2026-04-25T08:38:46Z</time></trkpt><trkpt lat="45.855568409936005" lon="9.076811528097462"><ele>794.8333333333334</ele><time>2026-04-25T08:38:47Z</time></trkpt><trkpt lat="45.85556213060119" lon="9.076677575930264"><ele>797.0</ele><time>2026-04-25T08:38:48Z</time></trkpt><trkpt lat="45.85556192551757" lon="9.076532237148227"><ele>797.6666666666667</ele><time>2026-04-25T08:38:49Z</time></trkpt><trkpt lat="45.855572803008265" lon="9.076378259467818"><ele>798.3333333333334</ele><time>2026-04-25T08:38:50Z</time></trkpt><trkpt lat="45.855566161597466" lon="9.076240601420578"><ele>799.0</ele><time>2026-04-25T08:38:51Z</time></trkpt><trkpt lat="45.85555946423898" lon="9.076121983117147"><ele>799.6666666666667</ele><time>2026-04-25T08:38:52Z</time></trkpt><trkpt lat="45.85555168773209" lon="9.076014125514234"><ele>800.3333333333334</ele><time>2026-04-25T08:38:53Z</time></trkpt><trkpt lat="45.8555596761458" lon="9.075906720822664"><ele>801.0</ele><time>2026-04-25T08:38:54Z</time></trkpt><trkpt lat="45.85557023104579" lon="9.075815667270733"><ele>798.5</ele><time>2026-04-25T08:38:55Z</time></trkpt><trkpt lat="45.85555961172099" lon="9.075672831490452"><ele>796.0</ele><time>2026-04-25T08:38:57Z</time></trkpt><trkpt lat="45.85554911034292" lon="9.075568553076199"><ele>793.5</ele><time>2026-04-25T08:38:59.001Z</time></trkpt><trkpt lat="45.85551781259095" lon="9.07546773182577"><ele>791.0</ele><time>2026-04-25T08:39:02.001Z</time></trkpt><trkpt lat="45.85558600840145" lon="9.075421117677948"><ele>788.5</ele><time>2026-04-25T08:39:05.001Z</time></trkpt><trkpt lat="45.85557787040329" lon="9.075578968401683"><ele>786.0</ele><time>2026-04-25T08:39:08.001Z</time></trkpt><trkpt lat="45.85557900503499" lon="9.075699695800193"><ele>788.5</ele><time>2026-04-25T08:39:09.001Z</time></trkpt><trkpt lat="45.855586188383214" lon="9.075813661747679"><ele>791.0</ele><time>2026-04-25T08:39:10.001Z</time></trkpt><trkpt lat="45.85560517343689" lon="9.075910555339679"><ele>793.5</ele><time>2026-04-25T08:39:11.001Z</time></trkpt><trkpt lat="45.85561838912432" lon="9.076000284266573"><ele>796.0</ele><time>2026-04-25T08:39:12.001Z</time></trkpt><trkpt lat="45.85562743598862" lon="9.076102995846977"><ele>798.5</ele><time>2026-04-25T08:39:13.001Z</time></trkpt><trkpt lat="45.85563880969432" lon="9.076199142351246"><ele>801.0</ele><time>2026-04-25T08:39:14.001Z</time></trkpt><trkpt lat="45.85566548494838" lon="9.076353546628058"><ele>801.0</ele><time>2026-04-25T08:39:16.001Z</time></trkpt><trkpt lat="45.8556730318077" lon="9.07652324084142"><ele>801.0</ele><time>2026-04-25T08:39:18.001Z</time></trkpt><trkpt lat="45.85568950999243" lon="9.076652643270632"><ele>801.0</ele><time>2026-04-25T08:39:20.001Z</time></trkpt><trkpt lat="45.855726925847215" lon="9.07680967132417"><ele>801.0</ele><time>2026-04-25T08:39:22.001Z</time></trkpt><trkpt lat="45.85576639554408" lon="9.076975293779604"><ele>801.0</ele><time>2026-04-25T08:39:24.001Z</time></trkpt><trkpt lat="45.855825902445204" lon="9.077123201181617"><ele>800.3333333333334</ele><time>2026-04-25T08:39:26.001Z</time></trkpt><trkpt lat="45.85589438313885" lon="9.07723462408449"><ele>799.6666666666667</ele><time>2026-04-25T08:39:28.001Z</time></trkpt><trkpt lat="45.85594003468511" lon="9.0773450866179"><ele>799.0</ele><time>2026-04-25T08:39:30.001Z</time></trkpt><trkpt lat="45.85601769348536" lon="9.07740801797459"><ele>798.3333333333334</ele><time>2026-04-25T08:39:32.001Z</time></trkpt><trkpt lat="45.85606186166445" lon="9.077339613685897"><ele>797.6666666666667</ele><time>2026-04-25T08:39:33.001Z</time></trkpt><trkpt lat="45.856020968201776" lon="9.077259245497045"><ele>797.0</ele><time>2026-04-25T08:39:35.001Z</time></trkpt><trkpt lat="45.8559437689322" lon="9.077139504361687"><ele>797.0</ele><time>2026-04-25T08:39:37.001Z</time></trkpt><trkpt lat="45.85589413371911" lon="9.07697295573054"><ele>797.0</ele><time>2026-04-25T08:39:39.001Z</time></trkpt><trkpt lat="45.85586608343972" lon="9.0768769300404"><ele>797.0</ele><time>2026-04-25T08:39:40.001Z</time></trkpt><trkpt lat="45.855841720551005" lon="9.076776615599824"><ele>797.0</ele><time>2026-04-25T08:39:41.002Z</time></trkpt><trkpt lat="45.85582771164889" lon="9.07658183819145"><ele>797.0</ele><time>2026-04-25T08:39:43.002Z</time></trkpt><trkpt lat="45.85583965447222" lon="9.076468809115699"><ele>797.5714285714286</ele><time>2026-04-25T08:39:44.002Z</time></trkpt><trkpt lat="45.85584261947523" lon="9.076353392944236"><ele>798.1428571428572</ele><time>2026-04-25T08:39:45.002Z</time></trkpt><trkpt lat="45.855846429964735" lon="9.076240661747935"><ele>798.7142857142858</ele><time>2026-04-25T08:39:46.002Z</time></trkpt><trkpt lat="45.855838858489186" lon="9.07614298970345"><ele>799.2857142857142</ele><time>2026-04-25T08:39:47.002Z</time></trkpt><trkpt lat="45.85584181001836" lon="9.07604859445336"><ele>799.8571428571429</ele><time>2026-04-25T08:39:48.002Z</time></trkpt><trkpt lat="45.85584776375799" lon="9.075952322714937"><ele>800.4285714285714</ele><time>2026-04-25T08:39:49.002Z</time></trkpt><trkpt lat="45.85586153820048" lon="9.0758315737351"><ele>801.0</ele><time>2026-04-25T08:39:50.002Z</time></trkpt><trkpt lat="45.855894859633416" lon="9.075749671331753"><ele>802.3333333333334</ele><time>2026-04-25T08:39:51.002Z</time></trkpt><trkpt lat="45.85591542146662" lon="9.075636694269317"><ele>803.6666666666667</ele><time>2026-04-25T08:39:52.002Z</time></trkpt><trkpt lat="45.85593753131355" lon="9.075512258656984"><ele>805.0</ele><time>2026-04-25T08:39:54.002Z</time></trkpt><trkpt lat="45.855947902725944" lon="9.07540825606034"><ele>806.3333333333334</ele><time>2026-04-25T08:39:56.002Z</time></trkpt><trkpt lat="45.85596629371991" lon="9.07527855060599"><ele>807.6666666666667</ele><time>2026-04-25T08:39:58.002Z</time></trkpt><trkpt lat="45.85604573527339" lon="9.075251482630382"><ele>809.0</ele><time>2026-04-25T08:40:01.002Z</time></trkpt><trkpt lat="45.856025499583836" lon="9.07538653540554"><ele>809.0</ele><time>2026-04-25T08:40:03.002Z</time></trkpt><trkpt lat="45.85599390218941" lon="9.075483389253288"><ele>809.0</ele><time>2026-04-25T08:40:04.002Z</time></trkpt><trkpt lat="45.85596915512972" lon="9.07564731017582"><ele>809.0</ele><time>2026-04-25T08:40:05.002Z</time></trkpt><trkpt lat="45.85596952742915" lon="9.075792220995456"><ele>809.0</ele><time>2026-04-25T08:40:06.002Z</time></trkpt><trkpt lat="45.85595481540114" lon="9.075883465319624"><ele>809.0</ele><time>2026-04-25T08:40:07.002Z</time></trkpt><trkpt lat="45.855932945975546" lon="9.076012333049043"><ele>807.6666666666667</ele><time>2026-04-25T08:40:09.002Z</time></trkpt><trkpt lat="45.855943738212915" lon="9.076108980854988"><ele>806.3333333333334</ele><time>2026-04-25T08:40:10.002Z</time></trkpt><trkpt lat="45.85594289641186" lon="9.0762154374779"><ele>805.0</ele><time>2026-04-25T08:40:12.002Z</time></trkpt><trkpt lat="45.855960641843126" lon="9.07634755291697"><ele>803.6666666666667</ele><time>2026-04-25T08:40:15.002Z</time></trkpt><trkpt lat="45.85601801188474" lon="9.0764228172092"><ele>802.3333333333334</ele><time>2026-04-25T08:40:17.002Z</time></trkpt><trkpt lat="45.85608113559002" lon="9.076267293512199"><ele>801.0</ele><time>2026-04-25T08:40:19.002Z</time></trkpt><trkpt lat="45.85604467773799" lon="9.076143728481613"><ele>802.3333333333334</ele><time>2026-04-25T08:40:20.002Z</time></trkpt><trkpt lat="45.85605194229332" lon="9.0760377754191"><ele>803.6666666666667</ele><time>2026-04-25T08:40:21.002Z</time></trkpt><trkpt lat="45.8560681845208" lon="9.075942438882338"><ele>805.0</ele><time>2026-04-25T08:40:22.003Z</time></trkpt><trkpt lat="45.85610082897709" lon="9.075801793457046"><ele>806.3333333333334</ele><time>2026-04-25T08:40:24.003Z</time></trkpt><trkpt lat="45.856124428239156" lon="9.075701491865443"><ele>807.6666666666667</ele><time>2026-04-25T08:40:27.003Z</time></trkpt><trkpt lat="45.85614705480011" lon="9.075598311123468"><ele>809.0</ele><time>2026-04-25T08:40:30.003Z</time></trkpt><trkpt lat="45.85622607940952" lon="9.07550931029332"><ele>809.0000000000001</ele><time>2026-04-25T08:40:32.003Z</time></trkpt><trkpt lat="45.85629028605164" lon="9.075484436385125"><ele>809.0</ele><time>2026-04-25T08:40:33.003Z</time></trkpt><trkpt lat="45.85635734385562" lon="9.07545837052967"><ele>809.0</ele><time>2026-04-25T08:40:34Z</time></trkpt><trkpt lat="45.85643221184263" lon="9.075450675166534"><ele>809.0</ele><time>2026-04-25T08:40:35Z</time></trkpt><trkpt lat="45.85653155121861" lon="9.075430409663719"><ele>809.0000000000001</ele><time>2026-04-25T08:40:37Z</time></trkpt><trkpt lat="45.856627897950816" lon="9.075362518750596"><ele>809.0</ele><time>2026-04-25T08:40:39Z</time></trkpt><trkpt lat="45.856720129577894" lon="9.075280235239452"><ele>809.0000000000001</ele><time>2026-04-25T08:40:41Z</time></trkpt><trkpt lat="45.856777750899504" lon="9.075202767055696"><ele>809.0</ele><time>2026-04-25T08:40:43Z</time></trkpt><trkpt lat="45.85684483293233" lon="9.075171303259655"><ele>809.0</ele><time>2026-04-25T08:40:45Z</time></trkpt><trkpt lat="45.85690861950257" lon="9.07513785086899"><ele>809.0</ele><time>2026-04-25T08:40:47Z</time></trkpt><trkpt lat="45.856923079624686" lon="9.075255622417199"><ele>809.0000000000001</ele><time>2026-04-25T08:40:49Z</time></trkpt><trkpt lat="45.85683405009706" lon="9.075363536924412"><ele>809.0</ele><time>2026-04-25T08:40:51Z</time></trkpt><trkpt lat="45.85678147493937" lon="9.075414499348419"><ele>809.0000000000001</ele><time>2026-04-25T08:40:52Z</time></trkpt><trkpt lat="45.856706668750626" lon="9.075494051065387"><ele>809.0</ele><time>2026-04-25T08:40:54Z</time></trkpt><trkpt lat="45.85665530571812" lon="9.075555642390253"><ele>809.0</ele><time>2026-04-25T08:40:56Z</time></trkpt><trkpt lat="45.8566726067986" lon="9.075687142400172"><ele>809.0</ele><time>2026-04-25T08:40:59.001Z</time></trkpt><trkpt lat="45.85672996301976" lon="9.075730609595047"><ele>809.0000000000001</ele><time>2026-04-25T08:41:00.001Z</time></trkpt><trkpt lat="45.85679374142272" lon="9.075692526317122"><ele>809.0</ele><time>2026-04-25T08:41:01.001Z</time></trkpt><trkpt lat="45.856861103680224" lon="9.075610148620012"><ele>812.5000000000001</ele><time>2026-04-25T08:41:02.001Z</time></trkpt><trkpt lat="45.85692067686999" lon="9.07555307675051"><ele>816.0</ele><time>2026-04-25T08:41:03.001Z</time></trkpt><trkpt lat="45.85697290396699" lon="9.075501984577611"><ele>819.5</ele><time>2026-04-25T08:41:04.001Z</time></trkpt><trkpt lat="45.857039628394645" lon="9.075407212944713"><ele>823.0</ele><time>2026-04-25T08:41:06.001Z</time></trkpt><trkpt lat="45.857093924235926" lon="9.075349218468657"><ele>826.5000000000001</ele><time>2026-04-25T08:41:08.001Z</time></trkpt><trkpt lat="45.857178532187895" lon="9.075281325699082"><ele>830.0</ele><time>2026-04-25T08:41:10.001Z</time></trkpt><trkpt lat="45.85724692365774" lon="9.075186752197038"><ele>830.0</ele><time>2026-04-25T08:41:12.001Z</time></trkpt><trkpt lat="45.85736660342043" lon="9.07513594039788"><ele>830.0</ele><time>2026-04-25T08:41:14.001Z</time></trkpt><trkpt lat="45.85742940083209" lon="9.075114590309962"><ele>830.0</ele><time>2026-04-25T08:41:15.001Z</time></trkpt><trkpt lat="45.857495200881644" lon="9.075109092767281"><ele>830.0</ele><time>2026-04-25T08:41:16.001Z</time></trkpt><trkpt lat="45.85760172230919" lon="9.0750629972313"><ele>830.0</ele><time>2026-04-25T08:41:18.001Z</time></trkpt><trkpt lat="45.85771563535773" lon="9.075045123335316"><ele>836.1666666666667</ele><time>2026-04-25T08:41:20.001Z</time></trkpt><trkpt lat="45.857779426308205" lon="9.075028062373502"><ele>842.3333333333334</ele><time>2026-04-25T08:41:21.001Z</time></trkpt><trkpt lat="45.857842811074626" lon="9.075020838535599"><ele>848.5</ele><time>2026-04-25T08:41:22.001Z</time></trkpt><trkpt lat="45.85793463811454" lon="9.074953137874747"><ele>854.6666666666667</ele><time>2026-04-25T08:41:24.001Z</time></trkpt><trkpt lat="45.85798354661638" lon="9.074832309747176"><ele>860.8333333333334</ele><time>2026-04-25T08:41:26.001Z</time></trkpt><trkpt lat="45.85801190773634" lon="9.0746961715974"><ele>867.0</ele><time>2026-04-25T08:41:28.001Z</time></trkpt><trkpt lat="45.85803575630382" lon="9.074577536052997"><ele>867.0</ele><time>2026-04-25T08:41:30.001Z</time></trkpt><trkpt lat="45.85806542567122" lon="9.074436857621826"><ele>867.0</ele><time>2026-04-25T08:41:32.001Z</time></trkpt><trkpt lat="45.8581030403826" lon="9.074270846431887"><ele>867.0</ele><time>2026-04-25T08:41:34.001Z</time></trkpt><trkpt lat="45.85811214031078" lon="9.074170666724994"><ele>867.0</ele><time>2026-04-25T08:41:35.001Z</time></trkpt><trkpt lat="45.85811022812672" lon="9.074030204339687"><ele>867.0</ele><time>2026-04-25T08:41:36.001Z</time></trkpt><trkpt lat="45.85807936291118" lon="9.073851436505388"><ele>865.6</ele><time>2026-04-25T08:41:37.001Z</time></trkpt><trkpt lat="45.85807134506081" lon="9.073678233239542"><ele>864.2</ele><time>2026-04-25T08:41:38.001Z</time></trkpt><trkpt lat="45.858063661428005" lon="9.07352293843512"><ele>862.8</ele><time>2026-04-25T08:41:39.001Z</time></trkpt><trkpt lat="45.85805976339633" lon="9.073381863059819"><ele>861.4</ele><time>2026-04-25T08:41:40.001Z</time></trkpt><trkpt lat="45.85805680361745" lon="9.07326557338322"><ele>860.0</ele><time>2026-04-25T08:41:41.001Z</time></trkpt><trkpt lat="45.85805421427689" lon="9.073160614033297"><ele>855.8333333333334</ele><time>2026-04-25T08:41:42.001Z</time></trkpt><trkpt lat="45.85804897097196" lon="9.073066528253682"><ele>851.6666666666667</ele><time>2026-04-25T08:41:43.001Z</time></trkpt><trkpt lat="45.85804889901282" lon="9.072919350870828"><ele>847.5</ele><time>2026-04-25T08:41:45.002Z</time></trkpt><trkpt lat="45.85812022439142" lon="9.07279255732004"><ele>843.3333333333333</ele><time>2026-04-25T08:41:47.002Z</time></trkpt><trkpt lat="45.85818197033322" lon="9.072745912021105"><ele>839.1666666666666</ele><time>2026-04-25T08:41:48.002Z</time></trkpt><trkpt lat="45.858249458361165" lon="9.072725720363175"><ele>835.0</ele><time>2026-04-25T08:41:49.002Z</time></trkpt><trkpt lat="45.8583242915865" lon="9.07273544637532"><ele>835.0</ele><time>2026-04-25T08:41:50.002Z</time></trkpt><trkpt lat="45.85842343897118" lon="9.072790104050183"><ele>835.0</ele><time>2026-04-25T08:41:51.002Z</time></trkpt><trkpt lat="45.85851491317153" lon="9.07281699924827"><ele>835.0</ele><time>2026-04-25T08:41:52.002Z</time></trkpt><trkpt lat="45.8586201462615" lon="9.072847994601144"><ele>835.0</ele><time>2026-04-25T08:41:53.002Z</time></trkpt><trkpt lat="45.85873303818479" lon="9.072860182892828"><ele>835.0</ele><time>2026-04-25T08:41:54.002Z</time></trkpt><trkpt lat="45.85883397307703" lon="9.072905834440968"><ele>835.25</ele><time>2026-04-25T08:41:55.002Z</time></trkpt><trkpt lat="45.858940120708304" lon="9.072934547206568"><ele>835.5</ele><time>2026-04-25T08:41:56.002Z</time></trkpt><trkpt lat="45.85905662903606" lon="9.072967410718181"><ele>835.75</ele><time>2026-04-25T08:41:57.002Z</time></trkpt><trkpt lat="45.85916854902174" lon="9.072999635855416"><ele>836.0</ele><time>2026-04-25T08:41:58.002Z</time></trkpt><trkpt lat="45.85927956616797" lon="9.073016806189585"><ele>836.1999999999999</ele><time>2026-04-25T08:41:59.002Z</time></trkpt><trkpt lat="45.859388986305845" lon="9.073054792261114"><ele>836.4</ele><time>2026-04-25T08:42:00.002Z</time></trkpt><trkpt lat="45.85948386287798" lon="9.073099595615364"><ele>836.6</ele><time>2026-04-25T08:42:01.002Z</time></trkpt><trkpt lat="45.85956465887534" lon="9.073149527720927"><ele>836.8</ele><time>2026-04-25T08:42:02.002Z</time></trkpt><trkpt lat="45.85964774512548" lon="9.073154473553675"><ele>837.0</ele><time>2026-04-25T08:42:03.002Z</time></trkpt><trkpt lat="45.859728796839455" lon="9.073136538095355"><ele>837.0</ele><time>2026-04-25T08:42:04.002Z</time></trkpt><trkpt lat="45.859806071230956" lon="9.07315500236659"><ele>837.0</ele><time>2026-04-25T08:42:05.002Z</time></trkpt><trkpt lat="45.85990659868419" lon="9.07314332125223"><ele>837.0</ele><time>2026-04-25T08:42:07.002Z</time></trkpt><trkpt lat="45.85996831832306" lon="9.073174847023386"><ele>837.0</ele><time>2026-04-25T08:42:10.002Z</time></trkpt><trkpt lat="45.85990096987349" lon="9.07322610183499"><ele>837.0</ele><time>2026-04-25T08:42:13.002Z</time></trkpt><trkpt lat="45.85978075489538" lon="9.073218525181662"><ele>837.0</ele><time>2026-04-25T08:42:15.002Z</time></trkpt><trkpt lat="45.85968077048445" lon="9.073210075296528"><ele>837.0</ele><time>2026-04-25T08:42:16.002Z</time></trkpt><trkpt lat="45.859576798588385" lon="9.073221183611011"><ele>837.0</ele><time>2026-04-25T08:42:17.002Z</time></trkpt><trkpt lat="45.85944989098865" lon="9.073242808724222"><ele>837.0</ele><time>2026-04-25T08:42:18.002Z</time></trkpt><trkpt lat="45.85933884832733" lon="9.073274840816104"><ele>837.0</ele><time>2026-04-25T08:42:19.002Z</time></trkpt><trkpt lat="45.85922456155129" lon="9.073287773268557"><ele>845.0</ele><time>2026-04-25T08:42:20.002Z</time></trkpt><trkpt lat="45.85911119689455" lon="9.073309186225643"><ele>853.0</ele><time>2026-04-25T08:42:21.002Z</time></trkpt><trkpt lat="45.8590104865464" lon="9.073328926422978"><ele>861.0</ele><time>2026-04-25T08:42:22.002Z</time></trkpt><trkpt lat="45.85892279235183" lon="9.073325730535888"><ele>869.0</ele><time>2026-04-25T08:42:23.002Z</time></trkpt><trkpt lat="45.858842147336034" lon="9.07334965507948"><ele>877.0</ele><time>2026-04-25T08:42:24.002Z</time></trkpt><trkpt lat="45.858720583710664" lon="9.073413253717863"><ele>877.0</ele><time>2026-04-25T08:42:26.003Z</time></trkpt><trkpt lat="45.8586539892828" lon="9.073534119018875"><ele>877.0</ele><time>2026-04-25T08:42:28.003Z</time></trkpt><trkpt lat="45.85873865199271" lon="9.073656814005512"><ele>877.0</ele><time>2026-04-25T08:42:31.003Z</time></trkpt><trkpt lat="45.85879208711816" lon="9.073597416329504"><ele>877.0</ele><time>2026-04-25T08:42:32.003Z</time></trkpt><trkpt lat="45.85886182254968" lon="9.073531966995478"><ele>877.0</ele><time>2026-04-25T08:42:33.003Z</time></trkpt><trkpt lat="45.8589395618864" lon="9.073524584671238"><ele>877.0</ele><time>2026-04-25T08:42:34.003Z</time></trkpt><trkpt lat="45.85903460569574" lon="9.07351431760273"><ele>877.0</ele><time>2026-04-25T08:42:35.003Z</time></trkpt><trkpt lat="45.85914656098832" lon="9.07352235952876"><ele>877.0</ele><time>2026-04-25T08:42:36.003Z</time></trkpt><trkpt lat="45.85927860666089" lon="9.073540839686718"><ele>877.0</ele><time>2026-04-25T08:42:37.003Z</time></trkpt><trkpt lat="45.85939813265865" lon="9.07355924433984"><ele>877.5</ele><time>2026-04-25T08:42:38.003Z</time></trkpt><trkpt lat="45.859533355408395" lon="9.073582383033903"><ele>878.0</ele><time>2026-04-25T08:42:39.003Z</time></trkpt><trkpt lat="45.85967309385166" lon="9.073608506823302"><ele>878.5</ele><time>2026-04-25T08:42:40.001Z</time></trkpt><trkpt lat="45.85981877369668" lon="9.073635869556636"><ele>879.0</ele><time>2026-04-25T08:42:41.001Z</time></trkpt><trkpt lat="45.85996608300895" lon="9.073660694838338"><ele>879.3333333333333</ele><time>2026-04-25T08:42:42.001Z</time></trkpt><trkpt lat="45.86011882147462" lon="9.073686246007718"><ele>879.6666666666666</ele><time>2026-04-25T08:42:43.001Z</time></trkpt><trkpt lat="45.86027131309121" lon="9.073689623166322"><ele>880.0</ele><time>2026-04-25T08:42:44.001Z</time></trkpt><trkpt lat="45.86042247162042" lon="9.07371467205489"><ele>880.0</ele><time>2026-04-25T08:42:45.001Z</time></trkpt><trkpt lat="45.86056810828696" lon="9.07373455665739"><ele>880.0</ele><time>2026-04-25T08:42:46.001Z</time></trkpt><trkpt lat="45.86070534189107" lon="9.073749607636215"><ele>880.0</ele><time>2026-04-25T08:42:47.001Z</time></trkpt><trkpt lat="45.860862754541095" lon="9.073752330791118"><ele>880.0</ele><time>2026-04-25T08:42:48.001Z</time></trkpt><trkpt lat="45.86100559508691" lon="9.073743046064676"><ele>880.5</ele><time>2026-04-25T08:42:49.001Z</time></trkpt><trkpt lat="45.86113938258343" lon="9.073739961515871"><ele>881.0</ele><time>2026-04-25T08:42:50Z</time></trkpt><trkpt lat="45.86127428053987" lon="9.073749976531973"><ele>881.5</ele><time>2026-04-25T08:42:51.001Z</time></trkpt><trkpt lat="45.86140479803075" lon="9.073771285916733"><ele>882.0</ele><time>2026-04-25T08:42:52Z</time></trkpt><trkpt lat="45.86152076865433" lon="9.073820865754985"><ele>882.0</ele><time>2026-04-25T08:42:53Z</time></trkpt><trkpt lat="45.861627333149904" lon="9.073846612353089"><ele>882.0</ele><time>2026-04-25T08:42:54Z</time></trkpt><trkpt lat="45.86171793604557" lon="9.07386850253539"><ele>882.0</ele><time>2026-04-25T08:42:55Z</time></trkpt><trkpt lat="45.86178312763886" lon="9.073884253206934"><ele>882.0</ele><time>2026-04-25T08:42:56Z</time></trkpt><trkpt lat="45.86183498254886" lon="9.073952553133413"><ele>882.0</ele><time>2026-04-25T08:42:59.001Z</time></trkpt><trkpt lat="45.861711859290715" lon="9.07394372980182"><ele>882.0</ele><time>2026-04-25T08:43:02.001Z</time></trkpt><trkpt lat="45.86162057923555" lon="9.07392349547803"><ele>882.0</ele><time>2026-04-25T08:43:03.001Z</time></trkpt><trkpt lat="45.86151296127987" lon="9.073935208206013"><ele>882.0</ele><time>2026-04-25T08:43:04.001Z</time></trkpt><trkpt lat="45.86141800781137" lon="9.073934689493289"><ele>882.0</ele><time>2026-04-25T08:43:05.001Z</time></trkpt><trkpt lat="45.861311678752614" lon="9.073950340727103"><ele>882.0</ele><time>2026-04-25T08:43:06.001Z</time></trkpt><trkpt lat="45.86119156262582" lon="9.07397069637795"><ele>882.0</ele><time>2026-04-25T08:43:07.001Z</time></trkpt><trkpt lat="45.86106811062255" lon="9.074002224501925"><ele>882.0</ele><time>2026-04-25T08:43:08.001Z</time></trkpt><trkpt lat="45.860944529738454" lon="9.074047977000724"><ele>882.0</ele><time>2026-04-25T08:43:09.001Z</time></trkpt><trkpt lat="45.86082845450281" lon="9.07409178143742"><ele>882.0</ele><time>2026-04-25T08:43:10.001Z</time></trkpt><trkpt lat="45.86072204066836" lon="9.074134251157657"><ele>891.0</ele><time>2026-04-25T08:43:11.001Z</time></trkpt><trkpt lat="45.860606421429814" lon="9.074166664998565"><ele>900.0</ele><time>2026-04-25T08:43:12.001Z</time></trkpt><trkpt lat="45.86048072464743" lon="9.074187353631602"><ele>909.0</ele><time>2026-04-25T08:43:13.001Z</time></trkpt><trkpt lat="45.86036374345577" lon="9.074198046757257"><ele>918.0</ele><time>2026-04-25T08:43:14.001Z</time></trkpt><trkpt lat="45.86024789130791" lon="9.074214722161956"><ele>918.0</ele><time>2026-04-25T08:43:15.001Z</time></trkpt><trkpt lat="45.860143162753154" lon="9.07423510317018"><ele>918.0</ele><time>2026-04-25T08:43:16.001Z</time></trkpt><trkpt lat="45.86004655541414" lon="9.074244665061926"><ele>918.0</ele><time>2026-04-25T08:43:17.001Z</time></trkpt><trkpt lat="45.85993498522156" lon="9.074264446484072"><ele>918.0</ele><time>2026-04-25T08:43:18.001Z</time></trkpt><trkpt lat="45.85982517797113" lon="9.074309208432318"><ele>918.0</ele><time>2026-04-25T08:43:19.001Z</time></trkpt><trkpt lat="45.85970567823881" lon="9.07434258174531"><ele>918.5999999999999</ele><time>2026-04-25T08:43:20.001Z</time></trkpt><trkpt lat="45.85959608212521" lon="9.074389560034026"><ele>919.1999999999999</ele><time>2026-04-25T08:43:21.001Z</time></trkpt><trkpt lat="45.85948777565827" lon="9.074433489404093"><ele>919.8</ele><time>2026-04-25T08:43:22.001Z</time></trkpt><trkpt lat="45.85940656947051" lon="9.074490067232844"><ele>920.4</ele><time>2026-04-25T08:43:23.001Z</time></trkpt><trkpt lat="45.85934771472798" lon="9.074560228549256"><ele>921.0</ele><time>2026-04-25T08:43:24.001Z</time></trkpt><trkpt lat="45.859291488018656" lon="9.074653189928226"><ele>921.0</ele><time>2026-04-25T08:43:25.001Z</time></trkpt><trkpt lat="45.85925080987324" lon="9.074749088701724"><ele>920.9999999999999</ele><time>2026-04-25T08:43:26.001Z</time></trkpt><trkpt lat="45.859276127523735" lon="9.074861465876843"><ele>920.9999999999999</ele><time>2026-04-25T08:43:29.001Z</time></trkpt><trkpt lat="45.859362933661515" lon="9.074885068660643"><ele>921.0</ele><time>2026-04-25T08:43:31.001Z</time></trkpt><trkpt lat="45.859421985879024" lon="9.074728802332196"><ele>921.0</ele><time>2026-04-25T08:43:32.001Z</time></trkpt><trkpt lat="45.859494932889106" lon="9.07466394344449"><ele>921.0</ele><time>2026-04-25T08:43:33.001Z</time></trkpt><trkpt lat="45.85955913761166" lon="9.074620178254765"><ele>920.9999999999999</ele><time>2026-04-25T08:43:34.001Z</time></trkpt><trkpt lat="45.85963846773514" lon="9.074611658777156"><ele>920.9999999999999</ele><time>2026-04-25T08:43:35.001Z</time></trkpt><trkpt lat="45.85974931449735" lon="9.074607162410754"><ele>921.0</ele><time>2026-04-25T08:43:36.001Z</time></trkpt><trkpt lat="45.85986576837694" lon="9.074618672447434"><ele>921.0</ele><time>2026-04-25T08:43:37.001Z</time></trkpt><trkpt lat="45.85997243157298" lon="9.074638165488425"><ele>921.0</ele><time>2026-04-25T08:43:38.001Z</time></trkpt><trkpt lat="45.86009082426654" lon="9.074660822843851"><ele>921.0</ele><time>2026-04-25T08:43:39.001Z</time></trkpt><trkpt lat="45.86021598072296" lon="9.074683054374848"><ele>921.0</ele><time>2026-04-25T08:43:40.001Z</time></trkpt><trkpt lat="45.860347790774114" lon="9.074705274514654"><ele>921.0</ele><time>2026-04-25T08:43:41.001Z</time></trkpt><trkpt lat="45.86046912271214" lon="9.07472572828867"><ele>920.25</ele><time>2026-04-25T08:43:42.001Z</time></trkpt><trkpt lat="45.860601620285095" lon="9.074724308444363"><ele>919.5</ele><time>2026-04-25T08:43:43.001Z</time></trkpt><trkpt lat="45.860731099496974" lon="9.074770265937243"><ele>918.75</ele><time>2026-04-25T08:43:44.001Z</time></trkpt><trkpt lat="45.86086148658301" lon="9.074769521708955"><ele>918.0</ele><time>2026-04-25T08:43:45.001Z</time></trkpt><trkpt lat="45.86099653429739" lon="9.07480816556901"><ele>917.5999999999999</ele><time>2026-04-25T08:43:46.001Z</time></trkpt><trkpt lat="45.86112294065006" lon="9.074826067942544"><ele>917.1999999999999</ele><time>2026-04-25T08:43:47.001Z</time></trkpt><trkpt lat="45.861239322439495" lon="9.074859748728091"><ele>916.8</ele><time>2026-04-25T08:43:48.001Z</time></trkpt><trkpt lat="45.861344818800276" lon="9.074868917635893"><ele>916.4</ele><time>2026-04-25T08:43:49.002Z</time></trkpt><trkpt lat="45.861442504641076" lon="9.074878325092849"><ele>916.0</ele><time>2026-04-25T08:43:50.002Z</time></trkpt><trkpt lat="45.861556818188404" lon="9.07489714650542"><ele>923.1999999999999</ele><time>2026-04-25T08:43:52.002Z</time></trkpt><trkpt lat="45.86161107805277" lon="9.074953317371786"><ele>930.3999999999999</ele><time>2026-04-25T08:43:54.002Z</time></trkpt><trkpt lat="45.86149313850245" lon="9.074977398852779"><ele>937.6</ele><time>2026-04-25T08:43:58.002Z</time></trkpt><trkpt lat="45.861417819132754" lon="9.074962907892452"><ele>944.8</ele><time>2026-04-25T08:43:59.002Z</time></trkpt><trkpt lat="45.86132790966118" lon="9.075004597800346"><ele>952.0</ele><time>2026-04-25T08:44:00.002Z</time></trkpt><trkpt lat="45.86122824023025" lon="9.075017016854153"><ele>952.0</ele><time>2026-04-25T08:44:01.002Z</time></trkpt><trkpt lat="45.86112897689052" lon="9.07506331563401"><ele>952.0</ele><time>2026-04-25T08:44:02.002Z</time></trkpt><trkpt lat="45.86103735205618" lon="9.07515071106837"><ele>952.0</ele><time>2026-04-25T08:44:03.002Z</time></trkpt><trkpt lat="45.860946118021154" lon="9.075195161595692"><ele>952.0</ele><time>2026-04-25T08:44:04.002Z</time></trkpt><trkpt lat="45.8608613485263" lon="9.075226043731847"><ele>952.0</ele><time>2026-04-25T08:44:05.002Z</time></trkpt><trkpt lat="45.86076100186212" lon="9.07522350690142"><ele>952.0</ele><time>2026-04-25T08:44:06.002Z</time></trkpt><trkpt lat="45.86064442944899" lon="9.075226154371279"><ele>952.0</ele><time>2026-04-25T08:44:07.002Z</time></trkpt><trkpt lat="45.86051898950947" lon="9.075261602787126"><ele>952.0</ele><time>2026-04-25T08:44:08.002Z</time></trkpt><trkpt lat="45.860406600570855" lon="9.075253715675506"><ele>952.0</ele><time>2026-04-25T08:44:09.002Z</time></trkpt><trkpt lat="45.86030454451761" lon="9.07527434662499"><ele>951.9999999999999</ele><time>2026-04-25T08:44:10.002Z</time></trkpt><trkpt lat="45.86020890812961" lon="9.07529492155731"><ele>952.0</ele><time>2026-04-25T08:44:11.002Z</time></trkpt><trkpt lat="45.860127571365645" lon="9.075331894816452"><ele>952.0</ele><time>2026-04-25T08:44:12.002Z</time></trkpt><trkpt lat="45.86005054725182" lon="9.07537624841921"><ele>952.0</ele><time>2026-04-25T08:44:13.002Z</time></trkpt><trkpt lat="45.85997054325677" lon="9.075442836915038"><ele>951.9999999999999</ele><time>2026-04-25T08:44:14.002Z</time></trkpt><trkpt lat="45.85990782147036" lon="9.075535413861118"><ele>952.0</ele><time>2026-04-25T08:44:15.002Z</time></trkpt><trkpt lat="45.85985253427041" lon="9.075679690070132"><ele>956.75</ele><time>2026-04-25T08:44:16.002Z</time></trkpt><trkpt lat="45.85979409230366" lon="9.075840779530845"><ele>961.5</ele><time>2026-04-25T08:44:17.002Z</time></trkpt><trkpt lat="45.85973418759279" lon="9.075998709127747"><ele>966.25</ele><time>2026-04-25T08:44:18.002Z</time></trkpt><trkpt lat="45.85968317025215" lon="9.076177831807714"><ele>971.0</ele><time>2026-04-25T08:44:19.002Z</time></trkpt><trkpt lat="45.85963763028044" lon="9.07634367521072"><ele>971.0</ele><time>2026-04-25T08:44:20.002Z</time></trkpt><trkpt lat="45.85957217829154" lon="9.076526645943877"><ele>971.0</ele><time>2026-04-25T08:44:21.002Z</time></trkpt><trkpt lat="45.85951279036876" lon="9.076699328754415"><ele>971.0</ele><time>2026-04-25T08:44:22.002Z</time></trkpt><trkpt lat="45.859451693691334" lon="9.076850138837234"><ele>971.0</ele><time>2026-04-25T08:44:23.002Z</time></trkpt><trkpt lat="45.859404232671025" lon="9.07699684769755"><ele>974.0000000000001</ele><time>2026-04-25T08:44:24.002Z</time></trkpt><trkpt lat="45.859356984553536" lon="9.07711033517061"><ele>977.0</ele><time>2026-04-25T08:44:25.002Z</time></trkpt><trkpt lat="45.85932294089621" lon="9.07723155390817"><ele>980.0</ele><time>2026-04-25T08:44:26.002Z</time></trkpt><trkpt lat="45.85930153873394" lon="9.077354216191946"><ele>983.0</ele><time>2026-04-25T08:44:27.002Z</time></trkpt><trkpt lat="45.8593019745371" lon="9.077479596102027"><ele>986.0000000000001</ele><time>2026-04-25T08:44:28.002Z</time></trkpt><trkpt lat="45.85931820305383" lon="9.077601591344038"><ele>989.0</ele><time>2026-04-25T08:44:29.002Z</time></trkpt><trkpt lat="45.85934628875839" lon="9.07769316545994"><ele>990.1666666666667</ele><time>2026-04-25T08:44:30.002Z</time></trkpt><trkpt lat="45.859390466643795" lon="9.077797213128862"><ele>991.3333333333334</ele><time>2026-04-25T08:44:32.002Z</time></trkpt><trkpt lat="45.85945894664643" lon="9.0778818271545"><ele>992.5</ele><time>2026-04-25T08:44:34.003Z</time></trkpt><trkpt lat="45.85952043541507" lon="9.07786020446343"><ele>993.6666666666667</ele><time>2026-04-25T08:44:35.003Z</time></trkpt><trkpt lat="45.85955404801806" lon="9.07774524260218"><ele>994.8333333333334</ele><time>2026-04-25T08:44:36.003Z</time></trkpt><trkpt lat="45.859488126548484" lon="9.07761882081547"><ele>996.0</ele><time>2026-04-25T08:44:37.003Z</time></trkpt><trkpt lat="45.8594523587549" lon="9.077534200787092"><ele>994.8333333333334</ele><time>2026-04-25T08:44:38.003Z</time></trkpt><trkpt lat="45.85945666944737" lon="9.077427248023369"><ele>993.6666666666667</ele><time>2026-04-25T08:44:39.003Z</time></trkpt><trkpt lat="45.85947208055199" lon="9.077326439196398"><ele>992.5</ele><time>2026-04-25T08:44:40.003Z</time></trkpt><trkpt lat="45.85953153966439" lon="9.077248705038654"><ele>991.3333333333334</ele><time>2026-04-25T08:44:41.003Z</time></trkpt><trkpt lat="45.859596004449564" lon="9.077139105247726"><ele>990.1666666666667</ele><time>2026-04-25T08:44:42.003Z</time></trkpt><trkpt lat="45.85968552688033" lon="9.077045576972033"><ele>989.0</ele><time>2026-04-25T08:44:43.003Z</time></trkpt><trkpt lat="45.85976890715141" lon="9.076944095659794"><ele>989.0</ele><time>2026-04-25T08:44:44.003Z</time></trkpt><trkpt lat="45.85983758445859" lon="9.076879251799562"><ele>989.0000000000001</ele><time>2026-04-25T08:44:45.003Z</time></trkpt><trkpt lat="45.85992389010868" lon="9.076762004719088"><ele>989.0000000000001</ele><time>2026-04-25T08:44:46.001Z</time></trkpt><trkpt lat="45.860006738858196" lon="9.076661006103498"><ele>989.0</ele><time>2026-04-25T08:44:47.001Z</time></trkpt><trkpt lat="45.86009839808996" lon="9.076585498996543"><ele>989.0</ele><time>2026-04-25T08:44:48.001Z</time></trkpt><trkpt lat="45.86019045129571" lon="9.076539887152293"><ele>986.8000000000001</ele><time>2026-04-25T08:44:49.001Z</time></trkpt><trkpt lat="45.8602731160562" lon="9.076510201575985"><ele>984.6000000000001</ele><time>2026-04-25T08:44:50.001Z</time></trkpt><trkpt lat="45.86035733505687" lon="9.076502130518419"><ele>982.4</ele><time>2026-04-25T08:44:51.001Z</time></trkpt><trkpt lat="45.860464673595786" lon="9.076514363020618"><ele>980.2</ele><time>2026-04-25T08:44:52.001Z</time></trkpt><trkpt lat="45.86056319479699" lon="9.076568305460182"><ele>978.0</ele><time>2026-04-25T08:44:53.001Z</time></trkpt><trkpt lat="45.86067389977061" lon="9.0765761361673"><ele>984.25</ele><time>2026-04-25T08:44:54.001Z</time></trkpt><trkpt lat="45.860784503945325" lon="9.076622456289627"><ele>990.5</ele><time>2026-04-25T08:44:55.001Z</time></trkpt><trkpt lat="45.860903989194306" lon="9.076617573641903"><ele>996.75</ele><time>2026-04-25T08:44:56.001Z</time></trkpt><trkpt lat="45.8610275238073" lon="9.076640175404886"><ele>1003.0</ele><time>2026-04-25T08:44:57.001Z</time></trkpt><trkpt lat="45.86116718741186" lon="9.076623877314137"><ele>1004.5</ele><time>2026-04-25T08:44:58.001Z</time></trkpt><trkpt lat="45.86130072086655" lon="9.076618448955609"><ele>1006.0</ele><time>2026-04-25T08:44:59.001Z</time></trkpt><trkpt lat="45.8614466615848" lon="9.076631419195625"><ele>1007.5</ele><time>2026-04-25T08:45:00.001Z</time></trkpt><trkpt lat="45.86157222326885" lon="9.076603501530094"><ele>1009.0</ele><time>2026-04-25T08:45:01.001Z</time></trkpt><trkpt lat="45.861714234130275" lon="9.076616162267312"><ele>1010.0</ele><time>2026-04-25T08:45:02.001Z</time></trkpt><trkpt lat="45.86184589371847" lon="9.07661044501722"><ele>1011.0</ele><time>2026-04-25T08:45:03.001Z</time></trkpt><trkpt lat="45.861977756168635" lon="9.076616443217317"><ele>1012.0</ele><time>2026-04-25T08:45:04.001Z</time></trkpt><trkpt lat="45.86210512191166" lon="9.076603969774109"><ele>1013.0</ele><time>2026-04-25T08:45:05.001Z</time></trkpt><trkpt lat="45.86222579166099" lon="9.076608987301867"><ele>1013.0</ele><time>2026-04-25T08:45:06.001Z</time></trkpt><trkpt lat="45.862343733017035" lon="9.076632806843797"><ele>1013.0</ele><time>2026-04-25T08:45:07.001Z</time></trkpt><trkpt lat="45.86243396882071" lon="9.076635864037065"><ele>1013.0</ele><time>2026-04-25T08:45:08.001Z</time></trkpt><trkpt lat="45.86255456541314" lon="9.076671722133879"><ele>1013.0</ele><time>2026-04-25T08:45:09.001Z</time></trkpt><trkpt lat="45.86266130497887" lon="9.076700363220795"><ele>1013.0</ele><time>2026-04-25T08:45:10.001Z</time></trkpt><trkpt lat="45.862762020096945" lon="9.076774317903372"><ele>1013.5</ele><time>2026-04-25T08:45:11.001Z</time></trkpt><trkpt lat="45.86286224335984" lon="9.076839167852873"><ele>1014.0</ele><time>2026-04-25T08:45:12.001Z</time></trkpt><trkpt lat="45.862977184280076" lon="9.076913807297629"><ele>1014.5</ele><time>2026-04-25T08:45:13.001Z</time></trkpt><trkpt lat="45.863108136896315" lon="9.076960295503328"><ele>1015.0</ele><time>2026-04-25T08:45:14.001Z</time></trkpt><trkpt lat="45.863237312856604" lon="9.077022794636214"><ele>1015.0</ele><time>2026-04-25T08:45:15.001Z</time></trkpt><trkpt lat="45.8633833374478" lon="9.077067529058972"><ele>1015.0</ele><time>2026-04-25T08:45:16.001Z</time></trkpt><trkpt lat="45.86353218131754" lon="9.077088807475882"><ele>1015.0</ele><time>2026-04-25T08:45:17.001Z</time></trkpt><trkpt lat="45.86368078983055" lon="9.077090046915671"><ele>1015.0</ele><time>2026-04-25T08:45:18.001Z</time></trkpt><trkpt lat="45.863805298915516" lon="9.077094603234212"><ele>1015.5</ele><time>2026-04-25T08:45:19.001Z</time></trkpt><trkpt lat="45.86392903046098" lon="9.077115171455327"><ele>1016.0</ele><time>2026-04-25T08:45:20.001Z</time></trkpt><trkpt lat="45.86404427778176" lon="9.07711552558057"><ele>1016.5</ele><time>2026-04-25T08:45:21.001Z</time></trkpt><trkpt lat="45.86417486076418" lon="9.077140513362206"><ele>1017.0</ele><time>2026-04-25T08:45:22.001Z</time></trkpt><trkpt lat="45.86429508820782" lon="9.07712789289092"><ele>1017.6</ele><time>2026-04-25T08:45:23.001Z</time></trkpt><trkpt lat="45.864400566242146" lon="9.077110294607145"><ele>1018.2</ele><time>2026-04-25T08:45:24.001Z</time></trkpt><trkpt lat="45.86450067694142" lon="9.07707618114992"><ele>1018.8</ele><time>2026-04-25T08:45:25.001Z</time></trkpt><trkpt lat="45.864594925652426" lon="9.077049415277004"><ele>1019.4</ele><time>2026-04-25T08:45:26.001Z</time></trkpt><trkpt lat="45.86469115930729" lon="9.077029426272393"><ele>1020.0</ele><time>2026-04-25T08:45:27.001Z</time></trkpt><trkpt lat="45.864789487867256" lon="9.077001638273163"><ele>1020.0</ele><time>2026-04-25T08:45:28.001Z</time></trkpt><trkpt lat="45.864895533851126" lon="9.076981582959395"><ele>1020.0</ele><time>2026-04-25T08:45:29.001Z</time></trkpt><trkpt lat="45.8649909798021" lon="9.076966424170134"><ele>1020.0</ele><time>2026-04-25T08:45:30.001Z</time></trkpt><trkpt lat="45.86509926759621" lon="9.076975143122013"><ele>1020.0</ele><time>2026-04-25T08:45:31.001Z</time></trkpt><trkpt lat="45.8652131075765" lon="9.076987181839831"><ele>1020.0</ele><time>2026-04-25T08:45:32.001Z</time></trkpt><trkpt lat="45.865328407657074" lon="9.077016295394591"><ele>1020.6</ele><time>2026-04-25T08:45:33.001Z</time></trkpt><trkpt lat="45.865421763894965" lon="9.07700259452318"><ele>1021.2</ele><time>2026-04-25T08:45:34.001Z</time></trkpt><trkpt lat="45.8655160948927" lon="9.077038944052584"><ele>1021.8</ele><time>2026-04-25T08:45:35.001Z</time></trkpt><trkpt lat="45.86561428346677" lon="9.077029237649564"><ele>1022.4</ele><time>2026-04-25T08:45:36.001Z</time></trkpt><trkpt lat="45.86572429444865" lon="9.077024116564859"><ele>1023.0</ele><time>2026-04-25T08:45:37.001Z</time></trkpt><trkpt lat="45.86583212434896" lon="9.077013764421563"><ele>1023.0</ele><time>2026-04-25T08:45:38.001Z</time></trkpt><trkpt lat="45.865935146358986" lon="9.077014821397228"><ele>1023.0</ele><time>2026-04-25T08:45:39.001Z</time></trkpt><trkpt lat="45.86603526132987" lon="9.076988247404461"><ele>1023.0</ele><time>2026-04-25T08:45:40.001Z</time></trkpt><trkpt lat="45.86613658031781" lon="9.076974452495927"><ele>1023.0</ele><time>2026-04-25T08:45:41.001Z</time></trkpt><trkpt lat="45.866249078619695" lon="9.076979459966191"><ele>1023.0</ele><time>2026-04-25T08:45:42.001Z</time></trkpt><trkpt lat="45.86635023300336" lon="9.076964933774171"><ele>1024.0</ele><time>2026-04-25T08:45:43.001Z</time></trkpt><trkpt lat="45.86645710891274" lon="9.076958417559092"><ele>1025.0</ele><time>2026-04-25T08:45:44.001Z</time></trkpt><trkpt lat="45.86655382269465" lon="9.076964334396317"><ele>1026.0</ele><time>2026-04-25T08:45:45.001Z</time></trkpt><trkpt lat="45.866653187457125" lon="9.076970901448593"><ele>1027.0</ele><time>2026-04-25T08:45:46.001Z</time></trkpt><trkpt lat="45.86676021217329" lon="9.076985163451507"><ele>1028.0</ele><time>2026-04-25T08:45:47.001Z</time></trkpt><trkpt lat="45.86686880686501" lon="9.077017645901696"><ele>1028.0</ele><time>2026-04-25T08:45:48.001Z</time></trkpt><trkpt lat="45.86698496330164" lon="9.077052013672235"><ele>1028.0</ele><time>2026-04-25T08:45:49.001Z</time></trkpt><trkpt lat="45.867106837944796" lon="9.077100306759078"><ele>1028.0</ele><time>2026-04-25T08:45:50.001Z</time></trkpt><trkpt lat="45.86722207045374" lon="9.077145903576827"><ele>1028.0</ele><time>2026-04-25T08:45:51.001Z</time></trkpt><trkpt lat="45.86734945102016" lon="9.077192845892094"><ele>1028.0</ele><time>2026-04-25T08:45:52.001Z</time></trkpt><trkpt lat="45.867466939257724" lon="9.077234838875599"><ele>1028.0</ele><time>2026-04-25T08:45:53.002Z</time></trkpt><trkpt lat="45.86759371638656" lon="9.077266820065605"><ele>1028.0</ele><time>2026-04-25T08:45:54.002Z</time></trkpt><trkpt lat="45.86771418539381" lon="9.077335316652368"><ele>1028.0</ele><time>2026-04-25T08:45:55.002Z</time></trkpt><trkpt lat="45.867818704563454" lon="9.077355035181917"><ele>1028.6</ele><time>2026-04-25T08:45:56.002Z</time></trkpt><trkpt lat="45.86792550078989" lon="9.077353806588416"><ele>1029.1999999999998</ele><time>2026-04-25T08:45:57.002Z</time></trkpt><trkpt lat="45.86803858227498" lon="9.077385961489705"><ele>1029.8</ele><time>2026-04-25T08:45:58.002Z</time></trkpt><trkpt lat="45.868161039025075" lon="9.077416558495921"><ele>1030.3999999999999</ele><time>2026-04-25T08:45:59.002Z</time></trkpt><trkpt lat="45.86824348961293" lon="9.077412409429344"><ele>1031.0</ele><time>2026-04-25T08:46:00.002Z</time></trkpt><trkpt lat="45.8683492538107" lon="9.07741344576202"><ele>1031.0</ele><time>2026-04-25T08:46:01.002Z</time></trkpt><trkpt lat="45.8684326836734" lon="9.077413681777346"><ele>1031.0</ele><time>2026-04-25T08:46:02.002Z</time></trkpt><trkpt lat="45.8685477838079" lon="9.07740955704142"><ele>1031.0</ele><time>2026-04-25T08:46:03.002Z</time></trkpt><trkpt lat="45.86864121651225" lon="9.07736423853899"><ele>1031.0</ele><time>2026-04-25T08:46:04.002Z</time></trkpt><trkpt lat="45.86872943593929" lon="9.077298492713226"><ele>1031.0</ele><time>2026-04-25T08:46:05.002Z</time></trkpt><trkpt lat="45.86880843416873" lon="9.077214014601978"><ele>1035.1666666666667</ele><time>2026-04-25T08:46:06.002Z</time></trkpt><trkpt lat="45.86888146296702" lon="9.077122474880202"><ele>1039.3333333333335</ele><time>2026-04-25T08:46:07.002Z</time></trkpt><trkpt lat="45.86894519899421" lon="9.077024676697206"><ele>1043.5</ele><time>2026-04-25T08:46:08.002Z</time></trkpt><trkpt lat="45.86900841089817" lon="9.076938980922277"><ele>1047.6666666666667</ele><time>2026-04-25T08:46:09.002Z</time></trkpt><trkpt lat="45.86908354667953" lon="9.07687537553971"><ele>1051.8333333333333</ele><time>2026-04-25T08:46:10.002Z</time></trkpt><trkpt lat="45.86914180990853" lon="9.076808426552814"><ele>1056.0</ele><time>2026-04-25T08:46:11.002Z</time></trkpt><trkpt lat="45.86920544586744" lon="9.076768040907691"><ele>1059.0</ele><time>2026-04-25T08:46:12.002Z</time></trkpt><trkpt lat="45.86927772289469" lon="9.07675851352655"><ele>1062.0</ele><time>2026-04-25T08:46:13.002Z</time></trkpt><trkpt lat="45.86936987180762" lon="9.076809513921305"><ele>1065.0</ele><time>2026-04-25T08:46:14.002Z</time></trkpt><trkpt lat="45.869471403284756" lon="9.076827742771295"><ele>1068.0</ele><time>2026-04-25T08:46:15.002Z</time></trkpt><trkpt lat="45.86958502052076" lon="9.076825206063528"><ele>1071.0</ele><time>2026-04-25T08:46:16.002Z</time></trkpt><trkpt lat="45.86969934222439" lon="9.076862034455932"><ele>1071.0</ele><time>2026-04-25T08:46:17.002Z</time></trkpt><trkpt lat="45.869811735587255" lon="9.076873014843311"><ele>1071.0</ele><time>2026-04-25T08:46:18.002Z</time></trkpt><trkpt lat="45.86991383234892" lon="9.076876779997242"><ele>1071.0</ele><time>2026-04-25T08:46:19.002Z</time></trkpt><trkpt lat="45.87001155030978" lon="9.076851600248078"><ele>1071.0</ele><time>2026-04-25T08:46:20.002Z</time></trkpt><trkpt lat="45.870117913364005" lon="9.076843270406599"><ele>1071.0</ele><time>2026-04-25T08:46:21.002Z</time></trkpt><trkpt lat="45.87023056373358" lon="9.076831610775196"><ele>1068.75</ele><time>2026-04-25T08:46:22.002Z</time></trkpt><trkpt lat="45.87034118154884" lon="9.07677963056657"><ele>1066.5</ele><time>2026-04-25T08:46:23.002Z</time></trkpt><trkpt lat="45.870446099550996" lon="9.076706890250659"><ele>1064.25</ele><time>2026-04-25T08:46:24.002Z</time></trkpt><trkpt lat="45.87055871055327" lon="9.07662675957399"><ele>1062.0</ele><time>2026-04-25T08:46:25.002Z</time></trkpt><trkpt lat="45.87065751374559" lon="9.076558944477478"><ele>1062.0</ele><time>2026-04-25T08:46:26.002Z</time></trkpt><trkpt lat="45.87077129422106" lon="9.076475998049695"><ele>1062.0</ele><time>2026-04-25T08:46:27.002Z</time></trkpt><trkpt lat="45.870890360670856" lon="9.076421634992197"><ele>1062.0</ele><time>2026-04-25T08:46:28.002Z</time></trkpt><trkpt lat="45.870986301381365" lon="9.076347512133296"><ele>1062.0</ele><time>2026-04-25T08:46:29.002Z</time></trkpt><trkpt lat="45.87107666009947" lon="9.076281573178237"><ele>1068.1666666666667</ele><time>2026-04-25T08:46:30.002Z</time></trkpt><trkpt lat="45.87117004037129" lon="9.076229933372613"><ele>1074.3333333333333</ele><time>2026-04-25T08:46:31.002Z</time></trkpt><trkpt lat="45.87125762452774" lon="9.076189991480526"><ele>1080.5</ele><time>2026-04-25T08:46:32.002Z</time></trkpt><trkpt lat="45.871334917660484" lon="9.076158745800042"><ele>1086.6666666666665</ele><time>2026-04-25T08:46:33.002Z</time></trkpt><trkpt lat="45.871393908552804" lon="9.076114601884573"><ele>1092.8333333333333</ele><time>2026-04-25T08:46:34.002Z</time></trkpt><trkpt lat="45.87144372397848" lon="9.076043525420907"><ele>1099.0</ele><time>2026-04-25T08:46:35.002Z</time></trkpt><trkpt lat="45.87149610674669" lon="9.075956033465243"><ele>1099.0</ele><time>2026-04-25T08:46:36.002Z</time></trkpt><trkpt lat="45.87153131302181" lon="9.075850381377014"><ele>1099.0</ele><time>2026-04-25T08:46:37.002Z</time></trkpt><trkpt lat="45.87153273183282" lon="9.075757900270874"><ele>1099.0</ele><time>2026-04-25T08:46:38.002Z</time></trkpt><trkpt lat="45.87155576966958" lon="9.0756694155044"><ele>1099.0</ele><time>2026-04-25T08:46:39.002Z</time></trkpt><trkpt lat="45.87160835202811" lon="9.075526442151073"><ele>1099.0</ele><time>2026-04-25T08:46:41.002Z</time></trkpt><trkpt lat="45.871656323231015" lon="9.075398633643896"><ele>1099.0</ele><time>2026-04-25T08:46:42.003Z</time></trkpt><trkpt lat="45.8717038000419" lon="9.075310862386143"><ele>1095.8</ele><time>2026-04-25T08:46:43.003Z</time></trkpt><trkpt lat="45.87176934579059" lon="9.07521840812971"><ele>1092.6000000000001</ele><time>2026-04-25T08:46:44.003Z</time></trkpt><trkpt lat="45.8718420976461" lon="9.075142478066955"><ele>1089.4</ele><time>2026-04-25T08:46:45.003Z</time></trkpt><trkpt lat="45.87191770079547" lon="9.075057345881355"><ele>1086.2</ele><time>2026-04-25T08:46:46.003Z</time></trkpt><trkpt lat="45.871982280777246" lon="9.074986696618478"><ele>1083.0</ele><time>2026-04-25T08:46:47.003Z</time></trkpt><trkpt lat="45.872059236387855" lon="9.074909592027293"><ele>1090.8</ele><time>2026-04-25T08:46:48.003Z</time></trkpt><trkpt lat="45.87212506793871" lon="9.0748266861056"><ele>1098.6</ele><time>2026-04-25T08:46:49.003Z</time></trkpt><trkpt lat="45.87219505807229" lon="9.074747722084254"><ele>1106.4</ele><time>2026-04-25T08:46:50.003Z</time></trkpt><trkpt lat="45.87224551231336" lon="9.074664169527324"><ele>1114.2</ele><time>2026-04-25T08:46:51.003Z</time></trkpt><trkpt lat="45.87230324302805" lon="9.074495559056194"><ele>1122.0</ele><time>2026-04-25T08:46:53.001Z</time></trkpt><trkpt lat="45.87228797144308" lon="9.074366189233244"><ele>1122.0</ele><time>2026-04-25T08:46:54.001Z</time></trkpt><trkpt lat="45.872288678132854" lon="9.074233488537708"><ele>1122.0</ele><time>2026-04-25T08:46:55.001Z</time></trkpt><trkpt lat="45.87229422928945" lon="9.074125013293697"><ele>1122.0</ele><time>2026-04-25T08:46:56.001Z</time></trkpt><trkpt lat="45.87231903669601" lon="9.073967077482427"><ele>1122.0</ele><time>2026-04-25T08:46:58.001Z</time></trkpt><trkpt lat="45.87233550189701" lon="9.073873691046478"><ele>1122.0</ele><time>2026-04-25T08:46:59.001Z</time></trkpt><trkpt lat="45.87233959804198" lon="9.073782406106403"><ele>1122.0</ele><time>2026-04-25T08:47:00.001Z</time></trkpt><trkpt lat="45.872380982926714" lon="9.073673804110589"><ele>1124.0</ele><time>2026-04-25T08:47:01.001Z</time></trkpt><trkpt lat="45.87241670693653" lon="9.073523675663393"><ele>1126.0</ele><time>2026-04-25T08:47:02.001Z</time></trkpt><trkpt lat="45.87246864015799" lon="9.07338494032967"><ele>1128.0</ele><time>2026-04-25T08:47:03.001Z</time></trkpt><trkpt lat="45.87251069336621" lon="9.073272084811256"><ele>1130.0</ele><time>2026-04-25T08:47:04.001Z</time></trkpt><trkpt lat="45.87256355797069" lon="9.073141458558448"><ele>1132.0</ele><time>2026-04-25T08:47:05.001Z</time></trkpt><trkpt lat="45.872582563381116" lon="9.073036146804325"><ele>1134.3333333333333</ele><time>2026-04-25T08:47:06.001Z</time></trkpt><trkpt lat="45.87259706780467" lon="9.07293927601701"><ele>1136.6666666666665</ele><time>2026-04-25T08:47:07.001Z</time></trkpt><trkpt lat="45.872606189173254" lon="9.072844004266347"><ele>1139.0</ele><time>2026-04-25T08:47:08.001Z</time></trkpt><trkpt lat="45.87256526733282" lon="9.072757829370229"><ele>1141.3333333333333</ele><time>2026-04-25T08:47:09.001Z</time></trkpt><trkpt lat="45.872514324974915" lon="9.072657326739733"><ele>1143.6666666666667</ele><time>2026-04-25T08:47:10.001Z</time></trkpt><trkpt lat="45.87241950378593" lon="9.072593595095343"><ele>1146.0</ele><time>2026-04-25T08:47:11.001Z</time></trkpt><trkpt lat="45.872333858542916" lon="9.072520087607463"><ele>1149.8</ele><time>2026-04-25T08:47:12.001Z</time></trkpt><trkpt lat="45.87223277073877" lon="9.072409054335795"><ele>1153.6</ele><time>2026-04-25T08:47:13.001Z</time></trkpt><trkpt lat="45.872139899760725" lon="9.072302803672969"><ele>1157.4</ele><time>2026-04-25T08:47:14.001Z</time></trkpt><trkpt lat="45.872053397236215" lon="9.07220486061047"><ele>1161.2</ele><time>2026-04-25T08:47:15.001Z</time></trkpt><trkpt lat="45.87198348829018" lon="9.072125207927801"><ele>1165.0</ele><time>2026-04-25T08:47:16.001Z</time></trkpt><trkpt lat="45.871894415702684" lon="9.072003296177487"><ele>1165.0</ele><time>2026-04-25T08:47:18.001Z</time></trkpt><trkpt lat="45.87185796542955" lon="9.071906147056914"><ele>1165.0</ele><time>2026-04-25T08:47:19.001Z</time></trkpt><trkpt lat="45.87182828314189" lon="9.071806370155352"><ele>1165.0</ele><time>2026-04-25T08:47:20.001Z</time></trkpt><trkpt lat="45.87182572064216" lon="9.07169146240389"><ele>1165.0</ele><time>2026-04-25T08:47:21.001Z</time></trkpt><trkpt lat="45.871854709619086" lon="9.071540710421102"><ele>1165.0</ele><time>2026-04-25T08:47:22.001Z</time></trkpt><trkpt lat="45.87186819313705" lon="9.071387549967364"><ele>1165.0</ele><time>2026-04-25T08:47:23.001Z</time></trkpt><trkpt lat="45.87186774121348" lon="9.07120283043123"><ele>1168.2</ele><time>2026-04-25T08:47:24.001Z</time></trkpt><trkpt lat="45.87187379242932" lon="9.071050670499082"><ele>1171.4</ele><time>2026-04-25T08:47:25.001Z</time></trkpt><trkpt lat="45.87187488278097" lon="9.070883566071965"><ele>1174.6</ele><time>2026-04-25T08:47:26.001Z</time></trkpt><trkpt lat="45.87187643072028" lon="9.070728111294567"><ele>1177.8</ele><time>2026-04-25T08:47:27.001Z</time></trkpt><trkpt lat="45.87187657435449" lon="9.07059536939028"><ele>1181.0</ele><time>2026-04-25T08:47:28.001Z</time></trkpt><trkpt lat="45.87187756851516" lon="9.070474975858932"><ele>1184.8333333333335</ele><time>2026-04-25T08:47:29.001Z</time></trkpt><trkpt lat="45.871875109012166" lon="9.070357307657826"><ele>1188.6666666666667</ele><time>2026-04-25T08:47:30.001Z</time></trkpt><trkpt lat="45.871802031868306" lon="9.070226677245637"><ele>1192.5</ele><time>2026-04-25T08:47:32.001Z</time></trkpt><trkpt lat="45.87173568175507" lon="9.070165626222908"><ele>1196.3333333333333</ele><time>2026-04-25T08:47:33.001Z</time></trkpt><trkpt lat="45.8716688205879" lon="9.070106040193906"><ele>1200.1666666666665</ele><time>2026-04-25T08:47:34.001Z</time></trkpt><trkpt lat="45.87161174729193" lon="9.070056152014676"><ele>1204.0</ele><time>2026-04-25T08:47:35.001Z</time></trkpt><trkpt lat="45.87150544364511" lon="9.069950162875868"><ele>1197.2</ele><time>2026-04-25T08:47:37.001Z</time></trkpt><trkpt lat="45.87145533800535" lon="9.069783747676997"><ele>1190.4</ele><time>2026-04-25T08:47:39.001Z</time></trkpt><trkpt lat="45.87144354976903" lon="9.069668466696111"><ele>1183.6</ele><time>2026-04-25T08:47:40.001Z</time></trkpt><trkpt lat="45.87144513409029" lon="9.069552118020017"><ele>1176.8</ele><time>2026-04-25T08:47:41.001Z</time></trkpt><trkpt lat="45.87143705148067" lon="9.0693933525618"><ele>1170.0</ele><time>2026-04-25T08:47:42.001Z</time></trkpt><trkpt lat="45.871433036353366" lon="9.069251223678174"><ele>1170.0</ele><time>2026-04-25T08:47:43.001Z</time></trkpt><trkpt lat="45.871442935414144" lon="9.06913729097099"><ele>1170.0</ele><time>2026-04-25T08:47:44.001Z</time></trkpt><trkpt lat="45.87144547692697" lon="9.06903708589466"><ele>1170.0</ele><time>2026-04-25T08:47:45.001Z</time></trkpt><trkpt lat="45.87146513461159" lon="9.068939805885048"><ele>1170.0</ele><time>2026-04-25T08:47:46.001Z</time></trkpt><trkpt lat="45.87146669641604" lon="9.068831507544825"><ele>1170.0</ele><time>2026-04-25T08:47:47.001Z</time></trkpt><trkpt lat="45.871449339711106" lon="9.068739505962405"><ele>1170.0</ele><time>2026-04-25T08:47:48.001Z</time></trkpt><trkpt lat="45.87138220180118" lon="9.068637307342547"><ele>1172.8</ele><time>2026-04-25T08:47:49.001Z</time></trkpt><trkpt lat="45.87131103086377" lon="9.068551784655403"><ele>1175.6</ele><time>2026-04-25T08:47:50.001Z</time></trkpt><trkpt lat="45.871223880912005" lon="9.068499615821814"><ele>1178.4</ele><time>2026-04-25T08:47:51.001Z</time></trkpt><trkpt lat="45.8711030507128" lon="9.068476226537758"><ele>1181.2</ele><time>2026-04-25T08:47:52.001Z</time></trkpt><trkpt lat="45.87098782245993" lon="9.068458534948164"><ele>1184.0</ele><time>2026-04-25T08:47:53.001Z</time></trkpt><trkpt lat="45.8708702471258" lon="9.068443127915126"><ele>1177.0</ele><time>2026-04-25T08:47:54.001Z</time></trkpt><trkpt lat="45.87075618655432" lon="9.06843173629958"><ele>1170.0</ele><time>2026-04-25T08:47:55.001Z</time></trkpt><trkpt lat="45.87062796278488" lon="9.068433521818896"><ele>1163.0</ele><time>2026-04-25T08:47:56.001Z</time></trkpt><trkpt lat="45.870514139779665" lon="9.068463494288004"><ele>1156.0</ele><time>2026-04-25T08:47:57.001Z</time></trkpt><trkpt lat="45.87038628644771" lon="9.068476426973469"><ele>1156.0</ele><time>2026-04-25T08:47:58.001Z</time></trkpt><trkpt lat="45.87027352820759" lon="9.06849124633175"><ele>1156.0</ele><time>2026-04-25T08:47:59.001Z</time></trkpt><trkpt lat="45.87014939269986" lon="9.068491856464838"><ele>1156.0</ele><time>2026-04-25T08:48:00.001Z</time></trkpt><trkpt lat="45.87007450418341" lon="9.068497268973594"><ele>1156.0</ele><time>2026-04-25T08:48:01.001Z</time></trkpt><trkpt lat="45.86996062840814" lon="9.068500274767626"><ele>1156.0</ele><time>2026-04-25T08:48:02.001Z</time></trkpt><trkpt lat="45.869865441913156" lon="9.068501221534378"><ele>1156.6</ele><time>2026-04-25T08:48:03.001Z</time></trkpt><trkpt lat="45.869776192472166" lon="9.068500207332207"><ele>1157.1999999999998</ele><time>2026-04-25T08:48:04.001Z</time></trkpt><trkpt lat="45.869709632660864" lon="9.068516173681385"><ele>1157.8000000000002</ele><time>2026-04-25T08:48:05.001Z</time></trkpt><trkpt lat="45.869665832266755" lon="9.068451147208371"><ele>1158.4</ele><time>2026-04-25T08:48:07.001Z</time></trkpt><trkpt lat="45.86968295522147" lon="9.068363219280856"><ele>1159.0</ele><time>2026-04-25T08:48:09.001Z</time></trkpt><trkpt lat="45.86998015893653" lon="9.068385460244036"><ele>1159.0</ele><time>2026-04-25T08:48:15.001Z</time></trkpt><trkpt lat="45.87008764979688" lon="9.068347500858321"><ele>1159.0</ele><time>2026-04-25T08:48:17.002Z</time></trkpt><trkpt lat="45.870161798632125" lon="9.068306407907908"><ele>1159.0</ele><time>2026-04-25T08:48:18.002Z</time></trkpt><trkpt lat="45.87024780217912" lon="9.068250513314261"><ele>1159.0</ele><time>2026-04-25T08:48:20.002Z</time></trkpt><trkpt lat="45.87031839658091" lon="9.068221453749754"><ele>1159.0</ele><time>2026-04-25T08:48:22.002Z</time></trkpt><trkpt lat="45.87039466579111" lon="9.068177904708987"><ele>1159.0</ele><time>2026-04-25T08:48:24.002Z</time></trkpt><trkpt lat="45.87048258370473" lon="9.06813272663267"><ele>1166.0</ele><time>2026-04-25T08:48:27.002Z</time></trkpt><trkpt lat="45.87057474585918" lon="9.068089126590877"><ele>1173.0</ele><time>2026-04-25T08:48:30.002Z</time></trkpt><trkpt lat="45.87064671130046" lon="9.068071656511576"><ele>1180.0</ele><time>2026-04-25T08:48:32.002Z</time></trkpt><trkpt lat="45.870739038877524" lon="9.068051517957286"><ele>1187.0</ele><time>2026-04-25T08:48:34.002Z</time></trkpt><trkpt lat="45.87081915701342" lon="9.06803150187202"><ele>1194.0</ele><time>2026-04-25T08:48:36.002Z</time></trkpt><trkpt lat="45.87090834218494" lon="9.068023597664924"><ele>1201.0</ele><time>2026-04-25T08:48:39.002Z</time></trkpt><trkpt lat="45.87097057712136" lon="9.06800650298022"><ele>1204.0</ele><time>2026-04-25T08:48:41.002Z</time></trkpt><trkpt lat="45.87103296513492" lon="9.067978776906314"><ele>1207.0</ele><time>2026-04-25T08:48:43.002Z</time></trkpt><trkpt lat="45.871124970358885" lon="9.067961268578339"><ele>1210.0</ele><time>2026-04-25T08:48:46.002Z</time></trkpt><trkpt lat="45.87120639187615" lon="9.067951709578574"><ele>1213.0</ele><time>2026-04-25T08:48:48.002Z</time></trkpt><trkpt lat="45.87130105154268" lon="9.067955124457967"><ele>1216.0</ele><time>2026-04-25T08:48:50.002Z</time></trkpt><trkpt lat="45.87139134605829" lon="9.067951000595613"><ele>1219.0</ele><time>2026-04-25T08:48:52.002Z</time></trkpt><trkpt lat="45.87149390991835" lon="9.067967225094248"><ele>1219.0</ele><time>2026-04-25T08:48:54.002Z</time></trkpt><trkpt lat="45.87158070156314" lon="9.06802630958368"><ele>1219.0</ele><time>2026-04-25T08:48:56.002Z</time></trkpt><trkpt lat="45.871659777009675" lon="9.068099759404632"><ele>1219.0</ele><time>2026-04-25T08:48:59.001Z</time></trkpt><trkpt lat="45.87172527748711" lon="9.068170244983444"><ele>1219.0</ele><time>2026-04-25T08:49:01.001Z</time></trkpt><trkpt lat="45.87178718659979" lon="9.068229475821243"><ele>1219.0</ele><time>2026-04-25T08:49:03.001Z</time></trkpt><trkpt lat="45.87183800411667" lon="9.068289589733059"><ele>1219.0</ele><time>2026-04-25T08:49:05.001Z</time></trkpt><trkpt lat="45.87191279165222" lon="9.068376754469165"><ele>1221.0</ele><time>2026-04-25T08:49:07.001Z</time></trkpt><trkpt lat="45.87197796697822" lon="9.068447381015998"><ele>1223.0</ele><time>2026-04-25T08:49:09.001Z</time></trkpt><trkpt lat="45.87202277544528" lon="9.06852256306367"><ele>1225.0</ele><time>2026-04-25T08:49:11.001Z</time></trkpt><trkpt lat="45.872042581235384" lon="9.068618992156882"><ele>1227.0</ele><time>2026-04-25T08:49:13.001Z</time></trkpt><trkpt lat="45.87205410503248" lon="9.068710453672642"><ele>1229.0</ele><time>2026-04-25T08:49:15.001Z</time></trkpt><trkpt lat="45.87205719301292" lon="9.068807846333213"><ele>1231.0</ele><time>2026-04-25T08:49:17.001Z</time></trkpt><trkpt lat="45.87205750134635" lon="9.068903778180873"><ele>1233.0</ele><time>2026-04-25T08:49:19.001Z</time></trkpt><trkpt lat="45.8720528906805" lon="9.069002628172731"><ele>1231.0</ele><time>2026-04-25T08:49:21.001Z</time></trkpt><trkpt lat="45.87205137300624" lon="9.069120357678809"><ele>1229.0</ele><time>2026-04-25T08:49:23.001Z</time></trkpt><trkpt lat="45.87206181796878" lon="9.069275245152749"><ele>1227.0</ele><time>2026-04-25T08:49:25.001Z</time></trkpt><trkpt lat="45.87213359570332" lon="9.06940799033689"><ele>1225.0</ele><time>2026-04-25T08:49:27.001Z</time></trkpt><trkpt lat="45.87220934074982" lon="9.069475002946861"><ele>1223.0</ele><time>2026-04-25T08:49:29.001Z</time></trkpt><trkpt lat="45.87227224596376" lon="9.06953326476544"><ele>1223.0</ele><time>2026-04-25T08:49:31.001Z</time></trkpt><trkpt lat="45.87233495336544" lon="9.069577730822667"><ele>1223.0</ele><time>2026-04-25T08:49:33.001Z</time></trkpt><trkpt lat="45.872397324557376" lon="9.069613196804797"><ele>1223.0</ele><time>2026-04-25T08:49:35.001Z</time></trkpt><trkpt lat="45.872469619591165" lon="9.069673356396224"><ele>1223.0</ele><time>2026-04-25T08:49:37.001Z</time></trkpt><trkpt lat="45.872539070464185" lon="9.069767046733185"><ele>1223.0</ele><time>2026-04-25T08:49:39.001Z</time></trkpt><trkpt lat="45.872580108619516" lon="9.06986359010362"><ele>1223.0</ele><time>2026-04-25T08:49:41.001Z</time></trkpt><trkpt lat="45.87259859937856" lon="9.069966143159741"><ele>1227.0</ele><time>2026-04-25T08:49:43.001Z</time></trkpt><trkpt lat="45.87261659306706" lon="9.070068081895121"><ele>1231.0</ele><time>2026-04-25T08:49:45.001Z</time></trkpt><trkpt lat="45.872635948166455" lon="9.070166798968906"><ele>1235.0</ele><time>2026-04-25T08:49:47.001Z</time></trkpt><trkpt lat="45.872653556490995" lon="9.070266500739312"><ele>1239.0</ele><time>2026-04-25T08:49:49.001Z</time></trkpt><trkpt lat="45.872675055752225" lon="9.070358692612693"><ele>1243.0</ele><time>2026-04-25T08:49:51.001Z</time></trkpt><trkpt lat="45.87269520989041" lon="9.07044606453404"><ele>1247.0</ele><time>2026-04-25T08:49:53.001Z</time></trkpt><trkpt lat="45.87271897866894" lon="9.070545840557742"><ele>1251.0</ele><time>2026-04-25T08:49:55.001Z</time></trkpt><trkpt lat="45.87275135390405" lon="9.070646380315193"><ele>1251.0</ele><time>2026-04-25T08:49:57.001Z</time></trkpt><trkpt lat="45.87279863321067" lon="9.070757553669184"><ele>1251.0</ele><time>2026-04-25T08:49:59.001Z</time></trkpt><trkpt lat="45.872835727446876" lon="9.070846639634643"><ele>1251.0</ele><time>2026-04-25T08:50:01.001Z</time></trkpt><trkpt lat="45.872883424673205" lon="9.070911623799486"><ele>1251.0</ele><time>2026-04-25T08:50:03.001Z</time></trkpt><trkpt lat="45.87294749765128" lon="9.0709852829012"><ele>1251.0</ele><time>2026-04-25T08:50:06.001Z</time></trkpt><trkpt lat="45.873013950707694" lon="9.071034099477208"><ele>1251.0</ele><time>2026-04-25T08:50:09.001Z</time></trkpt><trkpt lat="45.873073817252624" lon="9.071076552179298"><ele>1251.5</ele><time>2026-04-25T08:50:12.001Z</time></trkpt><trkpt lat="45.873140048301096" lon="9.071120161078898"><ele>1252.0</ele><time>2026-04-25T08:50:15.001Z</time></trkpt><trkpt lat="45.87322057735854" lon="9.07117629933968"><ele>1252.5</ele><time>2026-04-25T08:50:19.001Z</time></trkpt><trkpt lat="45.873280089728794" lon="9.071215472992698"><ele>1253.0</ele><time>2026-04-25T08:50:21.001Z</time></trkpt><trkpt lat="45.87334421436981" lon="9.071265371226167"><ele>1253.5</ele><time>2026-04-25T08:50:23.001Z</time></trkpt><trkpt lat="45.873417762767296" lon="9.071309931843874"><ele>1254.0</ele><time>2026-04-25T08:50:25.002Z</time></trkpt><trkpt lat="45.873478747085976" lon="9.0713728542257"><ele>1254.0</ele><time>2026-04-25T08:50:28.002Z</time></trkpt><trkpt lat="45.87353785034002" lon="9.071445118056378"><ele>1254.0</ele><time>2026-04-25T08:50:31.002Z</time></trkpt><trkpt lat="45.873604416113515" lon="9.07149975805648"><ele>1254.0</ele><time>2026-04-25T08:50:35.002Z</time></trkpt><trkpt lat="45.87367243278875" lon="9.0715552844045"><ele>1254.0</ele><time>2026-04-25T08:50:40.002Z</time></trkpt><trkpt lat="45.87373296913911" lon="9.071615413032553"><ele>1254.0</ele><time>2026-04-25T08:50:42.002Z</time></trkpt><trkpt lat="45.87378818628986" lon="9.071718460944071"><ele>1254.0</ele><time>2026-04-25T08:50:44.002Z</time></trkpt><trkpt lat="45.873825667940835" lon="9.071839540385623"><ele>1251.1666666666667</ele><time>2026-04-25T08:50:46.002Z</time></trkpt><trkpt lat="45.87386809975018" lon="9.071946572935857"><ele>1248.3333333333333</ele><time>2026-04-25T08:50:48.002Z</time></trkpt><trkpt lat="45.873886015239066" lon="9.072064882157818"><ele>1245.5</ele><time>2026-04-25T08:50:50.002Z</time></trkpt><trkpt lat="45.87392518148123" lon="9.072156916991812"><ele>1242.6666666666665</ele><time>2026-04-25T08:50:52.002Z</time></trkpt><trkpt lat="45.87391857254018" lon="9.072263567663839"><ele>1239.8333333333333</ele><time>2026-04-25T08:50:55.002Z</time></trkpt><trkpt lat="45.873933168405685" lon="9.072359271994998"><ele>1237.0</ele><time>2026-04-25T08:51:01.002Z</time></trkpt><trkpt lat="45.87396258126505" lon="9.072440454089568"><ele>1235.6666666666665</ele><time>2026-04-25T08:51:06.001Z</time></trkpt><trkpt lat="45.87398824391498" lon="9.072527084835148"><ele>1234.3333333333333</ele><time>2026-04-25T08:51:09.001Z</time></trkpt><trkpt lat="45.874012553339234" lon="9.072610855237889"><ele>1233.0</ele><time>2026-04-25T08:51:18.001Z</time></trkpt><trkpt lat="45.87402687849954" lon="9.072707446441912"><ele>1231.6666666666667</ele><time>2026-04-25T08:51:22.001Z</time></trkpt><trkpt lat="45.874043742817236" lon="9.072821173560245"><ele>1230.3333333333335</ele><time>2026-04-25T08:51:27.001Z</time></trkpt><trkpt lat="45.87403265996613" lon="9.07294948025491"><ele>1229.0</ele><time>2026-04-25T08:51:35.001Z</time></trkpt><trkpt lat="45.87404482409745" lon="9.073069536267866"><ele>1229.0</ele><time>2026-04-25T08:51:37.001Z</time></trkpt><trkpt lat="45.87405282304298" lon="9.073198290934945"><ele>1229.0</ele><time>2026-04-25T08:51:39.001Z</time></trkpt><trkpt lat="45.87404197435776" lon="9.07329911461129"><ele>1229.0</ele><time>2026-04-25T08:51:41.001Z</time></trkpt><trkpt lat="45.87404928286906" lon="9.073426212392995"><ele>1229.0</ele><time>2026-04-25T08:51:43.001Z</time></trkpt><trkpt lat="45.87404589601664" lon="9.073597572680894"><ele>1229.0</ele><time>2026-04-25T08:51:45.001Z</time></trkpt><trkpt lat="45.87403685777625" lon="9.073761572036384"><ele>1228.3333333333335</ele><time>2026-04-25T08:51:47.001Z</time></trkpt><trkpt lat="45.87402490564545" lon="9.073910169296509"><ele>1227.6666666666667</ele><time>2026-04-25T08:51:49.001Z</time></trkpt><trkpt lat="45.8740217506203" lon="9.074007822558878"><ele>1227.0</ele><time>2026-04-25T08:51:51.001Z</time></trkpt><trkpt lat="45.874076355898566" lon="9.074100451327094"><ele>1226.3333333333333</ele><time>2026-04-25T08:51:54.001Z</time></trkpt><trkpt lat="45.874128023162825" lon="9.07403101675422"><ele>1225.6666666666665</ele><time>2026-04-25T08:53:04.002Z</time></trkpt><trkpt lat="45.87414026648029" lon="9.073891103279925"><ele>1225.0</ele><time>2026-04-25T08:53:06.002Z</time></trkpt><trkpt lat="45.87413068515178" lon="9.073764145754545"><ele>1225.0</ele><time>2026-04-25T08:53:07.002Z</time></trkpt><trkpt lat="45.87413748485872" lon="9.07365649415019"><ele>1225.0</ele><time>2026-04-25T08:53:08.002Z</time></trkpt><trkpt lat="45.87414050274625" lon="9.073560196958415"><ele>1225.0</ele><time>2026-04-25T08:53:09.002Z</time></trkpt><trkpt lat="45.8741528693781" lon="9.073446477902895"><ele>1225.0</ele><time>2026-04-25T08:53:10.001Z</time></trkpt><trkpt lat="45.87416999083049" lon="9.073331701204348"><ele>1225.0</ele><time>2026-04-25T08:53:11.001Z</time></trkpt><trkpt lat="45.874183892186025" lon="9.073208058487086"><ele>1225.0</ele><time>2026-04-25T08:53:12.001Z</time></trkpt><trkpt lat="45.874192617393916" lon="9.073092246379636"><ele>1225.8</ele><time>2026-04-25T08:53:13.001Z</time></trkpt><trkpt lat="45.874203168134294" lon="9.072961367378804"><ele>1226.6</ele><time>2026-04-25T08:53:14.001Z</time></trkpt><trkpt lat="45.874196753973955" lon="9.072816275606106"><ele>1227.4</ele><time>2026-04-25T08:53:15.001Z</time></trkpt><trkpt lat="45.874201777545075" lon="9.072681537943708"><ele>1228.2</ele><time>2026-04-25T08:53:16.001Z</time></trkpt><trkpt lat="45.87420966415042" lon="9.072540874569604"><ele>1229.0</ele><time>2026-04-25T08:53:17.001Z</time></trkpt><trkpt lat="45.87421832141486" lon="9.072415634459828"><ele>1229.0</ele><time>2026-04-25T08:53:18.001Z</time></trkpt><trkpt lat="45.874228500786074" lon="9.072299236663278"><ele>1229.0</ele><time>2026-04-25T08:53:19.001Z</time></trkpt><trkpt lat="45.8742484494075" lon="9.072159948282936"><ele>1229.0</ele><time>2026-04-25T08:53:20.001Z</time></trkpt><trkpt lat="45.87426131483198" lon="9.072042426200078"><ele>1229.0</ele><time>2026-04-25T08:53:21.001Z</time></trkpt><trkpt lat="45.874277480668674" lon="9.071943550476657"><ele>1229.0</ele><time>2026-04-25T08:53:22.001Z</time></trkpt><trkpt lat="45.874294969691555" lon="9.071842680907166"><ele>1229.0</ele><time>2026-04-25T08:53:23.001Z</time></trkpt><trkpt lat="45.87431030433935" lon="9.071748337865637"><ele>1229.0000000000002</ele><time>2026-04-25T08:53:24.001Z</time></trkpt><trkpt lat="45.8743192136352" lon="9.071635941123896"><ele>1229.0</ele><time>2026-04-25T08:53:25.001Z</time></trkpt><trkpt lat="45.87431806501609" lon="9.071528547120883"><ele>1229.0</ele><time>2026-04-25T08:53:26.001Z</time></trkpt><trkpt lat="45.874300804451295" lon="9.071431532810534"><ele>1229.0</ele><time>2026-04-25T08:53:27.001Z</time></trkpt><trkpt lat="45.87425414952394" lon="9.071345632976236"><ele>1229.0</ele><time>2026-04-25T08:53:28.001Z</time></trkpt><trkpt lat="45.874208430856065" lon="9.071276879690076"><ele>1229.0000000000002</ele><time>2026-04-25T08:53:29.001Z</time></trkpt><trkpt lat="45.874163642141724" lon="9.071209823123002"><ele>1229.0</ele><time>2026-04-25T08:53:30.001Z</time></trkpt><trkpt lat="45.87405261023534" lon="9.071101269230592"><ele>1234.0</ele><time>2026-04-25T08:53:31.001Z</time></trkpt><trkpt lat="45.873979785074305" lon="9.070999801056647"><ele>1239.0</ele><time>2026-04-25T08:53:32.001Z</time></trkpt><trkpt lat="45.873894281265805" lon="9.070901283781643"><ele>1244.0</ele><time>2026-04-25T08:53:33.001Z</time></trkpt><trkpt lat="45.87381326262698" lon="9.070806197259627"><ele>1249.0</ele><time>2026-04-25T08:53:34.001Z</time></trkpt><trkpt lat="45.87374385177834" lon="9.07070933937783"><ele>1254.0</ele><time>2026-04-25T08:53:35.001Z</time></trkpt><trkpt lat="45.87367370773557" lon="9.07060870028803"><ele>1253.4</ele><time>2026-04-25T08:53:36.001Z</time></trkpt><trkpt lat="45.873612402981344" lon="9.070530807118452"><ele>1252.8000000000002</ele><time>2026-04-25T08:53:37.001Z</time></trkpt><trkpt lat="45.87353795346908" lon="9.070413514589198"><ele>1252.1999999999998</ele><time>2026-04-25T08:53:38.001Z</time></trkpt><trkpt lat="45.873468341817684" lon="9.070318845038663"><ele>1251.6</ele><time>2026-04-25T08:53:39.001Z</time></trkpt><trkpt lat="45.87341114600341" lon="9.070188482663516"><ele>1251.0</ele><time>2026-04-25T08:53:40.001Z</time></trkpt><trkpt lat="45.87337126217208" lon="9.070068184023656"><ele>1255.3999999999999</ele><time>2026-04-25T08:53:41.001Z</time></trkpt><trkpt lat="45.87333071797425" lon="9.069931187723231"><ele>1259.8</ele><time>2026-04-25T08:53:42.001Z</time></trkpt><trkpt lat="45.87330308802147" lon="9.069784101784807"><ele>1264.1999999999998</ele><time>2026-04-25T08:53:43.001Z</time></trkpt><trkpt lat="45.87328397086379" lon="9.0696247975908"><ele>1268.6</ele><time>2026-04-25T08:53:44.001Z</time></trkpt><trkpt lat="45.87327558634956" lon="9.069482729052286"><ele>1273.0</ele><time>2026-04-25T08:53:45.001Z</time></trkpt><trkpt lat="45.873261492071485" lon="9.069348344525586"><ele>1273.0</ele><time>2026-04-25T08:53:46.001Z</time></trkpt><trkpt lat="45.8732344622053" lon="9.06923052858005"><ele>1273.0</ele><time>2026-04-25T08:53:47.001Z</time></trkpt><trkpt lat="45.87319735128952" lon="9.069072358735129"><ele>1273.0</ele><time>2026-04-25T08:53:48.001Z</time></trkpt><trkpt lat="45.8731017028662" lon="9.068968861816376"><ele>1273.0</ele><time>2026-04-25T08:53:49.001Z</time></trkpt><trkpt lat="45.87305892060094" lon="9.068886554649339"><ele>1273.0</ele><time>2026-04-25T08:53:50.001Z</time></trkpt><trkpt lat="45.87303358065544" lon="9.068785018382776"><ele>1275.1666666666665</ele><time>2026-04-25T08:53:51.001Z</time></trkpt><trkpt lat="45.87301975816556" lon="9.068665734750939"><ele>1277.3333333333333</ele><time>2026-04-25T08:53:52.001Z</time></trkpt><trkpt lat="45.87302018788691" lon="9.068538527663653"><ele>1279.5</ele><time>2026-04-25T08:53:53.001Z</time></trkpt><trkpt lat="45.873027163983615" lon="9.068401942541914"><ele>1281.6666666666667</ele><time>2026-04-25T08:53:54.001Z</time></trkpt><trkpt lat="45.873044118445755" lon="9.068272071581793"><ele>1283.8333333333335</ele><time>2026-04-25T08:53:55.001Z</time></trkpt><trkpt lat="45.87304701766066" lon="9.068144909890993"><ele>1286.0</ele><time>2026-04-25T08:53:56.001Z</time></trkpt><trkpt lat="45.87304984991801" lon="9.068033475630079"><ele>1289.0</ele><time>2026-04-25T08:53:57.001Z</time></trkpt><trkpt lat="45.873015722126915" lon="9.067925785620236"><ele>1292.0</ele><time>2026-04-25T08:53:58.001Z</time></trkpt><trkpt lat="45.87298767872537" lon="9.067815713265443"><ele>1295.0</ele><time>2026-04-25T08:53:59.001Z</time></trkpt><trkpt lat="45.87290139786952" lon="9.067698101146176"><ele>1298.0</ele><time>2026-04-25T08:54:00.001Z</time></trkpt><trkpt lat="45.872827826597124" lon="9.067571484155001"><ele>1301.0</ele><time>2026-04-25T08:54:01.001Z</time></trkpt><trkpt lat="45.87278487040151" lon="9.067419431926208"><ele>1304.5</ele><time>2026-04-25T08:54:02.001Z</time></trkpt><trkpt lat="45.87268904596194" lon="9.067292004831083"><ele>1308.0</ele><time>2026-04-25T08:54:03.001Z</time></trkpt><trkpt lat="45.87259411166969" lon="9.067138439268108"><ele>1311.5</ele><time>2026-04-25T08:54:04.001Z</time></trkpt><trkpt lat="45.872522798837366" lon="9.0669830066707"><ele>1315.0</ele><time>2026-04-25T08:54:05.001Z</time></trkpt><trkpt lat="45.872442875133615" lon="9.066842264324588"><ele>1310.0</ele><time>2026-04-25T08:54:06.001Z</time></trkpt><trkpt lat="45.87233121520715" lon="9.06671754556637"><ele>1305.0</ele><time>2026-04-25T08:54:07.001Z</time></trkpt><trkpt lat="45.87223976234679" lon="9.066589320948193"><ele>1300.0</ele><time>2026-04-25T08:54:08.001Z</time></trkpt><trkpt lat="45.87215933758114" lon="9.066493608575465"><ele>1295.0</ele><time>2026-04-25T08:54:09.001Z</time></trkpt><trkpt lat="45.87206755636329" lon="9.066382071329365"><ele>1295.0</ele><time>2026-04-25T08:54:10.001Z</time></trkpt><trkpt lat="45.87198251611182" lon="9.066278028315702"><ele>1295.0</ele><time>2026-04-25T08:54:11.001Z</time></trkpt><trkpt lat="45.87189386826401" lon="9.06622779165905"><ele>1295.0</ele><time>2026-04-25T08:54:12.001Z</time></trkpt><trkpt lat="45.871813543183315" lon="9.066186240051856"><ele>1295.0</ele><time>2026-04-25T08:54:13.001Z</time></trkpt><trkpt lat="45.87174608969189" lon="9.066133972271267"><ele>1295.0</ele><time>2026-04-25T08:54:14.001Z</time></trkpt><trkpt lat="45.871681694618836" lon="9.066092048226635"><ele>1295.0</ele><time>2026-04-25T08:54:15.001Z</time></trkpt><trkpt lat="45.87161799409101" lon="9.066040628567505"><ele>1295.0</ele><time>2026-04-25T08:54:16.001Z</time></trkpt><trkpt lat="45.871551048483035" lon="9.065956694160313"><ele>1295.0</ele><time>2026-04-25T08:54:18.001Z</time></trkpt><trkpt lat="45.87158662418553" lon="9.065842090760407"><ele>1295.0</ele><time>2026-04-25T08:54:21.001Z</time></trkpt><trkpt lat="45.871651745167235" lon="9.06586316283939"><ele>1295.0</ele><time>2026-04-25T08:54:23.001Z</time></trkpt><trkpt lat="45.87173245088962" lon="9.065985314891494"><ele>1295.0</ele><time>2026-04-25T08:54:25.001Z</time></trkpt><trkpt lat="45.87179258451745" lon="9.066040514564264"><ele>1295.0</ele><time>2026-04-25T08:54:26.001Z</time></trkpt><trkpt lat="45.87185749663092" lon="9.066077745129592"><ele>1295.0</ele><time>2026-04-25T08:54:27.001Z</time></trkpt><trkpt lat="45.871950171820295" lon="9.066119154268465"><ele>1295.0</ele><time>2026-04-25T08:54:28.001Z</time></trkpt><trkpt lat="45.87204007851565" lon="9.066154201591647"><ele>1295.0</ele><time>2026-04-25T08:54:29.001Z</time></trkpt><trkpt lat="45.87212428445367" lon="9.066203742726909"><ele>1295.0</ele><time>2026-04-25T08:54:30.001Z</time></trkpt><trkpt lat="45.872197990225004" lon="9.06626416698572"><ele>1295.0</ele><time>2026-04-25T08:54:31.001Z</time></trkpt><trkpt lat="45.872266228307616" lon="9.066311659099423"><ele>1295.0</ele><time>2026-04-25T08:54:32.001Z</time></trkpt><trkpt lat="45.87233302828991" lon="9.066357033931515"><ele>1295.0</ele><time>2026-04-25T08:54:33.001Z</time></trkpt><trkpt lat="45.87239428872147" lon="9.06641322847254"><ele>1295.0</ele><time>2026-04-25T08:54:34.001Z</time></trkpt><trkpt lat="45.87245157280093" lon="9.066474524193257"><ele>1295.0</ele><time>2026-04-25T08:54:35.001Z</time></trkpt><trkpt lat="45.87251121335137" lon="9.066517517524757"><ele>1295.0</ele><time>2026-04-25T08:54:36.001Z</time></trkpt><trkpt lat="45.87256785114728" lon="9.066570515065134"><ele>1295.0</ele><time>2026-04-25T08:54:37.001Z</time></trkpt><trkpt lat="45.872625557560035" lon="9.066636582443948"><ele>1295.0</ele><time>2026-04-25T08:54:38.001Z</time></trkpt><trkpt lat="45.87267684617308" lon="9.066700014311921"><ele>1295.0</ele><time>2026-04-25T08:54:39.001Z</time></trkpt><trkpt lat="45.87273033561854" lon="9.066766843558035"><ele>1299.0</ele><time>2026-04-25T08:54:40.001Z</time></trkpt><trkpt lat="45.87277841806892" lon="9.066826968260509"><ele>1303.0</ele><time>2026-04-25T08:54:41.001Z</time></trkpt><trkpt lat="45.872866184263025" lon="9.066933817212778"><ele>1307.0</ele><time>2026-04-25T08:54:43.001Z</time></trkpt><trkpt lat="45.87294098182949" lon="9.06703574510632"><ele>1311.0</ele><time>2026-04-25T08:54:45.001Z</time></trkpt><trkpt lat="45.87300949435907" lon="9.067113540994427"><ele>1315.0</ele><time>2026-04-25T08:54:47.001Z</time></trkpt><trkpt lat="45.873070164432605" lon="9.067205894493805"><ele>1315.0</ele><time>2026-04-25T08:54:50.001Z</time></trkpt><trkpt lat="45.87311729049696" lon="9.067314724434581"><ele>1315.0</ele><time>2026-04-25T08:54:52.001Z</time></trkpt><trkpt lat="45.8732021179222" lon="9.067437330296057"><ele>1315.0</ele><time>2026-04-25T08:54:54.001Z</time></trkpt><trkpt lat="45.8732825828167" lon="9.06755674548721"><ele>1315.0</ele><time>2026-04-25T08:54:56.001Z</time></trkpt><trkpt lat="45.87336532543822" lon="9.067683365178416"><ele>1315.0</ele><time>2026-04-25T08:54:58.001Z</time></trkpt><trkpt lat="45.87341326872159" lon="9.067807430363644"><ele>1311.8333333333333</ele><time>2026-04-25T08:55:00.001Z</time></trkpt><trkpt lat="45.873450824310886" lon="9.0679364174852"><ele>1308.6666666666665</ele><time>2026-04-25T08:55:02.001Z</time></trkpt><trkpt lat="45.873483771354174" lon="9.068069407162985"><ele>1305.5</ele><time>2026-04-25T08:55:04.001Z</time></trkpt><trkpt lat="45.873512854389546" lon="9.068188274510774"><ele>1302.3333333333333</ele><time>2026-04-25T08:55:06.001Z</time></trkpt><trkpt lat="45.8735387197341" lon="9.068271718842293"><ele>1299.1666666666667</ele><time>2026-04-25T08:55:08.001Z</time></trkpt><trkpt lat="45.8735844961894" lon="9.068370063962668"><ele>1296.0</ele><time>2026-04-25T08:55:13.001Z</time></trkpt><trkpt lat="45.87362669339293" lon="9.068455299985056"><ele>1293.6666666666667</ele><time>2026-04-25T08:55:20Z</time></trkpt><trkpt lat="45.87367104130787" lon="9.068555036165286"><ele>1291.3333333333333</ele><time>2026-04-25T08:55:29Z</time></trkpt><trkpt lat="45.87373301454702" lon="9.068667828510629"><ele>1289.0</ele><time>2026-04-25T08:55:31Z</time></trkpt><trkpt lat="45.87378464770409" lon="9.068765398254348"><ele>1286.6666666666665</ele><time>2026-04-25T08:55:33Z</time></trkpt><trkpt lat="45.87384833484356" lon="9.068835567364223"><ele>1284.3333333333333</ele><time>2026-04-25T08:55:39Z</time></trkpt><trkpt lat="45.873911157214486" lon="9.068777323402665"><ele>1282.0</ele><time>2026-04-25T08:55:50Z</time></trkpt><trkpt lat="45.87382062034009" lon="9.068816670108294"><ele>1282.0</ele><time>2026-04-25T08:56:48.001Z</time></trkpt><trkpt lat="45.87377874043102" lon="9.06871834624792"><ele>1282.0</ele><time>2026-04-25T08:57:00.001Z</time></trkpt><trkpt lat="45.87374478116223" lon="9.068607381659369"><ele>1282.0</ele><time>2026-04-25T08:57:03.001Z</time></trkpt><trkpt lat="45.87370947517779" lon="9.068506699430682"><ele>1282.0</ele><time>2026-04-25T08:57:05.001Z</time></trkpt><trkpt lat="45.87366638929144" lon="9.068359756289931"><ele>1282.0</ele><time>2026-04-25T08:57:06.001Z</time></trkpt><trkpt lat="45.87365201215621" lon="9.068260200275995"><ele>1282.0</ele><time>2026-04-25T08:57:07.001Z</time></trkpt><trkpt lat="45.8736387497371" lon="9.068169091345554"><ele>1284.3333333333333</ele><time>2026-04-25T08:57:08.001Z</time></trkpt><trkpt lat="45.873624960074174" lon="9.068053451606897"><ele>1286.6666666666665</ele><time>2026-04-25T08:57:09.001Z</time></trkpt><trkpt lat="45.87361468238615" lon="9.067926124205611"><ele>1289.0</ele><time>2026-04-25T08:57:10.001Z</time></trkpt><trkpt lat="45.873596786619224" lon="9.067802312191487"><ele>1291.3333333333333</ele><time>2026-04-25T08:57:11.001Z</time></trkpt><trkpt lat="45.8735778657626" lon="9.067677421272329"><ele>1293.6666666666667</ele><time>2026-04-25T08:57:12.001Z</time></trkpt><trkpt lat="45.87354862926295" lon="9.067555506094351"><ele>1296.0</ele><time>2026-04-25T08:57:13.001Z</time></trkpt><trkpt lat="45.87349666798023" lon="9.06743179839487"><ele>1298.4</ele><time>2026-04-25T08:57:14.001Z</time></trkpt><trkpt lat="45.87344556356082" lon="9.067312917306653"><ele>1300.8</ele><time>2026-04-25T08:57:15.001Z</time></trkpt><trkpt lat="45.87339253265267" lon="9.067185602725013"><ele>1303.2</ele><time>2026-04-25T08:57:16.001Z</time></trkpt><trkpt lat="45.87334432242239" lon="9.067065971921176"><ele>1305.6000000000001</ele><time>2026-04-25T08:57:17.001Z</time></trkpt><trkpt lat="45.87328975600892" lon="9.066953443445545"><ele>1308.0</ele><time>2026-04-25T08:57:18.001Z</time></trkpt><trkpt lat="45.87323993507197" lon="9.066850000997173"><ele>1307.5</ele><time>2026-04-25T08:57:19.001Z</time></trkpt><trkpt lat="45.87319650512733" lon="9.066748211008514"><ele>1307.0</ele><time>2026-04-25T08:57:20.001Z</time></trkpt><trkpt lat="45.873148831853655" lon="9.066648490573877"><ele>1306.5</ele><time>2026-04-25T08:57:21.001Z</time></trkpt><trkpt lat="45.87311757930763" lon="9.06656226783182"><ele>1306.0</ele><time>2026-04-25T08:57:22Z</time></trkpt><trkpt lat="45.87308687004534" lon="9.066477812983297"><ele>1305.5</ele><time>2026-04-25T08:57:23Z</time></trkpt><trkpt lat="45.87303904238812" lon="9.06633834217085"><ele>1305.0</ele><time>2026-04-25T08:57:25Z</time></trkpt><trkpt lat="45.872987017344194" lon="9.066205931259987"><ele>1305.0</ele><time>2026-04-25T08:57:27Z</time></trkpt><trkpt lat="45.87293876750005" lon="9.06608469538772"><ele>1305.0</ele><time>2026-04-25T08:57:29Z</time></trkpt><trkpt lat="45.87290412459703" lon="9.065975791357056"><ele>1305.0</ele><time>2026-04-25T08:57:31Z</time></trkpt><trkpt lat="45.8728434979497" lon="9.065884433912675"><ele>1305.0</ele><time>2026-04-25T08:57:34Z</time></trkpt><trkpt lat="45.87286017970291" lon="9.065793903977257"><ele>1305.0</ele><time>2026-04-25T09:02:14Z</time></trkpt><trkpt lat="45.87290094788518" lon="9.06587365748857"><ele>1305.0</ele><time>2026-04-25T09:02:19Z</time></trkpt><trkpt lat="45.87291451256187" lon="9.065981121360462"><ele>1305.0</ele><time>2026-04-25T09:02:22Z</time></trkpt><trkpt lat="45.872938274657756" lon="9.066077936947474"><ele>1305.0</ele><time>2026-04-25T09:02:26Z</time></trkpt><trkpt lat="45.87297985536226" lon="9.066162556420107"><ele>1305.0</ele><time>2026-04-25T09:02:29Z</time></trkpt><trkpt lat="45.873034570678335" lon="9.06630497041575"><ele>1305.0</ele><time>2026-04-25T09:02:31Z</time></trkpt><trkpt lat="45.873060875996735" lon="9.066388155693984"><ele>1305.0</ele><time>2026-04-25T09:02:32Z</time></trkpt><trkpt lat="45.87309885447577" lon="9.066480364379128"><ele>1305.0</ele><time>2026-04-25T09:02:33Z</time></trkpt><trkpt lat="45.87314452039895" lon="9.066583682510295"><ele>1307.5</ele><time>2026-04-25T09:02:34Z</time></trkpt><trkpt lat="45.87323994934316" lon="9.066775658512585"><ele>1310.0</ele><time>2026-04-25T09:02:35Z</time></trkpt><trkpt lat="45.87327428518897" lon="9.066912205307815"><ele>1312.5</ele><time>2026-04-25T09:02:36Z</time></trkpt><trkpt lat="45.873328991423186" lon="9.067034562046787"><ele>1315.0</ele><time>2026-04-25T09:02:37Z</time></trkpt><trkpt lat="45.87337963112285" lon="9.067147823477862"><ele>1315.0</ele><time>2026-04-25T09:02:38Z</time></trkpt><trkpt lat="45.87342659287654" lon="9.06725143939439"><ele>1315.0</ele><time>2026-04-25T09:02:39Z</time></trkpt><trkpt lat="45.87348488507164" lon="9.067336169264465"><ele>1315.0</ele><time>2026-04-25T09:02:40Z</time></trkpt><trkpt lat="45.87351299870942" lon="9.067447659286437"><ele>1315.0</ele><time>2026-04-25T09:02:41Z</time></trkpt><trkpt lat="45.873554760940756" lon="9.067563778819624"><ele>1315.0</ele><time>2026-04-25T09:02:42Z</time></trkpt><trkpt lat="45.873600305798774" lon="9.06766778556979"><ele>1315.0</ele><time>2026-04-25T09:02:43Z</time></trkpt><trkpt lat="45.87361656436602" lon="9.067756016850328"><ele>1311.8333333333333</ele><time>2026-04-25T09:02:44Z</time></trkpt><trkpt lat="45.87362873932302" lon="9.067919151250798"><ele>1308.6666666666665</ele><time>2026-04-25T09:02:46Z</time></trkpt><trkpt lat="45.873645761196784" lon="9.06801900229358"><ele>1305.5</ele><time>2026-04-25T09:02:47Z</time></trkpt><trkpt lat="45.87365586059603" lon="9.068137120592587"><ele>1302.3333333333333</ele><time>2026-04-25T09:02:48Z</time></trkpt><trkpt lat="45.87367692662435" lon="9.06826001722935"><ele>1299.1666666666667</ele><time>2026-04-25T09:02:49Z</time></trkpt><trkpt lat="45.87370053828027" lon="9.068372891416741"><ele>1296.0</ele><time>2026-04-25T09:02:50Z</time></trkpt><trkpt lat="45.87373667512221" lon="9.068475032319563"><ele>1293.6666666666667</ele><time>2026-04-25T09:02:51Z</time></trkpt><trkpt lat="45.873764368028965" lon="9.068571513550125"><ele>1291.3333333333333</ele><time>2026-04-25T09:02:52Z</time></trkpt><trkpt lat="45.87381532759091" lon="9.068646503029248"><ele>1289.0</ele><time>2026-04-25T09:02:53Z</time></trkpt><trkpt lat="45.87389207139379" lon="9.06872167006174"><ele>1286.6666666666665</ele><time>2026-04-25T09:02:55Z</time></trkpt><trkpt lat="45.873878647066284" lon="9.068813465217868"><ele>1284.3333333333333</ele><time>2026-04-25T09:02:57Z</time></trkpt><trkpt lat="45.87381251573358" lon="9.068762625904274"><ele>1282.0</ele><time>2026-04-25T09:03:00Z</time></trkpt><trkpt lat="45.87375246286843" lon="9.068690131693902"><ele>1282.0</ele><time>2026-04-25T09:03:01Z</time></trkpt><trkpt lat="45.87371625634028" lon="9.068583254607118"><ele>1282.0</ele><time>2026-04-25T09:03:02Z</time></trkpt><trkpt lat="45.873658882361084" lon="9.068490416960417"><ele>1282.0</ele><time>2026-04-25T09:03:03Z</time></trkpt><trkpt lat="45.87360443382454" lon="9.068390527249049"><ele>1282.0</ele><time>2026-04-25T09:03:04Z</time></trkpt><trkpt lat="45.87356087901151" lon="9.068283699568724"><ele>1282.0</ele><time>2026-04-25T09:03:05Z</time></trkpt><trkpt lat="45.87352584362097" lon="9.06816470683391"><ele>1282.0</ele><time>2026-04-25T09:03:06Z</time></trkpt><trkpt lat="45.87351334337567" lon="9.068031403826366"><ele>1284.3333333333333</ele><time>2026-04-25T09:03:07Z</time></trkpt><trkpt lat="45.873473392101005" lon="9.067904426126505"><ele>1286.6666666666665</ele><time>2026-04-25T09:03:08.001Z</time></trkpt><trkpt lat="45.87344172557595" lon="9.067791064731734"><ele>1289.0</ele><time>2026-04-25T09:03:09.001Z</time></trkpt><trkpt lat="45.873405532140964" lon="9.067687186869138"><ele>1291.3333333333333</ele><time>2026-04-25T09:03:10.001Z</time></trkpt><trkpt lat="45.87335225035688" lon="9.067584161466876"><ele>1293.6666666666667</ele><time>2026-04-25T09:03:11.001Z</time></trkpt><trkpt lat="45.87329482898465" lon="9.067501945197808"><ele>1296.0</ele><time>2026-04-25T09:03:12.001Z</time></trkpt><trkpt lat="45.87323762929961" lon="9.067411462810353"><ele>1299.8</ele><time>2026-04-25T09:03:13.001Z</time></trkpt><trkpt lat="45.87318123603349" lon="9.067302020376786"><ele>1303.6</ele><time>2026-04-25T09:03:14.001Z</time></trkpt><trkpt lat="45.87311227800394" lon="9.067192896564826"><ele>1307.4</ele><time>2026-04-25T09:03:15.001Z</time></trkpt><trkpt lat="45.87302857203678" lon="9.067101501458987"><ele>1311.2</ele><time>2026-04-25T09:03:16.001Z</time></trkpt><trkpt lat="45.87294021848291" lon="9.0669961106746"><ele>1315.0</ele><time>2026-04-25T09:03:17.001Z</time></trkpt><trkpt lat="45.87286127201052" lon="9.066888187854325"><ele>1315.0</ele><time>2026-04-25T09:03:18.001Z</time></trkpt><trkpt lat="45.87277890046876" lon="9.066788491379661"><ele>1315.0</ele><time>2026-04-25T09:03:19.001Z</time></trkpt><trkpt lat="45.87269206556655" lon="9.066683339632588"><ele>1315.0</ele><time>2026-04-25T09:03:20.001Z</time></trkpt><trkpt lat="45.87261879619016" lon="9.066600376193952"><ele>1315.0</ele><time>2026-04-25T09:03:21.001Z</time></trkpt><trkpt lat="45.87254853927137" lon="9.06653247559951"><ele>1315.0</ele><time>2026-04-25T09:03:22.001Z</time></trkpt><trkpt lat="45.872476119559856" lon="9.066438921825814"><ele>1311.0</ele><time>2026-04-25T09:03:23.001Z</time></trkpt><trkpt lat="45.87239607699371" lon="9.06638939136247"><ele>1307.0</ele><time>2026-04-25T09:03:24.001Z</time></trkpt><trkpt lat="45.8723360854179" lon="9.066339949114841"><ele>1303.0</ele><time>2026-04-25T09:03:25.001Z</time></trkpt><trkpt lat="45.87225623318126" lon="9.066285529434854"><ele>1299.0</ele><time>2026-04-25T09:03:26.001Z</time></trkpt><trkpt lat="45.87214568599061" lon="9.066210051065498"><ele>1295.0</ele><time>2026-04-25T09:03:27.001Z</time></trkpt><trkpt lat="45.87204292957627" lon="9.066152514525223"><ele>1295.0</ele><time>2026-04-25T09:03:28.001Z</time></trkpt><trkpt lat="45.87196993097176" lon="9.066109393555429"><ele>1295.0</ele><time>2026-04-25T09:03:29.001Z</time></trkpt><trkpt lat="45.87189030312923" lon="9.06607251167212"><ele>1295.0</ele><time>2026-04-25T09:03:30.001Z</time></trkpt><trkpt lat="45.871818656099386" lon="9.066041457553638"><ele>1295.0</ele><time>2026-04-25T09:03:31.001Z</time></trkpt><trkpt lat="45.87174933712879" lon="9.066002740943869"><ele>1295.0</ele><time>2026-04-25T09:03:32.001Z</time></trkpt><trkpt lat="45.871689542803225" lon="9.065949277368539"><ele>1295.0</ele><time>2026-04-25T09:03:33.001Z</time></trkpt><trkpt lat="45.871640423353185" lon="9.065889662297787"><ele>1295.0</ele><time>2026-04-25T09:03:34.001Z</time></trkpt><trkpt lat="45.87155579572905" lon="9.065834942453963"><ele>1295.0</ele><time>2026-04-25T09:03:36.001Z</time></trkpt><trkpt lat="45.87148056172129" lon="9.065904611238233"><ele>1295.0</ele><time>2026-04-25T09:03:38.001Z</time></trkpt><trkpt lat="45.87158517297141" lon="9.066036860053774"><ele>1295.0</ele><time>2026-04-25T09:03:40Z</time></trkpt><trkpt lat="45.871659042878996" lon="9.066080162418748"><ele>1295.0</ele><time>2026-04-25T09:03:41Z</time></trkpt><trkpt lat="45.87174068075252" lon="9.06616526184747"><ele>1295.0</ele><time>2026-04-25T09:03:42Z</time></trkpt><trkpt lat="45.87183696794855" lon="9.066240758270398"><ele>1295.0</ele><time>2026-04-25T09:03:43Z</time></trkpt><trkpt lat="45.8719458520575" lon="9.066304454674773"><ele>1295.0</ele><time>2026-04-25T09:03:44Z</time></trkpt><trkpt lat="45.872053044862554" lon="9.06640575883837"><ele>1295.0</ele><time>2026-04-25T09:03:45Z</time></trkpt><trkpt lat="45.872162053251195" lon="9.066524270492815"><ele>1295.0</ele><time>2026-04-25T09:03:46Z</time></trkpt><trkpt lat="45.872263164001254" lon="9.06664525180683"><ele>1293.0</ele><time>2026-04-25T09:03:47Z</time></trkpt><trkpt lat="45.87236280836776" lon="9.066779110780994"><ele>1291.0</ele><time>2026-04-25T09:03:48Z</time></trkpt><trkpt lat="45.8724460863161" lon="9.066938432319036"><ele>1289.0</ele><time>2026-04-25T09:03:49Z</time></trkpt><trkpt lat="45.87253446477248" lon="9.06709061527209"><ele>1287.0</ele><time>2026-04-25T09:03:50Z</time></trkpt><trkpt lat="45.87261182746736" lon="9.067226937581408"><ele>1290.5</ele><time>2026-04-25T09:03:51Z</time></trkpt><trkpt lat="45.87270697155612" lon="9.067394008921307"><ele>1294.0</ele><time>2026-04-25T09:03:52Z</time></trkpt><trkpt lat="45.87279114844402" lon="9.067546657457584"><ele>1297.5</ele><time>2026-04-25T09:03:53Z</time></trkpt><trkpt lat="45.87287325830448" lon="9.067714714823197"><ele>1301.0</ele><time>2026-04-25T09:03:54Z</time></trkpt><trkpt lat="45.872933080187124" lon="9.06784852027163"><ele>1301.0</ele><time>2026-04-25T09:03:55Z</time></trkpt><trkpt lat="45.87297432388572" lon="9.067946070148853"><ele>1301.0</ele><time>2026-04-25T09:03:56Z</time></trkpt><trkpt lat="45.87300863106092" lon="9.068081273803573"><ele>1301.0</ele><time>2026-04-25T09:03:57Z</time></trkpt><trkpt lat="45.873006382589274" lon="9.068245261008057"><ele>1301.0</ele><time>2026-04-25T09:04:00Z</time></trkpt><trkpt lat="45.87299723285316" lon="9.068337419303546"><ele>1301.0</ele><time>2026-04-25T09:04:01Z</time></trkpt><trkpt lat="45.8729856588821" lon="9.068484542368301"><ele>1298.0</ele><time>2026-04-25T09:04:02Z</time></trkpt><trkpt lat="45.87297447439506" lon="9.068643269093464"><ele>1295.0</ele><time>2026-04-25T09:04:03Z</time></trkpt><trkpt lat="45.872981272416276" lon="9.068785741456583"><ele>1292.0</ele><time>2026-04-25T09:04:04Z</time></trkpt><trkpt lat="45.873018181933524" lon="9.068908356667762"><ele>1289.0</ele><time>2026-04-25T09:04:05Z</time></trkpt><trkpt lat="45.87306396441597" lon="9.06900973882837"><ele>1286.0</ele><time>2026-04-25T09:04:06Z</time></trkpt><trkpt lat="45.873121604220295" lon="9.069084587086827"><ele>1282.75</ele><time>2026-04-25T09:04:07Z</time></trkpt><trkpt lat="45.87316090825044" lon="9.069177933383736"><ele>1279.5</ele><time>2026-04-25T09:04:08Z</time></trkpt><trkpt lat="45.87321390936209" lon="9.069466205020813"><ele>1276.25</ele><time>2026-04-25T09:04:10Z</time></trkpt><trkpt lat="45.87322677076437" lon="9.06960471529332"><ele>1273.0</ele><time>2026-04-25T09:04:11Z</time></trkpt><trkpt lat="45.87324732627664" lon="9.06976027238192"><ele>1273.0</ele><time>2026-04-25T09:04:12Z</time></trkpt><trkpt lat="45.873272197922695" lon="9.069898109588818"><ele>1273.0</ele><time>2026-04-25T09:04:13Z</time></trkpt><trkpt lat="45.87331028835239" lon="9.070057916779348"><ele>1273.0</ele><time>2026-04-25T09:04:14Z</time></trkpt><trkpt lat="45.873346396710964" lon="9.070166488844148"><ele>1273.0</ele><time>2026-04-25T09:04:15Z</time></trkpt><trkpt lat="45.87340930299116" lon="9.070263227233893"><ele>1273.0</ele><time>2026-04-25T09:04:16Z</time></trkpt><trkpt lat="45.87344089430373" lon="9.070377843511498"><ele>1272.5</ele><time>2026-04-25T09:04:17Z</time></trkpt><trkpt lat="45.87351257721013" lon="9.07048313256632"><ele>1272.0</ele><time>2026-04-25T09:04:18Z</time></trkpt><trkpt lat="45.873622434169214" lon="9.070578800708686"><ele>1271.5</ele><time>2026-04-25T09:04:19Z</time></trkpt><trkpt lat="45.87372437879587" lon="9.07071951681981"><ele>1271.0</ele><time>2026-04-25T09:04:20Z</time></trkpt><trkpt lat="45.87381651201094" lon="9.070829138951728"><ele>1266.75</ele><time>2026-04-25T09:04:21Z</time></trkpt><trkpt lat="45.87390714094147" lon="9.070943998767698"><ele>1262.5</ele><time>2026-04-25T09:04:22Z</time></trkpt><trkpt lat="45.87399364380547" lon="9.071064748185535"><ele>1258.25</ele><time>2026-04-25T09:04:23Z</time></trkpt><trkpt lat="45.87406453530279" lon="9.071160243732445"><ele>1254.0</ele><time>2026-04-25T09:04:24Z</time></trkpt><trkpt lat="45.87415296525412" lon="9.071263852010182"><ele>1254.0</ele><time>2026-04-25T09:04:25Z</time></trkpt><trkpt lat="45.87423141663983" lon="9.07137379858838"><ele>1254.0</ele><time>2026-04-25T09:04:26Z</time></trkpt><trkpt lat="45.87428114427156" lon="9.071470350894865"><ele>1254.0</ele><time>2026-04-25T09:04:27Z</time></trkpt><trkpt lat="45.874302337413596" lon="9.071560637583485"><ele>1254.0</ele><time>2026-04-25T09:04:28Z</time></trkpt><trkpt lat="45.874310496536935" lon="9.071655558730424"><ele>1254.0</ele><time>2026-04-25T09:04:29Z</time></trkpt><trkpt lat="45.87427732549556" lon="9.071740330687065"><ele>1254.0</ele><time>2026-04-25T09:04:30.001Z</time></trkpt><trkpt lat="45.8742565147268" lon="9.071848131917658"><ele>1249.75</ele><time>2026-04-25T09:04:31.001Z</time></trkpt><trkpt lat="45.87423396593578" lon="9.072016854068353"><ele>1245.5</ele><time>2026-04-25T09:04:32.001Z</time></trkpt><trkpt lat="45.87421514592179" lon="9.07218422467645"><ele>1241.25</ele><time>2026-04-25T09:04:33.001Z</time></trkpt><trkpt lat="45.87420249839942" lon="9.072356362546637"><ele>1237.0</ele><time>2026-04-25T09:04:34.001Z</time></trkpt><trkpt lat="45.87417809266783" lon="9.072553279714503"><ele>1235.4</ele><time>2026-04-25T09:04:35.001Z</time></trkpt><trkpt lat="45.874180695785725" lon="9.072737520011936"><ele>1233.8000000000002</ele><time>2026-04-25T09:04:36.001Z</time></trkpt><trkpt lat="45.87417268366089" lon="9.072911028949454"><ele>1232.2</ele><time>2026-04-25T09:04:37.001Z</time></trkpt><trkpt lat="45.87417212411383" lon="9.073071793310213"><ele>1230.6000000000001</ele><time>2026-04-25T09:04:38.001Z</time></trkpt><trkpt lat="45.87414639529136" lon="9.073175639774627"><ele>1229.0</ele><time>2026-04-25T09:04:39.001Z</time></trkpt><trkpt lat="45.87411849249272" lon="9.073338816505236"><ele>1228.3333333333335</ele><time>2026-04-25T09:04:40.001Z</time></trkpt><trkpt lat="45.87411598263983" lon="9.073476374990454"><ele>1227.6666666666667</ele><time>2026-04-25T09:04:41.001Z</time></trkpt><trkpt lat="45.874089538584585" lon="9.073604024016829"><ele>1227.0</ele><time>2026-04-25T09:04:42.001Z</time></trkpt><trkpt lat="45.874085906968524" lon="9.073730305788379"><ele>1226.3333333333333</ele><time>2026-04-25T09:04:43.001Z</time></trkpt><trkpt lat="45.8740807619717" lon="9.073851265128042"><ele>1225.6666666666665</ele><time>2026-04-25T09:04:44.001Z</time></trkpt><trkpt lat="45.874085369371464" lon="9.073947021268935"><ele>1225.0</ele><time>2026-04-25T09:04:45.001Z</time></trkpt><trkpt lat="45.87408087060503" lon="9.07407893793684"><ele>1225.0</ele><time>2026-04-25T09:04:47.001Z</time></trkpt><trkpt lat="45.87402187384731" lon="9.07382195148255"><ele>1225.0</ele><time>2026-04-25T09:04:54.001Z</time></trkpt><trkpt lat="45.87401977739216" lon="9.073671677357007"><ele>1225.0</ele><time>2026-04-25T09:04:56.001Z</time></trkpt><trkpt lat="45.874023775097555" lon="9.073542806099882"><ele>1225.0</ele><time>2026-04-25T09:04:57.001Z</time></trkpt><trkpt lat="45.874034425301545" lon="9.073408601816855"><ele>1225.0</ele><time>2026-04-25T09:04:58.001Z</time></trkpt><trkpt lat="45.87401295893417" lon="9.073282654516234"><ele>1225.0</ele><time>2026-04-25T09:04:59.001Z</time></trkpt><trkpt lat="45.87400777000751" lon="9.073163366069522"><ele>1225.0</ele><time>2026-04-25T09:05:00.001Z</time></trkpt><trkpt lat="45.873999946317696" lon="9.07307117168655"><ele>1225.0</ele><time>2026-04-25T09:05:01.001Z</time></trkpt><trkpt lat="45.87398895453842" lon="9.072980398247827"><ele>1225.0</ele><time>2026-04-25T09:05:02.001Z</time></trkpt><trkpt lat="45.87397033921888" lon="9.072875624639249"><ele>1225.0</ele><time>2026-04-25T09:05:04.001Z</time></trkpt><trkpt lat="45.873959733599804" lon="9.072772190017853"><ele>1225.6666666666665</ele><time>2026-04-25T09:07:46.001Z</time></trkpt><trkpt lat="45.873975404228744" lon="9.072626222356108"><ele>1226.3333333333333</ele><time>2026-04-25T09:07:49.001Z</time></trkpt><trkpt lat="45.873964816727224" lon="9.072534275517285"><ele>1227.0</ele><time>2026-04-25T09:07:50.001Z</time></trkpt><trkpt lat="45.87395048074166" lon="9.072440727672605"><ele>1227.6666666666667</ele><time>2026-04-25T09:07:51.001Z</time></trkpt><trkpt lat="45.87393093665318" lon="9.072348113917709"><ele>1228.3333333333335</ele><time>2026-04-25T09:07:52.001Z</time></trkpt><trkpt lat="45.87390520184252" lon="9.072219698031782"><ele>1229.0</ele><time>2026-04-25T09:07:53.001Z</time></trkpt><trkpt lat="45.87389070049941" lon="9.072087856453889"><ele>1230.3333333333335</ele><time>2026-04-25T09:07:54.001Z</time></trkpt><trkpt lat="45.873861391007644" lon="9.071955326659218"><ele>1231.6666666666667</ele><time>2026-04-25T09:07:55.001Z</time></trkpt><trkpt lat="45.873839730855465" lon="9.071834584472848"><ele>1233.0</ele><time>2026-04-25T09:07:56.001Z</time></trkpt><trkpt lat="45.87379063111209" lon="9.071730376344668"><ele>1234.3333333333333</ele><time>2026-04-25T09:07:57.001Z</time></trkpt><trkpt lat="45.87372924101732" lon="9.071644399365843"><ele>1235.6666666666665</ele><time>2026-04-25T09:07:58.001Z</time></trkpt><trkpt lat="45.8736657427562" lon="9.071568472910258"><ele>1237.0</ele><time>2026-04-25T09:07:59.001Z</time></trkpt><trkpt lat="45.87359238855166" lon="9.07148542447972"><ele>1235.6</ele><time>2026-04-25T09:08:00.001Z</time></trkpt><trkpt lat="45.87351645930138" lon="9.071405583398205"><ele>1234.2</ele><time>2026-04-25T09:08:01.001Z</time></trkpt><trkpt lat="45.87342593326841" lon="9.07132418565844"><ele>1232.8</ele><time>2026-04-25T09:08:02.001Z</time></trkpt><trkpt lat="45.87333975132544" lon="9.071267751310513"><ele>1231.4</ele><time>2026-04-25T09:08:03.001Z</time></trkpt><trkpt lat="45.873254071288585" lon="9.071205160928146"><ele>1230.0</ele><time>2026-04-25T09:08:04.001Z</time></trkpt><trkpt lat="45.87317590195087" lon="9.07114603313819"><ele>1230.0</ele><time>2026-04-25T09:08:05.001Z</time></trkpt><trkpt lat="45.87309270640186" lon="9.071090347557881"><ele>1230.0</ele><time>2026-04-25T09:08:06.001Z</time></trkpt><trkpt lat="45.87302214446374" lon="9.071032918196945"><ele>1230.0</ele><time>2026-04-25T09:08:07.001Z</time></trkpt><trkpt lat="45.872960451518374" lon="9.070985331776694"><ele>1230.0</ele><time>2026-04-25T09:08:08.001Z</time></trkpt><trkpt lat="45.87290023986784" lon="9.070927258876129"><ele>1230.0</ele><time>2026-04-25T09:08:09.001Z</time></trkpt><trkpt lat="45.87284175782679" lon="9.070845893524941"><ele>1230.0</ele><time>2026-04-25T09:08:10.001Z</time></trkpt><trkpt lat="45.87279041232269" lon="9.070738546138918"><ele>1234.2</ele><time>2026-04-25T09:08:11.001Z</time></trkpt><trkpt lat="45.872743445013135" lon="9.070617741639378"><ele>1238.4</ele><time>2026-04-25T09:08:12.001Z</time></trkpt><trkpt lat="45.87270505566842" lon="9.070487732384446"><ele>1242.6</ele><time>2026-04-25T09:08:13.001Z</time></trkpt><trkpt lat="45.87267107290327" lon="9.070348813188135"><ele>1246.8</ele><time>2026-04-25T09:08:14.001Z</time></trkpt><trkpt lat="45.87264365437847" lon="9.07021327786526"><ele>1251.0</ele><time>2026-04-25T09:08:15.001Z</time></trkpt><trkpt lat="45.87262208611091" lon="9.070080633839542"><ele>1246.3333333333333</ele><time>2026-04-25T09:08:16.001Z</time></trkpt><trkpt lat="45.872599892790866" lon="9.069957517774236"><ele>1241.6666666666667</ele><time>2026-04-25T09:08:17.001Z</time></trkpt><trkpt lat="45.87257103601166" lon="9.069851506605023"><ele>1237.0</ele><time>2026-04-25T09:08:18.001Z</time></trkpt><trkpt lat="45.8725349745656" lon="9.069762721848482"><ele>1232.3333333333335</ele><time>2026-04-25T09:08:19.001Z</time></trkpt><trkpt lat="45.87248627348272" lon="9.069685806464292"><ele>1227.6666666666667</ele><time>2026-04-25T09:08:20.001Z</time></trkpt><trkpt lat="45.8724115723644" lon="9.069638778148231"><ele>1223.0</ele><time>2026-04-25T09:08:21.001Z</time></trkpt><trkpt lat="45.872330565646294" lon="9.069573315730997"><ele>1223.0</ele><time>2026-04-25T09:08:22.001Z</time></trkpt><trkpt lat="45.87224802708507" lon="9.069512997317458"><ele>1223.0</ele><time>2026-04-25T09:08:23.001Z</time></trkpt><trkpt lat="45.87218465665584" lon="9.069452121426998"><ele>1223.0</ele><time>2026-04-25T09:08:24.001Z</time></trkpt><trkpt lat="45.87212815333432" lon="9.069395500136217"><ele>1223.0</ele><time>2026-04-25T09:08:25.001Z</time></trkpt><trkpt lat="45.872069564428394" lon="9.069245562932831"><ele>1223.0</ele><time>2026-04-25T09:08:27.001Z</time></trkpt><trkpt lat="45.87206139858971" lon="9.069140258466257"><ele>1223.0</ele><time>2026-04-25T09:08:28.001Z</time></trkpt><trkpt lat="45.872061967201155" lon="9.069007935295144"><ele>1224.6666666666667</ele><time>2026-04-25T09:08:29.001Z</time></trkpt><trkpt lat="45.87205610016775" lon="9.068857377346054"><ele>1226.3333333333335</ele><time>2026-04-25T09:08:30.001Z</time></trkpt><trkpt lat="45.87206976853398" lon="9.068705246114586"><ele>1228.0</ele><time>2026-04-25T09:08:31.001Z</time></trkpt><trkpt lat="45.872063031432496" lon="9.068587136513248"><ele>1229.6666666666667</ele><time>2026-04-25T09:08:32.001Z</time></trkpt><trkpt lat="45.87202627073484" lon="9.068501743853574"><ele>1231.3333333333333</ele><time>2026-04-25T09:08:33.001Z</time></trkpt><trkpt lat="45.871982689393015" lon="9.068419822578655"><ele>1233.0</ele><time>2026-04-25T09:08:34.001Z</time></trkpt><trkpt lat="45.871902597099314" lon="9.0683497725946"><ele>1230.2</ele><time>2026-04-25T09:08:35.001Z</time></trkpt><trkpt lat="45.871826550383666" lon="9.068267421478602"><ele>1227.4</ele><time>2026-04-25T09:08:36.001Z</time></trkpt><trkpt lat="45.871746672955986" lon="9.06816721218035"><ele>1224.6000000000001</ele><time>2026-04-25T09:08:37.001Z</time></trkpt><trkpt lat="45.87167046516947" lon="9.068094128333465"><ele>1221.8</ele><time>2026-04-25T09:08:38.001Z</time></trkpt><trkpt lat="45.87160374894523" lon="9.068027520042309"><ele>1219.0</ele><time>2026-04-25T09:08:39.001Z</time></trkpt><trkpt lat="45.871517958953255" lon="9.067984776588553"><ele>1219.0</ele><time>2026-04-25T09:08:40.001Z</time></trkpt><trkpt lat="45.87143085953061" lon="9.06798369384082"><ele>1219.0</ele><time>2026-04-25T09:08:41.001Z</time></trkpt><trkpt lat="45.87133450791223" lon="9.067969644698087"><ele>1219.0</ele><time>2026-04-25T09:08:42.001Z</time></trkpt><trkpt lat="45.87124912180718" lon="9.067924072174405"><ele>1219.0</ele><time>2026-04-25T09:08:43.001Z</time></trkpt><trkpt lat="45.871147078639986" lon="9.067957154683786"><ele>1219.0</ele><time>2026-04-25T09:08:44.001Z</time></trkpt><trkpt lat="45.87106219284319" lon="9.06797113401122"><ele>1219.0</ele><time>2026-04-25T09:08:45.001Z</time></trkpt><trkpt lat="45.87094232056496" lon="9.068000053413302"><ele>1219.0</ele><time>2026-04-25T09:08:46.001Z</time></trkpt><trkpt lat="45.87083530841236" lon="9.06799914160259"><ele>1219.0</ele><time>2026-04-25T09:08:47.001Z</time></trkpt><trkpt lat="45.870716583330285" lon="9.068024954565187"><ele>1219.0</ele><time>2026-04-25T09:08:48.001Z</time></trkpt><trkpt lat="45.87061305880378" lon="9.068098430764907"><ele>1215.4</ele><time>2026-04-25T09:08:49.001Z</time></trkpt><trkpt lat="45.87051913895245" lon="9.068155355758146"><ele>1211.8000000000002</ele><time>2026-04-25T09:08:50.001Z</time></trkpt><trkpt lat="45.870416516546314" lon="9.068178424919251"><ele>1208.1999999999998</ele><time>2026-04-25T09:08:51.001Z</time></trkpt><trkpt lat="45.87031485972308" lon="9.068221535669966"><ele>1204.6</ele><time>2026-04-25T09:08:52.001Z</time></trkpt><trkpt lat="45.87018788936638" lon="9.068286277092273"><ele>1201.0</ele><time>2026-04-25T09:08:53.001Z</time></trkpt><trkpt lat="45.870084480133826" lon="9.068327259722652"><ele>1194.0</ele><time>2026-04-25T09:08:54.001Z</time></trkpt><trkpt lat="45.86999292374573" lon="9.068355341132937"><ele>1187.0</ele><time>2026-04-25T09:08:55.001Z</time></trkpt><trkpt lat="45.86991909581398" lon="9.068336338059199"><ele>1180.0</ele><time>2026-04-25T09:08:56.001Z</time></trkpt><trkpt lat="45.86985037579557" lon="9.068341018673625"><ele>1173.0</ele><time>2026-04-25T09:08:57.001Z</time></trkpt><trkpt lat="45.86978393991819" lon="9.068332655251105"><ele>1166.0</ele><time>2026-04-25T09:08:58.001Z</time></trkpt><trkpt lat="45.86971900453619" lon="9.068337543706411"><ele>1159.0</ele><time>2026-04-25T09:08:59.001Z</time></trkpt><trkpt lat="45.86962888903172" lon="9.068399026705526"><ele>1159.0</ele><time>2026-04-25T09:09:02.001Z</time></trkpt><trkpt lat="45.86976867355513" lon="9.068548562386443"><ele>1159.0</ele><time>2026-04-25T09:09:04.001Z</time></trkpt><trkpt lat="45.86987646411934" lon="9.068548758595178"><ele>1159.0</ele><time>2026-04-25T09:09:05.001Z</time></trkpt><trkpt lat="45.86997437425705" lon="9.068547784736065"><ele>1159.0</ele><time>2026-04-25T09:09:06.001Z</time></trkpt><trkpt lat="45.87009024030659" lon="9.068544419780627"><ele>1158.5</ele><time>2026-04-25T09:09:07.001Z</time></trkpt><trkpt lat="45.87019292809545" lon="9.068537957547374"><ele>1158.0</ele><time>2026-04-25T09:09:08.001Z</time></trkpt><trkpt lat="45.87028917972264" lon="9.068505545993123"><ele>1157.5</ele><time>2026-04-25T09:09:09.001Z</time></trkpt><trkpt lat="45.87037504462862" lon="9.06850792341624"><ele>1157.0</ele><time>2026-04-25T09:09:10.001Z</time></trkpt><trkpt lat="45.870451499959245" lon="9.06850700052299"><ele>1156.5</ele><time>2026-04-25T09:09:11.001Z</time></trkpt><trkpt lat="45.87053407315782" lon="9.06849345868294"><ele>1156.0</ele><time>2026-04-25T09:09:12.001Z</time></trkpt><trkpt lat="45.870620220586254" lon="9.068487001751258"><ele>1156.0</ele><time>2026-04-25T09:09:13.001Z</time></trkpt><trkpt lat="45.87077202541377" lon="9.068473808283187"><ele>1156.0</ele><time>2026-04-25T09:09:14.001Z</time></trkpt><trkpt lat="45.87088844057182" lon="9.068492975559035"><ele>1156.0</ele><time>2026-04-25T09:09:15.001Z</time></trkpt><trkpt lat="45.87098235927884" lon="9.06850561500488"><ele>1156.0</ele><time>2026-04-25T09:09:16.001Z</time></trkpt><trkpt lat="45.871099318176775" lon="9.068522663488372"><ele>1160.6666666666665</ele><time>2026-04-25T09:09:17.001Z</time></trkpt><trkpt lat="45.87116836167776" lon="9.068530937850976"><ele>1165.3333333333333</ele><time>2026-04-25T09:09:18.001Z</time></trkpt><trkpt lat="45.87124989426281" lon="9.068551758551253"><ele>1170.0</ele><time>2026-04-25T09:09:19.001Z</time></trkpt><trkpt lat="45.87133094221893" lon="9.068614016666169"><ele>1174.6666666666667</ele><time>2026-04-25T09:09:20.001Z</time></trkpt><trkpt lat="45.87139153102848" lon="9.068695012131181"><ele>1179.3333333333335</ele><time>2026-04-25T09:09:21.001Z</time></trkpt><trkpt lat="45.87143689804262" lon="9.068787572947574"><ele>1184.0</ele><time>2026-04-25T09:09:22.001Z</time></trkpt><trkpt lat="45.87146505227559" lon="9.068876289573426"><ele>1184.0</ele><time>2026-04-25T09:09:23.001Z</time></trkpt><trkpt lat="45.871463775101255" lon="9.068966790134851"><ele>1184.0</ele><time>2026-04-25T09:09:24.001Z</time></trkpt><trkpt lat="45.871416840707546" lon="9.069065677932059"><ele>1184.0</ele><time>2026-04-25T09:09:25.001Z</time></trkpt><trkpt lat="45.87140835506731" lon="9.069187762288434"><ele>1184.0</ele><time>2026-04-25T09:09:26.001Z</time></trkpt><trkpt lat="45.871400131098234" lon="9.069306018067962"><ele>1184.0</ele><time>2026-04-25T09:09:27.001Z</time></trkpt><trkpt lat="45.8713920462841" lon="9.069510731299722"><ele>1181.6666666666667</ele><time>2026-04-25T09:09:28.001Z</time></trkpt><trkpt lat="45.871422433911874" lon="9.0696731587648"><ele>1179.3333333333335</ele><time>2026-04-25T09:09:29.001Z</time></trkpt><trkpt lat="45.87142635657973" lon="9.069802243380947"><ele>1177.0</ele><time>2026-04-25T09:09:30.001Z</time></trkpt><trkpt lat="45.871447708382846" lon="9.069895394455026"><ele>1174.6666666666667</ele><time>2026-04-25T09:09:31.001Z</time></trkpt><trkpt lat="45.87148959662901" lon="9.069993108930557"><ele>1172.3333333333333</ele><time>2026-04-25T09:09:32.001Z</time></trkpt><trkpt lat="45.871563804214915" lon="9.070068478164128"><ele>1170.0</ele><time>2026-04-25T09:09:33.001Z</time></trkpt><trkpt lat="45.87164849739185" lon="9.070144101152744"><ele>1166.0</ele><time>2026-04-25T09:09:34.001Z</time></trkpt><trkpt lat="45.87172380272923" lon="9.070211426718542"><ele>1162.0</ele><time>2026-04-25T09:09:35.001Z</time></trkpt><trkpt lat="45.87178701672248" lon="9.070274436596893"><ele>1158.0</ele><time>2026-04-25T09:09:36.001Z</time></trkpt><trkpt lat="45.87183526738729" lon="9.070400073502963"><ele>1154.0</ele><time>2026-04-25T09:09:38.001Z</time></trkpt><trkpt lat="45.871840302059034" lon="9.070491334742506"><ele>1150.0</ele><time>2026-04-25T09:09:42.001Z</time></trkpt><trkpt lat="45.871843611523644" lon="9.070688705795856"><ele>1156.2</ele><time>2026-04-25T09:09:45.001Z</time></trkpt><trkpt lat="45.87184561833755" lon="9.070820717257645"><ele>1162.4</ele><time>2026-04-25T09:09:46.001Z</time></trkpt><trkpt lat="45.8718497147171" lon="9.07091179752237"><ele>1168.6</ele><time>2026-04-25T09:09:47.001Z</time></trkpt><trkpt lat="45.87185673431456" lon="9.071004895690388"><ele>1174.8</ele><time>2026-04-25T09:09:48.001Z</time></trkpt><trkpt lat="45.871855527568556" lon="9.071154319039126"><ele>1181.0</ele><time>2026-04-25T09:09:50.001Z</time></trkpt><trkpt lat="45.87184371140214" lon="9.071333157231031"><ele>1181.0</ele><time>2026-04-25T09:09:52.001Z</time></trkpt><trkpt lat="45.87181968953421" lon="9.071458798720148"><ele>1181.0</ele><time>2026-04-25T09:09:53.001Z</time></trkpt><trkpt lat="45.8718249189127" lon="9.071588654291274"><ele>1181.0</ele><time>2026-04-25T09:09:54.001Z</time></trkpt><trkpt lat="45.87180699360582" lon="9.071705122207394"><ele>1181.0</ele><time>2026-04-25T09:09:55.001Z</time></trkpt><trkpt lat="45.87181438231269" lon="9.071804802459827"><ele>1181.0</ele><time>2026-04-25T09:09:56.001Z</time></trkpt><trkpt lat="45.8718304284425" lon="9.071901424344926"><ele>1181.0</ele><time>2026-04-25T09:09:57.001Z</time></trkpt><trkpt lat="45.871869947366356" lon="9.07203068424548"><ele>1178.3333333333335</ele><time>2026-04-25T09:09:58Z</time></trkpt><trkpt lat="45.87191789370663" lon="9.072109380464964"><ele>1175.6666666666667</ele><time>2026-04-25T09:09:59Z</time></trkpt><trkpt lat="45.87198245384587" lon="9.072185947190318"><ele>1173.0</ele><time>2026-04-25T09:10:00Z</time></trkpt><trkpt lat="45.87203513200813" lon="9.072244865906486"><ele>1170.3333333333333</ele><time>2026-04-25T09:10:01Z</time></trkpt><trkpt lat="45.872120957815696" lon="9.072354065795402"><ele>1167.6666666666665</ele><time>2026-04-25T09:10:03Z</time></trkpt><trkpt lat="45.87217841190926" lon="9.072438541338117"><ele>1165.0</ele><time>2026-04-25T09:10:04Z</time></trkpt><trkpt lat="45.87228596889975" lon="9.072543674118796"><ele>1161.2</ele><time>2026-04-25T09:10:05Z</time></trkpt><trkpt lat="45.87236192502112" lon="9.07263659294991"><ele>1157.4</ele><time>2026-04-25T09:10:06Z</time></trkpt><trkpt lat="45.87244540026117" lon="9.072707441587415"><ele>1153.6</ele><time>2026-04-25T09:10:07Z</time></trkpt><trkpt lat="45.872534493033186" lon="9.072748736313146"><ele>1149.8</ele><time>2026-04-25T09:10:08Z</time></trkpt><trkpt lat="45.87256229884471" lon="9.07292242333505"><ele>1146.0</ele><time>2026-04-25T09:10:10Z</time></trkpt><trkpt lat="45.872541404215696" lon="9.073033729658862"><ele>1146.0</ele><time>2026-04-25T09:10:11Z</time></trkpt><trkpt lat="45.872520569178135" lon="9.073155157243098"><ele>1146.0</ele><time>2026-04-25T09:10:12Z</time></trkpt><trkpt lat="45.87246512536903" lon="9.073259911668304"><ele>1146.0</ele><time>2026-04-25T09:10:13Z</time></trkpt><trkpt lat="45.87241853668213" lon="9.07338750547677"><ele>1146.0</ele><time>2026-04-25T09:10:14Z</time></trkpt><trkpt lat="45.87238774888049" lon="9.073529616679918"><ele>1146.0</ele><time>2026-04-25T09:10:15Z</time></trkpt><trkpt lat="45.87235279671481" lon="9.07365902652821"><ele>1143.2</ele><time>2026-04-25T09:10:16Z</time></trkpt><trkpt lat="45.87232735165762" lon="9.073789995865141"><ele>1140.3999999999999</ele><time>2026-04-25T09:10:17Z</time></trkpt><trkpt lat="45.87230370230288" lon="9.073918417004304"><ele>1137.6</ele><time>2026-04-25T09:10:18Z</time></trkpt><trkpt lat="45.87227185750815" lon="9.074044005713798"><ele>1134.8</ele><time>2026-04-25T09:10:19Z</time></trkpt><trkpt lat="45.872256939053464" lon="9.074194251641691"><ele>1132.0</ele><time>2026-04-25T09:10:20Z</time></trkpt><trkpt lat="45.87226022432411" lon="9.07432161576493"><ele>1130.3333333333333</ele><time>2026-04-25T09:10:21Z</time></trkpt><trkpt lat="45.87226786538084" lon="9.07445879727459"><ele>1128.6666666666665</ele><time>2026-04-25T09:10:22Z</time></trkpt><trkpt lat="45.872266684580815" lon="9.074566994579115"><ele>1127.0</ele><time>2026-04-25T09:10:23Z</time></trkpt><trkpt lat="45.87224464558753" lon="9.074654662602994"><ele>1125.3333333333333</ele><time>2026-04-25T09:10:24Z</time></trkpt><trkpt lat="45.872179554466115" lon="9.07470522859739"><ele>1123.6666666666667</ele><time>2026-04-25T09:10:25Z</time></trkpt><trkpt lat="45.87211877063197" lon="9.074790250966727"><ele>1122.0</ele><time>2026-04-25T09:10:26Z</time></trkpt><trkpt lat="45.87202762034896" lon="9.074905727449574"><ele>1123.6</ele><time>2026-04-25T09:10:27Z</time></trkpt><trkpt lat="45.871939626806565" lon="9.075007894466362"><ele>1125.2</ele><time>2026-04-25T09:10:28Z</time></trkpt><trkpt lat="45.87187997992949" lon="9.07509229776396"><ele>1126.8</ele><time>2026-04-25T09:10:29Z</time></trkpt><trkpt lat="45.87180287913932" lon="9.075164292821372"><ele>1128.4</ele><time>2026-04-25T09:10:30Z</time></trkpt><trkpt lat="45.8717332774354" lon="9.075257103496012"><ele>1130.0</ele><time>2026-04-25T09:10:31Z</time></trkpt><trkpt lat="45.87166926834864" lon="9.075360165287426"><ele>1123.8</ele><time>2026-04-25T09:10:32Z</time></trkpt><trkpt lat="45.87162355153125" lon="9.075473060971039"><ele>1117.6</ele><time>2026-04-25T09:10:33Z</time></trkpt><trkpt lat="45.87157846464177" lon="9.075606468010214"><ele>1111.4</ele><time>2026-04-25T09:10:34Z</time></trkpt><trkpt lat="45.87153821610609" lon="9.075747472057367"><ele>1105.2</ele><time>2026-04-25T09:10:35Z</time></trkpt><trkpt lat="45.87150072604402" lon="9.075896186745037"><ele>1099.0</ele><time>2026-04-25T09:10:36Z</time></trkpt><trkpt lat="45.871470441057674" lon="9.075993186579316"><ele>1099.0</ele><time>2026-04-25T09:10:37Z</time></trkpt><trkpt lat="45.87142222464268" lon="9.076070430473797"><ele>1099.0</ele><time>2026-04-25T09:10:38Z</time></trkpt><trkpt lat="45.87128921320832" lon="9.076173562890778"><ele>1099.0</ele><time>2026-04-25T09:10:40Z</time></trkpt><trkpt lat="45.871210104479644" lon="9.076195257412992"><ele>1099.0</ele><time>2026-04-25T09:10:41Z</time></trkpt><trkpt lat="45.871098153523405" lon="9.076231639564492"><ele>1099.0</ele><time>2026-04-25T09:10:42Z</time></trkpt><trkpt lat="45.871005136732585" lon="9.076282962882283"><ele>1089.75</ele><time>2026-04-25T09:10:43Z</time></trkpt><trkpt lat="45.87090923599205" lon="9.076366620691504"><ele>1080.5</ele><time>2026-04-25T09:10:44Z</time></trkpt><trkpt lat="45.870806968795904" lon="9.07644152740824"><ele>1071.25</ele><time>2026-04-25T09:10:45Z</time></trkpt><trkpt lat="45.87068572879216" lon="9.076517791157086"><ele>1062.0</ele><time>2026-04-25T09:10:46Z</time></trkpt><trkpt lat="45.87057690441281" lon="9.076601313885389"><ele>1063.8</ele><time>2026-04-25T09:10:47Z</time></trkpt><trkpt lat="45.87047411194588" lon="9.076666599860793"><ele>1065.6</ele><time>2026-04-25T09:10:48Z</time></trkpt><trkpt lat="45.87037382482025" lon="9.076734120548823"><ele>1067.3999999999999</ele><time>2026-04-25T09:10:49Z</time></trkpt><trkpt lat="45.87027558159599" lon="9.076783709907371"><ele>1069.2</ele><time>2026-04-25T09:10:50Z</time></trkpt><trkpt lat="45.870173387030974" lon="9.076808320590017"><ele>1071.0</ele><time>2026-04-25T09:10:51Z</time></trkpt><trkpt lat="45.87008374946983" lon="9.076843102840467"><ele>1071.0</ele><time>2026-04-25T09:10:52Z</time></trkpt><trkpt lat="45.86994839117459" lon="9.076857227655125"><ele>1071.0</ele><time>2026-04-25T09:10:53Z</time></trkpt><trkpt lat="45.869833859131425" lon="9.076847615220442"><ele>1071.0</ele><time>2026-04-25T09:10:54Z</time></trkpt><trkpt lat="45.86973783260402" lon="9.076840935189804"><ele>1071.0</ele><time>2026-04-25T09:10:55Z</time></trkpt><trkpt lat="45.86962753413269" lon="9.076822792539643"><ele>1071.0</ele><time>2026-04-25T09:10:56Z</time></trkpt><trkpt lat="45.8695277654359" lon="9.076808394901"><ele>1071.0</ele><time>2026-04-25T09:10:57Z</time></trkpt><trkpt lat="45.86942714407742" lon="9.076787618439493"><ele>1071.0</ele><time>2026-04-25T09:10:58Z</time></trkpt><trkpt lat="45.86934111010687" lon="9.076772895910915"><ele>1071.0</ele><time>2026-04-25T09:10:59Z</time></trkpt><trkpt lat="45.869261757138105" lon="9.07676331419646"><ele>1071.0</ele><time>2026-04-25T09:11:00Z</time></trkpt><trkpt lat="45.86919337505099" lon="9.076748061668958"><ele>1071.0</ele><time>2026-04-25T09:11:01Z</time></trkpt><trkpt lat="45.86911197227367" lon="9.076787825422366"><ele>1068.0</ele><time>2026-04-25T09:11:02Z</time></trkpt><trkpt lat="45.86903372233442" lon="9.076869165002199"><ele>1065.0</ele><time>2026-04-25T09:11:03Z</time></trkpt><trkpt lat="45.86895380733901" lon="9.076974252837765"><ele>1062.0</ele><time>2026-04-25T09:11:04Z</time></trkpt><trkpt lat="45.86886345970826" lon="9.077092153384665"><ele>1059.0</ele><time>2026-04-25T09:11:05Z</time></trkpt><trkpt lat="45.86877422651605" lon="9.07719415922181"><ele>1056.0</ele><time>2026-04-25T09:11:06Z</time></trkpt><trkpt lat="45.86867781278326" lon="9.07728188000765"><ele>1056.0</ele><time>2026-04-25T09:11:07Z</time></trkpt><trkpt lat="45.8685882420446" lon="9.077342082282186"><ele>1056.0</ele><time>2026-04-25T09:11:08Z</time></trkpt><trkpt lat="45.86850832422412" lon="9.077377406424967"><ele>1056.0</ele><time>2026-04-25T09:11:09Z</time></trkpt><trkpt lat="45.868418634873976" lon="9.077379176899948"><ele>1056.0</ele><time>2026-04-25T09:11:10Z</time></trkpt><trkpt lat="45.86830908602289" lon="9.077372294612543"><ele>1056.0</ele><time>2026-04-25T09:11:11Z</time></trkpt><trkpt lat="45.86819448382701" lon="9.077358928118702"><ele>1049.75</ele><time>2026-04-25T09:11:12Z</time></trkpt><trkpt lat="45.86806906354621" lon="9.07734288685449"><ele>1043.5</ele><time>2026-04-25T09:11:13Z</time></trkpt><trkpt lat="45.86794063493765" lon="9.077330916552302"><ele>1037.25</ele><time>2026-04-25T09:11:14Z</time></trkpt><trkpt lat="45.86783223237608" lon="9.077313525522001"><ele>1031.0</ele><time>2026-04-25T09:11:15Z</time></trkpt><trkpt lat="45.867711665453506" lon="9.077298419196536"><ele>1030.25</ele><time>2026-04-25T09:11:16Z</time></trkpt><trkpt lat="45.86759026485274" lon="9.077273472331868"><ele>1029.5</ele><time>2026-04-25T09:11:17Z</time></trkpt><trkpt lat="45.86747171062185" lon="9.077233543803546"><ele>1028.75</ele><time>2026-04-25T09:11:18Z</time></trkpt><trkpt lat="45.86736484353798" lon="9.077205837852352"><ele>1028.0</ele><time>2026-04-25T09:11:19Z</time></trkpt><trkpt lat="45.86725424822962" lon="9.077134154571722"><ele>1028.0</ele><time>2026-04-25T09:11:20Z</time></trkpt><trkpt lat="45.867125759588916" lon="9.077084893954305"><ele>1028.0</ele><time>2026-04-25T09:11:21Z</time></trkpt><trkpt lat="45.86701155567127" lon="9.07704676138003"><ele>1028.0</ele><time>2026-04-25T09:11:22Z</time></trkpt><trkpt lat="45.86690563377827" lon="9.076997589844932"><ele>1028.0</ele><time>2026-04-25T09:11:23Z</time></trkpt><trkpt lat="45.86680631843451" lon="9.076980818575075"><ele>1028.6</ele><time>2026-04-25T09:11:24Z</time></trkpt><trkpt lat="45.86674278440668" lon="9.076953688209146"><ele>1029.1999999999998</ele><time>2026-04-25T09:11:25Z</time></trkpt><trkpt lat="45.86664403685572" lon="9.076936595805844"><ele>1029.8</ele><time>2026-04-25T09:11:26Z</time></trkpt><trkpt lat="45.86653278837493" lon="9.076926713894032"><ele>1030.3999999999999</ele><time>2026-04-25T09:11:27Z</time></trkpt><trkpt lat="45.86640341927419" lon="9.076937843501845"><ele>1031.0</ele><time>2026-04-25T09:11:28Z</time></trkpt><trkpt lat="45.86627225105635" lon="9.076948192129661"><ele>1031.0</ele><time>2026-04-25T09:11:29Z</time></trkpt><trkpt lat="45.86613662589003" lon="9.076952153203688"><ele>1031.0</ele><time>2026-04-25T09:11:30Z</time></trkpt><trkpt lat="45.86600609666999" lon="9.076959973247025"><ele>1031.0</ele><time>2026-04-25T09:11:31Z</time></trkpt><trkpt lat="45.86586930273024" lon="9.076976195550643"><ele>1031.0</ele><time>2026-04-25T09:11:32Z</time></trkpt><trkpt lat="45.86575467912725" lon="9.077006927269318"><ele>1029.0</ele><time>2026-04-25T09:11:33Z</time></trkpt><trkpt lat="45.86562739533824" lon="9.077009244548346"><ele>1027.0</ele><time>2026-04-25T09:11:34Z</time></trkpt><trkpt lat="45.86552289007636" lon="9.076984596535583"><ele>1025.0</ele><time>2026-04-25T09:11:35Z</time></trkpt><trkpt lat="45.865416933493314" lon="9.076994187817647"><ele>1023.0</ele><time>2026-04-25T09:11:36Z</time></trkpt><trkpt lat="45.8652780012215" lon="9.076962662208684"><ele>1023.0</ele><time>2026-04-25T09:11:37Z</time></trkpt><trkpt lat="45.86516740907496" lon="9.076951481442187"><ele>1023.0</ele><time>2026-04-25T09:11:38Z</time></trkpt><trkpt lat="45.865034147037946" lon="9.076951968926242"><ele>1023.0</ele><time>2026-04-25T09:11:39Z</time></trkpt><trkpt lat="45.864909079496" lon="9.07696627196759"><ele>1023.0</ele><time>2026-04-25T09:11:40Z</time></trkpt><trkpt lat="45.86478531010761" lon="9.076969751873438"><ele>1022.25</ele><time>2026-04-25T09:11:41Z</time></trkpt><trkpt lat="45.864655990323506" lon="9.077004296200156"><ele>1021.5</ele><time>2026-04-25T09:11:42Z</time></trkpt><trkpt lat="45.86451056166261" lon="9.07705796482955"><ele>1020.75</ele><time>2026-04-25T09:11:43Z</time></trkpt><trkpt lat="45.864380828585205" lon="9.077061364449278"><ele>1020.0</ele><time>2026-04-25T09:11:44Z</time></trkpt><trkpt lat="45.86424179160806" lon="9.077080040951762"><ele>1019.25</ele><time>2026-04-25T09:11:45Z</time></trkpt><trkpt lat="45.86409596140935" lon="9.077096011269385"><ele>1018.5</ele><time>2026-04-25T09:11:46Z</time></trkpt><trkpt lat="45.863953026019" lon="9.077093192771851"><ele>1017.75</ele><time>2026-04-25T09:11:47Z</time></trkpt><trkpt lat="45.86382672202858" lon="9.077074130523124"><ele>1017.0</ele><time>2026-04-25T09:11:48Z</time></trkpt><trkpt lat="45.86369296512115" lon="9.077054449613858"><ele>1017.0</ele><time>2026-04-25T09:11:49Z</time></trkpt><trkpt lat="45.86356449646574" lon="9.077037304911242"><ele>1017.0</ele><time>2026-04-25T09:11:50Z</time></trkpt><trkpt lat="45.86346425078434" lon="9.077025935698353"><ele>1017.0</ele><time>2026-04-25T09:11:51Z</time></trkpt><trkpt lat="45.863331183336804" lon="9.077006225010438"><ele>1017.0</ele><time>2026-04-25T09:11:52Z</time></trkpt><trkpt lat="45.86321741180268" lon="9.076980682540674"><ele>1016.6</ele><time>2026-04-25T09:11:53Z</time></trkpt><trkpt lat="45.863099093531865" lon="9.076942439771292"><ele>1016.2</ele><time>2026-04-25T09:11:54Z</time></trkpt><trkpt lat="45.86300185774413" lon="9.076876842360031"><ele>1015.8</ele><time>2026-04-25T09:11:55Z</time></trkpt><trkpt lat="45.86291168874491" lon="9.076819415522717"><ele>1015.4</ele><time>2026-04-25T09:11:56Z</time></trkpt><trkpt lat="45.86284167966234" lon="9.076773062090737"><ele>1015.0</ele><time>2026-04-25T09:11:57Z</time></trkpt><trkpt lat="45.86277840715132" lon="9.076729394293071"><ele>1015.0</ele><time>2026-04-25T09:11:58Z</time></trkpt><trkpt lat="45.86267870221194" lon="9.076680757124892"><ele>1015.0</ele><time>2026-04-25T09:12:00Z</time></trkpt><trkpt lat="45.86255129621522" lon="9.076621219459364"><ele>1015.0</ele><time>2026-04-25T09:12:02Z</time></trkpt><trkpt lat="45.86247389183713" lon="9.076568021304949"><ele>1015.0</ele><time>2026-04-25T09:12:03Z</time></trkpt><trkpt lat="45.86233665418098" lon="9.076562258518269"><ele>1007.5</ele><time>2026-04-25T09:12:03.999Z</time></trkpt><trkpt lat="45.86220381143096" lon="9.076554724166849"><ele>1000.0</ele><time>2026-04-25T09:12:04.999Z</time></trkpt><trkpt lat="45.86206905015245" lon="9.07655390087954"><ele>992.5</ele><time>2026-04-25T09:12:05.999Z</time></trkpt><trkpt lat="45.86192676365937" lon="9.076555837606133"><ele>985.0</ele><time>2026-04-25T09:12:06.999Z</time></trkpt><trkpt lat="45.86178712886059" lon="9.076561444861891"><ele>984.5</ele><time>2026-04-25T09:12:07.999Z</time></trkpt><trkpt lat="45.861657824554875" lon="9.076578401363227"><ele>984.0</ele><time>2026-04-25T09:12:08.999Z</time></trkpt><trkpt lat="45.86153671361304" lon="9.076578926180195"><ele>983.5</ele><time>2026-04-25T09:12:09.999Z</time></trkpt><trkpt lat="45.861380374640795" lon="9.076582189929862"><ele>983.0</ele><time>2026-04-25T09:12:10.999Z</time></trkpt><trkpt lat="45.86124166730989" lon="9.076579034015923"><ele>983.0</ele><time>2026-04-25T09:12:11.999Z</time></trkpt><trkpt lat="45.86109641543834" lon="9.076576787559375"><ele>983.0</ele><time>2026-04-25T09:12:12.999Z</time></trkpt><trkpt lat="45.86097011870495" lon="9.076587555038888"><ele>983.0</ele><time>2026-04-25T09:12:13.999Z</time></trkpt><trkpt lat="45.86083576857473" lon="9.07658332714333"><ele>983.0</ele><time>2026-04-25T09:12:14.999Z</time></trkpt><trkpt lat="45.86072176473437" lon="9.076576121346978"><ele>982.0</ele><time>2026-04-25T09:12:15.999Z</time></trkpt><trkpt lat="45.86061231023393" lon="9.076551365449824"><ele>981.0</ele><time>2026-04-25T09:12:16.999Z</time></trkpt><trkpt lat="45.86050740890456" lon="9.076519404957507"><ele>980.0</ele><time>2026-04-25T09:12:17.999Z</time></trkpt><trkpt lat="45.8604142692884" lon="9.07649341218512"><ele>979.0</ele><time>2026-04-25T09:12:18.999Z</time></trkpt><trkpt lat="45.86032343677895" lon="9.0764630592912"><ele>978.0</ele><time>2026-04-25T09:12:19.999Z</time></trkpt><trkpt lat="45.860239505771645" lon="9.076468277206457"><ele>978.0</ele><time>2026-04-25T09:12:20.999Z</time></trkpt><trkpt lat="45.86015762469435" lon="9.076504065109859"><ele>978.0</ele><time>2026-04-25T09:12:21.999Z</time></trkpt><trkpt lat="45.86006297033555" lon="9.076578990521453"><ele>978.0</ele><time>2026-04-25T09:12:22.999Z</time></trkpt><trkpt lat="45.85995181965591" lon="9.076686367726998"><ele>978.0</ele><time>2026-04-25T09:12:23.999Z</time></trkpt><trkpt lat="45.85983268822057" lon="9.076821222417575"><ele>980.75</ele><time>2026-04-25T09:12:24.999Z</time></trkpt><trkpt lat="45.85973203181097" lon="9.076944685274041"><ele>983.5</ele><time>2026-04-25T09:12:25.999Z</time></trkpt><trkpt lat="45.8596407562189" lon="9.07706125994486"><ele>986.25</ele><time>2026-04-25T09:12:26.999Z</time></trkpt><trkpt lat="45.859546869410906" lon="9.077165617014636"><ele>989.0</ele><time>2026-04-25T09:12:27.999Z</time></trkpt><trkpt lat="45.85948891025408" lon="9.077272897594412"><ele>989.0000000000001</ele><time>2026-04-25T09:12:28.999Z</time></trkpt><trkpt lat="45.85942905180671" lon="9.077364831222678"><ele>989.0</ele><time>2026-04-25T09:12:29.999Z</time></trkpt><trkpt lat="45.859409187541225" lon="9.077471533752915"><ele>989.0</ele><time>2026-04-25T09:12:30.999Z</time></trkpt><trkpt lat="45.85943451257038" lon="9.07758088269704"><ele>989.0</ele><time>2026-04-25T09:12:31.999Z</time></trkpt><trkpt lat="45.85948476242036" lon="9.077681984019305"><ele>989.0000000000001</ele><time>2026-04-25T09:12:32.999Z</time></trkpt><trkpt lat="45.85950000575309" lon="9.077806790207127"><ele>989.0</ele><time>2026-04-25T09:12:34.999Z</time></trkpt><trkpt lat="45.859427515458925" lon="9.077799683364287"><ele>989.0000000000001</ele><time>2026-04-25T09:12:36.999Z</time></trkpt><trkpt lat="45.859355831812984" lon="9.077636518280636"><ele>989.0</ele><time>2026-04-25T09:12:38.999Z</time></trkpt><trkpt lat="45.85934158079963" lon="9.077514479644593"><ele>989.0</ele><time>2026-04-25T09:12:39.999Z</time></trkpt><trkpt lat="45.859337732391346" lon="9.077404877461639"><ele>989.0</ele><time>2026-04-25T09:12:41Z</time></trkpt><trkpt lat="45.859338635904145" lon="9.077295156862203"><ele>989.0000000000001</ele><time>2026-04-25T09:12:42Z</time></trkpt><trkpt lat="45.85936191507763" lon="9.077209937898845"><ele>989.0</ele><time>2026-04-25T09:12:43Z</time></trkpt><trkpt lat="45.85938798766228" lon="9.077126667609457"><ele>989.0000000000001</ele><time>2026-04-25T09:12:47Z</time></trkpt><trkpt lat="45.85945059579911" lon="9.076977019583337"><ele>989.0</ele><time>2026-04-25T09:12:49Z</time></trkpt><trkpt lat="45.85950287237956" lon="9.076875037375943"><ele>989.0</ele><time>2026-04-25T09:12:50Z</time></trkpt><trkpt lat="45.85953539349892" lon="9.076771392354315"><ele>989.0</ele><time>2026-04-25T09:12:51Z</time></trkpt><trkpt lat="45.859576523015214" lon="9.076689120006"><ele>989.0000000000001</ele><time>2026-04-25T09:12:52Z</time></trkpt><trkpt lat="45.8595995947053" lon="9.076592546849128"><ele>989.0</ele><time>2026-04-25T09:12:53Z</time></trkpt><trkpt lat="45.85962561705383" lon="9.076469980714062"><ele>985.4000000000001</ele><time>2026-04-25T09:12:54Z</time></trkpt><trkpt lat="45.859666552637556" lon="9.07631449680984"><ele>981.8000000000001</ele><time>2026-04-25T09:12:55Z</time></trkpt><trkpt lat="45.85971321769244" lon="9.0761569960828"><ele>978.1999999999999</ele><time>2026-04-25T09:12:56Z</time></trkpt><trkpt lat="45.859766016167406" lon="9.076010420825005"><ele>974.5999999999999</ele><time>2026-04-25T09:12:57Z</time></trkpt><trkpt lat="45.85980469135335" lon="9.07588048283644"><ele>971.0</ele><time>2026-04-25T09:12:58Z</time></trkpt><trkpt lat="45.859850604648074" lon="9.075754442172633"><ele>967.1999999999999</ele><time>2026-04-25T09:12:59Z</time></trkpt><trkpt lat="45.85990195294213" lon="9.075624607751664"><ele>963.3999999999999</ele><time>2026-04-25T09:13:00Z</time></trkpt><trkpt lat="45.859960057628655" lon="9.075511379695985"><ele>959.6</ele><time>2026-04-25T09:13:01Z</time></trkpt><trkpt lat="45.8600229223941" lon="9.075428909012132"><ele>955.8</ele><time>2026-04-25T09:13:02Z</time></trkpt><trkpt lat="45.860099383428256" lon="9.075377123461601"><ele>952.0</ele><time>2026-04-25T09:13:03Z</time></trkpt><trkpt lat="45.8601802808172" lon="9.075342918552286"><ele>952.0</ele><time>2026-04-25T09:13:04Z</time></trkpt><trkpt lat="45.860277640205275" lon="9.075313258687503"><ele>952.0</ele><time>2026-04-25T09:13:05Z</time></trkpt><trkpt lat="45.86038020863179" lon="9.075303963867459"><ele>952.0</ele><time>2026-04-25T09:13:06Z</time></trkpt><trkpt lat="45.86053043280305" lon="9.075284331879574"><ele>952.0</ele><time>2026-04-25T09:13:07Z</time></trkpt><trkpt lat="45.860652230662204" lon="9.075267364482544"><ele>951.9999999999999</ele><time>2026-04-25T09:13:08Z</time></trkpt><trkpt lat="45.8607622338954" lon="9.07525613959056"><ele>952.0</ele><time>2026-04-25T09:13:09Z</time></trkpt><trkpt lat="45.860870957540826" lon="9.075274674690883"><ele>952.0</ele><time>2026-04-25T09:13:10Z</time></trkpt><trkpt lat="45.86094660011005" lon="9.0752595432749"><ele>952.0</ele><time>2026-04-25T09:13:11Z</time></trkpt><trkpt lat="45.861009224444125" lon="9.075228274302281"><ele>951.9999999999999</ele><time>2026-04-25T09:13:12Z</time></trkpt><trkpt lat="45.86107215952391" lon="9.075164287730725"><ele>952.0</ele><time>2026-04-25T09:13:13Z</time></trkpt><trkpt lat="45.861142466050964" lon="9.07509522922763"><ele>952.0</ele><time>2026-04-25T09:13:14Z</time></trkpt><trkpt lat="45.861240532665306" lon="9.075061769275429"><ele>952.0</ele><time>2026-04-25T09:13:15Z</time></trkpt><trkpt lat="45.86133035865293" lon="9.075030828421063"><ele>952.0</ele><time>2026-04-25T09:13:16Z</time></trkpt><trkpt lat="45.86142293835804" lon="9.075004707432077"><ele>952.0</ele><time>2026-04-25T09:13:17Z</time></trkpt><trkpt lat="45.86150003351181" lon="9.07500547848625"><ele>952.0</ele><time>2026-04-25T09:13:18Z</time></trkpt><trkpt lat="45.86160410162738" lon="9.075045192813855"><ele>943.0</ele><time>2026-04-25T09:13:20Z</time></trkpt><trkpt lat="45.86162828290975" lon="9.074867426066847"><ele>934.0</ele><time>2026-04-25T09:13:23Z</time></trkpt><trkpt lat="45.86145919325997" lon="9.074849573610429"><ele>925.0</ele><time>2026-04-25T09:13:25Z</time></trkpt><trkpt lat="45.86136304254573" lon="9.07484469823651"><ele>916.0</ele><time>2026-04-25T09:13:26Z</time></trkpt><trkpt lat="45.86126158124355" lon="9.074816926623841"><ele>916.0</ele><time>2026-04-25T09:13:27Z</time></trkpt><trkpt lat="45.86115491310054" lon="9.07480399804813"><ele>916.0</ele><time>2026-04-25T09:13:28Z</time></trkpt><trkpt lat="45.861027677763424" lon="9.074770531108927"><ele>916.0</ele><time>2026-04-25T09:13:29Z</time></trkpt><trkpt lat="45.8608911648606" lon="9.074765054131381"><ele>916.0</ele><time>2026-04-25T09:13:30Z</time></trkpt><trkpt lat="45.86076783862922" lon="9.074743267111883"><ele>916.5</ele><time>2026-04-25T09:13:31Z</time></trkpt><trkpt lat="45.860638690868086" lon="9.074721874478476"><ele>917.0</ele><time>2026-04-25T09:13:32Z</time></trkpt><trkpt lat="45.86050788510919" lon="9.07469690207978"><ele>917.5</ele><time>2026-04-25T09:13:33Z</time></trkpt><trkpt lat="45.86038469998401" lon="9.074687005105181"><ele>918.0</ele><time>2026-04-25T09:13:34Z</time></trkpt><trkpt lat="45.860258148369404" lon="9.074636045901855"><ele>918.0</ele><time>2026-04-25T09:13:35Z</time></trkpt><trkpt lat="45.86013891687739" lon="9.074610537592699"><ele>918.0</ele><time>2026-04-25T09:13:36Z</time></trkpt><trkpt lat="45.86002291711877" lon="9.0745844269876"><ele>918.0</ele><time>2026-04-25T09:13:37Z</time></trkpt><trkpt lat="45.85992267786155" lon="9.074560204558539"><ele>918.0</ele><time>2026-04-25T09:13:38Z</time></trkpt><trkpt lat="45.85981253816503" lon="9.074541927489358"><ele>918.5</ele><time>2026-04-25T09:13:39Z</time></trkpt><trkpt lat="45.85972266515182" lon="9.07454492282213"><ele>919.0</ele><time>2026-04-25T09:13:40Z</time></trkpt><trkpt lat="45.85962369103449" lon="9.074550682380657"><ele>919.5</ele><time>2026-04-25T09:13:41Z</time></trkpt><trkpt lat="45.859535744852586" lon="9.074582105663433"><ele>920.0</ele><time>2026-04-25T09:13:42Z</time></trkpt><trkpt lat="45.85946816730429" lon="9.074636219588472"><ele>920.5</ele><time>2026-04-25T09:13:43Z</time></trkpt><trkpt lat="45.8594176617145" lon="9.07471464463816"><ele>921.0</ele><time>2026-04-25T09:13:44Z</time></trkpt><trkpt lat="45.85937983373046" lon="9.074796032345434"><ele>921.0</ele><time>2026-04-25T09:13:45Z</time></trkpt><trkpt lat="45.85932913523431" lon="9.07485686840864"><ele>921.0</ele><time>2026-04-25T09:13:46Z</time></trkpt><trkpt lat="45.85928981196935" lon="9.074725267597112"><ele>921.0</ele><time>2026-04-25T09:13:49Z</time></trkpt><trkpt lat="45.85933532062711" lon="9.074633963058904"><ele>921.0</ele><time>2026-04-25T09:13:50Z</time></trkpt><trkpt lat="45.8593986114604" lon="9.074545195822344"><ele>921.0</ele><time>2026-04-25T09:13:51Z</time></trkpt><trkpt lat="45.85947998495115" lon="9.074500650204174"><ele>921.0</ele><time>2026-04-25T09:13:52Z</time></trkpt><trkpt lat="45.85957488354651" lon="9.074447831797086"><ele>921.0</ele><time>2026-04-25T09:13:53Z</time></trkpt><trkpt lat="45.859684063505625" lon="9.07440088286801"><ele>921.0</ele><time>2026-04-25T09:13:54Z</time></trkpt><trkpt lat="45.85979051820097" lon="9.074336701440219"><ele>921.0</ele><time>2026-04-25T09:13:55Z</time></trkpt><trkpt lat="45.85991081769512" lon="9.07431794778466"><ele>921.0</ele><time>2026-04-25T09:13:56Z</time></trkpt><trkpt lat="45.860016606703404" lon="9.074285095289738"><ele>920.25</ele><time>2026-04-25T09:13:57Z</time></trkpt><trkpt lat="45.8601269196037" lon="9.074266444438756"><ele>919.5</ele><time>2026-04-25T09:13:58Z</time></trkpt><trkpt lat="45.86025500521481" lon="9.074251030284412"><ele>918.75</ele><time>2026-04-25T09:13:59Z</time></trkpt><trkpt lat="45.86038929398943" lon="9.074211883608216"><ele>918.0</ele><time>2026-04-25T09:14:00Z</time></trkpt><trkpt lat="45.86052105040225" lon="9.074201871520756"><ele>918.0</ele><time>2026-04-25T09:14:01Z</time></trkpt><trkpt lat="45.86064393268751" lon="9.074165910989922"><ele>918.0</ele><time>2026-04-25T09:14:02Z</time></trkpt><trkpt lat="45.8607736647136" lon="9.07415238550481"><ele>918.0</ele><time>2026-04-25T09:14:03Z</time></trkpt><trkpt lat="45.86089033917962" lon="9.074111401406968"><ele>918.0</ele><time>2026-04-25T09:14:04Z</time></trkpt><trkpt lat="45.86100296129585" lon="9.074069952620489"><ele>910.8</ele><time>2026-04-25T09:14:05Z</time></trkpt><trkpt lat="45.8611150605389" lon="9.074028513827605"><ele>903.5999999999999</ele><time>2026-04-25T09:14:06Z</time></trkpt><trkpt lat="45.861219154075435" lon="9.073999246436893"><ele>896.4000000000001</ele><time>2026-04-25T09:14:07Z</time></trkpt><trkpt lat="45.8613237043857" lon="9.073974660322968"><ele>889.2</ele><time>2026-04-25T09:14:08Z</time></trkpt><trkpt lat="45.86143298539006" lon="9.073956923764198"><ele>882.0</ele><time>2026-04-25T09:14:09Z</time></trkpt><trkpt lat="45.86154796090425" lon="9.073955916320726"><ele>882.0</ele><time>2026-04-25T09:14:09.999Z</time></trkpt><trkpt lat="45.86165646110592" lon="9.073961217835759"><ele>882.0</ele><time>2026-04-25T09:14:10.999Z</time></trkpt><trkpt lat="45.8617476900992" lon="9.073999206443657"><ele>882.0</ele><time>2026-04-25T09:14:11.999Z</time></trkpt><trkpt lat="45.861812853390624" lon="9.074029114417543"><ele>882.0</ele><time>2026-04-25T09:14:12.999Z</time></trkpt><trkpt lat="45.861844491375635" lon="9.073868380997274"><ele>882.0</ele><time>2026-04-25T09:14:15.999Z</time></trkpt><trkpt lat="45.86170712922876" lon="9.073838982925823"><ele>882.0</ele><time>2026-04-25T09:14:17.999Z</time></trkpt><trkpt lat="45.861612171570165" lon="9.073794636185626"><ele>882.0</ele><time>2026-04-25T09:14:18.999Z</time></trkpt><trkpt lat="45.86148831232929" lon="9.073774969434357"><ele>882.0</ele><time>2026-04-25T09:14:19.999Z</time></trkpt><trkpt lat="45.86138610002505" lon="9.073756575852304"><ele>882.0</ele><time>2026-04-25T09:14:20.999Z</time></trkpt><trkpt lat="45.861278055545306" lon="9.073729277104654"><ele>882.0</ele><time>2026-04-25T09:14:21.999Z</time></trkpt><trkpt lat="45.86118709347734" lon="9.073724374393226"><ele>882.0</ele><time>2026-04-25T09:14:22.999Z</time></trkpt><trkpt lat="45.861048731610936" lon="9.073734359161303"><ele>882.0</ele><time>2026-04-25T09:14:24.999Z</time></trkpt><trkpt lat="45.860961488197425" lon="9.073728413738715"><ele>882.0</ele><time>2026-04-25T09:14:25.999Z</time></trkpt><trkpt lat="45.86083490286519" lon="9.073719110135142"><ele>882.0</ele><time>2026-04-25T09:14:26.999Z</time></trkpt><trkpt lat="45.860698805912094" lon="9.073713062299268"><ele>881.5</ele><time>2026-04-25T09:14:27.999Z</time></trkpt><trkpt lat="45.86057103524865" lon="9.073699899020168"><ele>881.0</ele><time>2026-04-25T09:14:28.999Z</time></trkpt><trkpt lat="45.86042585125586" lon="9.073685964664485"><ele>880.5</ele><time>2026-04-25T09:14:29.999Z</time></trkpt><trkpt lat="45.860276414786085" lon="9.073665867037816"><ele>880.0</ele><time>2026-04-25T09:14:30.999Z</time></trkpt><trkpt lat="45.86012607344366" lon="9.07364959162303"><ele>879.75</ele><time>2026-04-25T09:14:31.999Z</time></trkpt><trkpt lat="45.859978244095586" lon="9.073624912666721"><ele>879.5</ele><time>2026-04-25T09:14:32.999Z</time></trkpt><trkpt lat="45.85982994403042" lon="9.073597550206314"><ele>879.25</ele><time>2026-04-25T09:14:33.999Z</time></trkpt><trkpt lat="45.85968996724513" lon="9.073573927540009"><ele>879.0</ele><time>2026-04-25T09:14:34.999Z</time></trkpt><trkpt lat="45.85955564662456" lon="9.073550332056595"><ele>879.0</ele><time>2026-04-25T09:14:35.999Z</time></trkpt><trkpt lat="45.859420679537" lon="9.073532831263703"><ele>879.0</ele><time>2026-04-25T09:14:36.999Z</time></trkpt><trkpt lat="45.85929386877887" lon="9.073506872901858"><ele>879.0</ele><time>2026-04-25T09:14:37.999Z</time></trkpt><trkpt lat="45.859177522095194" lon="9.073491424445463"><ele>879.0</ele><time>2026-04-25T09:14:38.999Z</time></trkpt><trkpt lat="45.85906206638277" lon="9.073474754238887"><ele>878.6</ele><time>2026-04-25T09:14:39.999Z</time></trkpt><trkpt lat="45.85895289611027" lon="9.073474313060164"><ele>878.2</ele><time>2026-04-25T09:14:40.999Z</time></trkpt><trkpt lat="45.85885859076096" lon="9.073495952888566"><ele>877.8000000000001</ele><time>2026-04-25T09:14:42Z</time></trkpt><trkpt lat="45.85878787655469" lon="9.073543968900646"><ele>877.4000000000001</ele><time>2026-04-25T09:14:43Z</time></trkpt><trkpt lat="45.8587038166804" lon="9.073613458914023"><ele>877.0</ele><time>2026-04-25T09:14:45Z</time></trkpt><trkpt lat="45.85867928369755" lon="9.07350652871843"><ele>876.9999999999999</ele><time>2026-04-25T09:14:48Z</time></trkpt><trkpt lat="45.85880702415989" lon="9.073422292538481"><ele>877.0</ele><time>2026-04-25T09:14:50Z</time></trkpt><trkpt lat="45.858892784562435" lon="9.073371803524326"><ele>877.0</ele><time>2026-04-25T09:14:51Z</time></trkpt><trkpt lat="45.85895639975161" lon="9.07336256310267"><ele>877.0</ele><time>2026-04-25T09:14:52Z</time></trkpt><trkpt lat="45.85902874843012" lon="9.07334701060864"><ele>876.9999999999999</ele><time>2026-04-25T09:14:56Z</time></trkpt><trkpt lat="45.85910617961804" lon="9.073342984031223"><ele>877.0</ele><time>2026-04-25T09:14:58Z</time></trkpt><trkpt lat="45.85918791962897" lon="9.073327308512171"><ele>876.9999999999999</ele><time>2026-04-25T09:14:59Z</time></trkpt><trkpt lat="45.85926479287607" lon="9.073310914855345"><ele>877.0</ele><time>2026-04-25T09:15:00Z</time></trkpt><trkpt lat="45.85934388207584" lon="9.073293253084826"><ele>877.0</ele><time>2026-04-25T09:15:01Z</time></trkpt><trkpt lat="45.859443643822075" lon="9.073270741355957"><ele>877.0</ele><time>2026-04-25T09:15:02Z</time></trkpt><trkpt lat="45.85954547985066" lon="9.073256610310661"><ele>876.9999999999999</ele><time>2026-04-25T09:15:03Z</time></trkpt><trkpt lat="45.85962999449816" lon="9.073239756301499"><ele>877.0</ele><time>2026-04-25T09:15:04Z</time></trkpt><trkpt lat="45.85971600118036" lon="9.073227015087717"><ele>870.3333333333333</ele><time>2026-04-25T09:15:05Z</time></trkpt><trkpt lat="45.85979878343991" lon="9.073226961497156"><ele>863.6666666666666</ele><time>2026-04-25T09:15:06Z</time></trkpt><trkpt lat="45.85987162779076" lon="9.073239992943382"><ele>857.0</ele><time>2026-04-25T09:15:07Z</time></trkpt><trkpt lat="45.859940808138" lon="9.073266675902769"><ele>850.3333333333333</ele><time>2026-04-25T09:15:08Z</time></trkpt><trkpt lat="45.86000471584927" lon="9.073229044957058"><ele>843.6666666666666</ele><time>2026-04-25T09:15:10Z</time></trkpt><trkpt lat="45.86000214089605" lon="9.073119575179037"><ele>837.0</ele><time>2026-04-25T09:15:12Z</time></trkpt><trkpt lat="45.859920752892435" lon="9.07310752962189"><ele>837.0</ele><time>2026-04-25T09:15:13Z</time></trkpt><trkpt lat="45.859823764797305" lon="9.073134408615157"><ele>837.0</ele><time>2026-04-25T09:15:14Z</time></trkpt><trkpt lat="45.859722398583315" lon="9.073108446204184"><ele>837.0</ele><time>2026-04-25T09:15:15Z</time></trkpt><trkpt lat="45.85961230338655" lon="9.073094577996269"><ele>837.0</ele><time>2026-04-25T09:15:16Z</time></trkpt><trkpt lat="45.85951301240162" lon="9.073092735215166"><ele>837.0</ele><time>2026-04-25T09:15:17Z</time></trkpt><trkpt lat="45.859416500287224" lon="9.07306248676395"><ele>837.0</ele><time>2026-04-25T09:15:18Z</time></trkpt><trkpt lat="45.859315619629065" lon="9.073012419602904"><ele>837.0</ele><time>2026-04-25T09:15:19Z</time></trkpt><trkpt lat="45.85921002075578" lon="9.072972072667792"><ele>837.0</ele><time>2026-04-25T09:15:20Z</time></trkpt><trkpt lat="45.85911075065881" lon="9.072934944419163"><ele>837.0</ele><time>2026-04-25T09:15:21Z</time></trkpt><trkpt lat="45.85900657118593" lon="9.072899440634764"><ele>837.0</ele><time>2026-04-25T09:15:22Z</time></trkpt><trkpt lat="45.8588977332801" lon="9.07286949979062"><ele>836.8</ele><time>2026-04-25T09:15:23Z</time></trkpt><trkpt lat="45.85878951434797" lon="9.072840169867323"><ele>836.6</ele><time>2026-04-25T09:15:24Z</time></trkpt><trkpt lat="45.85868210336809" lon="9.072811339277225"><ele>836.4</ele><time>2026-04-25T09:15:25Z</time></trkpt><trkpt lat="45.85856983370525" lon="9.072778096679137"><ele>836.1999999999999</ele><time>2026-04-25T09:15:26Z</time></trkpt><trkpt lat="45.85847124570054" lon="9.072740385296814"><ele>836.0</ele><time>2026-04-25T09:15:27Z</time></trkpt><trkpt lat="45.85837021617363" lon="9.072715746669996"><ele>835.8333333333334</ele><time>2026-04-25T09:15:28Z</time></trkpt><trkpt lat="45.85827468944811" lon="9.0726942613876"><ele>835.6666666666667</ele><time>2026-04-25T09:15:29Z</time></trkpt><trkpt lat="45.858207049053995" lon="9.072705337257505"><ele>835.5</ele><time>2026-04-25T09:15:30Z</time></trkpt><trkpt lat="45.85813569870147" lon="9.072740057048147"><ele>835.3333333333333</ele><time>2026-04-25T09:15:31Z</time></trkpt><trkpt lat="45.858080101789646" lon="9.072789545328861"><ele>835.1666666666666</ele><time>2026-04-25T09:15:32Z</time></trkpt><trkpt lat="45.8580174272146" lon="9.072936952299871"><ele>835.0</ele><time>2026-04-25T09:15:34Z</time></trkpt><trkpt lat="45.85803477763322" lon="9.073051317623786"><ele>835.0</ele><time>2026-04-25T09:15:35Z</time></trkpt><trkpt lat="45.858034100270366" lon="9.073193568134975"><ele>835.0</ele><time>2026-04-25T09:15:36Z</time></trkpt><trkpt lat="45.858040149200264" lon="9.073353122307898"><ele>835.0</ele><time>2026-04-25T09:15:37Z</time></trkpt><trkpt lat="45.858062529614955" lon="9.073508469622098"><ele>835.0</ele><time>2026-04-25T09:15:38Z</time></trkpt><trkpt lat="45.85805189833237" lon="9.073669155235754"><ele>835.0</ele><time>2026-04-25T09:15:39Z</time></trkpt><trkpt lat="45.85807389881551" lon="9.0738181104041"><ele>839.1666666666666</ele><time>2026-04-25T09:15:40Z</time></trkpt><trkpt lat="45.85808240499102" lon="9.073952354713471"><ele>843.3333333333333</ele><time>2026-04-25T09:15:41Z</time></trkpt><trkpt lat="45.858088070145755" lon="9.074086731573914"><ele>847.5</ele><time>2026-04-25T09:15:42Z</time></trkpt><trkpt lat="45.85809306141099" lon="9.074211397329117"><ele>851.6666666666667</ele><time>2026-04-25T09:15:43Z</time></trkpt><trkpt lat="45.858063119322466" lon="9.074320700684284"><ele>855.8333333333334</ele><time>2026-04-25T09:15:44Z</time></trkpt><trkpt lat="45.85804118979311" lon="9.07443393498874"><ele>860.0</ele><time>2026-04-25T09:15:45Z</time></trkpt><trkpt lat="45.85803456775081" lon="9.07455156109041"><ele>861.0</ele><time>2026-04-25T09:15:46Z</time></trkpt><trkpt lat="45.858001332133455" lon="9.074638083771672"><ele>862.0</ele><time>2026-04-25T09:15:47Z</time></trkpt><trkpt lat="45.857981495356476" lon="9.074737214014714"><ele>863.0</ele><time>2026-04-25T09:15:48Z</time></trkpt><trkpt lat="45.857959168441404" lon="9.074823302312616"><ele>864.0</ele><time>2026-04-25T09:15:49Z</time></trkpt><trkpt lat="45.85792629719092" lon="9.074903376383615"><ele>865.0</ele><time>2026-04-25T09:15:50Z</time></trkpt><trkpt lat="45.85789022936583" lon="9.074981001916315"><ele>866.0</ele><time>2026-04-25T09:15:51Z</time></trkpt><trkpt lat="45.85781814274753" lon="9.074991757256353"><ele>867.0</ele><time>2026-04-25T09:15:52Z</time></trkpt><trkpt lat="45.85772744636246" lon="9.07500221548052"><ele>867.8</ele><time>2026-04-25T09:15:53Z</time></trkpt><trkpt lat="45.857629759139485" lon="9.075043597217219"><ele>868.6</ele><time>2026-04-25T09:15:54Z</time></trkpt><trkpt lat="45.857533148750214" lon="9.075059997317577"><ele>869.3999999999999</ele><time>2026-04-25T09:15:55Z</time></trkpt><trkpt lat="45.85744701861442" lon="9.075099627188365"><ele>870.1999999999999</ele><time>2026-04-25T09:15:56Z</time></trkpt><trkpt lat="45.857351860803014" lon="9.075114296091133"><ele>871.0</ele><time>2026-04-25T09:15:57Z</time></trkpt><trkpt lat="45.85727358296903" lon="9.075150080046054"><ele>862.8</ele><time>2026-04-25T09:15:58Z</time></trkpt><trkpt lat="45.85720083309528" lon="9.075191999483312"><ele>854.5999999999999</ele><time>2026-04-25T09:15:59Z</time></trkpt><trkpt lat="45.85711820005735" lon="9.075268796927016"><ele>846.4</ele><time>2026-04-25T09:16:00Z</time></trkpt><trkpt lat="45.85704198718232" lon="9.075376294847104"><ele>838.2</ele><time>2026-04-25T09:16:01Z</time></trkpt><trkpt lat="45.85695151067452" lon="9.075483600274016"><ele>830.0</ele><time>2026-04-25T09:16:02.001Z</time></trkpt><trkpt lat="45.85686173238836" lon="9.07556923253447"><ele>830.0000000000001</ele><time>2026-04-25T09:16:03.001Z</time></trkpt><trkpt lat="45.8567853867899" lon="9.07564440083409"><ele>830.0</ele><time>2026-04-25T09:16:04.001Z</time></trkpt><trkpt lat="45.856730173094846" lon="9.075692921945967"><ele>830.0</ele><time>2026-04-25T09:16:05.001Z</time></trkpt><trkpt lat="45.8566721551029" lon="9.0756405519319"><ele>830.0</ele><time>2026-04-25T09:16:07.001Z</time></trkpt><trkpt lat="45.856703478678305" lon="9.075517433963"><ele>830.0000000000001</ele><time>2026-04-25T09:16:09.001Z</time></trkpt><trkpt lat="45.85677390511541" lon="9.07547430008099"><ele>830.0</ele><time>2026-04-25T09:16:10.001Z</time></trkpt><trkpt lat="45.85683026960583" lon="9.075387099579167"><ele>830.0000000000001</ele><time>2026-04-25T09:16:11.001Z</time></trkpt><trkpt lat="45.856897202421244" lon="9.075313372700084"><ele>830.0</ele><time>2026-04-25T09:16:12.001Z</time></trkpt><trkpt lat="45.856941454283074" lon="9.07524596966917"><ele>830.0</ele><time>2026-04-25T09:16:13.001Z</time></trkpt><trkpt lat="45.856936920028204" lon="9.075126258876384"><ele>830.0</ele><time>2026-04-25T09:16:15.001Z</time></trkpt><trkpt lat="45.856839803681375" lon="9.07511874181682"><ele>830.0000000000001</ele><time>2026-04-25T09:16:16.999Z</time></trkpt><trkpt lat="45.856776965528574" lon="9.075184054562206"><ele>830.0</ele><time>2026-04-25T09:16:17.999Z</time></trkpt><trkpt lat="45.85671409049326" lon="9.075252228719618"><ele>826.5000000000001</ele><time>2026-04-25T09:16:18.999Z</time></trkpt><trkpt lat="45.85665345645889" lon="9.075304701548342"><ele>823.0</ele><time>2026-04-25T09:16:19.999Z</time></trkpt><trkpt lat="45.85658863081656" lon="9.075351146731325"><ele>819.5</ele><time>2026-04-25T09:16:20.999Z</time></trkpt><trkpt lat="45.85648067748854" lon="9.075405438724667"><ele>816.0</ele><time>2026-04-25T09:16:23Z</time></trkpt><trkpt lat="45.856378398445194" lon="9.0754316513575"><ele>812.5000000000001</ele><time>2026-04-25T09:16:25Z</time></trkpt><trkpt lat="45.85629431364321" lon="9.075460451236717"><ele>809.0</ele><time>2026-04-25T09:16:27Z</time></trkpt><trkpt lat="45.85622462749916" lon="9.075464883805877"><ele>809.0000000000001</ele><time>2026-04-25T09:16:28Z</time></trkpt><trkpt lat="45.85615855066564" lon="9.07553304650386"><ele>809.0</ele><time>2026-04-25T09:16:29Z</time></trkpt><trkpt lat="45.85611039369325" lon="9.075632774310666"><ele>809.0</ele><time>2026-04-25T09:16:30Z</time></trkpt><trkpt lat="45.85607443897563" lon="9.075765500345318"><ele>809.0</ele><time>2026-04-25T09:16:31Z</time></trkpt><trkpt lat="45.856045203749176" lon="9.075892048781308"><ele>809.0000000000001</ele><time>2026-04-25T09:16:32Z</time></trkpt><trkpt lat="45.8560239635207" lon="9.076014512520901"><ele>809.0</ele><time>2026-04-25T09:16:33Z</time></trkpt><trkpt lat="45.85601865771572" lon="9.076142489303457"><ele>807.6666666666667</ele><time>2026-04-25T09:16:34Z</time></trkpt><trkpt lat="45.8560285154405" lon="9.076251362557558"><ele>806.3333333333334</ele><time>2026-04-25T09:16:35Z</time></trkpt><trkpt lat="45.85604582645653" lon="9.076342866916091"><ele>805.0</ele><time>2026-04-25T09:16:37Z</time></trkpt><trkpt lat="45.855974204850604" lon="9.076311820334832"><ele>803.6666666666667</ele><time>2026-04-25T09:16:40Z</time></trkpt><trkpt lat="45.855951860592306" lon="9.076154761596605"><ele>802.3333333333334</ele><time>2026-04-25T09:16:42Z</time></trkpt><trkpt lat="45.85596564788902" lon="9.076034794026148"><ele>801.0</ele><time>2026-04-25T09:16:43Z</time></trkpt><trkpt lat="45.85597137580794" lon="9.07590301884696"><ele>802.5999999999999</ele><time>2026-04-25T09:16:44Z</time></trkpt><trkpt lat="45.855983389872456" lon="9.075758467205695"><ele>804.2</ele><time>2026-04-25T09:16:45Z</time></trkpt><trkpt lat="45.85599968306051" lon="9.075615473611983"><ele>805.8</ele><time>2026-04-25T09:16:46Z</time></trkpt><trkpt lat="45.85602332455879" lon="9.075488640121954"><ele>807.4000000000001</ele><time>2026-04-25T09:16:47Z</time></trkpt><trkpt lat="45.8560575637096" lon="9.075373589472774"><ele>809.0</ele><time>2026-04-25T09:16:48Z</time></trkpt><trkpt lat="45.856076304522404" lon="9.075232492026776"><ele>809.0</ele><time>2026-04-25T09:16:50Z</time></trkpt><trkpt lat="45.85601685394104" lon="9.075174497074347"><ele>809.0</ele><time>2026-04-25T09:16:52Z</time></trkpt><trkpt lat="45.85592226381151" lon="9.075315437379482"><ele>809.0</ele><time>2026-04-25T09:16:54Z</time></trkpt><trkpt lat="45.85590660282607" lon="9.075441077987064"><ele>809.0</ele><time>2026-04-25T09:16:55Z</time></trkpt><trkpt lat="45.85588882444056" lon="9.075570546639845"><ele>809.0</ele><time>2026-04-25T09:16:56Z</time></trkpt><trkpt lat="45.855863022863886" lon="9.075714000326782"><ele>807.4000000000001</ele><time>2026-04-25T09:16:57Z</time></trkpt><trkpt lat="45.85583883117431" lon="9.075857490401498"><ele>805.8</ele><time>2026-04-25T09:16:58Z</time></trkpt><trkpt lat="45.855831525032684" lon="9.076010481583408"><ele>804.2</ele><time>2026-04-25T09:16:59Z</time></trkpt><trkpt lat="45.85581861915858" lon="9.0761523614798"><ele>802.5999999999999</ele><time>2026-04-25T09:17:00Z</time></trkpt><trkpt lat="45.85581196582368" lon="9.076297944320556"><ele>801.0</ele><time>2026-04-25T09:17:01Z</time></trkpt><trkpt lat="45.85581094253811" lon="9.076445392615959"><ele>801.0</ele><time>2026-04-25T09:17:02Z</time></trkpt><trkpt lat="45.85580878345455" lon="9.076573609843038"><ele>801.0</ele><time>2026-04-25T09:17:03Z</time></trkpt><trkpt lat="45.85581525248646" lon="9.076692014382944"><ele>801.0</ele><time>2026-04-25T09:17:04Z</time></trkpt><trkpt lat="45.85583057564623" lon="9.076810128607596"><ele>801.0</ele><time>2026-04-25T09:17:05Z</time></trkpt><trkpt lat="45.85584934082994" lon="9.076919253901043"><ele>801.0</ele><time>2026-04-25T09:17:06Z</time></trkpt><trkpt lat="45.85588424396628" lon="9.077013185459107"><ele>801.0</ele><time>2026-04-25T09:17:07Z</time></trkpt><trkpt lat="45.85592211112095" lon="9.077106666622427"><ele>800.3333333333334</ele><time>2026-04-25T09:17:08Z</time></trkpt><trkpt lat="45.85594446926089" lon="9.07720468197499"><ele>799.6666666666667</ele><time>2026-04-25T09:17:09Z</time></trkpt><trkpt lat="45.85600278237184" lon="9.077311860432854"><ele>799.0</ele><time>2026-04-25T09:17:11Z</time></trkpt><trkpt lat="45.85592473760366" lon="9.077320140612253"><ele>798.3333333333334</ele><time>2026-04-25T09:17:15Z</time></trkpt><trkpt lat="45.85590846221254" lon="9.07721667542234"><ele>797.6666666666667</ele><time>2026-04-25T09:17:16Z</time></trkpt><trkpt lat="45.85585661468087" lon="9.077119313252496"><ele>797.0</ele><time>2026-04-25T09:17:17Z</time></trkpt><trkpt lat="45.85581150375008" lon="9.077012826174464"><ele>797.0</ele><time>2026-04-25T09:17:18Z</time></trkpt><trkpt lat="45.85577283198534" lon="9.07690724602092"><ele>797.0</ele><time>2026-04-25T09:17:19Z</time></trkpt><trkpt lat="45.855740691636974" lon="9.076791397804472"><ele>797.0</ele><time>2026-04-25T09:17:20Z</time></trkpt><trkpt lat="45.85571538292921" lon="9.076659843378595"><ele>797.0</ele><time>2026-04-25T09:17:21Z</time></trkpt><trkpt lat="45.85569261918593" lon="9.076515975845023"><ele>797.0</ele><time>2026-04-25T09:17:22Z</time></trkpt><trkpt lat="45.855672870825806" lon="9.076363946598626"><ele>797.8</ele><time>2026-04-25T09:17:23Z</time></trkpt><trkpt lat="45.855661793134104" lon="9.07620907506036"><ele>798.6</ele><time>2026-04-25T09:17:24Z</time></trkpt><trkpt lat="45.85564334835943" lon="9.076067141280701"><ele>799.4</ele><time>2026-04-25T09:17:25Z</time></trkpt><trkpt lat="45.85562544022136" lon="9.075922593533951"><ele>800.1999999999999</ele><time>2026-04-25T09:17:26Z</time></trkpt><trkpt lat="45.85562897991612" lon="9.075778356991407"><ele>801.0</ele><time>2026-04-25T09:17:27Z</time></trkpt><trkpt lat="45.85561153974385" lon="9.075638390827274"><ele>797.25</ele><time>2026-04-25T09:17:28.001Z</time></trkpt><trkpt lat="45.855627237267626" lon="9.075506177682513"><ele>793.5</ele><time>2026-04-25T09:17:29.001Z</time></trkpt><trkpt lat="45.85561916078969" lon="9.075400466648542"><ele>789.75</ele><time>2026-04-25T09:17:30.001Z</time></trkpt><trkpt lat="45.855479301835636" lon="9.0754083372615"><ele>786.0</ele><time>2026-04-25T09:17:34.001Z</time></trkpt><trkpt lat="45.85552619468956" lon="9.075653077729706"><ele>789.0</ele><time>2026-04-25T09:17:36.001Z</time></trkpt><trkpt lat="45.85552859845118" lon="9.075784027120303"><ele>792.0</ele><time>2026-04-25T09:17:37.001Z</time></trkpt><trkpt lat="45.855524557809346" lon="9.075931414838516"><ele>795.0</ele><time>2026-04-25T09:17:38.001Z</time></trkpt><trkpt lat="45.85552688987387" lon="9.076065025116804"><ele>798.0</ele><time>2026-04-25T09:17:39.001Z</time></trkpt><trkpt lat="45.85553148392873" lon="9.076194028676625"><ele>801.0</ele><time>2026-04-25T09:17:40.001Z</time></trkpt><trkpt lat="45.85553697059018" lon="9.076348097082116"><ele>801.0</ele><time>2026-04-25T09:17:41.001Z</time></trkpt><trkpt lat="45.85554094836186" lon="9.076497010223783"><ele>801.0</ele><time>2026-04-25T09:17:42.001Z</time></trkpt><trkpt lat="45.85555625722393" lon="9.076635974836787"><ele>801.0</ele><time>2026-04-25T09:17:43.001Z</time></trkpt><trkpt lat="45.85556221828624" lon="9.076774906623983"><ele>801.0</ele><time>2026-04-25T09:17:44.001Z</time></trkpt><trkpt lat="45.855561170327114" lon="9.076931537117469"><ele>801.0</ele><time>2026-04-25T09:17:45.001Z</time></trkpt><trkpt lat="45.85558367046527" lon="9.077071490105588"><ele>800.0</ele><time>2026-04-25T09:17:46.001Z</time></trkpt><trkpt lat="45.85562885014" lon="9.077221398043557"><ele>799.0</ele><time>2026-04-25T09:17:47.001Z</time></trkpt><trkpt lat="45.85566152635934" lon="9.077384753249985"><ele>798.0</ele><time>2026-04-25T09:17:48.001Z</time></trkpt><trkpt lat="45.85569603330178" lon="9.077564360071957"><ele>797.0</ele><time>2026-04-25T09:17:49.001Z</time></trkpt><trkpt lat="45.85575137782075" lon="9.0777367866523"><ele>793.75</ele><time>2026-04-25T09:17:50.001Z</time></trkpt><trkpt lat="45.85580298787451" lon="9.077918228529326"><ele>790.5</ele><time>2026-04-25T09:17:51.001Z</time></trkpt><trkpt lat="45.85585319262403" lon="9.078109202799235"><ele>787.25</ele><time>2026-04-25T09:17:52.001Z</time></trkpt><trkpt lat="45.85590912111184" lon="9.078286364417222"><ele>784.0</ele><time>2026-04-25T09:17:53.001Z</time></trkpt><trkpt lat="45.855967242012106" lon="9.07846004842496"><ele>789.0</ele><time>2026-04-25T09:17:54.001Z</time></trkpt><trkpt lat="45.85602311637363" lon="9.07864488617921"><ele>794.0</ele><time>2026-04-25T09:17:55.001Z</time></trkpt><trkpt lat="45.85607884925767" lon="9.078837278351994"><ele>799.0</ele><time>2026-04-25T09:17:56.001Z</time></trkpt><trkpt lat="45.85613674072788" lon="9.079022127617307"><ele>804.0</ele><time>2026-04-25T09:17:57.001Z</time></trkpt><trkpt lat="45.85619130241277" lon="9.079193260532579"><ele>804.0</ele><time>2026-04-25T09:17:58.001Z</time></trkpt><trkpt lat="45.85624689216893" lon="9.079359277839492"><ele>804.0</ele><time>2026-04-25T09:17:59.001Z</time></trkpt><trkpt lat="45.856288105374766" lon="9.079530484201976"><ele>804.0</ele><time>2026-04-25T09:18:00.001Z</time></trkpt><trkpt lat="45.856336634207075" lon="9.07969620960044"><ele>804.0</ele><time>2026-04-25T09:18:01.001Z</time></trkpt><trkpt lat="45.85637064698775" lon="9.079881173800143"><ele>797.25</ele><time>2026-04-25T09:18:02.001Z</time></trkpt><trkpt lat="45.85640586520373" lon="9.080069107892625"><ele>790.5</ele><time>2026-04-25T09:18:03.001Z</time></trkpt><trkpt lat="45.856444485434906" lon="9.080251349758774"><ele>783.75</ele><time>2026-04-25T09:18:04.001Z</time></trkpt><trkpt lat="45.85647521574991" lon="9.080416283827264"><ele>777.0</ele><time>2026-04-25T09:18:05.001Z</time></trkpt><trkpt lat="45.85650708180845" lon="9.080557733819772"><ele>777.0</ele><time>2026-04-25T09:18:06.001Z</time></trkpt><trkpt lat="45.856539666355445" lon="9.080680630759195"><ele>777.0</ele><time>2026-04-25T09:18:07.001Z</time></trkpt><trkpt lat="45.85658936232866" lon="9.08077892982891"><ele>777.0</ele><time>2026-04-25T09:18:08.001Z</time></trkpt><trkpt lat="45.856660082627535" lon="9.080872301127435"><ele>777.0</ele><time>2026-04-25T09:18:09.001Z</time></trkpt><trkpt lat="45.85675506712484" lon="9.08098541967353"><ele>777.0</ele><time>2026-04-25T09:18:10.001Z</time></trkpt><trkpt lat="45.85683337620792" lon="9.081099531136852"><ele>773.0</ele><time>2026-04-25T09:18:11.001Z</time></trkpt><trkpt lat="45.85689998025967" lon="9.081213892736253"><ele>769.0</ele><time>2026-04-25T09:18:12.001Z</time></trkpt><trkpt lat="45.856970387774176" lon="9.081318290603143"><ele>765.0</ele><time>2026-04-25T09:18:13.001Z</time></trkpt><trkpt lat="45.857033561847935" lon="9.081416392804023"><ele>761.0</ele><time>2026-04-25T09:18:14.001Z</time></trkpt><trkpt lat="45.85709482702204" lon="9.081517012451437"><ele>757.0</ele><time>2026-04-25T09:18:15.001Z</time></trkpt><trkpt lat="45.85715202529017" lon="9.081602529927682"><ele>757.0</ele><time>2026-04-25T09:18:16.001Z</time></trkpt><trkpt lat="45.857202148157775" lon="9.081693049834385"><ele>757.0</ele><time>2026-04-25T09:18:17.001Z</time></trkpt><trkpt lat="45.85726270539551" lon="9.081765715661613"><ele>757.0</ele><time>2026-04-25T09:18:18.001Z</time></trkpt><trkpt lat="45.85734790571877" lon="9.08183680319242"><ele>757.0</ele><time>2026-04-25T09:18:19.001Z</time></trkpt><trkpt lat="45.857434156183245" lon="9.081903355355985"><ele>757.0</ele><time>2026-04-25T09:18:20.001Z</time></trkpt><trkpt lat="45.85752135286956" lon="9.081971044518165"><ele>757.0</ele><time>2026-04-25T09:18:21.001Z</time></trkpt><trkpt lat="45.85761325530089" lon="9.082050141475854"><ele>757.0</ele><time>2026-04-25T09:18:22Z</time></trkpt><trkpt lat="45.857703130703925" lon="9.082102020704424"><ele>757.0</ele><time>2026-04-25T09:18:23Z</time></trkpt><trkpt lat="45.857795895318105" lon="9.082141367257304"><ele>757.0</ele><time>2026-04-25T09:18:24Z</time></trkpt><trkpt lat="45.85787938517397" lon="9.082190285112873"><ele>757.0</ele><time>2026-04-25T09:18:25Z</time></trkpt><trkpt lat="45.85797050732644" lon="9.082190975307084"><ele>759.5</ele><time>2026-04-25T09:18:26Z</time></trkpt><trkpt lat="45.85805149027222" lon="9.082187483747848"><ele>762.0</ele><time>2026-04-25T09:18:27Z</time></trkpt><trkpt lat="45.85812407439643" lon="9.08218788072857"><ele>764.5</ele><time>2026-04-25T09:18:28Z</time></trkpt><trkpt lat="45.85824592872542" lon="9.082169121639017"><ele>767.0</ele><time>2026-04-25T09:18:30Z</time></trkpt><trkpt lat="45.85831731512784" lon="9.082152112595328"><ele>769.4999999999999</ele><time>2026-04-25T09:18:31Z</time></trkpt><trkpt lat="45.858386454606766" lon="9.082127416457915"><ele>772.0</ele><time>2026-04-25T09:18:32Z</time></trkpt><trkpt lat="45.8584796485944" lon="9.082100762916683"><ele>775.3333333333333</ele><time>2026-04-25T09:18:33Z</time></trkpt><trkpt lat="45.85855315777533" lon="9.08205275410742"><ele>778.6666666666666</ele><time>2026-04-25T09:18:34Z</time></trkpt><trkpt lat="45.85863641107705" lon="9.082068526520668"><ele>782.0</ele><time>2026-04-25T09:18:35Z</time></trkpt><trkpt lat="45.85866724384243" lon="9.082170198824954"><ele>785.3333333333333</ele><time>2026-04-25T09:18:36Z</time></trkpt><trkpt lat="45.85870584564871" lon="9.082264112207989"><ele>788.6666666666666</ele><time>2026-04-25T09:18:37Z</time></trkpt><trkpt lat="45.85877224611702" lon="9.082334324256411"><ele>792.0</ele><time>2026-04-25T09:18:38Z</time></trkpt><trkpt lat="45.85885461188402" lon="9.082426520181869"><ele>785.6666666666666</ele><time>2026-04-25T09:18:39Z</time></trkpt><trkpt lat="45.85892091967216" lon="9.082530588463673"><ele>779.3333333333334</ele><time>2026-04-25T09:18:40Z</time></trkpt><trkpt lat="45.85899103846554" lon="9.082631990402792"><ele>773.0</ele><time>2026-04-25T09:18:41Z</time></trkpt><trkpt lat="45.85904396515902" lon="9.082741829491564"><ele>766.6666666666667</ele><time>2026-04-25T09:18:42Z</time></trkpt><trkpt lat="45.85908534340586" lon="9.082829920998037"><ele>760.3333333333334</ele><time>2026-04-25T09:18:43Z</time></trkpt><trkpt lat="45.8591138704482" lon="9.082927607534119"><ele>754.0</ele><time>2026-04-25T09:18:44Z</time></trkpt><trkpt lat="45.85917172752789" lon="9.083020821301671"><ele>754.0</ele><time>2026-04-25T09:18:45Z</time></trkpt><trkpt lat="45.85926331074779" lon="9.083086976260063"><ele>754.0</ele><time>2026-04-25T09:18:46Z</time></trkpt><trkpt lat="45.859360706486356" lon="9.083138877593749"><ele>754.0</ele><time>2026-04-25T09:18:47Z</time></trkpt><trkpt lat="45.85944976974252" lon="9.083184970221142"><ele>754.0</ele><time>2026-04-25T09:18:48Z</time></trkpt><trkpt lat="45.85954895206149" lon="9.083239590933022"><ele>754.0</ele><time>2026-04-25T09:18:49Z</time></trkpt><trkpt lat="45.85961620212345" lon="9.083296355110484"><ele>753.5</ele><time>2026-04-25T09:18:50Z</time></trkpt><trkpt lat="45.85965924892427" lon="9.083366914032156"><ele>753.0</ele><time>2026-04-25T09:18:51Z</time></trkpt><trkpt lat="45.859711213956075" lon="9.08346305199638"><ele>752.5</ele><time>2026-04-25T09:18:52Z</time></trkpt><trkpt lat="45.85973521107503" lon="9.083598023458382"><ele>752.0</ele><time>2026-04-25T09:18:53Z</time></trkpt><trkpt lat="45.8597517808006" lon="9.083729344505869"><ele>751.5</ele><time>2026-04-25T09:18:54Z</time></trkpt><trkpt lat="45.85976504562982" lon="9.08384535272296"><ele>751.0</ele><time>2026-04-25T09:18:55Z</time></trkpt><trkpt lat="45.85980817583867" lon="9.083952224345046"><ele>751.0</ele><time>2026-04-25T09:18:56Z</time></trkpt><trkpt lat="45.85985804125863" lon="9.084041475208267"><ele>751.0</ele><time>2026-04-25T09:18:57Z</time></trkpt><trkpt lat="45.859914246479505" lon="9.084138099256279"><ele>751.0</ele><time>2026-04-25T09:18:58Z</time></trkpt><trkpt lat="45.85996113040407" lon="9.08424101445487"><ele>751.0</ele><time>2026-04-25T09:18:59Z</time></trkpt><trkpt lat="45.860006316642846" lon="9.084372586931558"><ele>751.0</ele><time>2026-04-25T09:19:00Z</time></trkpt><trkpt lat="45.860051112276565" lon="9.084516328185119"><ele>750.0</ele><time>2026-04-25T09:19:01Z</time></trkpt><trkpt lat="45.86009623196425" lon="9.084662949653282"><ele>749.0</ele><time>2026-04-25T09:19:02Z</time></trkpt><trkpt lat="45.86015348971247" lon="9.084793848108122"><ele>748.0</ele><time>2026-04-25T09:19:03Z</time></trkpt><trkpt lat="45.86019064267078" lon="9.084931221498833"><ele>747.0</ele><time>2026-04-25T09:19:04Z</time></trkpt><trkpt lat="45.86023224342638" lon="9.085053530469105"><ele>746.0</ele><time>2026-04-25T09:19:05Z</time></trkpt><trkpt lat="45.86027230325357" lon="9.085164538822518"><ele>746.0</ele><time>2026-04-25T09:19:06Z</time></trkpt><trkpt lat="45.86032119180782" lon="9.085258921298884"><ele>746.0</ele><time>2026-04-25T09:19:07Z</time></trkpt><trkpt lat="45.86038452484429" lon="9.085355907164347"><ele>746.0</ele><time>2026-04-25T09:19:08Z</time></trkpt><trkpt lat="45.86047231471115" lon="9.085472058341812"><ele>746.0</ele><time>2026-04-25T09:19:09Z</time></trkpt><trkpt lat="45.860554963352044" lon="9.085596437973036"><ele>746.0</ele><time>2026-04-25T09:19:10Z</time></trkpt><trkpt lat="45.86064404776157" lon="9.085725858903999"><ele>743.4</ele><time>2026-04-25T09:19:11Z</time></trkpt><trkpt lat="45.8607115237797" lon="9.085833914052724"><ele>740.8</ele><time>2026-04-25T09:19:12Z</time></trkpt><trkpt lat="45.86079103907172" lon="9.085939467865773"><ele>738.1999999999999</ele><time>2026-04-25T09:19:13Z</time></trkpt><trkpt lat="45.86086299251153" lon="9.086041614284696"><ele>735.5999999999999</ele><time>2026-04-25T09:19:14Z</time></trkpt><trkpt lat="45.86095582129999" lon="9.086133269700104"><ele>733.0</ele><time>2026-04-25T09:19:15Z</time></trkpt><trkpt lat="45.86106250287215" lon="9.086218289226359"><ele>733.0</ele><time>2026-04-25T09:19:16Z</time></trkpt><trkpt lat="45.861163602990295" lon="9.086294875131173"><ele>733.0</ele><time>2026-04-25T09:19:17Z</time></trkpt><trkpt lat="45.86126274203833" lon="9.086400847153925"><ele>733.0</ele><time>2026-04-25T09:19:18Z</time></trkpt><trkpt lat="45.86136006787057" lon="9.086488126594256"><ele>733.0</ele><time>2026-04-25T09:19:19Z</time></trkpt><trkpt lat="45.861428346630866" lon="9.086602354171513"><ele>727.6666666666667</ele><time>2026-04-25T09:19:20Z</time></trkpt><trkpt lat="45.861508148994886" lon="9.08669480275619"><ele>722.3333333333334</ele><time>2026-04-25T09:19:21Z</time></trkpt><trkpt lat="45.86158184027594" lon="9.086768607623833"><ele>717.0</ele><time>2026-04-25T09:19:22Z</time></trkpt><trkpt lat="45.86165708727531" lon="9.086838560361182"><ele>711.6666666666666</ele><time>2026-04-25T09:19:23.001Z</time></trkpt><trkpt lat="45.86172969764019" lon="9.086896158609202"><ele>706.3333333333333</ele><time>2026-04-25T09:19:24.001Z</time></trkpt><trkpt lat="45.86179018272127" lon="9.086929525452565"><ele>701.0</ele><time>2026-04-25T09:19:25.001Z</time></trkpt><trkpt lat="45.86184219212425" lon="9.086985374229098"><ele>701.0</ele><time>2026-04-25T09:19:27.001Z</time></trkpt><trkpt lat="45.861785560552654" lon="9.087049903316837"><ele>701.0</ele><time>2026-04-25T09:19:29.001Z</time></trkpt><trkpt lat="45.861708684337714" lon="9.087018854560375"><ele>701.0</ele><time>2026-04-25T09:19:30.001Z</time></trkpt><trkpt lat="45.861620376500206" lon="9.08695569537678"><ele>701.0</ele><time>2026-04-25T09:19:31.001Z</time></trkpt><trkpt lat="45.86151658053279" lon="9.086893972024868"><ele>701.0</ele><time>2026-04-25T09:19:32.001Z</time></trkpt><trkpt lat="45.86139995057272" lon="9.086811542760808"><ele>701.0</ele><time>2026-04-25T09:19:33.001Z</time></trkpt><trkpt lat="45.861281494959194" lon="9.086737090291024"><ele>701.0</ele><time>2026-04-25T09:19:34.001Z</time></trkpt><trkpt lat="45.861165612548874" lon="9.086656415424416"><ele>701.0</ele><time>2026-04-25T09:19:35.001Z</time></trkpt><trkpt lat="45.861045889382154" lon="9.08659343008228"><ele>701.0</ele><time>2026-04-25T09:19:36.001Z</time></trkpt><trkpt lat="45.860932475343596" lon="9.086535332166832"><ele>703.1999999999999</ele><time>2026-04-25T09:19:37.001Z</time></trkpt><trkpt lat="45.860821975451756" lon="9.08647692783296"><ele>705.4</ele><time>2026-04-25T09:19:38.001Z</time></trkpt><trkpt lat="45.86073267261202" lon="9.086437589014153"><ele>707.6</ele><time>2026-04-25T09:19:39.001Z</time></trkpt><trkpt lat="45.86063057361553" lon="9.086417309806707"><ele>709.8</ele><time>2026-04-25T09:19:40.001Z</time></trkpt><trkpt lat="45.86055225579995" lon="9.086390305842192"><ele>712.0</ele><time>2026-04-25T09:19:41.001Z</time></trkpt><trkpt lat="45.86049028956613" lon="9.086325370835645"><ele>712.0</ele><time>2026-04-25T09:19:42.001Z</time></trkpt><trkpt lat="45.860426040038156" lon="9.086231411469356"><ele>712.0</ele><time>2026-04-25T09:19:43.001Z</time></trkpt><trkpt lat="45.86034201168775" lon="9.086141167915025"><ele>712.0</ele><time>2026-04-25T09:19:44.001Z</time></trkpt><trkpt lat="45.860252205314545" lon="9.08605838331217"><ele>712.0</ele><time>2026-04-25T09:19:45.001Z</time></trkpt><trkpt lat="45.86016994628838" lon="9.085964642969788"><ele>712.0</ele><time>2026-04-25T09:19:46.001Z</time></trkpt><trkpt lat="45.860092233889596" lon="9.085874977400497"><ele>711.0</ele><time>2026-04-25T09:19:47.001Z</time></trkpt><trkpt lat="45.860012627247876" lon="9.085820265475933"><ele>710.0</ele><time>2026-04-25T09:19:48.001Z</time></trkpt><trkpt lat="45.85991766196727" lon="9.085804183855442"><ele>709.0</ele><time>2026-04-25T09:19:49.001Z</time></trkpt><trkpt lat="45.85981563848115" lon="9.085797746567525"><ele>708.0</ele><time>2026-04-25T09:19:50.001Z</time></trkpt><trkpt lat="45.85972713907055" lon="9.085766819399161"><ele>707.0</ele><time>2026-04-25T09:19:51.001Z</time></trkpt><trkpt lat="45.859656866723874" lon="9.085713163802092"><ele>707.0</ele><time>2026-04-25T09:19:52.001Z</time></trkpt><trkpt lat="45.859600816210325" lon="9.085642556772116"><ele>707.0</ele><time>2026-04-25T09:19:53.001Z</time></trkpt><trkpt lat="45.859549857393276" lon="9.085560789408223"><ele>707.0</ele><time>2026-04-25T09:19:54.001Z</time></trkpt><trkpt lat="45.859478552771165" lon="9.085488818771534"><ele>707.0</ele><time>2026-04-25T09:19:56.001Z</time></trkpt><trkpt lat="45.85941304053234" lon="9.08554010528942"><ele>707.0</ele><time>2026-04-25T09:19:57.001Z</time></trkpt><trkpt lat="45.85938216689663" lon="9.085636362563777"><ele>707.0</ele><time>2026-04-25T09:19:58.001Z</time></trkpt><trkpt lat="45.8594698816881" lon="9.085777183291468"><ele>702.4000000000001</ele><time>2026-04-25T09:19:59.001Z</time></trkpt><trkpt lat="45.85953924898047" lon="9.085852428479804"><ele>697.8000000000001</ele><time>2026-04-25T09:20:00.001Z</time></trkpt><trkpt lat="45.85962647671891" lon="9.085909920006461"><ele>693.2</ele><time>2026-04-25T09:20:01.001Z</time></trkpt><trkpt lat="45.85970821961661" lon="9.08600565214145"><ele>688.6</ele><time>2026-04-25T09:20:02.001Z</time></trkpt><trkpt lat="45.85981771235548" lon="9.08609485839286"><ele>684.0</ele><time>2026-04-25T09:20:03.001Z</time></trkpt><trkpt lat="45.85991588450604" lon="9.086177073555024"><ele>684.0</ele><time>2026-04-25T09:20:04.001Z</time></trkpt><trkpt lat="45.86000109947519" lon="9.086274588277771"><ele>684.0</ele><time>2026-04-25T09:20:05.001Z</time></trkpt><trkpt lat="45.86007188602964" lon="9.086407648975793"><ele>684.0</ele><time>2026-04-25T09:20:06.001Z</time></trkpt><trkpt lat="45.86015732631475" lon="9.086587511580058"><ele>684.0</ele><time>2026-04-25T09:20:07.001Z</time></trkpt><trkpt lat="45.86026749656846" lon="9.086753751492465"><ele>683.0</ele><time>2026-04-25T09:20:08.001Z</time></trkpt><trkpt lat="45.86034491799988" lon="9.086948311597123"><ele>682.0</ele><time>2026-04-25T09:20:09.001Z</time></trkpt><trkpt lat="45.860430949929956" lon="9.087129804058739"><ele>681.0</ele><time>2026-04-25T09:20:10.001Z</time></trkpt><trkpt lat="45.86054563091691" lon="9.087285356811593"><ele>674.5</ele><time>2026-04-25T09:20:11.001Z</time></trkpt><trkpt lat="45.86063213367527" lon="9.087454268049486"><ele>668.0</ele><time>2026-04-25T09:20:12.001Z</time></trkpt><trkpt lat="45.86070156856036" lon="9.087628476403854"><ele>661.5</ele><time>2026-04-25T09:20:13.001Z</time></trkpt><trkpt lat="45.860742363554465" lon="9.08779526645151"><ele>655.0</ele><time>2026-04-25T09:20:14.001Z</time></trkpt><trkpt lat="45.86079420576377" lon="9.087952521382928"><ele>655.0</ele><time>2026-04-25T09:20:15.001Z</time></trkpt><trkpt lat="45.860821822639124" lon="9.08808268964105"><ele>655.0</ele><time>2026-04-25T09:20:16.001Z</time></trkpt><trkpt lat="45.860838930001094" lon="9.088328166436327"><ele>655.0</ele><time>2026-04-25T09:20:17.001Z</time></trkpt><trkpt lat="45.86080108613079" lon="9.087910757484558"><ele>655.0</ele><time>2026-04-25T09:20:18.001Z</time></trkpt><trkpt lat="45.86081465889669" lon="9.088048566558191"><ele>655.0</ele><time>2026-04-25T09:20:19.001Z</time></trkpt><trkpt lat="45.860831449357846" lon="9.088163064655507"><ele>655.0</ele><time>2026-04-25T09:20:20.001Z</time></trkpt><trkpt lat="45.860841634129415" lon="9.08825999315753"><ele>655.0</ele><time>2026-04-25T09:20:21.001Z</time></trkpt><trkpt lat="45.86085167250222" lon="9.088375887749779"><ele>655.0</ele><time>2026-04-25T09:20:22.001Z</time></trkpt><trkpt lat="45.86087455003702" lon="9.088496410175464"><ele>655.0</ele><time>2026-04-25T09:20:23.001Z</time></trkpt><trkpt lat="45.86092238532248" lon="9.08864885183666"><ele>655.2</ele><time>2026-04-25T09:20:24.001Z</time></trkpt><trkpt lat="45.86097948324684" lon="9.088782059348494"><ele>655.4</ele><time>2026-04-25T09:20:25.001Z</time></trkpt><trkpt lat="45.86103721398789" lon="9.088924400212592"><ele>655.5999999999999</ele><time>2026-04-25T09:20:26.001Z</time></trkpt><trkpt lat="45.86108250464004" lon="9.089046358902026"><ele>655.8</ele><time>2026-04-25T09:20:27.001Z</time></trkpt><trkpt lat="45.86114031656849" lon="9.089176946975636"><ele>656.0</ele><time>2026-04-25T09:20:27.998Z</time></trkpt><trkpt lat="45.8612121044633" lon="9.089300356872585"><ele>656.0</ele><time>2026-04-25T09:20:28.998Z</time></trkpt><trkpt lat="45.86130238906301" lon="9.089389363455764"><ele>656.0</ele><time>2026-04-25T09:20:29.998Z</time></trkpt><trkpt lat="45.861385249184075" lon="9.089488291592938"><ele>656.0</ele><time>2026-04-25T09:20:30.998Z</time></trkpt><trkpt lat="45.861455484178826" lon="9.089568388921288"><ele>656.0</ele><time>2026-04-25T09:20:31.998Z</time></trkpt><trkpt lat="45.8615140363461" lon="9.089667013225656"><ele>656.0</ele><time>2026-04-25T09:20:32.998Z</time></trkpt><trkpt lat="45.86159775299711" lon="9.089686016276394"><ele>656.0</ele><time>2026-04-25T09:20:33.998Z</time></trkpt><trkpt lat="45.8617165055457" lon="9.089704565231369"><ele>656.0</ele><time>2026-04-25T09:20:34.998Z</time></trkpt><trkpt lat="45.86181259976954" lon="9.089731090446332"><ele>656.0</ele><time>2026-04-25T09:20:35.998Z</time></trkpt><trkpt lat="45.8619010978516" lon="9.089794265979485"><ele>656.0</ele><time>2026-04-25T09:20:36.998Z</time></trkpt><trkpt lat="45.86199034890567" lon="9.089862828767545"><ele>656.0</ele><time>2026-04-25T09:20:37.998Z</time></trkpt><trkpt lat="45.86207855758387" lon="9.089930590859577"><ele>647.75</ele><time>2026-04-25T09:20:38.998Z</time></trkpt><trkpt lat="45.8621739584566" lon="9.090028422559554"><ele>639.5</ele><time>2026-04-25T09:20:40.998Z</time></trkpt><trkpt lat="45.86230280885869" lon="9.090020855435071"><ele>631.25</ele><time>2026-04-25T09:20:41.998Z</time></trkpt><trkpt lat="45.86245169935184" lon="9.090000288986792"><ele>623.0</ele><time>2026-04-25T09:20:42.998Z</time></trkpt><trkpt lat="45.86255061937177" lon="9.08998826760076"><ele>623.0</ele><time>2026-04-25T09:20:43.998Z</time></trkpt><trkpt lat="45.86262708063791" lon="9.089996841480303"><ele>623.0</ele><time>2026-04-25T09:20:44.998Z</time></trkpt><trkpt lat="45.86259908974937" lon="9.090084200383023"><ele>623.0</ele><time>2026-04-25T09:20:47.998Z</time></trkpt><trkpt lat="45.86249718388374" lon="9.090130484529569"><ele>623.0</ele><time>2026-04-25T09:20:49.999Z</time></trkpt><trkpt lat="45.86242161246829" lon="9.090136762407425"><ele>623.0</ele><time>2026-04-25T09:20:50.999Z</time></trkpt><trkpt lat="45.862338839753725" lon="9.090125978259938"><ele>623.0</ele><time>2026-04-25T09:20:51.999Z</time></trkpt><trkpt lat="45.86223442219811" lon="9.090129728249387"><ele>623.0</ele><time>2026-04-25T09:20:52.999Z</time></trkpt><trkpt lat="45.86214397290628" lon="9.090125629724728"><ele>623.0</ele><time>2026-04-25T09:20:53.999Z</time></trkpt><trkpt lat="45.862033355179435" lon="9.090111975197273"><ele>623.0</ele><time>2026-04-25T09:20:54.999Z</time></trkpt><trkpt lat="45.86192532661687" lon="9.090079927486357"><ele>623.0</ele><time>2026-04-25T09:20:55.999Z</time></trkpt><trkpt lat="45.861814996963645" lon="9.090043136355195"><ele>623.0</ele><time>2026-04-25T09:20:56.999Z</time></trkpt><trkpt lat="45.861704822128644" lon="9.090060363797829"><ele>623.1999999999999</ele><time>2026-04-25T09:20:57.999Z</time></trkpt><trkpt lat="45.86160140973208" lon="9.090086306823423"><ele>623.4</ele><time>2026-04-25T09:20:58.999Z</time></trkpt><trkpt lat="45.86150069209642" lon="9.090093843620538"><ele>623.5999999999999</ele><time>2026-04-25T09:20:59.999Z</time></trkpt><trkpt lat="45.86140208068672" lon="9.090072111583194"><ele>623.8</ele><time>2026-04-25T09:21:00.999Z</time></trkpt><trkpt lat="45.861307560279634" lon="9.09002756571863"><ele>624.0</ele><time>2026-04-25T09:21:01.999Z</time></trkpt><trkpt lat="45.861216723875" lon="9.089978116548354"><ele>624.0</ele><time>2026-04-25T09:21:02.999Z</time></trkpt><trkpt lat="45.861116653684334" lon="9.089940498136707"><ele>624.0</ele><time>2026-04-25T09:21:03.999Z</time></trkpt><trkpt lat="45.86102105193121" lon="9.089884844625521"><ele>624.0</ele><time>2026-04-25T09:21:04.999Z</time></trkpt><trkpt lat="45.86090762437438" lon="9.089806284177463"><ele>624.0</ele><time>2026-04-25T09:21:05.999Z</time></trkpt><trkpt lat="45.860796180698" lon="9.089714155991482"><ele>625.25</ele><time>2026-04-25T09:21:06.999Z</time></trkpt><trkpt lat="45.86069255510434" lon="9.089607497121554"><ele>626.5</ele><time>2026-04-25T09:21:07.999Z</time></trkpt><trkpt lat="45.86059007306514" lon="9.089528533002243"><ele>627.75</ele><time>2026-04-25T09:21:08.999Z</time></trkpt><trkpt lat="45.86048660873074" lon="9.089451334632987"><ele>629.0</ele><time>2026-04-25T09:21:09.999Z</time></trkpt><trkpt lat="45.86040417930668" lon="9.089359615083621"><ele>629.0</ele><time>2026-04-25T09:21:10.999Z</time></trkpt><trkpt lat="45.860303884399805" lon="9.089279170125055"><ele>629.0</ele><time>2026-04-25T09:21:11.999Z</time></trkpt><trkpt lat="45.86022933425575" lon="9.089147611323641"><ele>629.0</ele><time>2026-04-25T09:21:12.999Z</time></trkpt><trkpt lat="45.86015573869531" lon="9.089001928396149"><ele>629.0</ele><time>2026-04-25T09:21:13.999Z</time></trkpt><trkpt lat="45.86008759915343" lon="9.088867475349456"><ele>624.25</ele><time>2026-04-25T09:21:14.999Z</time></trkpt><trkpt lat="45.86001328502376" lon="9.088745978154138"><ele>619.5</ele><time>2026-04-25T09:21:16Z</time></trkpt><trkpt lat="45.85992862011482" lon="9.08864598671514"><ele>614.75</ele><time>2026-04-25T09:21:17Z</time></trkpt><trkpt lat="45.859827324740536" lon="9.088565343400406"><ele>610.0</ele><time>2026-04-25T09:21:18Z</time></trkpt><trkpt lat="45.859714500856924" lon="9.088470476522588"><ele>610.0</ele><time>2026-04-25T09:21:19Z</time></trkpt><trkpt lat="45.859598602131335" lon="9.088380388816269"><ele>610.0</ele><time>2026-04-25T09:21:20Z</time></trkpt><trkpt lat="45.85947833630995" lon="9.088304018026388"><ele>610.0</ele><time>2026-04-25T09:21:21Z</time></trkpt><trkpt lat="45.85934830096074" lon="9.088255059027377"><ele>610.0</ele><time>2026-04-25T09:21:22Z</time></trkpt><trkpt lat="45.85922935769017" lon="9.08819303180949"><ele>609.0</ele><time>2026-04-25T09:21:23Z</time></trkpt><trkpt lat="45.859140668116616" lon="9.088133253503143"><ele>608.0</ele><time>2026-04-25T09:21:24Z</time></trkpt><trkpt lat="45.859063805212145" lon="9.088065016688587"><ele>607.0</ele><time>2026-04-25T09:21:25Z</time></trkpt><trkpt lat="45.85900860024783" lon="9.08798155503589"><ele>606.0</ele><time>2026-04-25T09:21:26Z</time></trkpt><trkpt lat="45.85896128192022" lon="9.087875388764614"><ele>605.0</ele><time>2026-04-25T09:21:27Z</time></trkpt><trkpt lat="45.85891020365127" lon="9.087751184428248"><ele>605.0</ele><time>2026-04-25T09:21:28Z</time></trkpt><trkpt lat="45.85884278668376" lon="9.087662982888732"><ele>605.0</ele><time>2026-04-25T09:21:29Z</time></trkpt><trkpt lat="45.85878077419808" lon="9.08760640993382"><ele>605.0</ele><time>2026-04-25T09:21:30Z</time></trkpt><trkpt lat="45.8586878219656" lon="9.0875515526376"><ele>605.0</ele><time>2026-04-25T09:21:31Z</time></trkpt><trkpt lat="45.8585743192452" lon="9.087471323202205"><ele>605.0</ele><time>2026-04-25T09:21:32Z</time></trkpt><trkpt lat="45.85846036479119" lon="9.08738612997756"><ele>606.25</ele><time>2026-04-25T09:21:33Z</time></trkpt><trkpt lat="45.858353001625524" lon="9.08731052139613"><ele>607.5</ele><time>2026-04-25T09:21:34Z</time></trkpt><trkpt lat="45.85824017232685" lon="9.087257770140784"><ele>608.75</ele><time>2026-04-25T09:21:35Z</time></trkpt><trkpt lat="45.85815588760387" lon="9.087212537845598"><ele>610.0</ele><time>2026-04-25T09:21:36Z</time></trkpt><trkpt lat="45.858029479335165" lon="9.087161457795855"><ele>610.0</ele><time>2026-04-25T09:21:37Z</time></trkpt><trkpt lat="45.857896269985176" lon="9.08711676390534"><ele>610.0</ele><time>2026-04-25T09:21:38Z</time></trkpt><trkpt lat="45.85779829461017" lon="9.087109563885111"><ele>610.0</ele><time>2026-04-25T09:21:39Z</time></trkpt><trkpt lat="45.85768696311065" lon="9.087040875306387"><ele>610.0</ele><time>2026-04-25T09:21:41Z</time></trkpt><trkpt lat="45.85762483665969" lon="9.08700252622678"><ele>610.0</ele><time>2026-04-25T09:21:42Z</time></trkpt><trkpt lat="45.85754869807895" lon="9.086952883466617"><ele>610.2</ele><time>2026-04-25T09:21:43Z</time></trkpt><trkpt lat="45.85746983174897" lon="9.086861104735695"><ele>610.4</ele><time>2026-04-25T09:21:44Z</time></trkpt><trkpt lat="45.85740161711894" lon="9.08676467548653"><ele>610.6</ele><time>2026-04-25T09:21:45Z</time></trkpt><trkpt lat="45.857351376310056" lon="9.086642026321236"><ele>610.8</ele><time>2026-04-25T09:21:46Z</time></trkpt><trkpt lat="45.857315601700996" lon="9.086516558878264"><ele>611.0</ele><time>2026-04-25T09:21:47Z</time></trkpt><trkpt lat="45.857275623786194" lon="9.086416881103679"><ele>611.0</ele><time>2026-04-25T09:21:48Z</time></trkpt><trkpt lat="45.85719629184542" lon="9.086342568111478"><ele>611.0</ele><time>2026-04-25T09:21:49Z</time></trkpt><trkpt lat="45.85708475357023" lon="9.086275279712419"><ele>611.0</ele><time>2026-04-25T09:21:50Z</time></trkpt><trkpt lat="45.85696029284654" lon="9.086235992414544"><ele>611.0</ele><time>2026-04-25T09:21:51Z</time></trkpt><trkpt lat="45.85684781613072" lon="9.086186551910922"><ele>605.6</ele><time>2026-04-25T09:21:52Z</time></trkpt><trkpt lat="45.856745469243634" lon="9.086178618801377"><ele>600.2</ele><time>2026-04-25T09:21:53Z</time></trkpt><trkpt lat="45.85663613552299" lon="9.086223815182741"><ele>594.8</ele><time>2026-04-25T09:21:54Z</time></trkpt><trkpt lat="45.85655988380727" lon="9.086229261454436"><ele>589.4</ele><time>2026-04-25T09:21:55Z</time></trkpt><trkpt lat="45.85648406625295" lon="9.086288755633513"><ele>584.0</ele><time>2026-04-25T09:21:56Z</time></trkpt><trkpt lat="45.856390041828625" lon="9.086378282410774"><ele>584.0</ele><time>2026-04-25T09:21:57Z</time></trkpt><trkpt lat="45.856279789810614" lon="9.086476024199559"><ele>584.0</ele><time>2026-04-25T09:21:58Z</time></trkpt><trkpt lat="45.85619876636389" lon="9.086539144697895"><ele>584.0</ele><time>2026-04-25T09:21:59Z</time></trkpt><trkpt lat="45.85613716350582" lon="9.086580741883175"><ele>584.0</ele><time>2026-04-25T09:22:00Z</time></trkpt><trkpt lat="45.85607170244051" lon="9.086555578216895"><ele>584.0</ele><time>2026-04-25T09:22:01Z</time></trkpt><trkpt lat="45.85599277122076" lon="9.086509142109419"><ele>584.0</ele><time>2026-04-25T09:22:02Z</time></trkpt><trkpt lat="45.85589513861319" lon="9.086440428273091"><ele>580.25</ele><time>2026-04-25T09:22:03Z</time></trkpt><trkpt lat="45.85578195851429" lon="9.086363295999202"><ele>576.5</ele><time>2026-04-25T09:22:04.001Z</time></trkpt><trkpt lat="45.855662676756715" lon="9.086294796312375"><ele>572.75</ele><time>2026-04-25T09:22:05.001Z</time></trkpt><trkpt lat="45.855555499737974" lon="9.086217754601083"><ele>569.0</ele><time>2026-04-25T09:22:06.001Z</time></trkpt><trkpt lat="45.85545984023819" lon="9.086144159341751"><ele>569.0</ele><time>2026-04-25T09:22:07.001Z</time></trkpt><trkpt lat="45.85537808258002" lon="9.086080580359923"><ele>569.0</ele><time>2026-04-25T09:22:08.001Z</time></trkpt><trkpt lat="45.85528882383451" lon="9.08601999074093"><ele>569.0</ele><time>2026-04-25T09:22:10.001Z</time></trkpt><trkpt lat="45.85519368106101" lon="9.085971589307478"><ele>569.0</ele><time>2026-04-25T09:22:11.001Z</time></trkpt><trkpt lat="45.85511423569857" lon="9.085925177936273"><ele>569.0</ele><time>2026-04-25T09:22:12.001Z</time></trkpt><trkpt lat="45.85504521790277" lon="9.085880651842999"><ele>566.2</ele><time>2026-04-25T09:22:13.001Z</time></trkpt><trkpt lat="45.854990787473355" lon="9.08579876985829"><ele>563.4</ele><time>2026-04-25T09:22:14.001Z</time></trkpt><trkpt lat="45.85494897085115" lon="9.085696190464125"><ele>560.6</ele><time>2026-04-25T09:22:15.001Z</time></trkpt><trkpt lat="45.854921512058695" lon="9.08555461070504"><ele>557.8</ele><time>2026-04-25T09:22:16.001Z</time></trkpt><trkpt lat="45.85487183978968" lon="9.085399039466015"><ele>555.0</ele><time>2026-04-25T09:22:17.001Z</time></trkpt><trkpt lat="45.85482980675261" lon="9.08522490970685"><ele>555.0</ele><time>2026-04-25T09:22:18.001Z</time></trkpt><trkpt lat="45.85478971894609" lon="9.085044399273318"><ele>555.0</ele><time>2026-04-25T09:22:19.001Z</time></trkpt><trkpt lat="45.85474646858009" lon="9.084859054475594"><ele>555.0</ele><time>2026-04-25T09:22:20.001Z</time></trkpt><trkpt lat="45.85471063074895" lon="9.084673941423732"><ele>555.0</ele><time>2026-04-25T09:22:21.001Z</time></trkpt><trkpt lat="45.85468329997189" lon="9.084496840190642"><ele>559.0</ele><time>2026-04-25T09:22:22.001Z</time></trkpt><trkpt lat="45.85465036422375" lon="9.084337320563485"><ele>563.0</ele><time>2026-04-25T09:22:23.001Z</time></trkpt><trkpt lat="45.85460175269222" lon="9.084180791233466"><ele>567.0</ele><time>2026-04-25T09:22:24.001Z</time></trkpt><trkpt lat="45.85455261705613" lon="9.084037117882984"><ele>571.0</ele><time>2026-04-25T09:22:25.001Z</time></trkpt><trkpt lat="45.854487475623934" lon="9.083918396665739"><ele>575.5</ele><time>2026-04-25T09:22:26.001Z</time></trkpt><trkpt lat="45.85438560631212" lon="9.083784121797052"><ele>580.0</ele><time>2026-04-25T09:22:27.001Z</time></trkpt><trkpt lat="45.85428611270246" lon="9.083670459057242"><ele>584.5</ele><time>2026-04-25T09:22:28.001Z</time></trkpt><trkpt lat="45.854205918833806" lon="9.083572344663398"><ele>589.0</ele><time>2026-04-25T09:22:29.001Z</time></trkpt><trkpt lat="45.854122205047496" lon="9.0834755765623"><ele>579.4</ele><time>2026-04-25T09:22:30.001Z</time></trkpt><trkpt lat="45.85406039097916" lon="9.083387653129769"><ele>569.8</ele><time>2026-04-25T09:22:31.001Z</time></trkpt><trkpt lat="45.854003258148204" lon="9.083331075016932"><ele>560.2</ele><time>2026-04-25T09:22:32.001Z</time></trkpt><trkpt lat="45.85392921446196" lon="9.083414227483955"><ele>550.6</ele><time>2026-04-25T09:22:33.997Z</time></trkpt><trkpt lat="45.853989957858424" lon="9.08355863385915"><ele>541.0</ele><time>2026-04-25T09:22:35.997Z</time></trkpt><trkpt lat="45.8540470526525" lon="9.083661891843484"><ele>541.0</ele><time>2026-04-25T09:22:36.997Z</time></trkpt><trkpt lat="45.854119802627416" lon="9.083808050048267"><ele>541.0</ele><time>2026-04-25T09:22:37.997Z</time></trkpt><trkpt lat="45.8541692170157" lon="9.083907306947905"><ele>541.0</ele><time>2026-04-25T09:22:38.997Z</time></trkpt><trkpt lat="45.85421925907976" lon="9.084011240815576"><ele>541.0</ele><time>2026-04-25T09:22:39.997Z</time></trkpt><trkpt lat="45.85425630025775" lon="9.084088553080925"><ele>541.0</ele><time>2026-04-25T09:22:40.998Z</time></trkpt><trkpt lat="45.85429786757786" lon="9.084212580542049"><ele>541.0</ele><time>2026-04-25T09:22:42.998Z</time></trkpt><trkpt lat="45.854201546917665" lon="9.08425437358338"><ele>541.0</ele><time>2026-04-25T09:22:44.998Z</time></trkpt><trkpt lat="45.85413005354635" lon="9.084104914981017"><ele>541.0</ele><time>2026-04-25T09:22:46.998Z</time></trkpt><trkpt lat="45.85406689290211" lon="9.083996084401651"><ele>541.0</ele><time>2026-04-25T09:22:47.998Z</time></trkpt><trkpt lat="45.85399604617581" lon="9.083875427709193"><ele>541.0</ele><time>2026-04-25T09:22:48.998Z</time></trkpt><trkpt lat="45.853916190197694" lon="9.08374185371103"><ele>541.0</ele><time>2026-04-25T09:22:49.998Z</time></trkpt><trkpt lat="45.85385707613764" lon="9.083625462373144"><ele>541.0</ele><time>2026-04-25T09:22:50.998Z</time></trkpt><trkpt lat="45.8537946446384" lon="9.08349707765821"><ele>541.0</ele><time>2026-04-25T09:22:51.998Z</time></trkpt><trkpt lat="45.85373818941446" lon="9.083368625999501"><ele>541.0</ele><time>2026-04-25T09:22:52.998Z</time></trkpt><trkpt lat="45.85370009646001" lon="9.083221709373792"><ele>541.0</ele><time>2026-04-25T09:22:53.998Z</time></trkpt><trkpt lat="45.85366132455957" lon="9.083091102772737"><ele>545.0</ele><time>2026-04-25T09:22:54.999Z</time></trkpt><trkpt lat="45.853630808082876" lon="9.082992832713442"><ele>549.0</ele><time>2026-04-25T09:22:55.999Z</time></trkpt><trkpt lat="45.85360079935783" lon="9.082860498138542"><ele>553.0</ele><time>2026-04-25T09:22:56.999Z</time></trkpt><trkpt lat="45.853574565941805" lon="9.08274636456828"><ele>557.0</ele><time>2026-04-25T09:22:57.999Z</time></trkpt><trkpt lat="45.85354208244702" lon="9.082631365366666"><ele>561.0</ele><time>2026-04-25T09:22:58.999Z</time></trkpt><trkpt lat="45.853508528017926" lon="9.082522896289221"><ele>565.0</ele><time>2026-04-25T09:22:59.999Z</time></trkpt><trkpt lat="45.85347616739617" lon="9.08242463958415"><ele>558.8</ele><time>2026-04-25T09:23:00.999Z</time></trkpt><trkpt lat="45.85342721925518" lon="9.08229663789853"><ele>552.6</ele><time>2026-04-25T09:23:02.999Z</time></trkpt><trkpt lat="45.85334779165501" lon="9.08228202140942"><ele>546.4</ele><time>2026-04-25T09:23:04.999Z</time></trkpt><trkpt lat="45.85327453654297" lon="9.08232272853512"><ele>540.2</ele><time>2026-04-25T09:23:05.999Z</time></trkpt><trkpt lat="45.85326079156819" lon="9.0824523256344"><ele>534.0</ele><time>2026-04-25T09:23:06.999Z</time></trkpt><trkpt lat="45.85332557487385" lon="9.082571688027818"><ele>535.4</ele><time>2026-04-25T09:23:08.999Z</time></trkpt><trkpt lat="45.85337646430999" lon="9.082766066295942"><ele>536.8</ele><time>2026-04-25T09:23:10.999Z</time></trkpt><trkpt lat="45.85340598419705" lon="9.082901455539107"><ele>538.2</ele><time>2026-04-25T09:23:11.999Z</time></trkpt><trkpt lat="45.853430520519154" lon="9.083037923434514"><ele>539.6</ele><time>2026-04-25T09:23:12.999Z</time></trkpt><trkpt lat="45.853450221584225" lon="9.083169551600335"><ele>541.0</ele><time>2026-04-25T09:23:13.999Z</time></trkpt><trkpt lat="45.85346784551616" lon="9.083301702718176"><ele>541.0</ele><time>2026-04-25T09:23:15Z</time></trkpt><trkpt lat="45.853483015662285" lon="9.083438841850985"><ele>541.0</ele><time>2026-04-25T09:23:16Z</time></trkpt><trkpt lat="45.853505542497345" lon="9.083559198907373"><ele>541.0</ele><time>2026-04-25T09:23:17Z</time></trkpt><trkpt lat="45.85351469453109" lon="9.08366815794388"><ele>541.0</ele><time>2026-04-25T09:23:18Z</time></trkpt><trkpt lat="45.853516452498596" lon="9.08377943900523"><ele>541.0</ele><time>2026-04-25T09:23:19Z</time></trkpt><trkpt lat="45.8535350493938" lon="9.083904310620726"><ele>541.0</ele><time>2026-04-25T09:23:20Z</time></trkpt><trkpt lat="45.853565438867165" lon="9.084037456787506"><ele>539.2857142857143</ele><time>2026-04-25T09:23:21Z</time></trkpt><trkpt lat="45.85360368493685" lon="9.08416683315576"><ele>537.5714285714286</ele><time>2026-04-25T09:23:22Z</time></trkpt><trkpt lat="45.85363195143546" lon="9.084255466544725"><ele>535.8571428571429</ele><time>2026-04-25T09:23:23Z</time></trkpt><trkpt lat="45.853654077582554" lon="9.084357444496113"><ele>534.1428571428571</ele><time>2026-04-25T09:23:25Z</time></trkpt><trkpt lat="45.85358400769661" lon="9.084365891630151"><ele>532.4285714285714</ele><time>2026-04-25T09:23:27Z</time></trkpt><trkpt lat="45.85356188649369" lon="9.084281109208066"><ele>530.7142857142858</ele><time>2026-04-25T09:23:28Z</time></trkpt><trkpt lat="45.85351980964047" lon="9.084202770425893"><ele>529.0</ele><time>2026-04-25T09:23:29Z</time></trkpt><trkpt lat="45.85345185505991" lon="9.084077343910694"><ele>521.75</ele><time>2026-04-25T09:23:31Z</time></trkpt><trkpt lat="45.85341576003539" lon="9.083953554630744"><ele>514.5</ele><time>2026-04-25T09:23:32Z</time></trkpt><trkpt lat="45.85334903513913" lon="9.083829954188264"><ele>507.25</ele><time>2026-04-25T09:23:33Z</time></trkpt><trkpt lat="45.853288002236006" lon="9.083681010363856"><ele>500.0</ele><time>2026-04-25T09:23:34Z</time></trkpt><trkpt lat="45.85322809778734" lon="9.083506096179976"><ele>500.0</ele><time>2026-04-25T09:23:35Z</time></trkpt><trkpt lat="45.8531650542827" lon="9.083326899655997"><ele>500.0</ele><time>2026-04-25T09:23:36Z</time></trkpt><trkpt lat="45.85309127503862" lon="9.08315979524151"><ele>500.0</ele><time>2026-04-25T09:23:37Z</time></trkpt><trkpt lat="45.85299452507138" lon="9.082999411894297"><ele>500.0</ele><time>2026-04-25T09:23:38Z</time></trkpt><trkpt lat="45.852888947935384" lon="9.082855857531234"><ele>497.25</ele><time>2026-04-25T09:23:39Z</time></trkpt><trkpt lat="45.85278428646941" lon="9.0827051500829"><ele>494.5</ele><time>2026-04-25T09:23:40Z</time></trkpt><trkpt lat="45.85268653116341" lon="9.082557978221116"><ele>491.75</ele><time>2026-04-25T09:23:41Z</time></trkpt><trkpt lat="45.85259373884616" lon="9.082416038896419"><ele>489.0</ele><time>2026-04-25T09:23:42Z</time></trkpt><trkpt lat="45.85251756284213" lon="9.082287051401897"><ele>489.0</ele><time>2026-04-25T09:23:43Z</time></trkpt><trkpt lat="45.8524466633121" lon="9.08217099524372"><ele>489.0</ele><time>2026-04-25T09:23:44Z</time></trkpt><trkpt lat="45.85238518093635" lon="9.08208444471855"><ele>489.0</ele><time>2026-04-25T09:23:45Z</time></trkpt><trkpt lat="45.852329414503124" lon="9.082023015686588"><ele>489.0</ele><time>2026-04-25T09:23:46Z</time></trkpt><trkpt lat="45.85222583173755" lon="9.082021815176374"><ele>489.0</ele><time>2026-04-25T09:23:48.001Z</time></trkpt><trkpt lat="45.85220091270848" lon="9.082173210388868"><ele>489.0</ele><time>2026-04-25T09:23:50.001Z</time></trkpt><trkpt lat="45.85219280528992" lon="9.08231025167097"><ele>489.0</ele><time>2026-04-25T09:23:51.001Z</time></trkpt><trkpt lat="45.85220356735301" lon="9.082462365076475"><ele>489.0</ele><time>2026-04-25T09:23:52.001Z</time></trkpt><trkpt lat="45.85221187151646" lon="9.082626532533192"><ele>489.0</ele><time>2026-04-25T09:23:53.001Z</time></trkpt><trkpt lat="45.85222018431937" lon="9.082797384858663"><ele>489.0</ele><time>2026-04-25T09:23:54.001Z</time></trkpt><trkpt lat="45.852227940814146" lon="9.082970061053897"><ele>486.6</ele><time>2026-04-25T09:23:55.001Z</time></trkpt><trkpt lat="45.85222523323337" lon="9.083112380199449"><ele>484.2</ele><time>2026-04-25T09:23:56.001Z</time></trkpt><trkpt lat="45.85223167526869" lon="9.083262302969084"><ele>481.80000000000007</ele><time>2026-04-25T09:23:57.001Z</time></trkpt><trkpt lat="45.85220859885094" lon="9.083409168499278"><ele>479.40000000000003</ele><time>2026-04-25T09:23:58.001Z</time></trkpt><trkpt lat="45.85220076431229" lon="9.083544399722655"><ele>477.0</ele><time>2026-04-25T09:23:59.001Z</time></trkpt><trkpt lat="45.852200085108855" lon="9.083676165756625"><ele>476.0</ele><time>2026-04-25T09:24:00.001Z</time></trkpt><trkpt lat="45.852210879790704" lon="9.083801389100163"><ele>475.00000000000006</ele><time>2026-04-25T09:24:01.001Z</time></trkpt><trkpt lat="45.85223721471559" lon="9.083926792525583"><ele>474.00000000000006</ele><time>2026-04-25T09:24:02.001Z</time></trkpt><trkpt lat="45.85228810868116" lon="9.084021149990104"><ele>473.0</ele><time>2026-04-25T09:24:03.001Z</time></trkpt><trkpt lat="45.85234720897502" lon="9.08415472204851"><ele>472.0</ele><time>2026-04-25T09:24:04.001Z</time></trkpt><trkpt lat="45.8524333111337" lon="9.084299225735402"><ele>470.8</ele><time>2026-04-25T09:24:05.001Z</time></trkpt><trkpt lat="45.85250344078142" lon="9.08444544043686"><ele>469.6</ele><time>2026-04-25T09:24:06.001Z</time></trkpt><trkpt lat="45.85255969696091" lon="9.084540758700017"><ele>468.40000000000003</ele><time>2026-04-25T09:24:07.001Z</time></trkpt><trkpt lat="45.852613429342775" lon="9.084625200047126"><ele>467.20000000000005</ele><time>2026-04-25T09:24:09.001Z</time></trkpt><trkpt lat="45.852488695927384" lon="9.084701576238805"><ele>466.0</ele><time>2026-04-25T09:24:12.001Z</time></trkpt><trkpt lat="45.85237365600837" lon="9.084519274694959"><ele>466.0</ele><time>2026-04-25T09:24:14.001Z</time></trkpt><trkpt lat="45.852286924627776" lon="9.0844232338578"><ele>466.0</ele><time>2026-04-25T09:24:15.001Z</time></trkpt><trkpt lat="45.85218833420773" lon="9.084351650549596"><ele>466.0</ele><time>2026-04-25T09:24:16.001Z</time></trkpt><trkpt lat="45.85207957734522" lon="9.084292051925665"><ele>466.0</ele><time>2026-04-25T09:24:17.001Z</time></trkpt><trkpt lat="45.85196323545345" lon="9.084229245706089"><ele>466.00000000000006</ele><time>2026-04-25T09:24:18.001Z</time></trkpt><trkpt lat="45.85185378612104" lon="9.084181815656079"><ele>466.0</ele><time>2026-04-25T09:24:19.001Z</time></trkpt><trkpt lat="45.851762549398465" lon="9.084129313905176"><ele>466.0</ele><time>2026-04-25T09:24:20.001Z</time></trkpt><trkpt lat="45.85168899232846" lon="9.084085064304299"><ele>466.0</ele><time>2026-04-25T09:24:21.001Z</time></trkpt><trkpt lat="45.85162650358606" lon="9.084045245004107"><ele>466.00000000000006</ele><time>2026-04-25T09:24:22.001Z</time></trkpt><trkpt lat="45.851561945156845" lon="9.083990249367442"><ele>466.0</ele><time>2026-04-25T09:24:23.001Z</time></trkpt><trkpt lat="45.85150709064971" lon="9.083923106867667"><ele>463.6</ele><time>2026-04-25T09:24:24.001Z</time></trkpt><trkpt lat="45.851461970631966" lon="9.08384500226795"><ele>461.20000000000005</ele><time>2026-04-25T09:24:25.001Z</time></trkpt><trkpt lat="45.85140617756439" lon="9.083783748921526"><ele>458.79999999999995</ele><time>2026-04-25T09:24:26.002Z</time></trkpt><trkpt lat="45.851290603491435" lon="9.083691337619516"><ele>456.4</ele><time>2026-04-25T09:24:28.002Z</time></trkpt><trkpt lat="45.85119495502296" lon="9.083580631049902"><ele>454.0</ele><time>2026-04-25T09:24:30.002Z</time></trkpt><trkpt lat="45.85115336186053" lon="9.083496113658459"><ele>454.00000000000006</ele><time>2026-04-25T09:24:31.002Z</time></trkpt><trkpt lat="45.85109658930235" lon="9.083438611986635"><ele>454.0</ele><time>2026-04-25T09:24:32.002Z</time></trkpt><trkpt lat="45.85102725019359" lon="9.08336417456215"><ele>454.0</ele><time>2026-04-25T09:24:33.002Z</time></trkpt><trkpt lat="45.850958824210444" lon="9.083301574859133"><ele>454.0</ele><time>2026-04-25T09:24:34.002Z</time></trkpt><trkpt lat="45.85089689108244" lon="9.08325334062058"><ele>454.00000000000006</ele><time>2026-04-25T09:24:35.002Z</time></trkpt><trkpt lat="45.850837548651356" lon="9.083218813176629"><ele>454.0</ele><time>2026-04-25T09:24:36.002Z</time></trkpt><trkpt lat="45.850722237965115" lon="9.083188855894688"><ele>452.0</ele><time>2026-04-25T09:24:38.002Z</time></trkpt><trkpt lat="45.850608558200406" lon="9.083282266197918"><ele>450.0</ele><time>2026-04-25T09:24:39.997Z</time></trkpt><trkpt lat="45.850541553382826" lon="9.083361706957108"><ele>448.0</ele><time>2026-04-25T09:24:40.997Z</time></trkpt><trkpt lat="45.850486059578685" lon="9.08347560551282"><ele>446.0</ele><time>2026-04-25T09:24:41.997Z</time></trkpt><trkpt lat="45.85043328425832" lon="9.083586422967116"><ele>444.0</ele><time>2026-04-25T09:24:42.997Z</time></trkpt><trkpt lat="45.850385049636984" lon="9.083691844293437"><ele>444.0</ele><time>2026-04-25T09:24:43.997Z</time></trkpt><trkpt lat="45.85033899048605" lon="9.08379924789742"><ele>444.0</ele><time>2026-04-25T09:24:44.997Z</time></trkpt><trkpt lat="45.85031613174858" lon="9.083907551222227"><ele>444.0</ele><time>2026-04-25T09:24:45.997Z</time></trkpt><trkpt lat="45.85027901740624" lon="9.084004951879017"><ele>444.0</ele><time>2026-04-25T09:24:46.997Z</time></trkpt><trkpt lat="45.85022571764317" lon="9.08409325053683"><ele>444.0</ele><time>2026-04-25T09:24:47.998Z</time></trkpt><trkpt lat="45.85018895758655" lon="9.08418672052504"><ele>444.0</ele><time>2026-04-25T09:24:48.998Z</time></trkpt><trkpt lat="45.85014875826901" lon="9.084264668137607"><ele>442.1666666666667</ele><time>2026-04-25T09:24:49.998Z</time></trkpt><trkpt lat="45.85005107292785" lon="9.084363008153375"><ele>440.33333333333337</ele><time>2026-04-25T09:24:51.998Z</time></trkpt><trkpt lat="45.84997767034873" lon="9.08436854465629"><ele>438.5</ele><time>2026-04-25T09:24:52.998Z</time></trkpt><trkpt lat="45.84989667585776" lon="9.084362272343647"><ele>436.6666666666667</ele><time>2026-04-25T09:24:53.998Z</time></trkpt><trkpt lat="45.84981355039225" lon="9.08434344214174"><ele>434.83333333333337</ele><time>2026-04-25T09:24:54.998Z</time></trkpt><trkpt lat="45.849730352173744" lon="9.08431129363444"><ele>433.0</ele><time>2026-04-25T09:24:55.998Z</time></trkpt><trkpt lat="45.84965167308008" lon="9.08425597811433"><ele>433.0</ele><time>2026-04-25T09:24:56.998Z</time></trkpt><trkpt lat="45.84957811835208" lon="9.084176935456766"><ele>432.99999999999994</ele><time>2026-04-25T09:24:57.998Z</time></trkpt><trkpt lat="45.84950032653838" lon="9.08408134148346"><ele>432.99999999999994</ele><time>2026-04-25T09:24:58.998Z</time></trkpt><trkpt lat="45.849422923609524" lon="9.083971014649244"><ele>433.0</ele><time>2026-04-25T09:24:59.998Z</time></trkpt><trkpt lat="45.84934869202931" lon="9.083857742827815"><ele>433.0</ele><time>2026-04-25T09:25:00.998Z</time></trkpt><trkpt lat="45.84928393663507" lon="9.083743891896818"><ele>430.79999999999995</ele><time>2026-04-25T09:25:01.999Z</time></trkpt><trkpt lat="45.849230283154" lon="9.08362212686716"><ele>428.59999999999997</ele><time>2026-04-25T09:25:02.999Z</time></trkpt><trkpt lat="45.84919342486775" lon="9.083485262605443"><ele>426.4</ele><time>2026-04-25T09:25:03.999Z</time></trkpt><trkpt lat="45.84916626395126" lon="9.083350717072573"><ele>424.20000000000005</ele><time>2026-04-25T09:25:04.999Z</time></trkpt><trkpt lat="45.84915282261363" lon="9.083236654581814"><ele>422.0</ele><time>2026-04-25T09:25:05.999Z</time></trkpt><trkpt lat="45.84912835790837" lon="9.083120172294283"><ele>421.20000000000005</ele><time>2026-04-25T09:25:07.999Z</time></trkpt><trkpt lat="45.849146188100974" lon="9.083016442586523"><ele>420.4</ele><time>2026-04-25T09:33:34.001Z</time></trkpt><trkpt lat="45.84916530810293" lon="9.082876053154656"><ele>419.6</ele><time>2026-04-25T09:33:36.001Z</time></trkpt><trkpt lat="45.84918085908493" lon="9.082678639972487"><ele>418.79999999999995</ele><time>2026-04-25T09:33:38.001Z</time></trkpt><trkpt lat="45.849187769581945" lon="9.08256032262232"><ele>418.0</ele><time>2026-04-25T09:33:39.001Z</time></trkpt><trkpt lat="45.84919189632961" lon="9.082443587659348"><ele>417.33333333333337</ele><time>2026-04-25T09:33:40.001Z</time></trkpt><trkpt lat="45.84919702888844" lon="9.08232236901645"><ele>416.6666666666667</ele><time>2026-04-25T09:33:41.001Z</time></trkpt><trkpt lat="45.84920298241623" lon="9.082201442900647"><ele>416.0</ele><time>2026-04-25T09:33:42.001Z</time></trkpt><trkpt lat="45.8492087454649" lon="9.08208351896378"><ele>415.33333333333337</ele><time>2026-04-25T09:33:43.001Z</time></trkpt><trkpt lat="45.84921047197494" lon="9.081975690258599"><ele>414.6666666666667</ele><time>2026-04-25T09:33:44.001Z</time></trkpt><trkpt lat="45.849214115353234" lon="9.081875715846383"><ele>414.0</ele><time>2026-04-25T09:33:45.001Z</time></trkpt><trkpt lat="45.84921745208323" lon="9.081779321897534"><ele>414.0</ele><time>2026-04-25T09:33:46.001Z</time></trkpt><trkpt lat="45.849216573399495" lon="9.08167755773506"><ele>414.0</ele><time>2026-04-25T09:33:47.001Z</time></trkpt><trkpt lat="45.8492192106687" lon="9.081557996344118"><ele>414.0</ele><time>2026-04-25T09:33:48.001Z</time></trkpt><trkpt lat="45.84922855261318" lon="9.081427467110453"><ele>414.0</ele><time>2026-04-25T09:33:49.001Z</time></trkpt><trkpt lat="45.84924238879673" lon="9.081296144632493"><ele>414.0</ele><time>2026-04-25T09:33:50.001Z</time></trkpt><trkpt lat="45.84925814697798" lon="9.081156788109451"><ele>414.0</ele><time>2026-04-25T09:33:51.001Z</time></trkpt><trkpt lat="45.8492744721297" lon="9.081022163988118"><ele>412.6666666666667</ele><time>2026-04-25T09:33:52.001Z</time></trkpt><trkpt lat="45.84928879517649" lon="9.080903899326943"><ele>411.33333333333337</ele><time>2026-04-25T09:33:53.001Z</time></trkpt><trkpt lat="45.84929736017398" lon="9.080793851271121"><ele>410.0</ele><time>2026-04-25T09:33:54.001Z</time></trkpt><trkpt lat="45.84931157921371" lon="9.080697177642497"><ele>408.6666666666667</ele><time>2026-04-25T09:33:55.001Z</time></trkpt><trkpt lat="45.84934496794089" lon="9.080596528188613"><ele>407.33333333333337</ele><time>2026-04-25T09:33:56.001Z</time></trkpt><trkpt lat="45.84940131057222" lon="9.080475240059448"><ele>406.0</ele><time>2026-04-25T09:33:57.001Z</time></trkpt><trkpt lat="45.84946339175112" lon="9.080337990685393"><ele>408.0</ele><time>2026-04-25T09:33:58.001Z</time></trkpt><trkpt lat="45.8495122737016" lon="9.080219103121124"><ele>410.0</ele><time>2026-04-25T09:33:59.001Z</time></trkpt><trkpt lat="45.84954824522836" lon="9.080110864528232"><ele>412.0</ele><time>2026-04-25T09:34:00.001Z</time></trkpt><trkpt lat="45.849568040393045" lon="9.07998212879066"><ele>414.0</ele><time>2026-04-25T09:34:01.001Z</time></trkpt><trkpt lat="45.84957513821744" lon="9.079838918874485"><ele>416.0</ele><time>2026-04-25T09:34:02.001Z</time></trkpt><trkpt lat="45.84955956699536" lon="9.079694766962186"><ele>415.99999999999994</ele><time>2026-04-25T09:34:03.001Z</time></trkpt><trkpt lat="45.849541204410755" lon="9.079560247532138"><ele>416.0</ele><time>2026-04-25T09:34:04.001Z</time></trkpt><trkpt lat="45.84952682768956" lon="9.079428304794106"><ele>416.0</ele><time>2026-04-25T09:34:05.001Z</time></trkpt><trkpt lat="45.84951714494642" lon="9.07933577573992"><ele>416.0</ele><time>2026-04-25T09:34:06.001Z</time></trkpt><trkpt lat="45.84946153711763" lon="9.079223529915739"><ele>415.99999999999994</ele><time>2026-04-25T09:34:08.001Z</time></trkpt><trkpt lat="45.84937364222706" lon="9.079205486833862"><ele>416.0</ele><time>2026-04-25T09:34:10.001Z</time></trkpt><trkpt lat="45.84936310506284" lon="9.079368208215003"><ele>416.0</ele><time>2026-04-25T09:34:11.001Z</time></trkpt><trkpt lat="45.84935463050988" lon="9.079486329020586"><ele>416.0</ele><time>2026-04-25T09:34:12.001Z</time></trkpt><trkpt lat="45.849338590082695" lon="9.079609017377923"><ele>416.0</ele><time>2026-04-25T09:34:13.001Z</time></trkpt><trkpt lat="45.84929916739941" lon="9.079746812140204"><ele>416.0</ele><time>2026-04-25T09:34:14.001Z</time></trkpt><trkpt lat="45.84925727221914" lon="9.0799026980402"><ele>416.0</ele><time>2026-04-25T09:34:15.001Z</time></trkpt><trkpt lat="45.84921995157495" lon="9.080063820523515"><ele>412.4</ele><time>2026-04-25T09:34:16.001Z</time></trkpt><trkpt lat="45.84916637815223" lon="9.080196404513165"><ele>408.8</ele><time>2026-04-25T09:34:17.001Z</time></trkpt><trkpt lat="45.84910306392647" lon="9.08031223767328"><ele>405.2</ele><time>2026-04-25T09:34:18.001Z</time></trkpt><trkpt lat="45.84907212951964" lon="9.080448572853788"><ele>401.59999999999997</ele><time>2026-04-25T09:34:19.001Z</time></trkpt><trkpt lat="45.84902842607442" lon="9.080561448527709"><ele>398.0</ele><time>2026-04-25T09:34:20.001Z</time></trkpt><trkpt lat="45.8490285959347" lon="9.080692305894807"><ele>399.3333333333333</ele><time>2026-04-25T09:34:21.001Z</time></trkpt><trkpt lat="45.849012926360444" lon="9.080788707071248"><ele>400.66666666666663</ele><time>2026-04-25T09:34:22.001Z</time></trkpt><trkpt lat="45.84896828234045" lon="9.080876968089894"><ele>402.0</ele><time>2026-04-25T09:34:23.001Z</time></trkpt><trkpt lat="45.84892691128104" lon="9.080976541546539"><ele>403.33333333333337</ele><time>2026-04-25T09:34:24.001Z</time></trkpt><trkpt lat="45.84891225526772" lon="9.081091850671763"><ele>404.6666666666667</ele><time>2026-04-25T09:34:25.001Z</time></trkpt><trkpt lat="45.848889189187" lon="9.081203720548503"><ele>406.0</ele><time>2026-04-25T09:34:26.001Z</time></trkpt><trkpt lat="45.84888134976032" lon="9.081312941813675"><ele>406.00000000000006</ele><time>2026-04-25T09:34:27.001Z</time></trkpt><trkpt lat="45.848870728864696" lon="9.081416355501524"><ele>406.0</ele><time>2026-04-25T09:34:28.001Z</time></trkpt><trkpt lat="45.84884863219541" lon="9.08153611055353"><ele>406.0</ele><time>2026-04-25T09:34:29.001Z</time></trkpt><trkpt lat="45.848841747617804" lon="9.081673215412547"><ele>406.0</ele><time>2026-04-25T09:34:30.001Z</time></trkpt><trkpt lat="45.84881894581808" lon="9.081806517661548"><ele>406.00000000000006</ele><time>2026-04-25T09:34:31.001Z</time></trkpt><trkpt lat="45.84879852182428" lon="9.081910270109072"><ele>406.0</ele><time>2026-04-25T09:34:32.001Z</time></trkpt><trkpt lat="45.848776049268906" lon="9.082004218672571"><ele>407.6</ele><time>2026-04-25T09:34:33.001Z</time></trkpt><trkpt lat="45.84871652507849" lon="9.082098090606888"><ele>409.20000000000005</ele><time>2026-04-25T09:34:34.001Z</time></trkpt><trkpt lat="45.84866308424235" lon="9.08221488117336"><ele>410.79999999999995</ele><time>2026-04-25T09:34:35.001Z</time></trkpt><trkpt lat="45.848628250003664" lon="9.082346268231666"><ele>412.4</ele><time>2026-04-25T09:34:36.001Z</time></trkpt><trkpt lat="45.84856143428073" lon="9.082447488477023"><ele>414.0</ele><time>2026-04-25T09:34:37.001Z</time></trkpt><trkpt lat="45.84852681689431" lon="9.08257791244833"><ele>414.79999999999995</ele><time>2026-04-25T09:34:38.001Z</time></trkpt><trkpt lat="45.84848628435217" lon="9.082695158744313"><ele>415.59999999999997</ele><time>2026-04-25T09:34:39.001Z</time></trkpt><trkpt lat="45.848465996185574" lon="9.082800778824865"><ele>416.4</ele><time>2026-04-25T09:34:40.001Z</time></trkpt><trkpt lat="45.84844030023498" lon="9.08293772124925"><ele>417.2</ele><time>2026-04-25T09:34:42.001Z</time></trkpt><trkpt lat="45.84836372825471" lon="9.082895472083845"><ele>418.0</ele><time>2026-04-25T09:34:45.001Z</time></trkpt><trkpt lat="45.84841793160752" lon="9.08273220843577"><ele>417.2</ele><time>2026-04-25T09:34:47.001Z</time></trkpt><trkpt lat="45.84843517510949" lon="9.082620266450192"><ele>416.4</ele><time>2026-04-25T09:34:48.001Z</time></trkpt><trkpt lat="45.848433340204814" lon="9.082494200731823"><ele>415.59999999999997</ele><time>2026-04-25T09:34:49.001Z</time></trkpt><trkpt lat="45.84844537105925" lon="9.082371483249597"><ele>414.79999999999995</ele><time>2026-04-25T09:34:50.001Z</time></trkpt><trkpt lat="45.84847263984933" lon="9.082231963546182"><ele>414.0</ele><time>2026-04-25T09:34:51.001Z</time></trkpt><trkpt lat="45.84850735277237" lon="9.082095862030469"><ele>414.0</ele><time>2026-04-25T09:34:52.001Z</time></trkpt><trkpt lat="45.84852355046846" lon="9.081937444757736"><ele>414.0</ele><time>2026-04-25T09:34:53.002Z</time></trkpt><trkpt lat="45.84854375165264" lon="9.081784370839305"><ele>414.0</ele><time>2026-04-25T09:34:54.002Z</time></trkpt><trkpt lat="45.848554086754625" lon="9.081617271570176"><ele>414.0</ele><time>2026-04-25T09:34:55.002Z</time></trkpt><trkpt lat="45.848565812503246" lon="9.081455713048513"><ele>412.4</ele><time>2026-04-25T09:34:56.002Z</time></trkpt><trkpt lat="45.84857200908681" lon="9.081302021253236"><ele>410.79999999999995</ele><time>2026-04-25T09:34:57.002Z</time></trkpt><trkpt lat="45.84857544054172" lon="9.081149030862813"><ele>409.20000000000005</ele><time>2026-04-25T09:34:58.002Z</time></trkpt><trkpt lat="45.84857868891926" lon="9.081003879308296"><ele>407.6</ele><time>2026-04-25T09:34:59.002Z</time></trkpt><trkpt lat="45.84858181614827" lon="9.080863966655588"><ele>406.0</ele><time>2026-04-25T09:35:00.002Z</time></trkpt><trkpt lat="45.84858719522632" lon="9.080731451806894"><ele>404.6666666666667</ele><time>2026-04-25T09:35:01.002Z</time></trkpt><trkpt lat="45.848598164013495" lon="9.08060899112395"><ele>403.33333333333337</ele><time>2026-04-25T09:35:02.002Z</time></trkpt><trkpt lat="45.84861619975571" lon="9.08049611832799"><ele>402.0</ele><time>2026-04-25T09:35:03.002Z</time></trkpt><trkpt lat="45.848640618290155" lon="9.080405297138581"><ele>400.66666666666663</ele><time>2026-04-25T09:35:04.002Z</time></trkpt><trkpt lat="45.84866486156665" lon="9.080302108811827"><ele>399.3333333333333</ele><time>2026-04-25T09:35:05.002Z</time></trkpt><trkpt lat="45.848650702473094" lon="9.080196188395036"><ele>398.0</ele><time>2026-04-25T09:35:06.002Z</time></trkpt><trkpt lat="45.848626600726526" lon="9.080071931964563"><ele>396.4</ele><time>2026-04-25T09:35:07.002Z</time></trkpt><trkpt lat="45.84860138424116" lon="9.079932892480588"><ele>394.79999999999995</ele><time>2026-04-25T09:35:08.002Z</time></trkpt><trkpt lat="45.84857613208505" lon="9.079786836097703"><ele>393.2</ele><time>2026-04-25T09:35:09.002Z</time></trkpt><trkpt lat="45.848568196909035" lon="9.07963511833754"><ele>391.6</ele><time>2026-04-25T09:35:09.998Z</time></trkpt><trkpt lat="45.84856721957499" lon="9.079486290438322"><ele>390.0</ele><time>2026-04-25T09:35:10.998Z</time></trkpt><trkpt lat="45.84857195443838" lon="9.079342586222724"><ele>390.0</ele><time>2026-04-25T09:35:11.999Z</time></trkpt><trkpt lat="45.84858950401122" lon="9.079192374651855"><ele>390.0</ele><time>2026-04-25T09:35:12.999Z</time></trkpt><trkpt lat="45.848613868886574" lon="9.079038665431598"><ele>390.0</ele><time>2026-04-25T09:35:13.999Z</time></trkpt><trkpt lat="45.848645230433455" lon="9.078895362853075"><ele>390.0</ele><time>2026-04-25T09:35:14.999Z</time></trkpt><trkpt lat="45.848683445031874" lon="9.07876021098427"><ele>390.0</ele><time>2026-04-25T09:35:15.999Z</time></trkpt><trkpt lat="45.84872818589751" lon="9.07863538445759"><ele>386.8</ele><time>2026-04-25T09:35:16.999Z</time></trkpt><trkpt lat="45.848782884501155" lon="9.078521385016087"><ele>383.6</ele><time>2026-04-25T09:35:17.999Z</time></trkpt><trkpt lat="45.84883412180763" lon="9.078428086362829"><ele>380.4</ele><time>2026-04-25T09:35:18.999Z</time></trkpt><trkpt lat="45.84885734357996" lon="9.078315909214844"><ele>377.2</ele><time>2026-04-25T09:35:20.999Z</time></trkpt><trkpt lat="45.84873200811591" lon="9.078311015565557"><ele>374.0</ele><time>2026-04-25T09:35:23.999Z</time></trkpt><trkpt lat="45.84869085095688" lon="9.078441401542648"><ele>374.0</ele><time>2026-04-25T09:35:24.999Z</time></trkpt><trkpt lat="45.84864556447938" lon="9.07855473516537"><ele>374.0</ele><time>2026-04-25T09:35:25.999Z</time></trkpt><trkpt lat="45.84859283761317" lon="9.078686822285785"><ele>374.0</ele><time>2026-04-25T09:35:26.999Z</time></trkpt><trkpt lat="45.84853867793396" lon="9.078839507540838"><ele>374.0</ele><time>2026-04-25T09:35:27.999Z</time></trkpt><trkpt lat="45.8484808165422" lon="9.078967906377512"><ele>374.0</ele><time>2026-04-25T09:35:28.999Z</time></trkpt><trkpt lat="45.84842488275937" lon="9.079088596886717"><ele>368.79999999999995</ele><time>2026-04-25T09:35:29.999Z</time></trkpt><trkpt lat="45.848375919090834" lon="9.079202025610062"><ele>363.59999999999997</ele><time>2026-04-25T09:35:30.999Z</time></trkpt><trkpt lat="45.84833960295038" lon="9.079317732400295"><ele>358.4</ele><time>2026-04-25T09:35:31.999Z</time></trkpt><trkpt lat="45.8483215880522" lon="9.079446682704734"><ele>353.2</ele><time>2026-04-25T09:35:33Z</time></trkpt><trkpt lat="45.84831105143767" lon="9.07959871396863"><ele>348.0</ele><time>2026-04-25T09:35:34Z</time></trkpt><trkpt lat="45.848298467717456" lon="9.079759971629313"><ele>348.0</ele><time>2026-04-25T09:35:35Z</time></trkpt><trkpt lat="45.84827797852403" lon="9.079904552179299"><ele>348.0</ele><time>2026-04-25T09:35:36Z</time></trkpt><trkpt lat="45.8482442207684" lon="9.080043441318894"><ele>348.0</ele><time>2026-04-25T09:35:37Z</time></trkpt><trkpt lat="45.84817558186317" lon="9.080194992405234"><ele>348.0</ele><time>2026-04-25T09:35:38Z</time></trkpt><trkpt lat="45.84812293232854" lon="9.080356951253492"><ele>349.4</ele><time>2026-04-25T09:35:39Z</time></trkpt><trkpt lat="45.848077967634886" lon="9.080486633274242"><ele>350.79999999999995</ele><time>2026-04-25T09:35:40Z</time></trkpt><trkpt lat="45.848028150017534" lon="9.080608207230696"><ele>352.2</ele><time>2026-04-25T09:35:41Z</time></trkpt><trkpt lat="45.84798376392192" lon="9.080727321731844"><ele>353.6</ele><time>2026-04-25T09:35:42Z</time></trkpt><trkpt lat="45.84795248444464" lon="9.080827506596462"><ele>355.0</ele><time>2026-04-25T09:35:43Z</time></trkpt><trkpt lat="45.847963945422514" lon="9.080958281884302"><ele>355.0</ele><time>2026-04-25T09:35:45Z</time></trkpt><trkpt lat="45.847935178219146" lon="9.080829543982365"><ele>355.0</ele><time>2026-04-25T09:35:54Z</time></trkpt><trkpt lat="45.84798315997101" lon="9.08066199553467"><ele>355.0</ele><time>2026-04-25T09:35:56Z</time></trkpt><trkpt lat="45.84801820636829" lon="9.080568638011318"><ele>355.0</ele><time>2026-04-25T09:35:57Z</time></trkpt><trkpt lat="45.847957123695984" lon="9.080274384497207"><ele>355.0</ele><time>2026-04-25T09:35:58Z</time></trkpt><trkpt lat="45.84797388131862" lon="9.080121147498152"><ele>355.0</ele><time>2026-04-25T09:35:59Z</time></trkpt><trkpt lat="45.84798880865209" lon="9.0799743631825"><ele>355.0</ele><time>2026-04-25T09:36:00Z</time></trkpt><trkpt lat="45.84800808907787" lon="9.079837053037657"><ele>355.0</ele><time>2026-04-25T09:36:01Z</time></trkpt><trkpt lat="45.848031404369145" lon="9.079679605251476"><ele>355.0</ele><time>2026-04-25T09:36:02.001Z</time></trkpt><trkpt lat="45.84803398480286" lon="9.079517925934029"><ele>353.6</ele><time>2026-04-25T09:36:03.001Z</time></trkpt><trkpt lat="45.848027940699524" lon="9.079369335048927"><ele>352.2</ele><time>2026-04-25T09:36:04.001Z</time></trkpt><trkpt lat="45.848023231010494" lon="9.0792326957227"><ele>350.79999999999995</ele><time>2026-04-25T09:36:05.001Z</time></trkpt><trkpt lat="45.84802157156107" lon="9.079098977746918"><ele>349.4</ele><time>2026-04-25T09:36:06.001Z</time></trkpt><trkpt lat="45.84801965458785" lon="9.07896451479671"><ele>348.0</ele><time>2026-04-25T09:36:07.001Z</time></trkpt><trkpt lat="45.848039870476015" lon="9.078842362008155"><ele>346.57142857142856</ele><time>2026-04-25T09:36:08.001Z</time></trkpt><trkpt lat="45.848062452572" lon="9.078753369461998"><ele>345.14285714285717</ele><time>2026-04-25T09:36:09.001Z</time></trkpt><trkpt lat="45.84809335971706" lon="9.07867376944351"><ele>343.7142857142857</ele><time>2026-04-25T09:36:10.001Z</time></trkpt><trkpt lat="45.848150481836875" lon="9.078625948008801"><ele>342.2857142857143</ele><time>2026-04-25T09:36:11.001Z</time></trkpt><trkpt lat="45.84821210504232" lon="9.07860172832901"><ele>340.85714285714283</ele><time>2026-04-25T09:36:12.001Z</time></trkpt><trkpt lat="45.84824327744017" lon="9.078485790096565"><ele>339.42857142857144</ele><time>2026-04-25T09:36:14.001Z</time></trkpt><trkpt lat="45.848183241639624" lon="9.078415050220796"><ele>338.0</ele><time>2026-04-25T09:36:16.001Z</time></trkpt><trkpt lat="45.84810843320816" lon="9.078497267809498"><ele>338.0</ele><time>2026-04-25T09:36:17.001Z</time></trkpt><trkpt lat="45.84802646813218" lon="9.078578210620519"><ele>338.0</ele><time>2026-04-25T09:36:18.001Z</time></trkpt><trkpt lat="45.84796362521463" lon="9.078672492419576"><ele>338.0</ele><time>2026-04-25T09:36:19.001Z</time></trkpt><trkpt lat="45.84791954864947" lon="9.078790769031173"><ele>338.0</ele><time>2026-04-25T09:36:20.001Z</time></trkpt><trkpt lat="45.84790523357134" lon="9.078952955582045"><ele>338.0</ele><time>2026-04-25T09:36:21.001Z</time></trkpt><trkpt lat="45.847845595402745" lon="9.079110541387399"><ele>340.5</ele><time>2026-04-25T09:36:22.001Z</time></trkpt><trkpt lat="45.84779674175072" lon="9.07928773948468"><ele>343.0</ele><time>2026-04-25T09:36:23.001Z</time></trkpt><trkpt lat="45.8477348377793" lon="9.079442826593045"><ele>345.5</ele><time>2026-04-25T09:36:24.001Z</time></trkpt><trkpt lat="45.847681632352206" lon="9.079590391922762"><ele>348.0</ele><time>2026-04-25T09:36:25.001Z</time></trkpt><trkpt lat="45.84764524464745" lon="9.07972475535107"><ele>348.0</ele><time>2026-04-25T09:36:26.001Z</time></trkpt><trkpt lat="45.847627155577385" lon="9.079882525331"><ele>348.0</ele><time>2026-04-25T09:36:27.001Z</time></trkpt><trkpt lat="45.84761779111211" lon="9.080040334791992"><ele>348.0</ele><time>2026-04-25T09:36:28.001Z</time></trkpt><trkpt lat="45.84759294169786" lon="9.080180610748458"><ele>348.0</ele><time>2026-04-25T09:36:29.001Z</time></trkpt><trkpt lat="45.84755754832158" lon="9.080327823899516"><ele>348.0</ele><time>2026-04-25T09:36:30.001Z</time></trkpt><trkpt lat="45.84752794753122" lon="9.080466313212217"><ele>340.2</ele><time>2026-04-25T09:36:31.001Z</time></trkpt><trkpt lat="45.847480040877855" lon="9.080607581218656"><ele>332.4</ele><time>2026-04-25T09:36:32.001Z</time></trkpt><trkpt lat="45.84746716079985" lon="9.080745125506445"><ele>324.59999999999997</ele><time>2026-04-25T09:36:33.001Z</time></trkpt><trkpt lat="45.847478222047876" lon="9.080861424822565"><ele>316.79999999999995</ele><time>2026-04-25T09:36:34.001Z</time></trkpt><trkpt lat="45.84749015641312" lon="9.080989385930033"><ele>309.0</ele><time>2026-04-25T09:36:36.001Z</time></trkpt><trkpt lat="45.847445430393186" lon="9.080872849898826"><ele>308.59999999999997</ele><time>2026-04-25T09:36:40.001Z</time></trkpt><trkpt lat="45.84745267453163" lon="9.080741823141148"><ele>308.2</ele><time>2026-04-25T09:36:41.001Z</time></trkpt><trkpt lat="45.847442460860606" lon="9.080606367474603"><ele>307.79999999999995</ele><time>2026-04-25T09:36:42.001Z</time></trkpt><trkpt lat="45.84745269864194" lon="9.080470249010341"><ele>307.4</ele><time>2026-04-25T09:36:43.001Z</time></trkpt><trkpt lat="45.84745986380224" lon="9.080337884695751"><ele>307.0</ele><time>2026-04-25T09:36:44.002Z</time></trkpt><trkpt lat="45.84746360162307" lon="9.080176565571838"><ele>307.0</ele><time>2026-04-25T09:36:45.002Z</time></trkpt><trkpt lat="45.84745840765237" lon="9.080008826308381"><ele>307.0</ele><time>2026-04-25T09:36:46.002Z</time></trkpt><trkpt lat="45.84745533677101" lon="9.07984628642139"><ele>307.0</ele><time>2026-04-25T09:36:47.002Z</time></trkpt><trkpt lat="45.84745609174447" lon="9.07968074344423"><ele>307.0</ele><time>2026-04-25T09:36:48.002Z</time></trkpt><trkpt lat="45.84745447379232" lon="9.079514267819622"><ele>306.6</ele><time>2026-04-25T09:36:49.002Z</time></trkpt><trkpt lat="45.847456241721915" lon="9.079355774200911"><ele>306.2</ele><time>2026-04-25T09:36:50.002Z</time></trkpt><trkpt lat="45.84746139965837" lon="9.079210935343058"><ele>305.8</ele><time>2026-04-25T09:36:51.002Z</time></trkpt><trkpt lat="45.847476502568675" lon="9.079054727697756"><ele>305.4</ele><time>2026-04-25T09:36:52.002Z</time></trkpt><trkpt lat="45.84748816919775" lon="9.078947751028824"><ele>305.0</ele><time>2026-04-25T09:36:53.002Z</time></trkpt><trkpt lat="45.84750946093928" lon="9.078833522732547"><ele>303.0</ele><time>2026-04-25T09:36:54.002Z</time></trkpt><trkpt lat="45.847567430499424" lon="9.078677159069299"><ele>301.0</ele><time>2026-04-25T09:36:55.002Z</time></trkpt><trkpt lat="45.84760264051627" lon="9.07849726664917"><ele>299.0</ele><time>2026-04-25T09:36:56.002Z</time></trkpt><trkpt lat="45.84763507002691" lon="9.07833644550858"><ele>297.0</ele><time>2026-04-25T09:36:57.002Z</time></trkpt><trkpt lat="45.84765448619257" lon="9.07816143495219"><ele>305.25</ele><time>2026-04-25T09:36:58.002Z</time></trkpt><trkpt lat="45.84765301169203" lon="9.077937069045715"><ele>313.5</ele><time>2026-04-25T09:36:59.002Z</time></trkpt><trkpt lat="45.84766383157806" lon="9.077746392958408"><ele>321.75</ele><time>2026-04-25T09:37:00.002Z</time></trkpt><trkpt lat="45.84768583927769" lon="9.077556031143704"><ele>330.0</ele><time>2026-04-25T09:37:01.002Z</time></trkpt><trkpt lat="45.84771921493047" lon="9.077368950090483"><ele>330.0</ele><time>2026-04-25T09:37:02.002Z</time></trkpt><trkpt lat="45.847731092508035" lon="9.077166209765224"><ele>330.0</ele><time>2026-04-25T09:37:03.002Z</time></trkpt><trkpt lat="45.84774529508868" lon="9.076972413524336"><ele>330.0</ele><time>2026-04-25T09:37:04.002Z</time></trkpt><trkpt lat="45.84775609986184" lon="9.076774899838604"><ele>330.0</ele><time>2026-04-25T09:37:05.002Z</time></trkpt><trkpt lat="45.84775565836534" lon="9.076596013391665"><ele>329.0</ele><time>2026-04-25T09:37:06.002Z</time></trkpt><trkpt lat="45.8477628945529" lon="9.076410304697895"><ele>328.0</ele><time>2026-04-25T09:37:07.002Z</time></trkpt><trkpt lat="45.847767443386324" lon="9.07625842186033"><ele>327.0</ele><time>2026-04-25T09:37:08.002Z</time></trkpt><trkpt lat="45.84778048446287" lon="9.076089225387694"><ele>326.0</ele><time>2026-04-25T09:37:09.002Z</time></trkpt><trkpt lat="45.84779839056837" lon="9.075925602302506"><ele>324.6</ele><time>2026-04-25T09:37:10.002Z</time></trkpt><trkpt lat="45.847810947670986" lon="9.07575952278731"><ele>323.20000000000005</ele><time>2026-04-25T09:37:11.002Z</time></trkpt><trkpt lat="45.84781229815933" lon="9.075593662420768"><ele>321.79999999999995</ele><time>2026-04-25T09:37:12.002Z</time></trkpt><trkpt lat="45.847821843484645" lon="9.075466618882949"><ele>320.4</ele><time>2026-04-25T09:37:13.002Z</time></trkpt><trkpt lat="45.84778816222819" lon="9.07535055124661"><ele>319.0</ele><time>2026-04-25T09:37:14.002Z</time></trkpt><trkpt lat="45.84773424519458" lon="9.075272638061469"><ele>319.0</ele><time>2026-04-25T09:37:15.002Z</time></trkpt><trkpt lat="45.847690750688194" lon="9.075195754504458"><ele>319.0</ele><time>2026-04-25T09:37:15.998Z</time></trkpt><trkpt lat="45.84764721439762" lon="9.075116128115658"><ele>319.0</ele><time>2026-04-25T09:37:16.998Z</time></trkpt><trkpt lat="45.84756844420444" lon="9.074989680345167"><ele>319.0</ele><time>2026-04-25T09:37:18.998Z</time></trkpt><trkpt lat="45.847414005063456" lon="9.075020793100265"><ele>319.0</ele><time>2026-04-25T09:37:20.998Z</time></trkpt><trkpt lat="45.84732341207733" lon="9.075017096855824"><ele>318.0</ele><time>2026-04-25T09:37:21.998Z</time></trkpt><trkpt lat="45.84725459412804" lon="9.075020689999839"><ele>317.0</ele><time>2026-04-25T09:37:22.998Z</time></trkpt><trkpt lat="45.84718664901983" lon="9.075016297855996"><ele>316.0</ele><time>2026-04-25T09:37:23.998Z</time></trkpt><trkpt lat="45.84710814480137" lon="9.074953088941013"><ele>315.0</ele><time>2026-04-25T09:37:24.998Z</time></trkpt><trkpt lat="45.84701243210127" lon="9.074872050540703"><ele>314.0</ele><time>2026-04-25T09:37:25.998Z</time></trkpt><trkpt lat="45.846912916534734" lon="9.074780806445352"><ele>314.0</ele><time>2026-04-25T09:37:26.998Z</time></trkpt><trkpt lat="45.84681334849412" lon="9.074698220630756"><ele>314.0</ele><time>2026-04-25T09:37:27.998Z</time></trkpt><trkpt lat="45.846719341566036" lon="9.074618998793571"><ele>314.0</ele><time>2026-04-25T09:37:28.998Z</time></trkpt><trkpt lat="45.846624674433414" lon="9.074555091081415"><ele>314.0</ele><time>2026-04-25T09:37:29.999Z</time></trkpt><trkpt lat="45.84652891769578" lon="9.074514936851013"><ele>314.0</ele><time>2026-04-25T09:37:30.999Z</time></trkpt><trkpt lat="45.84643005409945" lon="9.074522414519524"><ele>309.59999999999997</ele><time>2026-04-25T09:37:31.999Z</time></trkpt><trkpt lat="45.846335698002356" lon="9.074561548928827"><ele>305.2</ele><time>2026-04-25T09:37:32.999Z</time></trkpt><trkpt lat="45.84625669540183" lon="9.074663714669427"><ele>300.79999999999995</ele><time>2026-04-25T09:37:33.999Z</time></trkpt><trkpt lat="45.84619170127084" lon="9.074797576668717"><ele>296.4</ele><time>2026-04-25T09:37:34.999Z</time></trkpt><trkpt lat="45.846123423481025" lon="9.074937843109614"><ele>292.0</ele><time>2026-04-25T09:37:35.999Z</time></trkpt><trkpt lat="45.84609144694823" lon="9.075077344588536"><ele>289.16666666666663</ele><time>2026-04-25T09:37:36.999Z</time></trkpt><trkpt lat="45.846037079033366" lon="9.075177238986248"><ele>286.3333333333333</ele><time>2026-04-25T09:37:37.999Z</time></trkpt><trkpt lat="45.84597875115424" lon="9.075251461471337"><ele>283.5</ele><time>2026-04-25T09:37:38.999Z</time></trkpt><trkpt lat="45.845903848114375" lon="9.075302022437393"><ele>280.6666666666667</ele><time>2026-04-25T09:37:39.999Z</time></trkpt><trkpt lat="45.84581952514085" lon="9.075315360916607"><ele>277.83333333333337</ele><time>2026-04-25T09:37:40.999Z</time></trkpt><trkpt lat="45.84575621711883" lon="9.075332629035472"><ele>275.0</ele><time>2026-04-25T09:37:41.999Z</time></trkpt><trkpt lat="45.84574258674805" lon="9.075452569609828"><ele>275.0</ele><time>2026-04-25T09:37:43.999Z</time></trkpt><trkpt lat="45.84585473380575" lon="9.075479420006864"><ele>275.0</ele><time>2026-04-25T09:37:46Z</time></trkpt><trkpt lat="45.84593066403129" lon="9.075422864025693"><ele>275.0</ele><time>2026-04-25T09:37:47Z</time></trkpt><trkpt lat="45.846016537949325" lon="9.075347707475698"><ele>275.0</ele><time>2026-04-25T09:37:48Z</time></trkpt><trkpt lat="45.84609960888066" lon="9.075269704238918"><ele>275.0</ele><time>2026-04-25T09:37:49Z</time></trkpt><trkpt lat="45.846179120269845" lon="9.07519300554275"><ele>275.0</ele><time>2026-04-25T09:37:50Z</time></trkpt><trkpt lat="45.846263235752964" lon="9.075136894745365"><ele>275.0</ele><time>2026-04-25T09:37:51Z</time></trkpt><trkpt lat="45.84635355372111" lon="9.075119111283504"><ele>275.0</ele><time>2026-04-25T09:37:52Z</time></trkpt><trkpt lat="45.84644096324509" lon="9.075131616629248"><ele>275.0</ele><time>2026-04-25T09:37:53Z</time></trkpt><trkpt lat="45.8465156971003" lon="9.07518906509554"><ele>275.0</ele><time>2026-04-25T09:37:54Z</time></trkpt><trkpt lat="45.84655174632525" lon="9.075287508005193"><ele>275.0</ele><time>2026-04-25T09:37:55Z</time></trkpt><trkpt lat="45.8466104053586" lon="9.07537787061382"><ele>275.0</ele><time>2026-04-25T09:37:56Z</time></trkpt><trkpt lat="45.84666125588247" lon="9.07547887848793"><ele>275.0</ele><time>2026-04-25T09:37:57Z</time></trkpt><trkpt lat="45.84668677056352" lon="9.075568669557146"><ele>275.0</ele><time>2026-04-25T09:37:58Z</time></trkpt><trkpt lat="45.84669660108294" lon="9.075670535893513"><ele>275.0</ele><time>2026-04-25T09:38:00Z</time></trkpt><trkpt lat="45.84658889580842" lon="9.075678726181136"><ele>275.0</ele><time>2026-04-25T09:38:02Z</time></trkpt><trkpt lat="45.84651008513729" lon="9.075612239421224"><ele>275.0</ele><time>2026-04-25T09:38:03Z</time></trkpt><trkpt lat="45.846422088207625" lon="9.07556398692558"><ele>275.0</ele><time>2026-04-25T09:38:04Z</time></trkpt><trkpt lat="45.84633022640594" lon="9.075526306382287"><ele>275.0</ele><time>2026-04-25T09:38:05Z</time></trkpt><trkpt lat="45.84623108309963" lon="9.07551254748492"><ele>275.0</ele><time>2026-04-25T09:38:06Z</time></trkpt><trkpt lat="45.84612078797107" lon="9.075530010121733"><ele>275.0</ele><time>2026-04-25T09:38:07Z</time></trkpt><trkpt lat="45.84599982481099" lon="9.075583252190778"><ele>275.0</ele><time>2026-04-25T09:38:08Z</time></trkpt><trkpt lat="45.84587935982153" lon="9.07564130881584"><ele>274.8</ele><time>2026-04-25T09:38:09Z</time></trkpt><trkpt lat="45.84576487841158" lon="9.075686053908745"><ele>274.6</ele><time>2026-04-25T09:38:10.001Z</time></trkpt><trkpt lat="45.84565865460258" lon="9.07573284519909"><ele>274.4</ele><time>2026-04-25T09:38:11.001Z</time></trkpt><trkpt lat="45.84557413016146" lon="9.075758173390698"><ele>274.2</ele><time>2026-04-25T09:38:12.001Z</time></trkpt><trkpt lat="45.8454932539091" lon="9.075745576546044"><ele>274.0</ele><time>2026-04-25T09:38:13.001Z</time></trkpt><trkpt lat="45.845414338852756" lon="9.075707606613532"><ele>274.0</ele><time>2026-04-25T09:38:14.001Z</time></trkpt><trkpt lat="45.84533863636562" lon="9.075663296621283"><ele>274.0</ele><time>2026-04-25T09:38:15.001Z</time></trkpt><trkpt lat="45.845267259966086" lon="9.075599225356175"><ele>274.0</ele><time>2026-04-25T09:38:16.001Z</time></trkpt><trkpt lat="45.84519545193627" lon="9.075514644003382"><ele>274.0</ele><time>2026-04-25T09:38:17.001Z</time></trkpt><trkpt lat="45.84513522206041" lon="9.07541550919496"><ele>274.0</ele><time>2026-04-25T09:38:18.001Z</time></trkpt><trkpt lat="45.84509416079864" lon="9.075304094541394"><ele>274.0</ele><time>2026-04-25T09:38:19.001Z</time></trkpt><trkpt lat="45.84505957305257" lon="9.075221001975267"><ele>271.0</ele><time>2026-04-25T09:38:20.001Z</time></trkpt><trkpt lat="45.844938878662376" lon="9.075190505200291"><ele>268.0</ele><time>2026-04-25T09:38:22.001Z</time></trkpt><trkpt lat="45.84484495902362" lon="9.075190624144872"><ele>265.0</ele><time>2026-04-25T09:38:23.001Z</time></trkpt><trkpt lat="45.84474698500781" lon="9.075221300874713"><ele>262.0</ele><time>2026-04-25T09:38:24.001Z</time></trkpt><trkpt lat="45.844654560123885" lon="9.075231645756888"><ele>259.0</ele><time>2026-04-25T09:38:25.001Z</time></trkpt><trkpt lat="45.844580380975074" lon="9.075264282347053"><ele>259.0</ele><time>2026-04-25T09:38:26.001Z</time></trkpt><trkpt lat="45.8445250681729" lon="9.07532970278832"><ele>259.0</ele><time>2026-04-25T09:38:27.001Z</time></trkpt><trkpt lat="45.84448320936582" lon="9.075412135734009"><ele>259.0</ele><time>2026-04-25T09:38:28.001Z</time></trkpt><trkpt lat="45.84438021898364" lon="9.075472382961633"><ele>259.0</ele><time>2026-04-25T09:38:30.001Z</time></trkpt><trkpt lat="45.84425796867423" lon="9.075354418378122"><ele>259.0</ele><time>2026-04-25T09:38:32.001Z</time></trkpt><trkpt lat="45.844182049823786" lon="9.075275253501506"><ele>255.39999999999998</ele><time>2026-04-25T09:38:33.001Z</time></trkpt><trkpt lat="45.844108986088905" lon="9.075201042556083"><ele>251.79999999999998</ele><time>2026-04-25T09:38:34.001Z</time></trkpt><trkpt lat="45.84405638268295" lon="9.075134997768169"><ele>248.20000000000002</ele><time>2026-04-25T09:38:35.001Z</time></trkpt><trkpt lat="45.84401162581638" lon="9.074971288680192"><ele>244.60000000000002</ele><time>2026-04-25T09:38:37.001Z</time></trkpt><trkpt lat="45.844003241433455" lon="9.074847251151224"><ele>241.0</ele><time>2026-04-25T09:38:38.001Z</time></trkpt><trkpt lat="45.84398707868089" lon="9.074708027689578"><ele>240.99999999999997</ele><time>2026-04-25T09:38:39.001Z</time></trkpt><trkpt lat="45.84396508651533" lon="9.074565182969838"><ele>241.0</ele><time>2026-04-25T09:38:40.001Z</time></trkpt><trkpt lat="45.84395244241363" lon="9.074439444515805"><ele>241.0</ele><time>2026-04-25T09:38:41.001Z</time></trkpt><trkpt lat="45.843942878145015" lon="9.074321968064325"><ele>241.0</ele><time>2026-04-25T09:38:42.001Z</time></trkpt><trkpt lat="45.843940735143775" lon="9.074210411440406"><ele>240.99999999999997</ele><time>2026-04-25T09:38:43.002Z</time></trkpt><trkpt lat="45.84395234415972" lon="9.07409761698858"><ele>241.0</ele><time>2026-04-25T09:38:44.002Z</time></trkpt><trkpt lat="45.84397078733255" lon="9.073991202531346"><ele>240.66666666666666</ele><time>2026-04-25T09:38:45.002Z</time></trkpt><trkpt lat="45.84399307219832" lon="9.07387479018678"><ele>240.33333333333331</ele><time>2026-04-25T09:38:46.002Z</time></trkpt><trkpt lat="45.8440102116947" lon="9.07375697036725"><ele>240.0</ele><time>2026-04-25T09:38:47.002Z</time></trkpt><trkpt lat="45.8440252535342" lon="9.073631391915882"><ele>239.66666666666669</ele><time>2026-04-25T09:38:48.002Z</time></trkpt><trkpt lat="45.84404097017166" lon="9.07351134267407"><ele>239.33333333333334</ele><time>2026-04-25T09:38:49.002Z</time></trkpt><trkpt lat="45.84405454111157" lon="9.073414613534599"><ele>239.0</ele><time>2026-04-25T09:38:50.002Z</time></trkpt><trkpt lat="45.84401712058507" lon="9.073262024235529"><ele>239.0</ele><time>2026-04-25T09:38:52.002Z</time></trkpt><trkpt lat="45.84388797025456" lon="9.073240222340662"><ele>238.99999999999997</ele><time>2026-04-25T09:38:54.002Z</time></trkpt><trkpt lat="45.84379810976653" lon="9.07327401524449"><ele>238.99999999999997</ele><time>2026-04-25T09:38:55.002Z</time></trkpt><trkpt lat="45.843695186457595" lon="9.073292937623764"><ele>239.0</ele><time>2026-04-25T09:38:56.002Z</time></trkpt><trkpt lat="45.84357793548001" lon="9.0733097141535"><ele>239.0</ele><time>2026-04-25T09:38:57.002Z</time></trkpt><trkpt lat="45.843454003683625" lon="9.073337785239321"><ele>236.5</ele><time>2026-04-25T09:38:58.002Z</time></trkpt><trkpt lat="45.843330679319536" lon="9.073363806212509"><ele>234.0</ele><time>2026-04-25T09:38:59.002Z</time></trkpt><trkpt lat="45.8432165275479" lon="9.07340432439975"><ele>231.5</ele><time>2026-04-25T09:39:00.002Z</time></trkpt><trkpt lat="45.84310312512453" lon="9.07342907954795"><ele>229.0</ele><time>2026-04-25T09:39:01.002Z</time></trkpt><trkpt lat="45.84298821458846" lon="9.073453323414892"><ele>229.0</ele><time>2026-04-25T09:39:02.002Z</time></trkpt><trkpt lat="45.84286318364875" lon="9.073488942528376"><ele>228.99999999999997</ele><time>2026-04-25T09:39:03.002Z</time></trkpt><trkpt lat="45.84275535046924" lon="9.073535439190197"><ele>228.99999999999997</ele><time>2026-04-25T09:39:04.002Z</time></trkpt><trkpt lat="45.842661221214335" lon="9.073592934326744"><ele>229.0</ele><time>2026-04-25T09:39:05.002Z</time></trkpt><trkpt lat="45.84257751672655" lon="9.073664154485947"><ele>229.0</ele><time>2026-04-25T09:39:06.002Z</time></trkpt><trkpt lat="45.842482281040155" lon="9.073732215431432"><ele>228.6</ele><time>2026-04-25T09:39:07.002Z</time></trkpt><trkpt lat="45.84237628619608" lon="9.073811923833953"><ele>228.2</ele><time>2026-04-25T09:39:08.002Z</time></trkpt><trkpt lat="45.84227930504917" lon="9.073883445973575"><ele>227.79999999999998</ele><time>2026-04-25T09:39:09.002Z</time></trkpt><trkpt lat="45.842188146568" lon="9.073948208476436"><ele>227.39999999999998</ele><time>2026-04-25T09:39:10.002Z</time></trkpt><trkpt lat="45.84210048169286" lon="9.074015467620898"><ele>227.0</ele><time>2026-04-25T09:39:11.002Z</time></trkpt><trkpt lat="45.84201992916279" lon="9.074076185848869"><ele>226.83333333333334</ele><time>2026-04-25T09:39:12.002Z</time></trkpt><trkpt lat="45.841944760231875" lon="9.074130665749628"><ele>226.66666666666669</ele><time>2026-04-25T09:39:13.002Z</time></trkpt><trkpt lat="45.84186840761054" lon="9.074181753887926"><ele>226.5</ele><time>2026-04-25T09:39:14.002Z</time></trkpt><trkpt lat="45.841810116557554" lon="9.074222761960387"><ele>226.33333333333331</ele><time>2026-04-25T09:39:15.002Z</time></trkpt><trkpt lat="45.841705451421845" lon="9.074272440924476"><ele>226.16666666666666</ele><time>2026-04-25T09:39:17.003Z</time></trkpt><trkpt lat="45.841606970404825" lon="9.074247831376985"><ele>226.0</ele><time>2026-04-25T09:39:19.003Z</time></trkpt><trkpt lat="45.84154281048079" lon="9.074197381824769"><ele>224.4</ele><time>2026-04-25T09:39:21.003Z</time></trkpt><trkpt lat="45.84146055348428" lon="9.074233780599315"><ele>222.8</ele><time>2026-04-25T09:39:23.998Z</time></trkpt><trkpt lat="45.84139790672736" lon="9.074308978579186"><ele>221.20000000000002</ele><time>2026-04-25T09:39:25.998Z</time></trkpt><trkpt lat="45.84129349201338" lon="9.074399995136861"><ele>219.60000000000002</ele><time>2026-04-25T09:39:27.999Z</time></trkpt><trkpt lat="45.841181556397366" lon="9.074486357949576"><ele>218.0</ele><time>2026-04-25T09:39:29.999Z</time></trkpt><trkpt lat="45.84107990169251" lon="9.074585344229089"><ele>218.0</ele><time>2026-04-25T09:39:31.999Z</time></trkpt><trkpt lat="45.84098314376385" lon="9.07468553468088"><ele>218.0</ele><time>2026-04-25T09:39:33.999Z</time></trkpt><trkpt lat="45.84088394655763" lon="9.074779527250799"><ele>218.0</ele><time>2026-04-25T09:39:35.999Z</time></trkpt><trkpt lat="45.84082806205653" lon="9.074831126758951"><ele>218.0</ele><time>2026-04-25T09:39:36.999Z</time></trkpt><trkpt lat="45.840729600352056" lon="9.074926106586492"><ele>218.0</ele><time>2026-04-25T09:39:38.999Z</time></trkpt><trkpt lat="45.840658518862945" lon="9.075011120454544"><ele>217.33333333333334</ele><time>2026-04-25T09:39:40.999Z</time></trkpt><trkpt lat="45.84058655690729" lon="9.075090801641682"><ele>216.66666666666669</ele><time>2026-04-25T09:39:43.999Z</time></trkpt><trkpt lat="45.84052466497077" lon="9.075144082511596"><ele>216.0</ele><time>2026-04-25T09:39:47Z</time></trkpt><trkpt lat="45.84046366979788" lon="9.075178013911966"><ele>215.33333333333331</ele><time>2026-04-25T09:39:51Z</time></trkpt><trkpt lat="45.84039186938244" lon="9.075107931359069"><ele>214.66666666666666</ele><time>2026-04-25T09:39:58Z</time></trkpt><trkpt lat="45.84029189171717" lon="9.07520942767758"><ele>214.0</ele><time>2026-04-25T09:40:03Z</time></trkpt><trkpt lat="45.840344931876686" lon="9.075361438185276"><ele>214.0</ele><time>2026-04-25T09:40:04Z</time></trkpt><trkpt lat="45.84041326469681" lon="9.075374340399849"><ele>213.99999999999997</ele><time>2026-04-25T09:40:05Z</time></trkpt><trkpt lat="45.84047661896312" lon="9.075373830281498"><ele>213.99999999999997</ele><time>2026-04-25T09:40:07Z</time></trkpt><trkpt lat="45.840473678239256" lon="9.075539820612427"><ele>214.0</ele><time>2026-04-25T09:40:08Z</time></trkpt><trkpt lat="45.84056368871895" lon="9.075669727129908"><ele>214.0</ele><time>2026-04-25T09:40:10Z</time></trkpt><trkpt lat="45.840636090521954" lon="9.075771686434006"><ele>213.39999999999998</ele><time>2026-04-25T09:40:12.001Z</time></trkpt><trkpt lat="45.840705587008046" lon="9.075845786633984"><ele>212.79999999999998</ele><time>2026-04-25T09:40:14.001Z</time></trkpt><trkpt lat="45.84077448874047" lon="9.075961182704171"><ele>212.2</ele><time>2026-04-25T09:40:16.001Z</time></trkpt><trkpt lat="45.840853951930285" lon="9.076068357150126"><ele>211.60000000000002</ele><time>2026-04-25T09:40:18.001Z</time></trkpt><trkpt lat="45.840902133967106" lon="9.076146092155298"><ele>211.0</ele><time>2026-04-25T09:40:20.001Z</time></trkpt><trkpt lat="45.84094978371344" lon="9.07624460477147"><ele>211.33333333333331</ele><time>2026-04-25T09:41:29Z</time></trkpt><trkpt lat="45.841021025226" lon="9.076348085889336"><ele>211.66666666666666</ele><time>2026-04-25T09:41:31Z</time></trkpt><trkpt lat="45.8410779836668" lon="9.076424393441634"><ele>212.0</ele><time>2026-04-25T09:41:33Z</time></trkpt><trkpt lat="45.84113583164442" lon="9.076493522096504"><ele>212.33333333333331</ele><time>2026-04-25T09:41:36Z</time></trkpt><trkpt lat="45.841213372377105" lon="9.076580418829009"><ele>212.66666666666666</ele><time>2026-04-25T09:41:38Z</time></trkpt><trkpt lat="45.84127108109883" lon="9.076641532237984"><ele>213.0</ele><time>2026-04-25T09:41:39Z</time></trkpt><trkpt lat="45.841325848104034" lon="9.07669882192973"><ele>212.99999999999997</ele><time>2026-04-25T09:41:40Z</time></trkpt><trkpt lat="45.84138250275758" lon="9.076758145436992"><ele>213.0</ele><time>2026-04-25T09:41:41Z</time></trkpt><trkpt lat="45.84144815428353" lon="9.0768270121196"><ele>213.0</ele><time>2026-04-25T09:41:42Z</time></trkpt><trkpt lat="45.841508977241105" lon="9.076890813739327"><ele>213.0</ele><time>2026-04-25T09:41:43Z</time></trkpt><trkpt lat="45.8415684441121" lon="9.076953192934582"><ele>213.0</ele><time>2026-04-25T09:41:44Z</time></trkpt><trkpt lat="45.8416254927644" lon="9.077013035704981"><ele>212.99999999999997</ele><time>2026-04-25T09:41:45Z</time></trkpt><trkpt lat="45.84168596284374" lon="9.077076099948911"><ele>213.0</ele><time>2026-04-25T09:41:46Z</time></trkpt><trkpt lat="45.84174292735125" lon="9.077136709383147"><ele>213.0</ele><time>2026-04-25T09:41:47Z</time></trkpt><trkpt lat="45.8417932636111" lon="9.077191578880647"><ele>213.0</ele><time>2026-04-25T09:41:48Z</time></trkpt><trkpt lat="45.84189213744116" lon="9.077299100327464"><ele>213.0</ele><time>2026-04-25T09:41:50Z</time></trkpt><trkpt lat="45.84195332748711" lon="9.077359842277637"><ele>213.0</ele><time>2026-04-25T09:41:51Z</time></trkpt><trkpt lat="45.84202412050551" lon="9.077410064464571"><ele>213.0</ele><time>2026-04-25T09:41:52Z</time></trkpt><trkpt lat="45.84208456560136" lon="9.077444656710487"><ele>213.0</ele><time>2026-04-25T09:41:53Z</time></trkpt><trkpt lat="45.84214370208823" lon="9.077476499488375"><ele>212.99999999999997</ele><time>2026-04-25T09:41:54.001Z</time></trkpt><trkpt lat="45.84223192885141" lon="9.077524189798856"><ele>213.0</ele><time>2026-04-25T09:41:55.001Z</time></trkpt><trkpt lat="45.84229813540369" lon="9.077563192638518"><ele>213.0</ele><time>2026-04-25T09:41:56.001Z</time></trkpt><trkpt lat="45.842363467749365" lon="9.077588916726835"><ele>213.0</ele><time>2026-04-25T09:41:57.001Z</time></trkpt><trkpt lat="45.84242596349947" lon="9.07761962060617"><ele>213.0</ele><time>2026-04-25T09:41:58.001Z</time></trkpt><trkpt lat="45.842495226032796" lon="9.077646057135375"><ele>212.99999999999997</ele><time>2026-04-25T09:41:59.001Z</time></trkpt><trkpt lat="45.84256464575454" lon="9.077666096430955"><ele>213.0</ele><time>2026-04-25T09:42:00.001Z</time></trkpt><trkpt lat="45.84263798416224" lon="9.07768793152058"><ele>213.42857142857142</ele><time>2026-04-25T09:42:01.001Z</time></trkpt><trkpt lat="45.84270141394924" lon="9.077697159462351"><ele>213.85714285714286</ele><time>2026-04-25T09:42:02.001Z</time></trkpt><trkpt lat="45.84276947404842" lon="9.077719148991667"><ele>214.28571428571428</ele><time>2026-04-25T09:42:03.001Z</time></trkpt><trkpt lat="45.842837259499476" lon="9.077738658131494"><ele>214.71428571428572</ele><time>2026-04-25T09:42:04.001Z</time></trkpt><trkpt lat="45.842906884585176" lon="9.077758180069269"><ele>215.14285714285714</ele><time>2026-04-25T09:42:05.001Z</time></trkpt><trkpt lat="45.84298083754556" lon="9.077784394042515"><ele>215.57142857142856</ele><time>2026-04-25T09:42:06.001Z</time></trkpt><trkpt lat="45.843053594485745" lon="9.077806106981393"><ele>216.0</ele><time>2026-04-25T09:42:07.001Z</time></trkpt><trkpt lat="45.84312190065261" lon="9.077820561236098"><ele>216.0</ele><time>2026-04-25T09:42:08.001Z</time></trkpt><trkpt lat="45.84318960877827" lon="9.077831447389155"><ele>216.0</ele><time>2026-04-25T09:42:09.001Z</time></trkpt><trkpt lat="45.84326816271332" lon="9.077847936508277"><ele>216.0</ele><time>2026-04-25T09:42:10.001Z</time></trkpt><trkpt lat="45.843356093764335" lon="9.077871583712566"><ele>216.0</ele><time>2026-04-25T09:42:11.001Z</time></trkpt><trkpt lat="45.84345117629852" lon="9.077898532063202"><ele>216.0</ele><time>2026-04-25T09:42:12.001Z</time></trkpt><trkpt lat="45.843537449201214" lon="9.077925800866536"><ele>216.0</ele><time>2026-04-25T09:42:13.001Z</time></trkpt><trkpt lat="45.84362553659927" lon="9.077954629249895"><ele>217.20000000000002</ele><time>2026-04-25T09:42:14.001Z</time></trkpt><trkpt lat="45.84372149833107" lon="9.077979873414332"><ele>218.40000000000003</ele><time>2026-04-25T09:42:15.001Z</time></trkpt><trkpt lat="45.84384099725241" lon="9.078009721572712"><ele>219.6</ele><time>2026-04-25T09:42:16.001Z</time></trkpt><trkpt lat="45.84396254471728" lon="9.078052290474584"><ele>220.8</ele><time>2026-04-25T09:42:17.001Z</time></trkpt><trkpt lat="45.84405482686038" lon="9.078084080196817"><ele>222.0</ele><time>2026-04-25T09:42:18.001Z</time></trkpt><trkpt lat="45.84415275793894" lon="9.078118943558582"><ele>222.0</ele><time>2026-04-25T09:42:19.001Z</time></trkpt><trkpt lat="45.84424094601353" lon="9.078166392267269"><ele>222.0</ele><time>2026-04-25T09:42:20.001Z</time></trkpt><trkpt lat="45.84432773996943" lon="9.078228371835099"><ele>222.0</ele><time>2026-04-25T09:42:21.001Z</time></trkpt><trkpt lat="45.844415313948204" lon="9.078293437940484"><ele>222.0</ele><time>2026-04-25T09:42:22.001Z</time></trkpt><trkpt lat="45.84450926256513" lon="9.078361114585022"><ele>222.0</ele><time>2026-04-25T09:42:23.001Z</time></trkpt><trkpt lat="45.84460813981361" lon="9.078452039374605"><ele>220.5</ele><time>2026-04-25T09:42:24.001Z</time></trkpt><trkpt lat="45.8447345254992" lon="9.07849963646843"><ele>219.0</ele><time>2026-04-25T09:42:25.001Z</time></trkpt><trkpt lat="45.84486870962308" lon="9.078512654461722"><ele>217.5</ele><time>2026-04-25T09:42:26.001Z</time></trkpt><trkpt lat="45.84499758767257" lon="9.078557619234585"><ele>216.0</ele><time>2026-04-25T09:42:27.001Z</time></trkpt><trkpt lat="45.84512590726758" lon="9.078614692093245"><ele>218.0</ele><time>2026-04-25T09:42:28.001Z</time></trkpt><trkpt lat="45.845263799549016" lon="9.078652177628976"><ele>220.0</ele><time>2026-04-25T09:42:29.002Z</time></trkpt><trkpt lat="45.84539168623269" lon="9.078688329490378"><ele>222.0</ele><time>2026-04-25T09:42:30.002Z</time></trkpt><trkpt lat="45.845516564115215" lon="9.078720744844913"><ele>224.0</ele><time>2026-04-25T09:42:31.002Z</time></trkpt><trkpt lat="45.845641684092676" lon="9.078768905880086"><ele>224.0</ele><time>2026-04-25T09:42:32.002Z</time></trkpt><trkpt lat="45.84576573118169" lon="9.078834561852204"><ele>224.0</ele><time>2026-04-25T09:42:33.002Z</time></trkpt><trkpt lat="45.84588890041409" lon="9.07893738449292"><ele>224.0</ele><time>2026-04-25T09:42:34.002Z</time></trkpt><trkpt lat="45.84600355653402" lon="9.079037217459927"><ele>224.0</ele><time>2026-04-25T09:42:35.002Z</time></trkpt><trkpt lat="45.84608935660883" lon="9.079179118255801"><ele>230.25</ele><time>2026-04-25T09:42:36.002Z</time></trkpt><trkpt lat="45.84617368589942" lon="9.079343383052391"><ele>236.5</ele><time>2026-04-25T09:42:37.002Z</time></trkpt><trkpt lat="45.84623845394704" lon="9.079471124074878"><ele>242.75</ele><time>2026-04-25T09:42:38.002Z</time></trkpt><trkpt lat="45.84628458947554" lon="9.079666138651836"><ele>249.0</ele><time>2026-04-25T09:42:39.002Z</time></trkpt><trkpt lat="45.8463112771266" lon="9.079867590469373"><ele>248.33333333333331</ele><time>2026-04-25T09:42:40.002Z</time></trkpt><trkpt lat="45.84633073565263" lon="9.080071327143159"><ele>247.66666666666666</ele><time>2026-04-25T09:42:41.002Z</time></trkpt><trkpt lat="45.84635403596699" lon="9.080291379566123"><ele>247.0</ele><time>2026-04-25T09:42:42.002Z</time></trkpt><trkpt lat="45.84634621390984" lon="9.080509086201827"><ele>247.0</ele><time>2026-04-25T09:42:43.002Z</time></trkpt><trkpt lat="45.84636004614223" lon="9.08070585337008"><ele>247.0</ele><time>2026-04-25T09:42:44.002Z</time></trkpt><trkpt lat="45.846371867043466" lon="9.080867833897347"><ele>247.0</ele><time>2026-04-25T09:42:45.002Z</time></trkpt><trkpt lat="45.84638611405722" lon="9.081051454452929"><ele>247.0</ele><time>2026-04-25T09:42:46.002Z</time></trkpt><trkpt lat="45.84639995452316" lon="9.081233841909793"><ele>246.25</ele><time>2026-04-25T09:42:47.002Z</time></trkpt><trkpt lat="45.846412601218695" lon="9.08139853597245"><ele>245.5</ele><time>2026-04-25T09:42:48.002Z</time></trkpt><trkpt lat="45.84643424809022" lon="9.08154866397008"><ele>244.75</ele><time>2026-04-25T09:42:49.002Z</time></trkpt><trkpt lat="45.846444533358294" lon="9.081715354965914"><ele>244.0</ele><time>2026-04-25T09:42:50.002Z</time></trkpt><trkpt lat="45.84646204038803" lon="9.08189653465459"><ele>242.75</ele><time>2026-04-25T09:42:51.002Z</time></trkpt><trkpt lat="45.846474844067174" lon="9.08208575858858"><ele>241.5</ele><time>2026-04-25T09:42:52.002Z</time></trkpt><trkpt lat="45.846484088285635" lon="9.082266779669448"><ele>240.25</ele><time>2026-04-25T09:42:53.002Z</time></trkpt><trkpt lat="45.846496311210295" lon="9.082436363412103"><ele>239.0</ele><time>2026-04-25T09:42:54.002Z</time></trkpt><trkpt lat="45.8465061140368" lon="9.082590965433779"><ele>239.0</ele><time>2026-04-25T09:42:55.002Z</time></trkpt><trkpt lat="45.846516277275406" lon="9.082735893751513"><ele>238.99999999999997</ele><time>2026-04-25T09:42:56.002Z</time></trkpt><trkpt lat="45.84652784332125" lon="9.082875560757255"><ele>238.99999999999997</ele><time>2026-04-25T09:42:57.002Z</time></trkpt><trkpt lat="45.84653434142604" lon="9.083014098707066"><ele>239.0</ele><time>2026-04-25T09:42:58.002Z</time></trkpt><trkpt lat="45.84654782356667" lon="9.083185805056665"><ele>239.0</ele><time>2026-04-25T09:42:59.002Z</time></trkpt><trkpt lat="45.846558278582705" lon="9.08334205468172"><ele>237.5</ele><time>2026-04-25T09:43:00.002Z</time></trkpt><trkpt lat="45.846572154617576" lon="9.083509307912099"><ele>236.0</ele><time>2026-04-25T09:43:01.002Z</time></trkpt><trkpt lat="45.84656709985049" lon="9.083699675703816"><ele>234.5</ele><time>2026-04-25T09:43:02.002Z</time></trkpt><trkpt lat="45.84655897568051" lon="9.083903093733669"><ele>233.0</ele><time>2026-04-25T09:43:03.002Z</time></trkpt><trkpt lat="45.84653830186924" lon="9.084116944760524"><ele>233.0</ele><time>2026-04-25T09:43:04.003Z</time></trkpt><trkpt lat="45.84651009121383" lon="9.084315223800221"><ele>233.0</ele><time>2026-04-25T09:43:05.003Z</time></trkpt><trkpt lat="45.84648377518224" lon="9.084482286203187"><ele>233.0</ele><time>2026-04-25T09:43:06.003Z</time></trkpt><trkpt lat="45.84646473285993" lon="9.084644989045797"><ele>233.0</ele><time>2026-04-25T09:43:07.003Z</time></trkpt><trkpt lat="45.84644352745253" lon="9.08482765029667"><ele>235.0</ele><time>2026-04-25T09:43:08.003Z</time></trkpt><trkpt lat="45.84642509474283" lon="9.085020071554126"><ele>237.0</ele><time>2026-04-25T09:43:09.003Z</time></trkpt><trkpt lat="45.84639210438537" lon="9.085224547349128"><ele>239.0</ele><time>2026-04-25T09:43:10.003Z</time></trkpt><trkpt lat="45.846326743679576" lon="9.085419650354808"><ele>241.0</ele><time>2026-04-25T09:43:11.003Z</time></trkpt><trkpt lat="45.84626463909373" lon="9.085621920709306"><ele>242.75</ele><time>2026-04-25T09:43:12.003Z</time></trkpt><trkpt lat="45.846217056422816" lon="9.085830807389396"><ele>244.5</ele><time>2026-04-25T09:43:13.003Z</time></trkpt><trkpt lat="45.846146451651045" lon="9.08601053028277"><ele>246.25</ele><time>2026-04-25T09:43:14.003Z</time></trkpt><trkpt lat="45.846086526890616" lon="9.086176755162068"><ele>248.0</ele><time>2026-04-25T09:43:15.003Z</time></trkpt><trkpt lat="45.84603430938412" lon="9.086327434146634"><ele>248.0</ele><time>2026-04-25T09:43:16.003Z</time></trkpt><trkpt lat="45.84599145978341" lon="9.086459120578711"><ele>248.0</ele><time>2026-04-25T09:43:17.003Z</time></trkpt><trkpt lat="45.845965947130885" lon="9.086593056285228"><ele>248.0</ele><time>2026-04-25T09:43:18.003Z</time></trkpt><trkpt lat="45.84594929451366" lon="9.086764537758045"><ele>248.0</ele><time>2026-04-25T09:43:19.003Z</time></trkpt><trkpt lat="45.84599117339687" lon="9.086968796502758"><ele>248.75</ele><time>2026-04-25T09:43:20.003Z</time></trkpt><trkpt lat="45.846072241607956" lon="9.087161816443475"><ele>249.5</ele><time>2026-04-25T09:43:21.003Z</time></trkpt><trkpt lat="45.84614014132811" lon="9.087331063985344"><ele>250.25</ele><time>2026-04-25T09:43:22.003Z</time></trkpt><trkpt lat="45.84620518699256" lon="9.087498127993006"><ele>251.0</ele><time>2026-04-25T09:43:23.003Z</time></trkpt><trkpt lat="45.84626497314547" lon="9.087651682935531"><ele>251.0</ele><time>2026-04-25T09:43:24.003Z</time></trkpt><trkpt lat="45.84633389090423" lon="9.08779948373428"><ele>251.0</ele><time>2026-04-25T09:43:25.003Z</time></trkpt><trkpt lat="45.84639464513186" lon="9.087956361911095"><ele>251.0</ele><time>2026-04-25T09:43:26.003Z</time></trkpt><trkpt lat="45.84646015912647" lon="9.088105169722887"><ele>251.0</ele><time>2026-04-25T09:43:27.003Z</time></trkpt><trkpt lat="45.84652423611978" lon="9.088265010913853"><ele>248.75</ele><time>2026-04-25T09:43:28.003Z</time></trkpt><trkpt lat="45.84659346374925" lon="9.088420892054122"><ele>246.5</ele><time>2026-04-25T09:43:29.003Z</time></trkpt><trkpt lat="45.84668214831126" lon="9.088560398001718"><ele>244.25</ele><time>2026-04-25T09:43:30.003Z</time></trkpt><trkpt lat="45.84678967481497" lon="9.088690901119072"><ele>242.0</ele><time>2026-04-25T09:43:31.003Z</time></trkpt><trkpt lat="45.846922638131076" lon="9.088767276752721"><ele>247.5</ele><time>2026-04-25T09:43:32.003Z</time></trkpt><trkpt lat="45.84704587865959" lon="9.08886861272348"><ele>253.0</ele><time>2026-04-25T09:43:33.003Z</time></trkpt><trkpt lat="45.84717493637615" lon="9.088922180057446"><ele>258.5</ele><time>2026-04-25T09:43:34Z</time></trkpt><trkpt lat="45.84730950369108" lon="9.088948221498834"><ele>264.0</ele><time>2026-04-25T09:43:35Z</time></trkpt><trkpt lat="45.847449617888145" lon="9.08895726364057"><ele>264.0</ele><time>2026-04-25T09:43:36Z</time></trkpt><trkpt lat="45.847593976713426" lon="9.088933431979397"><ele>264.0</ele><time>2026-04-25T09:43:37Z</time></trkpt><trkpt lat="45.84773708457297" lon="9.088946408423979"><ele>264.0</ele><time>2026-04-25T09:43:38Z</time></trkpt><trkpt lat="45.847877970246515" lon="9.088938441065311"><ele>264.0</ele><time>2026-04-25T09:43:39Z</time></trkpt><trkpt lat="45.84801987431933" lon="9.088930420590042"><ele>266.25</ele><time>2026-04-25T09:43:40Z</time></trkpt><trkpt lat="45.848146428659085" lon="9.088923267692731"><ele>268.5</ele><time>2026-04-25T09:43:41Z</time></trkpt><trkpt lat="45.84827195405664" lon="9.088916172946771"><ele>270.75</ele><time>2026-04-25T09:43:42Z</time></trkpt><trkpt lat="45.84839740758016" lon="9.08890908226503"><ele>273.0</ele><time>2026-04-25T09:43:43Z</time></trkpt><trkpt lat="45.84853053935702" lon="9.088879405698853"><ele>275.25</ele><time>2026-04-25T09:43:44Z</time></trkpt><trkpt lat="45.848658456117896" lon="9.088887283036216"><ele>277.5</ele><time>2026-04-25T09:43:45Z</time></trkpt><trkpt lat="45.848783152188346" lon="9.088888641689293"><ele>279.75</ele><time>2026-04-25T09:43:46Z</time></trkpt><trkpt lat="45.848923193534546" lon="9.088873111201925"><ele>282.0</ele><time>2026-04-25T09:43:47Z</time></trkpt><trkpt lat="45.84905990576544" lon="9.088864680245077"><ele>282.0</ele><time>2026-04-25T09:43:48Z</time></trkpt><trkpt lat="45.84917062291085" lon="9.08888353103553"><ele>282.0</ele><time>2026-04-25T09:43:49Z</time></trkpt><trkpt lat="45.84928318303426" lon="9.088888224268429"><ele>282.0</ele><time>2026-04-25T09:43:50Z</time></trkpt><trkpt lat="45.849402356043306" lon="9.088907195113356"><ele>282.0</ele><time>2026-04-25T09:43:51Z</time></trkpt><trkpt lat="45.8495161155097" lon="9.088925371927752"><ele>284.0</ele><time>2026-04-25T09:43:52Z</time></trkpt><trkpt lat="45.84965143880361" lon="9.088952197847087"><ele>286.0</ele><time>2026-04-25T09:43:53Z</time></trkpt><trkpt lat="45.84979813625569" lon="9.088977930399182"><ele>288.0</ele><time>2026-04-25T09:43:54Z</time></trkpt><trkpt lat="45.849939523343636" lon="9.089025229840761"><ele>290.0</ele><time>2026-04-25T09:43:55Z</time></trkpt><trkpt lat="45.85007377311105" lon="9.089069350341054"><ele>279.75</ele><time>2026-04-25T09:43:56Z</time></trkpt><trkpt lat="45.85020524390099" lon="9.089097157202762"><ele>269.5</ele><time>2026-04-25T09:43:57Z</time></trkpt><trkpt lat="45.850324465895845" lon="9.089133244438695"><ele>259.25</ele><time>2026-04-25T09:43:58Z</time></trkpt><trkpt lat="45.85044005150179" lon="9.089175706234515"><ele>249.0</ele><time>2026-04-25T09:43:59Z</time></trkpt><trkpt lat="45.85056431742284" lon="9.08918065723898"><ele>249.0</ele><time>2026-04-25T09:44:00Z</time></trkpt><trkpt lat="45.85068915050571" lon="9.089160710885343"><ele>248.99999999999997</ele><time>2026-04-25T09:44:01Z</time></trkpt><trkpt lat="45.85079743556662" lon="9.089140519171158"><ele>248.99999999999997</ele><time>2026-04-25T09:44:02Z</time></trkpt><trkpt lat="45.85090469418173" lon="9.089105688257545"><ele>249.0</ele><time>2026-04-25T09:44:03Z</time></trkpt><trkpt lat="45.85099961626459" lon="9.08907401029361"><ele>249.0</ele><time>2026-04-25T09:44:04Z</time></trkpt><trkpt lat="45.85108928273793" lon="9.089035232490891"><ele>256.6666666666667</ele><time>2026-04-25T09:44:05Z</time></trkpt><trkpt lat="45.851171858630494" lon="9.08901265588359"><ele>264.3333333333333</ele><time>2026-04-25T09:44:06Z</time></trkpt><trkpt lat="45.851242941800486" lon="9.089003785037235"><ele>272.0</ele><time>2026-04-25T09:44:07Z</time></trkpt><trkpt lat="45.8513382078604" lon="9.088999452874106"><ele>279.66666666666663</ele><time>2026-04-25T09:44:09.001Z</time></trkpt><trkpt lat="45.851410897227794" lon="9.088976770850048"><ele>287.3333333333333</ele><time>2026-04-25T09:44:13.001Z</time></trkpt><trkpt lat="45.85153340348468" lon="9.088996316322536"><ele>295.0</ele><time>2026-04-25T09:44:15.001Z</time></trkpt><trkpt lat="45.85160160724834" lon="9.089003756134924"><ele>295.0</ele><time>2026-04-25T09:44:16.001Z</time></trkpt><trkpt lat="45.85169723320291" lon="9.089006520477138"><ele>295.0</ele><time>2026-04-25T09:44:17.001Z</time></trkpt><trkpt lat="45.85181176887414" lon="9.089019436293988"><ele>295.0</ele><time>2026-04-25T09:44:18.001Z</time></trkpt><trkpt lat="45.85193156928911" lon="9.089039753435738"><ele>295.0</ele><time>2026-04-25T09:44:19.001Z</time></trkpt><trkpt lat="45.85203808660162" lon="9.089061322681069"><ele>295.0</ele><time>2026-04-25T09:44:20.001Z</time></trkpt><trkpt lat="45.85214743782277" lon="9.089090049088707"><ele>287.5</ele><time>2026-04-25T09:44:21.001Z</time></trkpt><trkpt lat="45.85225329376232" lon="9.089105828398552"><ele>280.0</ele><time>2026-04-25T09:44:22.001Z</time></trkpt><trkpt lat="45.85236742831148" lon="9.089145488272543"><ele>272.5</ele><time>2026-04-25T09:44:23.001Z</time></trkpt><trkpt lat="45.85247993798544" lon="9.089190484481158"><ele>265.0</ele><time>2026-04-25T09:44:24.001Z</time></trkpt><trkpt lat="45.85258599650957" lon="9.089235403654737"><ele>272.5</ele><time>2026-04-25T09:44:25.001Z</time></trkpt><trkpt lat="45.8526966189463" lon="9.089288327331438"><ele>280.0</ele><time>2026-04-25T09:44:26.001Z</time></trkpt><trkpt lat="45.85279630211699" lon="9.089339930581614"><ele>287.5</ele><time>2026-04-25T09:44:27.001Z</time></trkpt><trkpt lat="45.85290339332772" lon="9.089397332704708"><ele>295.0</ele><time>2026-04-25T09:44:28.001Z</time></trkpt><trkpt lat="45.85301778642183" lon="9.089467246833326"><ele>295.0</ele><time>2026-04-25T09:44:29.001Z</time></trkpt><trkpt lat="45.853140945285986" lon="9.089560849746693"><ele>295.0</ele><time>2026-04-25T09:44:30.001Z</time></trkpt><trkpt lat="45.853262980224635" lon="9.089654624038046"><ele>295.0</ele><time>2026-04-25T09:44:31.001Z</time></trkpt><trkpt lat="45.85340004225851" lon="9.0897507882766"><ele>295.0</ele><time>2026-04-25T09:44:32.001Z</time></trkpt><trkpt lat="45.85352218957699" lon="9.089833125108845"><ele>294.25</ele><time>2026-04-25T09:44:33.001Z</time></trkpt><trkpt lat="45.85364224336981" lon="9.089948305471182"><ele>293.5</ele><time>2026-04-25T09:44:34.001Z</time></trkpt><trkpt lat="45.85377384065341" lon="9.090048160182166"><ele>292.75</ele><time>2026-04-25T09:44:35.001Z</time></trkpt><trkpt lat="45.853905685694166" lon="9.09014820287916"><ele>292.0</ele><time>2026-04-25T09:44:36.001Z</time></trkpt><trkpt lat="45.85403869818112" lon="9.09024913142294"><ele>292.0</ele><time>2026-04-25T09:44:37.001Z</time></trkpt><trkpt lat="45.85417335962889" lon="9.090351539247399"><ele>292.0</ele><time>2026-04-25T09:44:38.001Z</time></trkpt><trkpt lat="45.85430883352878" lon="9.090454571403031"><ele>292.0</ele><time>2026-04-25T09:44:39.001Z</time></trkpt><trkpt lat="45.85447634237103" lon="9.090557171036671"><ele>290.0</ele><time>2026-04-25T09:44:40.001Z</time></trkpt><trkpt lat="45.85461200646599" lon="9.090685143957842"><ele>288.0</ele><time>2026-04-25T09:44:41.002Z</time></trkpt><trkpt lat="45.8547508663549" lon="9.09079075125024"><ele>286.0</ele><time>2026-04-25T09:44:42.002Z</time></trkpt><trkpt lat="45.85488169840652" lon="9.09089025314195"><ele>286.0</ele><time>2026-04-25T09:44:43.002Z</time></trkpt><trkpt lat="45.85500008132688" lon="9.090979826043384"><ele>286.0</ele><time>2026-04-25T09:44:44.002Z</time></trkpt><trkpt lat="45.85511462883123" lon="9.091065284270192"><ele>286.0</ele><time>2026-04-25T09:44:45.002Z</time></trkpt><trkpt lat="45.85522232899417" lon="9.091140417118815"><ele>286.0</ele><time>2026-04-25T09:44:46.002Z</time></trkpt><trkpt lat="45.855340131960496" lon="9.091214465331838"><ele>294.25</ele><time>2026-04-25T09:44:47.019Z</time></trkpt><trkpt lat="45.855463924107546" lon="9.091283686650902"><ele>302.5</ele><time>2026-04-25T09:44:48.019Z</time></trkpt><trkpt lat="45.85558992660478" lon="9.091350057165686"><ele>310.75</ele><time>2026-04-25T09:44:49.021Z</time></trkpt><trkpt lat="45.855715050721294" lon="9.09141453972777"><ele>319.0</ele><time>2026-04-25T09:44:50.021Z</time></trkpt><trkpt lat="45.85582432508543" lon="9.091471507257872"><ele>319.0</ele><time>2026-04-25T09:44:51.002Z</time></trkpt><trkpt lat="45.85594856531925" lon="9.091536578447185"><ele>319.0</ele><time>2026-04-25T09:44:52.002Z</time></trkpt><trkpt lat="45.856067398965145" lon="9.09159868908707"><ele>319.0</ele><time>2026-04-25T09:44:53.002Z</time></trkpt><trkpt lat="45.8561901994884" lon="9.091637048754576"><ele>319.0</ele><time>2026-04-25T09:44:54.002Z</time></trkpt><trkpt lat="45.856294555470846" lon="9.091700084740701"><ele>317.2</ele><time>2026-04-25T09:44:55.002Z</time></trkpt><trkpt lat="45.856394992486265" lon="9.091763528325334"><ele>315.4</ele><time>2026-04-25T09:44:56.002Z</time></trkpt><trkpt lat="45.85649530976532" lon="9.091817460228116"><ele>313.6</ele><time>2026-04-25T09:44:57.002Z</time></trkpt><trkpt lat="45.85659709481485" lon="9.091879274226004"><ele>311.8</ele><time>2026-04-25T09:44:58.002Z</time></trkpt><trkpt lat="45.85669776122873" lon="9.091941315413576"><ele>310.0</ele><time>2026-04-25T09:44:59.002Z</time></trkpt><trkpt lat="45.856791592912906" lon="9.09200224682989"><ele>315.8</ele><time>2026-04-25T09:45:00.002Z</time></trkpt><trkpt lat="45.856874494863156" lon="9.092058937139527"><ele>321.6</ele><time>2026-04-25T09:45:01.002Z</time></trkpt><trkpt lat="45.8569591343698" lon="9.092121469349461"><ele>327.4</ele><time>2026-04-25T09:45:02.016Z</time></trkpt><trkpt lat="45.857045482826955" lon="9.09218485412201"><ele>333.2</ele><time>2026-04-25T09:45:03.019Z</time></trkpt><trkpt lat="45.85713227975635" lon="9.092247804336969"><ele>339.0</ele><time>2026-04-25T09:45:04.02Z</time></trkpt><trkpt lat="45.85762246050486" lon="9.092385889970783"><ele>339.5</ele><time>2026-04-25T09:45:07.002Z</time></trkpt><trkpt lat="45.85771881006187" lon="9.092473077171315"><ele>340.0</ele><time>2026-04-25T09:45:08.002Z</time></trkpt><trkpt lat="45.8578362332233" lon="9.092541036794632"><ele>340.5</ele><time>2026-04-25T09:45:09.002Z</time></trkpt><trkpt lat="45.85793274575745" lon="9.092653261820073"><ele>341.0</ele><time>2026-04-25T09:45:10.002Z</time></trkpt><trkpt lat="45.858029571267096" lon="9.092787814300006"><ele>341.0</ele><time>2026-04-25T09:45:11.002Z</time></trkpt><trkpt lat="45.85812042290944" lon="9.092931774716407"><ele>341.0</ele><time>2026-04-25T09:45:12.002Z</time></trkpt><trkpt lat="45.85817291291069" lon="9.093080789077483"><ele>341.0</ele><time>2026-04-25T09:45:13.002Z</time></trkpt><trkpt lat="45.85823996648522" lon="9.09321325566379"><ele>341.0</ele><time>2026-04-25T09:45:14.003Z</time></trkpt><trkpt lat="45.85829212733247" lon="9.093338310721913"><ele>343.1666666666667</ele><time>2026-04-25T09:45:15.003Z</time></trkpt><trkpt lat="45.8583311596062" lon="9.093458552858602"><ele>345.33333333333337</ele><time>2026-04-25T09:45:16.003Z</time></trkpt><trkpt lat="45.85838770560659" lon="9.093564721108386"><ele>347.5</ele><time>2026-04-25T09:45:17.003Z</time></trkpt><trkpt lat="45.85843800195553" lon="9.093679036903634"><ele>349.6666666666667</ele><time>2026-04-25T09:45:18.003Z</time></trkpt><trkpt lat="45.858469213133084" lon="9.093793361733955"><ele>351.8333333333333</ele><time>2026-04-25T09:45:19.003Z</time></trkpt><trkpt lat="45.858507001810764" lon="9.09389404285577"><ele>354.0</ele><time>2026-04-25T09:45:20.003Z</time></trkpt><trkpt lat="45.858545667444034" lon="9.09399541371235"><ele>347.8333333333333</ele><time>2026-04-25T09:45:21.003Z</time></trkpt><trkpt lat="45.85858969263135" lon="9.094109737982484"><ele>341.6666666666667</ele><time>2026-04-25T09:45:22.003Z</time></trkpt><trkpt lat="45.85864169497436" lon="9.094199687297431"><ele>335.5</ele><time>2026-04-25T09:45:23.003Z</time></trkpt><trkpt lat="45.858676680270776" lon="9.094313085623305"><ele>329.33333333333337</ele><time>2026-04-25T09:45:24.003Z</time></trkpt><trkpt lat="45.858716710515836" lon="9.094420487838335"><ele>323.1666666666667</ele><time>2026-04-25T09:45:25.003Z</time></trkpt><trkpt lat="45.85876240017076" lon="9.094531055547458"><ele>317.0</ele><time>2026-04-25T09:45:26.003Z</time></trkpt><trkpt lat="45.85881376420301" lon="9.094644846467055"><ele>317.0</ele><time>2026-04-25T09:45:27.003Z</time></trkpt><trkpt lat="45.85886837373341" lon="9.094746618757032"><ele>317.0</ele><time>2026-04-25T09:45:28.003Z</time></trkpt><trkpt lat="45.85891055716926" lon="9.094867203967612"><ele>317.0</ele><time>2026-04-25T09:45:29.003Z</time></trkpt><trkpt lat="45.85897645877917" lon="9.094973853238576"><ele>317.0</ele><time>2026-04-25T09:45:30.003Z</time></trkpt><trkpt lat="45.85904664397134" lon="9.095076644854263"><ele>317.0</ele><time>2026-04-25T09:45:31.003Z</time></trkpt><trkpt lat="45.859128021417526" lon="9.095175351617968"><ele>319.2</ele><time>2026-04-25T09:45:32.003Z</time></trkpt><trkpt lat="45.85920778274324" lon="9.095264001172323"><ele>321.4</ele><time>2026-04-25T09:45:33.003Z</time></trkpt><trkpt lat="45.85927940745069" lon="9.095314259216858"><ele>323.59999999999997</ele><time>2026-04-25T09:45:34.003Z</time></trkpt><trkpt lat="45.859370643274445" lon="9.095415163222182"><ele>325.79999999999995</ele><time>2026-04-25T09:45:36.003Z</time></trkpt><trkpt lat="45.85944702190777" lon="9.095499700798245"><ele>328.0</ele><time>2026-04-25T09:45:38.003Z</time></trkpt><trkpt lat="45.85950184628247" lon="9.09555599874581"><ele>328.0</ele><time>2026-04-25T09:45:39.999Z</time></trkpt><trkpt lat="45.85958119210679" lon="9.095646811067333"><ele>328.0</ele><time>2026-04-25T09:45:41.999Z</time></trkpt><trkpt lat="45.85964168949215" lon="9.095703055471642"><ele>328.0</ele><time>2026-04-25T09:45:43.999Z</time></trkpt><trkpt lat="45.85970908677878" lon="9.09577404198262"><ele>328.0</ele><time>2026-04-25T09:45:45.999Z</time></trkpt><trkpt lat="45.85979605759265" lon="9.09586835826169"><ele>328.0</ele><time>2026-04-25T09:45:48Z</time></trkpt><trkpt lat="45.85990561374246" lon="9.095983191180633"><ele>328.2857142857143</ele><time>2026-04-25T09:45:50Z</time></trkpt><trkpt lat="45.85996460386355" lon="9.096040596021133"><ele>328.57142857142856</ele><time>2026-04-25T09:45:51Z</time></trkpt><trkpt lat="45.86001957493599" lon="9.096102324513758"><ele>328.8571428571429</ele><time>2026-04-25T09:45:52Z</time></trkpt><trkpt lat="45.86007933553459" lon="9.096161570363202"><ele>329.1428571428571</ele><time>2026-04-25T09:45:53Z</time></trkpt><trkpt lat="45.86013807248837" lon="9.096218556836803"><ele>329.42857142857144</ele><time>2026-04-25T09:45:54Z</time></trkpt><trkpt lat="45.860194267173284" lon="9.096278607583232"><ele>329.7142857142857</ele><time>2026-04-25T09:45:55Z</time></trkpt><trkpt lat="45.86024901228129" lon="9.096338957208802"><ele>330.0</ele><time>2026-04-25T09:45:56Z</time></trkpt><trkpt lat="45.86031348611463" lon="9.096405214018224"><ele>330.00000000000006</ele><time>2026-04-25T09:45:57Z</time></trkpt><trkpt lat="45.86037346955457" lon="9.096478166181937"><ele>330.0</ele><time>2026-04-25T09:45:58Z</time></trkpt><trkpt lat="45.860427575373215" lon="9.096552613625997"><ele>330.0</ele><time>2026-04-25T09:45:59Z</time></trkpt><trkpt lat="45.86047710770119" lon="9.096633278508353"><ele>330.0</ele><time>2026-04-25T09:46:00Z</time></trkpt><trkpt lat="45.86052259100056" lon="9.096720447811707"><ele>330.0</ele><time>2026-04-25T09:46:01Z</time></trkpt><trkpt lat="45.860562441881605" lon="9.096801979201162"><ele>330.00000000000006</ele><time>2026-04-25T09:46:02Z</time></trkpt><trkpt lat="45.86060344509216" lon="9.09688943980031"><ele>330.0</ele><time>2026-04-25T09:46:03Z</time></trkpt><trkpt lat="45.860637994007426" lon="9.09697909973029"><ele>324.5</ele><time>2026-04-25T09:46:04Z</time></trkpt><trkpt lat="45.86067349639114" lon="9.097063491778314"><ele>319.0</ele><time>2026-04-25T09:46:05Z</time></trkpt><trkpt lat="45.860715189041876" lon="9.097146419688208"><ele>313.5</ele><time>2026-04-25T09:46:06Z</time></trkpt><trkpt lat="45.860750301092345" lon="9.097243184342856"><ele>308.0</ele><time>2026-04-25T09:46:07Z</time></trkpt><trkpt lat="45.8607913989358" lon="9.097342785700906"><ele>302.5</ele><time>2026-04-25T09:46:08Z</time></trkpt><trkpt lat="45.86084341479709" lon="9.097441979700562"><ele>297.0</ele><time>2026-04-25T09:46:09Z</time></trkpt><trkpt lat="45.86090680545636" lon="9.09754643786535"><ele>297.2</ele><time>2026-04-25T09:46:10Z</time></trkpt><trkpt lat="45.86097575823168" lon="9.09763698533436"><ele>297.4</ele><time>2026-04-25T09:46:11Z</time></trkpt><trkpt lat="45.86104336930154" lon="9.09771356737656"><ele>297.6</ele><time>2026-04-25T09:46:12Z</time></trkpt><trkpt lat="45.86111191662397" lon="9.09777617110749"><ele>297.8</ele><time>2026-04-25T09:46:13.001Z</time></trkpt><trkpt lat="45.861231525674306" lon="9.097853186160789"><ele>298.0</ele><time>2026-04-25T09:46:15.001Z</time></trkpt><trkpt lat="45.861304842022285" lon="9.097888854129742"><ele>298.0</ele><time>2026-04-25T09:46:16.001Z</time></trkpt><trkpt lat="45.86139521464676" lon="9.097940720622853"><ele>298.0</ele><time>2026-04-25T09:46:17.001Z</time></trkpt><trkpt lat="45.86150608350764" lon="9.097966274683566"><ele>298.0</ele><time>2026-04-25T09:46:18.001Z</time></trkpt><trkpt lat="45.8615978129061" lon="9.097975899303497"><ele>298.0</ele><time>2026-04-25T09:46:19.001Z</time></trkpt><trkpt lat="45.861695626358525" lon="9.097986132340212"><ele>298.0</ele><time>2026-04-25T09:46:20.001Z</time></trkpt><trkpt lat="45.86179046701081" lon="9.097976107528723"><ele>299.2</ele><time>2026-04-25T09:46:21.001Z</time></trkpt><trkpt lat="45.86189048186019" lon="9.0980020719654"><ele>300.4</ele><time>2026-04-25T09:46:22.001Z</time></trkpt><trkpt lat="45.86197760181417" lon="9.098015663830557"><ele>301.59999999999997</ele><time>2026-04-25T09:46:23.001Z</time></trkpt><trkpt lat="45.862065419835" lon="9.098025756281476"><ele>302.8</ele><time>2026-04-25T09:46:24.001Z</time></trkpt><trkpt lat="45.862153960933355" lon="9.098022636382677"><ele>304.0</ele><time>2026-04-25T09:46:25.001Z</time></trkpt><trkpt lat="45.86223829225273" lon="9.09803809674623"><ele>304.0</ele><time>2026-04-25T09:46:26.001Z</time></trkpt><trkpt lat="45.862333147083035" lon="9.098045202826485"><ele>304.0</ele><time>2026-04-25T09:46:27.001Z</time></trkpt><trkpt lat="45.86242012845535" lon="9.098059126144252"><ele>304.0</ele><time>2026-04-25T09:46:28.001Z</time></trkpt><trkpt lat="45.86249930412517" lon="9.09808481973785"><ele>304.0</ele><time>2026-04-25T09:46:29.001Z</time></trkpt><trkpt lat="45.86256852396601" lon="9.098113974846411"><ele>304.0</ele><time>2026-04-25T09:46:30.001Z</time></trkpt><trkpt lat="45.86268704115082" lon="9.098177502803859"><ele>303.16666666666663</ele><time>2026-04-25T09:46:32.001Z</time></trkpt><trkpt lat="45.862749977827185" lon="9.098224297900424"><ele>302.3333333333333</ele><time>2026-04-25T09:46:33.001Z</time></trkpt><trkpt lat="45.86283203139081" lon="9.098302699466819"><ele>301.5</ele><time>2026-04-25T09:46:34.001Z</time></trkpt><trkpt lat="45.862891381592036" lon="9.098394625143548"><ele>300.6666666666667</ele><time>2026-04-25T09:46:35.001Z</time></trkpt><trkpt lat="45.862941698232476" lon="9.098477561661735"><ele>299.83333333333337</ele><time>2026-04-25T09:46:36.001Z</time></trkpt><trkpt lat="45.86299027602887" lon="9.098565213563688"><ele>299.0</ele><time>2026-04-25T09:46:37.001Z</time></trkpt><trkpt lat="45.86303804680402" lon="9.098654445689526"><ele>299.0</ele><time>2026-04-25T09:46:38.001Z</time></trkpt><trkpt lat="45.86307974749896" lon="9.098765222276501"><ele>299.0</ele><time>2026-04-25T09:46:39.001Z</time></trkpt><trkpt lat="45.86311336417985" lon="9.098891596941803"><ele>299.0</ele><time>2026-04-25T09:46:40.001Z</time></trkpt><trkpt lat="45.863137427658856" lon="9.099025764761139"><ele>299.0</ele><time>2026-04-25T09:46:41.001Z</time></trkpt><trkpt lat="45.86313454655592" lon="9.099173943361555"><ele>299.0</ele><time>2026-04-25T09:46:42.001Z</time></trkpt><trkpt lat="45.86315198932543" lon="9.099335577944446"><ele>297.75</ele><time>2026-04-25T09:46:43.001Z</time></trkpt><trkpt lat="45.86314403941223" lon="9.099515392956029"><ele>296.5</ele><time>2026-04-25T09:46:44.002Z</time></trkpt><trkpt lat="45.86313720089759" lon="9.099696245690623"><ele>295.25</ele><time>2026-04-25T09:46:45.002Z</time></trkpt><trkpt lat="45.86312340050571" lon="9.099862682367828"><ele>294.0</ele><time>2026-04-25T09:46:46.002Z</time></trkpt><trkpt lat="45.86311742031556" lon="9.10001000799778"><ele>294.0</ele><time>2026-04-25T09:46:47.002Z</time></trkpt><trkpt lat="45.86311280317289" lon="9.100122418607443"><ele>294.0</ele><time>2026-04-25T09:46:48.002Z</time></trkpt><trkpt lat="45.86310666361717" lon="9.100215442684345"><ele>294.0</ele><time>2026-04-25T09:46:49.002Z</time></trkpt><trkpt lat="45.86310551097579" lon="9.100319629416644"><ele>294.0</ele><time>2026-04-25T09:46:50.002Z</time></trkpt><trkpt lat="45.863115636922686" lon="9.100458490621433"><ele>294.0</ele><time>2026-04-25T09:46:51.002Z</time></trkpt><trkpt lat="45.863118452947" lon="9.10061781339363"><ele>294.0</ele><time>2026-04-25T09:46:52.002Z</time></trkpt><trkpt lat="45.863113317182844" lon="9.100789773353073"><ele>294.0</ele><time>2026-04-25T09:46:53.002Z</time></trkpt><trkpt lat="45.86310744873343" lon="9.100971642833922"><ele>294.0</ele><time>2026-04-25T09:46:54.002Z</time></trkpt><trkpt lat="45.86308069400509" lon="9.101156686913237"><ele>294.0</ele><time>2026-04-25T09:46:55.002Z</time></trkpt><trkpt lat="45.86307564160201" lon="9.10132496627198"><ele>294.0</ele><time>2026-04-25T09:46:56.002Z</time></trkpt><trkpt lat="45.86307130544377" lon="9.101473109420454"><ele>295.0</ele><time>2026-04-25T09:46:57.002Z</time></trkpt><trkpt lat="45.86306740378837" lon="9.101606407959503"><ele>296.0</ele><time>2026-04-25T09:46:58.002Z</time></trkpt><trkpt lat="45.86306371860577" lon="9.101732310816478"><ele>297.0</ele><time>2026-04-25T09:46:59.002Z</time></trkpt><trkpt lat="45.86306008850972" lon="9.101856331637157"><ele>298.0</ele><time>2026-04-25T09:47:00.002Z</time></trkpt><trkpt lat="45.86307010702414" lon="9.101994518306258"><ele>299.0</ele><time>2026-04-25T09:47:01.002Z</time></trkpt><trkpt lat="45.86305847402803" lon="9.102130323077766"><ele>299.0</ele><time>2026-04-25T09:47:02.002Z</time></trkpt><trkpt lat="45.86305725361585" lon="9.10226185031913"><ele>299.0</ele><time>2026-04-25T09:47:03.002Z</time></trkpt><trkpt lat="45.86305075780245" lon="9.102389367979717"><ele>299.0</ele><time>2026-04-25T09:47:04.002Z</time></trkpt><trkpt lat="45.863059973830104" lon="9.102522733004868"><ele>299.0</ele><time>2026-04-25T09:47:05.002Z</time></trkpt><trkpt lat="45.86307751419311" lon="9.102661054429833"><ele>299.0</ele><time>2026-04-25T09:47:06.002Z</time></trkpt><trkpt lat="45.863102126876264" lon="9.102796153481851"><ele>297.8</ele><time>2026-04-25T09:47:07.002Z</time></trkpt><trkpt lat="45.86313401121182" lon="9.102918635666123"><ele>296.59999999999997</ele><time>2026-04-25T09:47:08.002Z</time></trkpt><trkpt lat="45.86317722176814" lon="9.10304527646321"><ele>295.4</ele><time>2026-04-25T09:47:09.002Z</time></trkpt><trkpt lat="45.863221890122" lon="9.103168656451922"><ele>294.2</ele><time>2026-04-25T09:47:10.002Z</time></trkpt><trkpt lat="45.863265418280726" lon="9.10328182515852"><ele>293.0</ele><time>2026-04-25T09:47:11.002Z</time></trkpt><trkpt lat="45.86331005365161" lon="9.103393269927803"><ele>290.0</ele><time>2026-04-25T09:47:12.002Z</time></trkpt><trkpt lat="45.863380434076106" lon="9.103508826977807"><ele>287.0</ele><time>2026-04-25T09:47:13.002Z</time></trkpt><trkpt lat="45.863452338478155" lon="9.103643912966692"><ele>284.0</ele><time>2026-04-25T09:47:14.002Z</time></trkpt><trkpt lat="45.8635255866155" lon="9.103796144728904"><ele>281.0</ele><time>2026-04-25T09:47:15.002Z</time></trkpt><trkpt lat="45.86360047427435" lon="9.10394375589992"><ele>284.8</ele><time>2026-04-25T09:47:16.002Z</time></trkpt><trkpt lat="45.86366829141869" lon="9.104080897754795"><ele>288.6</ele><time>2026-04-25T09:47:17.003Z</time></trkpt><trkpt lat="45.86373042610682" lon="9.104202610980352"><ele>292.4</ele><time>2026-04-25T09:47:18.003Z</time></trkpt><trkpt lat="45.863800449136036" lon="9.104329109483677"><ele>296.2</ele><time>2026-04-25T09:47:19.003Z</time></trkpt><trkpt lat="45.86386477896196" lon="9.104456301128511"><ele>300.0</ele><time>2026-04-25T09:47:20.003Z</time></trkpt><trkpt lat="45.863933207924916" lon="9.104586296243726"><ele>300.0</ele><time>2026-04-25T09:47:21.003Z</time></trkpt><trkpt lat="45.86400327214201" lon="9.104724737286933"><ele>300.0</ele><time>2026-04-25T09:47:22.003Z</time></trkpt><trkpt lat="45.86408055797539" lon="9.104863241554236"><ele>300.0</ele><time>2026-04-25T09:47:23.003Z</time></trkpt><trkpt lat="45.86415457991562" lon="9.104996399871236"><ele>300.0</ele><time>2026-04-25T09:47:24.003Z</time></trkpt><trkpt lat="45.86422583379019" lon="9.105131192213396"><ele>304.0</ele><time>2026-04-25T09:47:25.003Z</time></trkpt><trkpt lat="45.86429775100528" lon="9.105269063607471"><ele>308.0</ele><time>2026-04-25T09:47:26.003Z</time></trkpt><trkpt lat="45.864352515672216" lon="9.105422436390853"><ele>312.0</ele><time>2026-04-25T09:47:27.003Z</time></trkpt><trkpt lat="45.86442028956842" lon="9.105554808583236"><ele>316.0</ele><time>2026-04-25T09:47:28.003Z</time></trkpt><trkpt lat="45.86449500396422" lon="9.10566127675259"><ele>313.6</ele><time>2026-04-25T09:47:29.003Z</time></trkpt><trkpt lat="45.86454137795527" lon="9.105795884922932"><ele>311.20000000000005</ele><time>2026-04-25T09:47:30.003Z</time></trkpt><trkpt lat="45.86460657899647" lon="9.105916676161653"><ele>308.79999999999995</ele><time>2026-04-25T09:47:31.003Z</time></trkpt><trkpt lat="45.86468381927475" lon="9.106016616266519"><ele>306.4</ele><time>2026-04-25T09:47:32.003Z</time></trkpt><trkpt lat="45.86475744151505" lon="9.106126544001203"><ele>304.0</ele><time>2026-04-25T09:47:33.003Z</time></trkpt><trkpt lat="45.864837327059995" lon="9.106231056828335"><ele>304.0</ele><time>2026-04-25T09:47:34.003Z</time></trkpt><trkpt lat="45.86491725246522" lon="9.106340821181576"><ele>304.0</ele><time>2026-04-25T09:47:35.003Z</time></trkpt><trkpt lat="45.86500051666591" lon="9.106434633640268"><ele>304.0</ele><time>2026-04-25T09:47:36.003Z</time></trkpt><trkpt lat="45.86507700445586" lon="9.106521885649272"><ele>304.0</ele><time>2026-04-25T09:47:37.003Z</time></trkpt><trkpt lat="45.865154472126974" lon="9.10660772829162"><ele>304.0</ele><time>2026-04-25T09:47:38.003Z</time></trkpt><trkpt lat="45.8652305472655" lon="9.106694965690428"><ele>308.0</ele><time>2026-04-25T09:47:39.003Z</time></trkpt><trkpt lat="45.865307238462044" lon="9.106786587710895"><ele>312.0</ele><time>2026-04-25T09:47:40.003Z</time></trkpt><trkpt lat="45.86538666857793" lon="9.10689183999211"><ele>316.0</ele><time>2026-04-25T09:47:41.003Z</time></trkpt><trkpt lat="45.865467444916675" lon="9.107009751777845"><ele>320.0</ele><time>2026-04-25T09:47:42.003Z</time></trkpt><trkpt lat="45.86554468199633" lon="9.107132508732498"><ele>324.0</ele><time>2026-04-25T09:47:43.003Z</time></trkpt><trkpt lat="45.86562223415055" lon="9.107263243778783"><ele>324.0</ele><time>2026-04-25T09:47:44.003Z</time></trkpt><trkpt lat="45.86570780468558" lon="9.107401819559197"><ele>324.0</ele><time>2026-04-25T09:47:45.003Z</time></trkpt><trkpt lat="45.86578291487365" lon="9.107527351053623"><ele>324.0</ele><time>2026-04-25T09:47:46Z</time></trkpt><trkpt lat="45.8658583802592" lon="9.107650911701844"><ele>324.0</ele><time>2026-04-25T09:47:47Z</time></trkpt><trkpt lat="45.865928802377915" lon="9.107778044561885"><ele>322.75</ele><time>2026-04-25T09:47:48Z</time></trkpt><trkpt lat="45.866009580938844" lon="9.107914714244862"><ele>321.5</ele><time>2026-04-25T09:47:49Z</time></trkpt><trkpt lat="45.86608401789673" lon="9.108049960850124"><ele>320.25</ele><time>2026-04-25T09:47:50Z</time></trkpt><trkpt lat="45.86616564490153" lon="9.108184714578615"><ele>319.0</ele><time>2026-04-25T09:47:51Z</time></trkpt><trkpt lat="45.866242840400794" lon="9.108315693097866"><ele>319.0</ele><time>2026-04-25T09:47:52Z</time></trkpt><trkpt lat="45.866322298234465" lon="9.108450463587616"><ele>319.0</ele><time>2026-04-25T09:47:53Z</time></trkpt><trkpt lat="45.86640001191378" lon="9.108577401908343"><ele>319.0</ele><time>2026-04-25T09:47:54Z</time></trkpt><trkpt lat="45.86647259640288" lon="9.108698887909053"><ele>319.0</ele><time>2026-04-25T09:47:55Z</time></trkpt><trkpt lat="45.86654530096587" lon="9.108816674770127"><ele>319.0</ele><time>2026-04-25T09:47:56Z</time></trkpt><trkpt lat="45.86661508074351" lon="9.108950117012059"><ele>319.0</ele><time>2026-04-25T09:47:57Z</time></trkpt><trkpt lat="45.86668214917048" lon="9.109101544692328"><ele>319.0</ele><time>2026-04-25T09:47:58Z</time></trkpt><trkpt lat="45.8667410344895" lon="9.109276056788525"><ele>319.0</ele><time>2026-04-25T09:47:59Z</time></trkpt><trkpt lat="45.86679628337449" lon="9.10944876803532"><ele>322.0</ele><time>2026-04-25T09:48:00Z</time></trkpt><trkpt lat="45.866851063781326" lon="9.109635629380175"><ele>325.0</ele><time>2026-04-25T09:48:01Z</time></trkpt><trkpt lat="45.86690614102988" lon="9.109820689079813"><ele>328.0</ele><time>2026-04-25T09:48:02Z</time></trkpt><trkpt lat="45.86695307294283" lon="9.10999729786335"><ele>331.0</ele><time>2026-04-25T09:48:03Z</time></trkpt><trkpt lat="45.8670071531398" lon="9.110159403418841"><ele>331.0</ele><time>2026-04-25T09:48:04Z</time></trkpt><trkpt lat="45.86707721502823" lon="9.110315707598675"><ele>331.0</ele><time>2026-04-25T09:48:05Z</time></trkpt><trkpt lat="45.86716192989997" lon="9.110456803459508"><ele>331.0</ele><time>2026-04-25T09:48:06Z</time></trkpt><trkpt lat="45.86723795711078" lon="9.110603785861201"><ele>331.0</ele><time>2026-04-25T09:48:07Z</time></trkpt><trkpt lat="45.867326932627726" lon="9.110726212673114"><ele>336.25</ele><time>2026-04-25T09:48:08Z</time></trkpt><trkpt lat="45.86741881876922" lon="9.110847270547977"><ele>341.5</ele><time>2026-04-25T09:48:09Z</time></trkpt><trkpt lat="45.86750870069411" lon="9.110965687838355"><ele>346.75</ele><time>2026-04-25T09:48:10Z</time></trkpt><trkpt lat="45.86760166473268" lon="9.111093161568771"><ele>352.0</ele><time>2026-04-25T09:48:11Z</time></trkpt><trkpt lat="45.86768439211575" lon="9.11121861747095"><ele>352.0</ele><time>2026-04-25T09:48:12Z</time></trkpt><trkpt lat="45.867764896070554" lon="9.111373717251055"><ele>352.0</ele><time>2026-04-25T09:48:13Z</time></trkpt><trkpt lat="45.86783319306674" lon="9.111542960664119"><ele>352.0</ele><time>2026-04-25T09:48:14Z</time></trkpt><trkpt lat="45.86787584650266" lon="9.111664076610959"><ele>352.0</ele><time>2026-04-25T09:48:15.001Z</time></trkpt><trkpt lat="45.868046355587644" lon="9.112105383844295"><ele>347.25</ele><time>2026-04-25T09:48:16.001Z</time></trkpt><trkpt lat="45.868102817319304" lon="9.112274822383288"><ele>342.5</ele><time>2026-04-25T09:48:17.001Z</time></trkpt><trkpt lat="45.86815647493789" lon="9.112448003720138"><ele>337.75</ele><time>2026-04-25T09:48:18.001Z</time></trkpt><trkpt lat="45.86822132049303" lon="9.11262303995947"><ele>333.0</ele><time>2026-04-25T09:48:19.001Z</time></trkpt><trkpt lat="45.86827630043075" lon="9.11279174853055"><ele>328.5</ele><time>2026-04-25T09:48:20.001Z</time></trkpt><trkpt lat="45.86833410126954" lon="9.112955497997515"><ele>324.0</ele><time>2026-04-25T09:48:21.001Z</time></trkpt><trkpt lat="45.868391339426516" lon="9.11311920269307"><ele>319.5</ele><time>2026-04-25T09:48:22.001Z</time></trkpt><trkpt lat="45.86844844656896" lon="9.113279851605919"><ele>315.0</ele><time>2026-04-25T09:48:23.001Z</time></trkpt><trkpt lat="45.868506392930065" lon="9.11344593515002"><ele>315.0</ele><time>2026-04-25T09:48:24.001Z</time></trkpt><trkpt lat="45.868588723103585" lon="9.113591042272693"><ele>315.0</ele><time>2026-04-25T09:48:25.001Z</time></trkpt><trkpt lat="45.86868487164498" lon="9.113707497490415"><ele>315.0</ele><time>2026-04-25T09:48:26.001Z</time></trkpt><trkpt lat="45.86878609405542" lon="9.113805449106591"><ele>315.0</ele><time>2026-04-25T09:48:27.001Z</time></trkpt><trkpt lat="45.868881990043825" lon="9.113873806198558"><ele>315.0</ele><time>2026-04-25T09:48:28.001Z</time></trkpt><trkpt lat="45.86897667503072" lon="9.113931376654753"><ele>315.0</ele><time>2026-04-25T09:48:29.001Z</time></trkpt><trkpt lat="45.86907411381033" lon="9.11396668008738"><ele>315.0</ele><time>2026-04-25T09:48:30.001Z</time></trkpt><trkpt lat="45.86916600667184" lon="9.113990098059684"><ele>315.0</ele><time>2026-04-25T09:48:31.001Z</time></trkpt><trkpt lat="45.869252590479206" lon="9.114024292729027"><ele>315.0</ele><time>2026-04-25T09:48:32.001Z</time></trkpt><trkpt lat="45.86934753861323" lon="9.114046697269691"><ele>312.6</ele><time>2026-04-25T09:48:33.001Z</time></trkpt><trkpt lat="45.86945062851972" lon="9.114081403212197"><ele>310.2</ele><time>2026-04-25T09:48:34.001Z</time></trkpt><trkpt lat="45.86954796172698" lon="9.11411831500202"><ele>307.8</ele><time>2026-04-25T09:48:35.001Z</time></trkpt><trkpt lat="45.8696518343431" lon="9.114158862467658"><ele>305.4</ele><time>2026-04-25T09:48:36.001Z</time></trkpt><trkpt lat="45.86975096569458" lon="9.114204599604802"><ele>303.0</ele><time>2026-04-25T09:48:37.001Z</time></trkpt><trkpt lat="45.86984977341299" lon="9.114257225533104"><ele>303.0</ele><time>2026-04-25T09:48:38.001Z</time></trkpt><trkpt lat="45.86993947754557" lon="9.114336488598024"><ele>303.0</ele><time>2026-04-25T09:48:39.001Z</time></trkpt><trkpt lat="45.87003107070771" lon="9.114433569554896"><ele>303.0</ele><time>2026-04-25T09:48:40.001Z</time></trkpt><trkpt lat="45.870109370050635" lon="9.114550529732536"><ele>303.0</ele><time>2026-04-25T09:48:41.001Z</time></trkpt><trkpt lat="45.87017465784457" lon="9.11469007734557"><ele>303.0</ele><time>2026-04-25T09:48:42.001Z</time></trkpt><trkpt lat="45.87023104640247" lon="9.114847307099346"><ele>307.0</ele><time>2026-04-25T09:48:43.001Z</time></trkpt><trkpt lat="45.870271737632635" lon="9.115018800651393"><ele>311.0</ele><time>2026-04-25T09:48:44.001Z</time></trkpt><trkpt lat="45.870291410718075" lon="9.115187588240627"><ele>315.0</ele><time>2026-04-25T09:48:45.001Z</time></trkpt><trkpt lat="45.870298209602296" lon="9.1153647638194"><ele>319.0</ele><time>2026-04-25T09:48:46.001Z</time></trkpt><trkpt lat="45.870297823568464" lon="9.115547852760717"><ele>319.0</ele><time>2026-04-25T09:48:47.002Z</time></trkpt><trkpt lat="45.87027420836815" lon="9.115717920912124"><ele>319.0</ele><time>2026-04-25T09:48:48.002Z</time></trkpt><trkpt lat="45.870248798460906" lon="9.115881290398756"><ele>319.0</ele><time>2026-04-25T09:48:49.002Z</time></trkpt><trkpt lat="45.87022385827939" lon="9.116055294193801"><ele>319.0</ele><time>2026-04-25T09:48:50.002Z</time></trkpt><trkpt lat="45.87021209683462" lon="9.116227096236436"><ele>319.5</ele><time>2026-04-25T09:48:51.002Z</time></trkpt><trkpt lat="45.870203581161874" lon="9.116379360539144"><ele>320.0</ele><time>2026-04-25T09:48:52.002Z</time></trkpt><trkpt lat="45.87020719205859" lon="9.116545410864212"><ele>320.5</ele><time>2026-04-25T09:48:53.002Z</time></trkpt><trkpt lat="45.87022841877177" lon="9.116710008131918"><ele>321.0</ele><time>2026-04-25T09:48:54.002Z</time></trkpt><trkpt lat="45.87027150790795" lon="9.116873896480069"><ele>319.5</ele><time>2026-04-25T09:48:55.002Z</time></trkpt><trkpt lat="45.8703250358623" lon="9.117021574337567"><ele>318.0</ele><time>2026-04-25T09:48:56.002Z</time></trkpt><trkpt lat="45.870393178867914" lon="9.117164253206184"><ele>316.5</ele><time>2026-04-25T09:48:57.002Z</time></trkpt><trkpt lat="45.8704674093633" lon="9.117300270645712"><ele>315.0</ele><time>2026-04-25T09:48:58.002Z</time></trkpt><trkpt lat="45.870529815962385" lon="9.117454511643945"><ele>312.75</ele><time>2026-04-25T09:48:59.002Z</time></trkpt><trkpt lat="45.87060247661678" lon="9.117591136650203"><ele>310.5</ele><time>2026-04-25T09:49:00.002Z</time></trkpt><trkpt lat="45.870668267850064" lon="9.117715358104892"><ele>308.25</ele><time>2026-04-25T09:49:01.002Z</time></trkpt><trkpt lat="45.87073669756725" lon="9.117844561299579"><ele>306.0</ele><time>2026-04-25T09:49:02.002Z</time></trkpt><trkpt lat="45.870810351493" lon="9.117982864535708"><ele>306.0</ele><time>2026-04-25T09:49:03.002Z</time></trkpt><trkpt lat="45.87089733856673" lon="9.11811403609697"><ele>306.0</ele><time>2026-04-25T09:49:04.002Z</time></trkpt><trkpt lat="45.87096468436998" lon="9.11826937847991"><ele>306.0</ele><time>2026-04-25T09:49:05.002Z</time></trkpt><trkpt lat="45.87100761474048" lon="9.118431027899973"><ele>306.0</ele><time>2026-04-25T09:49:06.002Z</time></trkpt><trkpt lat="45.871063135192564" lon="9.118593528478476"><ele>309.0</ele><time>2026-04-25T09:49:07.002Z</time></trkpt><trkpt lat="45.871084380777866" lon="9.118775399764244"><ele>312.0</ele><time>2026-04-25T09:49:08.002Z</time></trkpt><trkpt lat="45.8710920699189" lon="9.118970901042434"><ele>315.0</ele><time>2026-04-25T09:49:09.002Z</time></trkpt><trkpt lat="45.87109286175466" lon="9.119155183707846"><ele>318.0</ele><time>2026-04-25T09:49:10.002Z</time></trkpt><trkpt lat="45.87110045381522" lon="9.119340363062937"><ele>318.0</ele><time>2026-04-25T09:49:11.002Z</time></trkpt><trkpt lat="45.87110597633004" lon="9.119523025918905"><ele>318.0</ele><time>2026-04-25T09:49:12.002Z</time></trkpt><trkpt lat="45.87111596105302" lon="9.119699557217855"><ele>318.0</ele><time>2026-04-25T09:49:13.002Z</time></trkpt><trkpt lat="45.871121177268066" lon="9.119887858700496"><ele>318.0</ele><time>2026-04-25T09:49:14.002Z</time></trkpt><trkpt lat="45.87116214534094" lon="9.120061507606136"><ele>315.5</ele><time>2026-04-25T09:49:15.002Z</time></trkpt><trkpt lat="45.87123149858884" lon="9.120230133801797"><ele>313.0</ele><time>2026-04-25T09:49:16.002Z</time></trkpt><trkpt lat="45.871315497847206" lon="9.120383399854225"><ele>310.5</ele><time>2026-04-25T09:49:17.002Z</time></trkpt><trkpt lat="45.87141965015645" lon="9.120509350722367"><ele>308.0</ele><time>2026-04-25T09:49:18.002Z</time></trkpt><trkpt lat="45.8714973680726" lon="9.120656808450763"><ele>305.8</ele><time>2026-04-25T09:49:19.002Z</time></trkpt><trkpt lat="45.87158067699587" lon="9.12077877508288"><ele>303.6</ele><time>2026-04-25T09:49:20.003Z</time></trkpt><trkpt lat="45.87166141252636" lon="9.12089697420803"><ele>301.4</ele><time>2026-04-25T09:49:21.003Z</time></trkpt><trkpt lat="45.87173581196271" lon="9.121006877502973"><ele>299.2</ele><time>2026-04-25T09:49:22.003Z</time></trkpt><trkpt lat="45.87181609527526" lon="9.121110591619011"><ele>297.0</ele><time>2026-04-25T09:49:23.003Z</time></trkpt><trkpt lat="45.87188847395934" lon="9.121229313572204"><ele>303.0</ele><time>2026-04-25T09:49:24.003Z</time></trkpt><trkpt lat="45.87193887783184" lon="9.121374929497353"><ele>309.0</ele><time>2026-04-25T09:49:25.003Z</time></trkpt><trkpt lat="45.87201359034327" lon="9.121506015465316"><ele>315.0</ele><time>2026-04-25T09:49:26.003Z</time></trkpt><trkpt lat="45.872078344628186" lon="9.121648999713095"><ele>321.0</ele><time>2026-04-25T09:49:27.003Z</time></trkpt><trkpt lat="45.872140019201424" lon="9.121787044182406"><ele>321.0</ele><time>2026-04-25T09:49:28.003Z</time></trkpt><trkpt lat="45.87219080764653" lon="9.121916583986172"><ele>321.0</ele><time>2026-04-25T09:49:29.003Z</time></trkpt><trkpt lat="45.87227153548816" lon="9.122076700364214"><ele>321.0</ele><time>2026-04-25T09:49:30.003Z</time></trkpt><trkpt lat="45.87234868690476" lon="9.122222346619937"><ele>321.0</ele><time>2026-04-25T09:49:31.003Z</time></trkpt><trkpt lat="45.87242386469811" lon="9.122387224486125"><ele>316.5</ele><time>2026-04-25T09:49:32.003Z</time></trkpt><trkpt lat="45.872506909196034" lon="9.122543277587335"><ele>312.0</ele><time>2026-04-25T09:49:33.003Z</time></trkpt><trkpt lat="45.87258136824391" lon="9.12268291819829"><ele>307.5</ele><time>2026-04-25T09:49:34.003Z</time></trkpt><trkpt lat="45.87265617265518" lon="9.122808321421543"><ele>303.0</ele><time>2026-04-25T09:49:35.003Z</time></trkpt><trkpt lat="45.872733308913496" lon="9.122932693806675"><ele>306.75</ele><time>2026-04-25T09:49:36.003Z</time></trkpt><trkpt lat="45.8728204611117" lon="9.123066909217979"><ele>310.5</ele><time>2026-04-25T09:49:37.003Z</time></trkpt><trkpt lat="45.872913100941474" lon="9.12320854100201"><ele>314.25</ele><time>2026-04-25T09:49:38.003Z</time></trkpt><trkpt lat="45.87300307005996" lon="9.123342892374087"><ele>318.0</ele><time>2026-04-25T09:49:39.003Z</time></trkpt><trkpt lat="45.873085350859206" lon="9.123473900945083"><ele>318.0</ele><time>2026-04-25T09:49:40.003Z</time></trkpt><trkpt lat="45.873161661913095" lon="9.123605106003227"><ele>318.0</ele><time>2026-04-25T09:49:41.003Z</time></trkpt><trkpt lat="45.87324552148702" lon="9.123738082645385"><ele>318.0</ele><time>2026-04-25T09:49:42.003Z</time></trkpt><trkpt lat="45.87333254851323" lon="9.123864443154153"><ele>318.0</ele><time>2026-04-25T09:49:43.003Z</time></trkpt><trkpt lat="45.87342123591746" lon="9.12400344901888"><ele>325.75</ele><time>2026-04-25T09:49:44.003Z</time></trkpt><trkpt lat="45.8735081377155" lon="9.124141589177864"><ele>333.5</ele><time>2026-04-25T09:49:45.003Z</time></trkpt><trkpt lat="45.87359047161701" lon="9.124283704774747"><ele>341.25</ele><time>2026-04-25T09:49:46.003Z</time></trkpt><trkpt lat="45.87367459028086" lon="9.124430564467556"><ele>349.0</ele><time>2026-04-25T09:49:47.003Z</time></trkpt><trkpt lat="45.8737573549352" lon="9.124594788938055"><ele>349.0</ele><time>2026-04-25T09:49:48.003Z</time></trkpt><trkpt lat="45.87383593290335" lon="9.124773146823852"><ele>349.0</ele><time>2026-04-25T09:49:49.003Z</time></trkpt><trkpt lat="45.873902650660646" lon="9.124950586180184"><ele>349.0</ele><time>2026-04-25T09:49:50.003Z</time></trkpt><trkpt lat="45.8739716536889" lon="9.125132840703625"><ele>349.0</ele><time>2026-04-25T09:49:51.003Z</time></trkpt><trkpt lat="45.874042257515384" lon="9.125301952738292"><ele>345.5</ele><time>2026-04-25T09:49:52Z</time></trkpt><trkpt lat="45.87411469608211" lon="9.125484736115443"><ele>342.0</ele><time>2026-04-25T09:49:53Z</time></trkpt><trkpt lat="45.87418729574514" lon="9.125668655165049"><ele>338.5</ele><time>2026-04-25T09:49:54Z</time></trkpt><trkpt lat="45.87426052283927" lon="9.125852655739724"><ele>335.0</ele><time>2026-04-25T09:49:55Z</time></trkpt><trkpt lat="45.87433684762209" lon="9.12603415146459"><ele>335.0</ele><time>2026-04-25T09:49:56Z</time></trkpt><trkpt lat="45.874403925939966" lon="9.126208955924083"><ele>335.0</ele><time>2026-04-25T09:49:57Z</time></trkpt><trkpt lat="45.87447058609663" lon="9.126379612188687"><ele>335.0</ele><time>2026-04-25T09:49:58Z</time></trkpt><trkpt lat="45.87452022276594" lon="9.126550988635255"><ele>335.0</ele><time>2026-04-25T09:49:59Z</time></trkpt><trkpt lat="45.87459379689329" lon="9.12669360900805"><ele>328.0</ele><time>2026-04-25T09:50:00Z</time></trkpt><trkpt lat="45.87464958483246" lon="9.126848268349589"><ele>321.0</ele><time>2026-04-25T09:50:01Z</time></trkpt><trkpt lat="45.87470553073461" lon="9.126995694498499"><ele>314.0</ele><time>2026-04-25T09:50:02Z</time></trkpt><trkpt lat="45.87476267031581" lon="9.127137514666078"><ele>307.0</ele><time>2026-04-25T09:50:03Z</time></trkpt><trkpt lat="45.874818628395566" lon="9.127283719572363"><ele>300.25</ele><time>2026-04-25T09:50:04Z</time></trkpt><trkpt lat="45.874869059328965" lon="9.127433260149042"><ele>293.5</ele><time>2026-04-25T09:50:05Z</time></trkpt><trkpt lat="45.87492656763157" lon="9.127580074172844"><ele>286.75</ele><time>2026-04-25T09:50:06Z</time></trkpt><trkpt lat="45.87497933831365" lon="9.127734374943204"><ele>280.0</ele><time>2026-04-25T09:50:07Z</time></trkpt><trkpt lat="45.875039560596285" lon="9.127903054093277"><ele>280.0</ele><time>2026-04-25T09:50:08Z</time></trkpt><trkpt lat="45.87510117146184" lon="9.128080296152469"><ele>280.0</ele><time>2026-04-25T09:50:09Z</time></trkpt><trkpt lat="45.87516976422562" lon="9.128257768148016"><ele>280.0</ele><time>2026-04-25T09:50:10Z</time></trkpt><trkpt lat="45.87523732687446" lon="9.128438465356552"><ele>280.0</ele><time>2026-04-25T09:50:11Z</time></trkpt><trkpt lat="45.87530555883653" lon="9.128623629804283"><ele>280.75</ele><time>2026-04-25T09:50:12Z</time></trkpt><trkpt lat="45.87537494633579" lon="9.128806365222214"><ele>281.5</ele><time>2026-04-25T09:50:13Z</time></trkpt><trkpt lat="45.87544778236843" lon="9.12897921453894"><ele>282.25</ele><time>2026-04-25T09:50:14Z</time></trkpt><trkpt lat="45.87552343748389" lon="9.129156151508008"><ele>283.0</ele><time>2026-04-25T09:50:15Z</time></trkpt><trkpt lat="45.875603027981555" lon="9.129325861080343"><ele>283.0</ele><time>2026-04-25T09:50:16Z</time></trkpt><trkpt lat="45.87568993693222" lon="9.12947115425442"><ele>283.0</ele><time>2026-04-25T09:50:17Z</time></trkpt><trkpt lat="45.87577777382242" lon="9.129614656583357"><ele>283.0</ele><time>2026-04-25T09:50:18Z</time></trkpt><trkpt lat="45.87586079869157" lon="9.12974392877752"><ele>283.0</ele><time>2026-04-25T09:50:19Z</time></trkpt><trkpt lat="45.87594419211655" lon="9.129871000531429"><ele>284.0</ele><time>2026-04-25T09:50:20Z</time></trkpt><trkpt lat="45.876017414915985" lon="9.129990396797368"><ele>285.0</ele><time>2026-04-25T09:50:21Z</time></trkpt><trkpt lat="45.87607840247581" lon="9.13012758946112"><ele>286.0</ele><time>2026-04-25T09:50:22Z</time></trkpt><trkpt lat="45.876149760841614" lon="9.130246178442123"><ele>287.0</ele><time>2026-04-25T09:50:23.001Z</time></trkpt><trkpt lat="45.87622113702359" lon="9.130364797102398"><ele>288.0</ele><time>2026-04-25T09:50:24.001Z</time></trkpt><trkpt lat="45.87629861918006" lon="9.130492722086514"><ele>288.0</ele><time>2026-04-25T09:50:25.001Z</time></trkpt><trkpt lat="45.8763764894882" lon="9.130620969564223"><ele>288.0</ele><time>2026-04-25T09:50:26.001Z</time></trkpt><trkpt lat="45.87645405594712" lon="9.130748716949839"><ele>288.0</ele><time>2026-04-25T09:50:27.001Z</time></trkpt><trkpt lat="45.876527641458196" lon="9.130869903124676"><ele>288.0</ele><time>2026-04-25T09:50:28.001Z</time></trkpt><trkpt lat="45.876606209328216" lon="9.130999159151278"><ele>286.5</ele><time>2026-04-25T09:50:29.001Z</time></trkpt><trkpt lat="45.87669825380342" lon="9.131115145349066"><ele>285.0</ele><time>2026-04-25T09:50:30.001Z</time></trkpt><trkpt lat="45.87676935612875" lon="9.13127363385294"><ele>283.5</ele><time>2026-04-25T09:50:31.001Z</time></trkpt><trkpt lat="45.87685412776284" lon="9.131427144242041"><ele>282.0</ele><time>2026-04-25T09:50:32.001Z</time></trkpt><trkpt lat="45.876938927757486" lon="9.131582046474202"><ele>282.0</ele><time>2026-04-25T09:50:33.001Z</time></trkpt><trkpt lat="45.87702311514813" lon="9.131735831244209"><ele>282.0</ele><time>2026-04-25T09:50:34.001Z</time></trkpt><trkpt lat="45.87711576506071" lon="9.13186708509282"><ele>282.0</ele><time>2026-04-25T09:50:35.001Z</time></trkpt><trkpt lat="45.87717080622994" lon="9.132006206487906"><ele>282.0</ele><time>2026-04-25T09:50:36.001Z</time></trkpt><trkpt lat="45.877260285662146" lon="9.132147550047481"><ele>282.0</ele><time>2026-04-25T09:50:37.001Z</time></trkpt><trkpt lat="45.87733791150125" lon="9.13229424841022"><ele>282.0</ele><time>2026-04-25T09:50:38.001Z</time></trkpt><trkpt lat="45.87742276048897" lon="9.132456019214027"><ele>282.0</ele><time>2026-04-25T09:50:39.001Z</time></trkpt><trkpt lat="45.87750843176135" lon="9.132610736488807"><ele>282.0</ele><time>2026-04-25T09:50:40.001Z</time></trkpt><trkpt lat="45.87759669360366" lon="9.132766320795536"><ele>283.75</ele><time>2026-04-25T09:50:41.001Z</time></trkpt><trkpt lat="45.87767395282245" lon="9.13291733459629"><ele>285.5</ele><time>2026-04-25T09:50:42.001Z</time></trkpt><trkpt lat="45.87774917650758" lon="9.133082205103737"><ele>287.25</ele><time>2026-04-25T09:50:43.001Z</time></trkpt><trkpt lat="45.877841564180855" lon="9.133253771043151"><ele>289.0</ele><time>2026-04-25T09:50:44.001Z</time></trkpt><trkpt lat="45.87793465517819" lon="9.133426643052218"><ele>289.0</ele><time>2026-04-25T09:50:45.001Z</time></trkpt><trkpt lat="45.87803527211162" lon="9.133613487383307"><ele>289.0</ele><time>2026-04-25T09:50:46.001Z</time></trkpt><trkpt lat="45.87812394171467" lon="9.13377950554732"><ele>289.0</ele><time>2026-04-25T09:50:47.001Z</time></trkpt><trkpt lat="45.878207303764064" lon="9.133934078393366"><ele>289.0</ele><time>2026-04-25T09:50:48.001Z</time></trkpt><trkpt lat="45.878280692728374" lon="9.134069063772694"><ele>290.75</ele><time>2026-04-25T09:50:49.001Z</time></trkpt><trkpt lat="45.87835304950998" lon="9.134202382217065"><ele>292.5</ele><time>2026-04-25T09:50:50.001Z</time></trkpt><trkpt lat="45.878430663299156" lon="9.134348923796383"><ele>294.25</ele><time>2026-04-25T09:50:51.001Z</time></trkpt><trkpt lat="45.87850849073291" lon="9.1344933929453"><ele>296.0</ele><time>2026-04-25T09:50:52.001Z</time></trkpt><trkpt lat="45.878592347625286" lon="9.134649029678423"><ele>296.0</ele><time>2026-04-25T09:50:53.001Z</time></trkpt><trkpt lat="45.878675429567046" lon="9.134802823949812"><ele>296.0</ele><time>2026-04-25T09:50:54.001Z</time></trkpt><trkpt lat="45.87876957460436" lon="9.13493849690661"><ele>296.0</ele><time>2026-04-25T09:50:55.001Z</time></trkpt><trkpt lat="45.87883900406178" lon="9.135084475943993"><ele>296.0</ele><time>2026-04-25T09:50:56.001Z</time></trkpt><trkpt lat="45.87891630759584" lon="9.13522695811098"><ele>294.75</ele><time>2026-04-25T09:50:57.001Z</time></trkpt><trkpt lat="45.87899858262506" lon="9.135380427879092"><ele>293.5</ele><time>2026-04-25T09:50:58.001Z</time></trkpt><trkpt lat="45.87912219127024" lon="9.135482199944857"><ele>292.25</ele><time>2026-04-25T09:50:59.002Z</time></trkpt><trkpt lat="45.87924441447459" lon="9.135585635954538"><ele>291.0</ele><time>2026-04-25T09:51:00.002Z</time></trkpt><trkpt lat="45.87937490588719" lon="9.135672854841635"><ele>282.3333333333333</ele><time>2026-04-25T09:51:01.002Z</time></trkpt><trkpt lat="45.87951439244343" lon="9.135749407532643"><ele>273.66666666666663</ele><time>2026-04-25T09:51:02.002Z</time></trkpt><trkpt lat="45.879655082012405" lon="9.135828045265393"><ele>265.0</ele><time>2026-04-25T09:51:03.002Z</time></trkpt><trkpt lat="45.879796818332906" lon="9.135903716259035"><ele>265.0</ele><time>2026-04-25T09:51:04.002Z</time></trkpt><trkpt lat="45.87993081816767" lon="9.135977048832466"><ele>265.0</ele><time>2026-04-25T09:51:05.002Z</time></trkpt><trkpt lat="45.880048603439754" lon="9.136034559914904"><ele>265.0</ele><time>2026-04-25T09:51:06.002Z</time></trkpt><trkpt lat="45.88014966593493" lon="9.136093364392204"><ele>265.0</ele><time>2026-04-25T09:51:07.002Z</time></trkpt><trkpt lat="45.8802375667331" lon="9.136141249941426"><ele>267.3333333333333</ele><time>2026-04-25T09:51:08.002Z</time></trkpt><trkpt lat="45.880313492638685" lon="9.13617865882842"><ele>269.66666666666663</ele><time>2026-04-25T09:51:09.002Z</time></trkpt><trkpt lat="45.88037787987782" lon="9.136216262381028"><ele>272.0</ele><time>2026-04-25T09:51:10.002Z</time></trkpt><trkpt lat="45.88047774819716" lon="9.136275761566294"><ele>274.3333333333333</ele><time>2026-04-25T09:51:12.002Z</time></trkpt><trkpt lat="45.88054514703378" lon="9.136310880397893"><ele>276.6666666666667</ele><time>2026-04-25T09:51:14.002Z</time></trkpt><trkpt lat="45.880627853601226" lon="9.13635128693681"><ele>279.0</ele><time>2026-04-25T09:51:27.002Z</time></trkpt><trkpt lat="45.88069255560068" lon="9.136395754155563"><ele>279.0</ele><time>2026-04-25T09:51:28.002Z</time></trkpt><trkpt lat="45.88077053236862" lon="9.13644172893655"><ele>279.0</ele><time>2026-04-25T09:51:29.002Z</time></trkpt><trkpt lat="45.88084600571426" lon="9.136485571864714"><ele>279.0</ele><time>2026-04-25T09:51:30.002Z</time></trkpt><trkpt lat="45.88093919411897" lon="9.136534930841473"><ele>279.0</ele><time>2026-04-25T09:51:31.002Z</time></trkpt><trkpt lat="45.88104290389723" lon="9.136589551584287"><ele>279.0</ele><time>2026-04-25T09:51:32.002Z</time></trkpt><trkpt lat="45.88115087061868" lon="9.136645444760688"><ele>276.0</ele><time>2026-04-25T09:51:33.002Z</time></trkpt><trkpt lat="45.88125941176337" lon="9.136699124861414"><ele>273.0</ele><time>2026-04-25T09:51:34.003Z</time></trkpt><trkpt lat="45.881377582483246" lon="9.136761221099086"><ele>270.0</ele><time>2026-04-25T09:51:35.003Z</time></trkpt><trkpt lat="45.88150166206082" lon="9.136832196753375"><ele>267.0</ele><time>2026-04-25T09:51:36.003Z</time></trkpt><trkpt lat="45.8816351671568" lon="9.136908052155997"><ele>269.75</ele><time>2026-04-25T09:51:37.003Z</time></trkpt><trkpt lat="45.881772202953684" lon="9.13698003596461"><ele>272.5</ele><time>2026-04-25T09:51:38.003Z</time></trkpt><trkpt lat="45.8819032417604" lon="9.13705060010645"><ele>275.25</ele><time>2026-04-25T09:51:39.003Z</time></trkpt><trkpt lat="45.88203927300057" lon="9.13712591418776"><ele>278.0</ele><time>2026-04-25T09:51:40.003Z</time></trkpt><trkpt lat="45.88217408936519" lon="9.137196168659237"><ele>278.0</ele><time>2026-04-25T09:51:41.003Z</time></trkpt><trkpt lat="45.882301922636344" lon="9.137265827614833"><ele>278.0</ele><time>2026-04-25T09:51:42.003Z</time></trkpt><trkpt lat="45.88242799314028" lon="9.137339538916386"><ele>278.0</ele><time>2026-04-25T09:51:43.003Z</time></trkpt><trkpt lat="45.88255395360016" lon="9.137422667407805"><ele>278.0</ele><time>2026-04-25T09:51:44.003Z</time></trkpt><trkpt lat="45.88267821975874" lon="9.137517515109067"><ele>277.6666666666667</ele><time>2026-04-25T09:51:45.003Z</time></trkpt><trkpt lat="45.88280047990941" lon="9.137628306323602"><ele>277.3333333333333</ele><time>2026-04-25T09:51:46.003Z</time></trkpt><trkpt lat="45.882919587479265" lon="9.137760104736985"><ele>277.0</ele><time>2026-04-25T09:51:47.003Z</time></trkpt><trkpt lat="45.88304193693946" lon="9.137908810833657"><ele>277.0</ele><time>2026-04-25T09:51:48.003Z</time></trkpt><trkpt lat="45.88315598551806" lon="9.138048901893907"><ele>277.0</ele><time>2026-04-25T09:51:49.003Z</time></trkpt><trkpt lat="45.88327130097174" lon="9.138190927364496"><ele>277.0</ele><time>2026-04-25T09:51:50.003Z</time></trkpt><trkpt lat="45.88338493516542" lon="9.13832496452016"><ele>277.0</ele><time>2026-04-25T09:51:51.003Z</time></trkpt><trkpt lat="45.88349945210577" lon="9.138462209979066"><ele>281.66666666666663</ele><time>2026-04-25T09:51:52.003Z</time></trkpt><trkpt lat="45.88360695785226" lon="9.138620548444228"><ele>286.3333333333333</ele><time>2026-04-25T09:51:53.003Z</time></trkpt><trkpt lat="45.883724934796916" lon="9.138762644667894"><ele>291.0</ele><time>2026-04-25T09:51:54.003Z</time></trkpt><trkpt lat="45.8838401425221" lon="9.138901471161569"><ele>291.0</ele><time>2026-04-25T09:51:55.003Z</time></trkpt><trkpt lat="45.883971902141774" lon="9.139029408115757"><ele>291.0</ele><time>2026-04-25T09:51:56.003Z</time></trkpt><trkpt lat="45.88409005463365" lon="9.139174174332767"><ele>291.0</ele><time>2026-04-25T09:51:57.003Z</time></trkpt><trkpt lat="45.884205809229194" lon="9.139315053169556"><ele>287.0</ele><time>2026-04-25T09:51:58Z</time></trkpt><trkpt lat="45.88432514038852" lon="9.139460418524518"><ele>283.0</ele><time>2026-04-25T09:51:59Z</time></trkpt><trkpt lat="45.884441819022534" lon="9.139600780147047"><ele>279.0</ele><time>2026-04-25T09:52:00Z</time></trkpt><trkpt lat="45.88454600505173" lon="9.13975835278731"><ele>271.0</ele><time>2026-04-25T09:52:01Z</time></trkpt><trkpt lat="45.88467302391682" lon="9.139883874805955"><ele>263.0</ele><time>2026-04-25T09:52:02Z</time></trkpt><trkpt lat="45.88479140087046" lon="9.140030254789625"><ele>255.0</ele><time>2026-04-25T09:52:03Z</time></trkpt><trkpt lat="45.884903243225956" lon="9.140166830046823"><ele>255.0</ele><time>2026-04-25T09:52:04Z</time></trkpt><trkpt lat="45.88501446585492" lon="9.140299240433414"><ele>255.0</ele><time>2026-04-25T09:52:05Z</time></trkpt><trkpt lat="45.88511186322635" lon="9.140421198480224"><ele>255.0</ele><time>2026-04-25T09:52:06Z</time></trkpt><trkpt lat="45.88520248106376" lon="9.140524117081535"><ele>255.0</ele><time>2026-04-25T09:52:07Z</time></trkpt><trkpt lat="45.885299130334154" lon="9.140642199167731"><ele>250.66666666666669</ele><time>2026-04-25T09:52:08Z</time></trkpt><trkpt lat="45.885390362590925" lon="9.140710735551412"><ele>246.33333333333334</ele><time>2026-04-25T09:52:09Z</time></trkpt><trkpt lat="45.885612470541645" lon="9.140835792253432"><ele>242.0</ele><time>2026-04-25T09:52:10Z</time></trkpt><trkpt lat="45.8857604919102" lon="9.14087521516541"><ele>242.0</ele><time>2026-04-25T09:52:11Z</time></trkpt><trkpt lat="45.88591742890024" lon="9.140895782783833"><ele>242.0</ele><time>2026-04-25T09:52:12Z</time></trkpt><trkpt lat="45.88608375161803" lon="9.140875437941258"><ele>242.0</ele><time>2026-04-25T09:52:13Z</time></trkpt><trkpt lat="45.88625087825367" lon="9.140837751278974"><ele>240.33333333333334</ele><time>2026-04-25T09:52:14Z</time></trkpt><trkpt lat="45.88641035638115" lon="9.140798991331435"><ele>238.66666666666669</ele><time>2026-04-25T09:52:15Z</time></trkpt><trkpt lat="45.886566738119214" lon="9.140762208294452"><ele>237.0</ele><time>2026-04-25T09:52:16Z</time></trkpt><trkpt lat="45.8867106269106" lon="9.140736265113121"><ele>242.25</ele><time>2026-04-25T09:52:17Z</time></trkpt><trkpt lat="45.88685172288435" lon="9.14071989790268"><ele>247.5</ele><time>2026-04-25T09:52:18Z</time></trkpt><trkpt lat="45.88699148427602" lon="9.140732077545756"><ele>252.75</ele><time>2026-04-25T09:52:19Z</time></trkpt><trkpt lat="45.8871271825502" lon="9.140768219942482"><ele>258.0</ele><time>2026-04-25T09:52:20Z</time></trkpt><trkpt lat="45.88724251525991" lon="9.140851529895459"><ele>258.0</ele><time>2026-04-25T09:52:21Z</time></trkpt><trkpt lat="45.887368780220065" lon="9.140943869497123"><ele>258.0</ele><time>2026-04-25T09:52:22Z</time></trkpt><trkpt lat="45.88748164130806" lon="9.141061100331132"><ele>258.0</ele><time>2026-04-25T09:52:23Z</time></trkpt><trkpt lat="45.88758211875202" lon="9.141202469745313"><ele>258.0</ele><time>2026-04-25T09:52:24Z</time></trkpt><trkpt lat="45.887696761997944" lon="9.141389889133013"><ele>259.6666666666667</ele><time>2026-04-25T09:52:25Z</time></trkpt><trkpt lat="45.88782843880956" lon="9.141532662056882"><ele>261.33333333333337</ele><time>2026-04-25T09:52:26Z</time></trkpt><trkpt lat="45.88793234159205" lon="9.141713709315486"><ele>263.0</ele><time>2026-04-25T09:52:27Z</time></trkpt><trkpt lat="45.88804945492838" lon="9.141883899970955"><ele>263.0</ele><time>2026-04-25T09:52:28Z</time></trkpt><trkpt lat="45.88813704761737" lon="9.142015516961203"><ele>263.0</ele><time>2026-04-25T09:52:29Z</time></trkpt><trkpt lat="45.8882315872047" lon="9.142182626348266"><ele>263.0</ele><time>2026-04-25T09:52:30.001Z</time></trkpt><trkpt lat="45.888338204264755" lon="9.142334747438769"><ele>263.0</ele><time>2026-04-25T09:52:31.001Z</time></trkpt><trkpt lat="45.888452085874604" lon="9.142463921894763"><ele>257.5</ele><time>2026-04-25T09:52:32.001Z</time></trkpt><trkpt lat="45.88855670944072" lon="9.14256392268645"><ele>252.0</ele><time>2026-04-25T09:52:33.001Z</time></trkpt><trkpt lat="45.888704508130395" lon="9.142629380640305"><ele>246.5</ele><time>2026-04-25T09:52:34.001Z</time></trkpt><trkpt lat="45.88886242506544" lon="9.142673705134408"><ele>241.0</ele><time>2026-04-25T09:52:35.001Z</time></trkpt><trkpt lat="45.88903135760433" lon="9.142702569664404"><ele>241.0</ele><time>2026-04-25T09:52:36.001Z</time></trkpt><trkpt lat="45.88919416393009" lon="9.142725724561348"><ele>241.0</ele><time>2026-04-25T09:52:37.001Z</time></trkpt><trkpt lat="45.88934478974466" lon="9.142740068691236"><ele>241.0</ele><time>2026-04-25T09:52:38.001Z</time></trkpt><trkpt lat="45.88948346686973" lon="9.14278597334622"><ele>243.0</ele><time>2026-04-25T09:52:39.001Z</time></trkpt><trkpt lat="45.88962517968224" lon="9.142811186059657"><ele>245.0</ele><time>2026-04-25T09:52:40.001Z</time></trkpt><trkpt lat="45.889763474472495" lon="9.14283579065571"><ele>247.0</ele><time>2026-04-25T09:52:41.001Z</time></trkpt><trkpt lat="45.88989970436902" lon="9.142865364733689"><ele>249.0</ele><time>2026-04-25T09:52:42.001Z</time></trkpt><trkpt lat="45.89004477494736" lon="9.142922795855398"><ele>252.0</ele><time>2026-04-25T09:52:43.001Z</time></trkpt><trkpt lat="45.89018685205033" lon="9.14301033595211"><ele>255.0</ele><time>2026-04-25T09:52:44.001Z</time></trkpt><trkpt lat="45.89033221623303" lon="9.143114433009066"><ele>258.0</ele><time>2026-04-25T09:52:45.001Z</time></trkpt><trkpt lat="45.89048039614787" lon="9.14321900742865"><ele>252.0</ele><time>2026-04-25T09:52:46.001Z</time></trkpt><trkpt lat="45.89063235312992" lon="9.143310535854539"><ele>246.0</ele><time>2026-04-25T09:52:47.001Z</time></trkpt><trkpt lat="45.89078116745467" lon="9.143413973916939"><ele>240.0</ele><time>2026-04-25T09:52:48.001Z</time></trkpt><trkpt lat="45.890929061371864" lon="9.1435122564466"><ele>240.0</ele><time>2026-04-25T09:52:49.001Z</time></trkpt><trkpt lat="45.89107111491545" lon="9.143638810047781"><ele>240.0</ele><time>2026-04-25T09:52:50.001Z</time></trkpt><trkpt lat="45.891214839941355" lon="9.143741242339278"><ele>240.0</ele><time>2026-04-25T09:52:51.001Z</time></trkpt><trkpt lat="45.891356426011875" lon="9.143839190347185"><ele>240.0</ele><time>2026-04-25T09:52:52.001Z</time></trkpt><trkpt lat="45.89149580086638" lon="9.143925879243698"><ele>240.0</ele><time>2026-04-25T09:52:53.001Z</time></trkpt><trkpt lat="45.89164445433348" lon="9.14396083808605"><ele>240.0</ele><time>2026-04-25T09:52:54.001Z</time></trkpt><trkpt lat="45.89179451155554" lon="9.143997951313098"><ele>237.66666666666669</ele><time>2026-04-25T09:52:55.001Z</time></trkpt><trkpt lat="45.89194794089189" lon="9.143992452481864"><ele>235.33333333333334</ele><time>2026-04-25T09:52:56.001Z</time></trkpt><trkpt lat="45.892102176706274" lon="9.143952852274047"><ele>233.0</ele><time>2026-04-25T09:52:57.001Z</time></trkpt><trkpt lat="45.892260457962436" lon="9.143886720253978"><ele>233.0</ele><time>2026-04-25T09:52:58.001Z</time></trkpt><trkpt lat="45.89240987026927" lon="9.143805387902573"><ele>233.0</ele><time>2026-04-25T09:52:59.001Z</time></trkpt><trkpt lat="45.8925589899432" lon="9.143684673368254"><ele>233.0</ele><time>2026-04-25T09:53:00.001Z</time></trkpt><trkpt lat="45.89270120986829" lon="9.143561533614093"><ele>228.33333333333334</ele><time>2026-04-25T09:53:01.001Z</time></trkpt><trkpt lat="45.89284719802107" lon="9.143443561412944"><ele>223.66666666666669</ele><time>2026-04-25T09:53:02.002Z</time></trkpt><trkpt lat="45.89299238879884" lon="9.14333235330038"><ele>219.0</ele><time>2026-04-25T09:53:03.002Z</time></trkpt><trkpt lat="45.89313306572228" lon="9.1432331012607"><ele>220.75</ele><time>2026-04-25T09:53:04.002Z</time></trkpt><trkpt lat="45.89326405124959" lon="9.143148884338029"><ele>222.5</ele><time>2026-04-25T09:53:05.002Z</time></trkpt><trkpt lat="45.893382248051715" lon="9.143035377003134"><ele>224.25</ele><time>2026-04-25T09:53:06.002Z</time></trkpt><trkpt lat="45.893507094808406" lon="9.142947141523237"><ele>226.0</ele><time>2026-04-25T09:53:07.002Z</time></trkpt><trkpt lat="45.8936389642987" lon="9.142861408039714"><ele>226.0</ele><time>2026-04-25T09:53:08.002Z</time></trkpt><trkpt lat="45.89376817583129" lon="9.142782956116115"><ele>226.0</ele><time>2026-04-25T09:53:09.002Z</time></trkpt><trkpt lat="45.893888412332856" lon="9.142709589233533"><ele>226.0</ele><time>2026-04-25T09:53:10.002Z</time></trkpt><trkpt lat="45.89401071851002" lon="9.142628651367156"><ele>226.0</ele><time>2026-04-25T09:53:11.002Z</time></trkpt><trkpt lat="45.894135838149936" lon="9.142548267745575"><ele>227.75</ele><time>2026-04-25T09:53:12.002Z</time></trkpt><trkpt lat="45.894264653305335" lon="9.142465815658626"><ele>229.5</ele><time>2026-04-25T09:53:13.002Z</time></trkpt><trkpt lat="45.894389864361536" lon="9.142384952699887"><ele>231.25</ele><time>2026-04-25T09:53:14.002Z</time></trkpt><trkpt lat="45.89451533381179" lon="9.142308334698155"><ele>233.0</ele><time>2026-04-25T09:53:15.002Z</time></trkpt><trkpt lat="45.894643541903264" lon="9.142221608165872"><ele>233.0</ele><time>2026-04-25T09:53:16.002Z</time></trkpt><trkpt lat="45.89477299956087" lon="9.142136815873686"><ele>233.0</ele><time>2026-04-25T09:53:17.002Z</time></trkpt><trkpt lat="45.894893274742095" lon="9.142049894168919"><ele>233.0</ele><time>2026-04-25T09:53:18.002Z</time></trkpt><trkpt lat="45.89500287624252" lon="9.141948887860432"><ele>233.0</ele><time>2026-04-25T09:53:19.002Z</time></trkpt><trkpt lat="45.895113581863704" lon="9.141836998451264"><ele>230.5</ele><time>2026-04-25T09:53:20.002Z</time></trkpt><trkpt lat="45.895218372266726" lon="9.141716812152813"><ele>228.0</ele><time>2026-04-25T09:53:21.002Z</time></trkpt><trkpt lat="45.89532087836748" lon="9.141595486697332"><ele>225.5</ele><time>2026-04-25T09:53:22.002Z</time></trkpt><trkpt lat="45.89541640305764" lon="9.141473439737739"><ele>223.0</ele><time>2026-04-25T09:53:23.002Z</time></trkpt><trkpt lat="45.8955056602806" lon="9.141349502266209"><ele>223.0</ele><time>2026-04-25T09:53:24.002Z</time></trkpt><trkpt lat="45.89558395920625" lon="9.141207100097834"><ele>223.0</ele><time>2026-04-25T09:53:25.002Z</time></trkpt><trkpt lat="45.89566736912835" lon="9.141076331340654"><ele>223.0</ele><time>2026-04-25T09:53:26.002Z</time></trkpt><trkpt lat="45.8957458305719" lon="9.140937554585156"><ele>223.0</ele><time>2026-04-25T09:53:27.002Z</time></trkpt><trkpt lat="45.89581494715971" lon="9.140788034552886"><ele>219.75</ele><time>2026-04-25T09:53:28.002Z</time></trkpt><trkpt lat="45.89589000054274" lon="9.140643712097994"><ele>216.5</ele><time>2026-04-25T09:53:29.002Z</time></trkpt><trkpt lat="45.895954300296864" lon="9.140502200216627"><ele>213.25</ele><time>2026-04-25T09:53:30.002Z</time></trkpt><trkpt lat="45.89601656565908" lon="9.140373396451652"><ele>210.0</ele><time>2026-04-25T09:53:31.002Z</time></trkpt><trkpt lat="45.89607965666526" lon="9.140244564192505"><ele>210.0</ele><time>2026-04-25T09:53:32.002Z</time></trkpt><trkpt lat="45.896132587623555" lon="9.14011977941406"><ele>210.0</ele><time>2026-04-25T09:53:33.002Z</time></trkpt><trkpt lat="45.89620648814713" lon="9.140011572560718"><ele>210.0</ele><time>2026-04-25T09:53:34.002Z</time></trkpt><trkpt lat="45.89627589463741" lon="9.139902568693085"><ele>210.0</ele><time>2026-04-25T09:53:35.002Z</time></trkpt><trkpt lat="45.896342759714585" lon="9.139805272895194"><ele>210.0</ele><time>2026-04-25T09:53:36.003Z</time></trkpt><trkpt lat="45.89641131835655" lon="9.139703491341132"><ele>214.0</ele><time>2026-04-25T09:53:37.003Z</time></trkpt><trkpt lat="45.89647883870528" lon="9.139606136724186"><ele>218.0</ele><time>2026-04-25T09:53:38.003Z</time></trkpt><trkpt lat="45.896539568966816" lon="9.139503385887725"><ele>222.0</ele><time>2026-04-25T09:53:39.003Z</time></trkpt><trkpt lat="45.89660656122463" lon="9.139401742829639"><ele>226.0</ele><time>2026-04-25T09:53:40.003Z</time></trkpt><trkpt lat="45.89667681743327" lon="9.139301925155452"><ele>230.0</ele><time>2026-04-25T09:53:41.003Z</time></trkpt><trkpt lat="45.89675084397314" lon="9.139199132343801"><ele>231.25</ele><time>2026-04-25T09:53:42.003Z</time></trkpt><trkpt lat="45.8968406086389" lon="9.139098699376627"><ele>232.5</ele><time>2026-04-25T09:53:43.003Z</time></trkpt><trkpt lat="45.896940260296475" lon="9.139001159055145"><ele>233.75</ele><time>2026-04-25T09:53:44.003Z</time></trkpt><trkpt lat="45.89704747440179" lon="9.138917171702369"><ele>235.0</ele><time>2026-04-25T09:53:45.003Z</time></trkpt><trkpt lat="45.89714989926382" lon="9.138833085843956"><ele>235.0</ele><time>2026-04-25T09:53:46.003Z</time></trkpt><trkpt lat="45.897254163431626" lon="9.138756363441258"><ele>235.0</ele><time>2026-04-25T09:53:47.003Z</time></trkpt><trkpt lat="45.897350963574766" lon="9.138671128486383"><ele>235.0</ele><time>2026-04-25T09:53:48.003Z</time></trkpt><trkpt lat="45.897448659616096" lon="9.138593320653595"><ele>235.0</ele><time>2026-04-25T09:53:49.003Z</time></trkpt><trkpt lat="45.897544838089054" lon="9.138506201086464"><ele>233.5</ele><time>2026-04-25T09:53:50.003Z</time></trkpt><trkpt lat="45.897638603775086" lon="9.138415055671743"><ele>232.0</ele><time>2026-04-25T09:53:51.003Z</time></trkpt><trkpt lat="45.89773252447845" lon="9.138316152792171"><ele>230.5</ele><time>2026-04-25T09:53:52.003Z</time></trkpt><trkpt lat="45.89782761028511" lon="9.13821002502918"><ele>229.0</ele><time>2026-04-25T09:53:53.003Z</time></trkpt><trkpt lat="45.89791512656541" lon="9.138102610554943"><ele>229.0</ele><time>2026-04-25T09:53:54.003Z</time></trkpt><trkpt lat="45.89798689656506" lon="9.13800731736545"><ele>228.99999999999997</ele><time>2026-04-25T09:53:55.003Z</time></trkpt><trkpt lat="45.89806150013823" lon="9.137911824158298"><ele>228.99999999999997</ele><time>2026-04-25T09:53:56.003Z</time></trkpt><trkpt lat="45.89813849656095" lon="9.137816706714721"><ele>229.0</ele><time>2026-04-25T09:53:57.003Z</time></trkpt><trkpt lat="45.898205048034896" lon="9.137730768993361"><ele>229.0</ele><time>2026-04-25T09:53:58.003Z</time></trkpt><trkpt lat="45.89827187168151" lon="9.13765261786323"><ele>229.0</ele><time>2026-04-25T09:53:59.003Z</time></trkpt><trkpt lat="45.898329974970444" lon="9.137576244395872"><ele>228.99999999999997</ele><time>2026-04-25T09:54:00.003Z</time></trkpt><trkpt lat="45.89843222565843" lon="9.137491997059163"><ele>228.99999999999997</ele><time>2026-04-25T09:54:02.003Z</time></trkpt><trkpt lat="45.89852252378582" lon="9.13739282265086"><ele>229.0</ele><time>2026-04-25T09:54:03.999Z</time></trkpt><trkpt lat="45.898636400981836" lon="9.137317438462237"><ele>229.0</ele><time>2026-04-25T09:54:05.999Z</time></trkpt><trkpt lat="45.89874623154316" lon="9.137252197816425"><ele>229.83333333333331</ele><time>2026-04-25T09:54:07.999Z</time></trkpt><trkpt lat="45.89880705219023" lon="9.137210662408172"><ele>230.66666666666666</ele><time>2026-04-25T09:54:08.999Z</time></trkpt><trkpt lat="45.89886833291949" lon="9.137168881689371"><ele>231.5</ele><time>2026-04-25T09:54:09.999Z</time></trkpt><trkpt lat="45.89898133486225" lon="9.137096326474351"><ele>232.33333333333331</ele><time>2026-04-25T09:54:11.999Z</time></trkpt><trkpt lat="45.899049667368885" lon="9.137068478477786"><ele>233.16666666666666</ele><time>2026-04-25T09:54:12.999Z</time></trkpt><trkpt lat="45.8991206217369" lon="9.137042555589945"><ele>234.0</ele><time>2026-04-25T09:54:13.999Z</time></trkpt><trkpt lat="45.89919014898269" lon="9.13702633278194"><ele>231.79999999999998</ele><time>2026-04-25T09:54:14.999Z</time></trkpt><trkpt lat="45.89927390894833" lon="9.137009076724313"><ele>229.59999999999997</ele><time>2026-04-25T09:54:15.999Z</time></trkpt><trkpt lat="45.89936644204516" lon="9.136986368011275"><ele>227.4</ele><time>2026-04-25T09:54:16.999Z</time></trkpt><trkpt lat="45.8994572262743" lon="9.136969160833818"><ele>225.2</ele><time>2026-04-25T09:54:17.999Z</time></trkpt><trkpt lat="45.89955191148901" lon="9.136946545437054"><ele>223.0</ele><time>2026-04-25T09:54:18.999Z</time></trkpt><trkpt lat="45.8996515393225" lon="9.13692256440007"><ele>223.0</ele><time>2026-04-25T09:54:19.999Z</time></trkpt><trkpt lat="45.89975597872415" lon="9.136897932520641"><ele>223.0</ele><time>2026-04-25T09:54:20.999Z</time></trkpt><trkpt lat="45.899859177933976" lon="9.136851863040375"><ele>223.0</ele><time>2026-04-25T09:54:22Z</time></trkpt><trkpt lat="45.899964589428386" lon="9.136791537431925"><ele>223.0</ele><time>2026-04-25T09:54:23Z</time></trkpt><trkpt lat="45.90006810039318" lon="9.136705378277929"><ele>223.0</ele><time>2026-04-25T09:54:24Z</time></trkpt><trkpt lat="45.900165345209004" lon="9.136620112834228"><ele>225.5</ele><time>2026-04-25T09:54:25Z</time></trkpt><trkpt lat="45.900268326529854" lon="9.136540133987648"><ele>228.0</ele><time>2026-04-25T09:54:26Z</time></trkpt><trkpt lat="45.900368108701784" lon="9.136458330236016"><ele>230.5</ele><time>2026-04-25T09:54:27Z</time></trkpt><trkpt lat="45.90046353164341" lon="9.136382310551078"><ele>233.0</ele><time>2026-04-25T09:54:28Z</time></trkpt><trkpt lat="45.90055947014356" lon="9.136306446393561"><ele>233.0</ele><time>2026-04-25T09:54:29Z</time></trkpt><trkpt lat="45.900659710476624" lon="9.136225975642963"><ele>233.0</ele><time>2026-04-25T09:54:30Z</time></trkpt><trkpt lat="45.90076161723312" lon="9.136145474006069"><ele>233.0</ele><time>2026-04-25T09:54:31Z</time></trkpt><trkpt lat="45.90086131394629" lon="9.136055482623142"><ele>233.0</ele><time>2026-04-25T09:54:32Z</time></trkpt><trkpt lat="45.900963664321004" lon="9.13598095360265"><ele>234.25</ele><time>2026-04-25T09:54:33Z</time></trkpt><trkpt lat="45.901056971154" lon="9.135905560648188"><ele>235.5</ele><time>2026-04-25T09:54:34Z</time></trkpt><trkpt lat="45.901163755049936" lon="9.135828462219346"><ele>236.75</ele><time>2026-04-25T09:54:35Z</time></trkpt><trkpt lat="45.901278375215654" lon="9.135735846948938"><ele>238.0</ele><time>2026-04-25T09:54:36Z</time></trkpt><trkpt lat="45.90138331567557" lon="9.135644866192928"><ele>238.0</ele><time>2026-04-25T09:54:37Z</time></trkpt><trkpt lat="45.901501215453145" lon="9.135556084442584"><ele>238.0</ele><time>2026-04-25T09:54:38Z</time></trkpt><trkpt lat="45.901612054162314" lon="9.135464124938272"><ele>238.0</ele><time>2026-04-25T09:54:39Z</time></trkpt><trkpt lat="45.901728137179845" lon="9.135372414594357"><ele>238.0</ele><time>2026-04-25T09:54:40Z</time></trkpt><trkpt lat="45.90185470252038" lon="9.135299897821287"><ele>231.25</ele><time>2026-04-25T09:54:41Z</time></trkpt><trkpt lat="45.901965331970885" lon="9.135186679420533"><ele>224.5</ele><time>2026-04-25T09:54:42Z</time></trkpt><trkpt lat="45.90208313606758" lon="9.135096764836188"><ele>217.75</ele><time>2026-04-25T09:54:43Z</time></trkpt><trkpt lat="45.90220730589313" lon="9.13499648020583"><ele>211.0</ele><time>2026-04-25T09:54:44Z</time></trkpt><trkpt lat="45.90232919951216" lon="9.134902727737542"><ele>214.0</ele><time>2026-04-25T09:54:45.001Z</time></trkpt><trkpt lat="45.90245288918047" lon="9.13480601450045"><ele>217.0</ele><time>2026-04-25T09:54:46.001Z</time></trkpt><trkpt lat="45.902574172275465" lon="9.13471035601354"><ele>220.0</ele><time>2026-04-25T09:54:47.001Z</time></trkpt><trkpt lat="45.902692343626605" lon="9.134618476218623"><ele>223.0</ele><time>2026-04-25T09:54:48.001Z</time></trkpt><trkpt lat="45.90290909697659" lon="9.134440105709821"><ele>223.0</ele><time>2026-04-25T09:54:50.001Z</time></trkpt><trkpt lat="45.903013430983655" lon="9.134353855836155"><ele>223.0</ele><time>2026-04-25T09:54:51.001Z</time></trkpt><trkpt lat="45.90312476659288" lon="9.134280402173589"><ele>223.0</ele><time>2026-04-25T09:54:52.001Z</time></trkpt><trkpt lat="45.90323595115207" lon="9.134219040857747"><ele>223.0</ele><time>2026-04-25T09:54:53.001Z</time></trkpt><trkpt lat="45.90334943322274" lon="9.134166499452048"><ele>225.75</ele><time>2026-04-25T09:54:54.001Z</time></trkpt><trkpt lat="45.903463164006105" lon="9.13411017120151"><ele>228.5</ele><time>2026-04-25T09:54:55.001Z</time></trkpt><trkpt lat="45.90356870938837" lon="9.13404008226985"><ele>231.25</ele><time>2026-04-25T09:54:56.001Z</time></trkpt><trkpt lat="45.903664412918275" lon="9.133959864289999"><ele>234.0</ele><time>2026-04-25T09:54:57.001Z</time></trkpt><trkpt lat="45.903770263385404" lon="9.133873728745261"><ele>234.0</ele><time>2026-04-25T09:54:58.001Z</time></trkpt><trkpt lat="45.903865465914755" lon="9.13378309930991"><ele>234.0</ele><time>2026-04-25T09:54:59.001Z</time></trkpt><trkpt lat="45.90396139480601" lon="9.133693202311438"><ele>234.0</ele><time>2026-04-25T09:55:00.001Z</time></trkpt><trkpt lat="45.90405627843879" lon="9.133604049677304"><ele>234.0</ele><time>2026-04-25T09:55:01.001Z</time></trkpt><trkpt lat="45.904151950330565" lon="9.133509793659105"><ele>234.0</ele><time>2026-04-25T09:55:02.001Z</time></trkpt><trkpt lat="45.904233060759395" lon="9.133417743557972"><ele>233.99999999999997</ele><time>2026-04-25T09:55:03.001Z</time></trkpt><trkpt lat="45.90430400374732" lon="9.13334588303077"><ele>233.99999999999997</ele><time>2026-04-25T09:55:04.001Z</time></trkpt><trkpt lat="45.904380253955814" lon="9.133269855202046"><ele>234.0</ele><time>2026-04-25T09:55:05.001Z</time></trkpt><trkpt lat="45.90445324933489" lon="9.133193264692101"><ele>234.0</ele><time>2026-04-25T09:55:06.001Z</time></trkpt><trkpt lat="45.90453611326444" lon="9.133122298314413"><ele>234.79999999999998</ele><time>2026-04-25T09:55:07.001Z</time></trkpt><trkpt lat="45.90461989009106" lon="9.133057606759932"><ele>235.59999999999997</ele><time>2026-04-25T09:55:08.001Z</time></trkpt><trkpt lat="45.90470939227603" lon="9.132996603246195"><ele>236.4</ele><time>2026-04-25T09:55:09.001Z</time></trkpt><trkpt lat="45.9048084998844" lon="9.132936205195357"><ele>237.2</ele><time>2026-04-25T09:55:10.001Z</time></trkpt><trkpt lat="45.90490586495919" lon="9.132869362491252"><ele>238.0</ele><time>2026-04-25T09:55:11.001Z</time></trkpt><trkpt lat="45.905001601340096" lon="9.13279920270687"><ele>236.0</ele><time>2026-04-25T09:55:12.001Z</time></trkpt><trkpt lat="45.90509525890688" lon="9.132730137622916"><ele>234.0</ele><time>2026-04-25T09:55:13.001Z</time></trkpt><trkpt lat="45.90518781133214" lon="9.13263952175296"><ele>232.0</ele><time>2026-04-25T09:55:14.001Z</time></trkpt><trkpt lat="45.90527495787129" lon="9.132543419045627"><ele>230.0</ele><time>2026-04-25T09:55:15.001Z</time></trkpt><trkpt lat="45.9053602342495" lon="9.1324402687924"><ele>228.0</ele><time>2026-04-25T09:55:16.002Z</time></trkpt><trkpt lat="45.905442421973454" lon="9.132338832861585"><ele>228.0</ele><time>2026-04-25T09:55:17.002Z</time></trkpt><trkpt lat="45.905516962284594" lon="9.132245663338944"><ele>228.0</ele><time>2026-04-25T09:55:18.002Z</time></trkpt><trkpt lat="45.905597074151935" lon="9.132150120484397"><ele>228.0</ele><time>2026-04-25T09:55:19.002Z</time></trkpt><trkpt lat="45.9056839652009" lon="9.132054139063744"><ele>228.0</ele><time>2026-04-25T09:55:20.002Z</time></trkpt><trkpt lat="45.9057751148813" lon="9.131956736692183"><ele>228.0</ele><time>2026-04-25T09:55:21.002Z</time></trkpt><trkpt lat="45.90587849083092" lon="9.131866425977531"><ele>225.0</ele><time>2026-04-25T09:55:22.002Z</time></trkpt><trkpt lat="45.90598777471568" lon="9.131795202352789"><ele>222.0</ele><time>2026-04-25T09:55:23.002Z</time></trkpt><trkpt lat="45.90610075485202" lon="9.13174655910867"><ele>219.0</ele><time>2026-04-25T09:55:24.002Z</time></trkpt><trkpt lat="45.90621389447247" lon="9.131700440377065"><ele>216.0</ele><time>2026-04-25T09:55:25.002Z</time></trkpt><trkpt lat="45.90632481647581" lon="9.131658060853612"><ele>216.0</ele><time>2026-04-25T09:55:26.002Z</time></trkpt><trkpt lat="45.90643572972372" lon="9.131612815299414"><ele>216.0</ele><time>2026-04-25T09:55:27.002Z</time></trkpt><trkpt lat="45.90654752063611" lon="9.131567777141871"><ele>216.0</ele><time>2026-04-25T09:55:28.002Z</time></trkpt><trkpt lat="45.90666238298431" lon="9.131522951668597"><ele>216.0</ele><time>2026-04-25T09:55:29.002Z</time></trkpt><trkpt lat="45.90677724059433" lon="9.13147777619097"><ele>223.0</ele><time>2026-04-25T09:55:30.002Z</time></trkpt><trkpt lat="45.90689171283093" lon="9.131436334177646"><ele>230.00000000000003</ele><time>2026-04-25T09:55:31.002Z</time></trkpt><trkpt lat="45.90699529699183" lon="9.13140340354262"><ele>237.00000000000003</ele><time>2026-04-25T09:55:32.002Z</time></trkpt><trkpt lat="45.9070933594135" lon="9.131371268354059"><ele>244.0</ele><time>2026-04-25T09:55:33.002Z</time></trkpt><trkpt lat="45.907184395377534" lon="9.13134210804643"><ele>251.0</ele><time>2026-04-25T09:55:34.002Z</time></trkpt><trkpt lat="45.90726875329606" lon="9.131319868255446"><ele>251.0</ele><time>2026-04-25T09:55:35.002Z</time></trkpt><trkpt lat="45.90735214111791" lon="9.131296359505757"><ele>251.00000000000003</ele><time>2026-04-25T09:55:36.002Z</time></trkpt><trkpt lat="45.907437049155426" lon="9.131276905511623"><ele>251.00000000000003</ele><time>2026-04-25T09:55:37.002Z</time></trkpt><trkpt lat="45.90752693993524" lon="9.13127085989874"><ele>251.0</ele><time>2026-04-25T09:55:38.002Z</time></trkpt><trkpt lat="45.9076209939494" lon="9.131243332276524"><ele>251.0</ele><time>2026-04-25T09:55:39.002Z</time></trkpt><trkpt lat="45.9077213726338" lon="9.131218916556437"><ele>250.0</ele><time>2026-04-25T09:55:40.002Z</time></trkpt><trkpt lat="45.907826167322426" lon="9.131195960956898"><ele>249.0</ele><time>2026-04-25T09:55:41.002Z</time></trkpt><trkpt lat="45.90793448300488" lon="9.131174369692138"><ele>248.0</ele><time>2026-04-25T09:55:42.002Z</time></trkpt><trkpt lat="45.90804997044218" lon="9.131155859631209"><ele>247.0</ele><time>2026-04-25T09:55:43.002Z</time></trkpt><trkpt lat="45.90817108800597" lon="9.131137087854892"><ele>247.0</ele><time>2026-04-25T09:55:44.002Z</time></trkpt><trkpt lat="45.90829040368881" lon="9.131117337130476"><ele>247.0</ele><time>2026-04-25T09:55:45.002Z</time></trkpt><trkpt lat="45.90840934912614" lon="9.131094331100618"><ele>247.0</ele><time>2026-04-25T09:55:46.002Z</time></trkpt><trkpt lat="45.9085344156798" lon="9.131063395444555"><ele>247.0</ele><time>2026-04-25T09:55:47.002Z</time></trkpt><trkpt lat="45.90865688296246" lon="9.131024954348572"><ele>244.5</ele><time>2026-04-25T09:55:48.002Z</time></trkpt><trkpt lat="45.90878797059807" lon="9.130969397194706"><ele>242.0</ele><time>2026-04-25T09:55:49.003Z</time></trkpt><trkpt lat="45.908916805072714" lon="9.130900203127899"><ele>239.5</ele><time>2026-04-25T09:55:50.003Z</time></trkpt><trkpt lat="45.90903400956223" lon="9.130821383062257"><ele>237.0</ele><time>2026-04-25T09:55:51.003Z</time></trkpt><trkpt lat="45.9091483440783" lon="9.130736125855433"><ele>249.0</ele><time>2026-04-25T09:55:52.003Z</time></trkpt><trkpt lat="45.909259106082274" lon="9.130645710517078"><ele>261.0</ele><time>2026-04-25T09:55:53.003Z</time></trkpt><trkpt lat="45.90936578095626" lon="9.130562206554412"><ele>273.0</ele><time>2026-04-25T09:55:54.003Z</time></trkpt><trkpt lat="45.90947350528495" lon="9.13045819306437"><ele>285.0</ele><time>2026-04-25T09:55:55.02Z</time></trkpt><trkpt lat="45.9095793850908" lon="9.130363598964758"><ele>285.0</ele><time>2026-04-25T09:55:56.017Z</time></trkpt><trkpt lat="45.90968971402606" lon="9.130273466411756"><ele>285.0</ele><time>2026-04-25T09:55:57.017Z</time></trkpt><trkpt lat="45.90980476594728" lon="9.13019337359288"><ele>285.0</ele><time>2026-04-25T09:55:58.018Z</time></trkpt><trkpt lat="45.90992089331862" lon="9.130116745610687"><ele>285.0</ele><time>2026-04-25T09:55:59.016Z</time></trkpt><trkpt lat="45.91250483504074" lon="9.130139203678157"><ele>324.0</ele><time>2026-04-25T09:56:03.698Z</time></trkpt><trkpt lat="45.913121448131584" lon="9.130319118642317"><ele>336.0</ele><time>2026-04-25T09:56:04.697Z</time></trkpt><trkpt lat="45.91373910983467" lon="9.130498197643039"><ele>356.0</ele><time>2026-04-25T09:56:05.698Z</time></trkpt><trkpt lat="45.91435620545501" lon="9.130677112519074"><ele>299.0</ele><time>2026-04-25T09:56:06.698Z</time></trkpt><trkpt lat="45.91497112519245" lon="9.130855396540172"><ele>302.0</ele><time>2026-04-25T09:56:07.694Z</time></trkpt><trkpt lat="45.91558833869457" lon="9.131034345593738"><ele>317.0</ele><time>2026-04-25T09:56:08.694Z</time></trkpt><trkpt lat="45.916207960852816" lon="9.131216047847655"><ele>326.0</ele><time>2026-04-25T09:56:09.698Z</time></trkpt><trkpt lat="45.916823367131414" lon="9.131393532961399"><ele>270.0</ele><time>2026-04-25T09:56:10.695Z</time></trkpt><trkpt lat="45.91744063481122" lon="9.131571554909126"><ele>259.0</ele><time>2026-04-25T09:56:11.695Z</time></trkpt><trkpt lat="45.918059389197936" lon="9.13175000562782"><ele>236.0</ele><time>2026-04-25T09:56:12.697Z</time></trkpt><trkpt lat="45.91867961617871" lon="9.131888763730696"><ele>236.0</ele><time>2026-04-25T09:56:13.695Z</time></trkpt><trkpt lat="45.9189722" lon="9.1318813"><ele>236.0</ele><time>2026-04-25T09:56:14.697Z</time></trkpt><trkpt lat="45.91950458478734" lon="9.131779577591578"><ele>232.5</ele><time>2026-04-25T09:57:02.005Z</time></trkpt><trkpt lat="45.91962314000369" lon="9.131743616781822"><ele>229.0</ele><time>2026-04-25T09:57:03.005Z</time></trkpt><trkpt lat="45.91974175298641" lon="9.131696126430713"><ele>225.5</ele><time>2026-04-25T09:57:04.005Z</time></trkpt><trkpt lat="45.919848318908976" lon="9.131634299537463"><ele>222.0</ele><time>2026-04-25T09:57:05.005Z</time></trkpt><trkpt lat="45.919975742754026" lon="9.131619464645917"><ele>220.5</ele><time>2026-04-25T09:57:06.005Z</time></trkpt><trkpt lat="45.92009124660797" lon="9.131581126103471"><ele>219.0</ele><time>2026-04-25T09:57:07.005Z</time></trkpt><trkpt lat="45.92020837460955" lon="9.131544885187719"><ele>217.5</ele><time>2026-04-25T09:57:08.005Z</time></trkpt><trkpt lat="45.92033835500993" lon="9.131504545848474"><ele>216.0</ele><time>2026-04-25T09:57:09.005Z</time></trkpt><trkpt lat="45.92046595534496" lon="9.131510231334355"><ele>225.0</ele><time>2026-04-25T09:57:10Z</time></trkpt><trkpt lat="45.92058942644012" lon="9.131518301459193"><ele>234.0</ele><time>2026-04-25T09:57:11Z</time></trkpt><trkpt lat="45.92070909838742" lon="9.131517037146137"><ele>243.0</ele><time>2026-04-25T09:57:12Z</time></trkpt><trkpt lat="45.92082484995542" lon="9.131512733528673"><ele>252.0</ele><time>2026-04-25T09:57:13Z</time></trkpt><trkpt lat="45.92093952434989" lon="9.131499136689543"><ele>252.0</ele><time>2026-04-25T09:57:14Z</time></trkpt><trkpt lat="45.921058199277184" lon="9.131475362721178"><ele>252.0</ele><time>2026-04-25T09:57:15Z</time></trkpt><trkpt lat="45.92116447182309" lon="9.131439581704337"><ele>252.0</ele><time>2026-04-25T09:57:16Z</time></trkpt><trkpt lat="45.92126844946013" lon="9.131399075373357"><ele>252.0</ele><time>2026-04-25T09:57:17Z</time></trkpt><trkpt lat="45.92137328436946" lon="9.131362132713642"><ele>252.0</ele><time>2026-04-25T09:57:18Z</time></trkpt><trkpt lat="45.92147678593533" lon="9.131319113698634"><ele>252.0</ele><time>2026-04-25T09:57:19Z</time></trkpt><trkpt lat="45.92157371874999" lon="9.131284007711942"><ele>252.0</ele><time>2026-04-25T09:57:20Z</time></trkpt><trkpt lat="45.92166700739157" lon="9.131251608595404"><ele>252.0</ele><time>2026-04-25T09:57:21Z</time></trkpt><trkpt lat="45.92176563604797" lon="9.131229704322314"><ele>252.0</ele><time>2026-04-25T09:57:22Z</time></trkpt><trkpt lat="45.92186463464881" lon="9.131218098141787"><ele>252.0</ele><time>2026-04-25T09:57:23Z</time></trkpt><trkpt lat="45.92196614339894" lon="9.131224438968848"><ele>253.6</ele><time>2026-04-25T09:57:24Z</time></trkpt><trkpt lat="45.92206634130648" lon="9.13124868232939"><ele>255.2</ele><time>2026-04-25T09:57:25Z</time></trkpt><trkpt lat="45.9221663335012" lon="9.131280090740837"><ele>256.8</ele><time>2026-04-25T09:57:26Z</time></trkpt><trkpt lat="45.92226818020223" lon="9.131308206363116"><ele>258.4</ele><time>2026-04-25T09:57:27Z</time></trkpt><trkpt lat="45.9223672653287" lon="9.131330474909257"><ele>260.0</ele><time>2026-04-25T09:57:28Z</time></trkpt><trkpt lat="45.92246340044294" lon="9.131350862076895"><ele>260.0</ele><time>2026-04-25T09:57:29Z</time></trkpt><trkpt lat="45.92255936335204" lon="9.131365464202995"><ele>260.0</ele><time>2026-04-25T09:57:30Z</time></trkpt><trkpt lat="45.92266552540446" lon="9.13137778676131"><ele>260.0</ele><time>2026-04-25T09:57:31Z</time></trkpt><trkpt lat="45.92276312592836" lon="9.13139770824923"><ele>260.0</ele><time>2026-04-25T09:57:32Z</time></trkpt><trkpt lat="45.922857438595386" lon="9.131418073419498"><ele>260.0</ele><time>2026-04-25T09:57:33Z</time></trkpt><trkpt lat="45.922954166409106" lon="9.13144015281619"><ele>259.2</ele><time>2026-04-25T09:57:34Z</time></trkpt><trkpt lat="45.92304693819384" lon="9.131466694586951"><ele>258.4</ele><time>2026-04-25T09:57:35Z</time></trkpt><trkpt lat="45.923139046273754" lon="9.13147476518907"><ele>257.6</ele><time>2026-04-25T09:57:36Z</time></trkpt><trkpt lat="45.923232431852476" lon="9.13147361829794"><ele>256.8</ele><time>2026-04-25T09:57:37Z</time></trkpt><trkpt lat="45.92332578367994" lon="9.131461723646366"><ele>256.0</ele><time>2026-04-25T09:57:38Z</time></trkpt><trkpt lat="45.92342446900913" lon="9.131441445042261"><ele>255.0</ele><time>2026-04-25T09:57:39Z</time></trkpt><trkpt lat="45.92352528815811" lon="9.131413215327115"><ele>254.00000000000003</ele><time>2026-04-25T09:57:40Z</time></trkpt><trkpt lat="45.92362596929945" lon="9.13137600478768"><ele>253.00000000000003</ele><time>2026-04-25T09:57:41.001Z</time></trkpt><trkpt lat="45.92372649296601" lon="9.13132582512574"><ele>252.0</ele><time>2026-04-25T09:57:42.001Z</time></trkpt><trkpt lat="45.92383147214921" lon="9.131277590356287"><ele>251.0</ele><time>2026-04-25T09:57:43.001Z</time></trkpt><trkpt lat="45.92394526710104" lon="9.131223116471572"><ele>251.0</ele><time>2026-04-25T09:57:44.001Z</time></trkpt><trkpt lat="45.924057122433325" lon="9.131168788247587"><ele>251.0</ele><time>2026-04-25T09:57:45.001Z</time></trkpt><trkpt lat="45.92416721325165" lon="9.131109885170114"><ele>251.0</ele><time>2026-04-25T09:57:46.001Z</time></trkpt><trkpt lat="45.92427536842837" lon="9.131054625875315"><ele>251.0</ele><time>2026-04-25T09:57:47.001Z</time></trkpt><trkpt lat="45.92438412644916" lon="9.131003518833133"><ele>247.8</ele><time>2026-04-25T09:57:48.001Z</time></trkpt><trkpt lat="45.92448259614957" lon="9.130952358174584"><ele>244.60000000000002</ele><time>2026-04-25T09:57:49.001Z</time></trkpt><trkpt lat="45.92458071815588" lon="9.130902754417022"><ele>241.4</ele><time>2026-04-25T09:57:50.001Z</time></trkpt><trkpt lat="45.924681603090875" lon="9.130867614354976"><ele>238.2</ele><time>2026-04-25T09:57:51.001Z</time></trkpt><trkpt lat="45.92478683147616" lon="9.130859255454038"><ele>235.0</ele><time>2026-04-25T09:57:52.001Z</time></trkpt><trkpt lat="45.924900633953335" lon="9.130889872279068"><ele>235.0</ele><time>2026-04-25T09:57:53.001Z</time></trkpt><trkpt lat="45.92501629237329" lon="9.130929287119324"><ele>235.0</ele><time>2026-04-25T09:57:54.001Z</time></trkpt><trkpt lat="45.92513306700936" lon="9.130972019206322"><ele>235.0</ele><time>2026-04-25T09:57:55.001Z</time></trkpt><trkpt lat="45.92525261518951" lon="9.131007226368613"><ele>235.0</ele><time>2026-04-25T09:57:56.001Z</time></trkpt><trkpt lat="45.925361537601084" lon="9.131031567927456"><ele>234.2</ele><time>2026-04-25T09:57:57.001Z</time></trkpt><trkpt lat="45.925469582107105" lon="9.131040684781366"><ele>233.4</ele><time>2026-04-25T09:57:58.001Z</time></trkpt><trkpt lat="45.925575214462874" lon="9.131032596914956"><ele>232.60000000000002</ele><time>2026-04-25T09:57:59.001Z</time></trkpt><trkpt lat="45.92568598843664" lon="9.131019432736501"><ele>231.8</ele><time>2026-04-25T09:58:00.001Z</time></trkpt><trkpt lat="45.92579653377082" lon="9.130996902237769"><ele>231.0</ele><time>2026-04-25T09:58:01.001Z</time></trkpt><trkpt lat="45.925899155520185" lon="9.13096787022822"><ele>229.83333333333334</ele><time>2026-04-25T09:58:02.001Z</time></trkpt><trkpt lat="45.92599047021184" lon="9.130953556609581"><ele>228.66666666666669</ele><time>2026-04-25T09:58:03.001Z</time></trkpt><trkpt lat="45.92608315498492" lon="9.130939928371758"><ele>227.5</ele><time>2026-04-25T09:58:04.001Z</time></trkpt><trkpt lat="45.926174881125384" lon="9.130928294463704"><ele>226.33333333333334</ele><time>2026-04-25T09:58:05.001Z</time></trkpt><trkpt lat="45.926251670679626" lon="9.130910771759064"><ele>225.16666666666669</ele><time>2026-04-25T09:58:06.001Z</time></trkpt><trkpt lat="45.926344807213404" lon="9.130911647336761"><ele>224.0</ele><time>2026-04-25T09:58:07.001Z</time></trkpt><trkpt lat="45.9264334148393" lon="9.13089851584577"><ele>224.00000000000003</ele><time>2026-04-25T09:58:08.001Z</time></trkpt><trkpt lat="45.92652715790197" lon="9.130884425565718"><ele>224.0</ele><time>2026-04-25T09:58:09.001Z</time></trkpt><trkpt lat="45.926611253584284" lon="9.130869023855375"><ele>224.0</ele><time>2026-04-25T09:58:10.001Z</time></trkpt><trkpt lat="45.92669005536776" lon="9.130838315620753"><ele>224.0</ele><time>2026-04-25T09:58:11.001Z</time></trkpt><trkpt lat="45.92676694876691" lon="9.13080266895135"><ele>224.00000000000003</ele><time>2026-04-25T09:58:12.001Z</time></trkpt><trkpt lat="45.926839899851245" lon="9.130761424656598"><ele>224.0</ele><time>2026-04-25T09:58:13.002Z</time></trkpt><trkpt lat="45.92691036896603" lon="9.130711902771656"><ele>228.50000000000003</ele><time>2026-04-25T09:58:14.002Z</time></trkpt><trkpt lat="45.926983463985344" lon="9.130663561919835"><ele>233.0</ele><time>2026-04-25T09:58:15.002Z</time></trkpt><trkpt lat="45.92706219830985" lon="9.130601441740026"><ele>237.5</ele><time>2026-04-25T09:58:16.002Z</time></trkpt><trkpt lat="45.927138367033876" lon="9.130539206786349"><ele>242.0</ele><time>2026-04-25T09:58:17.002Z</time></trkpt><trkpt lat="45.92721133471256" lon="9.13049297895705"><ele>246.50000000000003</ele><time>2026-04-25T09:58:18.002Z</time></trkpt><trkpt lat="45.927285365792024" lon="9.130463289539742"><ele>251.0</ele><time>2026-04-25T09:58:19.002Z</time></trkpt><trkpt lat="45.92736599910044" lon="9.130430445624416"><ele>251.00000000000003</ele><time>2026-04-25T09:58:20.002Z</time></trkpt><trkpt lat="45.927453663560854" lon="9.130401347151302"><ele>251.0</ele><time>2026-04-25T09:58:21.002Z</time></trkpt><trkpt lat="45.92754127717914" lon="9.130363814396032"><ele>251.0</ele><time>2026-04-25T09:58:22.002Z</time></trkpt><trkpt lat="45.92762546385598" lon="9.130324802793773"><ele>251.0</ele><time>2026-04-25T09:58:23.002Z</time></trkpt><trkpt lat="45.927707488260516" lon="9.13028876782566"><ele>251.00000000000003</ele><time>2026-04-25T09:58:24.002Z</time></trkpt><trkpt lat="45.92778686461199" lon="9.130258538797262"><ele>251.0</ele><time>2026-04-25T09:58:25.002Z</time></trkpt><trkpt lat="45.927867645082216" lon="9.130225220829267"><ele>244.8</ele><time>2026-04-25T09:58:26.002Z</time></trkpt><trkpt lat="45.927954496320076" lon="9.130196923160886"><ele>238.60000000000002</ele><time>2026-04-25T09:58:27.002Z</time></trkpt><trkpt lat="45.92803937155179" lon="9.130157595202531"><ele>232.4</ele><time>2026-04-25T09:58:28.002Z</time></trkpt><trkpt lat="45.92812872138798" lon="9.13011672407329"><ele>226.2</ele><time>2026-04-25T09:58:29.002Z</time></trkpt><trkpt lat="45.928216188892556" lon="9.13007698491314"><ele>220.0</ele><time>2026-04-25T09:58:30.002Z</time></trkpt><trkpt lat="45.92830985922133" lon="9.130044480217027"><ele>218.2</ele><time>2026-04-25T09:58:31.002Z</time></trkpt><trkpt lat="45.92840329705345" lon="9.130005748910227"><ele>216.4</ele><time>2026-04-25T09:58:32.002Z</time></trkpt><trkpt lat="45.92850209900173" lon="9.129958858260954"><ele>214.60000000000002</ele><time>2026-04-25T09:58:33.002Z</time></trkpt><trkpt lat="45.92859469190819" lon="9.12992676637559"><ele>212.8</ele><time>2026-04-25T09:58:34.002Z</time></trkpt><trkpt lat="45.928690312696624" lon="9.12988630391029"><ele>211.0</ele><time>2026-04-25T09:58:35.002Z</time></trkpt><trkpt lat="45.928783724363065" lon="9.129840190628913"><ele>212.4</ele><time>2026-04-25T09:58:36.002Z</time></trkpt><trkpt lat="45.92887391591888" lon="9.1298039013509"><ele>213.8</ele><time>2026-04-25T09:58:37.002Z</time></trkpt><trkpt lat="45.92896785736385" lon="9.129763918770433"><ele>215.20000000000002</ele><time>2026-04-25T09:58:38.002Z</time></trkpt><trkpt lat="45.92906007034276" lon="9.12972402048497"><ele>216.60000000000002</ele><time>2026-04-25T09:58:39.002Z</time></trkpt><trkpt lat="45.92915568066732" lon="9.12968857473057"><ele>218.0</ele><time>2026-04-25T09:58:40.002Z</time></trkpt><trkpt lat="45.92925077816887" lon="9.129649735125865"><ele>218.0</ele><time>2026-04-25T09:58:41.002Z</time></trkpt><trkpt lat="45.92934786298244" lon="9.129610540915946"><ele>218.0</ele><time>2026-04-25T09:58:42.002Z</time></trkpt><trkpt lat="45.929439612010256" lon="9.12956398894668"><ele>218.0</ele><time>2026-04-25T09:58:43.002Z</time></trkpt><trkpt lat="45.929524491678265" lon="9.12951082861058"><ele>218.0</ele><time>2026-04-25T09:58:44.002Z</time></trkpt><trkpt lat="45.92960746190189" lon="9.129452869626506"><ele>218.0</ele><time>2026-04-25T09:58:45.002Z</time></trkpt><trkpt lat="45.929692907606" lon="9.129400120140398"><ele>218.00000000000003</ele><time>2026-04-25T09:58:46.003Z</time></trkpt><trkpt lat="45.92975390422956" lon="9.12929792711591"><ele>218.0</ele><time>2026-04-25T09:58:47.003Z</time></trkpt><trkpt lat="45.92982243548396" lon="9.129214359701473"><ele>218.0</ele><time>2026-04-25T09:58:48.003Z</time></trkpt><trkpt lat="45.9298680338099" lon="9.129133648037888"><ele>218.0</ele><time>2026-04-25T09:58:49.003Z</time></trkpt><trkpt lat="45.92991843272162" lon="9.129045711215083"><ele>218.00000000000003</ele><time>2026-04-25T09:58:50.003Z</time></trkpt><trkpt lat="45.92997567203086" lon="9.12899940702886"><ele>218.0</ele><time>2026-04-25T09:58:51.003Z</time></trkpt><trkpt lat="45.93001774143583" lon="9.128928977098845"><ele>221.50000000000003</ele><time>2026-04-25T09:58:52.003Z</time></trkpt><trkpt lat="45.93008467236403" lon="9.128840022469609"><ele>225.0</ele><time>2026-04-25T09:58:54.003Z</time></trkpt><trkpt lat="45.93014038403412" lon="9.128774916160795"><ele>228.5</ele><time>2026-04-25T09:58:56.003Z</time></trkpt><trkpt lat="45.93020556259089" lon="9.128706839746487"><ele>232.0</ele><time>2026-04-25T09:58:58.003Z</time></trkpt><trkpt lat="45.93028859875084" lon="9.128637649255268"><ele>235.50000000000003</ele><time>2026-04-25T09:59:00.003Z</time></trkpt><trkpt lat="45.93036588276812" lon="9.128596167138818"><ele>239.0</ele><time>2026-04-25T09:59:02.003Z</time></trkpt><trkpt lat="45.93050836820816" lon="9.12854882638739"><ele>239.0</ele><time>2026-04-25T09:59:04.003Z</time></trkpt><trkpt lat="45.93059798982541" lon="9.12853858144941"><ele>238.99999999999997</ele><time>2026-04-25T09:59:05.003Z</time></trkpt><trkpt lat="45.93067544145015" lon="9.128527659632503"><ele>238.99999999999997</ele><time>2026-04-25T09:59:06.003Z</time></trkpt><trkpt lat="45.93076722843251" lon="9.128512877756558"><ele>239.0</ele><time>2026-04-25T09:59:07.003Z</time></trkpt><trkpt lat="45.93086204812296" lon="9.128488409825462"><ele>239.0</ele><time>2026-04-25T09:59:08.003Z</time></trkpt><trkpt lat="45.93096576785845" lon="9.128451680320198"><ele>236.16666666666669</ele><time>2026-04-25T09:59:09.003Z</time></trkpt><trkpt lat="45.93105582437114" lon="9.128435425863053"><ele>233.33333333333334</ele><time>2026-04-25T09:59:10.003Z</time></trkpt><trkpt lat="45.931140043181486" lon="9.128412144362109"><ele>230.5</ele><time>2026-04-25T09:59:11.003Z</time></trkpt><trkpt lat="45.931214517893885" lon="9.128388680656396"><ele>227.66666666666669</ele><time>2026-04-25T09:59:12.003Z</time></trkpt><trkpt lat="45.93127933364613" lon="9.12837362045702"><ele>224.83333333333334</ele><time>2026-04-25T09:59:13.003Z</time></trkpt><trkpt lat="45.93135234720115" lon="9.128355920419986"><ele>222.0</ele><time>2026-04-25T09:59:14.003Z</time></trkpt><trkpt lat="45.93144569131916" lon="9.128325918913404"><ele>222.0</ele><time>2026-04-25T09:59:15.003Z</time></trkpt><trkpt lat="45.93152019676121" lon="9.128330658193752"><ele>222.0</ele><time>2026-04-25T09:59:16.001Z</time></trkpt><trkpt lat="45.93162529940855" lon="9.12831707022876"><ele>222.0</ele><time>2026-04-25T09:59:18.001Z</time></trkpt><trkpt lat="45.93170458617332" lon="9.128291278972483"><ele>222.0</ele><time>2026-04-25T09:59:20.001Z</time></trkpt><trkpt lat="45.93179788272824" lon="9.128268036436696"><ele>222.0</ele><time>2026-04-25T09:59:22.001Z</time></trkpt><trkpt lat="45.931898654620156" lon="9.128253301066486"><ele>222.39999999999998</ele><time>2026-04-25T09:59:24.001Z</time></trkpt><trkpt lat="45.93200380127327" lon="9.12826029501263"><ele>222.79999999999998</ele><time>2026-04-25T09:59:26.001Z</time></trkpt><trkpt lat="45.93209720227522" lon="9.12828218798944"><ele>223.2</ele><time>2026-04-25T09:59:28Z</time></trkpt><trkpt lat="45.93217834646449" lon="9.128311610472618"><ele>223.6</ele><time>2026-04-25T09:59:30Z</time></trkpt><trkpt lat="45.932252706618776" lon="9.128329977089463"><ele>224.0</ele><time>2026-04-25T09:59:32Z</time></trkpt><trkpt lat="45.93234434387074" lon="9.128380366046596"><ele>224.00000000000003</ele><time>2026-04-25T09:59:35Z</time></trkpt><trkpt lat="45.93241557674337" lon="9.128404839939707"><ele>224.0</ele><time>2026-04-25T09:59:37Z</time></trkpt><trkpt lat="45.93251049717322" lon="9.128432670779361"><ele>224.0</ele><time>2026-04-25T09:59:39Z</time></trkpt><trkpt lat="45.93257534620924" lon="9.128449523032192"><ele>224.0</ele><time>2026-04-25T09:59:40Z</time></trkpt><trkpt lat="45.93269122069882" lon="9.128479591936527"><ele>224.00000000000003</ele><time>2026-04-25T09:59:42Z</time></trkpt><trkpt lat="45.932756709559776" lon="9.12848984887384"><ele>224.0</ele><time>2026-04-25T09:59:43Z</time></trkpt><trkpt lat="45.93282350109973" lon="9.128508759397205"><ele>224.2</ele><time>2026-04-25T09:59:44Z</time></trkpt><trkpt lat="45.932932923533436" lon="9.12854579979816"><ele>224.39999999999998</ele><time>2026-04-25T09:59:46Z</time></trkpt><trkpt lat="45.9330491820879" lon="9.12856676263318"><ele>224.6</ele><time>2026-04-25T09:59:48.001Z</time></trkpt><trkpt lat="45.93312240063451" lon="9.128559712159952"><ele>224.8</ele><time>2026-04-25T09:59:49.001Z</time></trkpt><trkpt lat="45.93321198560476" lon="9.128571398985693"><ele>225.0</ele><time>2026-04-25T09:59:50.001Z</time></trkpt><trkpt lat="45.933296510938526" lon="9.128554392733202"><ele>225.0</ele><time>2026-04-25T09:59:51.001Z</time></trkpt><trkpt lat="45.93336855116533" lon="9.128534260661313"><ele>225.0</ele><time>2026-04-25T09:59:52.001Z</time></trkpt><trkpt lat="45.93343174963604" lon="9.128514956245434"><ele>225.0</ele><time>2026-04-25T09:59:53.001Z</time></trkpt><trkpt lat="45.933530485715146" lon="9.128485982756118"><ele>225.0</ele><time>2026-04-25T09:59:55.001Z</time></trkpt><trkpt lat="45.93361627059094" lon="9.128456651385902"><ele>225.0</ele><time>2026-04-25T09:59:57.001Z</time></trkpt><trkpt lat="45.93368902533134" lon="9.128433424410435"><ele>225.0</ele><time>2026-04-25T09:59:59.001Z</time></trkpt><trkpt lat="45.93376657521234" lon="9.128408639207832"><ele>224.0</ele><time>2026-04-25T10:00:01.001Z</time></trkpt><trkpt lat="45.9338522446309" lon="9.128385138730648"><ele>223.0</ele><time>2026-04-25T10:00:03.001Z</time></trkpt><trkpt lat="45.933940948098524" lon="9.128357953084079"><ele>222.0</ele><time>2026-04-25T10:00:05.001Z</time></trkpt><trkpt lat="45.934045267741446" lon="9.128326602450283"><ele>221.0</ele><time>2026-04-25T10:00:07.001Z</time></trkpt><trkpt lat="45.93410794232022" lon="9.128310233238595"><ele>220.0</ele><time>2026-04-25T10:00:08.001Z</time></trkpt><trkpt lat="45.934172310366755" lon="9.128289551114136"><ele>219.0</ele><time>2026-04-25T10:00:09.001Z</time></trkpt><trkpt lat="45.93425173020185" lon="9.128262166836508"><ele>217.6</ele><time>2026-04-25T10:00:10.001Z</time></trkpt><trkpt lat="45.93433720127546" lon="9.128233524616423"><ele>216.2</ele><time>2026-04-25T10:00:11.001Z</time></trkpt><trkpt lat="45.934428875516" lon="9.128205846070783"><ele>214.79999999999998</ele><time>2026-04-25T10:00:12.001Z</time></trkpt><trkpt lat="45.934527320718324" lon="9.128176925055286"><ele>213.39999999999998</ele><time>2026-04-25T10:00:13.001Z</time></trkpt><trkpt lat="45.934625916373115" lon="9.128150720997578"><ele>212.0</ele><time>2026-04-25T10:00:14.001Z</time></trkpt><trkpt lat="45.934711261233204" lon="9.128151134287142"><ele>221.28571428571428</ele><time>2026-04-25T10:00:15.001Z</time></trkpt><trkpt lat="45.93478547711414" lon="9.128152148178833"><ele>230.57142857142856</ele><time>2026-04-25T10:00:16.001Z</time></trkpt><trkpt lat="45.93485512576529" lon="9.128148958314156"><ele>239.85714285714283</ele><time>2026-04-25T10:00:17.001Z</time></trkpt><trkpt lat="45.934930413181846" lon="9.128141271691124"><ele>249.14285714285714</ele><time>2026-04-25T10:00:18.001Z</time></trkpt><trkpt lat="45.935001684683435" lon="9.12814551228418"><ele>258.4285714285714</ele><time>2026-04-25T10:00:19.001Z</time></trkpt><trkpt lat="45.93507855509097" lon="9.12814974985793"><ele>267.7142857142857</ele><time>2026-04-25T10:00:20.001Z</time></trkpt><trkpt lat="45.93515903399851" lon="9.128158564909077"><ele>277.0</ele><time>2026-04-25T10:00:21.001Z</time></trkpt><trkpt lat="45.93523938607745" lon="9.128172998363315"><ele>278.66666666666663</ele><time>2026-04-25T10:00:22.001Z</time></trkpt><trkpt lat="45.93531627538039" lon="9.128188152628168"><ele>280.3333333333333</ele><time>2026-04-25T10:00:23.001Z</time></trkpt><trkpt lat="45.93539541751966" lon="9.128208315243972"><ele>282.0</ele><time>2026-04-25T10:00:24.001Z</time></trkpt><trkpt lat="45.93547257394757" lon="9.128217253807279"><ele>283.6666666666667</ele><time>2026-04-25T10:00:25.001Z</time></trkpt><trkpt lat="45.9355434468134" lon="9.128230952595404"><ele>285.33333333333337</ele><time>2026-04-25T10:00:26.001Z</time></trkpt><trkpt lat="45.93561241755054" lon="9.128244983535927"><ele>287.0</ele><time>2026-04-25T10:00:27.001Z</time></trkpt><trkpt lat="45.935688966192444" lon="9.128259879902396"><ele>276.6</ele><time>2026-04-25T10:00:28.001Z</time></trkpt><trkpt lat="45.93577373040834" lon="9.12827788388268"><ele>266.2</ele><time>2026-04-25T10:00:29.001Z</time></trkpt><trkpt lat="45.93587840992329" lon="9.128296273045196"><ele>255.8</ele><time>2026-04-25T10:00:30.001Z</time></trkpt><trkpt lat="45.93598878146988" lon="9.128313899129775"><ele>245.4</ele><time>2026-04-25T10:00:31.001Z</time></trkpt><trkpt lat="45.93609048757637" lon="9.128329591902624"><ele>235.0</ele><time>2026-04-25T10:00:32.001Z</time></trkpt><trkpt lat="45.936193686646945" lon="9.128361626364217"><ele>234.99999999999997</ele><time>2026-04-25T10:00:33.001Z</time></trkpt><trkpt lat="45.93629295671333" lon="9.128375627531168"><ele>235.0</ele><time>2026-04-25T10:00:34.001Z</time></trkpt><trkpt lat="45.93637790632029" lon="9.128389534716698"><ele>235.0</ele><time>2026-04-25T10:00:35.001Z</time></trkpt><trkpt lat="45.936455663999396" lon="9.12840244659698"><ele>235.0</ele><time>2026-04-25T10:00:36.001Z</time></trkpt><trkpt lat="45.93653072132175" lon="9.128415849038886"><ele>234.99999999999997</ele><time>2026-04-25T10:00:37.001Z</time></trkpt><trkpt lat="45.93660345976703" lon="9.128423513944059"><ele>235.0</ele><time>2026-04-25T10:00:38.002Z</time></trkpt><trkpt lat="45.93666664997774" lon="9.128422673728148"><ele>231.6</ele><time>2026-04-25T10:00:39.002Z</time></trkpt><trkpt lat="45.93676405381564" lon="9.128417634226764"><ele>228.2</ele><time>2026-04-25T10:00:41.002Z</time></trkpt><trkpt lat="45.93689519518993" lon="9.12838736590372"><ele>224.8</ele><time>2026-04-25T10:00:43.002Z</time></trkpt><trkpt lat="45.93697774573106" lon="9.128367338118013"><ele>221.4</ele><time>2026-04-25T10:00:44.002Z</time></trkpt><trkpt lat="45.937071552470755" lon="9.128335379748332"><ele>218.0</ele><time>2026-04-25T10:00:45.002Z</time></trkpt><trkpt lat="45.93716894749635" lon="9.128296580528373"><ele>218.00000000000003</ele><time>2026-04-25T10:00:46.002Z</time></trkpt><trkpt lat="45.93725762238617" lon="9.128276257295216"><ele>218.0</ele><time>2026-04-25T10:00:47.002Z</time></trkpt><trkpt lat="45.93734633358709" lon="9.128242034471285"><ele>218.0</ele><time>2026-04-25T10:00:48.002Z</time></trkpt><trkpt lat="45.93743274000779" lon="9.128210677778357"><ele>218.0</ele><time>2026-04-25T10:00:49.002Z</time></trkpt><trkpt lat="45.937517535439866" lon="9.12817842129097"><ele>218.00000000000003</ele><time>2026-04-25T10:00:50.002Z</time></trkpt><trkpt lat="45.93759683714386" lon="9.128149022216014"><ele>218.0</ele><time>2026-04-25T10:00:51.002Z</time></trkpt><trkpt lat="45.937671340829134" lon="9.128127807683763"><ele>223.50000000000003</ele><time>2026-04-25T10:00:52.002Z</time></trkpt><trkpt lat="45.9377514284094" lon="9.128108200076428"><ele>229.0</ele><time>2026-04-25T10:00:53.002Z</time></trkpt><trkpt lat="45.93783858534628" lon="9.128082301751219"><ele>234.5</ele><time>2026-04-25T10:00:54.002Z</time></trkpt><trkpt lat="45.937920891173015" lon="9.128079605936598"><ele>240.0</ele><time>2026-04-25T10:00:55.002Z</time></trkpt><trkpt lat="45.937995226935364" lon="9.128008320677896"><ele>245.50000000000003</ele><time>2026-04-25T10:00:56.002Z</time></trkpt><trkpt lat="45.9380718057366" lon="9.1279582508494"><ele>251.0</ele><time>2026-04-25T10:00:57.002Z</time></trkpt><trkpt lat="45.9381518016389" lon="9.127913817078616"><ele>251.0</ele><time>2026-04-25T10:00:58.002Z</time></trkpt><trkpt lat="45.93824413319928" lon="9.127909547017014"><ele>251.0</ele><time>2026-04-25T10:00:59.002Z</time></trkpt><trkpt lat="45.93835766736059" lon="9.127921667389824"><ele>251.0</ele><time>2026-04-25T10:01:00.002Z</time></trkpt><trkpt lat="45.9384858794724" lon="9.127878560737514"><ele>251.0</ele><time>2026-04-25T10:01:01.002Z</time></trkpt><trkpt lat="45.93862575392624" lon="9.127876132780564"><ele>252.75</ele><time>2026-04-25T10:01:02.002Z</time></trkpt><trkpt lat="45.938764988542836" lon="9.127863112093742"><ele>254.5</ele><time>2026-04-25T10:01:03.002Z</time></trkpt><trkpt lat="45.93889376258103" lon="9.12784973984384"><ele>256.25</ele><time>2026-04-25T10:01:04.002Z</time></trkpt><trkpt lat="45.93901984583234" lon="9.127823501936296"><ele>258.0</ele><time>2026-04-25T10:01:05.002Z</time></trkpt><trkpt lat="45.93914240737909" lon="9.127792369913747"><ele>256.2</ele><time>2026-04-25T10:01:06.002Z</time></trkpt><trkpt lat="45.939253006485345" lon="9.127739474249717"><ele>254.4</ele><time>2026-04-25T10:01:07.002Z</time></trkpt><trkpt lat="45.9393445071332" lon="9.127684093497631"><ele>252.59999999999997</ele><time>2026-04-25T10:01:08.002Z</time></trkpt><trkpt lat="45.93943221723824" lon="9.127655019326994"><ele>250.79999999999998</ele><time>2026-04-25T10:01:09.002Z</time></trkpt><trkpt lat="45.939526879659724" lon="9.12765724476487"><ele>249.0</ele><time>2026-04-25T10:01:10.002Z</time></trkpt><trkpt lat="45.939630552246136" lon="9.127689683312479"><ele>249.0</ele><time>2026-04-25T10:01:11.002Z</time></trkpt><trkpt lat="45.9397294375332" lon="9.127746056735532"><ele>248.99999999999997</ele><time>2026-04-25T10:01:12.002Z</time></trkpt><trkpt lat="45.93983423935875" lon="9.12781509445162"><ele>248.99999999999997</ele><time>2026-04-25T10:01:13.002Z</time></trkpt><trkpt lat="45.93994401959754" lon="9.12786476815178"><ele>249.0</ele><time>2026-04-25T10:01:14.002Z</time></trkpt><trkpt lat="45.940029122728994" lon="9.127893381988391"><ele>249.0</ele><time>2026-04-25T10:01:15.002Z</time></trkpt><trkpt lat="45.9401299902765" lon="9.127884899117019"><ele>247.75</ele><time>2026-04-25T10:01:16.002Z</time></trkpt><trkpt lat="45.940242289430394" lon="9.127845186257693"><ele>246.5</ele><time>2026-04-25T10:01:17.002Z</time></trkpt><trkpt lat="45.94038107488634" lon="9.127825789044532"><ele>245.25</ele><time>2026-04-25T10:01:18.002Z</time></trkpt><trkpt lat="45.94051972607335" lon="9.127763963131454"><ele>244.0</ele><time>2026-04-25T10:01:19.002Z</time></trkpt><trkpt lat="45.94065930897934" lon="9.127733037472344"><ele>244.0</ele><time>2026-04-25T10:01:20.002Z</time></trkpt><trkpt lat="45.94078495547713" lon="9.127706437294723"><ele>244.0</ele><time>2026-04-25T10:01:21.003Z</time></trkpt><trkpt lat="45.94090775442172" lon="9.127680545952934"><ele>244.0</ele><time>2026-04-25T10:01:22Z</time></trkpt><trkpt lat="45.94102255230436" lon="9.127650142045875"><ele>244.0</ele><time>2026-04-25T10:01:23Z</time></trkpt><trkpt lat="45.94111402241103" lon="9.127623801261565"><ele>242.0</ele><time>2026-04-25T10:01:24Z</time></trkpt><trkpt lat="45.941189582153996" lon="9.127598088536022"><ele>239.99999999999997</ele><time>2026-04-25T10:01:25Z</time></trkpt><trkpt lat="45.94126938003334" lon="9.127535706132534"><ele>237.99999999999997</ele><time>2026-04-25T10:01:27Z</time></trkpt><trkpt lat="45.94133310945394" lon="9.127452847489993"><ele>236.0</ele><time>2026-04-25T10:02:16.001Z</time></trkpt><trkpt lat="45.941424181036695" lon="9.12732835735635"><ele>234.0</ele><time>2026-04-25T10:02:18.001Z</time></trkpt><trkpt lat="45.941501556377276" lon="9.127288315584325"><ele>236.6</ele><time>2026-04-25T10:02:19.001Z</time></trkpt><trkpt lat="45.94159142458221" lon="9.127255467038443"><ele>239.2</ele><time>2026-04-25T10:02:20.001Z</time></trkpt><trkpt lat="45.94168676363788" lon="9.12721367161429"><ele>241.79999999999998</ele><time>2026-04-25T10:02:21.001Z</time></trkpt><trkpt lat="45.94178312928965" lon="9.127158728251493"><ele>244.39999999999998</ele><time>2026-04-25T10:02:22.001Z</time></trkpt><trkpt lat="45.941876309706316" lon="9.127108907772218"><ele>247.0</ele><time>2026-04-25T10:02:23.001Z</time></trkpt><trkpt lat="45.941991023398984" lon="9.127102425202933"><ele>247.0</ele><time>2026-04-25T10:02:24.001Z</time></trkpt><trkpt lat="45.942100158618935" lon="9.127109517134866"><ele>247.0</ele><time>2026-04-25T10:02:25.001Z</time></trkpt><trkpt lat="45.94220948713503" lon="9.12708651527501"><ele>247.0</ele><time>2026-04-25T10:02:26.001Z</time></trkpt><trkpt lat="45.94231625639938" lon="9.1270465198127"><ele>247.0</ele><time>2026-04-25T10:02:27.001Z</time></trkpt><trkpt lat="45.94241846195739" lon="9.12700292484319"><ele>247.0</ele><time>2026-04-25T10:02:28.001Z</time></trkpt><trkpt lat="45.942508959639085" lon="9.126990143510223"><ele>246.99999999999997</ele><time>2026-04-25T10:02:29.001Z</time></trkpt><trkpt lat="45.9425721576122" lon="9.126982705591502"><ele>247.0</ele><time>2026-04-25T10:02:30.001Z</time></trkpt><trkpt lat="45.94260681408507" lon="9.126864000158573"><ele>247.0</ele><time>2026-04-25T10:02:32.001Z</time></trkpt><trkpt lat="45.942517144958984" lon="9.126803143220984"><ele>247.0</ele><time>2026-04-25T10:02:34.001Z</time></trkpt><trkpt lat="45.94245118401132" lon="9.12685021594723"><ele>246.99999999999997</ele><time>2026-04-25T10:02:35.001Z</time></trkpt><trkpt lat="45.94236899201186" lon="9.126913729714477"><ele>247.0</ele><time>2026-04-25T10:02:36.001Z</time></trkpt><trkpt lat="45.94226485001078" lon="9.126917006212064"><ele>247.0</ele><time>2026-04-25T10:02:37.001Z</time></trkpt><trkpt lat="45.94215304590831" lon="9.126950726692305"><ele>247.0</ele><time>2026-04-25T10:02:38.001Z</time></trkpt><trkpt lat="45.94205746378647" lon="9.12695283337799"><ele>247.0</ele><time>2026-04-25T10:02:39.001Z</time></trkpt><trkpt lat="45.94195721534562" lon="9.12692045451281"><ele>247.0</ele><time>2026-04-25T10:02:40.001Z</time></trkpt><trkpt lat="45.94184462332404" lon="9.126914035161192"><ele>247.0</ele><time>2026-04-25T10:02:41.001Z</time></trkpt><trkpt lat="45.94173014392446" lon="9.12688222724869"><ele>249.39999999999998</ele><time>2026-04-25T10:02:42.001Z</time></trkpt><trkpt lat="45.94161749804395" lon="9.12686768888161"><ele>251.79999999999998</ele><time>2026-04-25T10:02:43.002Z</time></trkpt><trkpt lat="45.941504998082145" lon="9.126888138166091"><ele>254.2</ele><time>2026-04-25T10:02:44.002Z</time></trkpt><trkpt lat="45.9414018260556" lon="9.126932299368109"><ele>256.59999999999997</ele><time>2026-04-25T10:02:45.002Z</time></trkpt><trkpt lat="45.94130288882143" lon="9.12700322561906"><ele>259.0</ele><time>2026-04-25T10:02:46.002Z</time></trkpt><trkpt lat="45.94120807622776" lon="9.127077970004239"><ele>259.0</ele><time>2026-04-25T10:02:47.002Z</time></trkpt><trkpt lat="45.94112921196943" lon="9.127138951953528"><ele>259.0</ele><time>2026-04-25T10:02:48.002Z</time></trkpt><trkpt lat="45.94104893277304" lon="9.1271889045932"><ele>259.0</ele><time>2026-04-25T10:02:49.002Z</time></trkpt><trkpt lat="45.940962480956074" lon="9.12721797044318"><ele>259.0</ele><time>2026-04-25T10:02:50.002Z</time></trkpt><trkpt lat="45.94086337372435" lon="9.127218940796372"><ele>259.0</ele><time>2026-04-25T10:02:51.002Z</time></trkpt><trkpt lat="45.94074716974466" lon="9.127213631868267"><ele>262.75</ele><time>2026-04-25T10:02:52.002Z</time></trkpt><trkpt lat="45.94061867770505" lon="9.127201759414193"><ele>266.5</ele><time>2026-04-25T10:02:53.002Z</time></trkpt><trkpt lat="45.940484273771965" lon="9.127184547443994"><ele>270.25</ele><time>2026-04-25T10:02:54.002Z</time></trkpt><trkpt lat="45.94034072375806" lon="9.127175131303327"><ele>274.0</ele><time>2026-04-25T10:02:55.002Z</time></trkpt><trkpt lat="45.94019112328773" lon="9.127172551415565"><ele>274.0</ele><time>2026-04-25T10:02:56.002Z</time></trkpt><trkpt lat="45.94005169083672" lon="9.127168063713142"><ele>274.0</ele><time>2026-04-25T10:02:57.002Z</time></trkpt><trkpt lat="45.93991881948547" lon="9.127152170243031"><ele>274.0</ele><time>2026-04-25T10:02:58.002Z</time></trkpt><trkpt lat="45.93977795928149" lon="9.127169413991139"><ele>274.0</ele><time>2026-04-25T10:02:59.002Z</time></trkpt><trkpt lat="45.93963083880915" lon="9.127184553664138"><ele>279.25</ele><time>2026-04-25T10:03:00.002Z</time></trkpt><trkpt lat="45.93948324676334" lon="9.127191597486386"><ele>284.5</ele><time>2026-04-25T10:03:01.002Z</time></trkpt><trkpt lat="45.939331414511365" lon="9.127210024911506"><ele>289.75</ele><time>2026-04-25T10:03:02.002Z</time></trkpt><trkpt lat="45.93918671085347" lon="9.127212569088025"><ele>295.0</ele><time>2026-04-25T10:03:03.002Z</time></trkpt><trkpt lat="45.93904783422339" lon="9.127218839481733"><ele>299.4</ele><time>2026-04-25T10:03:04.002Z</time></trkpt><trkpt lat="45.938926730328845" lon="9.127218713948315"><ele>303.8</ele><time>2026-04-25T10:03:05.002Z</time></trkpt><trkpt lat="45.938827977728955" lon="9.12717588987576"><ele>308.2</ele><time>2026-04-25T10:03:06.002Z</time></trkpt><trkpt lat="45.938742653687825" lon="9.127148262290229"><ele>312.6</ele><time>2026-04-25T10:03:07.002Z</time></trkpt><trkpt lat="45.938669221651615" lon="9.127088355062853"><ele>317.0</ele><time>2026-04-25T10:03:09.002Z</time></trkpt><trkpt lat="45.93874005944485" lon="9.127088218170282"><ele>317.0</ele><time>2026-04-25T10:03:12.002Z</time></trkpt><trkpt lat="45.93881408505013" lon="9.127121713379285"><ele>317.0</ele><time>2026-04-25T10:03:13.002Z</time></trkpt><trkpt lat="45.93890097183966" lon="9.127124054007421"><ele>317.0</ele><time>2026-04-25T10:03:14.002Z</time></trkpt><trkpt lat="45.939012016217355" lon="9.127127652899706"><ele>317.0</ele><time>2026-04-25T10:03:15.002Z</time></trkpt><trkpt lat="45.939117183678356" lon="9.127109077169191"><ele>317.0</ele><time>2026-04-25T10:03:16.002Z</time></trkpt><trkpt lat="45.93924511470346" lon="9.127058789656084"><ele>311.5</ele><time>2026-04-25T10:03:17.002Z</time></trkpt><trkpt lat="45.93936064900476" lon="9.127024770210062"><ele>306.0</ele><time>2026-04-25T10:03:18.002Z</time></trkpt><trkpt lat="45.93946750456033" lon="9.126986029218386"><ele>300.5</ele><time>2026-04-25T10:03:19.002Z</time></trkpt><trkpt lat="45.9395872293414" lon="9.126947115336908"><ele>295.0</ele><time>2026-04-25T10:03:20.002Z</time></trkpt><trkpt lat="45.939712104743656" lon="9.126914691468482"><ele>295.0</ele><time>2026-04-25T10:03:21.002Z</time></trkpt><trkpt lat="45.939831982762044" lon="9.126885509598605"><ele>295.0</ele><time>2026-04-25T10:03:22.002Z</time></trkpt><trkpt lat="45.939957500858156" lon="9.126852779968852"><ele>295.0</ele><time>2026-04-25T10:03:23.002Z</time></trkpt><trkpt lat="45.94007623921002" lon="9.126823223853519"><ele>295.0</ele><time>2026-04-25T10:03:24.002Z</time></trkpt><trkpt lat="45.94019449859849" lon="9.126811325640185"><ele>296.25</ele><time>2026-04-25T10:03:25.003Z</time></trkpt><trkpt lat="45.94031365858101" lon="9.126770450880038"><ele>297.5</ele><time>2026-04-25T10:03:26.003Z</time></trkpt><trkpt lat="45.940431081709626" lon="9.126701999865093"><ele>298.75</ele><time>2026-04-25T10:03:27.003Z</time></trkpt><trkpt lat="45.940541022087764" lon="9.126608060702727"><ele>300.0</ele><time>2026-04-25T10:03:27.999Z</time></trkpt><trkpt lat="45.94064078739587" lon="9.126513704369428"><ele>300.0</ele><time>2026-04-25T10:03:28.999Z</time></trkpt><trkpt lat="45.9407343917836" lon="9.126398035913589"><ele>300.0</ele><time>2026-04-25T10:03:29.999Z</time></trkpt><trkpt lat="45.94080314223737" lon="9.126233003798259"><ele>300.0</ele><time>2026-04-25T10:03:30.999Z</time></trkpt><trkpt lat="45.94086985416597" lon="9.126052832151213"><ele>300.0</ele><time>2026-04-25T10:03:31.999Z</time></trkpt><trkpt lat="45.94092619658628" lon="9.125870038029746"><ele>296.25</ele><time>2026-04-25T10:03:32.999Z</time></trkpt><trkpt lat="45.940996342189415" lon="9.125709203876434"><ele>292.5</ele><time>2026-04-25T10:03:33.999Z</time></trkpt><trkpt lat="45.94103477868135" lon="9.125550331532951"><ele>288.75</ele><time>2026-04-25T10:03:34.999Z</time></trkpt><trkpt lat="45.941089578539305" lon="9.125405665129442"><ele>285.0</ele><time>2026-04-25T10:03:35.999Z</time></trkpt><trkpt lat="45.94114329466674" lon="9.125266388874719"><ele>285.0</ele><time>2026-04-25T10:03:36.999Z</time></trkpt><trkpt lat="45.94119262472707" lon="9.125121814850525"><ele>285.0</ele><time>2026-04-25T10:03:37.999Z</time></trkpt><trkpt lat="45.94124118889572" lon="9.124968414533052"><ele>285.0</ele><time>2026-04-25T10:03:38.999Z</time></trkpt><trkpt lat="45.94128625943534" lon="9.124821760651656"><ele>285.0</ele><time>2026-04-25T10:03:39.999Z</time></trkpt><trkpt lat="45.9413274071515" lon="9.124689670140985"><ele>285.0</ele><time>2026-04-25T10:03:40.999Z</time></trkpt><trkpt lat="45.94135311966603" lon="9.124550634550028"><ele>287.5</ele><time>2026-04-25T10:03:41.999Z</time></trkpt><trkpt lat="45.941393389447896" lon="9.124401858660828"><ele>290.0</ele><time>2026-04-25T10:03:42.999Z</time></trkpt><trkpt lat="45.941420010129065" lon="9.124233299117577"><ele>292.5</ele><time>2026-04-25T10:03:43.999Z</time></trkpt><trkpt lat="45.94144742605175" lon="9.124059704083258"><ele>295.0</ele><time>2026-04-25T10:03:44.999Z</time></trkpt><trkpt lat="45.941466494913655" lon="9.123880680323023"><ele>297.25</ele><time>2026-04-25T10:03:45.999Z</time></trkpt><trkpt lat="45.94150349122007" lon="9.123703780892964"><ele>299.5</ele><time>2026-04-25T10:03:46.999Z</time></trkpt><trkpt lat="45.94153718639363" lon="9.123527512216047"><ele>301.75</ele><time>2026-04-25T10:03:47.999Z</time></trkpt><trkpt lat="45.941572587848235" lon="9.123351551033716"><ele>304.0</ele><time>2026-04-25T10:03:49Z</time></trkpt><trkpt lat="45.94160744299097" lon="9.123186055507546"><ele>306.25</ele><time>2026-04-25T10:03:50Z</time></trkpt><trkpt lat="45.94164266761015" lon="9.123019302674512"><ele>308.5</ele><time>2026-04-25T10:03:51Z</time></trkpt><trkpt lat="45.94167736241751" lon="9.122818976905918"><ele>310.75</ele><time>2026-04-25T10:03:52Z</time></trkpt><trkpt lat="45.941734939336264" lon="9.122599390115672"><ele>313.0</ele><time>2026-04-25T10:03:53Z</time></trkpt><trkpt lat="45.94177798208382" lon="9.12236347246758"><ele>308.0</ele><time>2026-04-25T10:03:54Z</time></trkpt><trkpt lat="45.9418251637065" lon="9.122158345596974"><ele>303.0</ele><time>2026-04-25T10:03:55Z</time></trkpt><trkpt lat="45.94187780810092" lon="9.121982117285686"><ele>298.0</ele><time>2026-04-25T10:03:56Z</time></trkpt><trkpt lat="45.94192451326823" lon="9.12183666188598"><ele>293.0</ele><time>2026-04-25T10:03:57Z</time></trkpt><trkpt lat="45.94196101816843" lon="9.121711533533558"><ele>293.0</ele><time>2026-04-25T10:03:58Z</time></trkpt><trkpt lat="45.941982451859715" lon="9.12161955416018"><ele>293.0</ele><time>2026-04-25T10:03:59Z</time></trkpt><trkpt lat="45.94193688706359" lon="9.12149575900383"><ele>293.0</ele><time>2026-04-25T10:04:01Z</time></trkpt><trkpt lat="45.941830115796826" lon="9.121553534365203"><ele>293.0</ele><time>2026-04-25T10:04:03Z</time></trkpt><trkpt lat="45.941822601335" lon="9.121684778580287"><ele>293.0</ele><time>2026-04-25T10:04:04Z</time></trkpt><trkpt lat="45.94180483328539" lon="9.121810952109694"><ele>293.0</ele><time>2026-04-25T10:04:05Z</time></trkpt><trkpt lat="45.94175379730948" lon="9.121943568013672"><ele>293.0</ele><time>2026-04-25T10:04:06Z</time></trkpt><trkpt lat="45.94167211508822" lon="9.122069295493128"><ele>293.0</ele><time>2026-04-25T10:04:07Z</time></trkpt><trkpt lat="45.941589197514695" lon="9.122217157629176"><ele>293.0</ele><time>2026-04-25T10:04:08Z</time></trkpt><trkpt lat="45.94150981778792" lon="9.122359643405442"><ele>298.0</ele><time>2026-04-25T10:04:09Z</time></trkpt><trkpt lat="45.94145470749177" lon="9.122506528885346"><ele>303.0</ele><time>2026-04-25T10:04:10Z</time></trkpt><trkpt lat="45.94137437765232" lon="9.122642766218332"><ele>308.0</ele><time>2026-04-25T10:04:11Z</time></trkpt><trkpt lat="45.941321768340664" lon="9.122817356608117"><ele>313.0</ele><time>2026-04-25T10:04:12Z</time></trkpt><trkpt lat="45.941244675458215" lon="9.122957532716626"><ele>313.0</ele><time>2026-04-25T10:04:13Z</time></trkpt><trkpt lat="45.94118587268463" lon="9.123109725081939"><ele>313.0</ele><time>2026-04-25T10:04:14Z</time></trkpt><trkpt lat="45.941160503520614" lon="9.12327622351383"><ele>313.0</ele><time>2026-04-25T10:04:15Z</time></trkpt><trkpt lat="45.941137716241435" lon="9.12342185459147"><ele>313.0</ele><time>2026-04-25T10:04:16Z</time></trkpt><trkpt lat="45.94111190681974" lon="9.123549902883704"><ele>313.0</ele><time>2026-04-25T10:04:17.001Z</time></trkpt><trkpt lat="45.94107305825016" lon="9.123685115706701"><ele>310.75</ele><time>2026-04-25T10:04:18.001Z</time></trkpt><trkpt lat="45.94101753517434" lon="9.12382284800101"><ele>308.5</ele><time>2026-04-25T10:04:19.001Z</time></trkpt><trkpt lat="45.940955511199185" lon="9.12395775390339"><ele>306.25</ele><time>2026-04-25T10:04:20.001Z</time></trkpt><trkpt lat="45.94088994938505" lon="9.124098519033087"><ele>304.0</ele><time>2026-04-25T10:04:21.001Z</time></trkpt><trkpt lat="45.94082448300137" lon="9.124240529540778"><ele>307.0</ele><time>2026-04-25T10:04:22.001Z</time></trkpt><trkpt lat="45.9407553591388" lon="9.124384008193049"><ele>310.0</ele><time>2026-04-25T10:04:23.001Z</time></trkpt><trkpt lat="45.940688686180096" lon="9.124525038445826"><ele>313.0</ele><time>2026-04-25T10:04:24.001Z</time></trkpt><trkpt lat="45.94063505815836" lon="9.124655815997725"><ele>316.0</ele><time>2026-04-25T10:04:25.001Z</time></trkpt><trkpt lat="45.94058348654035" lon="9.124782632699512"><ele>319.0</ele><time>2026-04-25T10:04:26.001Z</time></trkpt><trkpt lat="45.940543146355395" lon="9.12490139843333"><ele>319.0</ele><time>2026-04-25T10:04:27.001Z</time></trkpt><trkpt lat="45.940516723195906" lon="9.125010048235112"><ele>319.0</ele><time>2026-04-25T10:04:28.001Z</time></trkpt><trkpt lat="45.940499732922675" lon="9.1251183983662"><ele>319.0</ele><time>2026-04-25T10:04:29.001Z</time></trkpt><trkpt lat="45.94049003592599" lon="9.125215843959174"><ele>319.0</ele><time>2026-04-25T10:04:30.001Z</time></trkpt><trkpt lat="45.94047272253099" lon="9.125347220662322"><ele>319.0</ele><time>2026-04-25T10:04:32.001Z</time></trkpt><trkpt lat="45.94040554702244" lon="9.12536720771669"><ele>319.0</ele><time>2026-04-25T10:04:34.001Z</time></trkpt><trkpt lat="45.940442979439204" lon="9.125127567043663"><ele>319.0</ele><time>2026-04-25T10:04:38.001Z</time></trkpt><trkpt lat="45.940462840022185" lon="9.125004171148358"><ele>319.0</ele><time>2026-04-25T10:04:39.001Z</time></trkpt><trkpt lat="45.94048382581683" lon="9.124896724814734"><ele>319.0</ele><time>2026-04-25T10:04:40.001Z</time></trkpt><trkpt lat="45.940515312618544" lon="9.124767097432809"><ele>319.0</ele><time>2026-04-25T10:04:41.001Z</time></trkpt><trkpt lat="45.940543156428134" lon="9.124624613590345"><ele>319.0</ele><time>2026-04-25T10:04:42.001Z</time></trkpt><trkpt lat="45.9405768118494" lon="9.124476868838576"><ele>322.6</ele><time>2026-04-25T10:04:43.001Z</time></trkpt><trkpt lat="45.94061463791688" lon="9.124327907944227"><ele>326.2</ele><time>2026-04-25T10:04:44.001Z</time></trkpt><trkpt lat="45.9406618529581" lon="9.124170991480753"><ele>329.8</ele><time>2026-04-25T10:04:45.001Z</time></trkpt><trkpt lat="45.940705420638956" lon="9.124030145322935"><ele>333.40000000000003</ele><time>2026-04-25T10:04:46.001Z</time></trkpt><trkpt lat="45.94074687589696" lon="9.123897898246948"><ele>337.0</ele><time>2026-04-25T10:04:47.001Z</time></trkpt><trkpt lat="45.94079297910515" lon="9.12376275853369"><ele>339.20000000000005</ele><time>2026-04-25T10:04:48.001Z</time></trkpt><trkpt lat="45.94083266914705" lon="9.12362168541124"><ele>341.4</ele><time>2026-04-25T10:04:49.001Z</time></trkpt><trkpt lat="45.9408672812186" lon="9.123476366696963"><ele>343.6</ele><time>2026-04-25T10:04:50.001Z</time></trkpt><trkpt lat="45.94089492896505" lon="9.12332947770149"><ele>345.79999999999995</ele><time>2026-04-25T10:04:51.001Z</time></trkpt><trkpt lat="45.94091902525131" lon="9.123179341317675"><ele>348.0</ele><time>2026-04-25T10:04:52.001Z</time></trkpt><trkpt lat="45.940931047495305" lon="9.123013656174738"><ele>342.0</ele><time>2026-04-25T10:04:53.002Z</time></trkpt><trkpt lat="45.9409324391561" lon="9.1228367025682"><ele>336.0</ele><time>2026-04-25T10:04:54.002Z</time></trkpt><trkpt lat="45.94092278812719" lon="9.122651752490395"><ele>330.0</ele><time>2026-04-25T10:04:55.002Z</time></trkpt><trkpt lat="45.94093774546863" lon="9.122465675779967"><ele>324.0</ele><time>2026-04-25T10:04:56.002Z</time></trkpt><trkpt lat="45.94095676461088" lon="9.122279456680483"><ele>324.0</ele><time>2026-04-25T10:04:57.002Z</time></trkpt><trkpt lat="45.94098775354689" lon="9.122095738041208"><ele>324.0</ele><time>2026-04-25T10:04:58.002Z</time></trkpt><trkpt lat="45.94102339734561" lon="9.121949686267826"><ele>324.0</ele><time>2026-04-25T10:04:59.002Z</time></trkpt><trkpt lat="45.941057457681936" lon="9.121793807103227"><ele>324.0</ele><time>2026-04-25T10:05:00.002Z</time></trkpt><trkpt lat="45.94108205784239" lon="9.121641103787601"><ele>324.5</ele><time>2026-04-25T10:05:01.002Z</time></trkpt><trkpt lat="45.94110244079922" lon="9.121484321042898"><ele>325.0</ele><time>2026-04-25T10:05:02.002Z</time></trkpt><trkpt lat="45.9411120465407" lon="9.121313140248072"><ele>325.5</ele><time>2026-04-25T10:05:03.002Z</time></trkpt><trkpt lat="45.941100769629486" lon="9.121135745133603"><ele>326.0</ele><time>2026-04-25T10:05:04.002Z</time></trkpt><trkpt lat="45.941079537169365" lon="9.120981216571613"><ele>326.0</ele><time>2026-04-25T10:05:05.002Z</time></trkpt><trkpt lat="45.94106636739908" lon="9.120843703240025"><ele>326.0</ele><time>2026-04-25T10:05:06.002Z</time></trkpt><trkpt lat="45.941047899203745" lon="9.120699724388176"><ele>326.0</ele><time>2026-04-25T10:05:07.002Z</time></trkpt><trkpt lat="45.94103483147426" lon="9.120551874158568"><ele>326.0</ele><time>2026-04-25T10:05:08.002Z</time></trkpt><trkpt lat="45.94104757285076" lon="9.120406965917093"><ele>326.0</ele><time>2026-04-25T10:05:09.002Z</time></trkpt><trkpt lat="45.94104379755257" lon="9.120271412806948"><ele>327.4</ele><time>2026-04-25T10:05:10.002Z</time></trkpt><trkpt lat="45.94104265001208" lon="9.120125498679746"><ele>328.8</ele><time>2026-04-25T10:05:11.002Z</time></trkpt><trkpt lat="45.94105012826936" lon="9.119979163263254"><ele>330.2</ele><time>2026-04-25T10:05:12.002Z</time></trkpt><trkpt lat="45.9410238883649" lon="9.119840145183018"><ele>331.59999999999997</ele><time>2026-04-25T10:05:13.002Z</time></trkpt><trkpt lat="45.94101718230039" lon="9.119696196592775"><ele>333.0</ele><time>2026-04-25T10:05:14.002Z</time></trkpt><trkpt lat="45.9409996155177" lon="9.119558508083102"><ele>334.4</ele><time>2026-04-25T10:05:15.002Z</time></trkpt><trkpt lat="45.94098136376303" lon="9.119417498594055"><ele>335.79999999999995</ele><time>2026-04-25T10:05:16.002Z</time></trkpt><trkpt lat="45.94098133641079" lon="9.119262862579253"><ele>337.2</ele><time>2026-04-25T10:05:17.002Z</time></trkpt><trkpt lat="45.94100601576814" lon="9.119111802823745"><ele>338.6</ele><time>2026-04-25T10:05:18.002Z</time></trkpt><trkpt lat="45.941011109708434" lon="9.118963275467037"><ele>340.0</ele><time>2026-04-25T10:05:19.002Z</time></trkpt><trkpt lat="45.941026375550685" lon="9.11882664341133"><ele>340.0</ele><time>2026-04-25T10:05:20.002Z</time></trkpt><trkpt lat="45.94104318362613" lon="9.118686872231512"><ele>340.0</ele><time>2026-04-25T10:05:21.002Z</time></trkpt><trkpt lat="45.94105432336238" lon="9.118547538837664"><ele>340.0</ele><time>2026-04-25T10:05:22.002Z</time></trkpt><trkpt lat="45.941050529655854" lon="9.118393838632699"><ele>340.0</ele><time>2026-04-25T10:05:23.002Z</time></trkpt><trkpt lat="45.941061075881024" lon="9.118243942333477"><ele>340.0</ele><time>2026-04-25T10:05:24.002Z</time></trkpt><trkpt lat="45.94103101454687" lon="9.11807555328752"><ele>339.75</ele><time>2026-04-25T10:05:25.002Z</time></trkpt><trkpt lat="45.94100642455202" lon="9.117903971458048"><ele>339.5</ele><time>2026-04-25T10:05:26.002Z</time></trkpt><trkpt lat="45.940988538078855" lon="9.117728914639727"><ele>339.25</ele><time>2026-04-25T10:05:27.002Z</time></trkpt><trkpt lat="45.94095981385926" lon="9.117557862957172"><ele>339.0</ele><time>2026-04-25T10:05:28.002Z</time></trkpt><trkpt lat="45.9409316406389" lon="9.117387759720541"><ele>339.75</ele><time>2026-04-25T10:05:29.002Z</time></trkpt><trkpt lat="45.940907600495244" lon="9.11721358162495"><ele>340.5</ele><time>2026-04-25T10:05:30.003Z</time></trkpt><trkpt lat="45.94089376510091" lon="9.117039706660478"><ele>341.25</ele><time>2026-04-25T10:05:31.003Z</time></trkpt><trkpt lat="45.9408779276239" lon="9.116864230464412"><ele>342.0</ele><time>2026-04-25T10:05:32.003Z</time></trkpt><trkpt lat="45.94086959842137" lon="9.116690801971629"><ele>345.25</ele><time>2026-04-25T10:05:33.003Z</time></trkpt><trkpt lat="45.94086620056698" lon="9.116513299380928"><ele>348.5</ele><time>2026-04-25T10:05:33.997Z</time></trkpt><trkpt lat="45.940866913877734" lon="9.11633499934643"><ele>351.75</ele><time>2026-04-25T10:05:34.997Z</time></trkpt><trkpt lat="45.94087493178105" lon="9.11615929700031"><ele>355.0</ele><time>2026-04-25T10:05:35.997Z</time></trkpt><trkpt lat="45.940890030875906" lon="9.115986333896114"><ele>355.0</ele><time>2026-04-25T10:05:36.997Z</time></trkpt><trkpt lat="45.940898493889904" lon="9.115828020820853"><ele>355.0</ele><time>2026-04-25T10:05:37.998Z</time></trkpt><trkpt lat="45.940910784618715" lon="9.115669379032319"><ele>355.0</ele><time>2026-04-25T10:05:38.998Z</time></trkpt><trkpt lat="45.94092440580257" lon="9.115500673458888"><ele>355.0</ele><time>2026-04-25T10:05:39.998Z</time></trkpt><trkpt lat="45.94093132449199" lon="9.115322990707494"><ele>354.25</ele><time>2026-04-25T10:05:40.998Z</time></trkpt><trkpt lat="45.940944628021576" lon="9.115133804544612"><ele>353.5</ele><time>2026-04-25T10:05:41.998Z</time></trkpt><trkpt lat="45.94095557359084" lon="9.11494306722526"><ele>352.75</ele><time>2026-04-25T10:05:42.998Z</time></trkpt><trkpt lat="45.94096363981373" lon="9.114756387651772"><ele>352.0</ele><time>2026-04-25T10:05:43.998Z</time></trkpt><trkpt lat="45.940960512719066" lon="9.114581400049937"><ele>349.8</ele><time>2026-04-25T10:05:44.998Z</time></trkpt><trkpt lat="45.94094828723346" lon="9.114425586582112"><ele>347.6</ele><time>2026-04-25T10:05:45.998Z</time></trkpt><trkpt lat="45.940930232782996" lon="9.114278191127994"><ele>345.40000000000003</ele><time>2026-04-25T10:05:46.998Z</time></trkpt><trkpt lat="45.940930973863686" lon="9.114135930844004"><ele>343.20000000000005</ele><time>2026-04-25T10:05:47.998Z</time></trkpt><trkpt lat="45.94094517859295" lon="9.114017407140583"><ele>341.0</ele><time>2026-04-25T10:05:48.998Z</time></trkpt><trkpt lat="45.940966904515385" lon="9.113900844560062"><ele>338.6</ele><time>2026-04-25T10:05:49.998Z</time></trkpt><trkpt lat="45.9409801928015" lon="9.113775479937361"><ele>336.20000000000005</ele><time>2026-04-25T10:05:50.998Z</time></trkpt><trkpt lat="45.94100068583031" lon="9.113629620611203"><ele>333.79999999999995</ele><time>2026-04-25T10:05:51.998Z</time></trkpt><trkpt lat="45.94097979136956" lon="9.113481867542562"><ele>331.4</ele><time>2026-04-25T10:05:52.999Z</time></trkpt><trkpt lat="45.9409308497779" lon="9.11335426484735"><ele>329.0</ele><time>2026-04-25T10:05:53.999Z</time></trkpt><trkpt lat="45.94088825531002" lon="9.113219820775427"><ele>337.33333333333337</ele><time>2026-04-25T10:05:54.999Z</time></trkpt><trkpt lat="45.94084544466837" lon="9.113101581418523"><ele>345.6666666666667</ele><time>2026-04-25T10:05:55.999Z</time></trkpt><trkpt lat="45.94080063022624" lon="9.113005693535507"><ele>354.0</ele><time>2026-04-25T10:05:56.999Z</time></trkpt><trkpt lat="45.9407729953368" lon="9.11290561043587"><ele>362.3333333333333</ele><time>2026-04-25T10:05:57.999Z</time></trkpt><trkpt lat="45.94071672005988" lon="9.11280443165238"><ele>370.66666666666663</ele><time>2026-04-25T10:05:58.999Z</time></trkpt><trkpt lat="45.94065440143781" lon="9.11272865928277"><ele>379.0</ele><time>2026-04-25T10:05:59.999Z</time></trkpt><trkpt lat="45.940580946989876" lon="9.112660794458725"><ele>379.0</ele><time>2026-04-25T10:06:00.999Z</time></trkpt><trkpt lat="45.940531967169406" lon="9.11252982195183"><ele>379.0</ele><time>2026-04-25T10:06:01.999Z</time></trkpt><trkpt lat="45.940459363470836" lon="9.112418029065525"><ele>379.0</ele><time>2026-04-25T10:06:02.999Z</time></trkpt><trkpt lat="45.94042586765881" lon="9.112292234770191"><ele>379.0</ele><time>2026-04-25T10:06:03.999Z</time></trkpt><trkpt lat="45.940371618047635" lon="9.112174321051896"><ele>379.0</ele><time>2026-04-25T10:06:04.999Z</time></trkpt><trkpt lat="45.94032064466201" lon="9.112059789591658"><ele>379.16666666666663</ele><time>2026-04-25T10:06:05.999Z</time></trkpt><trkpt lat="45.94027587021562" lon="9.111944142096233"><ele>379.3333333333333</ele><time>2026-04-25T10:06:06.999Z</time></trkpt><trkpt lat="45.94024482684021" lon="9.111820621581085"><ele>379.5</ele><time>2026-04-25T10:06:08Z</time></trkpt><trkpt lat="45.94022707845607" lon="9.11170855084546"><ele>379.6666666666667</ele><time>2026-04-25T10:06:09Z</time></trkpt><trkpt lat="45.94021125176783" lon="9.11159617589322"><ele>379.83333333333337</ele><time>2026-04-25T10:06:10Z</time></trkpt><trkpt lat="45.940181178447936" lon="9.11149088667976"><ele>380.0</ele><time>2026-04-25T10:06:11Z</time></trkpt><trkpt lat="45.940158577762375" lon="9.111386877884097"><ele>382.4</ele><time>2026-04-25T10:06:12Z</time></trkpt><trkpt lat="45.9401425411886" lon="9.111284950990884"><ele>384.8</ele><time>2026-04-25T10:06:13Z</time></trkpt><trkpt lat="45.94009053364415" lon="9.11114094599313"><ele>387.20000000000005</ele><time>2026-04-25T10:06:15Z</time></trkpt><trkpt lat="45.940056290240484" lon="9.111014769566482"><ele>389.6</ele><time>2026-04-25T10:06:17Z</time></trkpt><trkpt lat="45.939970568624474" lon="9.110910232671653"><ele>392.0</ele><time>2026-04-25T10:06:19Z</time></trkpt><trkpt lat="45.93986318687357" lon="9.11088206267562"><ele>394.40000000000003</ele><time>2026-04-25T10:06:21Z</time></trkpt><trkpt lat="45.9397497392268" lon="9.11081591009214"><ele>396.8</ele><time>2026-04-25T10:06:23Z</time></trkpt><trkpt lat="45.93969322334725" lon="9.110753615193762"><ele>399.2</ele><time>2026-04-25T10:06:24Z</time></trkpt><trkpt lat="45.93963511794797" lon="9.110663965297892"><ele>401.6</ele><time>2026-04-25T10:06:25Z</time></trkpt><trkpt lat="45.93959318337713" lon="9.110531243740324"><ele>404.0</ele><time>2026-04-25T10:06:26Z</time></trkpt><trkpt lat="45.93953039477302" lon="9.110417739907794"><ele>404.0</ele><time>2026-04-25T10:06:27Z</time></trkpt><trkpt lat="45.93947924809628" lon="9.110283446548086"><ele>404.0</ele><time>2026-04-25T10:06:28Z</time></trkpt><trkpt lat="45.93941935922502" lon="9.110138279850194"><ele>404.0</ele><time>2026-04-25T10:06:29Z</time></trkpt><trkpt lat="45.93932763410579" lon="9.110002018725012"><ele>404.0</ele><time>2026-04-25T10:06:30Z</time></trkpt><trkpt lat="45.93923407884935" lon="9.109890979182238"><ele>405.0</ele><time>2026-04-25T10:06:31Z</time></trkpt><trkpt lat="45.93914667381772" lon="9.109768671918236"><ele>406.0</ele><time>2026-04-25T10:06:32Z</time></trkpt><trkpt lat="45.93906287705996" lon="9.109639811431702"><ele>407.0</ele><time>2026-04-25T10:06:33Z</time></trkpt><trkpt lat="45.93898911033314" lon="9.10950283574214"><ele>408.0</ele><time>2026-04-25T10:06:34.001Z</time></trkpt><trkpt lat="45.93892251471716" lon="9.109354778855367"><ele>408.0</ele><time>2026-04-25T10:06:35.001Z</time></trkpt><trkpt lat="45.938870618994265" lon="9.109202376220615"><ele>408.0</ele><time>2026-04-25T10:06:36.001Z</time></trkpt><trkpt lat="45.93882540294016" lon="9.109048291297185"><ele>408.0</ele><time>2026-04-25T10:06:37.001Z</time></trkpt><trkpt lat="45.93878940380396" lon="9.108899991016544"><ele>408.0</ele><time>2026-04-25T10:06:38.001Z</time></trkpt><trkpt lat="45.93875273442738" lon="9.108761607510836"><ele>408.0</ele><time>2026-04-25T10:06:39.001Z</time></trkpt><trkpt lat="45.93871855264962" lon="9.108641869929063"><ele>407.59999999999997</ele><time>2026-04-25T10:06:40.001Z</time></trkpt><trkpt lat="45.93869000127136" lon="9.10852675100599"><ele>407.2</ele><time>2026-04-25T10:06:41.001Z</time></trkpt><trkpt lat="45.93866352962588" lon="9.108415306432361"><ele>406.8</ele><time>2026-04-25T10:06:42.001Z</time></trkpt><trkpt lat="45.9386398905286" lon="9.108314784821982"><ele>406.4</ele><time>2026-04-25T10:06:43.001Z</time></trkpt><trkpt lat="45.93854852113107" lon="9.108209514732726"><ele>406.0</ele><time>2026-04-25T10:06:45.001Z</time></trkpt><trkpt lat="45.93842535822204" lon="9.108277496542163"><ele>406.0</ele><time>2026-04-25T10:06:47.001Z</time></trkpt><trkpt lat="45.938404766256184" lon="9.10840651827573"><ele>406.0</ele><time>2026-04-25T10:06:48.001Z</time></trkpt><trkpt lat="45.93840959249787" lon="9.10855113729897"><ele>406.0</ele><time>2026-04-25T10:06:49.001Z</time></trkpt><trkpt lat="45.93840623921289" lon="9.108698400530045"><ele>406.0</ele><time>2026-04-25T10:06:50.001Z</time></trkpt><trkpt lat="45.93841128760563" lon="9.10885117200091"><ele>406.0</ele><time>2026-04-25T10:06:51.001Z</time></trkpt><trkpt lat="45.93840858891189" lon="9.109005651019084"><ele>406.4</ele><time>2026-04-25T10:06:52.001Z</time></trkpt><trkpt lat="45.93842105463275" lon="9.109159530555626"><ele>406.8</ele><time>2026-04-25T10:06:53.001Z</time></trkpt><trkpt lat="45.938439007544645" lon="9.109301329653661"><ele>407.2</ele><time>2026-04-25T10:06:54.001Z</time></trkpt><trkpt lat="45.938453601304374" lon="9.109432826664918"><ele>407.59999999999997</ele><time>2026-04-25T10:06:55.001Z</time></trkpt><trkpt lat="45.93846777181111" lon="9.109550582900098"><ele>408.0</ele><time>2026-04-25T10:06:56.001Z</time></trkpt><trkpt lat="45.93848000482595" lon="9.109660143240887"><ele>408.0</ele><time>2026-04-25T10:06:57.001Z</time></trkpt><trkpt lat="45.938478379064286" lon="9.109790464428194"><ele>408.0</ele><time>2026-04-25T10:06:58.001Z</time></trkpt><trkpt lat="45.938469062021476" lon="9.109923095624247"><ele>408.0</ele><time>2026-04-25T10:06:59.001Z</time></trkpt><trkpt lat="45.93844618529176" lon="9.110045663723394"><ele>408.0</ele><time>2026-04-25T10:07:00.001Z</time></trkpt><trkpt lat="45.93842233028245" lon="9.110165261518986"><ele>408.0</ele><time>2026-04-25T10:07:01.001Z</time></trkpt><trkpt lat="45.93842179390311" lon="9.110302842441769"><ele>408.59999999999997</ele><time>2026-04-25T10:07:02.001Z</time></trkpt><trkpt lat="45.938437293761815" lon="9.110452732587177"><ele>409.2</ele><time>2026-04-25T10:07:03.001Z</time></trkpt><trkpt lat="45.938464155769054" lon="9.110601260149668"><ele>409.8</ele><time>2026-04-25T10:07:04.001Z</time></trkpt><trkpt lat="45.93848676776219" lon="9.110751750214964"><ele>410.4</ele><time>2026-04-25T10:07:05.002Z</time></trkpt><trkpt lat="45.93850956298815" lon="9.11089061128589"><ele>411.0</ele><time>2026-04-25T10:07:06.002Z</time></trkpt><trkpt lat="45.938526961378265" lon="9.111034526735722"><ele>414.25</ele><time>2026-04-25T10:07:07.002Z</time></trkpt><trkpt lat="45.9385806940145" lon="9.11117481669695"><ele>417.5</ele><time>2026-04-25T10:07:08.002Z</time></trkpt><trkpt lat="45.93868675671496" lon="9.111263812049723"><ele>420.75</ele><time>2026-04-25T10:07:09.002Z</time></trkpt><trkpt lat="45.93877819729591" lon="9.11136383175878"><ele>424.0</ele><time>2026-04-25T10:07:10.002Z</time></trkpt><trkpt lat="45.938875842754456" lon="9.1114529434811"><ele>424.0</ele><time>2026-04-25T10:07:11.002Z</time></trkpt><trkpt lat="45.93897665615619" lon="9.111539243086932"><ele>424.0</ele><time>2026-04-25T10:07:12.002Z</time></trkpt><trkpt lat="45.939071521067234" lon="9.111611090769177"><ele>424.0</ele><time>2026-04-25T10:07:13.002Z</time></trkpt><trkpt lat="45.93915999749337" lon="9.111666854288556"><ele>424.0</ele><time>2026-04-25T10:07:14.002Z</time></trkpt><trkpt lat="45.93924505056685" lon="9.11171844416825"><ele>424.0</ele><time>2026-04-25T10:07:15.002Z</time></trkpt><trkpt lat="45.939330300204006" lon="9.111773668423941"><ele>423.0</ele><time>2026-04-25T10:07:16.002Z</time></trkpt><trkpt lat="45.93939140435813" lon="9.111815285910415"><ele>422.0</ele><time>2026-04-25T10:07:17.002Z</time></trkpt><trkpt lat="45.93947863151798" lon="9.111875385353024"><ele>421.0</ele><time>2026-04-25T10:07:18.002Z</time></trkpt><trkpt lat="45.93954725312135" lon="9.112029337699509"><ele>420.0</ele><time>2026-04-25T10:07:19.002Z</time></trkpt><trkpt lat="45.93958373381716" lon="9.112159531750805"><ele>419.0</ele><time>2026-04-25T10:07:20.002Z</time></trkpt><trkpt lat="45.93960700619589" lon="9.112301518590606"><ele>423.79999999999995</ele><time>2026-04-25T10:07:21.002Z</time></trkpt><trkpt lat="45.939647234398244" lon="9.112436856160533"><ele>428.59999999999997</ele><time>2026-04-25T10:07:22.002Z</time></trkpt><trkpt lat="45.93970557211295" lon="9.11256728823621"><ele>433.4</ele><time>2026-04-25T10:07:23.002Z</time></trkpt><trkpt lat="45.93977893793968" lon="9.112677257219222"><ele>438.2</ele><time>2026-04-25T10:07:24.002Z</time></trkpt><trkpt lat="45.93985202942981" lon="9.112769984025466"><ele>443.0</ele><time>2026-04-25T10:07:25.002Z</time></trkpt><trkpt lat="45.93991421119849" lon="9.112855686812459"><ele>442.99999999999994</ele><time>2026-04-25T10:07:26.002Z</time></trkpt><trkpt lat="45.93996666753857" lon="9.112925921121134"><ele>443.0</ele><time>2026-04-25T10:07:27.002Z</time></trkpt><trkpt lat="45.94000958195485" lon="9.113028189702613"><ele>443.0</ele><time>2026-04-25T10:07:28.002Z</time></trkpt><trkpt lat="45.9401013608694" lon="9.113162991126996"><ele>443.0</ele><time>2026-04-25T10:07:30.002Z</time></trkpt><trkpt lat="45.94013702012469" lon="9.11324187120026"><ele>442.99999999999994</ele><time>2026-04-25T10:07:31.002Z</time></trkpt><trkpt lat="45.94016618806047" lon="9.113350192411707"><ele>443.0</ele><time>2026-04-25T10:07:32.002Z</time></trkpt><trkpt lat="45.94012053246989" lon="9.113508925912583"><ele>442.99999999999994</ele><time>2026-04-25T10:07:34.002Z</time></trkpt><trkpt lat="45.940052494409" lon="9.113533463536129"><ele>443.0</ele><time>2026-04-25T10:07:35.002Z</time></trkpt><trkpt lat="45.939996883850135" lon="9.113481062321355"><ele>443.0</ele><time>2026-04-25T10:07:36.002Z</time></trkpt><trkpt lat="45.939963148267346" lon="9.113398869331396"><ele>443.0</ele><time>2026-04-25T10:07:37.002Z</time></trkpt><trkpt lat="45.939955540127414" lon="9.113287831994553"><ele>442.99999999999994</ele><time>2026-04-25T10:07:38.003Z</time></trkpt><trkpt lat="45.93994816331119" lon="9.113165297353948"><ele>443.0</ele><time>2026-04-25T10:07:39.003Z</time></trkpt><trkpt lat="45.93990890334719" lon="9.113052989822418"><ele>443.0</ele><time>2026-04-25T10:07:39.998Z</time></trkpt><trkpt lat="45.939837626710506" lon="9.11295931755646"><ele>442.99999999999994</ele><time>2026-04-25T10:07:40.998Z</time></trkpt><trkpt lat="45.939747058125015" lon="9.112885968813565"><ele>442.99999999999994</ele><time>2026-04-25T10:07:41.999Z</time></trkpt><trkpt lat="45.939646896262495" lon="9.112825290615923"><ele>443.0</ele><time>2026-04-25T10:07:42.999Z</time></trkpt><trkpt lat="45.939555118131395" lon="9.112775498816452"><ele>443.0</ele><time>2026-04-25T10:07:43.999Z</time></trkpt><trkpt lat="45.9394804644278" lon="9.112728119130834"><ele>442.99999999999994</ele><time>2026-04-25T10:07:44.999Z</time></trkpt><trkpt lat="45.93942542071695" lon="9.112658723285362"><ele>443.0</ele><time>2026-04-25T10:07:45.999Z</time></trkpt><trkpt lat="45.939392256440385" lon="9.112564503688827"><ele>443.0</ele><time>2026-04-25T10:07:46.999Z</time></trkpt><trkpt lat="45.93929762382527" lon="9.112439531877039"><ele>443.0</ele><time>2026-04-25T10:07:48.999Z</time></trkpt><trkpt lat="45.93922365826287" lon="9.112415370890137"><ele>442.99999999999994</ele><time>2026-04-25T10:07:49.999Z</time></trkpt><trkpt lat="45.93915603416849" lon="9.112425670423258"><ele>443.0</ele><time>2026-04-25T10:07:50.999Z</time></trkpt><trkpt lat="45.93909069652781" lon="9.112434576518337"><ele>443.66666666666663</ele><time>2026-04-25T10:07:51.999Z</time></trkpt><trkpt lat="45.93897854658845" lon="9.112379997367315"><ele>444.3333333333333</ele><time>2026-04-25T10:07:53.999Z</time></trkpt><trkpt lat="45.93893244526356" lon="9.112300828914618"><ele>445.0</ele><time>2026-04-25T10:07:54.999Z</time></trkpt><trkpt lat="45.93888873429076" lon="9.112215573986301"><ele>445.66666666666663</ele><time>2026-04-25T10:07:55.999Z</time></trkpt><trkpt lat="45.93882609921475" lon="9.112150693613144"><ele>446.3333333333333</ele><time>2026-04-25T10:07:57Z</time></trkpt><trkpt lat="45.93874587002981" lon="9.112108766119784"><ele>447.0</ele><time>2026-04-25T10:07:58Z</time></trkpt><trkpt lat="45.938659252432004" lon="9.112111425778219"><ele>447.0</ele><time>2026-04-25T10:07:59Z</time></trkpt><trkpt lat="45.93859197123094" lon="9.112150726338045"><ele>447.0</ele><time>2026-04-25T10:08:00Z</time></trkpt><trkpt lat="45.93852208302935" lon="9.112207798898055"><ele>447.0</ele><time>2026-04-25T10:08:01Z</time></trkpt><trkpt lat="45.93846484982892" lon="9.112304634958987"><ele>447.0</ele><time>2026-04-25T10:08:02Z</time></trkpt><trkpt lat="45.93840633501118" lon="9.11241292139054"><ele>447.0</ele><time>2026-04-25T10:08:03Z</time></trkpt><trkpt lat="45.93836311175446" lon="9.112527881301595"><ele>447.0</ele><time>2026-04-25T10:08:04Z</time></trkpt><trkpt lat="45.9383134004642" lon="9.112621199425986"><ele>451.3333333333333</ele><time>2026-04-25T10:08:05Z</time></trkpt><trkpt lat="45.938253716986026" lon="9.112701161428191"><ele>455.66666666666663</ele><time>2026-04-25T10:08:06Z</time></trkpt><trkpt lat="45.93815782598266" lon="9.112684580550855"><ele>460.0</ele><time>2026-04-25T10:08:07Z</time></trkpt><trkpt lat="45.9380737415803" lon="9.112647078264537"><ele>464.3333333333333</ele><time>2026-04-25T10:08:08Z</time></trkpt><trkpt lat="45.93801813807209" lon="9.112585786217378"><ele>468.66666666666663</ele><time>2026-04-25T10:08:09Z</time></trkpt><trkpt lat="45.93793070493464" lon="9.11252759621975"><ele>473.0</ele><time>2026-04-25T10:08:10Z</time></trkpt><trkpt lat="45.937786385518336" lon="9.112433480881242"><ele>469.79999999999995</ele><time>2026-04-25T10:08:12Z</time></trkpt><trkpt lat="45.93771440145392" lon="9.112383714303975"><ele>466.59999999999997</ele><time>2026-04-25T10:08:13Z</time></trkpt><trkpt lat="45.93764101945346" lon="9.112275262185122"><ele>463.40000000000003</ele><time>2026-04-25T10:08:15Z</time></trkpt><trkpt lat="45.9376176349135" lon="9.112085391991704"><ele>460.20000000000005</ele><time>2026-04-25T10:08:17.001Z</time></trkpt><trkpt lat="45.93759869228538" lon="9.111948037709702"><ele>457.0</ele><time>2026-04-25T10:08:18.001Z</time></trkpt><trkpt lat="45.93757647078679" lon="9.111781180115615"><ele>457.0</ele><time>2026-04-25T10:08:19.001Z</time></trkpt><trkpt lat="45.93755370289307" lon="9.111610219594022"><ele>457.00000000000006</ele><time>2026-04-25T10:08:20.001Z</time></trkpt><trkpt lat="45.937535851786954" lon="9.111476178412593"><ele>457.00000000000006</ele><time>2026-04-25T10:08:21.001Z</time></trkpt><trkpt lat="45.937518960393234" lon="9.111349343616205"><ele>457.0</ele><time>2026-04-25T10:08:22.001Z</time></trkpt><trkpt lat="45.93750218688534" lon="9.111220214413919"><ele>457.0</ele><time>2026-04-25T10:08:23.001Z</time></trkpt><trkpt lat="45.93745985669356" lon="9.11108509987575"><ele>463.0</ele><time>2026-04-25T10:08:24.001Z</time></trkpt><trkpt lat="45.93740575616811" lon="9.110928521026473"><ele>469.0</ele><time>2026-04-25T10:08:25.001Z</time></trkpt><trkpt lat="45.93734538307815" lon="9.110797472986453"><ele>475.0</ele><time>2026-04-25T10:08:26.001Z</time></trkpt><trkpt lat="45.937283190937904" lon="9.11064231791565"><ele>481.0</ele><time>2026-04-25T10:08:27.001Z</time></trkpt><trkpt lat="45.93722416901752" lon="9.110487519229242"><ele>481.0</ele><time>2026-04-25T10:08:28.001Z</time></trkpt><trkpt lat="45.937179926174494" lon="9.110340790547648"><ele>481.0</ele><time>2026-04-25T10:08:29.001Z</time></trkpt><trkpt lat="45.93713764253143" lon="9.11019409848261"><ele>481.0</ele><time>2026-04-25T10:08:30.001Z</time></trkpt><trkpt lat="45.93710804679466" lon="9.110058473478645"><ele>481.0</ele><time>2026-04-25T10:08:31.001Z</time></trkpt><trkpt lat="45.93705410564842" lon="9.109907883105192"><ele>481.0</ele><time>2026-04-25T10:08:32.001Z</time></trkpt><trkpt lat="45.93702979389251" lon="9.109783821667595"><ele>480.8</ele><time>2026-04-25T10:08:33.001Z</time></trkpt><trkpt lat="45.936993544461416" lon="9.109649083616105"><ele>480.6</ele><time>2026-04-25T10:08:34.001Z</time></trkpt><trkpt lat="45.93696795463686" lon="9.109489308581455"><ele>480.4</ele><time>2026-04-25T10:08:35.001Z</time></trkpt><trkpt lat="45.93695221386554" lon="9.109358511943768"><ele>480.2</ele><time>2026-04-25T10:08:36.001Z</time></trkpt><trkpt lat="45.936941491097784" lon="9.109201068310908"><ele>480.0</ele><time>2026-04-25T10:08:37.001Z</time></trkpt><trkpt lat="45.93694706703739" lon="9.109048782039663"><ele>480.0</ele><time>2026-04-25T10:08:38.001Z</time></trkpt><trkpt lat="45.93694534624095" lon="9.108832663518028"><ele>480.0</ele><time>2026-04-25T10:08:39.001Z</time></trkpt><trkpt lat="45.93697517964581" lon="9.108679231356021"><ele>480.0</ele><time>2026-04-25T10:08:40.001Z</time></trkpt><trkpt lat="45.937009782844726" lon="9.108540938182415"><ele>480.0</ele><time>2026-04-25T10:08:41.001Z</time></trkpt><trkpt lat="45.937043619818844" lon="9.108403167121766"><ele>480.0</ele><time>2026-04-25T10:08:42.001Z</time></trkpt><trkpt lat="45.93706239064291" lon="9.108263228443306"><ele>480.0</ele><time>2026-04-25T10:08:43.001Z</time></trkpt><trkpt lat="45.93705832748096" lon="9.108127063422941"><ele>480.0</ele><time>2026-04-25T10:08:44.001Z</time></trkpt><trkpt lat="45.93702347234045" lon="9.107997846802"><ele>480.0</ele><time>2026-04-25T10:08:45.001Z</time></trkpt><trkpt lat="45.9369670820196" lon="9.107881121638052"><ele>480.0</ele><time>2026-04-25T10:08:46.002Z</time></trkpt><trkpt lat="45.93690132514691" lon="9.107784864450537"><ele>480.3333333333333</ele><time>2026-04-25T10:08:47.002Z</time></trkpt><trkpt lat="45.936834724983925" lon="9.107704711069013"><ele>480.66666666666663</ele><time>2026-04-25T10:08:48.002Z</time></trkpt><trkpt lat="45.936784430335145" lon="9.107629909115325"><ele>481.0</ele><time>2026-04-25T10:08:49.002Z</time></trkpt><trkpt lat="45.93676048320428" lon="9.107526750863515"><ele>481.3333333333333</ele><time>2026-04-25T10:08:50.002Z</time></trkpt><trkpt lat="45.93676160909917" lon="9.107417719879589"><ele>481.66666666666663</ele><time>2026-04-25T10:08:51.002Z</time></trkpt><trkpt lat="45.93675439661731" lon="9.107298805731304"><ele>482.0</ele><time>2026-04-25T10:08:52.002Z</time></trkpt><trkpt lat="45.93676794579968" lon="9.107172780105453"><ele>481.99999999999994</ele><time>2026-04-25T10:08:53.002Z</time></trkpt><trkpt lat="45.936783173122" lon="9.10704431628633"><ele>482.0</ele><time>2026-04-25T10:08:54.002Z</time></trkpt><trkpt lat="45.93678780556034" lon="9.10691757494207"><ele>482.0</ele><time>2026-04-25T10:08:55.002Z</time></trkpt><trkpt lat="45.9367750067645" lon="9.10679982302341"><ele>482.0</ele><time>2026-04-25T10:08:56.002Z</time></trkpt><trkpt lat="45.93673648142838" lon="9.106684148262971"><ele>481.99999999999994</ele><time>2026-04-25T10:08:57.002Z</time></trkpt><trkpt lat="45.93667947207923" lon="9.10657167147768"><ele>482.0</ele><time>2026-04-25T10:08:58.002Z</time></trkpt><trkpt lat="45.936624719249444" lon="9.106453603371024"><ele>488.0</ele><time>2026-04-25T10:08:59.002Z</time></trkpt><trkpt lat="45.93657875239744" lon="9.106314202160261"><ele>494.00000000000006</ele><time>2026-04-25T10:09:00.002Z</time></trkpt><trkpt lat="45.93654214174674" lon="9.106170851317945"><ele>500.00000000000006</ele><time>2026-04-25T10:09:01.002Z</time></trkpt><trkpt lat="45.93650149686414" lon="9.106028596559682"><ele>506.0</ele><time>2026-04-25T10:09:02.002Z</time></trkpt><trkpt lat="45.936447610349056" lon="9.10589288027688"><ele>512.0</ele><time>2026-04-25T10:09:03.002Z</time></trkpt><trkpt lat="45.936376583585634" lon="9.105763027348694"><ele>512.0</ele><time>2026-04-25T10:09:04.002Z</time></trkpt><trkpt lat="45.93628769501632" lon="9.105647700582267"><ele>512.0</ele><time>2026-04-25T10:09:05.002Z</time></trkpt><trkpt lat="45.936194116171805" lon="9.105523543437881"><ele>512.0</ele><time>2026-04-25T10:09:06.002Z</time></trkpt><trkpt lat="45.936083458020335" lon="9.105399025351938"><ele>512.0</ele><time>2026-04-25T10:09:07.002Z</time></trkpt><trkpt lat="45.93596446543194" lon="9.105275912679705"><ele>514.5</ele><time>2026-04-25T10:09:08.002Z</time></trkpt><trkpt lat="45.93585023869519" lon="9.105174749449393"><ele>517.0</ele><time>2026-04-25T10:09:09.002Z</time></trkpt><trkpt lat="45.935749265954165" lon="9.10504994703373"><ele>519.5</ele><time>2026-04-25T10:09:10.002Z</time></trkpt><trkpt lat="45.93564626908772" lon="9.104959386232016"><ele>522.0</ele><time>2026-04-25T10:09:11.002Z</time></trkpt><trkpt lat="45.93553876222558" lon="9.104895805404995"><ele>522.0</ele><time>2026-04-25T10:09:12.002Z</time></trkpt><trkpt lat="45.93544832824521" lon="9.104803177497988"><ele>522.0</ele><time>2026-04-25T10:09:13.002Z</time></trkpt><trkpt lat="45.93536050093982" lon="9.10470943328743"><ele>522.0</ele><time>2026-04-25T10:09:14.002Z</time></trkpt><trkpt lat="45.93528406212869" lon="9.104615243093756"><ele>522.0</ele><time>2026-04-25T10:09:15.002Z</time></trkpt><trkpt lat="45.93521876752904" lon="9.10451420715672"><ele>522.0</ele><time>2026-04-25T10:09:16.002Z</time></trkpt><trkpt lat="45.93515060461635" lon="9.104417773621666"><ele>522.0</ele><time>2026-04-25T10:09:17.002Z</time></trkpt><trkpt lat="45.93507073761545" lon="9.104343477466179"><ele>522.0</ele><time>2026-04-25T10:09:18.003Z</time></trkpt><trkpt lat="45.93498603893202" lon="9.104303686301652"><ele>522.0</ele><time>2026-04-25T10:09:19.003Z</time></trkpt><trkpt lat="45.9349001584185" lon="9.10431665442772"><ele>522.0</ele><time>2026-04-25T10:09:20.003Z</time></trkpt><trkpt lat="45.93481847871755" lon="9.104369096088554"><ele>522.0</ele><time>2026-04-25T10:09:21.003Z</time></trkpt><trkpt lat="45.93474937260188" lon="9.10445325187912"><ele>522.6666666666666</ele><time>2026-04-25T10:09:22.003Z</time></trkpt><trkpt lat="45.934679028705496" lon="9.104491073008733"><ele>523.3333333333334</ele><time>2026-04-25T10:09:23.003Z</time></trkpt><trkpt lat="45.93460346961407" lon="9.104579674678524"><ele>524.0</ele><time>2026-04-25T10:09:25.003Z</time></trkpt><trkpt lat="45.934536862582306" lon="9.104639404866878"><ele>524.6666666666667</ele><time>2026-04-25T10:09:28.003Z</time></trkpt><trkpt lat="45.93444141765654" lon="9.104693165927094"><ele>525.3333333333334</ele><time>2026-04-25T10:09:31.003Z</time></trkpt><trkpt lat="45.934376701439454" lon="9.104698775833523"><ele>526.0</ele><time>2026-04-25T10:09:34.003Z</time></trkpt><trkpt lat="45.934299688382424" lon="9.10468001638869"><ele>525.4</ele><time>2026-04-25T10:09:36.003Z</time></trkpt><trkpt lat="45.93419743183887" lon="9.10463809944144"><ele>524.8</ele><time>2026-04-25T10:09:38.003Z</time></trkpt><trkpt lat="45.9341079474604" lon="9.10459718345655"><ele>524.1999999999999</ele><time>2026-04-25T10:09:39.003Z</time></trkpt><trkpt lat="45.93398044337123" lon="9.104535604974402"><ele>523.6</ele><time>2026-04-25T10:09:41.003Z</time></trkpt><trkpt lat="45.93390221273419" lon="9.104494381222098"><ele>523.0</ele><time>2026-04-25T10:09:42.003Z</time></trkpt><trkpt lat="45.93383067115733" lon="9.104489450929911"><ele>523.0</ele><time>2026-04-25T10:09:43.003Z</time></trkpt><trkpt lat="45.933764701153294" lon="9.104533344902793"><ele>523.0</ele><time>2026-04-25T10:09:44.003Z</time></trkpt><trkpt lat="45.933705680995935" lon="9.104633805413684"><ele>523.0</ele><time>2026-04-25T10:09:45.003Z</time></trkpt><trkpt lat="45.93366047652226" lon="9.104749418014036"><ele>523.0</ele><time>2026-04-25T10:09:46Z</time></trkpt><trkpt lat="45.9336159805494" lon="9.104857999612179"><ele>523.0</ele><time>2026-04-25T10:09:47Z</time></trkpt><trkpt lat="45.93352334189678" lon="9.104989070336813"><ele>524.4</ele><time>2026-04-25T10:09:49Z</time></trkpt><trkpt lat="45.93343531254002" lon="9.105033926102047"><ele>525.8</ele><time>2026-04-25T10:09:50Z</time></trkpt><trkpt lat="45.933344920399165" lon="9.105048120531547"><ele>527.2</ele><time>2026-04-25T10:09:51Z</time></trkpt><trkpt lat="45.9332608390028" lon="9.105019032851834"><ele>528.6</ele><time>2026-04-25T10:09:52Z</time></trkpt><trkpt lat="45.93317326294843" lon="9.104963559017019"><ele>530.0</ele><time>2026-04-25T10:09:53Z</time></trkpt><trkpt lat="45.93307965330952" lon="9.104880696238888"><ele>530.0</ele><time>2026-04-25T10:09:54Z</time></trkpt><trkpt lat="45.93297971920799" lon="9.104798563250132"><ele>530.0</ele><time>2026-04-25T10:09:55Z</time></trkpt><trkpt lat="45.93289278559867" lon="9.104721389697373"><ele>530.0</ele><time>2026-04-25T10:09:56Z</time></trkpt><trkpt lat="45.932819538208754" lon="9.104657174463975"><ele>530.0</ele><time>2026-04-25T10:09:57Z</time></trkpt><trkpt lat="45.93273877268586" lon="9.10459607028158"><ele>530.0</ele><time>2026-04-25T10:09:58Z</time></trkpt><trkpt lat="45.93264840932195" lon="9.10453143246541"><ele>532.8</ele><time>2026-04-25T10:09:59Z</time></trkpt><trkpt lat="45.932552249980695" lon="9.104470168401743"><ele>535.6</ele><time>2026-04-25T10:10:00Z</time></trkpt><trkpt lat="45.93245246321369" lon="9.104427900225204"><ele>538.4</ele><time>2026-04-25T10:10:01Z</time></trkpt><trkpt lat="45.93234771201399" lon="9.104398998900399"><ele>541.2</ele><time>2026-04-25T10:10:02Z</time></trkpt><trkpt lat="45.932242106901775" lon="9.104391669232712"><ele>544.0</ele><time>2026-04-25T10:10:03Z</time></trkpt><trkpt lat="45.93212308824309" lon="9.104374716178933"><ele>544.0</ele><time>2026-04-25T10:10:04Z</time></trkpt><trkpt lat="45.93199525834061" lon="9.10438403518825"><ele>544.0</ele><time>2026-04-25T10:10:05Z</time></trkpt><trkpt lat="45.93185781460924" lon="9.104398307759732"><ele>544.0</ele><time>2026-04-25T10:10:06Z</time></trkpt><trkpt lat="45.93172541344171" lon="9.104432696601744"><ele>544.0</ele><time>2026-04-25T10:10:07Z</time></trkpt><trkpt lat="45.9315904536573" lon="9.104443794228724"><ele>546.0</ele><time>2026-04-25T10:10:08Z</time></trkpt><trkpt lat="45.93145881537489" lon="9.10444453804283"><ele>548.0</ele><time>2026-04-25T10:10:09Z</time></trkpt><trkpt lat="45.9313315748767" lon="9.104455288575123"><ele>550.0</ele><time>2026-04-25T10:10:10Z</time></trkpt><trkpt lat="45.93120463277148" lon="9.104472139230895"><ele>552.0</ele><time>2026-04-25T10:10:11Z</time></trkpt><trkpt lat="45.93109108683589" lon="9.104484997661068"><ele>552.0</ele><time>2026-04-25T10:10:12Z</time></trkpt><trkpt lat="45.93097143567362" lon="9.104489896628332"><ele>552.0</ele><time>2026-04-25T10:10:13Z</time></trkpt><trkpt lat="45.93085608407885" lon="9.104476361012948"><ele>552.0</ele><time>2026-04-25T10:10:14Z</time></trkpt><trkpt lat="45.93075023471669" lon="9.104454658442819"><ele>552.0</ele><time>2026-04-25T10:10:15Z</time></trkpt><trkpt lat="45.930651609441746" lon="9.104416880301113"><ele>552.0</ele><time>2026-04-25T10:10:16Z</time></trkpt><trkpt lat="45.93056427208256" lon="9.10435368722781"><ele>552.0</ele><time>2026-04-25T10:10:17.001Z</time></trkpt><trkpt lat="45.93047101970064" lon="9.10427576610963"><ele>552.0</ele><time>2026-04-25T10:10:18.001Z</time></trkpt><trkpt lat="45.9303993529664" lon="9.10417767304221"><ele>552.0</ele><time>2026-04-25T10:10:19.001Z</time></trkpt><trkpt lat="45.93033080056424" lon="9.104075988829857"><ele>552.0</ele><time>2026-04-25T10:10:20.001Z</time></trkpt><trkpt lat="45.930263693181274" lon="9.103972373195345"><ele>552.0</ele><time>2026-04-25T10:10:21.001Z</time></trkpt><trkpt lat="45.93021166753287" lon="9.103864056835176"><ele>552.0</ele><time>2026-04-25T10:10:22.001Z</time></trkpt><trkpt lat="45.93015691404969" lon="9.103758671940192"><ele>552.0</ele><time>2026-04-25T10:10:23.001Z</time></trkpt><trkpt lat="45.930119768379896" lon="9.103640832162654"><ele>552.0</ele><time>2026-04-25T10:10:24.001Z</time></trkpt><trkpt lat="45.93007723670961" lon="9.103531428234827"><ele>552.0</ele><time>2026-04-25T10:10:25.001Z</time></trkpt><trkpt lat="45.93003651510277" lon="9.10342518469871"><ele>552.0</ele><time>2026-04-25T10:10:26.001Z</time></trkpt><trkpt lat="45.92998832957248" lon="9.10333032160144"><ele>552.0</ele><time>2026-04-25T10:10:27.001Z</time></trkpt><trkpt lat="45.92995198798938" lon="9.1032241639316"><ele>555.3333333333334</ele><time>2026-04-25T10:10:28.001Z</time></trkpt><trkpt lat="45.92991280704017" lon="9.103123413458512"><ele>558.6666666666666</ele><time>2026-04-25T10:10:29.001Z</time></trkpt><trkpt lat="45.929863361949" lon="9.10302145827804"><ele>562.0</ele><time>2026-04-25T10:10:30.001Z</time></trkpt><trkpt lat="45.929816528832795" lon="9.10292136748787"><ele>565.3333333333333</ele><time>2026-04-25T10:10:31.001Z</time></trkpt><trkpt lat="45.929755769571244" lon="9.102821110362381"><ele>568.6666666666666</ele><time>2026-04-25T10:10:32.001Z</time></trkpt><trkpt lat="45.92968664436081" lon="9.10272908244219"><ele>572.0</ele><time>2026-04-25T10:10:33.001Z</time></trkpt><trkpt lat="45.92960516521007" lon="9.102645094481804"><ele>572.0</ele><time>2026-04-25T10:10:34.001Z</time></trkpt><trkpt lat="45.92951792997025" lon="9.102567118923579"><ele>572.0</ele><time>2026-04-25T10:10:35.001Z</time></trkpt><trkpt lat="45.92942723658108" lon="9.10249040125613"><ele>572.0</ele><time>2026-04-25T10:10:36.001Z</time></trkpt><trkpt lat="45.92933401563649" lon="9.102414493859238"><ele>572.0</ele><time>2026-04-25T10:10:37.001Z</time></trkpt><trkpt lat="45.92923894589495" lon="9.10233095733914"><ele>572.0</ele><time>2026-04-25T10:10:38.001Z</time></trkpt><trkpt lat="45.92913698427342" lon="9.102244535052629"><ele>573.25</ele><time>2026-04-25T10:10:39.001Z</time></trkpt><trkpt lat="45.929029554778566" lon="9.10215235869836"><ele>574.5</ele><time>2026-04-25T10:10:40.001Z</time></trkpt><trkpt lat="45.92891787250882" lon="9.102059084279297"><ele>575.75</ele><time>2026-04-25T10:10:41.001Z</time></trkpt><trkpt lat="45.92880653490848" lon="9.101967768257076"><ele>577.0</ele><time>2026-04-25T10:10:42.001Z</time></trkpt><trkpt lat="45.928692547350806" lon="9.101870328179533"><ele>577.0</ele><time>2026-04-25T10:10:43.001Z</time></trkpt><trkpt lat="45.92858441563033" lon="9.101781996255921"><ele>577.0</ele><time>2026-04-25T10:10:44.001Z</time></trkpt><trkpt lat="45.92846786941568" lon="9.10168275329891"><ele>577.0</ele><time>2026-04-25T10:10:45.001Z</time></trkpt><trkpt lat="45.92836351329429" lon="9.101571046667765"><ele>577.0</ele><time>2026-04-25T10:10:46.001Z</time></trkpt><trkpt lat="45.92825148906541" lon="9.10147522071116"><ele>577.0</ele><time>2026-04-25T10:10:47.001Z</time></trkpt><trkpt lat="45.928143993432386" lon="9.101380675720458"><ele>577.0</ele><time>2026-04-25T10:10:48.001Z</time></trkpt><trkpt lat="45.92804985418251" lon="9.101305099604534"><ele>577.0</ele><time>2026-04-25T10:10:49.001Z</time></trkpt><trkpt lat="45.927963829317854" lon="9.1012458233728"><ele>577.0</ele><time>2026-04-25T10:10:50.001Z</time></trkpt><trkpt lat="45.92787999337875" lon="9.101198032338395"><ele>577.0</ele><time>2026-04-25T10:10:51.001Z</time></trkpt><trkpt lat="45.92779428639058" lon="9.101161849611316"><ele>577.0</ele><time>2026-04-25T10:10:52.001Z</time></trkpt><trkpt lat="45.92770753237759" lon="9.101137094147628"><ele>577.0</ele><time>2026-04-25T10:10:53.001Z</time></trkpt><trkpt lat="45.927618693667924" lon="9.101130206465914"><ele>577.0</ele><time>2026-04-25T10:10:54.001Z</time></trkpt><trkpt lat="45.92753393078626" lon="9.101120831763653"><ele>577.0</ele><time>2026-04-25T10:10:55.002Z</time></trkpt><trkpt lat="45.92745801865733" lon="9.101097582282987"><ele>577.0</ele><time>2026-04-25T10:10:56.002Z</time></trkpt><trkpt lat="45.92738707220653" lon="9.101057242333495"><ele>577.0</ele><time>2026-04-25T10:10:57.002Z</time></trkpt><trkpt lat="45.927320684426526" lon="9.100995987914006"><ele>577.1666666666667</ele><time>2026-04-25T10:10:58.002Z</time></trkpt><trkpt lat="45.92725889776383" lon="9.100925553689077"><ele>577.3333333333334</ele><time>2026-04-25T10:10:59.002Z</time></trkpt><trkpt lat="45.92718521381142" lon="9.100855090709205"><ele>577.5</ele><time>2026-04-25T10:11:00.002Z</time></trkpt><trkpt lat="45.92711774686132" lon="9.100790633248437"><ele>577.6666666666666</ele><time>2026-04-25T10:11:01.002Z</time></trkpt><trkpt lat="45.927060011866814" lon="9.100744667904907"><ele>577.8333333333333</ele><time>2026-04-25T10:11:02.002Z</time></trkpt><trkpt lat="45.92700203172922" lon="9.100682568634486"><ele>578.0</ele><time>2026-04-25T10:11:03.002Z</time></trkpt><trkpt lat="45.92694581960446" lon="9.100609529242085"><ele>578.0</ele><time>2026-04-25T10:11:04.002Z</time></trkpt><trkpt lat="45.926893162466264" lon="9.10052551785886"><ele>578.0</ele><time>2026-04-25T10:11:05.002Z</time></trkpt><trkpt lat="45.926852332892864" lon="9.100423828291486"><ele>578.0</ele><time>2026-04-25T10:11:06.002Z</time></trkpt><trkpt lat="45.92680627032326" lon="9.100324851927194"><ele>578.0</ele><time>2026-04-25T10:11:07.002Z</time></trkpt><trkpt lat="45.92676505427031" lon="9.10023949871455"><ele>578.0</ele><time>2026-04-25T10:11:08.002Z</time></trkpt><trkpt lat="45.92672310600928" lon="9.10016464004443"><ele>578.0</ele><time>2026-04-25T10:11:09.002Z</time></trkpt><trkpt lat="45.92667628176634" lon="9.100021616696948"><ele>577.6666666666666</ele><time>2026-04-25T10:11:11.002Z</time></trkpt><trkpt lat="45.92667267194973" lon="9.099907831041929"><ele>577.3333333333333</ele><time>2026-04-25T10:11:14.002Z</time></trkpt><trkpt lat="45.926653394302505" lon="9.099821104304375"><ele>577.0</ele><time>2026-04-25T10:13:32.002Z</time></trkpt><trkpt lat="45.92666611314484" lon="9.099706214089329"><ele>576.6666666666666</ele><time>2026-04-25T10:13:35.002Z</time></trkpt><trkpt lat="45.926681803458536" lon="9.0995660131723"><ele>576.3333333333334</ele><time>2026-04-25T10:13:37.002Z</time></trkpt><trkpt lat="45.92670870629483" lon="9.099406394608271"><ele>576.0</ele><time>2026-04-25T10:13:39.002Z</time></trkpt><trkpt lat="45.926737457125874" lon="9.099262229567346"><ele>576.0</ele><time>2026-04-25T10:13:41.003Z</time></trkpt><trkpt lat="45.92677098273316" lon="9.099107289923264"><ele>576.0</ele><time>2026-04-25T10:13:43.003Z</time></trkpt><trkpt lat="45.92678499678008" lon="9.099008285540073"><ele>576.0</ele><time>2026-04-25T10:13:44.003Z</time></trkpt><trkpt lat="45.92680610092493" lon="9.098918709363538"><ele>576.0</ele><time>2026-04-25T10:13:45.003Z</time></trkpt><trkpt lat="45.92682763642129" lon="9.098829353729778"><ele>576.0</ele><time>2026-04-25T10:13:46.003Z</time></trkpt><trkpt lat="45.92687719523711" lon="9.098657757843856"><ele>576.0</ele><time>2026-04-25T10:13:48.003Z</time></trkpt><trkpt lat="45.92690087028145" lon="9.098570845702623"><ele>576.6666666666666</ele><time>2026-04-25T10:13:49.003Z</time></trkpt><trkpt lat="45.926900757844685" lon="9.098477503692484"><ele>577.3333333333334</ele><time>2026-04-25T10:13:50.003Z</time></trkpt><trkpt lat="45.92689330500212" lon="9.098365852061404"><ele>578.0</ele><time>2026-04-25T10:13:51.003Z</time></trkpt><trkpt lat="45.92685120812827" lon="9.098266005908856"><ele>578.6666666666667</ele><time>2026-04-25T10:13:52.003Z</time></trkpt><trkpt lat="45.926814683257405" lon="9.098186872535337"><ele>579.3333333333334</ele><time>2026-04-25T10:13:53.003Z</time></trkpt><trkpt lat="45.92677862744337" lon="9.098033263751555"><ele>580.0</ele><time>2026-04-25T10:13:55.003Z</time></trkpt><trkpt lat="45.92680685465816" lon="9.097904734031246"><ele>581.6</ele><time>2026-04-25T10:13:57.003Z</time></trkpt><trkpt lat="45.92692349446071" lon="9.097879706703583"><ele>583.2</ele><time>2026-04-25T10:13:58.999Z</time></trkpt><trkpt lat="45.927003478931766" lon="9.097883589832566"><ele>584.8</ele><time>2026-04-25T10:13:59.999Z</time></trkpt><trkpt lat="45.9270881787065" lon="9.097863848667414"><ele>586.4</ele><time>2026-04-25T10:14:00.999Z</time></trkpt><trkpt lat="45.927173414006866" lon="9.097841588616298"><ele>588.0</ele><time>2026-04-25T10:14:01.999Z</time></trkpt><trkpt lat="45.92726452795226" lon="9.09782013840613"><ele>588.0</ele><time>2026-04-25T10:14:02.999Z</time></trkpt><trkpt lat="45.92735494677203" lon="9.097826794619932"><ele>588.0</ele><time>2026-04-25T10:14:03.999Z</time></trkpt><trkpt lat="45.92743701089206" lon="9.097853277872892"><ele>588.0</ele><time>2026-04-25T10:14:04.999Z</time></trkpt><trkpt lat="45.9275611961416" lon="9.097870679704872"><ele>588.0</ele><time>2026-04-25T10:14:06.999Z</time></trkpt><trkpt lat="45.92763380212696" lon="9.097853973170277"><ele>588.0</ele><time>2026-04-25T10:14:07.999Z</time></trkpt><trkpt lat="45.927709188318445" lon="9.097836632955621"><ele>588.0</ele><time>2026-04-25T10:14:08.999Z</time></trkpt><trkpt lat="45.9278069295085" lon="9.097756039793484"><ele>589.0</ele><time>2026-04-25T10:14:10.999Z</time></trkpt><trkpt lat="45.927830652337335" lon="9.09756196873129"><ele>590.0</ele><time>2026-04-25T10:14:12.999Z</time></trkpt><trkpt lat="45.927809530713915" lon="9.09744059303753"><ele>591.0</ele><time>2026-04-25T10:14:13.999Z</time></trkpt><trkpt lat="45.92777062937456" lon="9.09733214724736"><ele>592.0</ele><time>2026-04-25T10:14:14.999Z</time></trkpt><trkpt lat="45.927720729389016" lon="9.097221542830392"><ele>593.0</ele><time>2026-04-25T10:14:15.999Z</time></trkpt><trkpt lat="45.92766730438522" lon="9.097104580436417"><ele>593.0</ele><time>2026-04-25T10:14:16.999Z</time></trkpt><trkpt lat="45.927614087918556" lon="9.096979423353316"><ele>593.0</ele><time>2026-04-25T10:14:18Z</time></trkpt><trkpt lat="45.92756407945682" lon="9.096846980563907"><ele>593.0</ele><time>2026-04-25T10:14:19Z</time></trkpt><trkpt lat="45.92752900794929" lon="9.09672371493562"><ele>593.0</ele><time>2026-04-25T10:14:20Z</time></trkpt><trkpt lat="45.927505071507746" lon="9.096623525970273"><ele>593.0</ele><time>2026-04-25T10:14:21Z</time></trkpt><trkpt lat="45.927476161241195" lon="9.096526806386978"><ele>593.0</ele><time>2026-04-25T10:14:22Z</time></trkpt><trkpt lat="45.92747568618293" lon="9.096376995167844"><ele>594.3333333333333</ele><time>2026-04-25T10:14:24Z</time></trkpt><trkpt lat="45.92753157908969" lon="9.096284791767841"><ele>595.6666666666666</ele><time>2026-04-25T10:14:25Z</time></trkpt><trkpt lat="45.92759184387864" lon="9.096207109565333"><ele>597.0</ele><time>2026-04-25T10:14:26Z</time></trkpt><trkpt lat="45.92764666548466" lon="9.096108559853553"><ele>598.3333333333334</ele><time>2026-04-25T10:14:27Z</time></trkpt><trkpt lat="45.92769743066199" lon="9.096036812595084"><ele>599.6666666666667</ele><time>2026-04-25T10:14:28Z</time></trkpt><trkpt lat="45.9278012430097" lon="9.095962923080027"><ele>601.0</ele><time>2026-04-25T10:14:30Z</time></trkpt><trkpt lat="45.927874755927256" lon="9.095998496920783"><ele>599.4</ele><time>2026-04-25T10:14:31Z</time></trkpt><trkpt lat="45.9279479708293" lon="9.096074760815956"><ele>597.8</ele><time>2026-04-25T10:14:32Z</time></trkpt><trkpt lat="45.92802539049951" lon="9.096175611598294"><ele>596.1999999999999</ele><time>2026-04-25T10:14:33Z</time></trkpt><trkpt lat="45.92809977844716" lon="9.09630728360114"><ele>594.6</ele><time>2026-04-25T10:14:34Z</time></trkpt><trkpt lat="45.92816981799382" lon="9.09644985213323"><ele>593.0</ele><time>2026-04-25T10:14:35Z</time></trkpt><trkpt lat="45.92821538246112" lon="9.09658646870486"><ele>593.0</ele><time>2026-04-25T10:14:36Z</time></trkpt><trkpt lat="45.92824822390784" lon="9.096739837455598"><ele>593.0</ele><time>2026-04-25T10:14:37Z</time></trkpt><trkpt lat="45.92829172662733" lon="9.096875754808307"><ele>593.0</ele><time>2026-04-25T10:14:38Z</time></trkpt><trkpt lat="45.928347298414536" lon="9.096973200952286"><ele>593.0</ele><time>2026-04-25T10:14:39Z</time></trkpt><trkpt lat="45.92841506768575" lon="9.097037365895867"><ele>593.0</ele><time>2026-04-25T10:14:40.001Z</time></trkpt><trkpt lat="45.92849079140257" lon="9.09705757100849"><ele>595.5</ele><time>2026-04-25T10:14:41.001Z</time></trkpt><trkpt lat="45.928589348088934" lon="9.097049215367514"><ele>598.0</ele><time>2026-04-25T10:14:42.001Z</time></trkpt><trkpt lat="45.92869041933085" lon="9.097011636896786"><ele>600.5</ele><time>2026-04-25T10:14:43.001Z</time></trkpt><trkpt lat="45.92880566986056" lon="9.096971523004411"><ele>603.0</ele><time>2026-04-25T10:14:44.001Z</time></trkpt><trkpt lat="45.92894257230527" lon="9.096956869352107"><ele>603.0</ele><time>2026-04-25T10:14:45.001Z</time></trkpt><trkpt lat="45.92906940302604" lon="9.09695195834636"><ele>603.0</ele><time>2026-04-25T10:14:46.001Z</time></trkpt><trkpt lat="45.92916946723108" lon="9.09693676058417"><ele>603.0</ele><time>2026-04-25T10:14:47.001Z</time></trkpt><trkpt lat="45.929283463593045" lon="9.096925411394091"><ele>603.0</ele><time>2026-04-25T10:14:48.001Z</time></trkpt><trkpt lat="45.92940628306999" lon="9.096917897974983"><ele>600.8</ele><time>2026-04-25T10:14:49.001Z</time></trkpt><trkpt lat="45.929523871704056" lon="9.096927642055558"><ele>598.5999999999999</ele><time>2026-04-25T10:14:50.001Z</time></trkpt><trkpt lat="45.92963983722803" lon="9.096951059920944"><ele>596.4000000000001</ele><time>2026-04-25T10:14:51.001Z</time></trkpt><trkpt lat="45.929739348612756" lon="9.096949909056303"><ele>594.2</ele><time>2026-04-25T10:14:52.001Z</time></trkpt><trkpt lat="45.92982026183292" lon="9.096934648884158"><ele>592.0</ele><time>2026-04-25T10:14:53.001Z</time></trkpt><trkpt lat="45.929889851509195" lon="9.096914017150212"><ele>592.0</ele><time>2026-04-25T10:14:54.001Z</time></trkpt><trkpt lat="45.92994949848235" lon="9.096831190002773"><ele>592.0</ele><time>2026-04-25T10:14:56.001Z</time></trkpt><trkpt lat="45.929951542629304" lon="9.0966459494806"><ele>592.0</ele><time>2026-04-25T10:14:58.001Z</time></trkpt><trkpt lat="45.92996207672243" lon="9.09651392164556"><ele>592.0</ele><time>2026-04-25T10:14:59.001Z</time></trkpt><trkpt lat="45.92995696588412" lon="9.09637325353081"><ele>592.0</ele><time>2026-04-25T10:15:00.001Z</time></trkpt><trkpt lat="45.92997542941084" lon="9.096238022767224"><ele>594.5</ele><time>2026-04-25T10:15:01.001Z</time></trkpt><trkpt lat="45.92997883729385" lon="9.096120877079167"><ele>597.0</ele><time>2026-04-25T10:15:02.001Z</time></trkpt><trkpt lat="45.92997867908808" lon="9.096012156837245"><ele>599.5</ele><time>2026-04-25T10:15:03.001Z</time></trkpt><trkpt lat="45.929967226260054" lon="9.095906066724345"><ele>602.0</ele><time>2026-04-25T10:15:04.001Z</time></trkpt><trkpt lat="45.92994466648572" lon="9.095792159997501"><ele>604.5</ele><time>2026-04-25T10:15:06.001Z</time></trkpt><trkpt lat="45.93000187460798" lon="9.095736711702711"><ele>607.0</ele><time>2026-04-25T10:15:10.002Z</time></trkpt><trkpt lat="45.93007307461032" lon="9.095737550797887"><ele>606.4</ele><time>2026-04-25T10:15:11.002Z</time></trkpt><trkpt lat="45.930156667461624" lon="9.095736926501296"><ele>605.8000000000001</ele><time>2026-04-25T10:15:12.002Z</time></trkpt><trkpt lat="45.930260503701625" lon="9.095745843508908"><ele>605.2</ele><time>2026-04-25T10:15:13.002Z</time></trkpt><trkpt lat="45.93035639960208" lon="9.095759469039281"><ele>604.6</ele><time>2026-04-25T10:15:14.002Z</time></trkpt><trkpt lat="45.9304602320392" lon="9.095772409965624"><ele>604.0</ele><time>2026-04-25T10:15:15.002Z</time></trkpt><trkpt lat="45.93057561492024" lon="9.095792105655757"><ele>604.0</ele><time>2026-04-25T10:15:16.002Z</time></trkpt><trkpt lat="45.93069373963083" lon="9.09583185978725"><ele>604.0</ele><time>2026-04-25T10:15:17.002Z</time></trkpt><trkpt lat="45.93081674324029" lon="9.095882960092428"><ele>604.0</ele><time>2026-04-25T10:15:18.002Z</time></trkpt><trkpt lat="45.93093535440132" lon="9.095927590875881"><ele>604.0</ele><time>2026-04-25T10:15:19.002Z</time></trkpt><trkpt lat="45.9310483205555" lon="9.095969673707012"><ele>604.25</ele><time>2026-04-25T10:15:20.002Z</time></trkpt><trkpt lat="45.9311671120431" lon="9.096002767258815"><ele>604.5</ele><time>2026-04-25T10:15:21.002Z</time></trkpt><trkpt lat="45.931290623105795" lon="9.096016728500055"><ele>604.75</ele><time>2026-04-25T10:15:22.002Z</time></trkpt><trkpt lat="45.9314121850704" lon="9.096008352087098"><ele>605.0</ele><time>2026-04-25T10:15:23.002Z</time></trkpt><trkpt lat="45.93153103311499" lon="9.09598628248066"><ele>605.0</ele><time>2026-04-25T10:15:24.002Z</time></trkpt><trkpt lat="45.93165617996654" lon="9.095963383203502"><ele>605.0</ele><time>2026-04-25T10:15:25.002Z</time></trkpt><trkpt lat="45.93177658614568" lon="9.095945376161653"><ele>605.0</ele><time>2026-04-25T10:15:26.002Z</time></trkpt><trkpt lat="45.93188881495155" lon="9.095941477847452"><ele>605.0</ele><time>2026-04-25T10:15:27.002Z</time></trkpt><trkpt lat="45.93200184149275" lon="9.095953248089426"><ele>606.0</ele><time>2026-04-25T10:15:28.002Z</time></trkpt><trkpt lat="45.93211972415595" lon="9.095988679954287"><ele>607.0</ele><time>2026-04-25T10:15:29.002Z</time></trkpt><trkpt lat="45.93224652679994" lon="9.096025747964596"><ele>608.0</ele><time>2026-04-25T10:15:30.002Z</time></trkpt><trkpt lat="45.93237005254651" lon="9.096063723603137"><ele>609.0</ele><time>2026-04-25T10:15:31.002Z</time></trkpt><trkpt lat="45.932497609781024" lon="9.09610345245723"><ele>613.25</ele><time>2026-04-25T10:15:32.002Z</time></trkpt><trkpt lat="45.93261409564472" lon="9.096141757496367"><ele>617.5</ele><time>2026-04-25T10:15:33.002Z</time></trkpt><trkpt lat="45.932726843370105" lon="9.09620477640297"><ele>621.75</ele><time>2026-04-25T10:15:34.002Z</time></trkpt><trkpt lat="45.93282759779915" lon="9.09628656235594"><ele>626.0</ele><time>2026-04-25T10:15:35.002Z</time></trkpt><trkpt lat="45.93293406553872" lon="9.096367984791854"><ele>626.0</ele><time>2026-04-25T10:15:36.002Z</time></trkpt><trkpt lat="45.933052666115465" lon="9.096432630071181"><ele>626.0</ele><time>2026-04-25T10:15:37.002Z</time></trkpt><trkpt lat="45.93318588557493" lon="9.0964816854677"><ele>626.0</ele><time>2026-04-25T10:15:38.002Z</time></trkpt><trkpt lat="45.933314378154606" lon="9.096523965842456"><ele>626.0</ele><time>2026-04-25T10:15:39.002Z</time></trkpt><trkpt lat="45.93343201520757" lon="9.096558937510311"><ele>623.0</ele><time>2026-04-25T10:15:40.002Z</time></trkpt><trkpt lat="45.933532958589346" lon="9.096604198245851"><ele>620.0</ele><time>2026-04-25T10:15:41.002Z</time></trkpt><trkpt lat="45.93361703822412" lon="9.09667566178854"><ele>617.0</ele><time>2026-04-25T10:15:42.002Z</time></trkpt><trkpt lat="45.933688179226834" lon="9.096770538026515"><ele>614.0</ele><time>2026-04-25T10:15:43.003Z</time></trkpt><trkpt lat="45.9337581557544" lon="9.09686665038922"><ele>611.0</ele><time>2026-04-25T10:15:44.003Z</time></trkpt><trkpt lat="45.93384240065746" lon="9.096933718091602"><ele>611.0</ele><time>2026-04-25T10:15:45.003Z</time></trkpt><trkpt lat="45.93393142228424" lon="9.096969051066434"><ele>611.0</ele><time>2026-04-25T10:15:46.003Z</time></trkpt><trkpt lat="45.93401667971324" lon="9.096992608051035"><ele>611.0</ele><time>2026-04-25T10:15:47.003Z</time></trkpt><trkpt lat="45.93411541317017" lon="9.097004632002804"><ele>611.0</ele><time>2026-04-25T10:15:48.003Z</time></trkpt><trkpt lat="45.93422347432974" lon="9.096991574754066"><ele>611.0</ele><time>2026-04-25T10:15:49.003Z</time></trkpt><trkpt lat="45.934336718725234" lon="9.09697525492925"><ele>607.0</ele><time>2026-04-25T10:15:50.003Z</time></trkpt><trkpt lat="45.93446281872325" lon="9.096951664551154"><ele>603.0</ele><time>2026-04-25T10:15:51.003Z</time></trkpt><trkpt lat="45.934584751632386" lon="9.096930346918283"><ele>599.0</ele><time>2026-04-25T10:15:52.003Z</time></trkpt><trkpt lat="45.934688451536275" lon="9.096903905820993"><ele>595.0</ele><time>2026-04-25T10:15:53.003Z</time></trkpt><trkpt lat="45.934777193864825" lon="9.096873099677081"><ele>591.0</ele><time>2026-04-25T10:15:54.003Z</time></trkpt><trkpt lat="45.934857377409884" lon="9.096784786444788"><ele>591.0</ele><time>2026-04-25T10:15:55.003Z</time></trkpt><trkpt lat="45.93493452712078" lon="9.096658897879994"><ele>591.0</ele><time>2026-04-25T10:15:56.003Z</time></trkpt><trkpt lat="45.935031886332986" lon="9.09653125489459"><ele>591.0</ele><time>2026-04-25T10:15:57.003Z</time></trkpt><trkpt lat="45.935134783664154" lon="9.096395755952498"><ele>591.0</ele><time>2026-04-25T10:15:58.003Z</time></trkpt><trkpt lat="45.93523140613082" lon="9.096282748899757"><ele>589.4</ele><time>2026-04-25T10:15:59.003Z</time></trkpt><trkpt lat="45.9353184157697" lon="9.096200843511424"><ele>587.8</ele><time>2026-04-25T10:16:00.003Z</time></trkpt><trkpt lat="45.93541235952255" lon="9.0961541015708"><ele>586.1999999999999</ele><time>2026-04-25T10:16:01.003Z</time></trkpt><trkpt lat="45.9354974613766" lon="9.096119553974974"><ele>584.6</ele><time>2026-04-25T10:16:02.003Z</time></trkpt><trkpt lat="45.93557795806409" lon="9.096092886280582"><ele>583.0</ele><time>2026-04-25T10:16:03.003Z</time></trkpt><trkpt lat="45.93580862703436" lon="9.095861348678408"><ele>582.1999999999999</ele><time>2026-04-25T10:16:03.998Z</time></trkpt><trkpt lat="45.93589654846762" lon="9.095787624084773"><ele>581.4</ele><time>2026-04-25T10:16:04.998Z</time></trkpt><trkpt lat="45.93595453240524" lon="9.095682602020206"><ele>580.5999999999999</ele><time>2026-04-25T10:16:05.999Z</time></trkpt><trkpt lat="45.93600413502456" lon="9.095541538640497"><ele>579.8</ele><time>2026-04-25T10:16:06.999Z</time></trkpt><trkpt lat="45.93605223746511" lon="9.095391085070233"><ele>579.0</ele><time>2026-04-25T10:16:07.999Z</time></trkpt><trkpt lat="45.93610610423045" lon="9.095248058996042"><ele>579.0</ele><time>2026-04-25T10:16:08.999Z</time></trkpt><trkpt lat="45.93618399457194" lon="9.095142077961945"><ele>579.0</ele><time>2026-04-25T10:16:09.999Z</time></trkpt><trkpt lat="45.93627009711259" lon="9.095065618045851"><ele>579.0</ele><time>2026-04-25T10:16:10.999Z</time></trkpt><trkpt lat="45.93635996828588" lon="9.094967376499065"><ele>579.0</ele><time>2026-04-25T10:16:11.999Z</time></trkpt><trkpt lat="45.93645241077755" lon="9.094877345521805"><ele>579.0</ele><time>2026-04-25T10:16:12.999Z</time></trkpt><trkpt lat="45.93653652503367" lon="9.094788295592654"><ele>578.5</ele><time>2026-04-25T10:16:13.999Z</time></trkpt><trkpt lat="45.936633767906876" lon="9.094694996785064"><ele>578.0</ele><time>2026-04-25T10:16:14.999Z</time></trkpt><trkpt lat="45.936742801662476" lon="9.094599468571046"><ele>577.5</ele><time>2026-04-25T10:16:15.999Z</time></trkpt><trkpt lat="45.93683731262139" lon="9.094490632660932"><ele>577.0</ele><time>2026-04-25T10:16:16.999Z</time></trkpt><trkpt lat="45.93694218271137" lon="9.0943647381316"><ele>577.0</ele><time>2026-04-25T10:16:17.999Z</time></trkpt><trkpt lat="45.937039243909254" lon="9.09423665543121"><ele>577.0</ele><time>2026-04-25T10:16:18.999Z</time></trkpt><trkpt lat="45.93714692544192" lon="9.09415974590753"><ele>577.0</ele><time>2026-04-25T10:16:19.999Z</time></trkpt><trkpt lat="45.937260708049244" lon="9.094091161568489"><ele>577.0</ele><time>2026-04-25T10:16:20.999Z</time></trkpt><trkpt lat="45.937378299860114" lon="9.094010947447272"><ele>574.0</ele><time>2026-04-25T10:16:21.999Z</time></trkpt><trkpt lat="45.93751213666271" lon="9.093927453033961"><ele>571.0</ele><time>2026-04-25T10:16:23Z</time></trkpt><trkpt lat="45.93762019225004" lon="9.093845487676536"><ele>568.0</ele><time>2026-04-25T10:16:24Z</time></trkpt><trkpt lat="45.937726533575486" lon="9.093769303222118"><ele>565.0</ele><time>2026-04-25T10:16:25Z</time></trkpt><trkpt lat="45.937822087496215" lon="9.093680419985294"><ele>565.0</ele><time>2026-04-25T10:16:26Z</time></trkpt><trkpt lat="45.93788235577435" lon="9.093593282475922"><ele>565.0</ele><time>2026-04-25T10:16:27Z</time></trkpt><trkpt lat="45.93793795451841" lon="9.093348347638566"><ele>565.0</ele><time>2026-04-25T10:16:29Z</time></trkpt><trkpt lat="45.937951108820776" lon="9.093191017070858"><ele>565.0</ele><time>2026-04-25T10:16:30Z</time></trkpt><trkpt lat="45.93799229585797" lon="9.09301546739786"><ele>569.75</ele><time>2026-04-25T10:16:31Z</time></trkpt><trkpt lat="45.93802375918263" lon="9.09288323926395"><ele>574.5</ele><time>2026-04-25T10:16:32Z</time></trkpt><trkpt lat="45.93809981533519" lon="9.092779543012403"><ele>579.25</ele><time>2026-04-25T10:16:33Z</time></trkpt><trkpt lat="45.93820709695861" lon="9.092694296229682"><ele>584.0</ele><time>2026-04-25T10:16:34Z</time></trkpt><trkpt lat="45.93832095430185" lon="9.092612451084662"><ele>572.5</ele><time>2026-04-25T10:16:35Z</time></trkpt><trkpt lat="45.93840535411073" lon="9.092519079198158"><ele>561.0</ele><time>2026-04-25T10:16:36Z</time></trkpt><trkpt lat="45.93847305559633" lon="9.092391101641665"><ele>549.5</ele><time>2026-04-25T10:16:37Z</time></trkpt><trkpt lat="45.93851678310471" lon="9.092222382318033"><ele>538.0</ele><time>2026-04-25T10:16:38Z</time></trkpt><trkpt lat="45.938553751910085" lon="9.092029638709791"><ele>537.25</ele><time>2026-04-25T10:16:39Z</time></trkpt><trkpt lat="45.938597269125644" lon="9.091844657711821"><ele>536.5</ele><time>2026-04-25T10:16:40Z</time></trkpt><trkpt lat="45.93863541879951" lon="9.091672629666784"><ele>535.75</ele><time>2026-04-25T10:16:41Z</time></trkpt><trkpt lat="45.938664688570576" lon="9.091520301572979"><ele>535.0</ele><time>2026-04-25T10:16:42Z</time></trkpt><trkpt lat="45.93866491287943" lon="9.091351927305418"><ele>534.75</ele><time>2026-04-25T10:16:43.001Z</time></trkpt><trkpt lat="45.938640569346035" lon="9.091154124558765"><ele>534.5</ele><time>2026-04-25T10:16:44.001Z</time></trkpt><trkpt lat="45.93861093873266" lon="9.090963152694663"><ele>534.25</ele><time>2026-04-25T10:16:45.001Z</time></trkpt><trkpt lat="45.93857619160648" lon="9.090785413725378"><ele>534.0</ele><time>2026-04-25T10:16:46.001Z</time></trkpt><trkpt lat="45.938548277628065" lon="9.090622247665829"><ele>534.8</ele><time>2026-04-25T10:16:47.001Z</time></trkpt><trkpt lat="45.938543751701054" lon="9.090489080194683"><ele>535.5999999999999</ele><time>2026-04-25T10:16:48.001Z</time></trkpt><trkpt lat="45.938588583902124" lon="9.090353286552103"><ele>536.4</ele><time>2026-04-25T10:16:49.001Z</time></trkpt><trkpt lat="45.938627809685116" lon="9.090207219407871"><ele>537.1999999999999</ele><time>2026-04-25T10:16:50.001Z</time></trkpt><trkpt lat="45.9386620252591" lon="9.090044440214752"><ele>538.0</ele><time>2026-04-25T10:16:51.001Z</time></trkpt><trkpt lat="45.93864737627531" lon="9.08986094636904"><ele>538.25</ele><time>2026-04-25T10:16:52.001Z</time></trkpt><trkpt lat="45.93862942035058" lon="9.089679848949835"><ele>538.5</ele><time>2026-04-25T10:16:53.001Z</time></trkpt><trkpt lat="45.93862547825238" lon="9.089495002010427"><ele>538.75</ele><time>2026-04-25T10:16:54.001Z</time></trkpt><trkpt lat="45.93862546874687" lon="9.08933962864207"><ele>539.0</ele><time>2026-04-25T10:16:55.001Z</time></trkpt><trkpt lat="45.938649760176986" lon="9.089202361922675"><ele>540.0</ele><time>2026-04-25T10:16:56.001Z</time></trkpt><trkpt lat="45.938701003845395" lon="9.089068147556102"><ele>541.0</ele><time>2026-04-25T10:16:57.001Z</time></trkpt><trkpt lat="45.93877220931474" lon="9.088945622024909"><ele>542.0</ele><time>2026-04-25T10:16:58.001Z</time></trkpt><trkpt lat="45.93883300362285" lon="9.08882435388059"><ele>543.0</ele><time>2026-04-25T10:16:59.001Z</time></trkpt><trkpt lat="45.93887631645626" lon="9.088702785851257"><ele>544.0</ele><time>2026-04-25T10:17:00.001Z</time></trkpt><trkpt lat="45.938878128722614" lon="9.088568654646375"><ele>544.0</ele><time>2026-04-25T10:17:01.001Z</time></trkpt><trkpt lat="45.9388428474448" lon="9.088402376309126"><ele>544.0</ele><time>2026-04-25T10:17:02.001Z</time></trkpt><trkpt lat="45.938805245348036" lon="9.088235416228134"><ele>544.0</ele><time>2026-04-25T10:17:03.001Z</time></trkpt><trkpt lat="45.93880160317883" lon="9.08808916264542"><ele>544.0</ele><time>2026-04-25T10:17:04.001Z</time></trkpt><trkpt lat="45.9388160313194" lon="9.087922542713766"><ele>546.0</ele><time>2026-04-25T10:17:05.001Z</time></trkpt><trkpt lat="45.93883467991613" lon="9.087766918884915"><ele>548.0</ele><time>2026-04-25T10:17:06.001Z</time></trkpt><trkpt lat="45.93884608756406" lon="9.087604521464586"><ele>550.0</ele><time>2026-04-25T10:17:07.001Z</time></trkpt><trkpt lat="45.9389021483461" lon="9.087450082402219"><ele>552.0</ele><time>2026-04-25T10:17:08.001Z</time></trkpt><trkpt lat="45.93895311239148" lon="9.087296832790495"><ele>555.0</ele><time>2026-04-25T10:17:09.001Z</time></trkpt><trkpt lat="45.93898034378972" lon="9.087152194299414"><ele>558.0</ele><time>2026-04-25T10:17:10.001Z</time></trkpt><trkpt lat="45.93898613443468" lon="9.087012641612505"><ele>561.0</ele><time>2026-04-25T10:17:11.001Z</time></trkpt><trkpt lat="45.93900103722706" lon="9.086866908013377"><ele>564.0</ele><time>2026-04-25T10:17:12.002Z</time></trkpt><trkpt lat="45.9390028369455" lon="9.086731883842683"><ele>567.0</ele><time>2026-04-25T10:17:13.002Z</time></trkpt><trkpt lat="45.939062314708906" lon="9.086598722652633"><ele>567.25</ele><time>2026-04-25T10:17:14.002Z</time></trkpt><trkpt lat="45.93914403978768" lon="9.086457954682377"><ele>567.5</ele><time>2026-04-25T10:17:15.002Z</time></trkpt><trkpt lat="45.939209844694915" lon="9.086280200061218"><ele>567.75</ele><time>2026-04-25T10:17:16.002Z</time></trkpt><trkpt lat="45.939286266059895" lon="9.0861327409481"><ele>568.0</ele><time>2026-04-25T10:17:17.002Z</time></trkpt><trkpt lat="45.93933797452865" lon="9.085996488740761"><ele>568.0</ele><time>2026-04-25T10:17:18.002Z</time></trkpt><trkpt lat="45.939369798847444" lon="9.085838032008148"><ele>568.0</ele><time>2026-04-25T10:17:19.002Z</time></trkpt><trkpt lat="45.93942129424284" lon="9.085739924034502"><ele>568.0</ele><time>2026-04-25T10:17:20.002Z</time></trkpt><trkpt lat="45.93949364382508" lon="9.085636450204216"><ele>568.0</ele><time>2026-04-25T10:17:22.002Z</time></trkpt><trkpt lat="45.93956053475336" lon="9.08563669336218"><ele>568.0</ele><time>2026-04-25T10:17:23.002Z</time></trkpt><trkpt lat="45.93966097743305" lon="9.085624205446585"><ele>568.0</ele><time>2026-04-25T10:17:24.002Z</time></trkpt><trkpt lat="45.939743347444164" lon="9.085610655930836"><ele>568.0</ele><time>2026-04-25T10:17:25.002Z</time></trkpt><trkpt lat="45.93983365334217" lon="9.085615914252957"><ele>568.0</ele><time>2026-04-25T10:17:26.002Z</time></trkpt><trkpt lat="45.93988952185357" lon="9.085688865208093"><ele>568.0</ele><time>2026-04-25T10:17:27.002Z</time></trkpt><trkpt lat="45.93991924105243" lon="9.085829663414788"><ele>568.0</ele><time>2026-04-25T10:17:28.002Z</time></trkpt><trkpt lat="45.93997426476252" lon="9.085982289770852"><ele>568.0</ele><time>2026-04-25T10:17:29.002Z</time></trkpt><trkpt lat="45.94003257773709" lon="9.086151653845052"><ele>568.0</ele><time>2026-04-25T10:17:30.002Z</time></trkpt><trkpt lat="45.94009743979899" lon="9.08629751614536"><ele>568.0</ele><time>2026-04-25T10:17:31.002Z</time></trkpt><trkpt lat="45.94017275702841" lon="9.0864314746757"><ele>568.0</ele><time>2026-04-25T10:17:32.002Z</time></trkpt><trkpt lat="45.94027665582577" lon="9.086574212285344"><ele>571.25</ele><time>2026-04-25T10:17:33.002Z</time></trkpt><trkpt lat="45.940404732854105" lon="9.086718377558814"><ele>574.5</ele><time>2026-04-25T10:17:34.002Z</time></trkpt><trkpt lat="45.940479203453656" lon="9.086866270075788"><ele>577.75</ele><time>2026-04-25T10:17:35.002Z</time></trkpt><trkpt lat="45.940544261581" lon="9.087007214291575"><ele>581.0</ele><time>2026-04-25T10:17:36.002Z</time></trkpt><trkpt lat="45.9406074935093" lon="9.087158715353683"><ele>581.0</ele><time>2026-04-25T10:17:37.002Z</time></trkpt><trkpt lat="45.940685381508466" lon="9.087294673177366"><ele>581.0</ele><time>2026-04-25T10:17:38.002Z</time></trkpt><trkpt lat="45.940755703446726" lon="9.087449122998448"><ele>581.0</ele><time>2026-04-25T10:17:39.002Z</time></trkpt><trkpt lat="45.94083782957603" lon="9.087604308350164"><ele>581.0</ele><time>2026-04-25T10:17:40.002Z</time></trkpt><trkpt lat="45.940923825811225" lon="9.087757376014464"><ele>580.25</ele><time>2026-04-25T10:17:41.002Z</time></trkpt><trkpt lat="45.941008377295994" lon="9.087907046094271"><ele>579.5</ele><time>2026-04-25T10:17:42.002Z</time></trkpt><trkpt lat="45.94108657755782" lon="9.088041559748742"><ele>578.75</ele><time>2026-04-25T10:17:43.002Z</time></trkpt><trkpt lat="45.94115818258497" lon="9.08817178942545"><ele>578.0</ele><time>2026-04-25T10:17:44.003Z</time></trkpt><trkpt lat="45.94122977733261" lon="9.088287652896392"><ele>574.0</ele><time>2026-04-25T10:17:45.003Z</time></trkpt><trkpt lat="45.94129341987201" lon="9.088392632310857"><ele>570.0</ele><time>2026-04-25T10:17:46.003Z</time></trkpt><trkpt lat="45.94137517156467" lon="9.088468852201624"><ele>566.0</ele><time>2026-04-25T10:17:47.003Z</time></trkpt><trkpt lat="45.941490863946605" lon="9.088522595117016"><ele>562.0</ele><time>2026-04-25T10:17:48.003Z</time></trkpt><trkpt lat="45.941617311397756" lon="9.088585444691192"><ele>561.4</ele><time>2026-04-25T10:17:49.003Z</time></trkpt><trkpt lat="45.941724781852535" lon="9.088622511140922"><ele>560.8000000000001</ele><time>2026-04-25T10:17:50.003Z</time></trkpt><trkpt lat="45.94182218701491" lon="9.088670130966484"><ele>560.2</ele><time>2026-04-25T10:17:51.003Z</time></trkpt><trkpt lat="45.94191691226079" lon="9.088702751880211"><ele>559.6</ele><time>2026-04-25T10:17:52.003Z</time></trkpt><trkpt lat="45.94200579537638" lon="9.088701081809093"><ele>559.0</ele><time>2026-04-25T10:17:53.003Z</time></trkpt><trkpt lat="45.94209397111163" lon="9.08865453496922"><ele>559.0</ele><time>2026-04-25T10:17:54.003Z</time></trkpt><trkpt lat="45.9421927171353" lon="9.088559729838488"><ele>559.0</ele><time>2026-04-25T10:17:55.003Z</time></trkpt><trkpt lat="45.94229299971741" lon="9.088443942000579"><ele>559.0</ele><time>2026-04-25T10:17:56.003Z</time></trkpt><trkpt lat="45.942390711001394" lon="9.08835167316431"><ele>559.0</ele><time>2026-04-25T10:17:57.003Z</time></trkpt><trkpt lat="45.94249538798119" lon="9.088329694037755"><ele>558.0</ele><time>2026-04-25T10:17:58.003Z</time></trkpt><trkpt lat="45.94256152425742" lon="9.088260144394958"><ele>557.0</ele><time>2026-04-25T10:17:59.003Z</time></trkpt><trkpt lat="45.942650943116455" lon="9.088270994074753"><ele>556.0</ele><time>2026-04-25T10:18:19.999Z</time></trkpt><trkpt lat="45.942730561756804" lon="9.088289589247944"><ele>555.0</ele><time>2026-04-25T10:18:21Z</time></trkpt><trkpt lat="45.94279792311873" lon="9.088281462621255"><ele>554.0</ele><time>2026-04-25T10:18:22Z</time></trkpt><trkpt lat="45.94290245669639" lon="9.088255934004511"><ele>553.0</ele><time>2026-04-25T10:18:24Z</time></trkpt><trkpt lat="45.94301754486116" lon="9.088229556821883"><ele>554.6666666666667</ele><time>2026-04-25T10:18:26Z</time></trkpt><trkpt lat="45.943086744283" lon="9.088197634444938"><ele>556.3333333333334</ele><time>2026-04-25T10:18:27Z</time></trkpt><trkpt lat="45.94318000696275" lon="9.088111234761046"><ele>558.0</ele><time>2026-04-25T10:18:28Z</time></trkpt><trkpt lat="45.94325833338342" lon="9.088058686814563"><ele>559.6666666666666</ele><time>2026-04-25T10:18:29Z</time></trkpt><trkpt lat="45.943338877302864" lon="9.087997577152088"><ele>561.3333333333333</ele><time>2026-04-25T10:18:30Z</time></trkpt><trkpt lat="45.94340356393495" lon="9.087918903201508"><ele>563.0</ele><time>2026-04-25T10:18:31Z</time></trkpt><trkpt lat="45.94346263728202" lon="9.087856860356613"><ele>563.0</ele><time>2026-04-25T10:18:32Z</time></trkpt><trkpt lat="45.943531660598524" lon="9.08777394553714"><ele>563.0</ele><time>2026-04-25T10:18:33Z</time></trkpt><trkpt lat="45.943615997746655" lon="9.08774374057543"><ele>563.0</ele><time>2026-04-25T10:18:34Z</time></trkpt><trkpt lat="45.943711909346206" lon="9.087704182177935"><ele>563.0</ele><time>2026-04-25T10:18:35Z</time></trkpt><trkpt lat="45.94381432631945" lon="9.087678817334401"><ele>563.0</ele><time>2026-04-25T10:18:36Z</time></trkpt><trkpt lat="45.94391193598642" lon="9.087655414835934"><ele>563.0</ele><time>2026-04-25T10:18:37Z</time></trkpt><trkpt lat="45.94401850434432" lon="9.087629696578032"><ele>563.0</ele><time>2026-04-25T10:18:38Z</time></trkpt><trkpt lat="45.94410754869738" lon="9.087606816690808"><ele>563.0</ele><time>2026-04-25T10:18:39Z</time></trkpt><trkpt lat="45.94420640962296" lon="9.087581414451137"><ele>563.0</ele><time>2026-04-25T10:18:40Z</time></trkpt><trkpt lat="45.94430591930375" lon="9.087555845499713"><ele>563.0</ele><time>2026-04-25T10:18:41Z</time></trkpt><trkpt lat="45.94440617751063" lon="9.08753008421457"><ele>562.4</ele><time>2026-04-25T10:18:42.001Z</time></trkpt><trkpt lat="45.944511670345115" lon="9.087503167548558"><ele>561.8</ele><time>2026-04-25T10:18:43.001Z</time></trkpt><trkpt lat="45.94461974792592" lon="9.087475671285176"><ele>561.2</ele><time>2026-04-25T10:18:44.001Z</time></trkpt><trkpt lat="45.94472798847269" lon="9.087426176612187"><ele>560.6</ele><time>2026-04-25T10:18:45.001Z</time></trkpt><trkpt lat="45.94484375263681" lon="9.087415686579291"><ele>560.0</ele><time>2026-04-25T10:18:46.001Z</time></trkpt><trkpt lat="45.944953875003016" lon="9.087347201771346"><ele>561.6</ele><time>2026-04-25T10:18:47.001Z</time></trkpt><trkpt lat="45.945064886969284" lon="9.087299211025039"><ele>563.2</ele><time>2026-04-25T10:18:48.001Z</time></trkpt><trkpt lat="45.945173819997905" lon="9.087246243306106"><ele>564.8</ele><time>2026-04-25T10:18:49.001Z</time></trkpt><trkpt lat="45.94527328836769" lon="9.08721901625545"><ele>566.4</ele><time>2026-04-25T10:18:50.001Z</time></trkpt><trkpt lat="45.94535191308821" lon="9.087173970192568"><ele>568.0</ele><time>2026-04-25T10:18:51.001Z</time></trkpt><trkpt lat="45.94541818609286" lon="9.087118632352365"><ele>568.0</ele><time>2026-04-25T10:18:52.001Z</time></trkpt><trkpt lat="45.94548835855427" lon="9.087105732987606"><ele>568.0</ele><time>2026-04-25T10:18:53.001Z</time></trkpt><trkpt lat="45.945601901714035" lon="9.087139343877125"><ele>568.0</ele><time>2026-04-25T10:18:55.001Z</time></trkpt><trkpt lat="45.94565695477974" lon="9.087204224454343"><ele>568.0</ele><time>2026-04-25T10:18:56.001Z</time></trkpt><trkpt lat="45.94570788104137" lon="9.08730569994674"><ele>568.0</ele><time>2026-04-25T10:18:57.001Z</time></trkpt><trkpt lat="45.945749017105456" lon="9.087432849024212"><ele>568.0</ele><time>2026-04-25T10:18:58.001Z</time></trkpt><trkpt lat="45.94580822377787" lon="9.087546157443082"><ele>568.6666666666667</ele><time>2026-04-25T10:18:59.001Z</time></trkpt><trkpt lat="45.94585452073417" lon="9.087671524952878"><ele>569.3333333333334</ele><time>2026-04-25T10:19:00.001Z</time></trkpt><trkpt lat="45.94592933073346" lon="9.087769132207088"><ele>570.0</ele><time>2026-04-25T10:19:01.001Z</time></trkpt><trkpt lat="45.94599612544868" lon="9.087851758595713"><ele>570.6666666666666</ele><time>2026-04-25T10:19:02.001Z</time></trkpt><trkpt lat="45.9460537366254" lon="9.087924597820853"><ele>571.3333333333333</ele><time>2026-04-25T10:19:03.001Z</time></trkpt><trkpt lat="45.946104461202225" lon="9.087995994510008"><ele>572.0</ele><time>2026-04-25T10:19:04.001Z</time></trkpt><trkpt lat="45.94615810457916" lon="9.088071499514621"><ele>572.0</ele><time>2026-04-25T10:19:05.001Z</time></trkpt><trkpt lat="45.94620333857776" lon="9.08813516800782"><ele>572.0</ele><time>2026-04-25T10:19:06.001Z</time></trkpt><trkpt lat="45.94626599302913" lon="9.088218156798062"><ele>572.0</ele><time>2026-04-25T10:19:07.001Z</time></trkpt><trkpt lat="45.946321650679025" lon="9.088286842792337"><ele>572.0</ele><time>2026-04-25T10:19:08.001Z</time></trkpt><trkpt lat="45.94640100407224" lon="9.088367619409183"><ele>572.0</ele><time>2026-04-25T10:19:09.001Z</time></trkpt><trkpt lat="45.94647905322375" lon="9.088444013608164"><ele>572.0</ele><time>2026-04-25T10:19:10.001Z</time></trkpt><trkpt lat="45.946554296597625" lon="9.088540595388029"><ele>572.8333333333333</ele><time>2026-04-25T10:19:11.001Z</time></trkpt><trkpt lat="45.94661807315763" lon="9.088624499278454"><ele>573.6666666666666</ele><time>2026-04-25T10:19:12.002Z</time></trkpt><trkpt lat="45.94668378849186" lon="9.088675227759037"><ele>574.5</ele><time>2026-04-25T10:19:13.002Z</time></trkpt><trkpt lat="45.94673415643847" lon="9.088756076610457"><ele>575.3333333333334</ele><time>2026-04-25T10:19:14.002Z</time></trkpt><trkpt lat="45.946821303121595" lon="9.088780278356559"><ele>576.1666666666667</ele><time>2026-04-25T10:19:15.002Z</time></trkpt><trkpt lat="45.94690845113606" lon="9.0888132564725"><ele>577.0</ele><time>2026-04-25T10:19:16.002Z</time></trkpt><trkpt lat="45.94699889652588" lon="9.088854466928339"><ele>577.0</ele><time>2026-04-25T10:19:17.002Z</time></trkpt><trkpt lat="45.947080798021176" lon="9.088936530306917"><ele>577.0</ele><time>2026-04-25T10:19:18.002Z</time></trkpt><trkpt lat="45.94718451943724" lon="9.088995970823271"><ele>577.0</ele><time>2026-04-25T10:19:19.002Z</time></trkpt><trkpt lat="45.94728137333111" lon="9.089084229906227"><ele>577.0</ele><time>2026-04-25T10:19:20.002Z</time></trkpt><trkpt lat="45.94738756529758" lon="9.089176531381026"><ele>575.5</ele><time>2026-04-25T10:19:21.002Z</time></trkpt><trkpt lat="45.94749392650832" lon="9.089276612531442"><ele>574.0</ele><time>2026-04-25T10:19:22.002Z</time></trkpt><trkpt lat="45.947593515140866" lon="9.089388202295602"><ele>572.5</ele><time>2026-04-25T10:19:23.002Z</time></trkpt><trkpt lat="45.94768774144613" lon="9.089487841343397"><ele>571.0</ele><time>2026-04-25T10:19:24.002Z</time></trkpt><trkpt lat="45.94779123857304" lon="9.089579426042262"><ele>574.25</ele><time>2026-04-25T10:19:25.002Z</time></trkpt><trkpt lat="45.947898958910905" lon="9.089683154628199"><ele>577.5</ele><time>2026-04-25T10:19:26.002Z</time></trkpt><trkpt lat="45.94802782745156" lon="9.089724103611884"><ele>580.75</ele><time>2026-04-25T10:19:27.002Z</time></trkpt><trkpt lat="45.948151834346696" lon="9.089769018786855"><ele>584.0</ele><time>2026-04-25T10:19:28.002Z</time></trkpt><trkpt lat="45.9482501243767" lon="9.08977578114183"><ele>584.4</ele><time>2026-04-25T10:19:29.002Z</time></trkpt><trkpt lat="45.94837938745073" lon="9.089766045022122"><ele>584.8</ele><time>2026-04-25T10:19:30.002Z</time></trkpt><trkpt lat="45.94849022771243" lon="9.089718391530091"><ele>585.2</ele><time>2026-04-25T10:19:31.002Z</time></trkpt><trkpt lat="45.94856176645393" lon="9.089659346140538"><ele>585.6</ele><time>2026-04-25T10:19:32.002Z</time></trkpt><trkpt lat="45.94865974603192" lon="9.089623887906496"><ele>586.0</ele><time>2026-04-25T10:19:33.002Z</time></trkpt><trkpt lat="45.94876838071488" lon="9.089590163162043"><ele>586.0</ele><time>2026-04-25T10:19:34.002Z</time></trkpt><trkpt lat="45.94889413078767" lon="9.089559972106402"><ele>586.0</ele><time>2026-04-25T10:19:35.002Z</time></trkpt><trkpt lat="45.94903051023164" lon="9.089518918789278"><ele>586.0</ele><time>2026-04-25T10:19:36.002Z</time></trkpt><trkpt lat="45.94916850262906" lon="9.089486809617126"><ele>586.0</ele><time>2026-04-25T10:19:37.002Z</time></trkpt><trkpt lat="45.94931363266021" lon="9.089446611116694"><ele>586.6666666666667</ele><time>2026-04-25T10:19:38.002Z</time></trkpt><trkpt lat="45.94946073518192" lon="9.089409593235304"><ele>587.3333333333334</ele><time>2026-04-25T10:19:39.002Z</time></trkpt><trkpt lat="45.949612468405526" lon="9.089377536982173"><ele>588.0</ele><time>2026-04-25T10:19:40.002Z</time></trkpt><trkpt lat="45.94977005579155" lon="9.089352891298683"><ele>588.0</ele><time>2026-04-25T10:19:41.002Z</time></trkpt><trkpt lat="45.949919054994645" lon="9.08932373345107"><ele>588.0</ele><time>2026-04-25T10:19:42.002Z</time></trkpt><trkpt lat="45.95006680418538" lon="9.089283147180085"><ele>588.0</ele><time>2026-04-25T10:19:43.002Z</time></trkpt><trkpt lat="45.95020987829444" lon="9.089232207660565"><ele>588.0</ele><time>2026-04-25T10:19:44.002Z</time></trkpt><trkpt lat="45.950353903105345" lon="9.089192337374412"><ele>588.75</ele><time>2026-04-25T10:19:45.002Z</time></trkpt><trkpt lat="45.95048786633823" lon="9.089145996913992"><ele>589.5</ele><time>2026-04-25T10:19:46.002Z</time></trkpt><trkpt lat="45.95061874547659" lon="9.08908975702277"><ele>590.25</ele><time>2026-04-25T10:19:47.003Z</time></trkpt><trkpt lat="45.950748790412284" lon="9.089025992278279"><ele>591.0</ele><time>2026-04-25T10:19:48.003Z</time></trkpt><trkpt lat="45.95088194307762" lon="9.088943923749762"><ele>591.0</ele><time>2026-04-25T10:19:49.003Z</time></trkpt><trkpt lat="45.951010075880525" lon="9.088843388765577"><ele>591.0</ele><time>2026-04-25T10:19:50.003Z</time></trkpt><trkpt lat="45.95113161805862" lon="9.088721571611561"><ele>591.0</ele><time>2026-04-25T10:19:51.003Z</time></trkpt><trkpt lat="45.95124978490666" lon="9.088596526924773"><ele>591.0</ele><time>2026-04-25T10:19:52.003Z</time></trkpt><trkpt lat="45.95138707798815" lon="9.08848640157722"><ele>591.0</ele><time>2026-04-25T10:19:53.003Z</time></trkpt><trkpt lat="45.95150479566649" lon="9.088361606078946"><ele>591.0</ele><time>2026-04-25T10:19:54.003Z</time></trkpt><trkpt lat="45.95164934803213" lon="9.088292009616675"><ele>591.0</ele><time>2026-04-25T10:19:55.003Z</time></trkpt><trkpt lat="45.95179826779394" lon="9.088248374995025"><ele>594.5</ele><time>2026-04-25T10:19:56.003Z</time></trkpt><trkpt lat="45.9519400055017" lon="9.088200237291348"><ele>598.0</ele><time>2026-04-25T10:19:57.003Z</time></trkpt><trkpt lat="45.95207238776175" lon="9.088153571090643"><ele>601.5</ele><time>2026-04-25T10:19:58.003Z</time></trkpt><trkpt lat="45.95221204015035" lon="9.088115936296147"><ele>605.0</ele><time>2026-04-25T10:19:59.003Z</time></trkpt><trkpt lat="45.95235527841841" lon="9.088067822896686"><ele>605.0</ele><time>2026-04-25T10:20:00.003Z</time></trkpt><trkpt lat="45.95249322602084" lon="9.088024959643706"><ele>605.0</ele><time>2026-04-25T10:20:01.003Z</time></trkpt><trkpt lat="45.9526197255719" lon="9.087984056763032"><ele>605.0</ele><time>2026-04-25T10:20:02.003Z</time></trkpt><trkpt lat="45.952738256274785" lon="9.087940173045816"><ele>605.0</ele><time>2026-04-25T10:20:03.003Z</time></trkpt><trkpt lat="45.95285347339326" lon="9.087889234928229"><ele>602.75</ele><time>2026-04-25T10:20:04.003Z</time></trkpt><trkpt lat="45.952955927082826" lon="9.087809860708798"><ele>600.5</ele><time>2026-04-25T10:20:05.003Z</time></trkpt><trkpt lat="45.95305954291343" lon="9.087726592697194"><ele>598.25</ele><time>2026-04-25T10:20:06.003Z</time></trkpt><trkpt lat="45.95316744133491" lon="9.087586605218194"><ele>596.0</ele><time>2026-04-25T10:20:07.003Z</time></trkpt><trkpt lat="45.95325958302823" lon="9.087455618915998"><ele>593.75</ele><time>2026-04-25T10:20:08.003Z</time></trkpt><trkpt lat="45.95335741838754" lon="9.087300926467405"><ele>591.5</ele><time>2026-04-25T10:20:09.003Z</time></trkpt><trkpt lat="45.95345177752543" lon="9.087168756040464"><ele>589.25</ele><time>2026-04-25T10:20:10.003Z</time></trkpt><trkpt lat="45.95354238275153" lon="9.08703956745757"><ele>587.0</ele><time>2026-04-25T10:20:11.003Z</time></trkpt><trkpt lat="45.95362631704721" lon="9.086930331718523"><ele>587.0</ele><time>2026-04-25T10:20:12.003Z</time></trkpt><trkpt lat="45.95370714105952" lon="9.086832499672605"><ele>587.0</ele><time>2026-04-25T10:20:13.003Z</time></trkpt><trkpt lat="45.953777804261776" lon="9.086747610061453"><ele>587.0</ele><time>2026-04-25T10:20:14.003Z</time></trkpt><trkpt lat="45.95384654159399" lon="9.086670713744553"><ele>587.0</ele><time>2026-04-25T10:20:15.003Z</time></trkpt><trkpt lat="45.95391692400544" lon="9.086595478470269"><ele>587.0</ele><time>2026-04-25T10:20:15.999Z</time></trkpt><trkpt lat="45.9539830475253" lon="9.086528576851649"><ele>588.75</ele><time>2026-04-25T10:20:16.999Z</time></trkpt><trkpt lat="45.95405408143809" lon="9.086457959356027"><ele>590.5</ele><time>2026-04-25T10:20:17.999Z</time></trkpt><trkpt lat="45.95412721128077" lon="9.086371421007579"><ele>592.25</ele><time>2026-04-25T10:20:18.999Z</time></trkpt><trkpt lat="45.954239560672455" lon="9.086249823792535"><ele>594.0</ele><time>2026-04-25T10:20:19.999Z</time></trkpt><trkpt lat="45.95434790164826" lon="9.086131901331314"><ele>594.0</ele><time>2026-04-25T10:20:20.999Z</time></trkpt><trkpt lat="45.9544484686122" lon="9.086122736797599"><ele>594.0</ele><time>2026-04-25T10:20:21.999Z</time></trkpt><trkpt lat="45.95455663879338" lon="9.086156978883782"><ele>594.0</ele><time>2026-04-25T10:20:22.999Z</time></trkpt><trkpt lat="45.95465635035767" lon="9.08622543185789"><ele>594.0</ele><time>2026-04-25T10:20:23.999Z</time></trkpt><trkpt lat="45.95475223888455" lon="9.086318607804808"><ele>594.0</ele><time>2026-04-25T10:20:24.999Z</time></trkpt><trkpt lat="45.95483883203296" lon="9.086437034097665"><ele>594.0</ele><time>2026-04-25T10:20:25.999Z</time></trkpt><trkpt lat="45.954927744393345" lon="9.086540014455451"><ele>594.0</ele><time>2026-04-25T10:20:27Z</time></trkpt><trkpt lat="45.955016157136" lon="9.086604325679263"><ele>594.0</ele><time>2026-04-25T10:20:28Z</time></trkpt><trkpt lat="45.95511267861532" lon="9.08663535704808"><ele>594.0</ele><time>2026-04-25T10:20:29Z</time></trkpt><trkpt lat="45.955209675285055" lon="9.086634608646914"><ele>594.0</ele><time>2026-04-25T10:20:30Z</time></trkpt><trkpt lat="45.95531197300035" lon="9.086590001161735"><ele>593.75</ele><time>2026-04-25T10:20:31Z</time></trkpt><trkpt lat="45.95542454193204" lon="9.086519554717475"><ele>593.5</ele><time>2026-04-25T10:20:32Z</time></trkpt><trkpt lat="45.95552722050576" lon="9.08643092050213"><ele>593.25</ele><time>2026-04-25T10:20:33Z</time></trkpt><trkpt lat="45.95560781655579" lon="9.086328177668547"><ele>593.0</ele><time>2026-04-25T10:20:34Z</time></trkpt><trkpt lat="45.95568556604454" lon="9.086196681456173"><ele>593.0</ele><time>2026-04-25T10:20:35Z</time></trkpt><trkpt lat="45.95579063233692" lon="9.086030963990616"><ele>593.0</ele><time>2026-04-25T10:20:36Z</time></trkpt><trkpt lat="45.95588668901001" lon="9.085885824591362"><ele>593.0</ele><time>2026-04-25T10:20:37Z</time></trkpt><trkpt lat="45.95601723637487" lon="9.085786098903686"><ele>593.0</ele><time>2026-04-25T10:20:38Z</time></trkpt><trkpt lat="45.95615956156705" lon="9.085708456941894"><ele>593.0</ele><time>2026-04-25T10:20:39Z</time></trkpt><trkpt lat="45.95630623192684" lon="9.08562766568673"><ele>593.0</ele><time>2026-04-25T10:20:40Z</time></trkpt><trkpt lat="45.95644271353185" lon="9.085527873462794"><ele>593.0</ele><time>2026-04-25T10:20:41Z</time></trkpt><trkpt lat="45.95657248787127" lon="9.085410140785543"><ele>593.0</ele><time>2026-04-25T10:20:42Z</time></trkpt><trkpt lat="45.956698972938284" lon="9.085265914396874"><ele>593.0</ele><time>2026-04-25T10:20:43Z</time></trkpt><trkpt lat="45.95681947444015" lon="9.08512336176493"><ele>593.0</ele><time>2026-04-25T10:20:44Z</time></trkpt><trkpt lat="45.956927609952494" lon="9.084995644190979"><ele>593.1999999999999</ele><time>2026-04-25T10:20:45Z</time></trkpt><trkpt lat="45.95702270186219" lon="9.084877485743355"><ele>593.4</ele><time>2026-04-25T10:20:46Z</time></trkpt><trkpt lat="45.95711059800566" lon="9.084794374375214"><ele>593.5999999999999</ele><time>2026-04-25T10:20:47Z</time></trkpt><trkpt lat="45.95719766941625" lon="9.084739082450072"><ele>593.8</ele><time>2026-04-25T10:20:48Z</time></trkpt><trkpt lat="45.957269574930294" lon="9.084785816565255"><ele>594.0</ele><time>2026-04-25T10:20:49Z</time></trkpt><trkpt lat="45.95734348198306" lon="9.084804398179655"><ele>594.0</ele><time>2026-04-25T10:20:50Z</time></trkpt><trkpt lat="45.957371929819104" lon="9.084892178324251"><ele>594.0</ele><time>2026-04-25T10:20:51.001Z</time></trkpt><trkpt lat="45.957391578786336" lon="9.085010947116132"><ele>594.0</ele><time>2026-04-25T10:20:52.001Z</time></trkpt><trkpt lat="45.95741667559438" lon="9.085142133139778"><ele>594.0</ele><time>2026-04-25T10:20:53.001Z</time></trkpt><trkpt lat="45.95742713937688" lon="9.085302429023535"><ele>594.0</ele><time>2026-04-25T10:20:54.001Z</time></trkpt><trkpt lat="45.95740795077181" lon="9.08546021407201"><ele>594.2</ele><time>2026-04-25T10:20:55.001Z</time></trkpt><trkpt lat="45.957372681348595" lon="9.085610127210737"><ele>594.4</ele><time>2026-04-25T10:20:56.001Z</time></trkpt><trkpt lat="45.95733147343491" lon="9.085736027675305"><ele>594.6</ele><time>2026-04-25T10:20:57.001Z</time></trkpt><trkpt lat="45.957255528065254" lon="9.085840177408663"><ele>594.8</ele><time>2026-04-25T10:20:58.001Z</time></trkpt><trkpt lat="45.95716652415631" lon="9.085918945768588"><ele>595.0</ele><time>2026-04-25T10:20:59.001Z</time></trkpt><trkpt lat="45.95707688599925" lon="9.08602192523138"><ele>595.0</ele><time>2026-04-25T10:21:00.001Z</time></trkpt><trkpt lat="45.95698951078865" lon="9.08611021265321"><ele>595.0</ele><time>2026-04-25T10:21:01.001Z</time></trkpt><trkpt lat="45.956920770321226" lon="9.086225837972954"><ele>595.0</ele><time>2026-04-25T10:21:02.001Z</time></trkpt><trkpt lat="45.95687644413723" lon="9.086380687009244"><ele>595.0</ele><time>2026-04-25T10:21:03.001Z</time></trkpt><trkpt lat="45.95682487241162" lon="9.086489803148673"><ele>595.0</ele><time>2026-04-25T10:21:04.001Z</time></trkpt><trkpt lat="45.956740027025795" lon="9.086598236360233"><ele>593.4</ele><time>2026-04-25T10:21:05.001Z</time></trkpt><trkpt lat="45.95665145910027" lon="9.086672841262741"><ele>591.8</ele><time>2026-04-25T10:21:06.001Z</time></trkpt><trkpt lat="45.95659614284532" lon="9.086756534979404"><ele>590.2</ele><time>2026-04-25T10:21:07.001Z</time></trkpt><trkpt lat="45.956514944790314" lon="9.086848055514665"><ele>588.6</ele><time>2026-04-25T10:21:08.001Z</time></trkpt><trkpt lat="45.95644858214498" lon="9.086989935043416"><ele>587.0</ele><time>2026-04-25T10:21:09.001Z</time></trkpt><trkpt lat="45.95641085261539" lon="9.087124228054986"><ele>587.0</ele><time>2026-04-25T10:21:10.001Z</time></trkpt><trkpt lat="45.956372204472466" lon="9.0872844313772"><ele>587.0</ele><time>2026-04-25T10:21:11.001Z</time></trkpt><trkpt lat="45.95637985045465" lon="9.08746304458515"><ele>587.0</ele><time>2026-04-25T10:21:12.001Z</time></trkpt><trkpt lat="45.95633925059206" lon="9.087647248957465"><ele>587.0</ele><time>2026-04-25T10:21:13.001Z</time></trkpt><trkpt lat="45.95630490572236" lon="9.08780269528686"><ele>588.4</ele><time>2026-04-25T10:21:14.001Z</time></trkpt><trkpt lat="45.956261573127236" lon="9.087934279342187"><ele>589.8000000000001</ele><time>2026-04-25T10:21:15.001Z</time></trkpt><trkpt lat="45.956198240613055" lon="9.088036935037524"><ele>591.2</ele><time>2026-04-25T10:21:16.001Z</time></trkpt><trkpt lat="45.9561178795179" lon="9.088117505478492"><ele>592.6</ele><time>2026-04-25T10:21:17.001Z</time></trkpt><trkpt lat="45.95601612697463" lon="9.088174583994356"><ele>594.0</ele><time>2026-04-25T10:21:18.001Z</time></trkpt><trkpt lat="45.95590717294186" lon="9.088251591454926"><ele>592.5</ele><time>2026-04-25T10:21:19.001Z</time></trkpt><trkpt lat="45.95580187852724" lon="9.088300745599431"><ele>591.0</ele><time>2026-04-25T10:21:20.001Z</time></trkpt><trkpt lat="45.95567736768532" lon="9.088411439543858"><ele>589.5</ele><time>2026-04-25T10:21:21.002Z</time></trkpt><trkpt lat="45.95559969410797" lon="9.088506444144492"><ele>588.0</ele><time>2026-04-25T10:21:22.002Z</time></trkpt><trkpt lat="45.955531470445585" lon="9.088601849743235"><ele>588.0</ele><time>2026-04-25T10:21:23.002Z</time></trkpt><trkpt lat="45.955472828677884" lon="9.08874070183893"><ele>588.0</ele><time>2026-04-25T10:21:24.002Z</time></trkpt><trkpt lat="45.955413693280185" lon="9.088912191664145"><ele>588.0</ele><time>2026-04-25T10:21:25.002Z</time></trkpt><trkpt lat="45.95535123395796" lon="9.089071417273903"><ele>588.0</ele><time>2026-04-25T10:21:26.002Z</time></trkpt><trkpt lat="45.95530104782255" lon="9.08922267889295"><ele>589.4</ele><time>2026-04-25T10:21:27.002Z</time></trkpt><trkpt lat="45.95525052293662" lon="9.08935773934829"><ele>590.8</ele><time>2026-04-25T10:21:28.002Z</time></trkpt><trkpt lat="45.955211675008115" lon="9.089467537734704"><ele>592.2</ele><time>2026-04-25T10:21:29.002Z</time></trkpt><trkpt lat="45.9552292418642" lon="9.089612568571715"><ele>593.6</ele><time>2026-04-25T10:21:31.002Z</time></trkpt><trkpt lat="45.95531219115489" lon="9.089673959664891"><ele>595.0</ele><time>2026-04-25T10:21:33.002Z</time></trkpt><trkpt lat="45.955380911084696" lon="9.089708400875539"><ele>595.0</ele><time>2026-04-25T10:21:43.002Z</time></trkpt><trkpt lat="45.95548437605336" lon="9.089670343377605"><ele>595.0</ele><time>2026-04-25T10:21:49.002Z</time></trkpt><trkpt lat="45.955543440505885" lon="9.089580841691273"><ele>595.0</ele><time>2026-04-25T10:21:50.002Z</time></trkpt><trkpt lat="45.9555946160848" lon="9.089506149722455"><ele>595.0</ele><time>2026-04-25T10:21:51.002Z</time></trkpt><trkpt lat="45.955656622420555" lon="9.089441039768031"><ele>595.0</ele><time>2026-04-25T10:21:52.002Z</time></trkpt><trkpt lat="45.95573494851785" lon="9.089347788657744"><ele>595.0</ele><time>2026-04-25T10:21:53.002Z</time></trkpt><trkpt lat="45.955819779423244" lon="9.089253718485915"><ele>596.0</ele><time>2026-04-25T10:21:54.003Z</time></trkpt><trkpt lat="45.95589677066271" lon="9.089156190867707"><ele>597.0</ele><time>2026-04-25T10:21:55.003Z</time></trkpt><trkpt lat="45.95597716927454" lon="9.089058725132523"><ele>598.0</ele><time>2026-04-25T10:21:56.003Z</time></trkpt><trkpt lat="45.95606432214507" lon="9.088957956714776"><ele>599.0</ele><time>2026-04-25T10:21:57.003Z</time></trkpt><trkpt lat="45.95615719010939" lon="9.088852412828388"><ele>600.0</ele><time>2026-04-25T10:21:58.003Z</time></trkpt><trkpt lat="45.95624964822719" lon="9.088741330332185"><ele>600.0</ele><time>2026-04-25T10:21:59.003Z</time></trkpt><trkpt lat="45.95633635640844" lon="9.088630339383615"><ele>600.0</ele><time>2026-04-25T10:22:00.003Z</time></trkpt><trkpt lat="45.95642205214833" lon="9.088535359394612"><ele>600.0</ele><time>2026-04-25T10:22:01.003Z</time></trkpt><trkpt lat="45.95649614158454" lon="9.088446577667689"><ele>600.0</ele><time>2026-04-25T10:22:02.003Z</time></trkpt><trkpt lat="45.956560583990594" lon="9.088384750223872"><ele>600.0</ele><time>2026-04-25T10:22:03.003Z</time></trkpt><trkpt lat="45.956622736181934" lon="9.088354811533495"><ele>600.0</ele><time>2026-04-25T10:22:04.003Z</time></trkpt><trkpt lat="45.956723989619704" lon="9.08845284836557"><ele>600.0</ele><time>2026-04-25T10:22:06.003Z</time></trkpt><trkpt lat="45.95673922202392" lon="9.088554566284555"><ele>600.0</ele><time>2026-04-25T10:22:07.003Z</time></trkpt><trkpt lat="45.956721518678435" lon="9.08867000883226"><ele>600.0</ele><time>2026-04-25T10:22:08.003Z</time></trkpt><trkpt lat="45.95669225349157" lon="9.088809648425526"><ele>600.0</ele><time>2026-04-25T10:22:09.003Z</time></trkpt><trkpt lat="45.956670026914786" lon="9.088968408813992"><ele>600.75</ele><time>2026-04-25T10:22:10.003Z</time></trkpt><trkpt lat="45.95664447638024" lon="9.08914801047553"><ele>601.5</ele><time>2026-04-25T10:22:11.003Z</time></trkpt><trkpt lat="45.95662469942848" lon="9.089333512591445"><ele>602.25</ele><time>2026-04-25T10:22:12.003Z</time></trkpt><trkpt lat="45.956615925096706" lon="9.089520537999954"><ele>603.0</ele><time>2026-04-25T10:22:13.003Z</time></trkpt><trkpt lat="45.95660904779591" lon="9.089682267874732"><ele>603.0</ele><time>2026-04-25T10:22:14.003Z</time></trkpt><trkpt lat="45.95660046523235" lon="9.089823488461954"><ele>603.0</ele><time>2026-04-25T10:22:15.003Z</time></trkpt><trkpt lat="45.95660611037721" lon="9.089941533965346"><ele>603.0</ele><time>2026-04-25T10:22:16.003Z</time></trkpt><trkpt lat="45.95663371822287" lon="9.090034395433733"><ele>603.0</ele><time>2026-04-25T10:22:17.003Z</time></trkpt><trkpt lat="45.95673472824156" lon="9.0901145910537"><ele>603.0</ele><time>2026-04-25T10:22:19.003Z</time></trkpt><trkpt lat="45.95679573468079" lon="9.0900868840407"><ele>603.0</ele><time>2026-04-25T10:22:20.003Z</time></trkpt><trkpt lat="45.95684964668582" lon="9.090026160057167"><ele>605.6</ele><time>2026-04-25T10:22:21.003Z</time></trkpt><trkpt lat="45.956908232942354" lon="9.089948367676739"><ele>608.1999999999999</ele><time>2026-04-25T10:22:21.999Z</time></trkpt><trkpt lat="45.95693470236463" lon="9.089796153714648"><ele>610.8</ele><time>2026-04-25T10:22:22.999Z</time></trkpt><trkpt lat="45.95699163427347" lon="9.089653506079218"><ele>613.4</ele><time>2026-04-25T10:22:23.999Z</time></trkpt><trkpt lat="45.957058869798075" lon="9.089483857293681"><ele>616.0</ele><time>2026-04-25T10:22:24.999Z</time></trkpt><trkpt lat="45.957130240479366" lon="9.089301141350669"><ele>616.0</ele><time>2026-04-25T10:22:25.999Z</time></trkpt><trkpt lat="45.95720272235602" lon="9.089113788344783"><ele>616.0</ele><time>2026-04-25T10:22:26.999Z</time></trkpt><trkpt lat="45.95728249379868" lon="9.088931676058328"><ele>616.0</ele><time>2026-04-25T10:22:27.999Z</time></trkpt><trkpt lat="45.957359401424746" lon="9.088759968683945"><ele>616.0</ele><time>2026-04-25T10:22:28.999Z</time></trkpt><trkpt lat="45.95742950831929" lon="9.088605749020385"><ele>615.0</ele><time>2026-04-25T10:22:30Z</time></trkpt><trkpt lat="45.95750809109259" lon="9.088464264858121"><ele>614.0</ele><time>2026-04-25T10:22:31Z</time></trkpt><trkpt lat="45.95762182637229" lon="9.088323364599214"><ele>613.0</ele><time>2026-04-25T10:22:32Z</time></trkpt><trkpt lat="45.9577420999554" lon="9.088218911133955"><ele>612.0</ele><time>2026-04-25T10:22:33Z</time></trkpt><trkpt lat="45.95786806791864" lon="9.08812430572947"><ele>614.5</ele><time>2026-04-25T10:22:34Z</time></trkpt><trkpt lat="45.957997642485154" lon="9.088024785249907"><ele>617.0</ele><time>2026-04-25T10:22:35Z</time></trkpt><trkpt lat="45.95812225549219" lon="9.087919571758182"><ele>619.5</ele><time>2026-04-25T10:22:36Z</time></trkpt><trkpt lat="45.95824685865633" lon="9.08781849650423"><ele>622.0</ele><time>2026-04-25T10:22:37Z</time></trkpt><trkpt lat="45.95837034251614" lon="9.087717002227967"><ele>622.3333333333334</ele><time>2026-04-25T10:22:38Z</time></trkpt><trkpt lat="45.95850430173303" lon="9.08761371507261"><ele>622.6666666666666</ele><time>2026-04-25T10:22:39Z</time></trkpt><trkpt lat="45.95863756844" lon="9.087515237293907"><ele>623.0</ele><time>2026-04-25T10:22:40Z</time></trkpt><trkpt lat="45.95877290840957" lon="9.08741501147433"><ele>623.0</ele><time>2026-04-25T10:22:41Z</time></trkpt><trkpt lat="45.958904425264514" lon="9.087309469408762"><ele>623.0</ele><time>2026-04-25T10:22:42Z</time></trkpt><trkpt lat="45.95903661912828" lon="9.087206929221193"><ele>623.0</ele><time>2026-04-25T10:22:43Z</time></trkpt><trkpt lat="45.95916824946129" lon="9.087106195933906"><ele>624.75</ele><time>2026-04-25T10:22:44Z</time></trkpt><trkpt lat="45.95930092412671" lon="9.087007630076988"><ele>626.5</ele><time>2026-04-25T10:22:45Z</time></trkpt><trkpt lat="45.95942923139996" lon="9.086901631755543"><ele>628.25</ele><time>2026-04-25T10:22:46Z</time></trkpt><trkpt lat="45.95954574590313" lon="9.086783141398273"><ele>630.0</ele><time>2026-04-25T10:22:47Z</time></trkpt><trkpt lat="45.959646013294936" lon="9.086644617488444"><ele>629.5</ele><time>2026-04-25T10:22:48Z</time></trkpt><trkpt lat="45.95974696051841" lon="9.086493174541074"><ele>629.0</ele><time>2026-04-25T10:22:49Z</time></trkpt><trkpt lat="45.95985336179364" lon="9.086348208003791"><ele>628.5</ele><time>2026-04-25T10:22:50Z</time></trkpt><trkpt lat="45.9599646141595" lon="9.086216470185226"><ele>628.0</ele><time>2026-04-25T10:22:51Z</time></trkpt><trkpt lat="45.96008277791486" lon="9.086107544167488"><ele>629.25</ele><time>2026-04-25T10:22:52Z</time></trkpt><trkpt lat="45.960214744868516" lon="9.086006161187933"><ele>630.5</ele><time>2026-04-25T10:22:53Z</time></trkpt><trkpt lat="45.960339610886734" lon="9.085902899307118"><ele>631.75</ele><time>2026-04-25T10:22:54Z</time></trkpt><trkpt lat="45.96045606566528" lon="9.085801265985038"><ele>633.0</ele><time>2026-04-25T10:22:55Z</time></trkpt><trkpt lat="45.960555541753976" lon="9.085712161349852"><ele>633.0</ele><time>2026-04-25T10:22:56Z</time></trkpt><trkpt lat="45.960632579253385" lon="9.085654770587952"><ele>633.0</ele><time>2026-04-25T10:22:57Z</time></trkpt><trkpt lat="45.960732292375134" lon="9.085667979321576"><ele>633.0</ele><time>2026-04-25T10:22:59Z</time></trkpt><trkpt lat="45.9607708789541" lon="9.085788390506051"><ele>633.0</ele><time>2026-04-25T10:23:01.001Z</time></trkpt><trkpt lat="45.96073409647552" lon="9.085878723420413"><ele>633.0</ele><time>2026-04-25T10:23:02.001Z</time></trkpt><trkpt lat="45.96067191520284" lon="9.085963993604768"><ele>633.0</ele><time>2026-04-25T10:23:03.001Z</time></trkpt><trkpt lat="45.96060935707154" lon="9.086082741377977"><ele>635.0</ele><time>2026-04-25T10:23:04.001Z</time></trkpt><trkpt lat="45.96056157045701" lon="9.086235089205799"><ele>637.0</ele><time>2026-04-25T10:23:05.001Z</time></trkpt><trkpt lat="45.96053285370898" lon="9.08639464195739"><ele>639.0</ele><time>2026-04-25T10:23:06.001Z</time></trkpt><trkpt lat="45.960514963307176" lon="9.086551930970824"><ele>641.0</ele><time>2026-04-25T10:23:07.001Z</time></trkpt><trkpt lat="45.96049497000835" lon="9.086730750281832"><ele>642.1999999999999</ele><time>2026-04-25T10:23:08.001Z</time></trkpt><trkpt lat="45.96047352522763" lon="9.086909790454513"><ele>643.4</ele><time>2026-04-25T10:23:09.001Z</time></trkpt><trkpt lat="45.96045428512745" lon="9.087087595724316"><ele>644.6</ele><time>2026-04-25T10:23:10.001Z</time></trkpt><trkpt lat="45.96043553610194" lon="9.087236503897397"><ele>645.8</ele><time>2026-04-25T10:23:11.001Z</time></trkpt><trkpt lat="45.960413881480555" lon="9.087362878337485"><ele>647.0</ele><time>2026-04-25T10:23:12.001Z</time></trkpt><trkpt lat="45.9604046655989" lon="9.087461088993184"><ele>647.0</ele><time>2026-04-25T10:23:13.001Z</time></trkpt><trkpt lat="45.960479541349656" lon="9.087584729550207"><ele>647.0</ele><time>2026-04-25T10:23:15.001Z</time></trkpt><trkpt lat="45.960603981072424" lon="9.087625907422229"><ele>647.0</ele><time>2026-04-25T10:23:17.001Z</time></trkpt><trkpt lat="45.96065847833016" lon="9.087458472635353"><ele>647.0</ele><time>2026-04-25T10:23:18.001Z</time></trkpt><trkpt lat="45.96072351943003" lon="9.087350680673584"><ele>647.0</ele><time>2026-04-25T10:23:19.001Z</time></trkpt><trkpt lat="45.96077942957509" lon="9.087226186422708"><ele>647.0</ele><time>2026-04-25T10:23:20.001Z</time></trkpt><trkpt lat="45.96085189211466" lon="9.087081209357573"><ele>647.0</ele><time>2026-04-25T10:23:21.001Z</time></trkpt><trkpt lat="45.96093396793027" lon="9.086923221953707"><ele>647.0</ele><time>2026-04-25T10:23:22.001Z</time></trkpt><trkpt lat="45.96101493761012" lon="9.086764083825813"><ele>649.5</ele><time>2026-04-25T10:23:23.001Z</time></trkpt><trkpt lat="45.96108750522297" lon="9.08662165942685"><ele>652.0</ele><time>2026-04-25T10:23:24.001Z</time></trkpt><trkpt lat="45.96116810520923" lon="9.086456385028525"><ele>654.5</ele><time>2026-04-25T10:23:25.001Z</time></trkpt><trkpt lat="45.9612512923488" lon="9.08628193187527"><ele>657.0</ele><time>2026-04-25T10:23:26.001Z</time></trkpt><trkpt lat="45.96134046894167" lon="9.0861141533488"><ele>657.0</ele><time>2026-04-25T10:23:27.001Z</time></trkpt><trkpt lat="45.96142558103608" lon="9.085945688741079"><ele>657.0</ele><time>2026-04-25T10:23:28.001Z</time></trkpt><trkpt lat="45.961512659660606" lon="9.085775687855651"><ele>657.0</ele><time>2026-04-25T10:23:29.001Z</time></trkpt><trkpt lat="45.961597563317014" lon="9.085596396221446"><ele>657.0</ele><time>2026-04-25T10:23:30.001Z</time></trkpt><trkpt lat="45.96168669139986" lon="9.08541886121168"><ele>658.6666666666666</ele><time>2026-04-25T10:23:31.002Z</time></trkpt><trkpt lat="45.961775228778066" lon="9.085240796088955"><ele>660.3333333333333</ele><time>2026-04-25T10:23:32.002Z</time></trkpt><trkpt lat="45.96186935911813" lon="9.085062155656328"><ele>662.0</ele><time>2026-04-25T10:23:33.002Z</time></trkpt><trkpt lat="45.96197093786944" lon="9.084896583769908"><ele>662.0</ele><time>2026-04-25T10:23:34.002Z</time></trkpt><trkpt lat="45.96207923654978" lon="9.084736837063174"><ele>662.0</ele><time>2026-04-25T10:23:35.002Z</time></trkpt><trkpt lat="45.96220274836736" lon="9.0845846917532"><ele>662.0</ele><time>2026-04-25T10:23:36.002Z</time></trkpt><trkpt lat="45.96233802183665" lon="9.084432012408081"><ele>662.0</ele><time>2026-04-25T10:23:37.002Z</time></trkpt><trkpt lat="45.96247431530321" lon="9.084284609961276"><ele>662.0</ele><time>2026-04-25T10:23:38.002Z</time></trkpt><trkpt lat="45.96259527197681" lon="9.084151560950463"><ele>662.0</ele><time>2026-04-25T10:23:39.002Z</time></trkpt><trkpt lat="45.962718043831615" lon="9.08400701943905"><ele>665.3333333333333</ele><time>2026-04-25T10:23:40.002Z</time></trkpt><trkpt lat="45.96284840166219" lon="9.083861947941903"><ele>668.6666666666666</ele><time>2026-04-25T10:23:41.002Z</time></trkpt><trkpt lat="45.96297388463699" lon="9.083718739314826"><ele>672.0</ele><time>2026-04-25T10:23:42.002Z</time></trkpt><trkpt lat="45.96310070265612" lon="9.083570511982067"><ele>672.0</ele><time>2026-04-25T10:23:43.002Z</time></trkpt><trkpt lat="45.96322957582638" lon="9.083420148441235"><ele>672.0</ele><time>2026-04-25T10:23:44.002Z</time></trkpt><trkpt lat="45.96335403175447" lon="9.083273609336526"><ele>672.0</ele><time>2026-04-25T10:23:45.002Z</time></trkpt><trkpt lat="45.96346753973521" lon="9.083123692108968"><ele>677.0</ele><time>2026-04-25T10:23:46.002Z</time></trkpt><trkpt lat="45.96356334204936" lon="9.082948094519855"><ele>682.0</ele><time>2026-04-25T10:23:47.002Z</time></trkpt><trkpt lat="45.963643828025134" lon="9.082743756623364"><ele>687.0</ele><time>2026-04-25T10:23:48.002Z</time></trkpt><trkpt lat="45.96371896396749" lon="9.082541061861331"><ele>685.6666666666666</ele><time>2026-04-25T10:23:49.002Z</time></trkpt><trkpt lat="45.963798406200866" lon="9.082339537551883"><ele>684.3333333333333</ele><time>2026-04-25T10:23:50.002Z</time></trkpt><trkpt lat="45.963897247099055" lon="9.082166902939264"><ele>683.0</ele><time>2026-04-25T10:23:51.002Z</time></trkpt><trkpt lat="45.964012590310745" lon="9.082015165323691"><ele>683.0</ele><time>2026-04-25T10:23:52.002Z</time></trkpt><trkpt lat="45.96413236431657" lon="9.081874291679735"><ele>683.0</ele><time>2026-04-25T10:23:53.002Z</time></trkpt><trkpt lat="45.96423848039689" lon="9.081709952355546"><ele>683.0</ele><time>2026-04-25T10:23:54.002Z</time></trkpt><trkpt lat="45.964325189141455" lon="9.0815167617655"><ele>688.6666666666666</ele><time>2026-04-25T10:23:55.002Z</time></trkpt><trkpt lat="45.96437937437942" lon="9.081313598892265"><ele>694.3333333333334</ele><time>2026-04-25T10:23:56.002Z</time></trkpt><trkpt lat="45.964423441560996" lon="9.081059505904724"><ele>700.0</ele><time>2026-04-25T10:23:57.002Z</time></trkpt><trkpt lat="45.96446042095049" lon="9.080768729620777"><ele>698.0</ele><time>2026-04-25T10:23:58.002Z</time></trkpt><trkpt lat="45.96450472433377" lon="9.080490093570093"><ele>696.0</ele><time>2026-04-25T10:23:59.002Z</time></trkpt><trkpt lat="45.96456434426407" lon="9.080174299391816"><ele>694.0</ele><time>2026-04-25T10:24:00.002Z</time></trkpt><trkpt lat="45.96450115297908" lon="9.080446870589855"><ele>694.0</ele><time>2026-04-25T10:24:01.002Z</time></trkpt><trkpt lat="45.96453442660266" lon="9.080365565340777"><ele>694.0</ele><time>2026-04-25T10:24:02.002Z</time></trkpt><trkpt lat="45.96465715016631" lon="9.080386249889843"><ele>694.0</ele><time>2026-04-25T10:24:04.003Z</time></trkpt><trkpt lat="45.964699987609585" lon="9.080457075620286"><ele>694.0</ele><time>2026-04-25T10:24:05.003Z</time></trkpt><trkpt lat="45.964743465827304" lon="9.080550685627774"><ele>694.0</ele><time>2026-04-25T10:24:06.003Z</time></trkpt><trkpt lat="45.96470221409231" lon="9.08069691366406"><ele>694.0</ele><time>2026-04-25T10:24:07.003Z</time></trkpt><trkpt lat="45.96470135073767" lon="9.080851214763898"><ele>695.5</ele><time>2026-04-25T10:24:08.003Z</time></trkpt><trkpt lat="45.96470019189521" lon="9.081034374846263"><ele>697.0</ele><time>2026-04-25T10:24:09.003Z</time></trkpt><trkpt lat="45.96469893449458" lon="9.081233112591681"><ele>698.5</ele><time>2026-04-25T10:24:10.003Z</time></trkpt><trkpt lat="45.96469638962019" lon="9.081455254635545"><ele>700.0</ele><time>2026-04-25T10:24:11.003Z</time></trkpt><trkpt lat="45.96469093046242" lon="9.081690524848504"><ele>702.0</ele><time>2026-04-25T10:24:12.003Z</time></trkpt><trkpt lat="45.96468411128212" lon="9.08191084154222"><ele>704.0</ele><time>2026-04-25T10:24:13.003Z</time></trkpt><trkpt lat="45.964675623517664" lon="9.082091390528301"><ele>706.0</ele><time>2026-04-25T10:24:14.003Z</time></trkpt><trkpt lat="45.96464437274603" lon="9.082240072715184"><ele>708.0</ele><time>2026-04-25T10:24:15.003Z</time></trkpt><trkpt lat="45.96459267325315" lon="9.082385048150549"><ele>710.0</ele><time>2026-04-25T10:24:16.003Z</time></trkpt><trkpt lat="45.96452317418492" lon="9.082554053662916"><ele>712.0</ele><time>2026-04-25T10:24:17.003Z</time></trkpt><trkpt lat="45.96447429106841" lon="9.082713000971363"><ele>714.0</ele><time>2026-04-25T10:24:18.003Z</time></trkpt><trkpt lat="45.9644465427232" lon="9.08286420753879"><ele>716.0</ele><time>2026-04-25T10:24:19.003Z</time></trkpt><trkpt lat="45.96443989206092" lon="9.08303242943601"><ele>716.0</ele><time>2026-04-25T10:24:20.003Z</time></trkpt><trkpt lat="45.9644317007838" lon="9.08321841097742"><ele>716.0</ele><time>2026-04-25T10:24:21.003Z</time></trkpt><trkpt lat="45.96440516914055" lon="9.083378919361987"><ele>716.0</ele><time>2026-04-25T10:24:22.003Z</time></trkpt><trkpt lat="45.96434958863848" lon="9.083479516031518"><ele>716.0</ele><time>2026-04-25T10:24:23.003Z</time></trkpt><trkpt lat="45.96431912000204" lon="9.083564096663784"><ele>716.0</ele><time>2026-04-25T10:24:24.003Z</time></trkpt><trkpt lat="45.96438502185947" lon="9.083693651312247"><ele>716.0</ele><time>2026-04-25T10:24:26.003Z</time></trkpt><trkpt lat="45.9645030153401" lon="9.08367034665648"><ele>716.0</ele><time>2026-04-25T10:24:27.999Z</time></trkpt><trkpt lat="45.9645408671228" lon="9.083551629973801"><ele>716.0</ele><time>2026-04-25T10:24:28.999Z</time></trkpt><trkpt lat="45.96457258518172" lon="9.083439306309344"><ele>716.0</ele><time>2026-04-25T10:24:29.999Z</time></trkpt><trkpt lat="45.96460130677721" lon="9.08331085553674"><ele>716.0</ele><time>2026-04-25T10:24:30.999Z</time></trkpt><trkpt lat="45.96462141409727" lon="9.083155039701218"><ele>716.0</ele><time>2026-04-25T10:24:31.999Z</time></trkpt><trkpt lat="45.964655596513225" lon="9.082981425003092"><ele>716.0</ele><time>2026-04-25T10:24:32.999Z</time></trkpt><trkpt lat="45.96469654375134" lon="9.082818556181763"><ele>716.0</ele><time>2026-04-25T10:24:33.999Z</time></trkpt><trkpt lat="45.9647498181754" lon="9.082670807802913"><ele>716.0</ele><time>2026-04-25T10:24:34.999Z</time></trkpt><trkpt lat="45.964821402099474" lon="9.082550159041771"><ele>716.0</ele><time>2026-04-25T10:24:35.999Z</time></trkpt><trkpt lat="45.964904201483854" lon="9.08245302045187"><ele>716.0</ele><time>2026-04-25T10:24:36.999Z</time></trkpt><trkpt lat="45.9649866822433" lon="9.082373685372607"><ele>716.0</ele><time>2026-04-25T10:24:37.999Z</time></trkpt><trkpt lat="45.965046850189" lon="9.082294234680244"><ele>716.0</ele><time>2026-04-25T10:24:38.999Z</time></trkpt><trkpt lat="45.96509899602942" lon="9.082143839251456"><ele>716.0</ele><time>2026-04-25T10:24:39.999Z</time></trkpt><trkpt lat="45.96512132399314" lon="9.081989355408131"><ele>717.5999999999999</ele><time>2026-04-25T10:24:40.999Z</time></trkpt><trkpt lat="45.96513983814917" lon="9.08181839953475"><ele>719.2</ele><time>2026-04-25T10:24:41.999Z</time></trkpt><trkpt lat="45.96516529584323" lon="9.081671154257352"><ele>720.8</ele><time>2026-04-25T10:24:42.999Z</time></trkpt><trkpt lat="45.9652110239488" lon="9.081523994260152"><ele>722.4000000000001</ele><time>2026-04-25T10:24:44Z</time></trkpt><trkpt lat="45.96527181847807" lon="9.081398641110768"><ele>724.0</ele><time>2026-04-25T10:24:45Z</time></trkpt><trkpt lat="45.96534433281467" lon="9.081284216725564"><ele>724.0</ele><time>2026-04-25T10:24:46Z</time></trkpt><trkpt lat="45.96544838402583" lon="9.081192537113607"><ele>724.0</ele><time>2026-04-25T10:24:47Z</time></trkpt><trkpt lat="45.96555318449342" lon="9.081048359379952"><ele>724.0</ele><time>2026-04-25T10:24:48Z</time></trkpt><trkpt lat="45.965655171453804" lon="9.080952943647931"><ele>724.0</ele><time>2026-04-25T10:24:49Z</time></trkpt><trkpt lat="45.96576116934705" lon="9.080796555199296"><ele>727.4000000000001</ele><time>2026-04-25T10:24:50Z</time></trkpt><trkpt lat="45.965863225483076" lon="9.080699466352407"><ele>730.8</ele><time>2026-04-25T10:24:51Z</time></trkpt><trkpt lat="45.96594936659812" lon="9.080621524362423"><ele>734.2</ele><time>2026-04-25T10:24:52Z</time></trkpt><trkpt lat="45.96602385984057" lon="9.08051189491097"><ele>737.5999999999999</ele><time>2026-04-25T10:24:53Z</time></trkpt><trkpt lat="45.966088863000095" lon="9.08038685852716"><ele>741.0</ele><time>2026-04-25T10:24:54Z</time></trkpt><trkpt lat="45.966124866403746" lon="9.080233744821994"><ele>741.0</ele><time>2026-04-25T10:24:55Z</time></trkpt><trkpt lat="45.96613797849258" lon="9.080052494366424"><ele>741.0</ele><time>2026-04-25T10:24:56Z</time></trkpt><trkpt lat="45.9661419256439" lon="9.079855397566273"><ele>741.0</ele><time>2026-04-25T10:24:57Z</time></trkpt><trkpt lat="45.96617946561793" lon="9.079638710762547"><ele>741.0</ele><time>2026-04-25T10:24:58Z</time></trkpt><trkpt lat="45.9662367637848" lon="9.07941996687157"><ele>741.0</ele><time>2026-04-25T10:24:59Z</time></trkpt><trkpt lat="45.966298572896115" lon="9.079223872501359"><ele>741.0</ele><time>2026-04-25T10:25:00Z</time></trkpt><trkpt lat="45.96633212315308" lon="9.079020896368815"><ele>741.0</ele><time>2026-04-25T10:25:01Z</time></trkpt><trkpt lat="45.96633640802483" lon="9.078795336944905"><ele>741.0</ele><time>2026-04-25T10:25:02Z</time></trkpt><trkpt lat="45.966333220065046" lon="9.078556038526896"><ele>741.0</ele><time>2026-04-25T10:25:03Z</time></trkpt><trkpt lat="45.96633333699642" lon="9.078308292093734"><ele>741.0</ele><time>2026-04-25T10:25:04.001Z</time></trkpt><trkpt lat="45.96634051405748" lon="9.078067637127472"><ele>740.75</ele><time>2026-04-25T10:25:05.001Z</time></trkpt><trkpt lat="45.966348328091314" lon="9.077846732238234"><ele>740.5</ele><time>2026-04-25T10:25:06.001Z</time></trkpt><trkpt lat="45.96635861058467" lon="9.077651854502902"><ele>740.25</ele><time>2026-04-25T10:25:07.001Z</time></trkpt><trkpt lat="45.966365731051724" lon="9.077478313225376"><ele>740.0</ele><time>2026-04-25T10:25:08.001Z</time></trkpt><trkpt lat="45.96637407918841" lon="9.077320007479363"><ele>740.1666666666666</ele><time>2026-04-25T10:25:09.001Z</time></trkpt><trkpt lat="45.966388297557614" lon="9.077178312519806"><ele>740.3333333333333</ele><time>2026-04-25T10:25:10.001Z</time></trkpt><trkpt lat="45.96640986039613" lon="9.077066370172602"><ele>740.5</ele><time>2026-04-25T10:25:11.001Z</time></trkpt><trkpt lat="45.9664575526629" lon="9.076984672311877"><ele>740.6666666666666</ele><time>2026-04-25T10:25:12.001Z</time></trkpt><trkpt lat="45.96652576679924" lon="9.076931341583787"><ele>740.8333333333334</ele><time>2026-04-25T10:25:13.001Z</time></trkpt><trkpt lat="45.966614382246334" lon="9.076932446934558"><ele>741.0</ele><time>2026-04-25T10:25:14.001Z</time></trkpt><trkpt lat="45.96670587320672" lon="9.07696249502065"><ele>741.0</ele><time>2026-04-25T10:25:15.001Z</time></trkpt><trkpt lat="45.966787430072074" lon="9.076965142584603"><ele>741.0</ele><time>2026-04-25T10:25:16.001Z</time></trkpt><trkpt lat="45.966901390267815" lon="9.077006641016606"><ele>741.0</ele><time>2026-04-25T10:25:18.001Z</time></trkpt><trkpt lat="45.96698186046225" lon="9.07703833896964"><ele>741.0</ele><time>2026-04-25T10:25:20.001Z</time></trkpt><trkpt lat="45.967037180405185" lon="9.077084540078873"><ele>741.0</ele><time>2026-04-25T10:25:22.001Z</time></trkpt><trkpt lat="45.967054807802874" lon="9.077237199921916"><ele>741.0</ele><time>2026-04-25T10:25:24.001Z</time></trkpt><trkpt lat="45.96706607211256" lon="9.07740247324415"><ele>741.0</ele><time>2026-04-25T10:25:26.001Z</time></trkpt><trkpt lat="45.967069562186424" lon="9.077507866780262"><ele>741.0</ele><time>2026-04-25T10:25:28.001Z</time></trkpt><trkpt lat="45.96708766341563" lon="9.077600125584546"><ele>741.0</ele><time>2026-04-25T10:25:31.001Z</time></trkpt><trkpt lat="45.967103252433496" lon="9.07769453412087"><ele>741.0</ele><time>2026-04-25T10:25:33.002Z</time></trkpt><trkpt lat="45.96711790366787" lon="9.077843732148777"><ele>741.0</ele><time>2026-04-25T10:25:35.002Z</time></trkpt><trkpt lat="45.967117781741315" lon="9.078020391885572"><ele>742.1666666666666</ele><time>2026-04-25T10:25:37.002Z</time></trkpt><trkpt lat="45.967096751955566" lon="9.078109502296744"><ele>743.3333333333334</ele><time>2026-04-25T10:25:38.002Z</time></trkpt><trkpt lat="45.96710786850716" lon="9.078236309736818"><ele>744.5</ele><time>2026-04-25T10:25:40.002Z</time></trkpt><trkpt lat="45.967129871453444" lon="9.078344270927303"><ele>745.6666666666667</ele><time>2026-04-25T10:25:42.002Z</time></trkpt><trkpt lat="45.96718797250155" lon="9.078429185945778"><ele>746.8333333333334</ele><time>2026-04-25T10:25:45.002Z</time></trkpt><trkpt lat="45.96726846518398" lon="9.078429984380588"><ele>748.0</ele><time>2026-04-25T10:25:47.002Z</time></trkpt><trkpt lat="45.96731338811509" lon="9.07853266057723"><ele>749.0</ele><time>2026-04-25T10:25:50.002Z</time></trkpt><trkpt lat="45.96732976569302" lon="9.078651243542105"><ele>750.0</ele><time>2026-04-25T10:25:52.002Z</time></trkpt><trkpt lat="45.967329127106375" lon="9.07883432741569"><ele>751.0</ele><time>2026-04-25T10:25:54.002Z</time></trkpt><trkpt lat="45.96732197008998" lon="9.079045162079456"><ele>752.0</ele><time>2026-04-25T10:25:56.002Z</time></trkpt><trkpt lat="45.96732477400454" lon="9.079153664682933"><ele>753.0</ele><time>2026-04-25T10:25:57.002Z</time></trkpt><trkpt lat="45.96731914739713" lon="9.07929412287995"><ele>753.5999999999999</ele><time>2026-04-25T10:25:58.002Z</time></trkpt><trkpt lat="45.967305559979096" lon="9.07942198867625"><ele>754.1999999999999</ele><time>2026-04-25T10:25:59.002Z</time></trkpt><trkpt lat="45.967310442219215" lon="9.07956811717786"><ele>754.8</ele><time>2026-04-25T10:26:00.002Z</time></trkpt><trkpt lat="45.96731174635628" lon="9.079695573110355"><ele>755.4</ele><time>2026-04-25T10:26:01.002Z</time></trkpt><trkpt lat="45.96731319585346" lon="9.079837235569729"><ele>756.0</ele><time>2026-04-25T10:26:02.002Z</time></trkpt><trkpt lat="45.96731478846604" lon="9.079992884806805"><ele>757.25</ele><time>2026-04-25T10:26:03.002Z</time></trkpt><trkpt lat="45.967330893057266" lon="9.080143699634991"><ele>758.5</ele><time>2026-04-25T10:26:04.002Z</time></trkpt><trkpt lat="45.967318152718114" lon="9.080337444195646"><ele>759.75</ele><time>2026-04-25T10:26:05.003Z</time></trkpt><trkpt lat="45.96733658564049" lon="9.080504021704703"><ele>761.0</ele><time>2026-04-25T10:26:06.003Z</time></trkpt><trkpt lat="45.9673440936904" lon="9.08070769682552"><ele>761.25</ele><time>2026-04-25T10:26:07.003Z</time></trkpt><trkpt lat="45.96734136269991" lon="9.080884060692487"><ele>761.5</ele><time>2026-04-25T10:26:08.003Z</time></trkpt><trkpt lat="45.967343409793344" lon="9.081086806917792"><ele>761.75</ele><time>2026-04-25T10:26:09.003Z</time></trkpt><trkpt lat="45.96733961863853" lon="9.081268626908084"><ele>762.0</ele><time>2026-04-25T10:26:10.003Z</time></trkpt><trkpt lat="45.96734556908632" lon="9.081446695550472"><ele>763.0</ele><time>2026-04-25T10:26:11.003Z</time></trkpt><trkpt lat="45.96735109310954" lon="9.081612625234214"><ele>764.0</ele><time>2026-04-25T10:26:12.003Z</time></trkpt><trkpt lat="45.96735645897574" lon="9.081780191935444"><ele>765.0</ele><time>2026-04-25T10:26:13.003Z</time></trkpt><trkpt lat="45.96735597445184" lon="9.08194537741222"><ele>766.0</ele><time>2026-04-25T10:26:14.003Z</time></trkpt><trkpt lat="45.96734305209782" lon="9.082108336223902"><ele>766.0</ele><time>2026-04-25T10:26:15.003Z</time></trkpt><trkpt lat="45.96730995173633" lon="9.082282054024345"><ele>766.0</ele><time>2026-04-25T10:26:16.003Z</time></trkpt><trkpt lat="45.96724514092945" lon="9.082445944373749"><ele>766.0</ele><time>2026-04-25T10:26:17.003Z</time></trkpt><trkpt lat="45.967202086033396" lon="9.08263377857261"><ele>766.0</ele><time>2026-04-25T10:26:18.003Z</time></trkpt><trkpt lat="45.96715022065914" lon="9.082827369958427"><ele>768.0</ele><time>2026-04-25T10:26:19.003Z</time></trkpt><trkpt lat="45.96709448361449" lon="9.083019009391055"><ele>770.0</ele><time>2026-04-25T10:26:20.003Z</time></trkpt><trkpt lat="45.9670376752084" lon="9.083209387494136"><ele>772.0</ele><time>2026-04-25T10:26:21.003Z</time></trkpt><trkpt lat="45.96698427241742" lon="9.08338721282292"><ele>774.0</ele><time>2026-04-25T10:26:22.003Z</time></trkpt><trkpt lat="45.96692370338797" lon="9.083540939291858"><ele>777.0</ele><time>2026-04-25T10:26:23.003Z</time></trkpt><trkpt lat="45.96688423673525" lon="9.083693947067756"><ele>780.0</ele><time>2026-04-25T10:26:24.003Z</time></trkpt><trkpt lat="45.96683469697352" lon="9.083844105780322"><ele>783.0</ele><time>2026-04-25T10:26:25.003Z</time></trkpt><trkpt lat="45.96678365469859" lon="9.083993494354075"><ele>786.0</ele><time>2026-04-25T10:26:26.003Z</time></trkpt><trkpt lat="45.96673631885933" lon="9.08414602303011"><ele>782.5</ele><time>2026-04-25T10:26:27.003Z</time></trkpt><trkpt lat="45.966683861062926" lon="9.084289626136405"><ele>779.0</ele><time>2026-04-25T10:26:28.003Z</time></trkpt><trkpt lat="45.96663519559561" lon="9.084427335613578"><ele>775.5</ele><time>2026-04-25T10:26:29.003Z</time></trkpt><trkpt lat="45.966581584973966" lon="9.084572467877548"><ele>772.0</ele><time>2026-04-25T10:26:30.003Z</time></trkpt><trkpt lat="45.96653092101396" lon="9.084724951673609"><ele>772.0</ele><time>2026-04-25T10:26:31.003Z</time></trkpt><trkpt lat="45.96647142973098" lon="9.08488088594822"><ele>772.0</ele><time>2026-04-25T10:26:32.003Z</time></trkpt><trkpt lat="45.96638741526529" lon="9.085022311809874"><ele>772.0</ele><time>2026-04-25T10:26:33.003Z</time></trkpt><trkpt lat="45.966344844313426" lon="9.085191341257632"><ele>772.0</ele><time>2026-04-25T10:26:33.999Z</time></trkpt><trkpt lat="45.966278678610124" lon="9.085358264336104"><ele>776.5</ele><time>2026-04-25T10:26:34.999Z</time></trkpt><trkpt lat="45.966200659515955" lon="9.085500304615115"><ele>781.0</ele><time>2026-04-25T10:26:35.999Z</time></trkpt><trkpt lat="45.9661211218713" lon="9.085653547481703"><ele>785.5</ele><time>2026-04-25T10:26:36.999Z</time></trkpt><trkpt lat="45.96603486302315" lon="9.085812540557793"><ele>790.0</ele><time>2026-04-25T10:26:37.999Z</time></trkpt><trkpt lat="45.96595803692092" lon="9.085995250468827"><ele>792.0</ele><time>2026-04-25T10:26:38.999Z</time></trkpt><trkpt lat="45.96589330745784" lon="9.086152114601045"><ele>794.0</ele><time>2026-04-25T10:26:39.999Z</time></trkpt><trkpt lat="45.96581844167009" lon="9.086321050953833"><ele>796.0</ele><time>2026-04-25T10:26:40.999Z</time></trkpt><trkpt lat="45.96574228639591" lon="9.086496044347129"><ele>798.0</ele><time>2026-04-25T10:26:41.999Z</time></trkpt><trkpt lat="45.965672926095266" lon="9.08666351643801"><ele>798.0</ele><time>2026-04-25T10:26:42.999Z</time></trkpt><trkpt lat="45.9656016440838" lon="9.086829403235955"><ele>798.0</ele><time>2026-04-25T10:26:43.999Z</time></trkpt><trkpt lat="45.965530979538975" lon="9.086980748740748"><ele>798.0</ele><time>2026-04-25T10:26:45Z</time></trkpt><trkpt lat="45.96546210883385" lon="9.087123598122055"><ele>798.0</ele><time>2026-04-25T10:26:46Z</time></trkpt><trkpt lat="45.965399259240826" lon="9.08726151473072"><ele>798.0</ele><time>2026-04-25T10:26:47Z</time></trkpt><trkpt lat="45.9653308400736" lon="9.087396270555699"><ele>798.0</ele><time>2026-04-25T10:26:48Z</time></trkpt><trkpt lat="45.965279603508456" lon="9.087577418694906"><ele>798.0</ele><time>2026-04-25T10:26:49Z</time></trkpt><trkpt lat="45.96523767741366" lon="9.087762487359393"><ele>798.0</ele><time>2026-04-25T10:26:50Z</time></trkpt><trkpt lat="45.96519856494475" lon="9.087953579634236"><ele>803.6666666666667</ele><time>2026-04-25T10:26:51Z</time></trkpt><trkpt lat="45.965147419395635" lon="9.08813355953799"><ele>809.3333333333334</ele><time>2026-04-25T10:26:52Z</time></trkpt><trkpt lat="45.96510863042249" lon="9.088347985477217"><ele>815.0</ele><time>2026-04-25T10:26:53Z</time></trkpt><trkpt lat="45.965074264350505" lon="9.088581839805267"><ele>811.3333333333334</ele><time>2026-04-25T10:26:54Z</time></trkpt><trkpt lat="45.96503737661467" lon="9.088814955145052"><ele>807.6666666666667</ele><time>2026-04-25T10:26:55Z</time></trkpt><trkpt lat="45.96500804279343" lon="9.089064604132027"><ele>804.0</ele><time>2026-04-25T10:26:56Z</time></trkpt><trkpt lat="45.964991423556405" lon="9.089308349059527"><ele>804.0</ele><time>2026-04-25T10:26:57Z</time></trkpt><trkpt lat="45.96499903555944" lon="9.089557192693636"><ele>804.0</ele><time>2026-04-25T10:26:58Z</time></trkpt><trkpt lat="45.96499414356996" lon="9.089784099257695"><ele>804.0</ele><time>2026-04-25T10:26:59Z</time></trkpt><trkpt lat="45.96496532816663" lon="9.090013529832133"><ele>805.0</ele><time>2026-04-25T10:27:00Z</time></trkpt><trkpt lat="45.964917176302926" lon="9.090253614662288"><ele>806.0</ele><time>2026-04-25T10:27:01Z</time></trkpt><trkpt lat="45.96486554036682" lon="9.090489246354457"><ele>807.0</ele><time>2026-04-25T10:27:02Z</time></trkpt><trkpt lat="45.96482303780351" lon="9.090700643271253"><ele>810.75</ele><time>2026-04-25T10:27:03Z</time></trkpt><trkpt lat="45.96476183662423" lon="9.090892399496534"><ele>814.5</ele><time>2026-04-25T10:27:04Z</time></trkpt><trkpt lat="45.9647234013668" lon="9.09108019489064"><ele>818.25</ele><time>2026-04-25T10:27:05Z</time></trkpt><trkpt lat="45.96468840448268" lon="9.09126422273768"><ele>822.0</ele><time>2026-04-25T10:27:06Z</time></trkpt><trkpt lat="45.96463151558538" lon="9.091432849021077"><ele>822.0</ele><time>2026-04-25T10:27:07Z</time></trkpt><trkpt lat="45.96456044012849" lon="9.091577318179283"><ele>822.0</ele><time>2026-04-25T10:27:08.001Z</time></trkpt><trkpt lat="45.96449194371736" lon="9.091719263247839"><ele>822.0</ele><time>2026-04-25T10:27:09.001Z</time></trkpt><trkpt lat="45.964440700936166" lon="9.091871630009623"><ele>822.0</ele><time>2026-04-25T10:27:10.001Z</time></trkpt><trkpt lat="45.964376249916505" lon="9.092009804021314"><ele>821.1666666666666</ele><time>2026-04-25T10:27:11.001Z</time></trkpt><trkpt lat="45.964331121463246" lon="9.09213396782543"><ele>820.3333333333333</ele><time>2026-04-25T10:27:12.001Z</time></trkpt><trkpt lat="45.96429522227436" lon="9.092274273358093"><ele>819.5</ele><time>2026-04-25T10:27:13.001Z</time></trkpt><trkpt lat="45.96427710910269" lon="9.092380162490365"><ele>818.6666666666666</ele><time>2026-04-25T10:27:14.001Z</time></trkpt><trkpt lat="45.964241748932515" lon="9.092481005665514"><ele>817.8333333333333</ele><time>2026-04-25T10:27:15.001Z</time></trkpt><trkpt lat="45.9642160174839" lon="9.092594615229942"><ele>817.0</ele><time>2026-04-25T10:27:16.001Z</time></trkpt><trkpt lat="45.96417932646107" lon="9.092704578386975"><ele>816.9999999999999</ele><time>2026-04-25T10:27:17.001Z</time></trkpt><trkpt lat="45.964133428317496" lon="9.09279158465043"><ele>817.0</ele><time>2026-04-25T10:27:18.001Z</time></trkpt><trkpt lat="45.96410244707599" lon="9.092884250740358"><ele>817.0</ele><time>2026-04-25T10:27:19.001Z</time></trkpt><trkpt lat="45.964085852147484" lon="9.093036032682509"><ele>817.0</ele><time>2026-04-25T10:27:21.001Z</time></trkpt><trkpt lat="45.96407715856776" lon="9.093138849175416"><ele>816.9999999999999</ele><time>2026-04-25T10:27:22.001Z</time></trkpt><trkpt lat="45.96406773136084" lon="9.093268331033869"><ele>817.0</ele><time>2026-04-25T10:27:23.001Z</time></trkpt><trkpt lat="45.96405244681833" lon="9.09337325444785"><ele>818.8333333333333</ele><time>2026-04-25T10:27:24.001Z</time></trkpt><trkpt lat="45.964044011950286" lon="9.093463535794479"><ele>820.6666666666666</ele><time>2026-04-25T10:27:25.001Z</time></trkpt><trkpt lat="45.9640536008228" lon="9.09357923169413"><ele>822.5</ele><time>2026-04-25T10:27:26.001Z</time></trkpt><trkpt lat="45.96406326205226" lon="9.093689053023024"><ele>824.3333333333333</ele><time>2026-04-25T10:27:27.001Z</time></trkpt><trkpt lat="45.964069278281904" lon="9.093780910332635"><ele>826.1666666666666</ele><time>2026-04-25T10:27:28.001Z</time></trkpt><trkpt lat="45.96405139811912" lon="9.093970280620702"><ele>828.0</ele><time>2026-04-25T10:27:30.001Z</time></trkpt><trkpt lat="45.96405482932652" lon="9.094080639089206"><ele>828.4</ele><time>2026-04-25T10:27:31.001Z</time></trkpt><trkpt lat="45.96406071945696" lon="9.094227780397196"><ele>828.8</ele><time>2026-04-25T10:27:32.001Z</time></trkpt><trkpt lat="45.964077224591584" lon="9.094371476150453"><ele>829.2</ele><time>2026-04-25T10:27:33.001Z</time></trkpt><trkpt lat="45.96409462011812" lon="9.094507717071897"><ele>829.6</ele><time>2026-04-25T10:27:34.001Z</time></trkpt><trkpt lat="45.96410771812599" lon="9.09462970019472"><ele>830.0</ele><time>2026-04-25T10:27:35.001Z</time></trkpt><trkpt lat="45.9641061868044" lon="9.094756982088073"><ele>830.0</ele><time>2026-04-25T10:27:36.001Z</time></trkpt><trkpt lat="45.96409762552992" lon="9.094911586983168"><ele>830.0</ele><time>2026-04-25T10:27:37.002Z</time></trkpt><trkpt lat="45.96408296500535" lon="9.09506816456586"><ele>830.0</ele><time>2026-04-25T10:27:38.002Z</time></trkpt><trkpt lat="45.96408397910596" lon="9.095235905564126"><ele>830.0</ele><time>2026-04-25T10:27:39.002Z</time></trkpt><trkpt lat="45.96410112038629" lon="9.095415165578217"><ele>829.25</ele><time>2026-04-25T10:27:40.002Z</time></trkpt><trkpt lat="45.964145335554434" lon="9.095604469005167"><ele>828.5</ele><time>2026-04-25T10:27:41.002Z</time></trkpt><trkpt lat="45.9642012096813" lon="9.095791630621822"><ele>827.75</ele><time>2026-04-25T10:27:42.002Z</time></trkpt><trkpt lat="45.96425492041931" lon="9.09596422206916"><ele>827.0</ele><time>2026-04-25T10:27:43.002Z</time></trkpt><trkpt lat="45.964297332331896" lon="9.0961242676933"><ele>832.8</ele><time>2026-04-25T10:27:44.002Z</time></trkpt><trkpt lat="45.96430516237275" lon="9.096280515402968"><ele>838.6</ele><time>2026-04-25T10:27:45.002Z</time></trkpt><trkpt lat="45.96429442370044" lon="9.096441610026437"><ele>844.3999999999999</ele><time>2026-04-25T10:27:46.002Z</time></trkpt><trkpt lat="45.96429710564006" lon="9.096601569472034"><ele>850.1999999999999</ele><time>2026-04-25T10:27:47.002Z</time></trkpt><trkpt lat="45.96431509688622" lon="9.096749436640613"><ele>856.0</ele><time>2026-04-25T10:27:48.002Z</time></trkpt><trkpt lat="45.96436143416309" lon="9.096904971134741"><ele>856.0</ele><time>2026-04-25T10:27:49.002Z</time></trkpt><trkpt lat="45.964431173626494" lon="9.097047708986535"><ele>856.0</ele><time>2026-04-25T10:27:50.002Z</time></trkpt><trkpt lat="45.96452242595289" lon="9.097165416859223"><ele>856.0</ele><time>2026-04-25T10:27:51.002Z</time></trkpt><trkpt lat="45.96460745824056" lon="9.097272055987801"><ele>856.0</ele><time>2026-04-25T10:27:52.002Z</time></trkpt><trkpt lat="45.96469487141469" lon="9.097373820267935"><ele>852.4999999999999</ele><time>2026-04-25T10:27:53.002Z</time></trkpt><trkpt lat="45.96477825406811" lon="9.09747169704779"><ele>849.0</ele><time>2026-04-25T10:27:54.002Z</time></trkpt><trkpt lat="45.964821340963454" lon="9.097566049504259"><ele>845.5</ele><time>2026-04-25T10:27:55.002Z</time></trkpt><trkpt lat="45.964851312175924" lon="9.09773558335717"><ele>842.0</ele><time>2026-04-25T10:27:57.002Z</time></trkpt><trkpt lat="45.964845358038886" lon="9.097828150355092"><ele>838.4999999999999</ele><time>2026-04-25T10:27:58.002Z</time></trkpt><trkpt lat="45.96481020005441" lon="9.097906020714372"><ele>835.0</ele><time>2026-04-25T10:27:59.002Z</time></trkpt><trkpt lat="45.9647619354827" lon="9.097981741245054"><ele>835.0</ele><time>2026-04-25T10:28:00.002Z</time></trkpt><trkpt lat="45.964693359848454" lon="9.098061654261997"><ele>835.0</ele><time>2026-04-25T10:28:01.002Z</time></trkpt><trkpt lat="45.96459216006405" lon="9.09808698370489"><ele>835.0</ele><time>2026-04-25T10:28:02.002Z</time></trkpt><trkpt lat="45.96448490092533" lon="9.09807133975579"><ele>835.0</ele><time>2026-04-25T10:28:03.002Z</time></trkpt><trkpt lat="45.96437158040895" lon="9.098015784908407"><ele>835.0</ele><time>2026-04-25T10:28:04.002Z</time></trkpt><trkpt lat="45.964269022606985" lon="9.097956693127932"><ele>828.0</ele><time>2026-04-25T10:28:05.002Z</time></trkpt><trkpt lat="45.964163423134906" lon="9.09793313428609"><ele>821.0</ele><time>2026-04-25T10:28:06.002Z</time></trkpt><trkpt lat="45.96404383495159" lon="9.097940951075488"><ele>814.0</ele><time>2026-04-25T10:28:07.002Z</time></trkpt><trkpt lat="45.96389495745236" lon="9.097994134920581"><ele>807.0</ele><time>2026-04-25T10:28:08.002Z</time></trkpt><trkpt lat="45.96374277340319" lon="9.098051824151025"><ele>807.0</ele><time>2026-04-25T10:28:09.002Z</time></trkpt><trkpt lat="45.96361302561087" lon="9.098069045746767"><ele>807.0</ele><time>2026-04-25T10:28:10.003Z</time></trkpt><trkpt lat="45.96347308607325" lon="9.098047608206361"><ele>807.0</ele><time>2026-04-25T10:28:11.003Z</time></trkpt><trkpt lat="45.963346773229766" lon="9.098027029920443"><ele>807.0</ele><time>2026-04-25T10:28:12.003Z</time></trkpt><trkpt lat="45.96324314486677" lon="9.098004723364113"><ele>805.0</ele><time>2026-04-25T10:28:13.003Z</time></trkpt><trkpt lat="45.963159232037874" lon="9.097954383163515"><ele>803.0</ele><time>2026-04-25T10:28:14.003Z</time></trkpt><trkpt lat="45.96310182837129" lon="9.097849356261362"><ele>801.0</ele><time>2026-04-25T10:28:15.003Z</time></trkpt><trkpt lat="45.963061661581584" lon="9.097721667103556"><ele>799.0</ele><time>2026-04-25T10:28:16.003Z</time></trkpt><trkpt lat="45.963007552089294" lon="9.097599719312988"><ele>797.0</ele><time>2026-04-25T10:28:17.003Z</time></trkpt><trkpt lat="45.96295081359273" lon="9.097514921262336"><ele>797.0</ele><time>2026-04-25T10:28:18.003Z</time></trkpt><trkpt lat="45.962842843364214" lon="9.097454751927733"><ele>797.0</ele><time>2026-04-25T10:28:19.003Z</time></trkpt><trkpt lat="45.96272190738914" lon="9.097423183038416"><ele>797.0</ele><time>2026-04-25T10:28:20.003Z</time></trkpt><trkpt lat="45.962627014261805" lon="9.09740458806582"><ele>797.0</ele><time>2026-04-25T10:28:21.003Z</time></trkpt><trkpt lat="45.96254205380688" lon="9.097422545761722"><ele>797.0</ele><time>2026-04-25T10:28:22.003Z</time></trkpt><trkpt lat="45.962470581417634" lon="9.09747792022975"><ele>798.6</ele><time>2026-04-25T10:28:23.003Z</time></trkpt><trkpt lat="45.96240869911409" lon="9.097572067742353"><ele>800.2</ele><time>2026-04-25T10:28:24.003Z</time></trkpt><trkpt lat="45.962353224141786" lon="9.09769603722198"><ele>801.8</ele><time>2026-04-25T10:28:25.003Z</time></trkpt><trkpt lat="45.96229242890257" lon="9.097797816123641"><ele>803.4</ele><time>2026-04-25T10:28:26.003Z</time></trkpt><trkpt lat="45.96220155155251" lon="9.097848560061164"><ele>805.0</ele><time>2026-04-25T10:28:27.003Z</time></trkpt><trkpt lat="45.96210235073375" lon="9.09787266496473"><ele>805.0</ele><time>2026-04-25T10:28:28.003Z</time></trkpt><trkpt lat="45.96198519205284" lon="9.097879695292491"><ele>805.0</ele><time>2026-04-25T10:28:29.003Z</time></trkpt><trkpt lat="45.9618706002147" lon="9.097915071264385"><ele>805.0</ele><time>2026-04-25T10:28:30.003Z</time></trkpt><trkpt lat="45.96176229468515" lon="9.09793308556947"><ele>805.0</ele><time>2026-04-25T10:28:31.003Z</time></trkpt><trkpt lat="45.961670410710745" lon="9.097966455968168"><ele>805.0</ele><time>2026-04-25T10:28:32.003Z</time></trkpt><trkpt lat="45.96159336482946" lon="9.097960162881686"><ele>803.2</ele><time>2026-04-25T10:28:33.003Z</time></trkpt><trkpt lat="45.96153110752704" lon="9.097900105528959"><ele>801.4</ele><time>2026-04-25T10:28:34.003Z</time></trkpt><trkpt lat="45.96147108820911" lon="9.097799964425837"><ele>799.5999999999999</ele><time>2026-04-25T10:28:35.003Z</time></trkpt><trkpt lat="45.96140405253944" lon="9.097681271849988"><ele>797.8</ele><time>2026-04-25T10:28:36.003Z</time></trkpt><trkpt lat="45.96131774035362" lon="9.097562938351992"><ele>796.0</ele><time>2026-04-25T10:28:37.003Z</time></trkpt><trkpt lat="45.96121349238971" lon="9.097469760121289"><ele>793.1999999999999</ele><time>2026-04-25T10:28:38.003Z</time></trkpt><trkpt lat="45.96111454243742" lon="9.097412559687786"><ele>790.4</ele><time>2026-04-25T10:28:39.003Z</time></trkpt><trkpt lat="45.961027083920676" lon="9.097329405812275"><ele>787.6</ele><time>2026-04-25T10:28:39.999Z</time></trkpt><trkpt lat="45.96093979288542" lon="9.097280296958392"><ele>784.8</ele><time>2026-04-25T10:28:40.999Z</time></trkpt><trkpt lat="45.96083906609863" lon="9.09727317647048"><ele>782.0</ele><time>2026-04-25T10:28:41.999Z</time></trkpt><trkpt lat="45.960732639241634" lon="9.097294193843295"><ele>781.6</ele><time>2026-04-25T10:28:42.999Z</time></trkpt><trkpt lat="45.96063451771083" lon="9.097319397113719"><ele>781.2</ele><time>2026-04-25T10:28:43.999Z</time></trkpt><trkpt lat="45.960525941621725" lon="9.097352965736327"><ele>780.8</ele><time>2026-04-25T10:28:44.999Z</time></trkpt><trkpt lat="45.960441833533906" lon="9.097391966323332"><ele>780.4</ele><time>2026-04-25T10:28:45.999Z</time></trkpt><trkpt lat="45.96035145466723" lon="9.097443355825128"><ele>780.0</ele><time>2026-04-25T10:28:46.999Z</time></trkpt><trkpt lat="45.96025581270076" lon="9.097471997585517"><ele>781.3333333333334</ele><time>2026-04-25T10:28:48Z</time></trkpt><trkpt lat="45.96019330108972" lon="9.097516443424148"><ele>782.6666666666667</ele><time>2026-04-25T10:28:49Z</time></trkpt><trkpt lat="45.960119474944975" lon="9.097552276284103"><ele>784.0</ele><time>2026-04-25T10:28:50Z</time></trkpt><trkpt lat="45.96005254154668" lon="9.097599798460086"><ele>785.3333333333334</ele><time>2026-04-25T10:28:51Z</time></trkpt><trkpt lat="45.95997047987953" lon="9.097620694689805"><ele>786.6666666666667</ele><time>2026-04-25T10:28:52Z</time></trkpt><trkpt lat="45.959889118632404" lon="9.097689226640755"><ele>788.0</ele><time>2026-04-25T10:28:53Z</time></trkpt><trkpt lat="45.959809586216856" lon="9.097725724314177"><ele>788.0000000000001</ele><time>2026-04-25T10:28:54Z</time></trkpt><trkpt lat="45.95973508234112" lon="9.097762852737254"><ele>788.0</ele><time>2026-04-25T10:28:55Z</time></trkpt><trkpt lat="45.95965879442625" lon="9.097824332845137"><ele>788.0</ele><time>2026-04-25T10:28:56Z</time></trkpt><trkpt lat="45.95959259271621" lon="9.097864698465862"><ele>788.0</ele><time>2026-04-25T10:28:57Z</time></trkpt><trkpt lat="45.95948696917327" lon="9.097943514559006"><ele>788.0000000000001</ele><time>2026-04-25T10:28:59Z</time></trkpt><trkpt lat="45.95942778137613" lon="9.097993730610803"><ele>788.0</ele><time>2026-04-25T10:29:00Z</time></trkpt><trkpt lat="45.95937707059437" lon="9.098074624709374"><ele>788.0000000000001</ele><time>2026-04-25T10:29:01Z</time></trkpt><trkpt lat="45.959324194637624" lon="9.09813686320596"><ele>788.0</ele><time>2026-04-25T10:29:02Z</time></trkpt><trkpt lat="45.95925322294465" lon="9.098194613116487"><ele>788.0</ele><time>2026-04-25T10:29:03Z</time></trkpt><trkpt lat="45.95919732485801" lon="9.098251928588478"><ele>788.0</ele><time>2026-04-25T10:29:04Z</time></trkpt><trkpt lat="45.95906704523313" lon="9.098339623267107"><ele>788.0000000000001</ele><time>2026-04-25T10:29:06Z</time></trkpt><trkpt lat="45.95899049171078" lon="9.098365178033681"><ele>788.0</ele><time>2026-04-25T10:29:07Z</time></trkpt><trkpt lat="45.95890676255344" lon="9.098416473233579"><ele>788.0000000000001</ele><time>2026-04-25T10:29:08Z</time></trkpt><trkpt lat="45.958821391805664" lon="9.098468774190165"><ele>788.0</ele><time>2026-04-25T10:29:09Z</time></trkpt><trkpt lat="45.958747507869305" lon="9.09853006718341"><ele>788.0</ele><time>2026-04-25T10:29:10Z</time></trkpt><trkpt lat="45.95867807776118" lon="9.098622710843248"><ele>788.0</ele><time>2026-04-25T10:29:11Z</time></trkpt><trkpt lat="45.95861769120145" lon="9.098711983258363"><ele>788.0000000000001</ele><time>2026-04-25T10:29:12Z</time></trkpt><trkpt lat="45.95857181636517" lon="9.09880851233541"><ele>788.0</ele><time>2026-04-25T10:29:13Z</time></trkpt><trkpt lat="45.958503218502386" lon="9.098919324461649"><ele>788.0</ele><time>2026-04-25T10:29:14Z</time></trkpt><trkpt lat="45.95841693757234" lon="9.098990366012202"><ele>788.0</ele><time>2026-04-25T10:29:15.001Z</time></trkpt><trkpt lat="45.95834110749892" lon="9.099089196658957"><ele>788.0</ele><time>2026-04-25T10:29:16.001Z</time></trkpt><trkpt lat="45.958239732979266" lon="9.099154211181343"><ele>788.0</ele><time>2026-04-25T10:29:17.001Z</time></trkpt><trkpt lat="45.95813684604752" lon="9.099220736353214"><ele>788.0</ele><time>2026-04-25T10:29:18.001Z</time></trkpt><trkpt lat="45.95803253509692" lon="9.09930501681772"><ele>789.8</ele><time>2026-04-25T10:29:19.001Z</time></trkpt><trkpt lat="45.957931877017145" lon="9.099377030106364"><ele>791.5999999999999</ele><time>2026-04-25T10:29:20.001Z</time></trkpt><trkpt lat="45.957836099670736" lon="9.099471234631652"><ele>793.4000000000001</ele><time>2026-04-25T10:29:21.001Z</time></trkpt><trkpt lat="45.95776209103488" lon="9.099582716092158"><ele>795.2</ele><time>2026-04-25T10:29:22.001Z</time></trkpt><trkpt lat="45.95769757563703" lon="9.099676364599063"><ele>797.0</ele><time>2026-04-25T10:29:23.001Z</time></trkpt><trkpt lat="45.957626019683175" lon="9.0997880705715"><ele>797.0</ele><time>2026-04-25T10:29:24.001Z</time></trkpt><trkpt lat="45.95755819145642" lon="9.099897783607538"><ele>797.0</ele><time>2026-04-25T10:29:25.001Z</time></trkpt><trkpt lat="45.95750840482925" lon="9.100015841356113"><ele>797.0</ele><time>2026-04-25T10:29:26.001Z</time></trkpt><trkpt lat="45.957460330941664" lon="9.100116507695859"><ele>797.0</ele><time>2026-04-25T10:29:27.001Z</time></trkpt><trkpt lat="45.957441600217145" lon="9.100238184480885"><ele>797.0</ele><time>2026-04-25T10:29:28.001Z</time></trkpt><trkpt lat="45.95743413481296" lon="9.100370138137075"><ele>795.8</ele><time>2026-04-25T10:29:29.001Z</time></trkpt><trkpt lat="45.95743351146923" lon="9.100509572903276"><ele>794.6</ele><time>2026-04-25T10:29:30.001Z</time></trkpt><trkpt lat="45.957441148087135" lon="9.10064448189803"><ele>793.4</ele><time>2026-04-25T10:29:31.001Z</time></trkpt><trkpt lat="45.95745109591721" lon="9.100778922853163"><ele>792.1999999999999</ele><time>2026-04-25T10:29:32.001Z</time></trkpt><trkpt lat="45.95747029092876" lon="9.100930819204098"><ele>791.0</ele><time>2026-04-25T10:29:34.001Z</time></trkpt><trkpt lat="45.9574961750952" lon="9.101084736926385"><ele>794.1999999999999</ele><time>2026-04-25T10:29:36.001Z</time></trkpt><trkpt lat="45.957471918753136" lon="9.10120739177769"><ele>797.4</ele><time>2026-04-25T10:29:38.001Z</time></trkpt><trkpt lat="45.95734044127173" lon="9.101222771011052"><ele>800.6</ele><time>2026-04-25T10:29:40.001Z</time></trkpt><trkpt lat="45.95726692526643" lon="9.101220958619113"><ele>803.8</ele><time>2026-04-25T10:29:41.001Z</time></trkpt><trkpt lat="45.95719718858638" lon="9.101233879826797"><ele>807.0</ele><time>2026-04-25T10:29:42.001Z</time></trkpt><trkpt lat="45.9570722653038" lon="9.10133992185695"><ele>807.0</ele><time>2026-04-25T10:29:44.001Z</time></trkpt><trkpt lat="45.95699454504843" lon="9.101411172282736"><ele>807.0</ele><time>2026-04-25T10:29:45.002Z</time></trkpt><trkpt lat="45.95694655796416" lon="9.101499207847104"><ele>807.0</ele><time>2026-04-25T10:29:46.002Z</time></trkpt><trkpt lat="45.95684770393738" lon="9.10158717211197"><ele>807.0</ele><time>2026-04-25T10:29:48.002Z</time></trkpt><trkpt lat="45.95674145765619" lon="9.101610491017329"><ele>807.0</ele><time>2026-04-25T10:29:50.002Z</time></trkpt><trkpt lat="45.95668792122531" lon="9.101553018446669"><ele>805.0</ele><time>2026-04-25T10:29:51.002Z</time></trkpt><trkpt lat="45.95665259261717" lon="9.101457922259375"><ele>803.0</ele><time>2026-04-25T10:29:52.002Z</time></trkpt><trkpt lat="45.95659009082195" lon="9.101322008146367"><ele>801.0</ele><time>2026-04-25T10:29:54.002Z</time></trkpt><trkpt lat="45.956538397340545" lon="9.101262899625373"><ele>799.0</ele><time>2026-04-25T10:29:55.002Z</time></trkpt><trkpt lat="45.95643889579452" lon="9.101191370153348"><ele>797.0</ele><time>2026-04-25T10:29:57.002Z</time></trkpt><trkpt lat="45.956346357842406" lon="9.1011681926987"><ele>797.0000000000001</ele><time>2026-04-25T10:29:59.002Z</time></trkpt><trkpt lat="45.95623926983962" lon="9.101197904468519"><ele>797.0</ele><time>2026-04-25T10:30:01.002Z</time></trkpt><trkpt lat="45.95613539693227" lon="9.101155444245501"><ele>797.0</ele><time>2026-04-25T10:30:03.002Z</time></trkpt><trkpt lat="45.95606708047745" lon="9.101122684825235"><ele>797.0</ele><time>2026-04-25T10:30:04.002Z</time></trkpt><trkpt lat="45.95599297915705" lon="9.101106584095975"><ele>797.0000000000001</ele><time>2026-04-25T10:30:05.002Z</time></trkpt><trkpt lat="45.95591581194089" lon="9.101124058766823"><ele>797.0</ele><time>2026-04-25T10:30:06.002Z</time></trkpt><trkpt lat="45.95583943763415" lon="9.101165246390172"><ele>795.0000000000001</ele><time>2026-04-25T10:30:07.002Z</time></trkpt><trkpt lat="45.95576810445598" lon="9.101220955960711"><ele>793.0</ele><time>2026-04-25T10:30:08.002Z</time></trkpt><trkpt lat="45.95566436412565" lon="9.101291283515318"><ele>791.0</ele><time>2026-04-25T10:30:10.002Z</time></trkpt><trkpt lat="45.95555128345074" lon="9.101308869010344"><ele>789.0</ele><time>2026-04-25T10:30:12.002Z</time></trkpt><trkpt lat="45.955488952262336" lon="9.101324936094635"><ele>787.0000000000001</ele><time>2026-04-25T10:30:13.002Z</time></trkpt><trkpt lat="45.95542507898402" lon="9.101367424938612"><ele>785.0</ele><time>2026-04-25T10:30:14.002Z</time></trkpt><trkpt lat="45.95536683296504" lon="9.101424471841193"><ele>785.0</ele><time>2026-04-25T10:30:15.002Z</time></trkpt><trkpt lat="45.95531796068721" lon="9.1014833303009"><ele>785.0</ele><time>2026-04-25T10:30:16.002Z</time></trkpt><trkpt lat="45.95527053614823" lon="9.10154404608337"><ele>785.0</ele><time>2026-04-25T10:30:17.002Z</time></trkpt><trkpt lat="45.95521550832578" lon="9.101597886116952"><ele>785.0</ele><time>2026-04-25T10:30:18.003Z</time></trkpt><trkpt lat="45.95516323325249" lon="9.10165120313208"><ele>785.0</ele><time>2026-04-25T10:30:19.003Z</time></trkpt><trkpt lat="45.955099111020445" lon="9.10167769839922"><ele>785.0</ele><time>2026-04-25T10:30:20.003Z</time></trkpt><trkpt lat="45.95503090273886" lon="9.101664576277768"><ele>785.0</ele><time>2026-04-25T10:30:21.003Z</time></trkpt><trkpt lat="45.9549282579304" lon="9.101591949702362"><ele>785.6</ele><time>2026-04-25T10:30:23.003Z</time></trkpt><trkpt lat="45.95483007440096" lon="9.10143244707208"><ele>786.2</ele><time>2026-04-25T10:30:25.003Z</time></trkpt><trkpt lat="45.95479058798705" lon="9.10135805393514"><ele>786.8</ele><time>2026-04-25T10:30:26.003Z</time></trkpt><trkpt lat="45.95474787516723" lon="9.101282951154255"><ele>787.4</ele><time>2026-04-25T10:30:27.003Z</time></trkpt><trkpt lat="45.954666157447015" lon="9.10114126524703"><ele>788.0</ele><time>2026-04-25T10:30:29.003Z</time></trkpt><trkpt lat="45.95459907638051" lon="9.101026650724629"><ele>788.0</ele><time>2026-04-25T10:30:31.003Z</time></trkpt><trkpt lat="45.95447694571459" lon="9.101017053802375"><ele>788.0</ele><time>2026-04-25T10:30:33.003Z</time></trkpt><trkpt lat="45.954413742603165" lon="9.101034987443697"><ele>788.0</ele><time>2026-04-25T10:30:34.003Z</time></trkpt><trkpt lat="45.95428760416274" lon="9.101062169606374"><ele>788.0</ele><time>2026-04-25T10:30:36.003Z</time></trkpt><trkpt lat="45.95422237473909" lon="9.101076607646668"><ele>788.0</ele><time>2026-04-25T10:30:37.003Z</time></trkpt><trkpt lat="45.95411057015452" lon="9.101094166258777"><ele>791.6666666666667</ele><time>2026-04-25T10:30:39.003Z</time></trkpt><trkpt lat="45.9540463686614" lon="9.101102034922041"><ele>795.3333333333334</ele><time>2026-04-25T10:30:40.003Z</time></trkpt><trkpt lat="45.953969500910596" lon="9.101106389241977"><ele>799.0</ele><time>2026-04-25T10:30:41.003Z</time></trkpt><trkpt lat="45.95387878905755" lon="9.101100660490848"><ele>802.6666666666667</ele><time>2026-04-25T10:30:42.003Z</time></trkpt><trkpt lat="45.95378137497628" lon="9.101084287102148"><ele>806.3333333333334</ele><time>2026-04-25T10:30:43.003Z</time></trkpt><trkpt lat="45.95368355183567" lon="9.101049828716752"><ele>810.0</ele><time>2026-04-25T10:30:44.003Z</time></trkpt><trkpt lat="45.95359413952176" lon="9.10101528273712"><ele>810.0</ele><time>2026-04-25T10:30:45.003Z</time></trkpt><trkpt lat="45.95351139529084" lon="9.100987593516601"><ele>810.0</ele><time>2026-04-25T10:30:45.999Z</time></trkpt><trkpt lat="45.953430674922934" lon="9.100946799631087"><ele>810.0</ele><time>2026-04-25T10:30:46.999Z</time></trkpt><trkpt lat="45.95334916228101" lon="9.100853017419977"><ele>810.0</ele><time>2026-04-25T10:30:48Z</time></trkpt><trkpt lat="45.95325222188932" lon="9.100759734044479"><ele>810.0</ele><time>2026-04-25T10:30:49Z</time></trkpt><trkpt lat="45.95316944868924" lon="9.100640262067609"><ele>808.0</ele><time>2026-04-25T10:30:50Z</time></trkpt><trkpt lat="45.95311203749614" lon="9.10053397659545"><ele>806.0</ele><time>2026-04-25T10:30:51Z</time></trkpt><trkpt lat="45.95307123580986" lon="9.100435231863667"><ele>804.0</ele><time>2026-04-25T10:30:52Z</time></trkpt><trkpt lat="45.95303926257848" lon="9.100352438546905"><ele>802.0</ele><time>2026-04-25T10:30:53Z</time></trkpt><trkpt lat="45.952974568632115" lon="9.100249696745275"><ele>800.0</ele><time>2026-04-25T10:30:55Z</time></trkpt><trkpt lat="45.95290576646733" lon="9.100174446730918"><ele>798.0</ele><time>2026-04-25T10:30:56Z</time></trkpt><trkpt lat="45.95284472558518" lon="9.1001361531275"><ele>798.0</ele><time>2026-04-25T10:30:57Z</time></trkpt><trkpt lat="45.95277685125422" lon="9.100105761694596"><ele>798.0</ele><time>2026-04-25T10:30:58Z</time></trkpt><trkpt lat="45.95269307891642" lon="9.100075573982453"><ele>798.0</ele><time>2026-04-25T10:30:59Z</time></trkpt><trkpt lat="45.95260296214219" lon="9.100068377451871"><ele>798.0</ele><time>2026-04-25T10:31:00Z</time></trkpt><trkpt lat="45.95249897589548" lon="9.100107646527249"><ele>798.0</ele><time>2026-04-25T10:31:01Z</time></trkpt><trkpt lat="45.952434244533485" lon="9.100156225704982"><ele>798.0</ele><time>2026-04-25T10:31:02Z</time></trkpt><trkpt lat="45.95237361859164" lon="9.100209709897607"><ele>800.8333333333334</ele><time>2026-04-25T10:31:03Z</time></trkpt><trkpt lat="45.9523179128613" lon="9.100262749711334"><ele>803.6666666666667</ele><time>2026-04-25T10:31:04Z</time></trkpt><trkpt lat="45.952274770808785" lon="9.100329375305371"><ele>806.5</ele><time>2026-04-25T10:31:05Z</time></trkpt><trkpt lat="45.952214022158394" lon="9.10036025348466"><ele>809.3333333333334</ele><time>2026-04-25T10:31:06Z</time></trkpt><trkpt lat="45.95215368170149" lon="9.100406626421"><ele>812.1666666666667</ele><time>2026-04-25T10:31:07Z</time></trkpt><trkpt lat="45.95203477341773" lon="9.100489885201776"><ele>815.0</ele><time>2026-04-25T10:31:09Z</time></trkpt><trkpt lat="45.95196360511274" lon="9.10056168163134"><ele>815.0000000000001</ele><time>2026-04-25T10:31:10Z</time></trkpt><trkpt lat="45.95189884278692" lon="9.100649276436597"><ele>815.0</ele><time>2026-04-25T10:31:11Z</time></trkpt><trkpt lat="45.95182955054133" lon="9.100755902673098"><ele>815.0</ele><time>2026-04-25T10:31:12Z</time></trkpt><trkpt lat="45.951772143772615" lon="9.100859577463368"><ele>815.0</ele><time>2026-04-25T10:31:13Z</time></trkpt><trkpt lat="45.95172988900456" lon="9.100948741623395"><ele>815.0000000000001</ele><time>2026-04-25T10:31:14Z</time></trkpt><trkpt lat="45.95169208676981" lon="9.101053816249925"><ele>815.0</ele><time>2026-04-25T10:31:15Z</time></trkpt><trkpt lat="45.95164719913915" lon="9.10115125748744"><ele>815.3333333333334</ele><time>2026-04-25T10:31:16Z</time></trkpt><trkpt lat="45.95160698209039" lon="9.101251635625937"><ele>815.6666666666667</ele><time>2026-04-25T10:31:17Z</time></trkpt><trkpt lat="45.95155579617246" lon="9.101335021171074"><ele>816.0</ele><time>2026-04-25T10:31:18.001Z</time></trkpt><trkpt lat="45.95149092249982" lon="9.101408229881615"><ele>816.3333333333333</ele><time>2026-04-25T10:31:19.001Z</time></trkpt><trkpt lat="45.95142343255768" lon="9.101488536143004"><ele>816.6666666666666</ele><time>2026-04-25T10:31:20.001Z</time></trkpt><trkpt lat="45.95135816886138" lon="9.101577836287113"><ele>817.0</ele><time>2026-04-25T10:31:21.001Z</time></trkpt><trkpt lat="45.95130735290265" lon="9.10166182845936"><ele>822.8</ele><time>2026-04-25T10:31:22.001Z</time></trkpt><trkpt lat="45.95126435694775" lon="9.101768768854132"><ele>828.6</ele><time>2026-04-25T10:31:23.001Z</time></trkpt><trkpt lat="45.95122419647478" lon="9.101885504428697"><ele>834.4</ele><time>2026-04-25T10:31:24.001Z</time></trkpt><trkpt lat="45.951197919471184" lon="9.102012948461793"><ele>840.1999999999999</ele><time>2026-04-25T10:31:25.001Z</time></trkpt><trkpt lat="45.95117130665201" lon="9.102145704479263"><ele>846.0</ele><time>2026-04-25T10:31:26.001Z</time></trkpt><trkpt lat="45.951146538983835" lon="9.10228174242648"><ele>850.8</ele><time>2026-04-25T10:31:27.001Z</time></trkpt><trkpt lat="45.95111997719527" lon="9.102425101751006"><ele>855.5999999999999</ele><time>2026-04-25T10:31:28.001Z</time></trkpt><trkpt lat="45.95109236958032" lon="9.102564340091364"><ele>860.4</ele><time>2026-04-25T10:31:29.001Z</time></trkpt><trkpt lat="45.95106267708602" lon="9.102703683749395"><ele>865.2</ele><time>2026-04-25T10:31:30.001Z</time></trkpt><trkpt lat="45.9510421168084" lon="9.102839252468941"><ele>870.0</ele><time>2026-04-25T10:31:31.001Z</time></trkpt><trkpt lat="45.95103439363902" lon="9.102976293161515"><ele>870.0</ele><time>2026-04-25T10:31:32.001Z</time></trkpt><trkpt lat="45.95102973990829" lon="9.10310785455885"><ele>870.0</ele><time>2026-04-25T10:31:33.001Z</time></trkpt><trkpt lat="45.95102510595614" lon="9.103239116028341"><ele>870.0</ele><time>2026-04-25T10:31:34.001Z</time></trkpt><trkpt lat="45.95101535578135" lon="9.103369116714719"><ele>870.0</ele><time>2026-04-25T10:31:35.001Z</time></trkpt><trkpt lat="45.95099842754575" lon="9.10348712655883"><ele>870.0</ele><time>2026-04-25T10:31:36.001Z</time></trkpt><trkpt lat="45.95097465060921" lon="9.103594573523418"><ele>870.0</ele><time>2026-04-25T10:31:37.001Z</time></trkpt><trkpt lat="45.95096085707756" lon="9.103747954628963"><ele>872.5714285714287</ele><time>2026-04-25T10:31:39.001Z</time></trkpt><trkpt lat="45.95095025787859" lon="9.103842680519582"><ele>875.1428571428571</ele><time>2026-04-25T10:31:42.001Z</time></trkpt><trkpt lat="45.95094691992461" lon="9.103968974036901"><ele>877.7142857142858</ele><time>2026-04-25T10:31:53.002Z</time></trkpt><trkpt lat="45.95094224237906" lon="9.104060682619808"><ele>880.2857142857143</ele><time>2026-04-25T10:31:54.002Z</time></trkpt><trkpt lat="45.95092883812551" lon="9.104171252973945"><ele>882.8571428571429</ele><time>2026-04-25T10:31:55.002Z</time></trkpt><trkpt lat="45.95091454812512" lon="9.104269188263777"><ele>885.4285714285714</ele><time>2026-04-25T10:31:56.002Z</time></trkpt><trkpt lat="45.95090157470669" lon="9.10436536537639"><ele>888.0</ele><time>2026-04-25T10:31:57.002Z</time></trkpt><trkpt lat="45.95088286519282" lon="9.104469047290356"><ele>877.0</ele><time>2026-04-25T10:31:58.002Z</time></trkpt><trkpt lat="45.95086784700689" lon="9.104570919214833"><ele>866.0</ele><time>2026-04-25T10:31:59.002Z</time></trkpt><trkpt lat="45.9508503174155" lon="9.104677854235803"><ele>855.0</ele><time>2026-04-25T10:32:00.002Z</time></trkpt><trkpt lat="45.950839304025166" lon="9.104774812261072"><ele>844.0</ele><time>2026-04-25T10:32:01.002Z</time></trkpt><trkpt lat="45.95081285896045" lon="9.10495439347873"><ele>833.0</ele><time>2026-04-25T10:32:03.002Z</time></trkpt><trkpt lat="45.95080724900194" lon="9.105061962761624"><ele>822.0</ele><time>2026-04-25T10:32:04.002Z</time></trkpt><trkpt lat="45.95081537109584" lon="9.105180553369216"><ele>822.0</ele><time>2026-04-25T10:32:05.002Z</time></trkpt><trkpt lat="45.95084546588619" lon="9.105298297632716"><ele>822.0</ele><time>2026-04-25T10:32:06.002Z</time></trkpt><trkpt lat="45.95087755996736" lon="9.105413572987056"><ele>822.0</ele><time>2026-04-25T10:32:07.002Z</time></trkpt><trkpt lat="45.950902354289674" lon="9.105534320215545"><ele>822.0</ele><time>2026-04-25T10:32:08.002Z</time></trkpt><trkpt lat="45.95092499632565" lon="9.105645670892082"><ele>822.0</ele><time>2026-04-25T10:32:09.002Z</time></trkpt><trkpt lat="45.95094665230562" lon="9.105747952622984"><ele>822.0</ele><time>2026-04-25T10:32:10.002Z</time></trkpt><trkpt lat="45.95095750548672" lon="9.105850817206504"><ele>835.6</ele><time>2026-04-25T10:32:11.002Z</time></trkpt><trkpt lat="45.9509923934097" lon="9.105949222372466"><ele>849.2</ele><time>2026-04-25T10:32:12.002Z</time></trkpt><trkpt lat="45.95105960560945" lon="9.106068729752353"><ele>862.8</ele><time>2026-04-25T10:32:13.002Z</time></trkpt><trkpt lat="45.95109306114942" lon="9.10620866601047"><ele>876.4</ele><time>2026-04-25T10:32:14.002Z</time></trkpt><trkpt lat="45.95113860765165" lon="9.1063049465863"><ele>890.0</ele><time>2026-04-25T10:32:15.002Z</time></trkpt><trkpt lat="45.95119586880834" lon="9.106413546209042"><ele>890.0000000000001</ele><time>2026-04-25T10:32:16.002Z</time></trkpt><trkpt lat="45.951248244999476" lon="9.106508264756407"><ele>890.0</ele><time>2026-04-25T10:32:17.002Z</time></trkpt><trkpt lat="45.951317081345714" lon="9.106587562136168"><ele>890.0</ele><time>2026-04-25T10:32:18.002Z</time></trkpt><trkpt lat="45.95135630579498" lon="9.106679174266432"><ele>890.0</ele><time>2026-04-25T10:32:19.002Z</time></trkpt><trkpt lat="45.951411387393605" lon="9.106760044944412"><ele>890.0000000000001</ele><time>2026-04-25T10:32:20.002Z</time></trkpt><trkpt lat="45.951473961946" lon="9.106843520817945"><ele>890.0</ele><time>2026-04-25T10:32:21.002Z</time></trkpt><trkpt lat="45.95154042584473" lon="9.106918484281756"><ele>891.3333333333334</ele><time>2026-04-25T10:32:22.003Z</time></trkpt><trkpt lat="45.951622637569045" lon="9.10697941035875"><ele>892.6666666666667</ele><time>2026-04-25T10:32:23.003Z</time></trkpt><trkpt lat="45.95169988016659" lon="9.107041766355984"><ele>894.0</ele><time>2026-04-25T10:32:24.003Z</time></trkpt><trkpt lat="45.951780498644375" lon="9.107108381234653"><ele>895.3333333333333</ele><time>2026-04-25T10:32:25.003Z</time></trkpt><trkpt lat="45.95185897070474" lon="9.107172852455085"><ele>896.6666666666666</ele><time>2026-04-25T10:32:26.003Z</time></trkpt><trkpt lat="45.951929744311585" lon="9.107229066718515"><ele>898.0</ele><time>2026-04-25T10:32:27.003Z</time></trkpt><trkpt lat="45.952004878049884" lon="9.107288744154719"><ele>898.0</ele><time>2026-04-25T10:32:28.003Z</time></trkpt><trkpt lat="45.95207733346553" lon="9.107348490864085"><ele>898.0</ele><time>2026-04-25T10:32:29.003Z</time></trkpt><trkpt lat="45.952149199229694" lon="9.107410195981096"><ele>898.0</ele><time>2026-04-25T10:32:30.003Z</time></trkpt><trkpt lat="45.95221703174474" lon="9.107493062855712"><ele>898.0</ele><time>2026-04-25T10:32:31.003Z</time></trkpt><trkpt lat="45.952266108464435" lon="9.107609399459733"><ele>898.0</ele><time>2026-04-25T10:32:32.003Z</time></trkpt><trkpt lat="45.95231989559347" lon="9.107743462369724"><ele>891.8</ele><time>2026-04-25T10:32:33.003Z</time></trkpt><trkpt lat="45.952383897146476" lon="9.10787016708876"><ele>885.5999999999999</ele><time>2026-04-25T10:32:34.003Z</time></trkpt><trkpt lat="45.95240671728642" lon="9.108024204314631"><ele>879.4000000000001</ele><time>2026-04-25T10:32:35.003Z</time></trkpt><trkpt lat="45.95243011182307" lon="9.108176777220992"><ele>873.2</ele><time>2026-04-25T10:32:36.003Z</time></trkpt><trkpt lat="45.952457857727765" lon="9.108331616105952"><ele>867.0</ele><time>2026-04-25T10:32:37.003Z</time></trkpt><trkpt lat="45.95250388010068" lon="9.108473861891792"><ele>873.0</ele><time>2026-04-25T10:32:38.003Z</time></trkpt><trkpt lat="45.952540240099275" lon="9.108611609475133"><ele>879.0</ele><time>2026-04-25T10:32:39.003Z</time></trkpt><trkpt lat="45.95257909739632" lon="9.10872694642153"><ele>885.0</ele><time>2026-04-25T10:32:40.003Z</time></trkpt><trkpt lat="45.952617365836986" lon="9.108826499372435"><ele>891.0</ele><time>2026-04-25T10:32:41.003Z</time></trkpt><trkpt lat="45.952652503156635" lon="9.108918127136928"><ele>897.0</ele><time>2026-04-25T10:32:42.003Z</time></trkpt><trkpt lat="45.95272432299219" lon="9.108986275333445"><ele>903.0</ele><time>2026-04-25T10:32:43.003Z</time></trkpt><trkpt lat="45.95280011804604" lon="9.109057933618638"><ele>898.0</ele><time>2026-04-25T10:32:44.003Z</time></trkpt><trkpt lat="45.952867447958404" lon="9.10911932093101"><ele>893.0</ele><time>2026-04-25T10:32:45.003Z</time></trkpt><trkpt lat="45.95294589687149" lon="9.109163321648092"><ele>888.0</ele><time>2026-04-25T10:32:46.003Z</time></trkpt><trkpt lat="45.953013195451305" lon="9.109241538235729"><ele>883.0</ele><time>2026-04-25T10:32:47.003Z</time></trkpt><trkpt lat="45.95307699423193" lon="9.109303518135485"><ele>878.0</ele><time>2026-04-25T10:32:48.003Z</time></trkpt><trkpt lat="45.95315252588092" lon="9.109363604105036"><ele>873.0</ele><time>2026-04-25T10:32:49.003Z</time></trkpt><trkpt lat="45.95321725881156" lon="9.109425999593395"><ele>873.0</ele><time>2026-04-25T10:32:50.003Z</time></trkpt><trkpt lat="45.953285265873795" lon="9.109488314310621"><ele>873.0</ele><time>2026-04-25T10:32:51.003Z</time></trkpt><trkpt lat="45.95334935404198" lon="9.109558400767453"><ele>873.0</ele><time>2026-04-25T10:32:52Z</time></trkpt><trkpt lat="45.95341223045399" lon="9.109657310771967"><ele>873.0</ele><time>2026-04-25T10:32:53Z</time></trkpt><trkpt lat="45.95345345212778" lon="9.109774467429675"><ele>873.0</ele><time>2026-04-25T10:32:54Z</time></trkpt><trkpt lat="45.95350491420966" lon="9.109873417340768"><ele>873.0</ele><time>2026-04-25T10:32:55Z</time></trkpt><trkpt lat="45.95355926268782" lon="9.109971523710477"><ele>871.8333333333334</ele><time>2026-04-25T10:32:56Z</time></trkpt><trkpt lat="45.9536196289702" lon="9.110069307338415"><ele>870.6666666666667</ele><time>2026-04-25T10:32:57Z</time></trkpt><trkpt lat="45.953673327348916" lon="9.110150289159085"><ele>869.5</ele><time>2026-04-25T10:32:58Z</time></trkpt><trkpt lat="45.9537378439524" lon="9.110201183166613"><ele>868.3333333333334</ele><time>2026-04-25T10:32:59Z</time></trkpt><trkpt lat="45.95381067703151" lon="9.110217568014596"><ele>867.1666666666667</ele><time>2026-04-25T10:33:00Z</time></trkpt><trkpt lat="45.953892445838136" lon="9.110207810095831"><ele>866.0</ele><time>2026-04-25T10:33:01Z</time></trkpt><trkpt lat="45.95396156563882" lon="9.110202852760088"><ele>866.0000000000001</ele><time>2026-04-25T10:33:02Z</time></trkpt><trkpt lat="45.954035280260335" lon="9.110224018961338"><ele>866.0</ele><time>2026-04-25T10:33:03Z</time></trkpt><trkpt lat="45.954103936776626" lon="9.110266933151866"><ele>866.0</ele><time>2026-04-25T10:33:04Z</time></trkpt><trkpt lat="45.95417589958804" lon="9.11027655354848"><ele>866.0</ele><time>2026-04-25T10:33:05Z</time></trkpt><trkpt lat="45.95426442965576" lon="9.110267585289451"><ele>866.0000000000001</ele><time>2026-04-25T10:33:06Z</time></trkpt><trkpt lat="45.95434569388323" lon="9.110242861288734"><ele>866.0</ele><time>2026-04-25T10:33:07Z</time></trkpt><trkpt lat="45.954422581751295" lon="9.110222814152484"><ele>869.3333333333334</ele><time>2026-04-25T10:33:08Z</time></trkpt><trkpt lat="45.95448966676633" lon="9.110195140128518"><ele>872.6666666666667</ele><time>2026-04-25T10:33:09Z</time></trkpt><trkpt lat="45.954553505848416" lon="9.11016708299692"><ele>876.0</ele><time>2026-04-25T10:33:10Z</time></trkpt><trkpt lat="45.95465142321241" lon="9.110123702315047"><ele>879.3333333333333</ele><time>2026-04-25T10:33:12Z</time></trkpt><trkpt lat="45.95474307846422" lon="9.110226670232136"><ele>882.6666666666666</ele><time>2026-04-25T10:33:14Z</time></trkpt><trkpt lat="45.95476581204131" lon="9.11033204513022"><ele>886.0</ele><time>2026-04-25T10:33:15Z</time></trkpt><trkpt lat="45.9547486484688" lon="9.1104242656494"><ele>885.9999999999999</ele><time>2026-04-25T10:33:16Z</time></trkpt><trkpt lat="45.95474603304558" lon="9.110568870591964"><ele>886.0</ele><time>2026-04-25T10:33:18Z</time></trkpt><trkpt lat="45.95477892293283" lon="9.110656627463989"><ele>886.0</ele><time>2026-04-25T10:33:19Z</time></trkpt><trkpt lat="45.95483043685548" lon="9.110729159761512"><ele>886.0</ele><time>2026-04-25T10:33:20Z</time></trkpt><trkpt lat="45.95487648005774" lon="9.110792575091681"><ele>885.9999999999999</ele><time>2026-04-25T10:33:21Z</time></trkpt><trkpt lat="45.95493355185222" lon="9.110931391939081"><ele>886.0</ele><time>2026-04-25T10:33:23Z</time></trkpt><trkpt lat="45.954924966870145" lon="9.111084178777062"><ele>883.6666666666666</ele><time>2026-04-25T10:33:25.001Z</time></trkpt><trkpt lat="45.95479188333025" lon="9.111119845416264"><ele>881.3333333333333</ele><time>2026-04-25T10:33:27.001Z</time></trkpt><trkpt lat="45.95471810813532" lon="9.111163246097755"><ele>879.0</ele><time>2026-04-25T10:33:28.001Z</time></trkpt><trkpt lat="45.95465000482729" lon="9.111210644675035"><ele>876.6666666666667</ele><time>2026-04-25T10:33:29.001Z</time></trkpt><trkpt lat="45.95459209578085" lon="9.111278208456028"><ele>874.3333333333334</ele><time>2026-04-25T10:33:30.001Z</time></trkpt><trkpt lat="45.95455857309523" lon="9.111370789891348"><ele>872.0</ele><time>2026-04-25T10:33:31.001Z</time></trkpt><trkpt lat="45.95453556602327" lon="9.111472530835503"><ele>872.0000000000001</ele><time>2026-04-25T10:33:32.001Z</time></trkpt><trkpt lat="45.95453109360005" lon="9.111571605838773"><ele>872.0</ele><time>2026-04-25T10:33:33.001Z</time></trkpt><trkpt lat="45.95453511291889" lon="9.111667900343132"><ele>872.0</ele><time>2026-04-25T10:33:34.001Z</time></trkpt><trkpt lat="45.95454142901526" lon="9.11176646977419"><ele>872.0</ele><time>2026-04-25T10:33:35.001Z</time></trkpt><trkpt lat="45.95451494443953" lon="9.111921493812437"><ele>872.0000000000001</ele><time>2026-04-25T10:33:37.001Z</time></trkpt><trkpt lat="45.95446566527548" lon="9.111984794030633"><ele>872.0</ele><time>2026-04-25T10:33:38.001Z</time></trkpt><trkpt lat="45.95439726914198" lon="9.112020935895108"><ele>873.3333333333334</ele><time>2026-04-25T10:33:39.001Z</time></trkpt><trkpt lat="45.95433308684359" lon="9.11203211716178"><ele>874.6666666666667</ele><time>2026-04-25T10:33:40.001Z</time></trkpt><trkpt lat="45.95424721429759" lon="9.112044445048362"><ele>876.0</ele><time>2026-04-25T10:33:41.001Z</time></trkpt><trkpt lat="45.95417027245756" lon="9.11208801367087"><ele>877.3333333333333</ele><time>2026-04-25T10:33:42.001Z</time></trkpt><trkpt lat="45.95410128945649" lon="9.11215617219039"><ele>878.6666666666666</ele><time>2026-04-25T10:33:43.001Z</time></trkpt><trkpt lat="45.954039065739224" lon="9.112243112951905"><ele>880.0</ele><time>2026-04-25T10:33:44.001Z</time></trkpt><trkpt lat="45.95398454469258" lon="9.112340926321085"><ele>878.8333333333333</ele><time>2026-04-25T10:33:45.001Z</time></trkpt><trkpt lat="45.95393044747466" lon="9.112444827019322"><ele>877.6666666666666</ele><time>2026-04-25T10:33:46.001Z</time></trkpt><trkpt lat="45.953880029308216" lon="9.112548648060447"><ele>876.5</ele><time>2026-04-25T10:33:47.001Z</time></trkpt><trkpt lat="45.953830115673625" lon="9.112647313987523"><ele>875.3333333333333</ele><time>2026-04-25T10:33:48.001Z</time></trkpt><trkpt lat="45.953781855386666" lon="9.112739361821781"><ele>874.1666666666666</ele><time>2026-04-25T10:33:49.001Z</time></trkpt><trkpt lat="45.95373290675112" lon="9.112815517277246"><ele>873.0</ele><time>2026-04-25T10:33:50.001Z</time></trkpt><trkpt lat="45.95368423342784" lon="9.112881636037429"><ele>873.0</ele><time>2026-04-25T10:33:51.001Z</time></trkpt><trkpt lat="45.95363052859859" lon="9.112936166467922"><ele>873.0</ele><time>2026-04-25T10:33:52.001Z</time></trkpt><trkpt lat="45.953568215462205" lon="9.112955699519585"><ele>873.0</ele><time>2026-04-25T10:33:53.001Z</time></trkpt><trkpt lat="45.9535033673015" lon="9.112943447729762"><ele>873.0</ele><time>2026-04-25T10:33:54.001Z</time></trkpt><trkpt lat="45.95338434376661" lon="9.112949191958915"><ele>873.0</ele><time>2026-04-25T10:33:56.001Z</time></trkpt><trkpt lat="45.95333581535884" lon="9.113022752908952"><ele>873.0</ele><time>2026-04-25T10:33:57.001Z</time></trkpt><trkpt lat="45.95331203240021" lon="9.113110040803077"><ele>872.3333333333334</ele><time>2026-04-25T10:33:58.002Z</time></trkpt><trkpt lat="45.95328640167419" lon="9.113219378656403"><ele>871.6666666666667</ele><time>2026-04-25T10:34:01.002Z</time></trkpt><trkpt lat="45.953278534835064" lon="9.113360973631094"><ele>871.0</ele><time>2026-04-25T10:34:04.002Z</time></trkpt><trkpt lat="45.95327072036503" lon="9.113527998863711"><ele>870.3333333333334</ele><time>2026-04-25T10:34:06.002Z</time></trkpt><trkpt lat="45.95326630408684" lon="9.113622391635513"><ele>869.6666666666667</ele><time>2026-04-25T10:34:07.002Z</time></trkpt><trkpt lat="45.953260644708585" lon="9.113743354237947"><ele>869.0</ele><time>2026-04-25T10:34:09.002Z</time></trkpt><trkpt lat="45.95326305394032" lon="9.113887332656343"><ele>869.0</ele><time>2026-04-25T10:34:11.002Z</time></trkpt><trkpt lat="45.953255970503996" lon="9.114020683337694"><ele>869.0000000000001</ele><time>2026-04-25T10:34:13.002Z</time></trkpt><trkpt lat="45.953249443376826" lon="9.114130732179694"><ele>869.0000000000001</ele><time>2026-04-25T10:34:15.002Z</time></trkpt><trkpt lat="45.953241965854474" lon="9.1142632047755"><ele>869.0</ele><time>2026-04-25T10:34:17.002Z</time></trkpt><trkpt lat="45.953238470352254" lon="9.11440119825956"><ele>869.0</ele><time>2026-04-25T10:34:19.002Z</time></trkpt><trkpt lat="45.95322932169304" lon="9.114565213784875"><ele>869.6666666666667</ele><time>2026-04-25T10:34:21.002Z</time></trkpt><trkpt lat="45.95321400589534" lon="9.114731287722263"><ele>870.3333333333334</ele><time>2026-04-25T10:34:23.002Z</time></trkpt><trkpt lat="45.95321810957219" lon="9.114829116030663"><ele>871.0</ele><time>2026-04-25T10:34:24.002Z</time></trkpt><trkpt lat="45.95323954842372" lon="9.114926619485562"><ele>871.6666666666667</ele><time>2026-04-25T10:34:25.002Z</time></trkpt><trkpt lat="45.95327519231237" lon="9.11502432569809"><ele>872.3333333333334</ele><time>2026-04-25T10:34:26.002Z</time></trkpt><trkpt lat="45.95330686477043" lon="9.115138564433343"><ele>873.0</ele><time>2026-04-25T10:34:27.002Z</time></trkpt><trkpt lat="45.95334635927517" lon="9.115220010299703"><ele>880.3333333333334</ele><time>2026-04-25T10:34:28.002Z</time></trkpt><trkpt lat="45.953391240051864" lon="9.115295481710664"><ele>887.6666666666667</ele><time>2026-04-25T10:34:29.002Z</time></trkpt><trkpt lat="45.95344147042344" lon="9.115364275702042"><ele>895.0</ele><time>2026-04-25T10:34:30.002Z</time></trkpt><trkpt lat="45.953525585835926" lon="9.115442971657767"><ele>902.3333333333334</ele><time>2026-04-25T10:34:32.003Z</time></trkpt><trkpt lat="45.95361237176413" lon="9.115561434081977"><ele>909.6666666666667</ele><time>2026-04-25T10:34:34.003Z</time></trkpt><trkpt lat="45.95362841091648" lon="9.115667799806898"><ele>917.0</ele><time>2026-04-25T10:34:35.003Z</time></trkpt><trkpt lat="45.95360616182508" lon="9.115791273498234"><ele>917.0</ele><time>2026-04-25T10:34:36.003Z</time></trkpt><trkpt lat="45.95360425815385" lon="9.11592452498491"><ele>917.0</ele><time>2026-04-25T10:34:37.003Z</time></trkpt><trkpt lat="45.95363143383755" lon="9.116064355772927"><ele>917.0</ele><time>2026-04-25T10:34:38.003Z</time></trkpt><trkpt lat="45.95363730952575" lon="9.116194791673788"><ele>917.0</ele><time>2026-04-25T10:34:39.003Z</time></trkpt><trkpt lat="45.95365937274627" lon="9.116319068886071"><ele>917.0</ele><time>2026-04-25T10:34:40.003Z</time></trkpt><trkpt lat="45.95369635804786" lon="9.11643450582909"><ele>917.0000000000001</ele><time>2026-04-25T10:34:41.003Z</time></trkpt><trkpt lat="45.95370054073044" lon="9.116549859078296"><ele>917.0</ele><time>2026-04-25T10:34:42.003Z</time></trkpt><trkpt lat="45.95372915738323" lon="9.11665404620086"><ele>917.0</ele><time>2026-04-25T10:34:43.003Z</time></trkpt><trkpt lat="45.95374734171374" lon="9.116752842465527"><ele>917.0</ele><time>2026-04-25T10:34:44.003Z</time></trkpt><trkpt lat="45.95376984442873" lon="9.116856860753943"><ele>917.0000000000001</ele><time>2026-04-25T10:34:45.003Z</time></trkpt><trkpt lat="45.95380035685557" lon="9.116957059635613"><ele>917.0</ele><time>2026-04-25T10:34:46.003Z</time></trkpt><trkpt lat="45.95384789967138" lon="9.117041626292345"><ele>915.4285714285714</ele><time>2026-04-25T10:34:47.003Z</time></trkpt><trkpt lat="45.95390127718873" lon="9.117115965680537"><ele>913.8571428571429</ele><time>2026-04-25T10:34:48.003Z</time></trkpt><trkpt lat="45.953950907099575" lon="9.117199326131521"><ele>912.2857142857142</ele><time>2026-04-25T10:34:49.003Z</time></trkpt><trkpt lat="45.95401499422018" lon="9.117251656558954"><ele>910.7142857142857</ele><time>2026-04-25T10:34:50.003Z</time></trkpt><trkpt lat="45.954064336070346" lon="9.11733906180426"><ele>909.1428571428571</ele><time>2026-04-25T10:34:51.003Z</time></trkpt><trkpt lat="45.95408960370276" lon="9.117426346205516"><ele>907.5714285714284</ele><time>2026-04-25T10:34:52.003Z</time></trkpt><trkpt lat="45.95411542338909" lon="9.11752464178801"><ele>905.9999999999999</ele><time>2026-04-25T10:34:53.003Z</time></trkpt><trkpt lat="45.95413872134755" lon="9.117618165392528"><ele>902.5714285714284</ele><time>2026-04-25T10:34:54.003Z</time></trkpt><trkpt lat="45.95417476995469" lon="9.117703470362601"><ele>899.1428571428571</ele><time>2026-04-25T10:34:55.003Z</time></trkpt><trkpt lat="45.95421092069621" lon="9.117790191137736"><ele>895.7142857142857</ele><time>2026-04-25T10:34:56.003Z</time></trkpt><trkpt lat="45.95427936464106" lon="9.117847718922485"><ele>892.2857142857142</ele><time>2026-04-25T10:34:57.003Z</time></trkpt><trkpt lat="45.95435621193743" lon="9.117858749565407"><ele>888.8571428571429</ele><time>2026-04-25T10:34:57.999Z</time></trkpt><trkpt lat="45.95442459339692" lon="9.117861762716403"><ele>885.4285714285714</ele><time>2026-04-25T10:34:58.999Z</time></trkpt><trkpt lat="45.95448925853396" lon="9.117889108804908"><ele>882.0</ele><time>2026-04-25T10:34:59.999Z</time></trkpt><trkpt lat="45.954614308486406" lon="9.117894749760904"><ele>886.6666666666666</ele><time>2026-04-25T10:35:01.999Z</time></trkpt><trkpt lat="45.954657702497336" lon="9.117966238976079"><ele>891.3333333333333</ele><time>2026-04-25T10:35:03Z</time></trkpt><trkpt lat="45.95468739201059" lon="9.118063404233805"><ele>896.0</ele><time>2026-04-25T10:35:04Z</time></trkpt><trkpt lat="45.9546884786575" lon="9.11818229384202"><ele>900.6666666666666</ele><time>2026-04-25T10:35:05Z</time></trkpt><trkpt lat="45.95468801083008" lon="9.11830998708209"><ele>905.3333333333333</ele><time>2026-04-25T10:35:06Z</time></trkpt><trkpt lat="45.954706731893566" lon="9.118448422714756"><ele>910.0</ele><time>2026-04-25T10:35:07Z</time></trkpt><trkpt lat="45.95472329517003" lon="9.118585461390715"><ele>910.0</ele><time>2026-04-25T10:35:08Z</time></trkpt><trkpt lat="45.95474596123389" lon="9.118720329218126"><ele>910.0</ele><time>2026-04-25T10:35:09Z</time></trkpt><trkpt lat="45.9547708132666" lon="9.118856658516409"><ele>910.0</ele><time>2026-04-25T10:35:10Z</time></trkpt><trkpt lat="45.95479351288409" lon="9.118984568004748"><ele>910.0</ele><time>2026-04-25T10:35:11Z</time></trkpt><trkpt lat="45.95480177186605" lon="9.119108383865532"><ele>910.0</ele><time>2026-04-25T10:35:12Z</time></trkpt><trkpt lat="45.954791068213154" lon="9.119222118919351"><ele>907.6666666666666</ele><time>2026-04-25T10:35:13Z</time></trkpt><trkpt lat="45.954768108058765" lon="9.119315338776854"><ele>905.3333333333333</ele><time>2026-04-25T10:35:14Z</time></trkpt><trkpt lat="45.9547472749589" lon="9.11941580461272"><ele>903.0</ele><time>2026-04-25T10:35:15Z</time></trkpt><trkpt lat="45.95474620295512" lon="9.119527316378045"><ele>900.6666666666667</ele><time>2026-04-25T10:35:16Z</time></trkpt><trkpt lat="45.95477095743542" lon="9.119628968731611"><ele>898.3333333333334</ele><time>2026-04-25T10:35:17Z</time></trkpt><trkpt lat="45.954822557861355" lon="9.119715427965696"><ele>896.0</ele><time>2026-04-25T10:35:18Z</time></trkpt><trkpt lat="45.95489845625342" lon="9.119776387827057"><ele>896.0000000000001</ele><time>2026-04-25T10:35:19Z</time></trkpt><trkpt lat="45.95498218041126" lon="9.119816254572351"><ele>896.0</ele><time>2026-04-25T10:35:20Z</time></trkpt><trkpt lat="45.95506637748607" lon="9.119855098561352"><ele>896.0</ele><time>2026-04-25T10:35:21Z</time></trkpt><trkpt lat="45.95514025260517" lon="9.119891038232012"><ele>896.0</ele><time>2026-04-25T10:35:22Z</time></trkpt><trkpt lat="45.95520609496115" lon="9.11993360697549"><ele>896.0000000000001</ele><time>2026-04-25T10:35:23Z</time></trkpt><trkpt lat="45.955269625907896" lon="9.119968672622756"><ele>896.0</ele><time>2026-04-25T10:35:24Z</time></trkpt><trkpt lat="45.95533024060923" lon="9.120000749188693"><ele>901.1666666666667</ele><time>2026-04-25T10:35:25Z</time></trkpt><trkpt lat="45.9553844599566" lon="9.12004786509959"><ele>906.3333333333334</ele><time>2026-04-25T10:35:26Z</time></trkpt><trkpt lat="45.95543524164777" lon="9.12011391624489"><ele>911.5</ele><time>2026-04-25T10:35:27Z</time></trkpt><trkpt lat="45.955462461314646" lon="9.120212421293797"><ele>916.6666666666667</ele><time>2026-04-25T10:35:28Z</time></trkpt><trkpt lat="45.9554490660029" lon="9.12032246003498"><ele>921.8333333333334</ele><time>2026-04-25T10:35:29Z</time></trkpt><trkpt lat="45.95540259037522" lon="9.120420938598128"><ele>927.0</ele><time>2026-04-25T10:35:30Z</time></trkpt><trkpt lat="45.95536833939872" lon="9.120530993315949"><ele>927.0</ele><time>2026-04-25T10:35:31Z</time></trkpt><trkpt lat="45.9553514918185" lon="9.12065315154214"><ele>927.0</ele><time>2026-04-25T10:35:32Z</time></trkpt><trkpt lat="45.955343282551425" lon="9.12076760728888"><ele>927.0</ele><time>2026-04-25T10:35:33.001Z</time></trkpt><trkpt lat="45.95534387953441" lon="9.120868288556125"><ele>927.0</ele><time>2026-04-25T10:35:34.001Z</time></trkpt><trkpt lat="45.95536863357083" lon="9.120966149063209"><ele>927.0</ele><time>2026-04-25T10:35:35.001Z</time></trkpt><trkpt lat="45.95541645022836" lon="9.121043945079242"><ele>927.0</ele><time>2026-04-25T10:35:36.001Z</time></trkpt><trkpt lat="45.95548160298443" lon="9.12110173223388"><ele>924.2857142857142</ele><time>2026-04-25T10:35:37.001Z</time></trkpt><trkpt lat="45.955541589491666" lon="9.121141785241882"><ele>921.5714285714286</ele><time>2026-04-25T10:35:38.001Z</time></trkpt><trkpt lat="45.95559519979533" lon="9.121198644040886"><ele>918.8571428571429</ele><time>2026-04-25T10:35:39.001Z</time></trkpt><trkpt lat="45.95562511406373" lon="9.121284183134925"><ele>916.1428571428571</ele><time>2026-04-25T10:35:40.001Z</time></trkpt><trkpt lat="45.955627888129236" lon="9.121392300928061"><ele>913.4285714285716</ele><time>2026-04-25T10:35:41.001Z</time></trkpt><trkpt lat="45.955594113260446" lon="9.121497107800307"><ele>910.7142857142858</ele><time>2026-04-25T10:35:42.001Z</time></trkpt><trkpt lat="45.95553852903045" lon="9.121586413125533"><ele>908.0</ele><time>2026-04-25T10:35:43.001Z</time></trkpt><trkpt lat="45.95548856218225" lon="9.12166171407771"><ele>906.5</ele><time>2026-04-25T10:35:44.001Z</time></trkpt><trkpt lat="45.95541308008938" lon="9.121809242087346"><ele>905.0</ele><time>2026-04-25T10:35:46.001Z</time></trkpt><trkpt lat="45.95539223247542" lon="9.121974341780044"><ele>903.5</ele><time>2026-04-25T10:35:48.001Z</time></trkpt><trkpt lat="45.95541197118705" lon="9.122135287507142"><ele>902.0</ele><time>2026-04-25T10:35:50.001Z</time></trkpt><trkpt lat="45.95545788887168" lon="9.122293304544188"><ele>902.8</ele><time>2026-04-25T10:35:52.001Z</time></trkpt><trkpt lat="45.95549418287839" lon="9.122426909102304"><ele>903.6</ele><time>2026-04-25T10:35:54.001Z</time></trkpt><trkpt lat="45.955523183370346" lon="9.12255090230586"><ele>904.3999999999999</ele><time>2026-04-25T10:35:56.001Z</time></trkpt><trkpt lat="45.95553311906275" lon="9.122693817249631"><ele>905.1999999999999</ele><time>2026-04-25T10:35:58.001Z</time></trkpt><trkpt lat="45.955587492360515" lon="9.122821703302465"><ele>906.0</ele><time>2026-04-25T10:36:00.001Z</time></trkpt><trkpt lat="45.95561193323549" lon="9.122973425247647"><ele>906.0</ele><time>2026-04-25T10:36:02.001Z</time></trkpt><trkpt lat="45.95561289420538" lon="9.123159512009227"><ele>905.9999999999999</ele><time>2026-04-25T10:36:04.002Z</time></trkpt><trkpt lat="45.9556206978533" lon="9.123266234410991"><ele>905.9999999999999</ele><time>2026-04-25T10:36:05.002Z</time></trkpt><trkpt lat="45.95563137753992" lon="9.1233801630702"><ele>906.0</ele><time>2026-04-25T10:36:06.002Z</time></trkpt><trkpt lat="45.955655993208914" lon="9.12349879558437"><ele>906.0</ele><time>2026-04-25T10:36:07.002Z</time></trkpt><trkpt lat="45.955676133104895" lon="9.123617805536705"><ele>905.8333333333334</ele><time>2026-04-25T10:36:08.002Z</time></trkpt><trkpt lat="45.955693509028315" lon="9.123723089646754"><ele>905.6666666666667</ele><time>2026-04-25T10:36:09.002Z</time></trkpt><trkpt lat="45.95570732011338" lon="9.123825137202834"><ele>905.5</ele><time>2026-04-25T10:36:10.002Z</time></trkpt><trkpt lat="45.95571920885924" lon="9.12391799689673"><ele>905.3333333333334</ele><time>2026-04-25T10:36:11.002Z</time></trkpt><trkpt lat="45.95573951775834" lon="9.12406609594562"><ele>905.1666666666667</ele><time>2026-04-25T10:36:13.002Z</time></trkpt><trkpt lat="45.95578602957161" lon="9.124156427022681"><ele>905.0</ele><time>2026-04-25T10:36:15.002Z</time></trkpt><trkpt lat="45.955856650193475" lon="9.124151996062954"><ele>905.0000000000001</ele><time>2026-04-25T10:36:17.002Z</time></trkpt><trkpt lat="45.95588986538234" lon="9.124003980290057"><ele>905.0</ele><time>2026-04-25T10:36:19.002Z</time></trkpt><trkpt lat="45.95586136142753" lon="9.123913165309595"><ele>905.0</ele><time>2026-04-25T10:36:20.002Z</time></trkpt><trkpt lat="45.955824602674255" lon="9.123740361526226"><ele>905.0</ele><time>2026-04-25T10:36:22.002Z</time></trkpt><trkpt lat="45.95580304117553" lon="9.123651524945771"><ele>905.0000000000001</ele><time>2026-04-25T10:36:23.002Z</time></trkpt><trkpt lat="45.95578295015923" lon="9.123564065850246"><ele>905.0</ele><time>2026-04-25T10:36:24.002Z</time></trkpt><trkpt lat="45.95575220703005" lon="9.12342835812305"><ele>905.0000000000001</ele><time>2026-04-25T10:36:26.002Z</time></trkpt><trkpt lat="45.95573736212994" lon="9.123332931253882"><ele>905.0</ele><time>2026-04-25T10:36:28.002Z</time></trkpt><trkpt lat="45.95575791843288" lon="9.123202236516041"><ele>905.0</ele><time>2026-04-25T10:36:32.002Z</time></trkpt><trkpt lat="45.955757694393135" lon="9.123079516383822"><ele>905.0</ele><time>2026-04-25T10:36:36.003Z</time></trkpt><trkpt lat="45.9557824417316" lon="9.122980333229425"><ele>905.0000000000001</ele><time>2026-04-25T10:36:39.003Z</time></trkpt><trkpt lat="45.95579453853164" lon="9.122886500996303"><ele>905.0</ele><time>2026-04-25T10:36:41.003Z</time></trkpt><trkpt lat="45.955810311297554" lon="9.12275846286332"><ele>905.1666666666667</ele><time>2026-04-25T10:36:44.003Z</time></trkpt><trkpt lat="45.95583159460046" lon="9.122654809879666"><ele>905.3333333333334</ele><time>2026-04-25T10:36:46.003Z</time></trkpt><trkpt lat="45.95583354176624" lon="9.122551027226764"><ele>905.5</ele><time>2026-04-25T10:36:48.003Z</time></trkpt><trkpt lat="45.95584670028701" lon="9.122453279052246"><ele>905.6666666666667</ele><time>2026-04-25T10:36:51.003Z</time></trkpt><trkpt lat="45.955905344074445" lon="9.122509722587049"><ele>905.8333333333334</ele><time>2026-04-25T10:36:53.003Z</time></trkpt><trkpt lat="45.955875561402614" lon="9.122658620533421"><ele>906.0</ele><time>2026-04-25T10:36:55.003Z</time></trkpt><trkpt lat="45.95585491332411" lon="9.122755286992062"><ele>906.0</ele><time>2026-04-25T10:36:56.003Z</time></trkpt><trkpt lat="45.95584757215485" lon="9.12287178127939"><ele>905.9999999999999</ele><time>2026-04-25T10:36:57.003Z</time></trkpt><trkpt lat="45.95583981467342" lon="9.122977000310968"><ele>905.9999999999999</ele><time>2026-04-25T10:36:58.003Z</time></trkpt><trkpt lat="45.95584677252441" lon="9.123142927054339"><ele>906.0</ele><time>2026-04-25T10:37:00.003Z</time></trkpt><trkpt lat="45.955892930253434" lon="9.123296065838632"><ele>906.0</ele><time>2026-04-25T10:37:02.003Z</time></trkpt><trkpt lat="45.95592722266369" lon="9.123378076746098"><ele>915.0</ele><time>2026-04-25T10:37:03.003Z</time></trkpt><trkpt lat="45.95595627745767" lon="9.123460579454392"><ele>923.9999999999999</ele><time>2026-04-25T10:37:03.999Z</time></trkpt><trkpt lat="45.956005612479444" lon="9.123635173086482"><ele>932.9999999999999</ele><time>2026-04-25T10:37:05.999Z</time></trkpt><trkpt lat="45.956035414150485" lon="9.123719701326895"><ele>942.0</ele><time>2026-04-25T10:37:06.999Z</time></trkpt><trkpt lat="45.95605635760135" lon="9.123806140724685"><ele>951.0</ele><time>2026-04-25T10:37:07.999Z</time></trkpt><trkpt lat="45.95611337548962" lon="9.123976486006876"><ele>951.0</ele><time>2026-04-25T10:37:10Z</time></trkpt><trkpt lat="45.956141837175224" lon="9.124059892868841"><ele>951.0</ele><time>2026-04-25T10:37:11Z</time></trkpt><trkpt lat="45.95619996347173" lon="9.124212852841818"><ele>951.0</ele><time>2026-04-25T10:37:13Z</time></trkpt><trkpt lat="45.95624811464356" lon="9.124280936989704"><ele>951.0</ele><time>2026-04-25T10:37:14Z</time></trkpt><trkpt lat="45.95629995097686" lon="9.124348564776058"><ele>951.0</ele><time>2026-04-25T10:37:15Z</time></trkpt><trkpt lat="45.956347033210534" lon="9.124414810165712"><ele>951.0</ele><time>2026-04-25T10:37:16Z</time></trkpt><trkpt lat="45.95639773005217" lon="9.12447246471268"><ele>954.0</ele><time>2026-04-25T10:37:17Z</time></trkpt><trkpt lat="45.95647305560218" lon="9.124584301522946"><ele>956.9999999999999</ele><time>2026-04-25T10:37:19Z</time></trkpt><trkpt lat="45.956545681080996" lon="9.124671945420705"><ele>959.9999999999999</ele><time>2026-04-25T10:37:21Z</time></trkpt><trkpt lat="45.95665889759332" lon="9.12471199783608"><ele>963.0</ele><time>2026-04-25T10:37:23Z</time></trkpt><trkpt lat="45.95676920163739" lon="9.1247628404597"><ele>966.0</ele><time>2026-04-25T10:37:25Z</time></trkpt><trkpt lat="45.95682953102264" lon="9.124872728301769"><ele>961.5999999999999</ele><time>2026-04-25T10:37:27Z</time></trkpt><trkpt lat="45.956890557615154" lon="9.125031474067272"><ele>957.1999999999999</ele><time>2026-04-25T10:37:29Z</time></trkpt><trkpt lat="45.95692016905612" lon="9.12511472293229"><ele>952.8000000000001</ele><time>2026-04-25T10:37:30Z</time></trkpt><trkpt lat="45.956957383697436" lon="9.12519009854601"><ele>948.4000000000001</ele><time>2026-04-25T10:37:31Z</time></trkpt><trkpt lat="45.957028481302686" lon="9.125337798780347"><ele>944.0</ele><time>2026-04-25T10:37:33Z</time></trkpt><trkpt lat="45.95712966376484" lon="9.125440222338055"><ele>944.0</ele><time>2026-04-25T10:37:35Z</time></trkpt><trkpt lat="45.95719699989315" lon="9.125466915394593"><ele>944.0</ele><time>2026-04-25T10:37:36Z</time></trkpt><trkpt lat="45.95724844883608" lon="9.125526810455058"><ele>944.0</ele><time>2026-04-25T10:37:37Z</time></trkpt><trkpt lat="45.957305651706825" lon="9.125575189692649"><ele>944.0</ele><time>2026-04-25T10:37:38.001Z</time></trkpt><trkpt lat="45.957365259374086" lon="9.125629539349688"><ele>944.0</ele><time>2026-04-25T10:37:39.001Z</time></trkpt><trkpt lat="45.9574221621178" lon="9.125694321500912"><ele>944.0</ele><time>2026-04-25T10:37:40.001Z</time></trkpt><trkpt lat="45.957487564430686" lon="9.12576122908065"><ele>944.0</ele><time>2026-04-25T10:37:41.001Z</time></trkpt><trkpt lat="45.95755933444291" lon="9.125816853822347"><ele>944.6666666666667</ele><time>2026-04-25T10:37:42.001Z</time></trkpt><trkpt lat="45.95763168333764" lon="9.125869114918789"><ele>945.3333333333334</ele><time>2026-04-25T10:37:43.001Z</time></trkpt><trkpt lat="45.95770561041873" lon="9.125905267006354"><ele>946.0</ele><time>2026-04-25T10:37:44.001Z</time></trkpt><trkpt lat="45.95778282544839" lon="9.1259377299053"><ele>946.6666666666667</ele><time>2026-04-25T10:37:45.001Z</time></trkpt><trkpt lat="45.95785788900633" lon="9.12597389205142"><ele>947.3333333333334</ele><time>2026-04-25T10:37:46.001Z</time></trkpt><trkpt lat="45.95793458310992" lon="9.126009035005849"><ele>948.0</ele><time>2026-04-25T10:37:47.001Z</time></trkpt><trkpt lat="45.9580065294597" lon="9.12604642901562"><ele>947.9999999999999</ele><time>2026-04-25T10:37:48.001Z</time></trkpt><trkpt lat="45.95807384789636" lon="9.12607105132306"><ele>948.0</ele><time>2026-04-25T10:37:49.001Z</time></trkpt><trkpt lat="45.9581358398562" lon="9.1261081102603"><ele>947.9999999999999</ele><time>2026-04-25T10:37:50.001Z</time></trkpt><trkpt lat="45.95820037222231" lon="9.126138307708267"><ele>947.9999999999999</ele><time>2026-04-25T10:37:51.001Z</time></trkpt><trkpt lat="45.95826422706084" lon="9.126174124442423"><ele>948.0</ele><time>2026-04-25T10:37:52.001Z</time></trkpt><trkpt lat="45.95832815522864" lon="9.126212524122264"><ele>947.9999999999999</ele><time>2026-04-25T10:37:53.001Z</time></trkpt><trkpt lat="45.958389593933624" lon="9.126253316626126"><ele>947.9999999999999</ele><time>2026-04-25T10:37:54.001Z</time></trkpt><trkpt lat="45.95844910245177" lon="9.126296337078443"><ele>950.2857142857142</ele><time>2026-04-25T10:37:55.001Z</time></trkpt><trkpt lat="45.95850999687795" lon="9.126346387071562"><ele>952.5714285714286</ele><time>2026-04-25T10:37:56.001Z</time></trkpt><trkpt lat="45.95857168012185" lon="9.126397790914929"><ele>954.8571428571429</ele><time>2026-04-25T10:37:57.001Z</time></trkpt><trkpt lat="45.95863575998453" lon="9.126449990548442"><ele>957.1428571428571</ele><time>2026-04-25T10:37:58.001Z</time></trkpt><trkpt lat="45.95871172233775" lon="9.126467168084373"><ele>959.4285714285716</ele><time>2026-04-25T10:37:59.001Z</time></trkpt><trkpt lat="45.95878791987312" lon="9.126476055747364"><ele>961.7142857142858</ele><time>2026-04-25T10:38:00.001Z</time></trkpt><trkpt lat="45.958855938515576" lon="9.126476685508324"><ele>964.0</ele><time>2026-04-25T10:38:01.001Z</time></trkpt><trkpt lat="45.95892164845802" lon="9.126476519811332"><ele>964.0</ele><time>2026-04-25T10:38:02.001Z</time></trkpt><trkpt lat="45.95904781853485" lon="9.126487456861684"><ele>964.0000000000001</ele><time>2026-04-25T10:38:04.001Z</time></trkpt><trkpt lat="45.95911631974547" lon="9.126488185854631"><ele>964.0000000000001</ele><time>2026-04-25T10:38:05.001Z</time></trkpt><trkpt lat="45.95918825913066" lon="9.126487336391984"><ele>964.0</ele><time>2026-04-25T10:38:06.001Z</time></trkpt><trkpt lat="45.959259499623116" lon="9.126485793579036"><ele>964.0</ele><time>2026-04-25T10:38:07.001Z</time></trkpt><trkpt lat="45.95937694231403" lon="9.126485446975938"><ele>962.8000000000001</ele><time>2026-04-25T10:38:09.002Z</time></trkpt><trkpt lat="45.95948086362945" lon="9.126490626617533"><ele>961.6000000000001</ele><time>2026-04-25T10:38:11.002Z</time></trkpt><trkpt lat="45.959546893657254" lon="9.12650591375787"><ele>960.4</ele><time>2026-04-25T10:38:13.002Z</time></trkpt><trkpt lat="45.959591673698725" lon="9.126611388019937"><ele>959.2</ele><time>2026-04-25T10:38:15.002Z</time></trkpt><trkpt lat="45.959661983233126" lon="9.12646553866692"><ele>958.0</ele><time>2026-04-25T10:38:17.002Z</time></trkpt><trkpt lat="45.959766725817694" lon="9.126436178747442"><ele>962.8</ele><time>2026-04-25T10:38:19.002Z</time></trkpt><trkpt lat="45.95984462092776" lon="9.126453269718695"><ele>967.5999999999999</ele><time>2026-04-25T10:38:20.002Z</time></trkpt><trkpt lat="45.95994091476386" lon="9.126467981007693"><ele>972.4000000000001</ele><time>2026-04-25T10:38:21.002Z</time></trkpt><trkpt lat="45.96003590515463" lon="9.126509326915478"><ele>977.2</ele><time>2026-04-25T10:38:22.002Z</time></trkpt><trkpt lat="45.96012624018661" lon="9.126553422177587"><ele>982.0</ele><time>2026-04-25T10:38:23.002Z</time></trkpt><trkpt lat="45.96021837738331" lon="9.126559491457169"><ele>984.2</ele><time>2026-04-25T10:38:24.002Z</time></trkpt><trkpt lat="45.96031552273518" lon="9.126531129683702"><ele>986.4000000000001</ele><time>2026-04-25T10:38:25.002Z</time></trkpt><trkpt lat="45.960433849416575" lon="9.126497449590321"><ele>988.5999999999999</ele><time>2026-04-25T10:38:26.002Z</time></trkpt><trkpt lat="45.96054373612903" lon="9.126464322968355"><ele>990.8</ele><time>2026-04-25T10:38:27.002Z</time></trkpt><trkpt lat="45.96064449165568" lon="9.126434063077722"><ele>993.0</ele><time>2026-04-25T10:38:28.002Z</time></trkpt><trkpt lat="45.960740701675476" lon="9.126416529069122"><ele>993.0</ele><time>2026-04-25T10:38:29.002Z</time></trkpt><trkpt lat="45.9608282220451" lon="9.12633553139393"><ele>993.0</ele><time>2026-04-25T10:38:30.002Z</time></trkpt><trkpt lat="45.96092037745782" lon="9.126236341421759"><ele>993.0</ele><time>2026-04-25T10:38:31.002Z</time></trkpt><trkpt lat="45.9610088921367" lon="9.12613913436662"><ele>993.0</ele><time>2026-04-25T10:38:32.002Z</time></trkpt><trkpt lat="45.961093364468375" lon="9.12604888096325"><ele>993.0</ele><time>2026-04-25T10:38:33.002Z</time></trkpt><trkpt lat="45.961167346222005" lon="9.125974051989562"><ele>991.3333333333334</ele><time>2026-04-25T10:38:34.002Z</time></trkpt><trkpt lat="45.9612447979393" lon="9.125900343475784"><ele>989.6666666666667</ele><time>2026-04-25T10:38:35.002Z</time></trkpt><trkpt lat="45.96131136602368" lon="9.125827830068"><ele>988.0</ele><time>2026-04-25T10:38:36.002Z</time></trkpt><trkpt lat="45.961391491313535" lon="9.12577955443339"><ele>986.3333333333334</ele><time>2026-04-25T10:38:37.002Z</time></trkpt><trkpt lat="45.9614641329449" lon="9.125741938191258"><ele>984.6666666666667</ele><time>2026-04-25T10:38:38.002Z</time></trkpt><trkpt lat="45.961542127859644" lon="9.12570679841637"><ele>983.0</ele><time>2026-04-25T10:38:39.002Z</time></trkpt><trkpt lat="45.961652405974164" lon="9.125617970886491"><ele>979.0</ele><time>2026-04-25T10:38:41.003Z</time></trkpt><trkpt lat="45.9617430584923" lon="9.12547120817062"><ele>975.0</ele><time>2026-04-25T10:38:43.003Z</time></trkpt><trkpt lat="45.961790656108185" lon="9.125374491776405"><ele>971.0</ele><time>2026-04-25T10:38:44.003Z</time></trkpt><trkpt lat="45.96186919150185" lon="9.125226317034096"><ele>967.0</ele><time>2026-04-25T10:38:46.003Z</time></trkpt><trkpt lat="45.96191128759626" lon="9.125151982277167"><ele>963.0</ele><time>2026-04-25T10:38:47.003Z</time></trkpt><trkpt lat="45.96198226782777" lon="9.125015620895708"><ele>963.0</ele><time>2026-04-25T10:38:49.003Z</time></trkpt><trkpt lat="45.962038758375314" lon="9.124904775748714"><ele>963.0</ele><time>2026-04-25T10:38:51.003Z</time></trkpt><trkpt lat="45.962096058513175" lon="9.124745948472674"><ele>963.0</ele><time>2026-04-25T10:38:53.003Z</time></trkpt><trkpt lat="45.96216198389381" lon="9.12461888622635"><ele>963.0</ele><time>2026-04-25T10:38:55.003Z</time></trkpt><trkpt lat="45.962201069252075" lon="9.124542548688904"><ele>963.0</ele><time>2026-04-25T10:38:56.003Z</time></trkpt><trkpt lat="45.96228908708507" lon="9.124382294173754"><ele>969.5999999999999</ele><time>2026-04-25T10:38:58.003Z</time></trkpt><trkpt lat="45.96232771138949" lon="9.124284191155759"><ele>976.1999999999999</ele><time>2026-04-25T10:38:59.003Z</time></trkpt><trkpt lat="45.962416694424434" lon="9.124149828928418"><ele>982.8</ele><time>2026-04-25T10:39:01.003Z</time></trkpt><trkpt lat="45.962475902740756" lon="9.124060910809483"><ele>989.4</ele><time>2026-04-25T10:39:02.003Z</time></trkpt><trkpt lat="45.962509467973184" lon="9.123964426569742"><ele>996.0</ele><time>2026-04-25T10:39:03.003Z</time></trkpt><trkpt lat="45.9625590717322" lon="9.123799880742254"><ele>998.4</ele><time>2026-04-25T10:39:05.003Z</time></trkpt><trkpt lat="45.96261727823835" lon="9.123667618656453"><ele>1000.8</ele><time>2026-04-25T10:39:06.003Z</time></trkpt><trkpt lat="45.96263215946872" lon="9.123540406047168"><ele>1003.1999999999999</ele><time>2026-04-25T10:39:07.003Z</time></trkpt><trkpt lat="45.96265544715687" lon="9.12343670922191"><ele>1005.5999999999999</ele><time>2026-04-25T10:39:08.003Z</time></trkpt><trkpt lat="45.96266696324643" lon="9.123302526866143"><ele>1008.0</ele><time>2026-04-25T10:39:09.003Z</time></trkpt><trkpt lat="45.9626866162866" lon="9.123169801635841"><ele>1013.6666666666666</ele><time>2026-04-25T10:39:10.999Z</time></trkpt><trkpt lat="45.96270046990127" lon="9.123072498706065"><ele>1019.3333333333333</ele><time>2026-04-25T10:39:11.999Z</time></trkpt><trkpt lat="45.96272147257581" lon="9.122924983634277"><ele>1025.0</ele><time>2026-04-25T10:39:13.999Z</time></trkpt><trkpt lat="45.96273980023929" lon="9.122835703537211"><ele>1030.6666666666665</ele><time>2026-04-25T10:39:14.999Z</time></trkpt><trkpt lat="45.962784268455366" lon="9.122721601998842"><ele>1036.3333333333333</ele><time>2026-04-25T10:39:16.999Z</time></trkpt><trkpt lat="45.962883405653365" lon="9.122777144299066"><ele>1042.0</ele><time>2026-04-25T10:39:18.999Z</time></trkpt><trkpt lat="45.96298757052525" lon="9.122859614474235"><ele>1042.0</ele><time>2026-04-25T10:39:21Z</time></trkpt><trkpt lat="45.96304731533908" lon="9.122894671192004"><ele>1042.0</ele><time>2026-04-25T10:39:22Z</time></trkpt><trkpt lat="45.96312741107689" lon="9.122975019863253"><ele>1042.0</ele><time>2026-04-25T10:39:23Z</time></trkpt><trkpt lat="45.963185793278946" lon="9.123012496259259"><ele>1042.0</ele><time>2026-04-25T10:39:24Z</time></trkpt><trkpt lat="45.96329277951962" lon="9.123110901416132"><ele>1042.0</ele><time>2026-04-25T10:39:26Z</time></trkpt><trkpt lat="45.96338432674074" lon="9.123210659784307"><ele>1040.6666666666665</ele><time>2026-04-25T10:39:27Z</time></trkpt><trkpt lat="45.96347121850977" lon="9.123257838045127"><ele>1039.3333333333333</ele><time>2026-04-25T10:39:28Z</time></trkpt><trkpt lat="45.96353981762441" lon="9.123279829521834"><ele>1038.0</ele><time>2026-04-25T10:39:29Z</time></trkpt><trkpt lat="45.963616028981406" lon="9.123300065365767"><ele>1036.6666666666667</ele><time>2026-04-25T10:39:30Z</time></trkpt><trkpt lat="45.96371069277052" lon="9.123302773020555"><ele>1035.3333333333335</ele><time>2026-04-25T10:39:31Z</time></trkpt><trkpt lat="45.96379706985659" lon="9.123253196736606"><ele>1034.0</ele><time>2026-04-25T10:39:32Z</time></trkpt><trkpt lat="45.96384743312592" lon="9.123169614509951"><ele>1034.0</ele><time>2026-04-25T10:39:33Z</time></trkpt><trkpt lat="45.96390612020934" lon="9.123136081313698"><ele>1034.0</ele><time>2026-04-25T10:39:34Z</time></trkpt><trkpt lat="45.96397338420608" lon="9.123028668384954"><ele>1034.0</ele><time>2026-04-25T10:39:36Z</time></trkpt><trkpt lat="45.96402546852514" lon="9.122974998180831"><ele>1034.0</ele><time>2026-04-25T10:39:37Z</time></trkpt><trkpt lat="45.96408170676291" lon="9.122924565459181"><ele>1034.0</ele><time>2026-04-25T10:39:38Z</time></trkpt><trkpt lat="45.964135709605934" lon="9.122847321142636"><ele>1034.0</ele><time>2026-04-25T10:39:39Z</time></trkpt><trkpt lat="45.96422936820306" lon="9.12271137136838"><ele>1031.5</ele><time>2026-04-25T10:39:41Z</time></trkpt><trkpt lat="45.96429121975281" lon="9.12259446801875"><ele>1029.0</ele><time>2026-04-25T10:39:43Z</time></trkpt><trkpt lat="45.964353835602246" lon="9.12244188643121"><ele>1026.5</ele><time>2026-04-25T10:39:45.001Z</time></trkpt><trkpt lat="45.96439247936008" lon="9.122342121523431"><ele>1024.0</ele><time>2026-04-25T10:39:46.001Z</time></trkpt><trkpt lat="45.964410152352954" lon="9.122255063824099"><ele>1021.5000000000001</ele><time>2026-04-25T10:39:47.001Z</time></trkpt><trkpt lat="45.96445618659773" lon="9.122168779520344"><ele>1019.0</ele><time>2026-04-25T10:39:48.001Z</time></trkpt><trkpt lat="45.96452740972718" lon="9.12202591819684"><ele>1019.0000000000001</ele><time>2026-04-25T10:39:50.001Z</time></trkpt><trkpt lat="45.96456285646117" lon="9.121937212681019"><ele>1019.0</ele><time>2026-04-25T10:39:51.001Z</time></trkpt><trkpt lat="45.96459827133244" lon="9.121820716134264"><ele>1019.0000000000001</ele><time>2026-04-25T10:39:52.001Z</time></trkpt><trkpt lat="45.964641569208744" lon="9.121745901274496"><ele>1019.0000000000001</ele><time>2026-04-25T10:39:53.001Z</time></trkpt><trkpt lat="45.96468629178348" lon="9.121670817109182"><ele>1019.0</ele><time>2026-04-25T10:39:54.001Z</time></trkpt><trkpt lat="45.96472669622584" lon="9.121580099318988"><ele>1019.0000000000001</ele><time>2026-04-25T10:39:55.001Z</time></trkpt><trkpt lat="45.96475985641888" lon="9.121485470282042"><ele>1019.0000000000001</ele><time>2026-04-25T10:39:56.001Z</time></trkpt><trkpt lat="45.964778285621165" lon="9.121360270879647"><ele>1020.857142857143</ele><time>2026-04-25T10:39:57.001Z</time></trkpt><trkpt lat="45.96478002958287" lon="9.121252117688503"><ele>1022.7142857142858</ele><time>2026-04-25T10:39:58.001Z</time></trkpt><trkpt lat="45.9647744116562" lon="9.121150081488056"><ele>1024.5714285714284</ele><time>2026-04-25T10:39:59.001Z</time></trkpt><trkpt lat="45.96475971604784" lon="9.12104463233187"><ele>1026.4285714285716</ele><time>2026-04-25T10:40:00.001Z</time></trkpt><trkpt lat="45.964757248714726" lon="9.120948051011638"><ele>1028.2857142857142</ele><time>2026-04-25T10:40:01.001Z</time></trkpt><trkpt lat="45.964754939213336" lon="9.120846188138698"><ele>1030.142857142857</ele><time>2026-04-25T10:40:02.001Z</time></trkpt><trkpt lat="45.964764781433146" lon="9.120735463544904"><ele>1032.0</ele><time>2026-04-25T10:40:03.001Z</time></trkpt><trkpt lat="45.96478205463283" lon="9.120638373390863"><ele>1034.6666666666667</ele><time>2026-04-25T10:40:04.001Z</time></trkpt><trkpt lat="45.9647677353575" lon="9.120535264821283"><ele>1037.3333333333333</ele><time>2026-04-25T10:40:05.001Z</time></trkpt><trkpt lat="45.96477351991601" lon="9.12043830487508"><ele>1040.0</ele><time>2026-04-25T10:40:06.001Z</time></trkpt><trkpt lat="45.96478005374226" lon="9.120342826652072"><ele>1042.6666666666665</ele><time>2026-04-25T10:40:08.001Z</time></trkpt><trkpt lat="45.964807631693176" lon="9.120196464905716"><ele>1045.3333333333333</ele><time>2026-04-25T10:40:10.001Z</time></trkpt><trkpt lat="45.96478746683515" lon="9.1200602461932"><ele>1048.0</ele><time>2026-04-25T10:40:12.001Z</time></trkpt><trkpt lat="45.964822009721274" lon="9.1199575424785"><ele>1053.8333333333333</ele><time>2026-04-25T10:40:14.001Z</time></trkpt><trkpt lat="45.96486722257178" lon="9.119837307107854"><ele>1059.6666666666665</ele><time>2026-04-25T10:40:16.002Z</time></trkpt><trkpt lat="45.96489534736875" lon="9.11974789862892"><ele>1065.5</ele><time>2026-04-25T10:40:17.002Z</time></trkpt><trkpt lat="45.96494380501497" lon="9.119680361163484"><ele>1071.3333333333333</ele><time>2026-04-25T10:40:18.002Z</time></trkpt><trkpt lat="45.96501318552306" lon="9.119547665067588"><ele>1077.1666666666667</ele><time>2026-04-25T10:40:20.002Z</time></trkpt><trkpt lat="45.96502931995093" lon="9.119440826560075"><ele>1083.0</ele><time>2026-04-25T10:40:22.002Z</time></trkpt><trkpt lat="45.96505971863091" lon="9.119350957708907"><ele>1085.5</ele><time>2026-04-25T10:40:24.002Z</time></trkpt><trkpt lat="45.9650973197003" lon="9.11926055558916"><ele>1088.0</ele><time>2026-04-25T10:40:25.002Z</time></trkpt><trkpt lat="45.96518441759958" lon="9.119222512426587"><ele>1090.5</ele><time>2026-04-25T10:40:27.002Z</time></trkpt><trkpt lat="45.96529794027616" lon="9.119314100708731"><ele>1093.0</ele><time>2026-04-25T10:40:29.002Z</time></trkpt><trkpt lat="45.96535489595596" lon="9.119388957181338"><ele>1095.5</ele><time>2026-04-25T10:40:30.002Z</time></trkpt><trkpt lat="45.96540354561059" lon="9.119455989504752"><ele>1098.0</ele><time>2026-04-25T10:40:31.002Z</time></trkpt><trkpt lat="45.96546048318697" lon="9.119525427456079"><ele>1098.0</ele><time>2026-04-25T10:40:32.002Z</time></trkpt><trkpt lat="45.96551029872753" lon="9.11958326199823"><ele>1098.0</ele><time>2026-04-25T10:40:33.002Z</time></trkpt><trkpt lat="45.96556220733041" lon="9.119652893489407"><ele>1098.0</ele><time>2026-04-25T10:40:34.002Z</time></trkpt><trkpt lat="45.96562399786124" lon="9.119696476705418"><ele>1098.0</ele><time>2026-04-25T10:40:35.002Z</time></trkpt><trkpt lat="45.96568002350333" lon="9.119740502249694"><ele>1098.0</ele><time>2026-04-25T10:40:36.002Z</time></trkpt><trkpt lat="45.96578115725432" lon="9.11979083452878"><ele>1098.0</ele><time>2026-04-25T10:40:38.002Z</time></trkpt><trkpt lat="45.96586118774163" lon="9.119828811501243"><ele>1099.5</ele><time>2026-04-25T10:40:40.002Z</time></trkpt><trkpt lat="45.96598980282905" lon="9.119854032375123"><ele>1101.0</ele><time>2026-04-25T10:40:42.002Z</time></trkpt><trkpt lat="45.96609844244149" lon="9.119862405081152"><ele>1102.5</ele><time>2026-04-25T10:40:44.002Z</time></trkpt><trkpt lat="45.966207107746065" lon="9.119853665001461"><ele>1104.0</ele><time>2026-04-25T10:40:46.002Z</time></trkpt><trkpt lat="45.966316840744874" lon="9.119804149654719"><ele>1104.0</ele><time>2026-04-25T10:40:48.002Z</time></trkpt><trkpt lat="45.96638141463455" lon="9.119724497736426"><ele>1104.0</ele><time>2026-04-25T10:40:50.003Z</time></trkpt><trkpt lat="45.96651635040996" lon="9.119585325921893"><ele>1104.0</ele><time>2026-04-25T10:40:52.003Z</time></trkpt><trkpt lat="45.96661457293481" lon="9.119502538024204"><ele>1104.0</ele><time>2026-04-25T10:40:54.003Z</time></trkpt><trkpt lat="45.966671808261175" lon="9.119461611178815"><ele>1104.0</ele><time>2026-04-25T10:40:55.003Z</time></trkpt><trkpt lat="45.96673042348051" lon="9.119393937930683"><ele>1100.0</ele><time>2026-04-25T10:40:56.003Z</time></trkpt><trkpt lat="45.96681130045074" lon="9.119317876646374"><ele>1096.0</ele><time>2026-04-25T10:40:57.003Z</time></trkpt><trkpt lat="45.96689042289635" lon="9.119286885670576"><ele>1092.0</ele><time>2026-04-25T10:40:58.003Z</time></trkpt><trkpt lat="45.966963503168955" lon="9.119231626117262"><ele>1088.0</ele><time>2026-04-25T10:40:59.003Z</time></trkpt><trkpt lat="45.967087163937165" lon="9.119203086221528"><ele>1084.0</ele><time>2026-04-25T10:41:01.003Z</time></trkpt><trkpt lat="45.96715480867224" lon="9.119175749552104"><ele>1084.0</ele><time>2026-04-25T10:41:02.003Z</time></trkpt><trkpt lat="45.96722144189085" lon="9.119140495729763"><ele>1084.0</ele><time>2026-04-25T10:41:03.003Z</time></trkpt><trkpt lat="45.967298189080836" lon="9.119101310364073"><ele>1084.0</ele><time>2026-04-25T10:41:04.003Z</time></trkpt><trkpt lat="45.96738003962392" lon="9.119054065078275"><ele>1084.0</ele><time>2026-04-25T10:41:05.003Z</time></trkpt><trkpt lat="45.96744904444228" lon="9.119013165486999"><ele>1084.0</ele><time>2026-04-25T10:41:06.003Z</time></trkpt><trkpt lat="45.96750936400351" lon="9.11895775350534"><ele>1084.0</ele><time>2026-04-25T10:41:07.003Z</time></trkpt><trkpt lat="45.96755702196621" lon="9.11886806204042"><ele>1092.3333333333333</ele><time>2026-04-25T10:41:08.003Z</time></trkpt><trkpt lat="45.96765130489135" lon="9.118800133781091"><ele>1100.6666666666665</ele><time>2026-04-25T10:41:10.003Z</time></trkpt><trkpt lat="45.96774852087858" lon="9.118726531040384"><ele>1109.0</ele><time>2026-04-25T10:41:12.003Z</time></trkpt><trkpt lat="45.96781728541017" lon="9.118711857338067"><ele>1117.3333333333333</ele><time>2026-04-25T10:41:13.003Z</time></trkpt><trkpt lat="45.96789551321593" lon="9.11869810146878"><ele>1125.6666666666667</ele><time>2026-04-25T10:41:14.003Z</time></trkpt><trkpt lat="45.96796117691016" lon="9.118709004818669"><ele>1134.0</ele><time>2026-04-25T10:41:15.003Z</time></trkpt><trkpt lat="45.96802707102361" lon="9.118716169410611"><ele>1134.0</ele><time>2026-04-25T10:41:16Z</time></trkpt><trkpt lat="45.96815106788751" lon="9.118707876568923"><ele>1134.0</ele><time>2026-04-25T10:41:18Z</time></trkpt><trkpt lat="45.96821479500562" lon="9.118691492721196"><ele>1134.0</ele><time>2026-04-25T10:41:19Z</time></trkpt><trkpt lat="45.96831490513308" lon="9.118774592931265"><ele>1134.0</ele><time>2026-04-25T10:41:21Z</time></trkpt><trkpt lat="45.96834416551845" lon="9.1189635275719"><ele>1134.0</ele><time>2026-04-25T10:41:23Z</time></trkpt><trkpt lat="45.96835556016991" lon="9.119074005882283"><ele>1135.0</ele><time>2026-04-25T10:41:24Z</time></trkpt><trkpt lat="45.968363443504046" lon="9.119187109936602"><ele>1136.0</ele><time>2026-04-25T10:41:25Z</time></trkpt><trkpt lat="45.96837308038427" lon="9.119298056001533"><ele>1137.0</ele><time>2026-04-25T10:41:26Z</time></trkpt><trkpt lat="45.968388619653204" lon="9.119399318502097"><ele>1138.0</ele><time>2026-04-25T10:41:27Z</time></trkpt><trkpt lat="45.968410182951324" lon="9.119574474630147"><ele>1139.0</ele><time>2026-04-25T10:41:29Z</time></trkpt><trkpt lat="45.96845262899142" lon="9.119725626405693"><ele>1139.0</ele><time>2026-04-25T10:41:31Z</time></trkpt><trkpt lat="45.968504956057316" lon="9.119831415495437"><ele>1139.0</ele><time>2026-04-25T10:41:33Z</time></trkpt><trkpt lat="45.96859732019962" lon="9.119879363324069"><ele>1139.0</ele><time>2026-04-25T10:41:35Z</time></trkpt><trkpt lat="45.96867572973509" lon="9.119871949021256"><ele>1139.0</ele><time>2026-04-25T10:41:36Z</time></trkpt><trkpt lat="45.9687394825782" lon="9.119852305763933"><ele>1139.0</ele><time>2026-04-25T10:41:37Z</time></trkpt><trkpt lat="45.968811104693025" lon="9.119828761966785"><ele>1139.0</ele><time>2026-04-25T10:41:38Z</time></trkpt><trkpt lat="45.96892040346899" lon="9.119770645508648"><ele>1139.0</ele><time>2026-04-25T10:41:40Z</time></trkpt><trkpt lat="45.96898718571715" lon="9.119733531809834"><ele>1139.0</ele><time>2026-04-25T10:41:41Z</time></trkpt><trkpt lat="45.969056793782464" lon="9.119681435323276"><ele>1139.0</ele><time>2026-04-25T10:41:42Z</time></trkpt><trkpt lat="45.96919513379984" lon="9.119642454953912"><ele>1139.0</ele><time>2026-04-25T10:41:44Z</time></trkpt><trkpt lat="45.96926777942505" lon="9.119644606557557"><ele>1139.0</ele><time>2026-04-25T10:41:45Z</time></trkpt><trkpt lat="45.96933169858701" lon="9.119638866187223"><ele>1139.0</ele><time>2026-04-25T10:41:46.001Z</time></trkpt><trkpt lat="45.96943978356075" lon="9.11967101443343"><ele>1136.4285714285716</ele><time>2026-04-25T10:41:48.001Z</time></trkpt><trkpt lat="45.96950059703152" lon="9.119700587125202"><ele>1133.857142857143</ele><time>2026-04-25T10:41:49.001Z</time></trkpt><trkpt lat="45.96955894130841" lon="9.119756967637652"><ele>1131.2857142857142</ele><time>2026-04-25T10:41:50.001Z</time></trkpt><trkpt lat="45.969606972193155" lon="9.119818153750046"><ele>1128.7142857142858</ele><time>2026-04-25T10:41:51.001Z</time></trkpt><trkpt lat="45.96966179940705" lon="9.119882375101414"><ele>1126.142857142857</ele><time>2026-04-25T10:41:52.001Z</time></trkpt><trkpt lat="45.96973679912691" lon="9.119947853382676"><ele>1123.5714285714287</ele><time>2026-04-25T10:41:53.001Z</time></trkpt><trkpt lat="45.969808697851875" lon="9.120000061522886"><ele>1121.0</ele><time>2026-04-25T10:41:54.001Z</time></trkpt><trkpt lat="45.96988184106486" lon="9.120022690509568"><ele>1121.0</ele><time>2026-04-25T10:41:55.001Z</time></trkpt><trkpt lat="45.96995404551396" lon="9.120038525512628"><ele>1121.0</ele><time>2026-04-25T10:41:56.001Z</time></trkpt><trkpt lat="45.970069409143285" lon="9.12001295082708"><ele>1121.0</ele><time>2026-04-25T10:41:58.001Z</time></trkpt><trkpt lat="45.97018070918465" lon="9.119955731404943"><ele>1121.0</ele><time>2026-04-25T10:42:00.001Z</time></trkpt><trkpt lat="45.9702334586186" lon="9.119889036249269"><ele>1121.0</ele><time>2026-04-25T10:42:01.001Z</time></trkpt><trkpt lat="45.97029868953688" lon="9.119829368684641"><ele>1124.857142857143</ele><time>2026-04-25T10:42:02.001Z</time></trkpt><trkpt lat="45.97036248924382" lon="9.119763427364175"><ele>1128.7142857142858</ele><time>2026-04-25T10:42:03.001Z</time></trkpt><trkpt lat="45.970424777440876" lon="9.119702707073202"><ele>1132.5714285714284</ele><time>2026-04-25T10:42:04.001Z</time></trkpt><trkpt lat="45.97049326684846" lon="9.119645818590891"><ele>1136.4285714285716</ele><time>2026-04-25T10:42:05.001Z</time></trkpt><trkpt lat="45.9705549397083" lon="9.119589182094163"><ele>1140.2857142857142</ele><time>2026-04-25T10:42:06.001Z</time></trkpt><trkpt lat="45.97061394707385" lon="9.11952618029222"><ele>1144.142857142857</ele><time>2026-04-25T10:42:07.001Z</time></trkpt><trkpt lat="45.97067234800236" lon="9.119474703481531"><ele>1148.0</ele><time>2026-04-25T10:42:08.001Z</time></trkpt><trkpt lat="45.970781245040016" lon="9.119367023023091"><ele>1148.0</ele><time>2026-04-25T10:42:10.001Z</time></trkpt><trkpt lat="45.9708431594348" lon="9.119308395802914"><ele>1148.0</ele><time>2026-04-25T10:42:11.001Z</time></trkpt><trkpt lat="45.970911340290264" lon="9.119245355208674"><ele>1148.0</ele><time>2026-04-25T10:42:12.001Z</time></trkpt><trkpt lat="45.97097141666475" lon="9.119185303233937"><ele>1148.0</ele><time>2026-04-25T10:42:13.001Z</time></trkpt><trkpt lat="45.9710330871566" lon="9.11913946828316"><ele>1148.0</ele><time>2026-04-25T10:42:14.001Z</time></trkpt><trkpt lat="45.97110005615877" lon="9.119091226299426"><ele>1148.0</ele><time>2026-04-25T10:42:15.001Z</time></trkpt><trkpt lat="45.97116742889187" lon="9.119047205864803"><ele>1148.0</ele><time>2026-04-25T10:42:16.001Z</time></trkpt><trkpt lat="45.97122541706289" lon="9.118998206618695"><ele>1149.6666666666667</ele><time>2026-04-25T10:42:17.001Z</time></trkpt><trkpt lat="45.97128345562948" lon="9.118955644370672"><ele>1151.3333333333335</ele><time>2026-04-25T10:42:18.001Z</time></trkpt><trkpt lat="45.97134624328912" lon="9.118898257675509"><ele>1153.0</ele><time>2026-04-25T10:42:19.002Z</time></trkpt><trkpt lat="45.97144443046529" lon="9.118824760873133"><ele>1154.6666666666667</ele><time>2026-04-25T10:42:21.002Z</time></trkpt><trkpt lat="45.97154169539026" lon="9.118830377112914"><ele>1156.3333333333333</ele><time>2026-04-25T10:42:23.002Z</time></trkpt><trkpt lat="45.97159563191024" lon="9.118947427195488"><ele>1158.0</ele><time>2026-04-25T10:42:25.002Z</time></trkpt><trkpt lat="45.97164296840339" lon="9.119082065591074"><ele>1158.0</ele><time>2026-04-25T10:42:27.002Z</time></trkpt><trkpt lat="45.97166190986421" lon="9.11918178747021"><ele>1158.0</ele><time>2026-04-25T10:42:28.002Z</time></trkpt><trkpt lat="45.97169484569672" lon="9.119330858141621"><ele>1158.0</ele><time>2026-04-25T10:42:30.002Z</time></trkpt><trkpt lat="45.97176099603514" lon="9.119448500023507"><ele>1158.0</ele><time>2026-04-25T10:42:32.002Z</time></trkpt><trkpt lat="45.97181387626184" lon="9.119498224083955"><ele>1158.0</ele><time>2026-04-25T10:42:33.002Z</time></trkpt><trkpt lat="45.97191193450109" lon="9.119579022301767"><ele>1167.0</ele><time>2026-04-25T10:42:35.002Z</time></trkpt><trkpt lat="45.971907878186855" lon="9.119728499657159"><ele>1176.0</ele><time>2026-04-25T10:42:37.002Z</time></trkpt><trkpt lat="45.97187417325731" lon="9.119916767704595"><ele>1185.0</ele><time>2026-04-25T10:42:39.002Z</time></trkpt><trkpt lat="45.971859814655055" lon="9.12002990398347"><ele>1194.0</ele><time>2026-04-25T10:42:40.002Z</time></trkpt><trkpt lat="45.97185379016098" lon="9.120150722593785"><ele>1203.0</ele><time>2026-04-25T10:42:41.002Z</time></trkpt><trkpt lat="45.971855247657444" lon="9.120268464091703"><ele>1203.0</ele><time>2026-04-25T10:42:42.002Z</time></trkpt><trkpt lat="45.971872711926935" lon="9.12038771859874"><ele>1203.0</ele><time>2026-04-25T10:42:43.002Z</time></trkpt><trkpt lat="45.97189337711678" lon="9.120513514310932"><ele>1203.0</ele><time>2026-04-25T10:42:44.002Z</time></trkpt><trkpt lat="45.97190906820136" lon="9.12062646015254"><ele>1203.0</ele><time>2026-04-25T10:42:45.002Z</time></trkpt><trkpt lat="45.97192323327128" lon="9.120738785049285"><ele>1203.0</ele><time>2026-04-25T10:42:46.002Z</time></trkpt><trkpt lat="45.97194257160116" lon="9.12089201058376"><ele>1203.0</ele><time>2026-04-25T10:42:47.002Z</time></trkpt><trkpt lat="45.97196451341661" lon="9.121016067511198"><ele>1202.6666666666667</ele><time>2026-04-25T10:42:48.002Z</time></trkpt><trkpt lat="45.97197285717251" lon="9.121136986948535"><ele>1202.3333333333333</ele><time>2026-04-25T10:42:49.002Z</time></trkpt><trkpt lat="45.97199250254514" lon="9.121257946648123"><ele>1202.0</ele><time>2026-04-25T10:42:50.002Z</time></trkpt><trkpt lat="45.972002419771165" lon="9.121377821871132"><ele>1201.6666666666665</ele><time>2026-04-25T10:42:51.002Z</time></trkpt><trkpt lat="45.97201319235468" lon="9.12149467622746"><ele>1201.3333333333333</ele><time>2026-04-25T10:42:52.002Z</time></trkpt><trkpt lat="45.97202662610721" lon="9.12160907573562"><ele>1201.0</ele><time>2026-04-25T10:42:53.003Z</time></trkpt><trkpt lat="45.97204440020522" lon="9.121711616989877"><ele>1198.3333333333333</ele><time>2026-04-25T10:42:54.003Z</time></trkpt><trkpt lat="45.97208749345883" lon="9.121858239569569"><ele>1195.6666666666665</ele><time>2026-04-25T10:42:56.003Z</time></trkpt><trkpt lat="45.97220325385073" lon="9.121908166614102"><ele>1193.0</ele><time>2026-04-25T10:42:58.003Z</time></trkpt><trkpt lat="45.97226626885863" lon="9.12191975323083"><ele>1190.3333333333333</ele><time>2026-04-25T10:42:59.003Z</time></trkpt><trkpt lat="45.97232916926421" lon="9.121947406576984"><ele>1187.6666666666667</ele><time>2026-04-25T10:43:00.003Z</time></trkpt><trkpt lat="45.972409499216475" lon="9.121936977539253"><ele>1185.0</ele><time>2026-04-25T10:43:01.003Z</time></trkpt><trkpt lat="45.97250987160462" lon="9.121913470451736"><ele>1191.6666666666667</ele><time>2026-04-25T10:43:03.003Z</time></trkpt><trkpt lat="45.97257793074984" lon="9.121969101864734"><ele>1198.3333333333333</ele><time>2026-04-25T10:43:05.003Z</time></trkpt><trkpt lat="45.972626823992435" lon="9.12206236609832"><ele>1205.0</ele><time>2026-04-25T10:43:07.003Z</time></trkpt><trkpt lat="45.97262835390575" lon="9.122154147104252"><ele>1211.6666666666665</ele><time>2026-04-25T10:43:08.003Z</time></trkpt><trkpt lat="45.972616678494745" lon="9.122263809697445"><ele>1218.3333333333333</ele><time>2026-04-25T10:43:09.003Z</time></trkpt><trkpt lat="45.972605774491335" lon="9.12238544165974"><ele>1225.0</ele><time>2026-04-25T10:43:10.003Z</time></trkpt><trkpt lat="45.97259795604328" lon="9.122491999559232"><ele>1225.3333333333333</ele><time>2026-04-25T10:43:11.003Z</time></trkpt><trkpt lat="45.972591915626914" lon="9.122605369866134"><ele>1225.6666666666665</ele><time>2026-04-25T10:43:12.003Z</time></trkpt><trkpt lat="45.972573718225526" lon="9.122721810551154"><ele>1226.0</ele><time>2026-04-25T10:43:13.003Z</time></trkpt><trkpt lat="45.9725507132527" lon="9.122841663782278"><ele>1226.3333333333333</ele><time>2026-04-25T10:43:14.003Z</time></trkpt><trkpt lat="45.97252810880968" lon="9.12297032959683"><ele>1226.6666666666667</ele><time>2026-04-25T10:43:15.003Z</time></trkpt><trkpt lat="45.9725035733228" lon="9.123099971959611"><ele>1227.0</ele><time>2026-04-25T10:43:16.003Z</time></trkpt><trkpt lat="45.972470348768496" lon="9.123232224302994"><ele>1219.6666666666667</ele><time>2026-04-25T10:43:17.003Z</time></trkpt><trkpt lat="45.972430940830286" lon="9.123363610980878"><ele>1212.3333333333333</ele><time>2026-04-25T10:43:18.003Z</time></trkpt><trkpt lat="45.97238319522097" lon="9.12349106253946"><ele>1205.0</ele><time>2026-04-25T10:43:19.003Z</time></trkpt><trkpt lat="45.972344137435776" lon="9.12361086931717"><ele>1197.6666666666665</ele><time>2026-04-25T10:43:20.003Z</time></trkpt><trkpt lat="45.97230987845344" lon="9.123704513877192"><ele>1190.3333333333333</ele><time>2026-04-25T10:43:21.003Z</time></trkpt><trkpt lat="45.97228877433978" lon="9.123801988026452"><ele>1183.0</ele><time>2026-04-25T10:43:22Z</time></trkpt><trkpt lat="45.97228987336512" lon="9.12389588895545"><ele>1183.0</ele><time>2026-04-25T10:43:23Z</time></trkpt><trkpt lat="45.972307166083546" lon="9.123984826272702"><ele>1183.0</ele><time>2026-04-25T10:43:24Z</time></trkpt><trkpt lat="45.972355813820556" lon="9.12404972944154"><ele>1183.0</ele><time>2026-04-25T10:43:25Z</time></trkpt><trkpt lat="45.97243103029336" lon="9.124097311562634"><ele>1183.0</ele><time>2026-04-25T10:43:26Z</time></trkpt><trkpt lat="45.97251790385219" lon="9.124117383532596"><ele>1183.0</ele><time>2026-04-25T10:43:27Z</time></trkpt><trkpt lat="45.97260146503708" lon="9.124133334941817"><ele>1183.0</ele><time>2026-04-25T10:43:28Z</time></trkpt><trkpt lat="45.972680083899924" lon="9.124126864985682"><ele>1187.6</ele><time>2026-04-25T10:43:29Z</time></trkpt><trkpt lat="45.97276251922564" lon="9.12412896365738"><ele>1192.1999999999998</ele><time>2026-04-25T10:43:30Z</time></trkpt><trkpt lat="45.97285085597895" lon="9.124133907723325"><ele>1196.8</ele><time>2026-04-25T10:43:31Z</time></trkpt><trkpt lat="45.972948427653265" lon="9.124138755715586"><ele>1201.3999999999999</ele><time>2026-04-25T10:43:32Z</time></trkpt><trkpt lat="45.97305195057143" lon="9.124146629922368"><ele>1206.0</ele><time>2026-04-25T10:43:33Z</time></trkpt><trkpt lat="45.973151628492154" lon="9.124151732186059"><ele>1206.0</ele><time>2026-04-25T10:43:34Z</time></trkpt><trkpt lat="45.97324492585172" lon="9.12416027767971"><ele>1206.0</ele><time>2026-04-25T10:43:35Z</time></trkpt><trkpt lat="45.97333946792376" lon="9.124168073554884"><ele>1206.0</ele><time>2026-04-25T10:43:36Z</time></trkpt><trkpt lat="45.97342331637766" lon="9.124178615801858"><ele>1206.0</ele><time>2026-04-25T10:43:37Z</time></trkpt><trkpt lat="45.97352584822919" lon="9.124189880602804"><ele>1206.0</ele><time>2026-04-25T10:43:38Z</time></trkpt><trkpt lat="45.97362629143393" lon="9.1242192825349"><ele>1207.5</ele><time>2026-04-25T10:43:39Z</time></trkpt><trkpt lat="45.97372404015918" lon="9.124214316056584"><ele>1209.0</ele><time>2026-04-25T10:43:40Z</time></trkpt><trkpt lat="45.97380913396362" lon="9.124235867933823"><ele>1210.5</ele><time>2026-04-25T10:43:41Z</time></trkpt><trkpt lat="45.97388168388667" lon="9.124261269263851"><ele>1212.0</ele><time>2026-04-25T10:43:42Z</time></trkpt><trkpt lat="45.97394931260127" lon="9.12428723467572"><ele>1213.5</ele><time>2026-04-25T10:43:43Z</time></trkpt><trkpt lat="45.97401959410747" lon="9.12431557205256"><ele>1215.0</ele><time>2026-04-25T10:43:44Z</time></trkpt><trkpt lat="45.974087550416876" lon="9.12432884300667"><ele>1215.0</ele><time>2026-04-25T10:43:45Z</time></trkpt><trkpt lat="45.97415852724346" lon="9.124320792418843"><ele>1215.0</ele><time>2026-04-25T10:43:46Z</time></trkpt><trkpt lat="45.97426907182861" lon="9.124247529114635"><ele>1215.0</ele><time>2026-04-25T10:43:48Z</time></trkpt><trkpt lat="45.97432064162931" lon="9.124182892387742"><ele>1215.0</ele><time>2026-04-25T10:43:49Z</time></trkpt><trkpt lat="45.974374432303314" lon="9.1241247570612"><ele>1215.0</ele><time>2026-04-25T10:43:50.001Z</time></trkpt><trkpt lat="45.97447930351497" lon="9.124060898185002"><ele>1215.0</ele><time>2026-04-25T10:43:52.001Z</time></trkpt><trkpt lat="45.97458499236475" lon="9.124132544453584"><ele>1216.1666666666667</ele><time>2026-04-25T10:43:54.001Z</time></trkpt><trkpt lat="45.974646983415305" lon="9.124178268209373"><ele>1217.3333333333333</ele><time>2026-04-25T10:43:55.001Z</time></trkpt><trkpt lat="45.97472303872924" lon="9.124281591556585"><ele>1218.5</ele><time>2026-04-25T10:43:57.001Z</time></trkpt><trkpt lat="45.974837248323354" lon="9.124278569508611"><ele>1219.6666666666665</ele><time>2026-04-25T10:43:59.001Z</time></trkpt><trkpt lat="45.97490157894788" lon="9.124243100137047"><ele>1220.8333333333333</ele><time>2026-04-25T10:44:00.001Z</time></trkpt><trkpt lat="45.97496263655264" lon="9.12421267139749"><ele>1222.0</ele><time>2026-04-25T10:44:01.001Z</time></trkpt><trkpt lat="45.97502945840012" lon="9.124195248763531"><ele>1225.0</ele><time>2026-04-25T10:44:02.001Z</time></trkpt><trkpt lat="45.97509738152886" lon="9.12418829102825"><ele>1228.0</ele><time>2026-04-25T10:44:03.001Z</time></trkpt><trkpt lat="45.97521690733364" lon="9.124169415889103"><ele>1231.0</ele><time>2026-04-25T10:44:05.001Z</time></trkpt><trkpt lat="45.975280589649145" lon="9.124155441174661"><ele>1234.0</ele><time>2026-04-25T10:44:06.001Z</time></trkpt><trkpt lat="45.97539569652192" lon="9.124161382805296"><ele>1237.0</ele><time>2026-04-25T10:44:08.001Z</time></trkpt><trkpt lat="45.975463933179455" lon="9.124165697750914"><ele>1240.0</ele><time>2026-04-25T10:44:09.001Z</time></trkpt><trkpt lat="45.97552552924636" lon="9.12420559442903"><ele>1240.0</ele><time>2026-04-25T10:44:10.001Z</time></trkpt><trkpt lat="45.97555541120657" lon="9.12429855082367"><ele>1240.0</ele><time>2026-04-25T10:44:11.001Z</time></trkpt><trkpt lat="45.97561824917849" lon="9.124398181888104"><ele>1240.0</ele><time>2026-04-25T10:44:13.001Z</time></trkpt><trkpt lat="45.97569465324866" lon="9.124484400904961"><ele>1240.0</ele><time>2026-04-25T10:44:15.001Z</time></trkpt><trkpt lat="45.975785253289736" lon="9.124538583154791"><ele>1240.0</ele><time>2026-04-25T10:44:17.001Z</time></trkpt><trkpt lat="45.97584978177657" lon="9.124537797831909"><ele>1240.0</ele><time>2026-04-25T10:44:18.001Z</time></trkpt><trkpt lat="45.97599070076013" lon="9.124528599394194"><ele>1245.4</ele><time>2026-04-25T10:44:20.001Z</time></trkpt><trkpt lat="45.97605960403945" lon="9.124522918193504"><ele>1250.8</ele><time>2026-04-25T10:44:21.001Z</time></trkpt><trkpt lat="45.97617862411382" lon="9.124518623358433"><ele>1256.2</ele><time>2026-04-25T10:44:23.001Z</time></trkpt><trkpt lat="45.97627335811437" lon="9.124490014790632"><ele>1261.6</ele><time>2026-04-25T10:44:25.002Z</time></trkpt><trkpt lat="45.976350200895865" lon="9.124408032368324"><ele>1267.0</ele><time>2026-04-25T10:44:27.002Z</time></trkpt><trkpt lat="45.976446198994154" lon="9.124381308177934"><ele>1267.0</ele><time>2026-04-25T10:44:29.002Z</time></trkpt><trkpt lat="45.97651423373091" lon="9.1244415743064"><ele>1267.0</ele><time>2026-04-25T10:44:31.002Z</time></trkpt><trkpt lat="45.97658521546663" lon="9.12455080832255"><ele>1267.0</ele><time>2026-04-25T10:44:33.002Z</time></trkpt><trkpt lat="45.97664167342249" lon="9.124688291724924"><ele>1267.0</ele><time>2026-04-25T10:44:35.002Z</time></trkpt><trkpt lat="45.97673029954144" lon="9.12477402422848"><ele>1267.0</ele><time>2026-04-25T10:44:37.002Z</time></trkpt><trkpt lat="45.97686539976844" lon="9.124801673892907"><ele>1268.3333333333333</ele><time>2026-04-25T10:44:39.002Z</time></trkpt><trkpt lat="45.97693664561813" lon="9.12481395250338"><ele>1269.6666666666665</ele><time>2026-04-25T10:44:40.002Z</time></trkpt><trkpt lat="45.97700471246311" lon="9.124827973027696"><ele>1271.0</ele><time>2026-04-25T10:44:41.002Z</time></trkpt><trkpt lat="45.9770683087004" lon="9.124847911743654"><ele>1272.3333333333333</ele><time>2026-04-25T10:44:42.002Z</time></trkpt><trkpt lat="45.97713796394196" lon="9.124865199747429"><ele>1273.6666666666667</ele><time>2026-04-25T10:44:43.002Z</time></trkpt><trkpt lat="45.977236687191464" lon="9.124913666815974"><ele>1275.0</ele><time>2026-04-25T10:44:45.002Z</time></trkpt><trkpt lat="45.977309041423375" lon="9.125014599922471"><ele>1275.0</ele><time>2026-04-25T10:44:47.002Z</time></trkpt><trkpt lat="45.97736204263787" lon="9.125138077207268"><ele>1275.0</ele><time>2026-04-25T10:44:49.002Z</time></trkpt><trkpt lat="45.9773755788568" lon="9.125266942779946"><ele>1275.0</ele><time>2026-04-25T10:44:51.002Z</time></trkpt><trkpt lat="45.97733937747777" lon="9.125394569139674"><ele>1275.0</ele><time>2026-04-25T10:44:53.002Z</time></trkpt><trkpt lat="45.9773074648094" lon="9.125565520835934"><ele>1275.0</ele><time>2026-04-25T10:44:55.002Z</time></trkpt><trkpt lat="45.977301350497534" lon="9.125743570098807"><ele>1274.0</ele><time>2026-04-25T10:44:57.002Z</time></trkpt><trkpt lat="45.977274576863614" lon="9.125841224394467"><ele>1273.0</ele><time>2026-04-25T10:44:58.002Z</time></trkpt><trkpt lat="45.977266149370244" lon="9.125944007510693"><ele>1272.0</ele><time>2026-04-25T10:44:59.002Z</time></trkpt><trkpt lat="45.97726433430378" lon="9.126052096765957"><ele>1271.0</ele><time>2026-04-25T10:45:00.003Z</time></trkpt><trkpt lat="45.977262415140714" lon="9.126160889553386"><ele>1270.0</ele><time>2026-04-25T10:45:01.003Z</time></trkpt><trkpt lat="45.977262864938055" lon="9.12626802330669"><ele>1269.0</ele><time>2026-04-25T10:45:02.003Z</time></trkpt><trkpt lat="45.97726377725474" lon="9.126375794384291"><ele>1268.0</ele><time>2026-04-25T10:45:03.003Z</time></trkpt><trkpt lat="45.97724547449315" lon="9.126498450768253"><ele>1269.8333333333335</ele><time>2026-04-25T10:45:04.003Z</time></trkpt><trkpt lat="45.97723085885076" lon="9.126606909849652"><ele>1271.6666666666667</ele><time>2026-04-25T10:45:05.003Z</time></trkpt><trkpt lat="45.97721791904406" lon="9.126722846459467"><ele>1273.5</ele><time>2026-04-25T10:45:06.003Z</time></trkpt><trkpt lat="45.977219156900574" lon="9.12683987142108"><ele>1275.3333333333333</ele><time>2026-04-25T10:45:07.003Z</time></trkpt><trkpt lat="45.977201012832744" lon="9.126946371578953"><ele>1277.1666666666665</ele><time>2026-04-25T10:45:08.003Z</time></trkpt><trkpt lat="45.97721515757311" lon="9.127065195993477"><ele>1279.0</ele><time>2026-04-25T10:45:09.003Z</time></trkpt><trkpt lat="45.97720423559097" lon="9.127187543139863"><ele>1279.0</ele><time>2026-04-25T10:45:10.003Z</time></trkpt><trkpt lat="45.97718938834722" lon="9.127313985856786"><ele>1279.0</ele><time>2026-04-25T10:45:11.003Z</time></trkpt><trkpt lat="45.97717071139982" lon="9.127444568278959"><ele>1279.0</ele><time>2026-04-25T10:45:12.003Z</time></trkpt><trkpt lat="45.977148099081944" lon="9.12757368079981"><ele>1279.0</ele><time>2026-04-25T10:45:13.003Z</time></trkpt><trkpt lat="45.977098718566914" lon="9.127683361538828"><ele>1279.0</ele><time>2026-04-25T10:45:14.003Z</time></trkpt><trkpt lat="45.97705421414471" lon="9.127843860638219"><ele>1281.6</ele><time>2026-04-25T10:45:16.003Z</time></trkpt><trkpt lat="45.97697718190665" lon="9.128001264725105"><ele>1284.2</ele><time>2026-04-25T10:45:18.003Z</time></trkpt><trkpt lat="45.976948653411625" lon="9.128085019840983"><ele>1286.8</ele><time>2026-04-25T10:45:19.003Z</time></trkpt><trkpt lat="45.976960292561664" lon="9.128242441151551"><ele>1289.3999999999999</ele><time>2026-04-25T10:45:21.003Z</time></trkpt><trkpt lat="45.977021703341215" lon="9.128377909265058"><ele>1292.0</ele><time>2026-04-25T10:45:23.003Z</time></trkpt><trkpt lat="45.97709088814559" lon="9.128401882928118"><ele>1292.0</ele><time>2026-04-25T10:45:24.003Z</time></trkpt><trkpt lat="45.97720788472329" lon="9.12846575529218"><ele>1292.0</ele><time>2026-04-25T10:45:26.003Z</time></trkpt><trkpt lat="45.977270029733376" lon="9.12851115592419"><ele>1292.0</ele><time>2026-04-25T10:45:27.003Z</time></trkpt><trkpt lat="45.977338919612684" lon="9.128573848809175"><ele>1292.0</ele><time>2026-04-25T10:45:28.001Z</time></trkpt><trkpt lat="45.977412222661506" lon="9.12862904060487"><ele>1292.0</ele><time>2026-04-25T10:45:29.001Z</time></trkpt><trkpt lat="45.97747826947245" lon="9.128680977783098"><ele>1292.0</ele><time>2026-04-25T10:45:30.001Z</time></trkpt><trkpt lat="45.97755009065874" lon="9.128740793320471"><ele>1296.6666666666667</ele><time>2026-04-25T10:45:31.001Z</time></trkpt><trkpt lat="45.97761976539544" lon="9.128809224027163"><ele>1301.3333333333335</ele><time>2026-04-25T10:45:32.001Z</time></trkpt><trkpt lat="45.97768368543472" lon="9.128869690277677"><ele>1306.0</ele><time>2026-04-25T10:45:33.001Z</time></trkpt><trkpt lat="45.97774658112238" lon="9.128931441311066"><ele>1310.6666666666667</ele><time>2026-04-25T10:45:34.001Z</time></trkpt><trkpt lat="45.97780099607377" lon="9.128987105421537"><ele>1315.3333333333333</ele><time>2026-04-25T10:45:35.001Z</time></trkpt><trkpt lat="45.97789023978265" lon="9.12910525528582"><ele>1320.0</ele><time>2026-04-25T10:45:37.001Z</time></trkpt><trkpt lat="45.97791189229564" lon="9.129201355718982"><ele>1320.0</ele><time>2026-04-25T10:45:38.001Z</time></trkpt><trkpt lat="45.977939841177474" lon="9.129390804294122"><ele>1320.0</ele><time>2026-04-25T10:45:40Z</time></trkpt><trkpt lat="45.97792228333559" lon="9.129480600034018"><ele>1320.0</ele><time>2026-04-25T10:45:41Z</time></trkpt><trkpt lat="45.977938218944644" lon="9.129607883472815"><ele>1320.0</ele><time>2026-04-25T10:45:42Z</time></trkpt><trkpt lat="45.97795448170475" lon="9.129706553182386"><ele>1320.0</ele><time>2026-04-25T10:45:43Z</time></trkpt><trkpt lat="45.97800859624067" lon="9.129822723440984"><ele>1316.8333333333333</ele><time>2026-04-25T10:45:45Z</time></trkpt><trkpt lat="45.97805828443213" lon="9.129894859888964"><ele>1313.6666666666667</ele><time>2026-04-25T10:45:46Z</time></trkpt><trkpt lat="45.9781432005227" lon="9.129944621919547"><ele>1310.5</ele><time>2026-04-25T10:45:47Z</time></trkpt><trkpt lat="45.97822913165978" lon="9.130001835902686"><ele>1307.3333333333335</ele><time>2026-04-25T10:45:48Z</time></trkpt><trkpt lat="45.978300973142694" lon="9.130054313032964"><ele>1304.1666666666667</ele><time>2026-04-25T10:45:49.001Z</time></trkpt><trkpt lat="45.978373440289324" lon="9.130092720319078"><ele>1301.0</ele><time>2026-04-25T10:45:50.001Z</time></trkpt><trkpt lat="45.978450483619305" lon="9.130192126248888"><ele>1308.8333333333335</ele><time>2026-04-25T10:45:51.001Z</time></trkpt><trkpt lat="45.97851342108458" lon="9.130266843704305"><ele>1316.6666666666667</ele><time>2026-04-25T10:45:52.001Z</time></trkpt><trkpt lat="45.97857485563314" lon="9.13033068431064"><ele>1324.5</ele><time>2026-04-25T10:45:53.001Z</time></trkpt><trkpt lat="45.978651385103326" lon="9.130405530062305"><ele>1332.3333333333333</ele><time>2026-04-25T10:45:54.001Z</time></trkpt><trkpt lat="45.97871710563891" lon="9.130471044215955"><ele>1340.1666666666665</ele><time>2026-04-25T10:45:55.001Z</time></trkpt><trkpt lat="45.97878435589207" lon="9.130545425935082"><ele>1348.0</ele><time>2026-04-25T10:45:56.001Z</time></trkpt><trkpt lat="45.978873269673976" lon="9.13067326266793"><ele>1343.6666666666665</ele><time>2026-04-25T10:45:58.001Z</time></trkpt><trkpt lat="45.978922105587934" lon="9.130772751563489"><ele>1339.3333333333333</ele><time>2026-04-25T10:45:59.001Z</time></trkpt><trkpt lat="45.97895791479701" lon="9.130867029348373"><ele>1335.0</ele><time>2026-04-25T10:46:00.001Z</time></trkpt><trkpt lat="45.97897888034266" lon="9.130972776410085"><ele>1330.6666666666667</ele><time>2026-04-25T10:46:01.001Z</time></trkpt><trkpt lat="45.97899052286547" lon="9.131109038251216"><ele>1326.3333333333335</ele><time>2026-04-25T10:46:02.001Z</time></trkpt><trkpt lat="45.9789992755958" lon="9.1312291260243"><ele>1322.0</ele><time>2026-04-25T10:46:03.001Z</time></trkpt><trkpt lat="45.979020795659316" lon="9.131335160618798"><ele>1322.0</ele><time>2026-04-25T10:46:04.001Z</time></trkpt><trkpt lat="45.9790629314584" lon="9.131500638687804"><ele>1322.0</ele><time>2026-04-25T10:46:06.001Z</time></trkpt><trkpt lat="45.97908236458709" lon="9.131598369275569"><ele>1322.0</ele><time>2026-04-25T10:46:07.001Z</time></trkpt><trkpt lat="45.97911004830061" lon="9.131685387061607"><ele>1322.0</ele><time>2026-04-25T10:46:08.001Z</time></trkpt><trkpt lat="45.97914150723374" lon="9.131780591331712"><ele>1322.0</ele><time>2026-04-25T10:46:09.001Z</time></trkpt><trkpt lat="45.979177261039766" lon="9.131873185288876"><ele>1322.0</ele><time>2026-04-25T10:46:10.001Z</time></trkpt><trkpt lat="45.97922022066282" lon="9.131966835032536"><ele>1327.3333333333335</ele><time>2026-04-25T10:46:11.001Z</time></trkpt><trkpt lat="45.97926099044263" lon="9.132054103926636"><ele>1332.6666666666667</ele><time>2026-04-25T10:46:12.001Z</time></trkpt><trkpt lat="45.97930439730039" lon="9.132150713918891"><ele>1338.0</ele><time>2026-04-25T10:46:13.001Z</time></trkpt><trkpt lat="45.97934093257581" lon="9.13225032195763"><ele>1343.3333333333333</ele><time>2026-04-25T10:46:14.001Z</time></trkpt><trkpt lat="45.97936458014787" lon="9.132364637663024"><ele>1348.6666666666665</ele><time>2026-04-25T10:46:15.001Z</time></trkpt><trkpt lat="45.9793742060047" lon="9.132485164114517"><ele>1354.0</ele><time>2026-04-25T10:46:16.001Z</time></trkpt><trkpt lat="45.97937796254651" lon="9.132602283337576"><ele>1354.0</ele><time>2026-04-25T10:46:17.001Z</time></trkpt><trkpt lat="45.97939652189154" lon="9.132724297749927"><ele>1354.0</ele><time>2026-04-25T10:46:18.001Z</time></trkpt><trkpt lat="45.979422298703575" lon="9.132850702194927"><ele>1354.0</ele><time>2026-04-25T10:46:19.001Z</time></trkpt><trkpt lat="45.97945939078705" lon="9.132971324817731"><ele>1354.0</ele><time>2026-04-25T10:46:20.001Z</time></trkpt><trkpt lat="45.979494775733706" lon="9.133071966604684"><ele>1354.0</ele><time>2026-04-25T10:46:21.001Z</time></trkpt><trkpt lat="45.979533551" lon="9.133149276487512"><ele>1354.0</ele><time>2026-04-25T10:46:22.001Z</time></trkpt><trkpt lat="45.979584459822505" lon="9.133214979246901"><ele>1350.5</ele><time>2026-04-25T10:46:23.001Z</time></trkpt><trkpt lat="45.97968345500473" lon="9.13330107733597"><ele>1347.0</ele><time>2026-04-25T10:46:25.001Z</time></trkpt><trkpt lat="45.97973346441571" lon="9.133428589115422"><ele>1343.5</ele><time>2026-04-25T10:46:27.001Z</time></trkpt><trkpt lat="45.97968364275664" lon="9.133592193448933"><ele>1340.0</ele><time>2026-04-25T10:46:29.001Z</time></trkpt><trkpt lat="45.97961927032271" lon="9.133718916340621"><ele>1340.0</ele><time>2026-04-25T10:46:30.001Z</time></trkpt><trkpt lat="45.97959125020328" lon="9.133806598702268"><ele>1340.0</ele><time>2026-04-25T10:46:31.001Z</time></trkpt><trkpt lat="45.97953642237378" lon="9.133914468242022"><ele>1340.0</ele><time>2026-04-25T10:46:32.001Z</time></trkpt><trkpt lat="45.97948005770934" lon="9.134037434556353"><ele>1340.0</ele><time>2026-04-25T10:46:33.001Z</time></trkpt><trkpt lat="45.97942624153438" lon="9.134148591641852"><ele>1340.0</ele><time>2026-04-25T10:46:34.001Z</time></trkpt><trkpt lat="45.97936759697831" lon="9.134260912501237"><ele>1340.0</ele><time>2026-04-25T10:46:35.001Z</time></trkpt><trkpt lat="45.979309472595205" lon="9.13436286764186"><ele>1340.0</ele><time>2026-04-25T10:46:36.002Z</time></trkpt><trkpt lat="45.97924738178195" lon="9.134462671839266"><ele>1340.0</ele><time>2026-04-25T10:46:37.002Z</time></trkpt><trkpt lat="45.979198722659234" lon="9.134558026263676"><ele>1340.0</ele><time>2026-04-25T10:46:38.002Z</time></trkpt><trkpt lat="45.97913820999449" lon="9.134648282764749"><ele>1340.0</ele><time>2026-04-25T10:46:39.002Z</time></trkpt><trkpt lat="45.97909412868314" lon="9.134725483513744"><ele>1340.0</ele><time>2026-04-25T10:46:40.002Z</time></trkpt><trkpt lat="45.9790519578265" lon="9.13479337738599"><ele>1337.8333333333335</ele><time>2026-04-25T10:46:41.002Z</time></trkpt><trkpt lat="45.97900768417005" lon="9.134863881299779"><ele>1335.6666666666667</ele><time>2026-04-25T10:46:42.002Z</time></trkpt><trkpt lat="45.97894192765055" lon="9.134957377147344"><ele>1333.5</ele><time>2026-04-25T10:46:44.002Z</time></trkpt><trkpt lat="45.97885940030103" lon="9.135081164422099"><ele>1331.3333333333333</ele><time>2026-04-25T10:46:46.002Z</time></trkpt><trkpt lat="45.97881513506881" lon="9.135147733740803"><ele>1329.1666666666665</ele><time>2026-04-25T10:46:47.002Z</time></trkpt><trkpt lat="45.978754139144975" lon="9.1352039498603"><ele>1327.0</ele><time>2026-04-25T10:46:48.002Z</time></trkpt><trkpt lat="45.978698242463814" lon="9.135278908687978"><ele>1327.0</ele><time>2026-04-25T10:46:49.002Z</time></trkpt><trkpt lat="45.97864608334834" lon="9.135352301894814"><ele>1327.0</ele><time>2026-04-25T10:46:50.002Z</time></trkpt><trkpt lat="45.97859916693696" lon="9.13542418096175"><ele>1327.0</ele><time>2026-04-25T10:46:51.002Z</time></trkpt><trkpt lat="45.978527751066146" lon="9.135537319998413"><ele>1327.0</ele><time>2026-04-25T10:46:53.002Z</time></trkpt><trkpt lat="45.97847898232421" lon="9.135641662020545"><ele>1327.0</ele><time>2026-04-25T10:46:55.002Z</time></trkpt><trkpt lat="45.97845126528851" lon="9.135723563400347"><ele>1327.0</ele><time>2026-04-25T10:46:57.002Z</time></trkpt><trkpt lat="45.9784460962368" lon="9.1358534123181"><ele>1326.6666666666665</ele><time>2026-04-25T10:47:00.002Z</time></trkpt><trkpt lat="45.97844042300001" lon="9.135969220379456"><ele>1326.3333333333333</ele><time>2026-04-25T10:47:02.002Z</time></trkpt><trkpt lat="45.97843700371516" lon="9.136082259110168"><ele>1326.0</ele><time>2026-04-25T10:47:04.002Z</time></trkpt><trkpt lat="45.97845415666185" lon="9.136190463813204"><ele>1325.6666666666667</ele><time>2026-04-25T10:47:07.002Z</time></trkpt><trkpt lat="45.97851030108861" lon="9.136237844201228"><ele>1325.3333333333335</ele><time>2026-04-25T10:47:09.002Z</time></trkpt><trkpt lat="45.97859400208509" lon="9.136231728638647"><ele>1325.0</ele><time>2026-04-25T10:47:11.002Z</time></trkpt><trkpt lat="45.97867233619752" lon="9.136212678641245"><ele>1325.0</ele><time>2026-04-25T10:47:13.002Z</time></trkpt><trkpt lat="45.978761543250776" lon="9.136193545940301"><ele>1325.0</ele><time>2026-04-25T10:47:24.003Z</time></trkpt><trkpt lat="45.97885141480373" lon="9.13619214754313"><ele>1325.0</ele><time>2026-04-25T10:49:15.002Z</time></trkpt><trkpt lat="45.978948297516766" lon="9.136126510158032"><ele>1325.0</ele><time>2026-04-25T10:49:17.002Z</time></trkpt><trkpt lat="45.97902044739579" lon="9.136097697451032"><ele>1325.0</ele><time>2026-04-25T10:49:18.002Z</time></trkpt><trkpt lat="45.97909242683571" lon="9.136091197852945"><ele>1325.0</ele><time>2026-04-25T10:49:19.002Z</time></trkpt><trkpt lat="45.97917198652388" lon="9.136083984967383"><ele>1326.3333333333335</ele><time>2026-04-25T10:49:20.002Z</time></trkpt><trkpt lat="45.97925575941156" lon="9.136085484693382"><ele>1327.6666666666667</ele><time>2026-04-25T10:49:21.003Z</time></trkpt><trkpt lat="45.97932631021621" lon="9.136088269123675"><ele>1329.0</ele><time>2026-04-25T10:49:22.003Z</time></trkpt><trkpt lat="45.979401893645615" lon="9.136085291695565"><ele>1330.3333333333333</ele><time>2026-04-25T10:49:23.003Z</time></trkpt><trkpt lat="45.979484850291385" lon="9.136069283160136"><ele>1331.6666666666665</ele><time>2026-04-25T10:49:24.003Z</time></trkpt><trkpt lat="45.979567915041336" lon="9.136042630495588"><ele>1333.0</ele><time>2026-04-25T10:49:25.003Z</time></trkpt><trkpt lat="45.979657043702474" lon="9.136009554021873"><ele>1333.0</ele><time>2026-04-25T10:49:26.003Z</time></trkpt><trkpt lat="45.97974441037361" lon="9.135993434642604"><ele>1333.0</ele><time>2026-04-25T10:49:27.003Z</time></trkpt><trkpt lat="45.97982810511847" lon="9.136002642248716"><ele>1333.0</ele><time>2026-04-25T10:49:28.003Z</time></trkpt><trkpt lat="45.97989874806012" lon="9.136036910163266"><ele>1333.0</ele><time>2026-04-25T10:49:29.003Z</time></trkpt><trkpt lat="45.979963715725326" lon="9.136107259523511"><ele>1333.0</ele><time>2026-04-25T10:49:30.003Z</time></trkpt><trkpt lat="45.98002246225829" lon="9.136199705537878"><ele>1333.0</ele><time>2026-04-25T10:49:31.003Z</time></trkpt><trkpt lat="45.98007990911605" lon="9.136309514699938"><ele>1332.2</ele><time>2026-04-25T10:49:32.003Z</time></trkpt><trkpt lat="45.98012633624371" lon="9.136428504075818"><ele>1331.4</ele><time>2026-04-25T10:49:33.003Z</time></trkpt><trkpt lat="45.9801623542551" lon="9.136541197632873"><ele>1330.6000000000001</ele><time>2026-04-25T10:49:34.003Z</time></trkpt><trkpt lat="45.98020268796794" lon="9.136634918630683"><ele>1329.8000000000002</ele><time>2026-04-25T10:49:35.003Z</time></trkpt><trkpt lat="45.98025373154793" lon="9.136700332251845"><ele>1329.0</ele><time>2026-04-25T10:49:36.003Z</time></trkpt><trkpt lat="45.98037615233573" lon="9.136748780265542"><ele>1328.0</ele><time>2026-04-25T10:49:38.003Z</time></trkpt><trkpt lat="45.980453777500195" lon="9.136761348722896"><ele>1327.0</ele><time>2026-04-25T10:49:39.003Z</time></trkpt><trkpt lat="45.98053583090337" lon="9.136768304587585"><ele>1326.0</ele><time>2026-04-25T10:49:40.001Z</time></trkpt><trkpt lat="45.980615349938105" lon="9.13677697981728"><ele>1325.0</ele><time>2026-04-25T10:49:41.001Z</time></trkpt><trkpt lat="45.98070352848013" lon="9.136792200264036"><ele>1324.0</ele><time>2026-04-25T10:49:42.001Z</time></trkpt><trkpt lat="45.98077806398485" lon="9.136814532557482"><ele>1323.0</ele><time>2026-04-25T10:49:43.001Z</time></trkpt><trkpt lat="45.98086801166838" lon="9.136855003078596"><ele>1319.4</ele><time>2026-04-25T10:49:44.001Z</time></trkpt><trkpt lat="45.98096076239025" lon="9.136870964769953"><ele>1315.8000000000002</ele><time>2026-04-25T10:49:45.001Z</time></trkpt><trkpt lat="45.9810561476288" lon="9.136916730989416"><ele>1312.2</ele><time>2026-04-25T10:49:46.001Z</time></trkpt><trkpt lat="45.981155971224325" lon="9.136928659613394"><ele>1308.6</ele><time>2026-04-25T10:49:47.001Z</time></trkpt><trkpt lat="45.9812422359307" lon="9.136962625246262"><ele>1305.0</ele><time>2026-04-25T10:49:48.001Z</time></trkpt><trkpt lat="45.98133441519533" lon="9.137003170374296"><ele>1305.0</ele><time>2026-04-25T10:49:49.001Z</time></trkpt><trkpt lat="45.98142918584125" lon="9.137046577766741"><ele>1305.0</ele><time>2026-04-25T10:49:50.001Z</time></trkpt><trkpt lat="45.98152901949146" lon="9.13709415943488"><ele>1305.0</ele><time>2026-04-25T10:49:51.001Z</time></trkpt><trkpt lat="45.98161857769208" lon="9.137135994116461"><ele>1305.0</ele><time>2026-04-25T10:49:52.001Z</time></trkpt><trkpt lat="45.981707349151215" lon="9.137173432691576"><ele>1305.0</ele><time>2026-04-25T10:49:53.001Z</time></trkpt><trkpt lat="45.981796083397946" lon="9.13721303112016"><ele>1305.1666666666667</ele><time>2026-04-25T10:49:54.001Z</time></trkpt><trkpt lat="45.981871452911584" lon="9.137250923931457"><ele>1305.3333333333333</ele><time>2026-04-25T10:49:55.001Z</time></trkpt><trkpt lat="45.98193760517911" lon="9.137293530642102"><ele>1305.5</ele><time>2026-04-25T10:49:56.001Z</time></trkpt><trkpt lat="45.98200930061778" lon="9.137321516369445"><ele>1305.6666666666665</ele><time>2026-04-25T10:49:57.001Z</time></trkpt><trkpt lat="45.98208143479065" lon="9.137373989027836"><ele>1305.8333333333333</ele><time>2026-04-25T10:49:58.001Z</time></trkpt><trkpt lat="45.98215458608196" lon="9.137459812170272"><ele>1306.0</ele><time>2026-04-25T10:49:59.001Z</time></trkpt><trkpt lat="45.982229695116054" lon="9.137564713371386"><ele>1306.0</ele><time>2026-04-25T10:50:00.001Z</time></trkpt><trkpt lat="45.982314203760914" lon="9.137678520030398"><ele>1306.0</ele><time>2026-04-25T10:50:01.001Z</time></trkpt><trkpt lat="45.98241013725361" lon="9.137770865161194"><ele>1306.0</ele><time>2026-04-25T10:50:02.001Z</time></trkpt><trkpt lat="45.982490705643826" lon="9.137868208712407"><ele>1306.0</ele><time>2026-04-25T10:50:03.001Z</time></trkpt><trkpt lat="45.982559975058436" lon="9.137970813586193"><ele>1306.0</ele><time>2026-04-25T10:50:04.001Z</time></trkpt><trkpt lat="45.982627404236055" lon="9.138069978181928"><ele>1304.1999999999998</ele><time>2026-04-25T10:50:05.001Z</time></trkpt><trkpt lat="45.98269460067675" lon="9.13815495121182"><ele>1302.3999999999999</ele><time>2026-04-25T10:50:06.001Z</time></trkpt><trkpt lat="45.98275313503249" lon="9.13820810581876"><ele>1300.6</ele><time>2026-04-25T10:50:07.001Z</time></trkpt><trkpt lat="45.98287757530654" lon="9.138212831634652"><ele>1298.8</ele><time>2026-04-25T10:50:09.001Z</time></trkpt><trkpt lat="45.98295181273679" lon="9.138215741142618"><ele>1297.0</ele><time>2026-04-25T10:50:10.001Z</time></trkpt><trkpt lat="45.98305659663999" lon="9.138202545964772"><ele>1296.6</ele><time>2026-04-25T10:50:11.001Z</time></trkpt><trkpt lat="45.9831250297904" lon="9.138264973104222"><ele>1296.1999999999998</ele><time>2026-04-25T10:50:12.001Z</time></trkpt><trkpt lat="45.9832311567858" lon="9.138310709525802"><ele>1295.8</ele><time>2026-04-25T10:50:13.001Z</time></trkpt><trkpt lat="45.98333823088088" lon="9.138357043878244"><ele>1295.4</ele><time>2026-04-25T10:50:14.001Z</time></trkpt><trkpt lat="45.98342360189954" lon="9.138401940151404"><ele>1295.0</ele><time>2026-04-25T10:50:15.001Z</time></trkpt><trkpt lat="45.98350426632459" lon="9.13843682926938"><ele>1295.0</ele><time>2026-04-25T10:50:16.001Z</time></trkpt><trkpt lat="45.98360122131273" lon="9.138515335499186"><ele>1295.0</ele><time>2026-04-25T10:50:17.001Z</time></trkpt><trkpt lat="45.983699334857704" lon="9.138574178818963"><ele>1295.0</ele><time>2026-04-25T10:50:18.001Z</time></trkpt><trkpt lat="45.983803172065116" lon="9.138636889022091"><ele>1295.0</ele><time>2026-04-25T10:50:19.001Z</time></trkpt><trkpt lat="45.98390398208367" lon="9.138701946460946"><ele>1295.0</ele><time>2026-04-25T10:50:20.001Z</time></trkpt><trkpt lat="45.98398753212177" lon="9.138744898732403"><ele>1295.0</ele><time>2026-04-25T10:50:21.001Z</time></trkpt><trkpt lat="45.98404748026381" lon="9.138830524984973"><ele>1295.0</ele><time>2026-04-25T10:50:22.001Z</time></trkpt><trkpt lat="45.984126304782336" lon="9.13884545290154"><ele>1295.0</ele><time>2026-04-25T10:50:23.001Z</time></trkpt><trkpt lat="45.98419292778443" lon="9.13890921479977"><ele>1295.0</ele><time>2026-04-25T10:50:24.001Z</time></trkpt><trkpt lat="45.984266714836714" lon="9.138977930586014"><ele>1295.0</ele><time>2026-04-25T10:50:25.001Z</time></trkpt><trkpt lat="45.98434348219371" lon="9.13905576870566"><ele>1295.0</ele><time>2026-04-25T10:50:26.001Z</time></trkpt><trkpt lat="45.984406648401176" lon="9.139142383856273"><ele>1292.0</ele><time>2026-04-25T10:50:27.001Z</time></trkpt><trkpt lat="45.98445768044944" lon="9.139233517132254"><ele>1289.0</ele><time>2026-04-25T10:50:28.001Z</time></trkpt><trkpt lat="45.98450022294894" lon="9.13935513385941"><ele>1286.0</ele><time>2026-04-25T10:50:29.001Z</time></trkpt><trkpt lat="45.98453684296656" lon="9.1394409794193"><ele>1283.0</ele><time>2026-04-25T10:50:30.001Z</time></trkpt><trkpt lat="45.98458601878682" lon="9.13952130854261"><ele>1280.0</ele><time>2026-04-25T10:50:31.001Z</time></trkpt><trkpt lat="45.98462877750222" lon="9.139626595876337"><ele>1277.0</ele><time>2026-04-25T10:50:32.001Z</time></trkpt><trkpt lat="45.98466273275947" lon="9.139738764276514"><ele>1277.0</ele><time>2026-04-25T10:50:33.001Z</time></trkpt><trkpt lat="45.984693982539554" lon="9.139860665873591"><ele>1277.0</ele><time>2026-04-25T10:50:34.001Z</time></trkpt><trkpt lat="45.9847140372044" lon="9.139967197586829"><ele>1277.0</ele><time>2026-04-25T10:50:35.001Z</time></trkpt><trkpt lat="45.98474998938953" lon="9.140070277692933"><ele>1277.0</ele><time>2026-04-25T10:50:36.001Z</time></trkpt><trkpt lat="45.98478446552303" lon="9.140301653783458"><ele>1277.0</ele><time>2026-04-25T10:50:38.001Z</time></trkpt><trkpt lat="45.98479781360275" lon="9.14040242799091"><ele>1279.0</ele><time>2026-04-25T10:50:39.001Z</time></trkpt><trkpt lat="45.98485180513379" lon="9.140567796464323"><ele>1281.0</ele><time>2026-04-25T10:50:41.001Z</time></trkpt><trkpt lat="45.984883967044524" lon="9.1407417314984"><ele>1283.0</ele><time>2026-04-25T10:50:43.001Z</time></trkpt><trkpt lat="45.98495216955147" lon="9.140876579276211"><ele>1285.0</ele><time>2026-04-25T10:50:45.001Z</time></trkpt><trkpt lat="45.98503753089728" lon="9.140970287809564"><ele>1282.1666666666665</ele><time>2026-04-25T10:50:46.001Z</time></trkpt><trkpt lat="45.985113404653944" lon="9.141024014670867"><ele>1279.3333333333333</ele><time>2026-04-25T10:50:47.001Z</time></trkpt><trkpt lat="45.98518146638038" lon="9.141067613435606"><ele>1276.5</ele><time>2026-04-25T10:50:48.002Z</time></trkpt><trkpt lat="45.98526081336086" lon="9.14112437516722"><ele>1273.6666666666667</ele><time>2026-04-25T10:50:49.002Z</time></trkpt><trkpt lat="45.985336530515305" lon="9.14118462771758"><ele>1270.8333333333335</ele><time>2026-04-25T10:50:50.002Z</time></trkpt><trkpt lat="45.9854345347791" lon="9.141266035204097"><ele>1268.0</ele><time>2026-04-25T10:50:51.002Z</time></trkpt><trkpt lat="45.98553829080846" lon="9.141326424608657"><ele>1268.0</ele><time>2026-04-25T10:50:52.002Z</time></trkpt><trkpt lat="45.98561156411593" lon="9.141414576303514"><ele>1268.0</ele><time>2026-04-25T10:50:53.002Z</time></trkpt><trkpt lat="45.98569786930823" lon="9.141486645215338"><ele>1268.0</ele><time>2026-04-25T10:50:54.002Z</time></trkpt><trkpt lat="45.98577408484889" lon="9.141557404105086"><ele>1268.0</ele><time>2026-04-25T10:50:55.002Z</time></trkpt><trkpt lat="45.985854662222245" lon="9.141616552138712"><ele>1268.0</ele><time>2026-04-25T10:50:57.002Z</time></trkpt><trkpt lat="45.98593983811442" lon="9.141688571029476"><ele>1267.8</ele><time>2026-04-25T10:51:00.002Z</time></trkpt><trkpt lat="45.98603239749939" lon="9.141740046096482"><ele>1267.6</ele><time>2026-04-25T10:51:02.002Z</time></trkpt><trkpt lat="45.98611576982221" lon="9.14182878335291"><ele>1267.4</ele><time>2026-04-25T10:51:03.002Z</time></trkpt><trkpt lat="45.98619468797555" lon="9.141890972447705"><ele>1267.2</ele><time>2026-04-25T10:51:04.002Z</time></trkpt><trkpt lat="45.98627718160394" lon="9.14194559948394"><ele>1267.0</ele><time>2026-04-25T10:51:05.002Z</time></trkpt><trkpt lat="45.98635581678565" lon="9.142026611645587"><ele>1267.0</ele><time>2026-04-25T10:51:06.002Z</time></trkpt><trkpt lat="45.98642247364614" lon="9.142075915946473"><ele>1267.0</ele><time>2026-04-25T10:51:07.002Z</time></trkpt><trkpt lat="45.986497802902335" lon="9.142108545073228"><ele>1267.0</ele><time>2026-04-25T10:51:08.002Z</time></trkpt><trkpt lat="45.986586627682726" lon="9.142202979597386"><ele>1267.0</ele><time>2026-04-25T10:51:09.002Z</time></trkpt><trkpt lat="45.98665973081413" lon="9.142257659541508"><ele>1267.0</ele><time>2026-04-25T10:51:10.002Z</time></trkpt><trkpt lat="45.986740161033204" lon="9.142350762881003"><ele>1264.4</ele><time>2026-04-25T10:51:11.002Z</time></trkpt><trkpt lat="45.98679568874026" lon="9.14241086788139"><ele>1261.8000000000002</ele><time>2026-04-25T10:51:12.002Z</time></trkpt><trkpt lat="45.98688318549292" lon="9.142539601355907"><ele>1259.2</ele><time>2026-04-25T10:51:13.002Z</time></trkpt><trkpt lat="45.98694353247263" lon="9.142665575413595"><ele>1256.6000000000001</ele><time>2026-04-25T10:51:14.002Z</time></trkpt><trkpt lat="45.987018119111404" lon="9.142780689928212"><ele>1254.0</ele><time>2026-04-25T10:51:15.002Z</time></trkpt><trkpt lat="45.98707268235482" lon="9.142898627316924"><ele>1254.0</ele><time>2026-04-25T10:51:16.002Z</time></trkpt><trkpt lat="45.98712771424712" lon="9.142985265545331"><ele>1254.0</ele><time>2026-04-25T10:51:17.002Z</time></trkpt><trkpt lat="45.98718839830186" lon="9.14309726791146"><ele>1254.0</ele><time>2026-04-25T10:51:18.002Z</time></trkpt><trkpt lat="45.987251041217355" lon="9.143207540581384"><ele>1254.0</ele><time>2026-04-25T10:51:19.002Z</time></trkpt><trkpt lat="45.9873044820433" lon="9.143320884263112"><ele>1254.0</ele><time>2026-04-25T10:51:20.002Z</time></trkpt><trkpt lat="45.987368354791954" lon="9.143437871864316"><ele>1251.2</ele><time>2026-04-25T10:51:21.002Z</time></trkpt><trkpt lat="45.98741503005889" lon="9.14356279464651"><ele>1248.4</ele><time>2026-04-25T10:51:22.002Z</time></trkpt><trkpt lat="45.9874777229151" lon="9.143671479756087"><ele>1245.6</ele><time>2026-04-25T10:51:23.002Z</time></trkpt><trkpt lat="45.9875325785436" lon="9.143795646927924"><ele>1242.8</ele><time>2026-04-25T10:51:24.002Z</time></trkpt><trkpt lat="45.98757975658227" lon="9.143931310239426"><ele>1240.0</ele><time>2026-04-25T10:51:25.002Z</time></trkpt><trkpt lat="45.987628175822735" lon="9.14407708192958"><ele>1240.0</ele><time>2026-04-25T10:51:26.002Z</time></trkpt><trkpt lat="45.9876688851135" lon="9.144219256273605"><ele>1240.0</ele><time>2026-04-25T10:51:27.002Z</time></trkpt><trkpt lat="45.98769753797358" lon="9.144361624935515"><ele>1240.0</ele><time>2026-04-25T10:51:28.002Z</time></trkpt><trkpt lat="45.987727061218315" lon="9.144502090344961"><ele>1240.0</ele><time>2026-04-25T10:51:29.002Z</time></trkpt><trkpt lat="45.9877470576264" lon="9.144643113631318"><ele>1240.0</ele><time>2026-04-25T10:51:30.002Z</time></trkpt><trkpt lat="45.98775312165189" lon="9.144785975521255"><ele>1240.75</ele><time>2026-04-25T10:51:31.002Z</time></trkpt><trkpt lat="45.987754636484034" lon="9.144941493513913"><ele>1241.5</ele><time>2026-04-25T10:51:32.002Z</time></trkpt><trkpt lat="45.987765335496896" lon="9.145116823295025"><ele>1242.25</ele><time>2026-04-25T10:51:33.002Z</time></trkpt><trkpt lat="45.98776427691819" lon="9.145286860779533"><ele>1243.0</ele><time>2026-04-25T10:51:34.003Z</time></trkpt><trkpt lat="45.98776606589241" lon="9.145481348064795"><ele>1243.0</ele><time>2026-04-25T10:51:35.003Z</time></trkpt><trkpt lat="45.98776767093682" lon="9.145659941951452"><ele>1243.0</ele><time>2026-04-25T10:51:36.003Z</time></trkpt><trkpt lat="45.98776709800713" lon="9.14582612296005"><ele>1243.0</ele><time>2026-04-25T10:51:37.003Z</time></trkpt><trkpt lat="45.98776271922825" lon="9.145982776109737"><ele>1243.0</ele><time>2026-04-25T10:51:38.003Z</time></trkpt><trkpt lat="45.98777672072845" lon="9.146139356572249"><ele>1241.8333333333333</ele><time>2026-04-25T10:51:39.003Z</time></trkpt><trkpt lat="45.98776930978042" lon="9.146273837011892"><ele>1240.6666666666665</ele><time>2026-04-25T10:51:40.003Z</time></trkpt><trkpt lat="45.98776884558151" lon="9.146391378935311"><ele>1239.5</ele><time>2026-04-25T10:51:41.003Z</time></trkpt><trkpt lat="45.98778360504558" lon="9.146503161003595"><ele>1238.3333333333333</ele><time>2026-04-25T10:51:42.003Z</time></trkpt><trkpt lat="45.98781561339884" lon="9.146611451467656"><ele>1237.1666666666667</ele><time>2026-04-25T10:51:43.003Z</time></trkpt><trkpt lat="45.987855923065474" lon="9.14672474435122"><ele>1236.0</ele><time>2026-04-25T10:51:44.003Z</time></trkpt><trkpt lat="45.987872171107995" lon="9.146843232908088"><ele>1235.8333333333333</ele><time>2026-04-25T10:51:45.003Z</time></trkpt><trkpt lat="45.98787637475953" lon="9.146974784275931"><ele>1235.6666666666667</ele><time>2026-04-25T10:51:46Z</time></trkpt><trkpt lat="45.98787154458172" lon="9.147098842512014"><ele>1235.5</ele><time>2026-04-25T10:51:46.999Z</time></trkpt><trkpt lat="45.987864434747216" lon="9.14722390203577"><ele>1235.3333333333335</ele><time>2026-04-25T10:51:48Z</time></trkpt><trkpt lat="45.987854555744974" lon="9.1473494754069"><ele>1235.1666666666667</ele><time>2026-04-25T10:51:48.999Z</time></trkpt><trkpt lat="45.98784224802921" lon="9.147473390478474"><ele>1235.0</ele><time>2026-04-25T10:51:49.999Z</time></trkpt><trkpt lat="45.98783478113017" lon="9.147594190837083"><ele>1233.8333333333335</ele><time>2026-04-25T10:51:51Z</time></trkpt><trkpt lat="45.98781899560267" lon="9.147717512475914"><ele>1232.6666666666667</ele><time>2026-04-25T10:51:52Z</time></trkpt><trkpt lat="45.98778998679401" lon="9.1478399766364"><ele>1231.5</ele><time>2026-04-25T10:51:53Z</time></trkpt><trkpt lat="45.9877832987377" lon="9.14796079027853"><ele>1230.3333333333333</ele><time>2026-04-25T10:51:54Z</time></trkpt><trkpt lat="45.98777768184558" lon="9.148081806277196"><ele>1229.1666666666665</ele><time>2026-04-25T10:51:55Z</time></trkpt><trkpt lat="45.987766320519846" lon="9.148200906260364"><ele>1228.0</ele><time>2026-04-25T10:51:56Z</time></trkpt><trkpt lat="45.987756347947915" lon="9.148321613522427"><ele>1226.8</ele><time>2026-04-25T10:51:57Z</time></trkpt><trkpt lat="45.9877547957333" lon="9.148448797168655"><ele>1225.6</ele><time>2026-04-25T10:51:58Z</time></trkpt><trkpt lat="45.98775864364738" lon="9.148586327631053"><ele>1224.4</ele><time>2026-04-25T10:51:59Z</time></trkpt><trkpt lat="45.98776631344294" lon="9.14872934206578"><ele>1223.2</ele><time>2026-04-25T10:52:00Z</time></trkpt><trkpt lat="45.987768856641836" lon="9.148869112370136"><ele>1222.0</ele><time>2026-04-25T10:52:01Z</time></trkpt><trkpt lat="45.987769285395494" lon="9.149009860039115"><ele>1222.4</ele><time>2026-04-25T10:52:02Z</time></trkpt><trkpt lat="45.98775963790897" lon="9.14914273006129"><ele>1222.8000000000002</ele><time>2026-04-25T10:52:03Z</time></trkpt><trkpt lat="45.98776295170584" lon="9.14928290703058"><ele>1223.2</ele><time>2026-04-25T10:52:04Z</time></trkpt><trkpt lat="45.987760516951624" lon="9.14942567359394"><ele>1223.6000000000001</ele><time>2026-04-25T10:52:05Z</time></trkpt><trkpt lat="45.987753758746464" lon="9.149560048756948"><ele>1224.0</ele><time>2026-04-25T10:52:06Z</time></trkpt><trkpt lat="45.987741460640756" lon="9.149691505203304"><ele>1224.0</ele><time>2026-04-25T10:52:07Z</time></trkpt><trkpt lat="45.987731714779635" lon="9.149816215760556"><ele>1224.0</ele><time>2026-04-25T10:52:08Z</time></trkpt><trkpt lat="45.987718470257704" lon="9.149940396632426"><ele>1224.0</ele><time>2026-04-25T10:52:09Z</time></trkpt><trkpt lat="45.987709695903696" lon="9.150063271794023"><ele>1224.0</ele><time>2026-04-25T10:52:10Z</time></trkpt><trkpt lat="45.98770658225126" lon="9.150181656692725"><ele>1224.0</ele><time>2026-04-25T10:52:11Z</time></trkpt><trkpt lat="45.98769614212605" lon="9.150293271600622"><ele>1224.0</ele><time>2026-04-25T10:52:12Z</time></trkpt><trkpt lat="45.98768677119479" lon="9.15039619559046"><ele>1224.8</ele><time>2026-04-25T10:52:13Z</time></trkpt><trkpt lat="45.98768362319257" lon="9.150555179807691"><ele>1225.6000000000001</ele><time>2026-04-25T10:52:15Z</time></trkpt><trkpt lat="45.987662406328795" lon="9.15066618172491"><ele>1226.4</ele><time>2026-04-25T10:52:17Z</time></trkpt><trkpt lat="45.98764636981056" lon="9.150778979623281"><ele>1227.2</ele><time>2026-04-25T10:52:19Z</time></trkpt><trkpt lat="45.98763960551905" lon="9.150888909742697"><ele>1228.0</ele><time>2026-04-25T10:52:21Z</time></trkpt><trkpt lat="45.98774736695033" lon="9.150983296179334"><ele>1227.9999999999998</ele><time>2026-04-25T10:52:23Z</time></trkpt><trkpt lat="45.98780856275642" lon="9.151026250032604"><ele>1228.0</ele><time>2026-04-25T10:52:24Z</time></trkpt><trkpt lat="45.98786314663831" lon="9.151086302094772"><ele>1228.0</ele><time>2026-04-25T10:52:25Z</time></trkpt><trkpt lat="45.987926139515615" lon="9.151115784673202"><ele>1228.0</ele><time>2026-04-25T10:52:26Z</time></trkpt><trkpt lat="45.987988645936184" lon="9.151130611038308"><ele>1228.0</ele><time>2026-04-25T10:52:27Z</time></trkpt><trkpt lat="45.98805700608936" lon="9.151113120606887"><ele>1227.9999999999998</ele><time>2026-04-25T10:52:28Z</time></trkpt><trkpt lat="45.988131550927164" lon="9.151065750190543"><ele>1228.0</ele><time>2026-04-25T10:52:29Z</time></trkpt><trkpt lat="45.98820767059278" lon="9.15100576274516"><ele>1228.0</ele><time>2026-04-25T10:52:30.001Z</time></trkpt><trkpt lat="45.988286362389275" lon="9.150951586204112"><ele>1228.0</ele><time>2026-04-25T10:52:31.001Z</time></trkpt><trkpt lat="45.98837449942023" lon="9.150895128712728"><ele>1228.0</ele><time>2026-04-25T10:52:32.001Z</time></trkpt><trkpt lat="45.98846477888209" lon="9.150840180788641"><ele>1228.0</ele><time>2026-04-25T10:52:33.001Z</time></trkpt><trkpt lat="45.98854758803905" lon="9.150790353810269"><ele>1228.0</ele><time>2026-04-25T10:52:34.001Z</time></trkpt><trkpt lat="45.98862704013058" lon="9.150724581871463"><ele>1226.1666666666665</ele><time>2026-04-25T10:52:35.001Z</time></trkpt><trkpt lat="45.9887055468695" lon="9.150676863675697"><ele>1224.3333333333333</ele><time>2026-04-25T10:52:36.001Z</time></trkpt><trkpt lat="45.988790510286435" lon="9.150653532573283"><ele>1222.5</ele><time>2026-04-25T10:52:37.001Z</time></trkpt><trkpt lat="45.98886581496445" lon="9.1506190749431"><ele>1220.6666666666667</ele><time>2026-04-25T10:52:38.001Z</time></trkpt><trkpt lat="45.98894269549674" lon="9.15059199420542"><ele>1218.8333333333335</ele><time>2026-04-25T10:52:39.001Z</time></trkpt><trkpt lat="45.989018123257694" lon="9.150550695574966"><ele>1217.0</ele><time>2026-04-25T10:52:40.001Z</time></trkpt><trkpt lat="45.98909401975968" lon="9.150548179452649"><ele>1217.0</ele><time>2026-04-25T10:52:41.001Z</time></trkpt><trkpt lat="45.98916234251118" lon="9.150537712807122"><ele>1217.0</ele><time>2026-04-25T10:52:42.001Z</time></trkpt><trkpt lat="45.989230944935194" lon="9.150528604288644"><ele>1217.0</ele><time>2026-04-25T10:52:43.001Z</time></trkpt><trkpt lat="45.98935157363302" lon="9.150502898610789"><ele>1217.0</ele><time>2026-04-25T10:52:45.001Z</time></trkpt><trkpt lat="45.989453146681385" lon="9.150515053687128"><ele>1217.0</ele><time>2026-04-25T10:52:47.001Z</time></trkpt><trkpt lat="45.98954257770311" lon="9.150530599832804"><ele>1217.0</ele><time>2026-04-25T10:52:49.001Z</time></trkpt><trkpt lat="45.98962060344653" lon="9.15055364180909"><ele>1217.0</ele><time>2026-04-25T10:52:51.001Z</time></trkpt><trkpt lat="45.98970039252861" lon="9.150582551398609"><ele>1217.0</ele><time>2026-04-25T10:52:53.001Z</time></trkpt><trkpt lat="45.98980630861059" lon="9.150630214893502"><ele>1217.0</ele><time>2026-04-25T10:52:55.001Z</time></trkpt><trkpt lat="45.98991654067865" lon="9.150687855090343"><ele>1217.0</ele><time>2026-04-25T10:52:57.001Z</time></trkpt><trkpt lat="45.990033518011224" lon="9.150751349666763"><ele>1222.0</ele><time>2026-04-25T10:52:59.001Z</time></trkpt><trkpt lat="45.99009335903127" lon="9.150790224296353"><ele>1227.0</ele><time>2026-04-25T10:53:00.001Z</time></trkpt><trkpt lat="45.990155148170665" lon="9.150824409111667"><ele>1232.0</ele><time>2026-04-25T10:53:01.001Z</time></trkpt><trkpt lat="45.99026517943893" lon="9.150889594978299"><ele>1237.0</ele><time>2026-04-25T10:53:03.001Z</time></trkpt><trkpt lat="45.990378746865076" lon="9.15095402630122"><ele>1242.0</ele><time>2026-04-25T10:53:05.001Z</time></trkpt><trkpt lat="45.99048491931348" lon="9.151018538292485"><ele>1242.0</ele><time>2026-04-25T10:53:07.001Z</time></trkpt><trkpt lat="45.99058032573379" lon="9.151102435053529"><ele>1242.0</ele><time>2026-04-25T10:53:09.001Z</time></trkpt><trkpt lat="45.99067742262825" lon="9.151174414195983"><ele>1242.0</ele><time>2026-04-25T10:53:11.001Z</time></trkpt><trkpt lat="45.990763915338384" lon="9.151259858393516"><ele>1242.0</ele><time>2026-04-25T10:53:13.002Z</time></trkpt><trkpt lat="45.990858910684565" lon="9.151348761498248"><ele>1242.0</ele><time>2026-04-25T10:53:15.002Z</time></trkpt><trkpt lat="45.99094727379729" lon="9.151484165185447"><ele>1244.2857142857142</ele><time>2026-04-25T10:53:17.002Z</time></trkpt><trkpt lat="45.99099071549275" lon="9.151559978849962"><ele>1246.5714285714284</ele><time>2026-04-25T10:53:18.002Z</time></trkpt><trkpt lat="45.99103180619766" lon="9.151630658816998"><ele>1248.8571428571427</ele><time>2026-04-25T10:53:19.002Z</time></trkpt><trkpt lat="45.99107379470705" lon="9.151702996057672"><ele>1251.142857142857</ele><time>2026-04-25T10:53:20.002Z</time></trkpt><trkpt lat="45.99109862357291" lon="9.151787363800704"><ele>1253.4285714285716</ele><time>2026-04-25T10:53:21.002Z</time></trkpt><trkpt lat="45.99114401319933" lon="9.1518601523843"><ele>1255.7142857142856</ele><time>2026-04-25T10:53:22.002Z</time></trkpt><trkpt lat="45.99118753986203" lon="9.151937886153567"><ele>1258.0</ele><time>2026-04-25T10:53:23.002Z</time></trkpt><trkpt lat="45.99123150997272" lon="9.152016440843981"><ele>1258.0</ele><time>2026-04-25T10:53:24.002Z</time></trkpt><trkpt lat="45.99127713053967" lon="9.152085370744796"><ele>1258.0</ele><time>2026-04-25T10:53:25.002Z</time></trkpt><trkpt lat="45.99131702132878" lon="9.15216242743816"><ele>1258.0</ele><time>2026-04-25T10:53:26.002Z</time></trkpt><trkpt lat="45.99136193617753" lon="9.1522276008623"><ele>1258.0</ele><time>2026-04-25T10:53:27.002Z</time></trkpt><trkpt lat="45.99144817026178" lon="9.152344091019259"><ele>1258.0</ele><time>2026-04-25T10:53:29.002Z</time></trkpt><trkpt lat="45.99153623380512" lon="9.152381455082033"><ele>1258.0</ele><time>2026-04-25T10:53:31.002Z</time></trkpt><trkpt lat="45.991628204778785" lon="9.152402832483025"><ele>1262.8333333333333</ele><time>2026-04-25T10:53:33.002Z</time></trkpt><trkpt lat="45.99171848656625" lon="9.15228529840909"><ele>1267.6666666666665</ele><time>2026-04-25T10:53:35.002Z</time></trkpt><trkpt lat="45.99173835246396" lon="9.152189333665838"><ele>1272.5</ele><time>2026-04-25T10:53:36.002Z</time></trkpt><trkpt lat="45.99172984263808" lon="9.152080731317335"><ele>1277.3333333333333</ele><time>2026-04-25T10:53:37.002Z</time></trkpt><trkpt lat="45.99173432694133" lon="9.151977844622255"><ele>1282.1666666666667</ele><time>2026-04-25T10:53:38.002Z</time></trkpt><trkpt lat="45.99174858805449" lon="9.151877214239633"><ele>1287.0</ele><time>2026-04-25T10:53:39.002Z</time></trkpt><trkpt lat="45.99174988727517" lon="9.151768841128135"><ele>1287.0</ele><time>2026-04-25T10:53:40.002Z</time></trkpt><trkpt lat="45.991747130000206" lon="9.15165620356333"><ele>1287.0</ele><time>2026-04-25T10:53:41.002Z</time></trkpt><trkpt lat="45.99174142347766" lon="9.151541167240943"><ele>1287.0</ele><time>2026-04-25T10:53:42.002Z</time></trkpt><trkpt lat="45.991719715222416" lon="9.15142979080513"><ele>1287.0</ele><time>2026-04-25T10:53:43.002Z</time></trkpt><trkpt lat="45.991724313202795" lon="9.15131477548995"><ele>1287.0</ele><time>2026-04-25T10:53:44.002Z</time></trkpt><trkpt lat="45.9917313024252" lon="9.151206787140334"><ele>1287.0</ele><time>2026-04-25T10:53:45.002Z</time></trkpt><trkpt lat="45.99173782630745" lon="9.151104699088435"><ele>1288.4285714285713</ele><time>2026-04-25T10:53:46.002Z</time></trkpt><trkpt lat="45.99173669365989" lon="9.15100703083718"><ele>1289.857142857143</ele><time>2026-04-25T10:53:47.002Z</time></trkpt><trkpt lat="45.99172403492272" lon="9.150915155595829"><ele>1291.2857142857142</ele><time>2026-04-25T10:53:48.002Z</time></trkpt><trkpt lat="45.99172231263532" lon="9.150818843051278"><ele>1292.7142857142858</ele><time>2026-04-25T10:53:49.002Z</time></trkpt><trkpt lat="45.9916944863957" lon="9.150698863049056"><ele>1294.142857142857</ele><time>2026-04-25T10:53:50.002Z</time></trkpt><trkpt lat="45.99169573590235" lon="9.150584422527803"><ele>1295.5714285714287</ele><time>2026-04-25T10:53:51.002Z</time></trkpt><trkpt lat="45.991681513960245" lon="9.150470561890694"><ele>1297.0</ele><time>2026-04-25T10:53:52Z</time></trkpt><trkpt lat="45.99167350338408" lon="9.150364816988716"><ele>1297.5</ele><time>2026-04-25T10:53:52.999Z</time></trkpt><trkpt lat="45.99167154070038" lon="9.150257111794021"><ele>1298.0</ele><time>2026-04-25T10:53:54Z</time></trkpt><trkpt lat="45.99167241872162" lon="9.150139574611973"><ele>1298.5</ele><time>2026-04-25T10:53:55Z</time></trkpt><trkpt lat="45.99167759708632" lon="9.15003004357246"><ele>1299.0</ele><time>2026-04-25T10:53:56Z</time></trkpt><trkpt lat="45.991687156796125" lon="9.149911853936109"><ele>1299.5</ele><time>2026-04-25T10:53:57Z</time></trkpt><trkpt lat="45.991699393274935" lon="9.149791928414853"><ele>1300.0</ele><time>2026-04-25T10:53:58Z</time></trkpt><trkpt lat="45.991717938922584" lon="9.149690729310898"><ele>1300.0</ele><time>2026-04-25T10:53:59Z</time></trkpt><trkpt lat="45.99173651836112" lon="9.149590676128382"><ele>1300.0</ele><time>2026-04-25T10:54:00Z</time></trkpt><trkpt lat="45.991782654135015" lon="9.149437910294736"><ele>1300.0</ele><time>2026-04-25T10:54:02Z</time></trkpt><trkpt lat="45.991844598035605" lon="9.149267368289982"><ele>1300.0</ele><time>2026-04-25T10:54:04Z</time></trkpt><trkpt lat="45.99188187597813" lon="9.149174687027335"><ele>1300.0</ele><time>2026-04-25T10:54:05Z</time></trkpt><trkpt lat="45.99191715107934" lon="9.149083722868422"><ele>1299.1666666666665</ele><time>2026-04-25T10:54:06Z</time></trkpt><trkpt lat="45.991967253357906" lon="9.148952536476429"><ele>1298.3333333333333</ele><time>2026-04-25T10:54:08Z</time></trkpt><trkpt lat="45.99199403872394" lon="9.148825645822884"><ele>1297.5</ele><time>2026-04-25T10:54:09Z</time></trkpt><trkpt lat="45.99204666589085" lon="9.148732948314931"><ele>1296.6666666666667</ele><time>2026-04-25T10:54:10Z</time></trkpt><trkpt lat="45.99209205615934" lon="9.14863175382216"><ele>1295.8333333333335</ele><time>2026-04-25T10:54:11Z</time></trkpt><trkpt lat="45.992130860086604" lon="9.14853923696254"><ele>1295.0</ele><time>2026-04-25T10:54:12Z</time></trkpt><trkpt lat="45.99217791780159" lon="9.14844685981651"><ele>1295.0</ele><time>2026-04-25T10:54:13Z</time></trkpt><trkpt lat="45.99220956193639" lon="9.148342839023096"><ele>1295.0</ele><time>2026-04-25T10:54:14Z</time></trkpt><trkpt lat="45.99222269311481" lon="9.148229823964702"><ele>1295.0</ele><time>2026-04-25T10:54:15Z</time></trkpt><trkpt lat="45.99223291713041" lon="9.148113147673413"><ele>1295.0</ele><time>2026-04-25T10:54:16Z</time></trkpt><trkpt lat="45.992260999462026" lon="9.148005128364101"><ele>1295.0</ele><time>2026-04-25T10:54:17Z</time></trkpt><trkpt lat="45.99229721425802" lon="9.147901306395488"><ele>1295.0</ele><time>2026-04-25T10:54:18Z</time></trkpt><trkpt lat="45.99233852408793" lon="9.14780104303584"><ele>1294.6666666666667</ele><time>2026-04-25T10:54:19Z</time></trkpt><trkpt lat="45.99239001707316" lon="9.147698600928317"><ele>1294.3333333333335</ele><time>2026-04-25T10:54:20Z</time></trkpt><trkpt lat="45.99243685550622" lon="9.147605508278561"><ele>1294.0</ele><time>2026-04-25T10:54:21Z</time></trkpt><trkpt lat="45.992486126195224" lon="9.147517426666866"><ele>1293.6666666666667</ele><time>2026-04-25T10:54:22Z</time></trkpt><trkpt lat="45.99253382997979" lon="9.147430578323101"><ele>1293.3333333333333</ele><time>2026-04-25T10:54:23Z</time></trkpt><trkpt lat="45.992573881643224" lon="9.147357601758626"><ele>1293.0</ele><time>2026-04-25T10:54:24Z</time></trkpt><trkpt lat="45.99265421683701" lon="9.147249027619145"><ele>1293.0</ele><time>2026-04-25T10:54:26Z</time></trkpt><trkpt lat="45.99272579290248" lon="9.147255054437732"><ele>1293.0</ele><time>2026-04-25T10:54:28Z</time></trkpt><trkpt lat="45.99276849281422" lon="9.147328607081983"><ele>1293.0</ele><time>2026-04-25T10:54:30Z</time></trkpt><trkpt lat="45.99278008277929" lon="9.147457837021118"><ele>1293.0</ele><time>2026-04-25T10:54:32Z</time></trkpt><trkpt lat="45.992797921543804" lon="9.14765328874332"><ele>1293.0</ele><time>2026-04-25T10:54:34Z</time></trkpt><trkpt lat="45.99280482252964" lon="9.147757587716175"><ele>1293.0</ele><time>2026-04-25T10:54:35Z</time></trkpt><trkpt lat="45.99281380457519" lon="9.147928399333871"><ele>1293.0</ele><time>2026-04-25T10:54:37.001Z</time></trkpt><trkpt lat="45.99280915463123" lon="9.148020422138336"><ele>1293.0</ele><time>2026-04-25T10:54:38.001Z</time></trkpt><trkpt lat="45.99280687825865" lon="9.148120340927582"><ele>1293.0</ele><time>2026-04-25T10:54:39.001Z</time></trkpt><trkpt lat="45.99279266073306" lon="9.148209360938633"><ele>1293.0</ele><time>2026-04-25T10:54:40.001Z</time></trkpt><trkpt lat="45.9927800437548" lon="9.148299146840992"><ele>1293.0</ele><time>2026-04-25T10:54:41.001Z</time></trkpt><trkpt lat="45.99275509460278" lon="9.148472023308035"><ele>1293.0</ele><time>2026-04-25T10:54:43.001Z</time></trkpt><trkpt lat="45.99273247975744" lon="9.148635849691994"><ele>1296.2</ele><time>2026-04-25T10:54:45.001Z</time></trkpt><trkpt lat="45.9927213160567" lon="9.14878134991227"><ele>1299.4</ele><time>2026-04-25T10:54:47.001Z</time></trkpt><trkpt lat="45.992739398616436" lon="9.148937576794994"><ele>1302.6000000000001</ele><time>2026-04-25T10:54:49.001Z</time></trkpt><trkpt lat="45.99275916669662" lon="9.14910113715687"><ele>1305.8000000000002</ele><time>2026-04-25T10:54:51.001Z</time></trkpt><trkpt lat="45.99276539626473" lon="9.149264743822128"><ele>1309.0</ele><time>2026-04-25T10:54:53.001Z</time></trkpt><trkpt lat="45.99277078832537" lon="9.149442759860232"><ele>1311.857142857143</ele><time>2026-04-25T10:54:55.001Z</time></trkpt><trkpt lat="45.99277413650879" lon="9.149535596736001"><ele>1314.7142857142858</ele><time>2026-04-25T10:54:56.001Z</time></trkpt><trkpt lat="45.992782798778556" lon="9.149629266379206"><ele>1317.5714285714284</ele><time>2026-04-25T10:54:57.001Z</time></trkpt><trkpt lat="45.992791490566646" lon="9.149722973029542"><ele>1320.4285714285716</ele><time>2026-04-25T10:54:58.001Z</time></trkpt><trkpt lat="45.992805811041066" lon="9.149811373010186"><ele>1323.2857142857142</ele><time>2026-04-25T10:54:59.001Z</time></trkpt><trkpt lat="45.992824970170886" lon="9.149905562249929"><ele>1326.142857142857</ele><time>2026-04-25T10:55:00.001Z</time></trkpt><trkpt lat="45.992851995566184" lon="9.149995090563376"><ele>1329.0</ele><time>2026-04-25T10:55:01.001Z</time></trkpt><trkpt lat="45.99288273060032" lon="9.150088714285912"><ele>1329.2857142857142</ele><time>2026-04-25T10:55:02.001Z</time></trkpt><trkpt lat="45.992912946704344" lon="9.150179336675746"><ele>1329.5714285714287</ele><time>2026-04-25T10:55:03.001Z</time></trkpt><trkpt lat="45.99294581781167" lon="9.15027100053637"><ele>1329.857142857143</ele><time>2026-04-25T10:55:04.001Z</time></trkpt><trkpt lat="45.99297923807373" lon="9.150363675239646"><ele>1330.142857142857</ele><time>2026-04-25T10:55:05.001Z</time></trkpt><trkpt lat="45.99301235635062" lon="9.150454959057258"><ele>1330.4285714285713</ele><time>2026-04-25T10:55:06.001Z</time></trkpt><trkpt lat="45.99304662846985" lon="9.150547397472947"><ele>1330.7142857142858</ele><time>2026-04-25T10:55:07.001Z</time></trkpt><trkpt lat="45.99307753624992" lon="9.150642741185782"><ele>1331.0</ele><time>2026-04-25T10:55:08.001Z</time></trkpt><trkpt lat="45.99311467120482" lon="9.150737705344595"><ele>1330.1666666666667</ele><time>2026-04-25T10:55:09.001Z</time></trkpt><trkpt lat="45.993154158498854" lon="9.150833278491927"><ele>1329.3333333333335</ele><time>2026-04-25T10:55:10.001Z</time></trkpt><trkpt lat="45.99319463472878" lon="9.150924020288137"><ele>1328.5</ele><time>2026-04-25T10:55:11.001Z</time></trkpt><trkpt lat="45.99325648645943" lon="9.150999072343042"><ele>1327.6666666666667</ele><time>2026-04-25T10:55:12.001Z</time></trkpt><trkpt lat="45.993324483256934" lon="9.151069039955958"><ele>1326.8333333333333</ele><time>2026-04-25T10:55:13.001Z</time></trkpt><trkpt lat="45.99339638296636" lon="9.15112552724149"><ele>1326.0</ele><time>2026-04-25T10:55:14.001Z</time></trkpt><trkpt lat="45.9934718390302" lon="9.151166816366192"><ele>1328.1666666666667</ele><time>2026-04-25T10:55:15.001Z</time></trkpt><trkpt lat="45.99354180324555" lon="9.151212142897506"><ele>1330.3333333333333</ele><time>2026-04-25T10:55:16.002Z</time></trkpt><trkpt lat="45.99362360639304" lon="9.151196448894977"><ele>1332.5</ele><time>2026-04-25T10:55:17.002Z</time></trkpt><trkpt lat="45.99369897866096" lon="9.151211812998934"><ele>1334.6666666666665</ele><time>2026-04-25T10:55:18.002Z</time></trkpt><trkpt lat="45.9937784573524" lon="9.151173624984265"><ele>1336.8333333333333</ele><time>2026-04-25T10:55:19.002Z</time></trkpt><trkpt lat="45.993858729558156" lon="9.15115453104433"><ele>1339.0</ele><time>2026-04-25T10:55:20.002Z</time></trkpt><trkpt lat="45.993934826546095" lon="9.151131081337997"><ele>1339.0</ele><time>2026-04-25T10:55:21.002Z</time></trkpt><trkpt lat="45.99401472525332" lon="9.151111206131358"><ele>1339.0</ele><time>2026-04-25T10:55:22.002Z</time></trkpt><trkpt lat="45.99408994367303" lon="9.151093562867562"><ele>1339.0</ele><time>2026-04-25T10:55:23.002Z</time></trkpt><trkpt lat="45.994160632867796" lon="9.151050237543938"><ele>1339.0</ele><time>2026-04-25T10:55:24.002Z</time></trkpt><trkpt lat="45.994238912701874" lon="9.151011186221819"><ele>1339.0</ele><time>2026-04-25T10:55:25.002Z</time></trkpt><trkpt lat="45.994311930143645" lon="9.150950307439988"><ele>1339.0</ele><time>2026-04-25T10:55:26.002Z</time></trkpt><trkpt lat="45.99437880291935" lon="9.150878697062398"><ele>1340.1666666666665</ele><time>2026-04-25T10:55:27.002Z</time></trkpt><trkpt lat="45.99446089975514" lon="9.15083561643062"><ele>1341.3333333333333</ele><time>2026-04-25T10:55:28.002Z</time></trkpt><trkpt lat="45.99453894313001" lon="9.150796706932942"><ele>1342.5</ele><time>2026-04-25T10:55:29.002Z</time></trkpt><trkpt lat="45.99461486030145" lon="9.150749636892579"><ele>1343.6666666666667</ele><time>2026-04-25T10:55:30.002Z</time></trkpt><trkpt lat="45.99469361833459" lon="9.150738144294593"><ele>1344.8333333333335</ele><time>2026-04-25T10:55:31.002Z</time></trkpt><trkpt lat="45.994765001729164" lon="9.150718929469353"><ele>1346.0</ele><time>2026-04-25T10:55:32.002Z</time></trkpt><trkpt lat="45.99483642031835" lon="9.150718860023968"><ele>1346.0</ele><time>2026-04-25T10:55:33.002Z</time></trkpt><trkpt lat="45.99491282651012" lon="9.150726851912461"><ele>1346.0</ele><time>2026-04-25T10:55:34.002Z</time></trkpt><trkpt lat="45.994986519082566" lon="9.15074078240356"><ele>1346.0</ele><time>2026-04-25T10:55:35.002Z</time></trkpt><trkpt lat="45.99506702298889" lon="9.150737675723418"><ele>1346.0</ele><time>2026-04-25T10:55:36.002Z</time></trkpt><trkpt lat="45.99513395326593" lon="9.150676929417447"><ele>1346.0</ele><time>2026-04-25T10:55:37.002Z</time></trkpt><trkpt lat="45.99523745140534" lon="9.150621538549405"><ele>1346.0</ele><time>2026-04-25T10:55:39.002Z</time></trkpt><trkpt lat="45.99534094559939" lon="9.150577927795418"><ele>1356.0</ele><time>2026-04-25T10:55:41.002Z</time></trkpt><trkpt lat="45.99544612558144" lon="9.15054647995571"><ele>1366.0</ele><time>2026-04-25T10:55:43.002Z</time></trkpt><trkpt lat="45.99555147980888" lon="9.150524135175663"><ele>1376.0</ele><time>2026-04-25T10:55:45.002Z</time></trkpt><trkpt lat="45.99567189811931" lon="9.150511949067456"><ele>1386.0</ele><time>2026-04-25T10:55:47.002Z</time></trkpt><trkpt lat="45.9957362966832" lon="9.150541484539387"><ele>1396.0</ele><time>2026-04-25T10:55:48.002Z</time></trkpt><trkpt lat="45.99579582951125" lon="9.150588728537048"><ele>1397.8571428571427</ele><time>2026-04-25T10:55:49.002Z</time></trkpt><trkpt lat="45.99585790748678" lon="9.150645888178747"><ele>1399.7142857142858</ele><time>2026-04-25T10:55:50.002Z</time></trkpt><trkpt lat="45.995914494061566" lon="9.150706654220437"><ele>1401.5714285714284</ele><time>2026-04-25T10:55:51.002Z</time></trkpt><trkpt lat="45.99597187181345" lon="9.15077570541816"><ele>1403.4285714285713</ele><time>2026-04-25T10:55:52.002Z</time></trkpt><trkpt lat="45.99603715074565" lon="9.150838520298088"><ele>1405.2857142857142</ele><time>2026-04-25T10:55:53.002Z</time></trkpt><trkpt lat="45.99609587784616" lon="9.150903615516842"><ele>1407.142857142857</ele><time>2026-04-25T10:55:54.002Z</time></trkpt><trkpt lat="45.996152500818425" lon="9.150979813513574"><ele>1409.0</ele><time>2026-04-25T10:55:55.002Z</time></trkpt><trkpt lat="45.99621028492782" lon="9.151056390407547"><ele>1409.0</ele><time>2026-04-25T10:55:56.002Z</time></trkpt><trkpt lat="45.996275037289614" lon="9.151142516182375"><ele>1409.0</ele><time>2026-04-25T10:55:57.003Z</time></trkpt><trkpt lat="45.996338868107735" lon="9.151231397132396"><ele>1409.0</ele><time>2026-04-25T10:55:57.999Z</time></trkpt><trkpt lat="45.99640606686959" lon="9.151326665891759"><ele>1409.0</ele><time>2026-04-25T10:55:58.999Z</time></trkpt><trkpt lat="45.996473260278634" lon="9.15141863658193"><ele>1409.0</ele><time>2026-04-25T10:56:00Z</time></trkpt><trkpt lat="45.99654218053355" lon="9.151509027894692"><ele>1409.2</ele><time>2026-04-25T10:56:01Z</time></trkpt><trkpt lat="45.996610880917174" lon="9.151596770913644"><ele>1409.4</ele><time>2026-04-25T10:56:02Z</time></trkpt><trkpt lat="45.9966808720032" lon="9.151686046067761"><ele>1409.6</ele><time>2026-04-25T10:56:03Z</time></trkpt><trkpt lat="45.99672999671831" lon="9.151798435804567"><ele>1409.8</ele><time>2026-04-25T10:56:04Z</time></trkpt><trkpt lat="45.99679431016217" lon="9.151903347011498"><ele>1410.0</ele><time>2026-04-25T10:56:05Z</time></trkpt><trkpt lat="45.99686804941035" lon="9.151995164045877"><ele>1410.0</ele><time>2026-04-25T10:56:06Z</time></trkpt><trkpt lat="45.99691363056974" lon="9.152093815661276"><ele>1410.0</ele><time>2026-04-25T10:56:07Z</time></trkpt><trkpt lat="45.99697230103901" lon="9.152211055946818"><ele>1410.0</ele><time>2026-04-25T10:56:08Z</time></trkpt><trkpt lat="45.997028720846565" lon="9.152325324917195"><ele>1410.0</ele><time>2026-04-25T10:56:09Z</time></trkpt><trkpt lat="45.99708639098956" lon="9.152432484062702"><ele>1410.0</ele><time>2026-04-25T10:56:10Z</time></trkpt><trkpt lat="45.99714191542462" lon="9.152545212670171"><ele>1404.8333333333333</ele><time>2026-04-25T10:56:11Z</time></trkpt><trkpt lat="45.99720037451874" lon="9.152640403732304"><ele>1399.6666666666667</ele><time>2026-04-25T10:56:12Z</time></trkpt><trkpt lat="45.997236899886076" lon="9.152742332574205"><ele>1394.5</ele><time>2026-04-25T10:56:13Z</time></trkpt><trkpt lat="45.99729443945452" lon="9.15283724984607"><ele>1389.3333333333335</ele><time>2026-04-25T10:56:14Z</time></trkpt><trkpt lat="45.99733928873652" lon="9.152909913784454"><ele>1384.1666666666667</ele><time>2026-04-25T10:56:15Z</time></trkpt><trkpt lat="45.997414946920664" lon="9.152971663804388"><ele>1379.0</ele><time>2026-04-25T10:56:17Z</time></trkpt><trkpt lat="45.997469199703794" lon="9.152919107881173"><ele>1381.2</ele><time>2026-04-25T10:56:19Z</time></trkpt><trkpt lat="45.99754636963689" lon="9.152820226999665"><ele>1383.4</ele><time>2026-04-25T10:56:21Z</time></trkpt><trkpt lat="45.99761309436645" lon="9.152676098127653"><ele>1385.6</ele><time>2026-04-25T10:56:23Z</time></trkpt><trkpt lat="45.99764493676131" lon="9.15258243133988"><ele>1387.8</ele><time>2026-04-25T10:56:24Z</time></trkpt><trkpt lat="45.99769040481979" lon="9.152458304527148"><ele>1390.0</ele><time>2026-04-25T10:56:26Z</time></trkpt><trkpt lat="45.997709389890176" lon="9.15234581749314"><ele>1390.0</ele><time>2026-04-25T10:56:27Z</time></trkpt><trkpt lat="45.99775299648881" lon="9.152253824180956"><ele>1390.0</ele><time>2026-04-25T10:56:28Z</time></trkpt><trkpt lat="45.99778781180633" lon="9.152167573084334"><ele>1390.0</ele><time>2026-04-25T10:56:29Z</time></trkpt><trkpt lat="45.997825359630774" lon="9.152092304727216"><ele>1390.0</ele><time>2026-04-25T10:56:30Z</time></trkpt><trkpt lat="45.997865418501284" lon="9.15201229003567"><ele>1390.0</ele><time>2026-04-25T10:56:31Z</time></trkpt><trkpt lat="45.997906404667624" lon="9.151937720818886"><ele>1390.0</ele><time>2026-04-25T10:56:32Z</time></trkpt><trkpt lat="45.99798255341508" lon="9.151802477723402"><ele>1390.0</ele><time>2026-04-25T10:56:34Z</time></trkpt><trkpt lat="45.99802723197829" lon="9.151693949463992"><ele>1390.0</ele><time>2026-04-25T10:56:35Z</time></trkpt><trkpt lat="45.99810728976367" lon="9.151590556462928"><ele>1390.0</ele><time>2026-04-25T10:56:37Z</time></trkpt><trkpt lat="45.9981575084634" lon="9.151524968833135"><ele>1390.0</ele><time>2026-04-25T10:56:38.001Z</time></trkpt><trkpt lat="45.99820139200955" lon="9.151443121547924"><ele>1390.0</ele><time>2026-04-25T10:56:39.001Z</time></trkpt><trkpt lat="45.99827493390124" lon="9.151314702012282"><ele>1394.857142857143</ele><time>2026-04-25T10:56:41.001Z</time></trkpt><trkpt lat="45.998321797037285" lon="9.15125247841362"><ele>1399.7142857142858</ele><time>2026-04-25T10:56:42.001Z</time></trkpt><trkpt lat="45.99838146480398" lon="9.151206441512842"><ele>1404.5714285714284</ele><time>2026-04-25T10:56:43.001Z</time></trkpt><trkpt lat="45.99843739961465" lon="9.151160893180368"><ele>1409.4285714285716</ele><time>2026-04-25T10:56:44.001Z</time></trkpt><trkpt lat="45.99849154048259" lon="9.151113861751494"><ele>1414.2857142857142</ele><time>2026-04-25T10:56:45.001Z</time></trkpt><trkpt lat="45.998549429187065" lon="9.15107177155925"><ele>1419.142857142857</ele><time>2026-04-25T10:56:46.001Z</time></trkpt><trkpt lat="45.99860584750828" lon="9.151027818462286"><ele>1424.0</ele><time>2026-04-25T10:56:47.001Z</time></trkpt><trkpt lat="45.9986841350565" lon="9.150990105919623"><ele>1425.5</ele><time>2026-04-25T10:56:48.001Z</time></trkpt><trkpt lat="45.99876833045336" lon="9.150929235212987"><ele>1427.0</ele><time>2026-04-25T10:56:50.001Z</time></trkpt><trkpt lat="45.998830794094104" lon="9.1508879034808"><ele>1428.5</ele><time>2026-04-25T10:56:52.001Z</time></trkpt><trkpt lat="45.998914626904984" lon="9.150957475189593"><ele>1430.0</ele><time>2026-04-25T10:56:55.001Z</time></trkpt><trkpt lat="45.998937163103996" lon="9.151057100716162"><ele>1431.5</ele><time>2026-04-25T10:56:57.001Z</time></trkpt><trkpt lat="45.998989574070634" lon="9.151112987037438"><ele>1433.0</ele><time>2026-04-25T10:56:58.001Z</time></trkpt><trkpt lat="45.99906542690315" lon="9.15122130099726"><ele>1433.0</ele><time>2026-04-25T10:57:00.001Z</time></trkpt><trkpt lat="45.99915614729126" lon="9.151281320062843"><ele>1433.0</ele><time>2026-04-25T10:57:02.001Z</time></trkpt><trkpt lat="45.999250346480885" lon="9.151309995764825"><ele>1433.0</ele><time>2026-04-25T10:57:04.001Z</time></trkpt><trkpt lat="45.999331107100865" lon="9.151323476742407"><ele>1433.0</ele><time>2026-04-25T10:57:06.001Z</time></trkpt><trkpt lat="45.99941362576671" lon="9.151327989806612"><ele>1433.0</ele><time>2026-04-25T10:57:08.001Z</time></trkpt><trkpt lat="45.999488620407895" lon="9.151371185568774"><ele>1433.0</ele><time>2026-04-25T10:57:10.001Z</time></trkpt><trkpt lat="45.999560493062155" lon="9.151455917088843"><ele>1435.2</ele><time>2026-04-25T10:57:12.001Z</time></trkpt><trkpt lat="45.99962233696823" lon="9.151564867335294"><ele>1437.4</ele><time>2026-04-25T10:57:14.001Z</time></trkpt><trkpt lat="45.9997046318238" lon="9.15168924110951"><ele>1439.6000000000001</ele><time>2026-04-25T10:57:16.002Z</time></trkpt><trkpt lat="45.99982873062843" lon="9.151748136042029"><ele>1441.8000000000002</ele><time>2026-04-25T10:57:18.002Z</time></trkpt><trkpt lat="45.999900570979946" lon="9.151788087532918"><ele>1444.0</ele><time>2026-04-25T10:57:19.002Z</time></trkpt><trkpt lat="46.00000806888892" lon="9.151845727003257"><ele>1444.0</ele><time>2026-04-25T10:57:21.002Z</time></trkpt><trkpt lat="46.00006328487179" lon="9.151892854144988"><ele>1444.0</ele><time>2026-04-25T10:57:22.002Z</time></trkpt><trkpt lat="46.000114247883715" lon="9.151947209125153"><ele>1444.0</ele><time>2026-04-25T10:57:23.002Z</time></trkpt><trkpt lat="46.00016283418081" lon="9.15202401048513"><ele>1444.0</ele><time>2026-04-25T10:57:24.002Z</time></trkpt><trkpt lat="46.00020048913979" lon="9.15210979510706"><ele>1444.0</ele><time>2026-04-25T10:57:25.002Z</time></trkpt><trkpt lat="46.00023522003427" lon="9.1521986793872"><ele>1444.0</ele><time>2026-04-25T10:57:26.002Z</time></trkpt><trkpt lat="46.000276703364165" lon="9.152278420877119"><ele>1444.0</ele><time>2026-04-25T10:57:27.002Z</time></trkpt><trkpt lat="46.00032965071685" lon="9.152352697962309"><ele>1438.5</ele><time>2026-04-25T10:57:28.002Z</time></trkpt><trkpt lat="46.000388688133164" lon="9.152410259081618"><ele>1433.0</ele><time>2026-04-25T10:57:29.002Z</time></trkpt><trkpt lat="46.00044560951518" lon="9.152472662418955"><ele>1427.5</ele><time>2026-04-25T10:57:30.002Z</time></trkpt><trkpt lat="46.0005022830204" lon="9.152528385803217"><ele>1422.0</ele><time>2026-04-25T10:57:31.002Z</time></trkpt><trkpt lat="46.00056554704439" lon="9.152584715095003"><ele>1416.5</ele><time>2026-04-25T10:57:32.002Z</time></trkpt><trkpt lat="46.00066630972485" lon="9.152667177293576"><ele>1411.0</ele><time>2026-04-25T10:57:34.002Z</time></trkpt><trkpt lat="46.00072299536994" lon="9.152712410142948"><ele>1411.0</ele><time>2026-04-25T10:57:35.002Z</time></trkpt><trkpt lat="46.000827787512954" lon="9.15276992421805"><ele>1411.0</ele><time>2026-04-25T10:57:37.002Z</time></trkpt><trkpt lat="46.00088865234201" lon="9.152739442900723"><ele>1411.0</ele><time>2026-04-25T10:57:38.002Z</time></trkpt><trkpt lat="46.000949027350714" lon="9.152712661926497"><ele>1411.0</ele><time>2026-04-25T10:57:39.002Z</time></trkpt><trkpt lat="46.00106407337966" lon="9.152636708311462"><ele>1411.0</ele><time>2026-04-25T10:57:41.002Z</time></trkpt><trkpt lat="46.001173705957264" lon="9.152549128603146"><ele>1418.0</ele><time>2026-04-25T10:57:43.002Z</time></trkpt><trkpt lat="46.001286656118666" lon="9.152480815271193"><ele>1425.0</ele><time>2026-04-25T10:57:45.002Z</time></trkpt><trkpt lat="46.0013456604222" lon="9.152423880017144"><ele>1432.0</ele><time>2026-04-25T10:57:46.002Z</time></trkpt><trkpt lat="46.00144198091811" lon="9.152311663670808"><ele>1439.0</ele><time>2026-04-25T10:57:48.002Z</time></trkpt><trkpt lat="46.001483263825676" lon="9.152238553878494"><ele>1446.0</ele><time>2026-04-25T10:57:49.002Z</time></trkpt><trkpt lat="46.00153646078699" lon="9.152172570334109"><ele>1450.3333333333333</ele><time>2026-04-25T10:57:51.002Z</time></trkpt><trkpt lat="46.00160563428659" lon="9.152111736715417"><ele>1454.6666666666667</ele><time>2026-04-25T10:57:52.002Z</time></trkpt><trkpt lat="46.00166860294225" lon="9.152027593652807"><ele>1459.0</ele><time>2026-04-25T10:57:54.003Z</time></trkpt><trkpt lat="46.00176923050299" lon="9.151940051917316"><ele>1463.3333333333335</ele><time>2026-04-25T10:57:56.003Z</time></trkpt><trkpt lat="46.00183256049595" lon="9.15189591920866"><ele>1467.6666666666667</ele><time>2026-04-25T10:57:57.003Z</time></trkpt><trkpt lat="46.00189169047456" lon="9.151855515005826"><ele>1472.0</ele><time>2026-04-25T10:57:58.003Z</time></trkpt><trkpt lat="46.001966481991495" lon="9.151855833792002"><ele>1472.0</ele><time>2026-04-25T10:57:59.003Z</time></trkpt><trkpt lat="46.0020422393815" lon="9.151854746009642"><ele>1472.0</ele><time>2026-04-25T10:58:00.003Z</time></trkpt><trkpt lat="46.00211198076654" lon="9.15179960146999"><ele>1472.0</ele><time>2026-04-25T10:58:01.003Z</time></trkpt><trkpt lat="46.00224060450972" lon="9.151739146692764"><ele>1472.0</ele><time>2026-04-25T10:58:03.003Z</time></trkpt><trkpt lat="46.00233705873325" lon="9.151693811902229"><ele>1472.0</ele><time>2026-04-25T10:58:04Z</time></trkpt><trkpt lat="46.00242108615413" lon="9.1516550495341"><ele>1472.0</ele><time>2026-04-25T10:58:05Z</time></trkpt><trkpt lat="46.00249171141758" lon="9.151604998404894"><ele>1472.0</ele><time>2026-04-25T10:58:06Z</time></trkpt><trkpt lat="46.00258440715443" lon="9.151568114196532"><ele>1472.0</ele><time>2026-04-25T10:58:07Z</time></trkpt><trkpt lat="46.002666965092125" lon="9.151532699793512"><ele>1472.0</ele><time>2026-04-25T10:58:08Z</time></trkpt><trkpt lat="46.00274683670534" lon="9.151520636480976"><ele>1472.0</ele><time>2026-04-25T10:58:09Z</time></trkpt><trkpt lat="46.00283019934108" lon="9.151499681640344"><ele>1472.0</ele><time>2026-04-25T10:58:10Z</time></trkpt><trkpt lat="46.002907910695534" lon="9.15147384690583"><ele>1472.1666666666667</ele><time>2026-04-25T10:58:11Z</time></trkpt><trkpt lat="46.00298835751838" lon="9.15147902438988"><ele>1472.3333333333335</ele><time>2026-04-25T10:58:12Z</time></trkpt><trkpt lat="46.00306305108525" lon="9.15149231642845"><ele>1472.5</ele><time>2026-04-25T10:58:13Z</time></trkpt><trkpt lat="46.003135837333396" lon="9.151557156876821"><ele>1472.6666666666667</ele><time>2026-04-25T10:58:14Z</time></trkpt><trkpt lat="46.00321049217799" lon="9.151615454442489"><ele>1472.8333333333333</ele><time>2026-04-25T10:58:15Z</time></trkpt><trkpt lat="46.003299294465144" lon="9.151658115508987"><ele>1473.0</ele><time>2026-04-25T10:58:16Z</time></trkpt><trkpt lat="46.00339492005081" lon="9.151725925227616"><ele>1473.0</ele><time>2026-04-25T10:58:18Z</time></trkpt><trkpt lat="46.00348329630312" lon="9.151783839271978"><ele>1473.0</ele><time>2026-04-25T10:58:20Z</time></trkpt><trkpt lat="46.0035682491657" lon="9.15186187049736"><ele>1473.0</ele><time>2026-04-25T10:58:22Z</time></trkpt><trkpt lat="46.00366037796625" lon="9.15197134742896"><ele>1473.0</ele><time>2026-04-25T10:58:24Z</time></trkpt><trkpt lat="46.00370090127897" lon="9.152043602888169"><ele>1473.0</ele><time>2026-04-25T10:58:25Z</time></trkpt><trkpt lat="46.003738302117306" lon="9.152120409974703"><ele>1473.0</ele><time>2026-04-25T10:58:26Z</time></trkpt><trkpt lat="46.00377931060739" lon="9.152207868567286"><ele>1472.9999999999998</ele><time>2026-04-25T10:58:27Z</time></trkpt><trkpt lat="46.0038212264662" lon="9.152293776503067"><ele>1473.0</ele><time>2026-04-25T10:58:28Z</time></trkpt><trkpt lat="46.003865189439054" lon="9.152380204652728"><ele>1473.0</ele><time>2026-04-25T10:58:29Z</time></trkpt><trkpt lat="46.00391150871023" lon="9.152460465117617"><ele>1473.0</ele><time>2026-04-25T10:58:30Z</time></trkpt><trkpt lat="46.003965748368785" lon="9.15253364242984"><ele>1473.0</ele><time>2026-04-25T10:58:31Z</time></trkpt><trkpt lat="46.00402358636895" lon="9.1525961263289"><ele>1472.9999999999998</ele><time>2026-04-25T10:58:32Z</time></trkpt><trkpt lat="46.00409051773759" lon="9.152641914361064"><ele>1473.0</ele><time>2026-04-25T10:58:33Z</time></trkpt><trkpt lat="46.00415581888084" lon="9.152692331877432"><ele>1475.5</ele><time>2026-04-25T10:58:34Z</time></trkpt><trkpt lat="46.00423033612992" lon="9.152733671703267"><ele>1478.0</ele><time>2026-04-25T10:58:35Z</time></trkpt><trkpt lat="46.00429946424344" lon="9.152771616527145"><ele>1480.5</ele><time>2026-04-25T10:58:36Z</time></trkpt><trkpt lat="46.00437372937959" lon="9.152805600825282"><ele>1483.0</ele><time>2026-04-25T10:58:37Z</time></trkpt><trkpt lat="46.00443454476944" lon="9.152838222096118"><ele>1485.5</ele><time>2026-04-25T10:58:38Z</time></trkpt><trkpt lat="46.004552455132234" lon="9.152886117245284"><ele>1488.0</ele><time>2026-04-25T10:58:40Z</time></trkpt><trkpt lat="46.00461460006284" lon="9.152908960904792"><ele>1488.0</ele><time>2026-04-25T10:58:41Z</time></trkpt><trkpt lat="46.00473963337573" lon="9.152949357429844"><ele>1488.0</ele><time>2026-04-25T10:58:43.001Z</time></trkpt><trkpt lat="46.00480393630476" lon="9.15297791121133"><ele>1488.0</ele><time>2026-04-25T10:58:44.001Z</time></trkpt><trkpt lat="46.00486722661959" lon="9.153012735295182"><ele>1488.0</ele><time>2026-04-25T10:58:45.001Z</time></trkpt><trkpt lat="46.004932713927644" lon="9.153057186934937"><ele>1488.0</ele><time>2026-04-25T10:58:46.001Z</time></trkpt><trkpt lat="46.005001650689344" lon="9.1530946896868"><ele>1488.0</ele><time>2026-04-25T10:58:47.001Z</time></trkpt><trkpt lat="46.00505873896967" lon="9.153133157757008"><ele>1488.1666666666667</ele><time>2026-04-25T10:58:48.001Z</time></trkpt><trkpt lat="46.00515615308957" lon="9.153195309026446"><ele>1488.3333333333333</ele><time>2026-04-25T10:58:50.001Z</time></trkpt><trkpt lat="46.005221478588226" lon="9.153223209201474"><ele>1488.5</ele><time>2026-04-25T10:58:52.001Z</time></trkpt><trkpt lat="46.00531548072335" lon="9.153234225411275"><ele>1488.6666666666665</ele><time>2026-04-25T10:58:56.001Z</time></trkpt><trkpt lat="46.00538394431387" lon="9.153308921153958"><ele>1488.8333333333333</ele><time>2026-04-25T10:58:58.001Z</time></trkpt><trkpt lat="46.005450084258264" lon="9.153401943440521"><ele>1489.0</ele><time>2026-04-25T10:59:00.001Z</time></trkpt><trkpt lat="46.00552496949163" lon="9.153558618704011"><ele>1488.1666666666665</ele><time>2026-04-25T10:59:02.001Z</time></trkpt><trkpt lat="46.00556038776281" lon="9.15364016882943"><ele>1487.3333333333333</ele><time>2026-04-25T10:59:03.001Z</time></trkpt><trkpt lat="46.005597164978276" lon="9.153745168620718"><ele>1486.5</ele><time>2026-04-25T10:59:04.001Z</time></trkpt><trkpt lat="46.005631277421" lon="9.153856863064416"><ele>1485.6666666666667</ele><time>2026-04-25T10:59:05.001Z</time></trkpt><trkpt lat="46.005668563942294" lon="9.15397984869"><ele>1484.8333333333335</ele><time>2026-04-25T10:59:06.001Z</time></trkpt><trkpt lat="46.00571034570237" lon="9.154120781112624"><ele>1484.0</ele><time>2026-04-25T10:59:07.001Z</time></trkpt><trkpt lat="46.0057284686191" lon="9.154271314605614"><ele>1478.8000000000002</ele><time>2026-04-25T10:59:08.001Z</time></trkpt><trkpt lat="46.00576590932" lon="9.154402480495968"><ele>1473.6000000000001</ele><time>2026-04-25T10:59:09.001Z</time></trkpt><trkpt lat="46.005783235298956" lon="9.154551487516562"><ele>1468.4</ele><time>2026-04-25T10:59:10.001Z</time></trkpt><trkpt lat="46.00577989899524" lon="9.154704643069675"><ele>1463.2</ele><time>2026-04-25T10:59:11.001Z</time></trkpt><trkpt lat="46.00578125996039" lon="9.154847325895258"><ele>1458.0</ele><time>2026-04-25T10:59:12.001Z</time></trkpt><trkpt lat="46.0057726303097" lon="9.15499029423849"><ele>1456.4</ele><time>2026-04-25T10:59:13.001Z</time></trkpt><trkpt lat="46.005779537544846" lon="9.155129876163722"><ele>1454.8000000000002</ele><time>2026-04-25T10:59:14.001Z</time></trkpt><trkpt lat="46.005785168750265" lon="9.15527170787841"><ele>1453.2</ele><time>2026-04-25T10:59:15.001Z</time></trkpt><trkpt lat="46.005781392594415" lon="9.155414376532962"><ele>1451.6</ele><time>2026-04-25T10:59:16.001Z</time></trkpt><trkpt lat="46.005789887471096" lon="9.155544078690841"><ele>1450.0</ele><time>2026-04-25T10:59:17.001Z</time></trkpt><trkpt lat="46.005801506009135" lon="9.155675329317297"><ele>1448.8333333333333</ele><time>2026-04-25T10:59:18.002Z</time></trkpt><trkpt lat="46.00581363257782" lon="9.155787802599283"><ele>1447.6666666666665</ele><time>2026-04-25T10:59:19.002Z</time></trkpt><trkpt lat="46.005828137017566" lon="9.155880965952818"><ele>1446.5</ele><time>2026-04-25T10:59:20.002Z</time></trkpt><trkpt lat="46.00586891048914" lon="9.156059542716996"><ele>1445.3333333333333</ele><time>2026-04-25T10:59:22.002Z</time></trkpt><trkpt lat="46.00590371522905" lon="9.156138530733697"><ele>1444.1666666666667</ele><time>2026-04-25T10:59:23.002Z</time></trkpt><trkpt lat="46.005927883043974" lon="9.156225603038353"><ele>1443.0</ele><time>2026-04-25T10:59:24.002Z</time></trkpt><trkpt lat="46.005981572135575" lon="9.156364254474868"><ele>1453.3333333333333</ele><time>2026-04-25T10:59:26.002Z</time></trkpt><trkpt lat="46.00606601945" lon="9.156450393564032"><ele>1463.6666666666667</ele><time>2026-04-25T10:59:28.002Z</time></trkpt><trkpt lat="46.006131603467736" lon="9.156474706092757"><ele>1474.0</ele><time>2026-04-25T10:59:29.002Z</time></trkpt><trkpt lat="46.006203446555254" lon="9.156488799464746"><ele>1484.3333333333335</ele><time>2026-04-25T10:59:30.002Z</time></trkpt><trkpt lat="46.00627798086804" lon="9.156500294556265"><ele>1494.6666666666667</ele><time>2026-04-25T10:59:31.002Z</time></trkpt><trkpt lat="46.00635525719839" lon="9.156496714499884"><ele>1505.0</ele><time>2026-04-25T10:59:32.002Z</time></trkpt><trkpt lat="46.006433416833204" lon="9.15648569603984"><ele>1505.0</ele><time>2026-04-25T10:59:33.002Z</time></trkpt><trkpt lat="46.006525915761486" lon="9.156484860583403"><ele>1505.0</ele><time>2026-04-25T10:59:34.002Z</time></trkpt><trkpt lat="46.00662059254523" lon="9.15647072900794"><ele>1505.0</ele><time>2026-04-25T10:59:35.002Z</time></trkpt><trkpt lat="46.006695639574154" lon="9.15645694999687"><ele>1505.0</ele><time>2026-04-25T10:59:36.002Z</time></trkpt><trkpt lat="46.00676631171406" lon="9.156455553955812"><ele>1505.0</ele><time>2026-04-25T10:59:37.002Z</time></trkpt><trkpt lat="46.006882780032434" lon="9.15646769649617"><ele>1505.25</ele><time>2026-04-25T10:59:39.002Z</time></trkpt><trkpt lat="46.006987718990594" lon="9.156480441669261"><ele>1505.5</ele><time>2026-04-25T10:59:41.002Z</time></trkpt><trkpt lat="46.00710022078809" lon="9.156514009111177"><ele>1505.75</ele><time>2026-04-25T10:59:43.002Z</time></trkpt><trkpt lat="46.00719123287439" lon="9.156585543074291"><ele>1506.0</ele><time>2026-04-25T10:59:45.002Z</time></trkpt><trkpt lat="46.007300493141585" lon="9.156688210543633"><ele>1506.0</ele><time>2026-04-25T10:59:47.002Z</time></trkpt><trkpt lat="46.007407703117025" lon="9.156786292993747"><ele>1506.0</ele><time>2026-04-25T10:59:49.002Z</time></trkpt><trkpt lat="46.007461274250076" lon="9.156838626635432"><ele>1506.0</ele><time>2026-04-25T10:59:50.002Z</time></trkpt><trkpt lat="46.00754437767112" lon="9.156952078938545"><ele>1506.0</ele><time>2026-04-25T10:59:52.002Z</time></trkpt><trkpt lat="46.00763118259986" lon="9.157070381281482"><ele>1506.0</ele><time>2026-04-25T10:59:54.002Z</time></trkpt><trkpt lat="46.00769419469901" lon="9.15712164237416"><ele>1504.7142857142858</ele><time>2026-04-25T10:59:55.003Z</time></trkpt><trkpt lat="46.007759563975846" lon="9.157177404611415"><ele>1503.4285714285716</ele><time>2026-04-25T10:59:56.003Z</time></trkpt><trkpt lat="46.00782785898519" lon="9.157231219145523"><ele>1502.142857142857</ele><time>2026-04-25T10:59:57.003Z</time></trkpt><trkpt lat="46.00788963864959" lon="9.157286295940951"><ele>1500.857142857143</ele><time>2026-04-25T10:59:58.003Z</time></trkpt><trkpt lat="46.007940097867895" lon="9.15734741548865"><ele>1499.5714285714284</ele><time>2026-04-25T10:59:59.003Z</time></trkpt><trkpt lat="46.0079987138962" lon="9.157400027511537"><ele>1498.2857142857142</ele><time>2026-04-25T11:00:00.003Z</time></trkpt><trkpt lat="46.00805971815503" lon="9.157471411116278"><ele>1497.0</ele><time>2026-04-25T11:00:01.003Z</time></trkpt><trkpt lat="46.00811173778963" lon="9.157545986935324"><ele>1497.0</ele><time>2026-04-25T11:00:02.003Z</time></trkpt><trkpt lat="46.00816062977369" lon="9.157622179811346"><ele>1497.0</ele><time>2026-04-25T11:00:03.003Z</time></trkpt><trkpt lat="46.00821519077477" lon="9.157695615856435"><ele>1497.0</ele><time>2026-04-25T11:00:04.003Z</time></trkpt><trkpt lat="46.008260634198706" lon="9.157774076172215"><ele>1497.0</ele><time>2026-04-25T11:00:05.003Z</time></trkpt><trkpt lat="46.008304779046114" lon="9.157845945074936"><ele>1497.0</ele><time>2026-04-25T11:00:06.003Z</time></trkpt><trkpt lat="46.008354567482925" lon="9.157916207267746"><ele>1497.0</ele><time>2026-04-25T11:00:07.003Z</time></trkpt><trkpt lat="46.00840608769381" lon="9.157979750381303"><ele>1497.0</ele><time>2026-04-25T11:00:08.003Z</time></trkpt><trkpt lat="46.008447699992786" lon="9.158049011113699"><ele>1500.6666666666667</ele><time>2026-04-25T11:00:09.003Z</time></trkpt><trkpt lat="46.00850888629943" lon="9.158111251739053"><ele>1504.3333333333333</ele><time>2026-04-25T11:00:10Z</time></trkpt><trkpt lat="46.008566034061516" lon="9.158174162527267"><ele>1508.0</ele><time>2026-04-25T11:00:11Z</time></trkpt><trkpt lat="46.00862244400944" lon="9.15824394007828"><ele>1511.6666666666665</ele><time>2026-04-25T11:00:12Z</time></trkpt><trkpt lat="46.00868260806227" lon="9.158318978467904"><ele>1515.3333333333333</ele><time>2026-04-25T11:00:13Z</time></trkpt><trkpt lat="46.00873960495993" lon="9.158400377662895"><ele>1519.0</ele><time>2026-04-25T11:00:14Z</time></trkpt><trkpt lat="46.00878697326947" lon="9.158492401295916"><ele>1519.0</ele><time>2026-04-25T11:00:15Z</time></trkpt><trkpt lat="46.00882728308366" lon="9.158605397724664"><ele>1519.0</ele><time>2026-04-25T11:00:16Z</time></trkpt><trkpt lat="46.008862797176285" lon="9.158715645040324"><ele>1519.0</ele><time>2026-04-25T11:00:17Z</time></trkpt><trkpt lat="46.008897262062476" lon="9.158825406122505"><ele>1519.0</ele><time>2026-04-25T11:00:18Z</time></trkpt><trkpt lat="46.00893462594505" lon="9.158941135911768"><ele>1519.0</ele><time>2026-04-25T11:00:19Z</time></trkpt><trkpt lat="46.00896260064879" lon="9.159040956694396"><ele>1519.0</ele><time>2026-04-25T11:00:20Z</time></trkpt><trkpt lat="46.00899664247487" lon="9.159153662730704"><ele>1515.857142857143</ele><time>2026-04-25T11:00:21Z</time></trkpt><trkpt lat="46.00903493820063" lon="9.159254558960745"><ele>1512.7142857142858</ele><time>2026-04-25T11:00:22Z</time></trkpt><trkpt lat="46.00906738607591" lon="9.159340411625488"><ele>1509.5714285714284</ele><time>2026-04-25T11:00:23Z</time></trkpt><trkpt lat="46.00910277350863" lon="9.159438896025778"><ele>1506.4285714285716</ele><time>2026-04-25T11:00:24Z</time></trkpt><trkpt lat="46.00911653396458" lon="9.159534673001254"><ele>1503.2857142857142</ele><time>2026-04-25T11:00:25Z</time></trkpt><trkpt lat="46.00911726337528" lon="9.159633636408437"><ele>1500.142857142857</ele><time>2026-04-25T11:00:26Z</time></trkpt><trkpt lat="46.009101509725866" lon="9.15974075292001"><ele>1497.0</ele><time>2026-04-25T11:00:27Z</time></trkpt><trkpt lat="46.00909359438624" lon="9.15984678884658"><ele>1497.142857142857</ele><time>2026-04-25T11:00:28Z</time></trkpt><trkpt lat="46.009093996915404" lon="9.15995505623366"><ele>1497.2857142857142</ele><time>2026-04-25T11:00:29Z</time></trkpt><trkpt lat="46.00907214960262" lon="9.160056991787744"><ele>1497.4285714285716</ele><time>2026-04-25T11:00:30Z</time></trkpt><trkpt lat="46.009057185932036" lon="9.160153320909092"><ele>1497.5714285714284</ele><time>2026-04-25T11:00:31Z</time></trkpt><trkpt lat="46.009042465930314" lon="9.160259085723158"><ele>1497.7142857142858</ele><time>2026-04-25T11:00:32Z</time></trkpt><trkpt lat="46.00904409270711" lon="9.16037271977672"><ele>1497.857142857143</ele><time>2026-04-25T11:00:33Z</time></trkpt><trkpt lat="46.009033181168604" lon="9.160481870449688"><ele>1498.0</ele><time>2026-04-25T11:00:34Z</time></trkpt><trkpt lat="46.009026504934354" lon="9.160585886938172"><ele>1498.0</ele><time>2026-04-25T11:00:35Z</time></trkpt><trkpt lat="46.009028817989304" lon="9.160686495140103"><ele>1498.0</ele><time>2026-04-25T11:00:36Z</time></trkpt><trkpt lat="46.00903634206573" lon="9.160783791114236"><ele>1498.0</ele><time>2026-04-25T11:00:37Z</time></trkpt><trkpt lat="46.00907688648866" lon="9.160951129580969"><ele>1498.0</ele><time>2026-04-25T11:00:39Z</time></trkpt><trkpt lat="46.00914763456305" lon="9.16106072294356"><ele>1498.0</ele><time>2026-04-25T11:00:41Z</time></trkpt><trkpt lat="46.009228892190265" lon="9.161131197679289"><ele>1507.1666666666665</ele><time>2026-04-25T11:00:43Z</time></trkpt><trkpt lat="46.0093334432896" lon="9.161225559561766"><ele>1516.3333333333333</ele><time>2026-04-25T11:00:45Z</time></trkpt><trkpt lat="46.009391816875365" lon="9.161272754790222"><ele>1525.5</ele><time>2026-04-25T11:00:46.001Z</time></trkpt><trkpt lat="46.00945403246693" lon="9.161317603386397"><ele>1534.6666666666665</ele><time>2026-04-25T11:00:47.001Z</time></trkpt><trkpt lat="46.00952534960543" lon="9.161362903005669"><ele>1543.8333333333333</ele><time>2026-04-25T11:00:48.001Z</time></trkpt><trkpt lat="46.00959622360619" lon="9.161410732528266"><ele>1553.0</ele><time>2026-04-25T11:00:49.001Z</time></trkpt><trkpt lat="46.009666778204014" lon="9.16146875939199"><ele>1552.9999999999998</ele><time>2026-04-25T11:00:50.001Z</time></trkpt><trkpt lat="46.009734727960115" lon="9.161526027068234"><ele>1553.0</ele><time>2026-04-25T11:00:51.001Z</time></trkpt><trkpt lat="46.00980494210821" lon="9.161585503852654"><ele>1553.0</ele><time>2026-04-25T11:00:52.001Z</time></trkpt><trkpt lat="46.00987516966071" lon="9.161641010432842"><ele>1553.0</ele><time>2026-04-25T11:00:53.001Z</time></trkpt><trkpt lat="46.0099423077409" lon="9.161695060523867"><ele>1552.9999999999998</ele><time>2026-04-25T11:00:54.001Z</time></trkpt><trkpt lat="46.0100169124088" lon="9.161799530367437"><ele>1553.0</ele><time>2026-04-25T11:00:56.001Z</time></trkpt><trkpt lat="46.010044215831556" lon="9.161956076781477"><ele>1554.3333333333333</ele><time>2026-04-25T11:00:58.001Z</time></trkpt><trkpt lat="46.01008197299572" lon="9.162129553125464"><ele>1555.6666666666665</ele><time>2026-04-25T11:01:00.001Z</time></trkpt><trkpt lat="46.01010149901908" lon="9.16221877077989"><ele>1557.0</ele><time>2026-04-25T11:01:01.001Z</time></trkpt><trkpt lat="46.01012879819277" lon="9.162320378335329"><ele>1558.3333333333335</ele><time>2026-04-25T11:01:02.001Z</time></trkpt><trkpt lat="46.01015360558858" lon="9.16241816309968"><ele>1559.6666666666667</ele><time>2026-04-25T11:01:03.001Z</time></trkpt><trkpt lat="46.010170789533824" lon="9.162511977694255"><ele>1561.0</ele><time>2026-04-25T11:01:04.001Z</time></trkpt><trkpt lat="46.01018901402606" lon="9.162606223559223"><ele>1561.0</ele><time>2026-04-25T11:01:05.001Z</time></trkpt><trkpt lat="46.01020680021818" lon="9.162700514827538"><ele>1561.0</ele><time>2026-04-25T11:01:06.001Z</time></trkpt><trkpt lat="46.01022316122544" lon="9.162795949253338"><ele>1561.0</ele><time>2026-04-25T11:01:07.001Z</time></trkpt><trkpt lat="46.01023165726789" lon="9.162900538555839"><ele>1561.0</ele><time>2026-04-25T11:01:08.001Z</time></trkpt><trkpt lat="46.01023998087523" lon="9.163002864686272"><ele>1561.0</ele><time>2026-04-25T11:01:09.001Z</time></trkpt><trkpt lat="46.01024506018384" lon="9.163111678345711"><ele>1561.0</ele><time>2026-04-25T11:01:10.001Z</time></trkpt><trkpt lat="46.01025443026684" lon="9.163210958115624"><ele>1561.0</ele><time>2026-04-25T11:01:11.001Z</time></trkpt><trkpt lat="46.010242903326386" lon="9.163325470691857"><ele>1561.0000000000002</ele><time>2026-04-25T11:01:12.001Z</time></trkpt><trkpt lat="46.01024674641388" lon="9.163424485063715"><ele>1561.0</ele><time>2026-04-25T11:01:13.001Z</time></trkpt><trkpt lat="46.010227833922244" lon="9.163531996658088"><ele>1561.0</ele><time>2026-04-25T11:01:14.001Z</time></trkpt><trkpt lat="46.01018642929528" lon="9.163634132090742"><ele>1561.0</ele><time>2026-04-25T11:01:15.001Z</time></trkpt><trkpt lat="46.010147246928305" lon="9.16373965650214"><ele>1561.0000000000002</ele><time>2026-04-25T11:01:16.001Z</time></trkpt><trkpt lat="46.01011236763521" lon="9.163858338409629"><ele>1561.0</ele><time>2026-04-25T11:01:17.001Z</time></trkpt><trkpt lat="46.01006463877369" lon="9.16396299485348"><ele>1563.5000000000002</ele><time>2026-04-25T11:01:18.001Z</time></trkpt><trkpt lat="46.0100202953083" lon="9.164054620161743"><ele>1566.0</ele><time>2026-04-25T11:01:19.001Z</time></trkpt><trkpt lat="46.00997694605509" lon="9.164159361313187"><ele>1568.5</ele><time>2026-04-25T11:01:20.002Z</time></trkpt><trkpt lat="46.00994010671328" lon="9.16425664843148"><ele>1571.0</ele><time>2026-04-25T11:01:21.002Z</time></trkpt><trkpt lat="46.00989530447454" lon="9.16435404040282"><ele>1573.5000000000002</ele><time>2026-04-25T11:01:22.002Z</time></trkpt><trkpt lat="46.009851427185595" lon="9.164444662682204"><ele>1576.0</ele><time>2026-04-25T11:01:23.002Z</time></trkpt><trkpt lat="46.00981681559641" lon="9.164532314521514"><ele>1570.3333333333335</ele><time>2026-04-25T11:01:24.002Z</time></trkpt><trkpt lat="46.009772932419814" lon="9.164621216934313"><ele>1564.6666666666667</ele><time>2026-04-25T11:01:25.002Z</time></trkpt><trkpt lat="46.00973748443935" lon="9.164703794960603"><ele>1559.0</ele><time>2026-04-25T11:01:26.002Z</time></trkpt><trkpt lat="46.00968378894458" lon="9.164790555263654"><ele>1553.3333333333335</ele><time>2026-04-25T11:01:27.002Z</time></trkpt><trkpt lat="46.00964553672096" lon="9.164889809489846"><ele>1547.6666666666667</ele><time>2026-04-25T11:01:28.002Z</time></trkpt><trkpt lat="46.00960925732353" lon="9.164978355958045"><ele>1542.0</ele><time>2026-04-25T11:01:29.002Z</time></trkpt><trkpt lat="46.00957290393605" lon="9.16508076215992"><ele>1542.0</ele><time>2026-04-25T11:01:30.002Z</time></trkpt><trkpt lat="46.00954267297473" lon="9.16517684757141"><ele>1542.0</ele><time>2026-04-25T11:01:31.002Z</time></trkpt><trkpt lat="46.0095110717151" lon="9.165280971895996"><ele>1542.0</ele><time>2026-04-25T11:01:32.002Z</time></trkpt><trkpt lat="46.00948145737573" lon="9.165375445924653"><ele>1542.0</ele><time>2026-04-25T11:01:33.002Z</time></trkpt><trkpt lat="46.00943062182789" lon="9.165530187499757"><ele>1542.0</ele><time>2026-04-25T11:01:35.002Z</time></trkpt><trkpt lat="46.00938376406804" lon="9.16570070172796"><ele>1546.0</ele><time>2026-04-25T11:01:37.002Z</time></trkpt><trkpt lat="46.00935530905982" lon="9.165792256248732"><ele>1550.0</ele><time>2026-04-25T11:01:38.002Z</time></trkpt><trkpt lat="46.009327467598375" lon="9.165883024815981"><ele>1554.0</ele><time>2026-04-25T11:01:39.002Z</time></trkpt><trkpt lat="46.00927478179127" lon="9.166033597917956"><ele>1558.0</ele><time>2026-04-25T11:01:41.002Z</time></trkpt><trkpt lat="46.00921393320241" lon="9.166171077497687"><ele>1562.0</ele><time>2026-04-25T11:01:43.002Z</time></trkpt><trkpt lat="46.009154422568216" lon="9.166315633467056"><ele>1558.3333333333333</ele><time>2026-04-25T11:01:45.002Z</time></trkpt><trkpt lat="46.00909369220922" lon="9.166442277321453"><ele>1554.6666666666665</ele><time>2026-04-25T11:01:47.002Z</time></trkpt><trkpt lat="46.00904183469726" lon="9.166556878609288"><ele>1551.0</ele><time>2026-04-25T11:01:49.002Z</time></trkpt><trkpt lat="46.00899121142159" lon="9.166646705245913"><ele>1547.3333333333335</ele><time>2026-04-25T11:01:51.002Z</time></trkpt><trkpt lat="46.00894707498335" lon="9.166720034376837"><ele>1543.6666666666667</ele><time>2026-04-25T11:01:53.002Z</time></trkpt><trkpt lat="46.00888401458784" lon="9.166811592820347"><ele>1540.0</ele><time>2026-04-25T11:01:56.003Z</time></trkpt><trkpt lat="46.008813375529144" lon="9.166905828621482"><ele>1540.0</ele><time>2026-04-25T11:01:59.003Z</time></trkpt><trkpt lat="46.00876523003036" lon="9.166982551403295"><ele>1540.0</ele><time>2026-04-25T11:02:02.003Z</time></trkpt><trkpt lat="46.00872415504611" lon="9.167068214610575"><ele>1540.0</ele><time>2026-04-25T11:02:05.003Z</time></trkpt><trkpt lat="46.008682542938644" lon="9.167139177407389"><ele>1540.0</ele><time>2026-04-25T11:02:09.003Z</time></trkpt><trkpt lat="46.00865619675011" lon="9.167232512172594"><ele>1540.0</ele><time>2026-04-25T11:02:37Z</time></trkpt><trkpt lat="46.00872107428196" lon="9.167150929427603"><ele>1540.0</ele><time>2026-04-25T11:06:36.002Z</time></trkpt><trkpt lat="46.00875450754078" lon="9.167060963635652"><ele>1540.0</ele><time>2026-04-25T11:06:41.002Z</time></trkpt><trkpt lat="46.00880765385379" lon="9.166967844523187"><ele>1540.0000000000002</ele><time>2026-04-25T11:06:44.002Z</time></trkpt><trkpt lat="46.008856030622326" lon="9.16689701489051"><ele>1540.0</ele><time>2026-04-25T11:06:47.002Z</time></trkpt><trkpt lat="46.008904761258414" lon="9.166818175939225"><ele>1540.0</ele><time>2026-04-25T11:06:50.002Z</time></trkpt><trkpt lat="46.00894994537532" lon="9.166741519992561"><ele>1540.0</ele><time>2026-04-25T11:06:53.002Z</time></trkpt><trkpt lat="46.009005958627235" lon="9.166653869989453"><ele>1540.0000000000002</ele><time>2026-04-25T11:06:56.002Z</time></trkpt><trkpt lat="46.009067702130224" lon="9.166557594486314"><ele>1540.0</ele><time>2026-04-25T11:06:59.002Z</time></trkpt><trkpt lat="46.00912093982087" lon="9.16646218821888"><ele>1544.4</ele><time>2026-04-25T11:07:01.002Z</time></trkpt><trkpt lat="46.009178297754964" lon="9.166344920520698"><ele>1548.8</ele><time>2026-04-25T11:07:03.002Z</time></trkpt><trkpt lat="46.00923325688631" lon="9.16622068315623"><ele>1553.1999999999998</ele><time>2026-04-25T11:07:05.002Z</time></trkpt><trkpt lat="46.00926789445727" lon="9.16610441833415"><ele>1557.6</ele><time>2026-04-25T11:07:07.002Z</time></trkpt><trkpt lat="46.009306980884766" lon="9.165997379660975"><ele>1562.0</ele><time>2026-04-25T11:07:09.002Z</time></trkpt><trkpt lat="46.00934798039337" lon="9.16588325930239"><ele>1562.0</ele><time>2026-04-25T11:07:11.002Z</time></trkpt><trkpt lat="46.00939771746861" lon="9.165761732324965"><ele>1562.0</ele><time>2026-04-25T11:07:13.002Z</time></trkpt><trkpt lat="46.00942160747444" lon="9.165639496870162"><ele>1562.0</ele><time>2026-04-25T11:07:15.002Z</time></trkpt><trkpt lat="46.00946139936462" lon="9.165515973878529"><ele>1562.0</ele><time>2026-04-25T11:07:17.002Z</time></trkpt><trkpt lat="46.00950391221977" lon="9.165396037100642"><ele>1562.0</ele><time>2026-04-25T11:07:19.002Z</time></trkpt><trkpt lat="46.00954639719277" lon="9.165268127027712"><ele>1558.6666666666665</ele><time>2026-04-25T11:07:21.002Z</time></trkpt><trkpt lat="46.00958599866399" lon="9.165135545511369"><ele>1555.3333333333333</ele><time>2026-04-25T11:07:23.002Z</time></trkpt><trkpt lat="46.00962935261662" lon="9.165022368750758"><ele>1552.0</ele><time>2026-04-25T11:07:25.002Z</time></trkpt><trkpt lat="46.00967108449133" lon="9.164913930082033"><ele>1548.6666666666665</ele><time>2026-04-25T11:07:27.002Z</time></trkpt><trkpt lat="46.009705433453384" lon="9.164815315114618"><ele>1545.3333333333333</ele><time>2026-04-25T11:07:29.002Z</time></trkpt><trkpt lat="46.00974772645982" lon="9.164725026617425"><ele>1542.0</ele><time>2026-04-25T11:07:32.002Z</time></trkpt><trkpt lat="46.00979257042504" lon="9.164615226704251"><ele>1545.8</ele><time>2026-04-25T11:07:35.002Z</time></trkpt><trkpt lat="46.009832940036155" lon="9.164524251324433"><ele>1549.6</ele><time>2026-04-25T11:07:37.002Z</time></trkpt><trkpt lat="46.00988374073423" lon="9.164413492148563"><ele>1553.3999999999999</ele><time>2026-04-25T11:07:39.002Z</time></trkpt><trkpt lat="46.00995264703411" lon="9.164285745986723"><ele>1557.1999999999998</ele><time>2026-04-25T11:07:41.002Z</time></trkpt><trkpt lat="46.01000965007868" lon="9.164129292339238"><ele>1561.0</ele><time>2026-04-25T11:07:43.002Z</time></trkpt><trkpt lat="46.010080158095604" lon="9.163995835014676"><ele>1561.0</ele><time>2026-04-25T11:07:45.002Z</time></trkpt><trkpt lat="46.010142111550934" lon="9.163851777918033"><ele>1561.0</ele><time>2026-04-25T11:07:47.002Z</time></trkpt><trkpt lat="46.010184657928164" lon="9.16372873220242"><ele>1561.0</ele><time>2026-04-25T11:07:49.002Z</time></trkpt><trkpt lat="46.01022390260782" lon="9.163593809892541"><ele>1561.0</ele><time>2026-04-25T11:07:51.002Z</time></trkpt><trkpt lat="46.010265740269496" lon="9.163462105962115"><ele>1561.0</ele><time>2026-04-25T11:07:53.002Z</time></trkpt><trkpt lat="46.01027591792456" lon="9.163306159568517"><ele>1561.0</ele><time>2026-04-25T11:07:55.002Z</time></trkpt><trkpt lat="46.01027351084442" lon="9.163206470409206"><ele>1561.0</ele><time>2026-04-25T11:07:56.002Z</time></trkpt><trkpt lat="46.010270709525074" lon="9.163113257066358"><ele>1561.0</ele><time>2026-04-25T11:07:57.002Z</time></trkpt><trkpt lat="46.010264572745655" lon="9.163014635827093"><ele>1561.0</ele><time>2026-04-25T11:07:58.002Z</time></trkpt><trkpt lat="46.01025734954535" lon="9.162921595275542"><ele>1561.0</ele><time>2026-04-25T11:07:59.002Z</time></trkpt><trkpt lat="46.010248066358166" lon="9.162822907943626"><ele>1561.0</ele><time>2026-04-25T11:08:00.002Z</time></trkpt><trkpt lat="46.01023648751289" lon="9.16273153808566"><ele>1561.0</ele><time>2026-04-25T11:08:01.002Z</time></trkpt><trkpt lat="46.01022141658264" lon="9.16263022305096"><ele>1561.0000000000002</ele><time>2026-04-25T11:08:02.002Z</time></trkpt><trkpt lat="46.010202600736775" lon="9.16251355403134"><ele>1561.0</ele><time>2026-04-25T11:08:03.002Z</time></trkpt><trkpt lat="46.0101686029848" lon="9.162412348758846"><ele>1561.0</ele><time>2026-04-25T11:08:04.002Z</time></trkpt><trkpt lat="46.010163437358024" lon="9.162306000061937"><ele>1561.0</ele><time>2026-04-25T11:08:05.002Z</time></trkpt><trkpt lat="46.010139683126695" lon="9.16220878665855"><ele>1561.0000000000002</ele><time>2026-04-25T11:08:06.002Z</time></trkpt><trkpt lat="46.010103650233745" lon="9.162129996890135"><ele>1561.0</ele><time>2026-04-25T11:08:07.002Z</time></trkpt><trkpt lat="46.01007171328755" lon="9.16199132999447"><ele>1559.6666666666667</ele><time>2026-04-25T11:08:09.002Z</time></trkpt><trkpt lat="46.01005994662422" lon="9.161866085336714"><ele>1558.3333333333335</ele><time>2026-04-25T11:08:11.002Z</time></trkpt><trkpt lat="46.01002180328039" lon="9.161724561717818"><ele>1557.0</ele><time>2026-04-25T11:08:13.003Z</time></trkpt><trkpt lat="46.009961221860635" lon="9.161674471203767"><ele>1555.6666666666665</ele><time>2026-04-25T11:08:15.003Z</time></trkpt><trkpt lat="46.00990795784106" lon="9.161611834631701"><ele>1554.3333333333333</ele><time>2026-04-25T11:08:21.003Z</time></trkpt><trkpt lat="46.00981808893796" lon="9.161550219502681"><ele>1553.0</ele><time>2026-04-25T11:08:23.003Z</time></trkpt><trkpt lat="46.00971010539285" lon="9.161463201394705"><ele>1553.0</ele><time>2026-04-25T11:08:25.003Z</time></trkpt><trkpt lat="46.00965259516471" lon="9.161416352528297"><ele>1553.0</ele><time>2026-04-25T11:08:26.003Z</time></trkpt><trkpt lat="46.00959011738365" lon="9.161388917526267"><ele>1553.0</ele><time>2026-04-25T11:08:27.003Z</time></trkpt><trkpt lat="46.00953753235495" lon="9.161333869312475"><ele>1553.0</ele><time>2026-04-25T11:08:28.003Z</time></trkpt><trkpt lat="46.00947207763661" lon="9.1612973418923"><ele>1553.0</ele><time>2026-04-25T11:08:29.003Z</time></trkpt><trkpt lat="46.00941530105782" lon="9.161225310744335"><ele>1553.0</ele><time>2026-04-25T11:08:30.003Z</time></trkpt><trkpt lat="46.009352493107436" lon="9.161176398943864"><ele>1553.0</ele><time>2026-04-25T11:08:31.003Z</time></trkpt><trkpt lat="46.00928932564726" lon="9.16114508667645"><ele>1553.0</ele><time>2026-04-25T11:08:32.003Z</time></trkpt><trkpt lat="46.00923229163376" lon="9.16109693795523"><ele>1553.0</ele><time>2026-04-25T11:08:33.003Z</time></trkpt><trkpt lat="46.009146297029005" lon="9.161006314851944"><ele>1553.0</ele><time>2026-04-25T11:08:35Z</time></trkpt><trkpt lat="46.00908433934204" lon="9.160903465900436"><ele>1553.0</ele><time>2026-04-25T11:08:37Z</time></trkpt><trkpt lat="46.00905169735485" lon="9.160748201050701"><ele>1553.0</ele><time>2026-04-25T11:08:39Z</time></trkpt><trkpt lat="46.00904944089437" lon="9.16057670713648"><ele>1542.0</ele><time>2026-04-25T11:08:41Z</time></trkpt><trkpt lat="46.00905569255366" lon="9.160419780576934"><ele>1531.0</ele><time>2026-04-25T11:08:43Z</time></trkpt><trkpt lat="46.00906202744717" lon="9.160328110182487"><ele>1520.0</ele><time>2026-04-25T11:08:44Z</time></trkpt><trkpt lat="46.009085482936975" lon="9.160155645041346"><ele>1509.0</ele><time>2026-04-25T11:08:46Z</time></trkpt><trkpt lat="46.00910253201122" lon="9.159984761579123"><ele>1498.0</ele><time>2026-04-25T11:08:48Z</time></trkpt><trkpt lat="46.00912020971265" lon="9.159815339218044"><ele>1497.8000000000002</ele><time>2026-04-25T11:08:50Z</time></trkpt><trkpt lat="46.009142626817344" lon="9.159652020733166"><ele>1497.6</ele><time>2026-04-25T11:08:52Z</time></trkpt><trkpt lat="46.00913712801061" lon="9.15949672992895"><ele>1497.4</ele><time>2026-04-25T11:08:54Z</time></trkpt><trkpt lat="46.00910220025493" lon="9.159328671434901"><ele>1497.1999999999998</ele><time>2026-04-25T11:08:56Z</time></trkpt><trkpt lat="46.00906922680471" lon="9.159249152506924"><ele>1497.0</ele><time>2026-04-25T11:08:57Z</time></trkpt><trkpt lat="46.00903000130814" lon="9.159166484605414"><ele>1497.0</ele><time>2026-04-25T11:08:58Z</time></trkpt><trkpt lat="46.008998988195934" lon="9.15908195568357"><ele>1497.0</ele><time>2026-04-25T11:08:59Z</time></trkpt><trkpt lat="46.00896769308712" lon="9.158991870196866"><ele>1497.0</ele><time>2026-04-25T11:09:00Z</time></trkpt><trkpt lat="46.00893711289273" lon="9.158899590338422"><ele>1497.0</ele><time>2026-04-25T11:09:01Z</time></trkpt><trkpt lat="46.0089091697169" lon="9.158809990266292"><ele>1497.0</ele><time>2026-04-25T11:09:02Z</time></trkpt><trkpt lat="46.008880210327256" lon="9.158717037932458"><ele>1497.0</ele><time>2026-04-25T11:09:03Z</time></trkpt><trkpt lat="46.00884815040492" lon="9.158618805522382"><ele>1497.0</ele><time>2026-04-25T11:09:04Z</time></trkpt><trkpt lat="46.008817416761055" lon="9.158529500512046"><ele>1500.6666666666667</ele><time>2026-04-25T11:09:05Z</time></trkpt><trkpt lat="46.008787068552785" lon="9.158447218466726"><ele>1504.3333333333333</ele><time>2026-04-25T11:09:06Z</time></trkpt><trkpt lat="46.00874813881536" lon="9.158372634468178"><ele>1508.0</ele><time>2026-04-25T11:09:07Z</time></trkpt><trkpt lat="46.00870951178931" lon="9.158274398504831"><ele>1511.6666666666665</ele><time>2026-04-25T11:09:08Z</time></trkpt><trkpt lat="46.008655479264235" lon="9.15819443731901"><ele>1515.3333333333333</ele><time>2026-04-25T11:09:09Z</time></trkpt><trkpt lat="46.008566178861045" lon="9.158153378659172"><ele>1519.0</ele><time>2026-04-25T11:09:10Z</time></trkpt><trkpt lat="46.0084989445183" lon="9.15807630380364"><ele>1515.3333333333333</ele><time>2026-04-25T11:09:11Z</time></trkpt><trkpt lat="46.00844429233439" lon="9.157977158631834"><ele>1511.6666666666665</ele><time>2026-04-25T11:09:12Z</time></trkpt><trkpt lat="46.008372824194616" lon="9.157903985880917"><ele>1508.0</ele><time>2026-04-25T11:09:13Z</time></trkpt><trkpt lat="46.00832174382658" lon="9.157798804876485"><ele>1504.3333333333333</ele><time>2026-04-25T11:09:14Z</time></trkpt><trkpt lat="46.00826893889992" lon="9.157710375148845"><ele>1500.6666666666667</ele><time>2026-04-25T11:09:15Z</time></trkpt><trkpt lat="46.00820241347021" lon="9.157640847513296"><ele>1497.0</ele><time>2026-04-25T11:09:16Z</time></trkpt><trkpt lat="46.00814598067407" lon="9.157557268367837"><ele>1497.0</ele><time>2026-04-25T11:09:17Z</time></trkpt><trkpt lat="46.00808704202887" lon="9.157470126325476"><ele>1497.0</ele><time>2026-04-25T11:09:18Z</time></trkpt><trkpt lat="46.00802529648665" lon="9.157400188290207"><ele>1497.0</ele><time>2026-04-25T11:09:19Z</time></trkpt><trkpt lat="46.007962315693185" lon="9.157327622396942"><ele>1497.0</ele><time>2026-04-25T11:09:20Z</time></trkpt><trkpt lat="46.00790276249024" lon="9.157261960152853"><ele>1497.0</ele><time>2026-04-25T11:09:21.001Z</time></trkpt><trkpt lat="46.007799391647644" lon="9.157160112967771"><ele>1497.0</ele><time>2026-04-25T11:09:23.001Z</time></trkpt><trkpt lat="46.007738141218425" lon="9.157113530554511"><ele>1498.2857142857142</ele><time>2026-04-25T11:09:24.001Z</time></trkpt><trkpt lat="46.007683521482306" lon="9.15704137378551"><ele>1499.5714285714284</ele><time>2026-04-25T11:09:25.001Z</time></trkpt><trkpt lat="46.00762916732626" lon="9.156983854074083"><ele>1500.857142857143</ele><time>2026-04-25T11:09:26.001Z</time></trkpt><trkpt lat="46.00756420126633" lon="9.156941777168859"><ele>1502.142857142857</ele><time>2026-04-25T11:09:27.001Z</time></trkpt><trkpt lat="46.00751016948971" lon="9.156877814614646"><ele>1503.4285714285716</ele><time>2026-04-25T11:09:28.001Z</time></trkpt><trkpt lat="46.00745787785243" lon="9.15680682379137"><ele>1504.7142857142858</ele><time>2026-04-25T11:09:29.001Z</time></trkpt><trkpt lat="46.00740449455338" lon="9.156745646688497"><ele>1506.0</ele><time>2026-04-25T11:09:30.001Z</time></trkpt><trkpt lat="46.007344163157036" lon="9.156680409909109"><ele>1506.0</ele><time>2026-04-25T11:09:31.001Z</time></trkpt><trkpt lat="46.00728414944618" lon="9.156624127378953"><ele>1506.0</ele><time>2026-04-25T11:09:32.001Z</time></trkpt><trkpt lat="46.00723337772875" lon="9.156555404034776"><ele>1506.0</ele><time>2026-04-25T11:09:33.001Z</time></trkpt><trkpt lat="46.0071707088682" lon="9.156503841976303"><ele>1506.0</ele><time>2026-04-25T11:09:34.001Z</time></trkpt><trkpt lat="46.00710962040906" lon="9.156466958629105"><ele>1506.0</ele><time>2026-04-25T11:09:35.001Z</time></trkpt><trkpt lat="46.00704279398586" lon="9.156443802392726"><ele>1506.0</ele><time>2026-04-25T11:09:36.001Z</time></trkpt><trkpt lat="46.00697854434484" lon="9.156427646210526"><ele>1506.0</ele><time>2026-04-25T11:09:37.001Z</time></trkpt><trkpt lat="46.006912915269226" lon="9.156412435338273"><ele>1505.857142857143</ele><time>2026-04-25T11:09:38.001Z</time></trkpt><trkpt lat="46.00684786851897" lon="9.15640116865944"><ele>1505.7142857142858</ele><time>2026-04-25T11:09:39.001Z</time></trkpt><trkpt lat="46.0067729549425" lon="9.156395935882765"><ele>1505.5714285714284</ele><time>2026-04-25T11:09:40.001Z</time></trkpt><trkpt lat="46.00670276162429" lon="9.156398402391192"><ele>1505.4285714285716</ele><time>2026-04-25T11:09:41.001Z</time></trkpt><trkpt lat="46.00663926709614" lon="9.156431723938894"><ele>1505.2857142857142</ele><time>2026-04-25T11:09:42.001Z</time></trkpt><trkpt lat="46.006575626074934" lon="9.156445613217807"><ele>1505.142857142857</ele><time>2026-04-25T11:09:43.001Z</time></trkpt><trkpt lat="46.00651244895107" lon="9.15646187614683"><ele>1505.0</ele><time>2026-04-25T11:09:44.001Z</time></trkpt><trkpt lat="46.00644320910911" lon="9.156476765324069"><ele>1505.0</ele><time>2026-04-25T11:09:45.001Z</time></trkpt><trkpt lat="46.006374228778" lon="9.156458147548106"><ele>1505.0</ele><time>2026-04-25T11:09:46.001Z</time></trkpt><trkpt lat="46.006253360821894" lon="9.156453443163457"><ele>1505.0</ele><time>2026-04-25T11:09:48.001Z</time></trkpt><trkpt lat="46.006138323475675" lon="9.15643838637532"><ele>1505.0</ele><time>2026-04-25T11:09:50.001Z</time></trkpt><trkpt lat="46.0060511768684" lon="9.15641328903836"><ele>1505.0</ele><time>2026-04-25T11:09:52.001Z</time></trkpt><trkpt lat="46.00599730208423" lon="9.15633531143825"><ele>1505.0</ele><time>2026-04-25T11:09:54.001Z</time></trkpt><trkpt lat="46.005948789427244" lon="9.156190015531138"><ele>1505.0</ele><time>2026-04-25T11:09:56.001Z</time></trkpt><trkpt lat="46.00590529212455" lon="9.156022361613337"><ele>1505.0</ele><time>2026-04-25T11:09:58.001Z</time></trkpt><trkpt lat="46.00588255289959" lon="9.155926810211813"><ele>1505.0</ele><time>2026-04-25T11:10:01.001Z</time></trkpt><trkpt lat="46.00585922208866" lon="9.155824332010232"><ele>1505.0</ele><time>2026-04-25T11:10:06.001Z</time></trkpt><trkpt lat="46.00583163613565" lon="9.15568085720643"><ele>1497.142857142857</ele><time>2026-04-25T11:10:08.001Z</time></trkpt><trkpt lat="46.005823111136266" lon="9.15558255308015"><ele>1489.2857142857142</ele><time>2026-04-25T11:10:09.001Z</time></trkpt><trkpt lat="46.0058186723156" lon="9.155491099852185"><ele>1481.4285714285716</ele><time>2026-04-25T11:10:10.001Z</time></trkpt><trkpt lat="46.005812163527374" lon="9.155394723949945"><ele>1473.5714285714284</ele><time>2026-04-25T11:10:11.001Z</time></trkpt><trkpt lat="46.00580370532368" lon="9.155296136313607"><ele>1465.7142857142858</ele><time>2026-04-25T11:10:12.001Z</time></trkpt><trkpt lat="46.005802026581804" lon="9.155200367716066"><ele>1457.857142857143</ele><time>2026-04-25T11:10:13.001Z</time></trkpt><trkpt lat="46.00580185980179" lon="9.15510899890729"><ele>1450.0</ele><time>2026-04-25T11:10:14.001Z</time></trkpt><trkpt lat="46.005805306798464" lon="9.154948934006693"><ele>1451.3333333333333</ele><time>2026-04-25T11:10:16.001Z</time></trkpt><trkpt lat="46.00580241443681" lon="9.154785875975344"><ele>1452.6666666666665</ele><time>2026-04-25T11:10:18.001Z</time></trkpt><trkpt lat="46.0057935342956" lon="9.154612363751545"><ele>1454.0</ele><time>2026-04-25T11:10:20.001Z</time></trkpt><trkpt lat="46.005801811964425" lon="9.154518017244897"><ele>1455.3333333333333</ele><time>2026-04-25T11:10:21.001Z</time></trkpt><trkpt lat="46.00577565335612" lon="9.154426925373603"><ele>1456.6666666666667</ele><time>2026-04-25T11:10:22.001Z</time></trkpt><trkpt lat="46.0057606312341" lon="9.154336711204445"><ele>1458.0</ele><time>2026-04-25T11:10:23.001Z</time></trkpt><trkpt lat="46.005756880385796" lon="9.154233152878682"><ele>1458.0</ele><time>2026-04-25T11:10:24.001Z</time></trkpt><trkpt lat="46.005735761556686" lon="9.15414320073707"><ele>1458.0</ele><time>2026-04-25T11:10:25.001Z</time></trkpt><trkpt lat="46.00571353763857" lon="9.154052770973609"><ele>1458.0</ele><time>2026-04-25T11:10:26.001Z</time></trkpt><trkpt lat="46.00566108103249" lon="9.153890111765259"><ele>1458.0</ele><time>2026-04-25T11:10:28.001Z</time></trkpt><trkpt lat="46.00560777782991" lon="9.15373509467529"><ele>1458.0</ele><time>2026-04-25T11:10:30.002Z</time></trkpt><trkpt lat="46.005573474651655" lon="9.153587593691517"><ele>1462.3333333333333</ele><time>2026-04-25T11:10:32.002Z</time></trkpt><trkpt lat="46.00551676088018" lon="9.153457124312501"><ele>1466.6666666666667</ele><time>2026-04-25T11:10:34.002Z</time></trkpt><trkpt lat="46.0054565042267" lon="9.153346046045087"><ele>1471.0</ele><time>2026-04-25T11:10:36.002Z</time></trkpt><trkpt lat="46.00540821549632" lon="9.153281953115572"><ele>1475.3333333333335</ele><time>2026-04-25T11:10:38.002Z</time></trkpt><trkpt lat="46.00534167265224" lon="9.153246131003174"><ele>1479.6666666666667</ele><time>2026-04-25T11:10:39.999Z</time></trkpt><trkpt lat="46.00526331144034" lon="9.153172723162049"><ele>1484.0</ele><time>2026-04-25T11:10:41.999Z</time></trkpt><trkpt lat="46.00516062652048" lon="9.15311738148065"><ele>1484.5714285714287</ele><time>2026-04-25T11:10:43.999Z</time></trkpt><trkpt lat="46.00510132592204" lon="9.15308652372877"><ele>1485.142857142857</ele><time>2026-04-25T11:10:44.999Z</time></trkpt><trkpt lat="46.00503869862751" lon="9.15305138668009"><ele>1485.7142857142858</ele><time>2026-04-25T11:10:45.999Z</time></trkpt><trkpt lat="46.00496881375402" lon="9.15301113626519"><ele>1486.2857142857142</ele><time>2026-04-25T11:10:46.999Z</time></trkpt><trkpt lat="46.004896171973854" lon="9.152969298014119"><ele>1486.857142857143</ele><time>2026-04-25T11:10:47.999Z</time></trkpt><trkpt lat="46.004821734874966" lon="9.152952654661307"><ele>1487.4285714285716</ele><time>2026-04-25T11:10:48.999Z</time></trkpt><trkpt lat="46.00475584848399" lon="9.152905410466499"><ele>1488.0</ele><time>2026-04-25T11:10:49.999Z</time></trkpt><trkpt lat="46.00469327187036" lon="9.152877785048938"><ele>1488.0</ele><time>2026-04-25T11:10:50.999Z</time></trkpt><trkpt lat="46.004578745042934" lon="9.152840930821993"><ele>1488.0</ele><time>2026-04-25T11:10:52.999Z</time></trkpt><trkpt lat="46.00446896534575" lon="9.152776506933112"><ele>1488.0</ele><time>2026-04-25T11:10:54.999Z</time></trkpt><trkpt lat="46.004354034261475" lon="9.152726958264202"><ele>1488.0</ele><time>2026-04-25T11:10:56.999Z</time></trkpt><trkpt lat="46.00428754891799" lon="9.152708877859927"><ele>1488.0</ele><time>2026-04-25T11:10:57.999Z</time></trkpt><trkpt lat="46.00417024861098" lon="9.152648354697547"><ele>1485.5</ele><time>2026-04-25T11:10:59.999Z</time></trkpt><trkpt lat="46.00411007197339" lon="9.152608202282293"><ele>1483.0</ele><time>2026-04-25T11:11:00.999Z</time></trkpt><trkpt lat="46.00405444262179" lon="9.152563929500399"><ele>1480.5</ele><time>2026-04-25T11:11:01.999Z</time></trkpt><trkpt lat="46.00399997857108" lon="9.152517109461916"><ele>1478.0</ele><time>2026-04-25T11:11:02.999Z</time></trkpt><trkpt lat="46.00390128021381" lon="9.152396171387863"><ele>1475.5</ele><time>2026-04-25T11:11:04.999Z</time></trkpt><trkpt lat="46.00385123268412" lon="9.152317721639623"><ele>1473.0</ele><time>2026-04-25T11:11:05.999Z</time></trkpt><trkpt lat="46.0038092196325" lon="9.152225947023457"><ele>1473.0</ele><time>2026-04-25T11:11:06.999Z</time></trkpt><trkpt lat="46.00376829225602" lon="9.152131255244758"><ele>1473.0</ele><time>2026-04-25T11:11:08Z</time></trkpt><trkpt lat="46.00372647927644" lon="9.152048174942633"><ele>1473.0</ele><time>2026-04-25T11:11:09Z</time></trkpt><trkpt lat="46.003679237367585" lon="9.151966322125254"><ele>1473.0</ele><time>2026-04-25T11:11:10Z</time></trkpt><trkpt lat="46.00362472443677" lon="9.151881996535234"><ele>1473.0</ele><time>2026-04-25T11:11:11Z</time></trkpt><trkpt lat="46.00355554060259" lon="9.151803117317767"><ele>1473.0</ele><time>2026-04-25T11:11:12Z</time></trkpt><trkpt lat="46.00347884449835" lon="9.151738967265212"><ele>1473.0</ele><time>2026-04-25T11:11:13Z</time></trkpt><trkpt lat="46.00340285569126" lon="9.151694070441224"><ele>1473.0</ele><time>2026-04-25T11:11:14Z</time></trkpt><trkpt lat="46.003336766474234" lon="9.151629570975738"><ele>1473.0</ele><time>2026-04-25T11:11:15Z</time></trkpt><trkpt lat="46.00327042114546" lon="9.151584025097845"><ele>1473.0</ele><time>2026-04-25T11:11:16Z</time></trkpt><trkpt lat="46.003205617226165" lon="9.15153737856506"><ele>1473.0</ele><time>2026-04-25T11:11:17Z</time></trkpt><trkpt lat="46.003139026301426" lon="9.151490282785195"><ele>1473.0</ele><time>2026-04-25T11:11:18Z</time></trkpt><trkpt lat="46.003067469554" lon="9.151471089788334"><ele>1477.6666666666667</ele><time>2026-04-25T11:11:19Z</time></trkpt><trkpt lat="46.00300495465276" lon="9.151417223440255"><ele>1482.3333333333333</ele><time>2026-04-25T11:11:20Z</time></trkpt><trkpt lat="46.00293128567519" lon="9.151396767266633"><ele>1487.0</ele><time>2026-04-25T11:11:21Z</time></trkpt><trkpt lat="46.00283639749272" lon="9.151402959106363"><ele>1491.6666666666665</ele><time>2026-04-25T11:11:22Z</time></trkpt><trkpt lat="46.00273528977572" lon="9.151439493286048"><ele>1496.3333333333333</ele><time>2026-04-25T11:11:23Z</time></trkpt><trkpt lat="46.002641777174986" lon="9.151478430391967"><ele>1501.0</ele><time>2026-04-25T11:11:24Z</time></trkpt><trkpt lat="46.0025571734868" lon="9.151515858958504"><ele>1496.1666666666665</ele><time>2026-04-25T11:11:25Z</time></trkpt><trkpt lat="46.00246899211167" lon="9.15155680967343"><ele>1491.3333333333333</ele><time>2026-04-25T11:11:26Z</time></trkpt><trkpt lat="46.00238222127258" lon="9.151597208365107"><ele>1486.5</ele><time>2026-04-25T11:11:27Z</time></trkpt><trkpt lat="46.00230273024971" lon="9.151634570087941"><ele>1481.6666666666667</ele><time>2026-04-25T11:11:28Z</time></trkpt><trkpt lat="46.0022266070775" lon="9.151670349005395"><ele>1476.8333333333335</ele><time>2026-04-25T11:11:29Z</time></trkpt><trkpt lat="46.00215468895887" lon="9.151704151407113"><ele>1472.0</ele><time>2026-04-25T11:11:30Z</time></trkpt><trkpt lat="46.00205037959931" lon="9.151773321617593"><ele>1472.0</ele><time>2026-04-25T11:11:32Z</time></trkpt><trkpt lat="46.001948828438785" lon="9.151784251668719"><ele>1472.0</ele><time>2026-04-25T11:11:34Z</time></trkpt><trkpt lat="46.00180967384241" lon="9.151855803462178"><ele>1472.0</ele><time>2026-04-25T11:11:36Z</time></trkpt><trkpt lat="46.00174217472452" lon="9.151885019314934"><ele>1472.0</ele><time>2026-04-25T11:11:37Z</time></trkpt><trkpt lat="46.00168055010756" lon="9.151942933215386"><ele>1472.0</ele><time>2026-04-25T11:11:38Z</time></trkpt><trkpt lat="46.001613448439265" lon="9.15198450380934"><ele>1473.1666666666667</ele><time>2026-04-25T11:11:39Z</time></trkpt><trkpt lat="46.00157663987414" lon="9.152061348512746"><ele>1474.3333333333335</ele><time>2026-04-25T11:11:40Z</time></trkpt><trkpt lat="46.00152961771169" lon="9.15214053622697"><ele>1475.5</ele><time>2026-04-25T11:11:41Z</time></trkpt><trkpt lat="46.00145632148582" lon="9.152229847902781"><ele>1476.6666666666667</ele><time>2026-04-25T11:11:42Z</time></trkpt><trkpt lat="46.0013949689006" lon="9.152307479181196"><ele>1477.8333333333333</ele><time>2026-04-25T11:11:43Z</time></trkpt><trkpt lat="46.00133745415658" lon="9.152373655696842"><ele>1479.0</ele><time>2026-04-25T11:11:44Z</time></trkpt><trkpt lat="46.00128080916285" lon="9.152456684879178"><ele>1473.5</ele><time>2026-04-25T11:11:45Z</time></trkpt><trkpt lat="46.00120219416919" lon="9.152493246115696"><ele>1468.0</ele><time>2026-04-25T11:11:46Z</time></trkpt><trkpt lat="46.001144010347815" lon="9.152537003465318"><ele>1462.5</ele><time>2026-04-25T11:11:47Z</time></trkpt><trkpt lat="46.00107792801875" lon="9.152584197683376"><ele>1457.0</ele><time>2026-04-25T11:11:48Z</time></trkpt><trkpt lat="46.00099989693009" lon="9.152636986801719"><ele>1451.5</ele><time>2026-04-25T11:11:49Z</time></trkpt><trkpt lat="46.00092779975146" lon="9.152671832088474"><ele>1446.0</ele><time>2026-04-25T11:11:50Z</time></trkpt><trkpt lat="46.00081877930675" lon="9.152683216116964"><ele>1445.6666666666667</ele><time>2026-04-25T11:11:52.001Z</time></trkpt><trkpt lat="46.000746362186874" lon="9.152662281210558"><ele>1445.3333333333333</ele><time>2026-04-25T11:11:54.001Z</time></trkpt><trkpt lat="46.000681340715744" lon="9.152625710909728"><ele>1445.0</ele><time>2026-04-25T11:11:55.001Z</time></trkpt><trkpt lat="46.000604292168816" lon="9.152559862724681"><ele>1444.6666666666665</ele><time>2026-04-25T11:11:56.001Z</time></trkpt><trkpt lat="46.000527569519186" lon="9.152481209776775"><ele>1444.3333333333333</ele><time>2026-04-25T11:11:57.001Z</time></trkpt><trkpt lat="46.00045105107717" lon="9.152396258630255"><ele>1444.0</ele><time>2026-04-25T11:11:58.001Z</time></trkpt><trkpt lat="46.00038949714715" lon="9.152317312590148"><ele>1444.0</ele><time>2026-04-25T11:11:59.001Z</time></trkpt><trkpt lat="46.00032882383106" lon="9.152235728575539"><ele>1444.0</ele><time>2026-04-25T11:12:00.001Z</time></trkpt><trkpt lat="46.00027947162956" lon="9.152160744368853"><ele>1444.0</ele><time>2026-04-25T11:12:01.001Z</time></trkpt><trkpt lat="46.00023716494218" lon="9.152078768353226"><ele>1444.0</ele><time>2026-04-25T11:12:02.001Z</time></trkpt><trkpt lat="46.00019501394342" lon="9.151981304052125"><ele>1444.0</ele><time>2026-04-25T11:12:03.001Z</time></trkpt><trkpt lat="46.00014724164918" lon="9.15189104860678"><ele>1444.0</ele><time>2026-04-25T11:12:04.001Z</time></trkpt><trkpt lat="46.00008326913322" lon="9.15181526324661"><ele>1444.0</ele><time>2026-04-25T11:12:05.001Z</time></trkpt><trkpt lat="45.999996193126236" lon="9.15176273586503"><ele>1444.0</ele><time>2026-04-25T11:12:06.001Z</time></trkpt><trkpt lat="45.999909769184185" lon="9.151736381676246"><ele>1444.0</ele><time>2026-04-25T11:12:07.001Z</time></trkpt><trkpt lat="45.99983679164921" lon="9.151699435631954"><ele>1444.0</ele><time>2026-04-25T11:12:08.001Z</time></trkpt><trkpt lat="45.99976984163034" lon="9.1516641614069"><ele>1444.0</ele><time>2026-04-25T11:12:09.001Z</time></trkpt><trkpt lat="45.99967783108417" lon="9.15159386851756"><ele>1444.0</ele><time>2026-04-25T11:12:11.001Z</time></trkpt><trkpt lat="45.99959874841039" lon="9.151452849024144"><ele>1442.1666666666665</ele><time>2026-04-25T11:12:13.001Z</time></trkpt><trkpt lat="45.999535392268555" lon="9.15133092948922"><ele>1440.3333333333333</ele><time>2026-04-25T11:12:15.001Z</time></trkpt><trkpt lat="45.99945622560368" lon="9.151278554296184"><ele>1438.5</ele><time>2026-04-25T11:12:16.001Z</time></trkpt><trkpt lat="45.99936745067082" lon="9.151257151567807"><ele>1436.6666666666667</ele><time>2026-04-25T11:12:17.001Z</time></trkpt><trkpt lat="45.99929285265081" lon="9.151236388210531"><ele>1434.8333333333335</ele><time>2026-04-25T11:12:18.001Z</time></trkpt><trkpt lat="45.999209678149036" lon="9.151217636031953"><ele>1433.0</ele><time>2026-04-25T11:12:19.001Z</time></trkpt><trkpt lat="45.999104074051274" lon="9.151189027510886"><ele>1433.0</ele><time>2026-04-25T11:12:21.001Z</time></trkpt><trkpt lat="45.99899545032663" lon="9.151074964099726"><ele>1433.0</ele><time>2026-04-25T11:12:23.001Z</time></trkpt><trkpt lat="45.998942999960406" lon="9.15100784802188"><ele>1433.0</ele><time>2026-04-25T11:12:24.001Z</time></trkpt><trkpt lat="45.99888184491654" lon="9.15090194137216"><ele>1433.0</ele><time>2026-04-25T11:12:26.001Z</time></trkpt><trkpt lat="45.99879683957416" lon="9.150859473567234"><ele>1433.0</ele><time>2026-04-25T11:12:29.001Z</time></trkpt><trkpt lat="45.99872715151681" lon="9.150881101837419"><ele>1433.0</ele><time>2026-04-25T11:12:30.001Z</time></trkpt><trkpt lat="45.998643889311914" lon="9.150921766142778"><ele>1433.0</ele><time>2026-04-25T11:12:31.001Z</time></trkpt><trkpt lat="45.99852857929297" lon="9.150999717552255"><ele>1433.0</ele><time>2026-04-25T11:12:33.001Z</time></trkpt><trkpt lat="45.99847222869843" lon="9.151042231966901"><ele>1433.0</ele><time>2026-04-25T11:12:34.001Z</time></trkpt><trkpt lat="45.99839945974232" lon="9.151100409471693"><ele>1433.0</ele><time>2026-04-25T11:12:35.001Z</time></trkpt><trkpt lat="45.998321094176056" lon="9.151168236122066"><ele>1431.2</ele><time>2026-04-25T11:12:36.001Z</time></trkpt><trkpt lat="45.99823186157518" lon="9.151264533238455"><ele>1429.4</ele><time>2026-04-25T11:12:37.001Z</time></trkpt><trkpt lat="45.99816830076396" lon="9.151359394720464"><ele>1427.6000000000001</ele><time>2026-04-25T11:12:38.001Z</time></trkpt><trkpt lat="45.99810699213278" lon="9.151463635127968"><ele>1425.8000000000002</ele><time>2026-04-25T11:12:39.001Z</time></trkpt><trkpt lat="45.998063516068925" lon="9.151551107912887"><ele>1424.0</ele><time>2026-04-25T11:12:40.001Z</time></trkpt><trkpt lat="45.99800062386989" lon="9.151665333240587"><ele>1417.2</ele><time>2026-04-25T11:12:44.001Z</time></trkpt><trkpt lat="45.99795963847039" lon="9.15173998237449"><ele>1410.4</ele><time>2026-04-25T11:12:45.001Z</time></trkpt><trkpt lat="45.99787793676227" lon="9.151851567900962"><ele>1403.6</ele><time>2026-04-25T11:12:46.999Z</time></trkpt><trkpt lat="45.99780668438208" lon="9.151994327439034"><ele>1396.8</ele><time>2026-04-25T11:12:48.999Z</time></trkpt><trkpt lat="45.99773673946781" lon="9.152119172799713"><ele>1390.0</ele><time>2026-04-25T11:12:50.999Z</time></trkpt><trkpt lat="45.9976747925641" lon="9.152262913563913"><ele>1390.0000000000002</ele><time>2026-04-25T11:12:52.999Z</time></trkpt><trkpt lat="45.997641587738315" lon="9.152350771477952"><ele>1390.0</ele><time>2026-04-25T11:12:53.999Z</time></trkpt><trkpt lat="45.997603485337656" lon="9.152432280433421"><ele>1390.0</ele><time>2026-04-25T11:12:54.999Z</time></trkpt><trkpt lat="45.99758440774701" lon="9.152519908432463"><ele>1390.0</ele><time>2026-04-25T11:12:55.999Z</time></trkpt><trkpt lat="45.997553908611955" lon="9.152625451158121"><ele>1390.0</ele><time>2026-04-25T11:12:56.999Z</time></trkpt><trkpt lat="45.997511724479025" lon="9.152713328091128"><ele>1390.0000000000002</ele><time>2026-04-25T11:12:57.999Z</time></trkpt><trkpt lat="45.9974855156641" lon="9.152807466439196"><ele>1390.0</ele><time>2026-04-25T11:12:58.999Z</time></trkpt><trkpt lat="45.997423514074356" lon="9.152913774305938"><ele>1388.1666666666665</ele><time>2026-04-25T11:13:00.999Z</time></trkpt><trkpt lat="45.997356767218314" lon="9.152884298938718"><ele>1386.3333333333333</ele><time>2026-04-25T11:13:02.999Z</time></trkpt><trkpt lat="45.99727913799629" lon="9.152765855021059"><ele>1384.5</ele><time>2026-04-25T11:13:04.999Z</time></trkpt><trkpt lat="45.99723176299263" lon="9.152677965538787"><ele>1382.6666666666667</ele><time>2026-04-25T11:13:05.999Z</time></trkpt><trkpt lat="45.997183279927995" lon="9.152586027724102"><ele>1380.8333333333335</ele><time>2026-04-25T11:13:06.999Z</time></trkpt><trkpt lat="45.99713068965046" lon="9.152487561563083"><ele>1379.0</ele><time>2026-04-25T11:13:07.999Z</time></trkpt><trkpt lat="45.99708999404935" lon="9.152383256922061"><ele>1385.2</ele><time>2026-04-25T11:13:08.999Z</time></trkpt><trkpt lat="45.99704029450549" lon="9.152278240928267"><ele>1391.4</ele><time>2026-04-25T11:13:09.999Z</time></trkpt><trkpt lat="45.996991446171606" lon="9.152170849484857"><ele>1397.6</ele><time>2026-04-25T11:13:10.999Z</time></trkpt><trkpt lat="45.99691852620738" lon="9.152071893314385"><ele>1403.8</ele><time>2026-04-25T11:13:11.999Z</time></trkpt><trkpt lat="45.996856322045225" lon="9.151969570957492"><ele>1410.0</ele><time>2026-04-25T11:13:13Z</time></trkpt><trkpt lat="45.996810881166134" lon="9.151859693673616"><ele>1410.0</ele><time>2026-04-25T11:13:14Z</time></trkpt><trkpt lat="45.996759189523075" lon="9.15176896225286"><ele>1410.0</ele><time>2026-04-25T11:13:15Z</time></trkpt><trkpt lat="45.99673267717016" lon="9.151670021007522"><ele>1410.0</ele><time>2026-04-25T11:13:16Z</time></trkpt><trkpt lat="45.996624988561244" lon="9.151578678427503"><ele>1410.0</ele><time>2026-04-25T11:13:18Z</time></trkpt><trkpt lat="45.9965707357888" lon="9.15151966481699"><ele>1410.0</ele><time>2026-04-25T11:13:19Z</time></trkpt><trkpt lat="45.996538894604846" lon="9.151437035798237"><ele>1410.0</ele><time>2026-04-25T11:13:20Z</time></trkpt><trkpt lat="45.99648610229397" lon="9.151373343771132"><ele>1409.8333333333333</ele><time>2026-04-25T11:13:21Z</time></trkpt><trkpt lat="45.99642360966433" lon="9.151305430634881"><ele>1409.6666666666667</ele><time>2026-04-25T11:13:22Z</time></trkpt><trkpt lat="45.99636568198772" lon="9.151234046402434"><ele>1409.5</ele><time>2026-04-25T11:13:23Z</time></trkpt><trkpt lat="45.99631771103237" lon="9.15114311435926"><ele>1409.3333333333335</ele><time>2026-04-25T11:13:24Z</time></trkpt><trkpt lat="45.99625252296599" lon="9.15105910857692"><ele>1409.1666666666667</ele><time>2026-04-25T11:13:25Z</time></trkpt><trkpt lat="45.99618690212511" lon="9.150976681110004"><ele>1409.0</ele><time>2026-04-25T11:13:26Z</time></trkpt><trkpt lat="45.99612055352786" lon="9.150895947640796"><ele>1409.0</ele><time>2026-04-25T11:13:27Z</time></trkpt><trkpt lat="45.99605585364882" lon="9.15081701309877"><ele>1409.0</ele><time>2026-04-25T11:13:28Z</time></trkpt><trkpt lat="45.99600143686967" lon="9.15074022738471"><ele>1409.0</ele><time>2026-04-25T11:13:29Z</time></trkpt><trkpt lat="45.99595641513483" lon="9.150661159213849"><ele>1409.0</ele><time>2026-04-25T11:13:30Z</time></trkpt><trkpt lat="45.99589983994883" lon="9.150598385789646"><ele>1409.0</ele><time>2026-04-25T11:13:31Z</time></trkpt><trkpt lat="45.995840639679926" lon="9.15054628028109"><ele>1409.0</ele><time>2026-04-25T11:13:32Z</time></trkpt><trkpt lat="45.995769984118866" lon="9.15049581192093"><ele>1406.8333333333335</ele><time>2026-04-25T11:13:33Z</time></trkpt><trkpt lat="45.995682808255815" lon="9.15046725246102"><ele>1404.6666666666667</ele><time>2026-04-25T11:13:34Z</time></trkpt><trkpt lat="45.99560350055969" lon="9.150463462224113"><ele>1402.5</ele><time>2026-04-25T11:13:35Z</time></trkpt><trkpt lat="45.99551976905239" lon="9.15047977233467"><ele>1400.3333333333333</ele><time>2026-04-25T11:13:36Z</time></trkpt><trkpt lat="45.99542950298154" lon="9.1505054553113"><ele>1398.1666666666665</ele><time>2026-04-25T11:13:37Z</time></trkpt><trkpt lat="45.99534414644208" lon="9.15053724085976"><ele>1396.0</ele><time>2026-04-25T11:13:38Z</time></trkpt><trkpt lat="45.99526026381993" lon="9.150578848854806"><ele>1396.0</ele><time>2026-04-25T11:13:39Z</time></trkpt><trkpt lat="45.99518173968213" lon="9.150619514731122"><ele>1396.0</ele><time>2026-04-25T11:13:40Z</time></trkpt><trkpt lat="45.99511971063311" lon="9.150679092760786"><ele>1396.0</ele><time>2026-04-25T11:13:41Z</time></trkpt><trkpt lat="45.99505554972434" lon="9.150698840837418"><ele>1396.0</ele><time>2026-04-25T11:13:42Z</time></trkpt><trkpt lat="45.994977236519254" lon="9.150698820006452"><ele>1396.0</ele><time>2026-04-25T11:13:43Z</time></trkpt><trkpt lat="45.99489041139144" lon="9.150677635227984"><ele>1396.0</ele><time>2026-04-25T11:13:44Z</time></trkpt><trkpt lat="45.994801256419" lon="9.150671090392235"><ele>1391.1999999999998</ele><time>2026-04-25T11:13:45Z</time></trkpt><trkpt lat="45.99471206769897" lon="9.150693594139867"><ele>1386.3999999999999</ele><time>2026-04-25T11:13:46Z</time></trkpt><trkpt lat="45.994623625109305" lon="9.150740900695297"><ele>1381.6</ele><time>2026-04-25T11:13:47Z</time></trkpt><trkpt lat="45.99452341069392" lon="9.150763045724958"><ele>1376.8</ele><time>2026-04-25T11:13:48Z</time></trkpt><trkpt lat="45.99443393913484" lon="9.150809831750438"><ele>1372.0</ele><time>2026-04-25T11:13:49.001Z</time></trkpt><trkpt lat="45.99435781423148" lon="9.15087411723056"><ele>1367.6666666666665</ele><time>2026-04-25T11:13:50.001Z</time></trkpt><trkpt lat="45.99428570244128" lon="9.150922676187093"><ele>1363.3333333333333</ele><time>2026-04-25T11:13:51.001Z</time></trkpt><trkpt lat="45.99421306070534" lon="9.150982736868395"><ele>1359.0</ele><time>2026-04-25T11:13:52.001Z</time></trkpt><trkpt lat="45.994140794656694" lon="9.151040187773807"><ele>1354.6666666666667</ele><time>2026-04-25T11:13:53.001Z</time></trkpt><trkpt lat="45.99406388681601" lon="9.151072834494077"><ele>1350.3333333333335</ele><time>2026-04-25T11:13:54.001Z</time></trkpt><trkpt lat="45.99397676939205" lon="9.151096019532469"><ele>1346.0</ele><time>2026-04-25T11:13:55.001Z</time></trkpt><trkpt lat="45.99388960860429" lon="9.151116718260353"><ele>1344.8333333333335</ele><time>2026-04-25T11:13:56.001Z</time></trkpt><trkpt lat="45.993813941790414" lon="9.151139176338726"><ele>1343.6666666666667</ele><time>2026-04-25T11:13:57.001Z</time></trkpt><trkpt lat="45.99374979290506" lon="9.151157925593452"><ele>1342.5</ele><time>2026-04-25T11:13:58.001Z</time></trkpt><trkpt lat="45.99368499724504" lon="9.151173927598792"><ele>1341.3333333333333</ele><time>2026-04-25T11:13:59.001Z</time></trkpt><trkpt lat="45.99359228915167" lon="9.151178821114653"><ele>1340.1666666666665</ele><time>2026-04-25T11:14:01.001Z</time></trkpt><trkpt lat="45.9934908898029" lon="9.151157173196484"><ele>1339.0</ele><time>2026-04-25T11:14:03.001Z</time></trkpt><trkpt lat="45.99342480391271" lon="9.15112413148869"><ele>1339.0</ele><time>2026-04-25T11:14:04.001Z</time></trkpt><trkpt lat="45.9933576159003" lon="9.151072292955"><ele>1339.0</ele><time>2026-04-25T11:14:05.001Z</time></trkpt><trkpt lat="45.99329162435269" lon="9.151017815889848"><ele>1339.0</ele><time>2026-04-25T11:14:06.001Z</time></trkpt><trkpt lat="45.99323504434642" lon="9.150951102391693"><ele>1339.0</ele><time>2026-04-25T11:14:07.001Z</time></trkpt><trkpt lat="45.993184565523826" lon="9.150858207785054"><ele>1339.0</ele><time>2026-04-25T11:14:08.001Z</time></trkpt><trkpt lat="45.99313838388451" lon="9.150743260514412"><ele>1339.0</ele><time>2026-04-25T11:14:09.001Z</time></trkpt><trkpt lat="45.993090253240965" lon="9.150616662258486"><ele>1337.4</ele><time>2026-04-25T11:14:10.001Z</time></trkpt><trkpt lat="45.99304714551284" lon="9.150497283171317"><ele>1335.8000000000002</ele><time>2026-04-25T11:14:11.001Z</time></trkpt><trkpt lat="45.99300122715843" lon="9.150372308264584"><ele>1334.1999999999998</ele><time>2026-04-25T11:14:12.001Z</time></trkpt><trkpt lat="45.992958468511326" lon="9.150249362344933"><ele>1332.6</ele><time>2026-04-25T11:14:13.001Z</time></trkpt><trkpt lat="45.99291688051436" lon="9.150127966246044"><ele>1331.0</ele><time>2026-04-25T11:14:14.001Z</time></trkpt><trkpt lat="45.99287366252449" lon="9.150010096341992"><ele>1331.0</ele><time>2026-04-25T11:14:15.001Z</time></trkpt><trkpt lat="45.992841302694856" lon="9.149895909976907"><ele>1331.0</ele><time>2026-04-25T11:14:16.001Z</time></trkpt><trkpt lat="45.992815318292465" lon="9.14975960349906"><ele>1331.0</ele><time>2026-04-25T11:14:17.001Z</time></trkpt><trkpt lat="45.99280253899223" lon="9.149601772281429"><ele>1331.0</ele><time>2026-04-25T11:14:18.001Z</time></trkpt><trkpt lat="45.99279015958525" lon="9.14944220599874"><ele>1331.0</ele><time>2026-04-25T11:14:19.001Z</time></trkpt><trkpt lat="45.99278271559478" lon="9.149285961962054"><ele>1330.6666666666667</ele><time>2026-04-25T11:14:20.001Z</time></trkpt><trkpt lat="45.99277652139029" lon="9.149147515337761"><ele>1330.3333333333335</ele><time>2026-04-25T11:14:21.001Z</time></trkpt><trkpt lat="45.992775132744455" lon="9.149033809695872"><ele>1330.0</ele><time>2026-04-25T11:14:22.001Z</time></trkpt><trkpt lat="45.99275936088203" lon="9.148925174123393"><ele>1329.6666666666667</ele><time>2026-04-25T11:14:23.001Z</time></trkpt><trkpt lat="45.99274489536551" lon="9.148828267627572"><ele>1329.3333333333333</ele><time>2026-04-25T11:14:24.001Z</time></trkpt><trkpt lat="45.99276304121064" lon="9.14872635870241"><ele>1329.0</ele><time>2026-04-25T11:14:25.001Z</time></trkpt><trkpt lat="45.99275439170509" lon="9.148606279499832"><ele>1325.6666666666667</ele><time>2026-04-25T11:14:26.001Z</time></trkpt><trkpt lat="45.992769874091735" lon="9.148476729743438"><ele>1322.3333333333333</ele><time>2026-04-25T11:14:27.001Z</time></trkpt><trkpt lat="45.9927882268569" lon="9.148348757373546"><ele>1319.0</ele><time>2026-04-25T11:14:28.001Z</time></trkpt><trkpt lat="45.99280747913004" lon="9.148225799254705"><ele>1315.6666666666665</ele><time>2026-04-25T11:14:29.001Z</time></trkpt><trkpt lat="45.99282326600036" lon="9.148107003771486"><ele>1312.3333333333333</ele><time>2026-04-25T11:14:30.001Z</time></trkpt><trkpt lat="45.99282443931942" lon="9.147984905504448"><ele>1309.0</ele><time>2026-04-25T11:14:31.001Z</time></trkpt><trkpt lat="45.99282524804104" lon="9.147863429056322"><ele>1306.3333333333333</ele><time>2026-04-25T11:14:32.001Z</time></trkpt><trkpt lat="45.99281259215456" lon="9.147737467853576"><ele>1303.6666666666665</ele><time>2026-04-25T11:14:33.001Z</time></trkpt><trkpt lat="45.99281555637408" lon="9.147610769069486"><ele>1301.0</ele><time>2026-04-25T11:14:34.002Z</time></trkpt><trkpt lat="45.9928106940001" lon="9.147494174511632"><ele>1298.3333333333333</ele><time>2026-04-25T11:14:35.002Z</time></trkpt><trkpt lat="45.99280427996097" lon="9.147386089356267"><ele>1295.6666666666667</ele><time>2026-04-25T11:14:36.002Z</time></trkpt><trkpt lat="45.992775263759626" lon="9.147240590589607"><ele>1293.0</ele><time>2026-04-25T11:14:38.002Z</time></trkpt><trkpt lat="45.99268743886345" lon="9.147186316808972"><ele>1292.0</ele><time>2026-04-25T11:14:40.002Z</time></trkpt><trkpt lat="45.9925605596269" lon="9.14730562198728"><ele>1291.0</ele><time>2026-04-25T11:14:42.002Z</time></trkpt><trkpt lat="45.9925036780978" lon="9.147409726175935"><ele>1290.0</ele><time>2026-04-25T11:14:43.002Z</time></trkpt><trkpt lat="45.99244318211343" lon="9.14752737866903"><ele>1289.0</ele><time>2026-04-25T11:14:44.002Z</time></trkpt><trkpt lat="45.9923996546039" lon="9.14765682165249"><ele>1288.0</ele><time>2026-04-25T11:14:45.002Z</time></trkpt><trkpt lat="45.99234581741639" lon="9.147764663968244"><ele>1288.0</ele><time>2026-04-25T11:14:46.002Z</time></trkpt><trkpt lat="45.992290222727135" lon="9.14786543317109"><ele>1288.0</ele><time>2026-04-25T11:14:47.002Z</time></trkpt><trkpt lat="45.99225099381834" lon="9.147971904547411"><ele>1288.0</ele><time>2026-04-25T11:14:48.002Z</time></trkpt><trkpt lat="45.9922127480291" lon="9.148088158772495"><ele>1288.0</ele><time>2026-04-25T11:14:49.002Z</time></trkpt><trkpt lat="45.99218997337613" lon="9.14820875945879"><ele>1288.0</ele><time>2026-04-25T11:14:50.002Z</time></trkpt><trkpt lat="45.99217155620169" lon="9.148334264511293"><ele>1288.0</ele><time>2026-04-25T11:14:51.002Z</time></trkpt><trkpt lat="45.99214925014152" lon="9.148440926351581"><ele>1289.1666666666665</ele><time>2026-04-25T11:14:51.999Z</time></trkpt><trkpt lat="45.99211281701917" lon="9.1485305821518"><ele>1290.3333333333333</ele><time>2026-04-25T11:14:52.999Z</time></trkpt><trkpt lat="45.99205833805226" lon="9.148614697691864"><ele>1291.5</ele><time>2026-04-25T11:14:53.999Z</time></trkpt><trkpt lat="45.991997237782954" lon="9.148697975987641"><ele>1292.6666666666667</ele><time>2026-04-25T11:14:54.999Z</time></trkpt><trkpt lat="45.99195218042321" lon="9.148783594886572"><ele>1293.8333333333335</ele><time>2026-04-25T11:14:55.999Z</time></trkpt><trkpt lat="45.991913461841754" lon="9.148929064782283"><ele>1295.0</ele><time>2026-04-25T11:14:57.999Z</time></trkpt><trkpt lat="45.99189546825167" lon="9.14903464103745"><ele>1296.0</ele><time>2026-04-25T11:14:59.999Z</time></trkpt><trkpt lat="45.99184174959343" lon="9.14912939533597"><ele>1297.0</ele><time>2026-04-25T11:15:01.999Z</time></trkpt><trkpt lat="45.991773448343935" lon="9.149273857243312"><ele>1298.0</ele><time>2026-04-25T11:15:03.999Z</time></trkpt><trkpt lat="45.991736170400564" lon="9.149415621050117"><ele>1299.0</ele><time>2026-04-25T11:15:04.999Z</time></trkpt><trkpt lat="45.991713681759514" lon="9.149533389478218"><ele>1300.0</ele><time>2026-04-25T11:15:06Z</time></trkpt><trkpt lat="45.99167839210752" lon="9.149722577181723"><ele>1295.6666666666665</ele><time>2026-04-25T11:15:08Z</time></trkpt><trkpt lat="45.991657910209376" lon="9.149830435178842"><ele>1291.3333333333333</ele><time>2026-04-25T11:15:09Z</time></trkpt><trkpt lat="45.99164370782422" lon="9.149962223131968"><ele>1287.0</ele><time>2026-04-25T11:15:10Z</time></trkpt><trkpt lat="45.99163538838135" lon="9.150074419448522"><ele>1282.6666666666667</ele><time>2026-04-25T11:15:11Z</time></trkpt><trkpt lat="45.99161530246771" lon="9.150187987972448"><ele>1278.3333333333335</ele><time>2026-04-25T11:15:12Z</time></trkpt><trkpt lat="45.99161132232487" lon="9.150315001971785"><ele>1274.0</ele><time>2026-04-25T11:15:13Z</time></trkpt><trkpt lat="45.99161171141072" lon="9.150419516948073"><ele>1274.0</ele><time>2026-04-25T11:15:14Z</time></trkpt><trkpt lat="45.99163993139196" lon="9.150601296091025"><ele>1274.0</ele><time>2026-04-25T11:15:15Z</time></trkpt><trkpt lat="45.99165925904418" lon="9.150740244061925"><ele>1274.0</ele><time>2026-04-25T11:15:16Z</time></trkpt><trkpt lat="45.99168327047886" lon="9.15086939099169"><ele>1274.0</ele><time>2026-04-25T11:15:17Z</time></trkpt><trkpt lat="45.99170258854307" lon="9.150998927831862"><ele>1274.0</ele><time>2026-04-25T11:15:18Z</time></trkpt><trkpt lat="45.99170746731017" lon="9.151135237564246"><ele>1277.25</ele><time>2026-04-25T11:15:19Z</time></trkpt><trkpt lat="45.99169472503172" lon="9.151282730547944"><ele>1280.5</ele><time>2026-04-25T11:15:20Z</time></trkpt><trkpt lat="45.99168739559235" lon="9.15149100330897"><ele>1283.75</ele><time>2026-04-25T11:15:21Z</time></trkpt><trkpt lat="45.991691092950894" lon="9.151660427793098"><ele>1287.0</ele><time>2026-04-25T11:15:22Z</time></trkpt><trkpt lat="45.991705433883" lon="9.151812306189763"><ele>1287.0</ele><time>2026-04-25T11:15:23Z</time></trkpt><trkpt lat="45.991719183576265" lon="9.151957746421647"><ele>1287.0</ele><time>2026-04-25T11:15:24Z</time></trkpt><trkpt lat="45.99172484593581" lon="9.152077715903717"><ele>1287.0</ele><time>2026-04-25T11:15:25Z</time></trkpt><trkpt lat="45.99170124841733" lon="9.152174351250652"><ele>1287.0</ele><time>2026-04-25T11:15:26Z</time></trkpt><trkpt lat="45.99165590985528" lon="9.152338544021637"><ele>1287.0</ele><time>2026-04-25T11:15:28Z</time></trkpt><trkpt lat="45.99154405213952" lon="9.152408366926153"><ele>1281.1999999999998</ele><time>2026-04-25T11:15:30Z</time></trkpt><trkpt lat="45.99144077981464" lon="9.152296542357131"><ele>1275.3999999999999</ele><time>2026-04-25T11:15:32Z</time></trkpt><trkpt lat="45.99138802807629" lon="9.152219004086417"><ele>1269.6</ele><time>2026-04-25T11:15:33Z</time></trkpt><trkpt lat="45.99132520920491" lon="9.152125996962301"><ele>1263.8</ele><time>2026-04-25T11:15:34Z</time></trkpt><trkpt lat="45.9912657485448" lon="9.15202211006523"><ele>1258.0</ele><time>2026-04-25T11:15:35Z</time></trkpt><trkpt lat="45.99120659685803" lon="9.151917473031963"><ele>1258.0</ele><time>2026-04-25T11:15:36Z</time></trkpt><trkpt lat="45.99115242283836" lon="9.151828397677495"><ele>1258.0</ele><time>2026-04-25T11:15:37Z</time></trkpt><trkpt lat="45.99109571875841" lon="9.151731143156423"><ele>1258.0</ele><time>2026-04-25T11:15:38.001Z</time></trkpt><trkpt lat="45.99104366402038" lon="9.15163239559701"><ele>1258.0</ele><time>2026-04-25T11:15:39.001Z</time></trkpt><trkpt lat="45.990989073276225" lon="9.151529211888692"><ele>1258.0</ele><time>2026-04-25T11:15:40.001Z</time></trkpt><trkpt lat="45.99092849098094" lon="9.151432851116951"><ele>1258.0</ele><time>2026-04-25T11:15:41.001Z</time></trkpt><trkpt lat="45.990866081551935" lon="9.1513346738964"><ele>1254.8</ele><time>2026-04-25T11:15:42.001Z</time></trkpt><trkpt lat="45.99079573790982" lon="9.151246950857072"><ele>1251.6</ele><time>2026-04-25T11:15:43.001Z</time></trkpt><trkpt lat="45.99072402004789" lon="9.151171708734372"><ele>1248.4</ele><time>2026-04-25T11:15:44.001Z</time></trkpt><trkpt lat="45.990648096489195" lon="9.151108830410477"><ele>1245.2</ele><time>2026-04-25T11:15:45.001Z</time></trkpt><trkpt lat="45.99056411945197" lon="9.15105659392597"><ele>1242.0</ele><time>2026-04-25T11:15:46.001Z</time></trkpt><trkpt lat="45.99048587031287" lon="9.150986078998029"><ele>1242.0</ele><time>2026-04-25T11:15:47.001Z</time></trkpt><trkpt lat="45.990399571069766" lon="9.150934111329528"><ele>1242.0</ele><time>2026-04-25T11:15:48.001Z</time></trkpt><trkpt lat="45.99031447679943" lon="9.150884869839093"><ele>1242.0</ele><time>2026-04-25T11:15:49.001Z</time></trkpt><trkpt lat="45.99022196678779" lon="9.150856931216776"><ele>1242.0</ele><time>2026-04-25T11:15:50.001Z</time></trkpt><trkpt lat="45.99013869294813" lon="9.150796002408184"><ele>1242.0</ele><time>2026-04-25T11:15:51.001Z</time></trkpt><trkpt lat="45.99005009090418" lon="9.15074954410981"><ele>1237.8333333333333</ele><time>2026-04-25T11:15:52.001Z</time></trkpt><trkpt lat="45.98996749849929" lon="9.150702237475281"><ele>1233.6666666666667</ele><time>2026-04-25T11:15:53.001Z</time></trkpt><trkpt lat="45.9898796514547" lon="9.150660932439187"><ele>1229.5</ele><time>2026-04-25T11:15:54.001Z</time></trkpt><trkpt lat="45.98980152392575" lon="9.150616613099977"><ele>1225.3333333333335</ele><time>2026-04-25T11:15:55.001Z</time></trkpt><trkpt lat="45.989730141519765" lon="9.15057858108924"><ele>1221.1666666666667</ele><time>2026-04-25T11:15:56.001Z</time></trkpt><trkpt lat="45.98966688976877" lon="9.150544861151888"><ele>1217.0</ele><time>2026-04-25T11:15:57.001Z</time></trkpt><trkpt lat="45.98954462275902" lon="9.150499283987966"><ele>1217.0</ele><time>2026-04-25T11:15:59.001Z</time></trkpt><trkpt lat="45.98947342753354" lon="9.150492997464399"><ele>1217.0</ele><time>2026-04-25T11:16:00.001Z</time></trkpt><trkpt lat="45.989393583358975" lon="9.150487198806301"><ele>1217.0</ele><time>2026-04-25T11:16:01.001Z</time></trkpt><trkpt lat="45.98929917857937" lon="9.150481834681466"><ele>1217.0</ele><time>2026-04-25T11:16:02.001Z</time></trkpt><trkpt lat="45.98920214317161" lon="9.150487521526458"><ele>1217.0</ele><time>2026-04-25T11:16:03.001Z</time></trkpt><trkpt lat="45.98910835272777" lon="9.150506396396757"><ele>1217.0</ele><time>2026-04-25T11:16:04.001Z</time></trkpt><trkpt lat="45.98901714930648" lon="9.150533052850603"><ele>1217.0</ele><time>2026-04-25T11:16:05.001Z</time></trkpt><trkpt lat="45.98893043496684" lon="9.150560115301513"><ele>1217.0</ele><time>2026-04-25T11:16:06.001Z</time></trkpt><trkpt lat="45.98884686859626" lon="9.150588272747438"><ele>1217.0</ele><time>2026-04-25T11:16:07.001Z</time></trkpt><trkpt lat="45.98877182723898" lon="9.150619766604326"><ele>1217.0</ele><time>2026-04-25T11:16:08.001Z</time></trkpt><trkpt lat="45.98870388389389" lon="9.15065780507018"><ele>1217.0</ele><time>2026-04-25T11:16:09.001Z</time></trkpt><trkpt lat="45.98863499908926" lon="9.150701544718517"><ele>1217.0</ele><time>2026-04-25T11:16:10.001Z</time></trkpt><trkpt lat="45.98856986729683" lon="9.150744229036054"><ele>1216.8333333333335</ele><time>2026-04-25T11:16:11.001Z</time></trkpt><trkpt lat="45.988504139472255" lon="9.150788367701082"><ele>1216.6666666666667</ele><time>2026-04-25T11:16:12.001Z</time></trkpt><trkpt lat="45.988427020424645" lon="9.150833933255916"><ele>1216.5</ele><time>2026-04-25T11:16:13.001Z</time></trkpt><trkpt lat="45.9883464528843" lon="9.15087985964033"><ele>1216.3333333333333</ele><time>2026-04-25T11:16:14.001Z</time></trkpt><trkpt lat="45.9882647021147" lon="9.150932962907461"><ele>1216.1666666666665</ele><time>2026-04-25T11:16:15.001Z</time></trkpt><trkpt lat="45.98818976570648" lon="9.150981050366186"><ele>1216.0</ele><time>2026-04-25T11:16:16.001Z</time></trkpt><trkpt lat="45.98812821127671" lon="9.151013449688902"><ele>1218.3999999999999</ele><time>2026-04-25T11:16:17.001Z</time></trkpt><trkpt lat="45.98806951537236" lon="9.151046574382747"><ele>1220.8</ele><time>2026-04-25T11:16:18.002Z</time></trkpt><trkpt lat="45.98795418399226" lon="9.151091021373517"><ele>1223.1999999999998</ele><time>2026-04-25T11:16:20.002Z</time></trkpt><trkpt lat="45.98783813252459" lon="9.151035936649002"><ele>1225.6</ele><time>2026-04-25T11:16:22.002Z</time></trkpt><trkpt lat="45.98774168204618" lon="9.1509412709807"><ele>1228.0</ele><time>2026-04-25T11:16:24.002Z</time></trkpt><trkpt lat="45.987679032089666" lon="9.150885183841973"><ele>1228.0</ele><time>2026-04-25T11:16:26.002Z</time></trkpt><trkpt lat="45.98765190587725" lon="9.15074428168218"><ele>1228.0</ele><time>2026-04-25T11:16:29.002Z</time></trkpt><trkpt lat="45.987684502702095" lon="9.150559941228199"><ele>1228.0</ele><time>2026-04-25T11:16:31.002Z</time></trkpt><trkpt lat="45.9876983875528" lon="9.150435850839752"><ele>1228.0</ele><time>2026-04-25T11:16:32.002Z</time></trkpt><trkpt lat="45.98770513386027" lon="9.15033372301089"><ele>1228.0</ele><time>2026-04-25T11:16:33.002Z</time></trkpt><trkpt lat="45.98771772283847" lon="9.150141975169376"><ele>1228.6</ele><time>2026-04-25T11:16:35.002Z</time></trkpt><trkpt lat="45.98772302219144" lon="9.150014505881328"><ele>1229.1999999999998</ele><time>2026-04-25T11:16:36.002Z</time></trkpt><trkpt lat="45.98773875422063" lon="9.149883295851364"><ele>1229.8</ele><time>2026-04-25T11:16:37.002Z</time></trkpt><trkpt lat="45.98775403828919" lon="9.149741721825029"><ele>1230.3999999999999</ele><time>2026-04-25T11:16:38.002Z</time></trkpt><trkpt lat="45.987768759678964" lon="9.149587558019803"><ele>1231.0</ele><time>2026-04-25T11:16:39.002Z</time></trkpt><trkpt lat="45.98777910369894" lon="9.149417777675579"><ele>1229.25</ele><time>2026-04-25T11:16:40.002Z</time></trkpt><trkpt lat="45.987786817567475" lon="9.149245607172238"><ele>1227.5</ele><time>2026-04-25T11:16:41.002Z</time></trkpt><trkpt lat="45.987786638700406" lon="9.149062229122787"><ele>1225.75</ele><time>2026-04-25T11:16:42.002Z</time></trkpt><trkpt lat="45.9877904923332" lon="9.148876486306905"><ele>1224.0</ele><time>2026-04-25T11:16:43.002Z</time></trkpt><trkpt lat="45.98778831405111" lon="9.14868560028275"><ele>1223.5</ele><time>2026-04-25T11:16:44.002Z</time></trkpt><trkpt lat="45.987785413034814" lon="9.148494553802259"><ele>1223.0</ele><time>2026-04-25T11:16:45.002Z</time></trkpt><trkpt lat="45.98778459002912" lon="9.148301371949742"><ele>1222.5</ele><time>2026-04-25T11:16:46.002Z</time></trkpt><trkpt lat="45.98779219440931" lon="9.148112865542254"><ele>1222.0</ele><time>2026-04-25T11:16:47.002Z</time></trkpt><trkpt lat="45.987810275332585" lon="9.147925138243316"><ele>1223.5</ele><time>2026-04-25T11:16:48.002Z</time></trkpt><trkpt lat="45.98783056512805" lon="9.147741096789764"><ele>1225.0</ele><time>2026-04-25T11:16:49.002Z</time></trkpt><trkpt lat="45.98784905772914" lon="9.147565408716147"><ele>1226.5</ele><time>2026-04-25T11:16:50.002Z</time></trkpt><trkpt lat="45.98786294093255" lon="9.147395491390878"><ele>1228.0</ele><time>2026-04-25T11:16:51.002Z</time></trkpt><trkpt lat="45.9878777110513" lon="9.147226077415594"><ele>1229.4</ele><time>2026-04-25T11:16:52.002Z</time></trkpt><trkpt lat="45.987893122740644" lon="9.147070944469986"><ele>1230.8</ele><time>2026-04-25T11:16:53.002Z</time></trkpt><trkpt lat="45.98789214596887" lon="9.14693756650574"><ele>1232.2</ele><time>2026-04-25T11:16:54.002Z</time></trkpt><trkpt lat="45.98788801010184" lon="9.14680973237165"><ele>1233.6</ele><time>2026-04-25T11:16:55.002Z</time></trkpt><trkpt lat="45.98788726775834" lon="9.146674988038562"><ele>1235.0</ele><time>2026-04-25T11:16:56.002Z</time></trkpt><trkpt lat="45.98785681476087" lon="9.146530114323077"><ele>1235.25</ele><time>2026-04-25T11:16:57.002Z</time></trkpt><trkpt lat="45.98781949152406" lon="9.146389975444476"><ele>1235.5</ele><time>2026-04-25T11:16:58Z</time></trkpt><trkpt lat="45.98778180090808" lon="9.146233076084325"><ele>1235.75</ele><time>2026-04-25T11:16:59Z</time></trkpt><trkpt lat="45.987788358066624" lon="9.146052642178779"><ele>1236.0</ele><time>2026-04-25T11:17:00Z</time></trkpt><trkpt lat="45.98779623678253" lon="9.145856431103297"><ele>1237.75</ele><time>2026-04-25T11:17:01Z</time></trkpt><trkpt lat="45.98778898855016" lon="9.145649167918288"><ele>1239.5</ele><time>2026-04-25T11:17:02Z</time></trkpt><trkpt lat="45.987786623208486" lon="9.145437793491164"><ele>1241.25</ele><time>2026-04-25T11:17:03Z</time></trkpt><trkpt lat="45.9877879109402" lon="9.14522757455555"><ele>1243.0</ele><time>2026-04-25T11:17:04Z</time></trkpt><trkpt lat="45.98780521056798" lon="9.145036303986382"><ele>1242.4</ele><time>2026-04-25T11:17:05Z</time></trkpt><trkpt lat="45.98780173912216" lon="9.144874827796713"><ele>1241.8</ele><time>2026-04-25T11:17:06Z</time></trkpt><trkpt lat="45.98778652779319" lon="9.144712118454631"><ele>1241.2</ele><time>2026-04-25T11:17:07Z</time></trkpt><trkpt lat="45.987766824537694" lon="9.144566241939481"><ele>1240.6</ele><time>2026-04-25T11:17:08Z</time></trkpt><trkpt lat="45.98773251597383" lon="9.14441075305414"><ele>1240.0</ele><time>2026-04-25T11:17:09Z</time></trkpt><trkpt lat="45.98771031066718" lon="9.144260941863115"><ele>1240.0</ele><time>2026-04-25T11:17:10Z</time></trkpt><trkpt lat="45.98766820120391" lon="9.144110030944411"><ele>1240.0</ele><time>2026-04-25T11:17:11Z</time></trkpt><trkpt lat="45.98762199192669" lon="9.143953195680696"><ele>1240.0</ele><time>2026-04-25T11:17:12Z</time></trkpt><trkpt lat="45.987573425670334" lon="9.143797596358091"><ele>1240.0</ele><time>2026-04-25T11:17:13Z</time></trkpt><trkpt lat="45.98751067646825" lon="9.143656364512672"><ele>1243.5</ele><time>2026-04-25T11:17:14Z</time></trkpt><trkpt lat="45.98743665526714" lon="9.143518090619999"><ele>1247.0</ele><time>2026-04-25T11:17:15Z</time></trkpt><trkpt lat="45.98736472300478" lon="9.143375630747967"><ele>1250.5</ele><time>2026-04-25T11:17:16Z</time></trkpt><trkpt lat="45.987288039401925" lon="9.143240789494472"><ele>1254.0</ele><time>2026-04-25T11:17:17Z</time></trkpt><trkpt lat="45.987217070469285" lon="9.14309514777415"><ele>1254.0</ele><time>2026-04-25T11:17:18Z</time></trkpt><trkpt lat="45.98714679094211" lon="9.142955175045511"><ele>1254.0</ele><time>2026-04-25T11:17:19Z</time></trkpt><trkpt lat="45.9870815946725" lon="9.142849367252456"><ele>1254.0</ele><time>2026-04-25T11:17:20Z</time></trkpt><trkpt lat="45.98703927249726" lon="9.142728935035267"><ele>1254.0</ele><time>2026-04-25T11:17:21Z</time></trkpt><trkpt lat="45.98698766024942" lon="9.142612868628888"><ele>1254.0</ele><time>2026-04-25T11:17:22Z</time></trkpt><trkpt lat="45.98692160099866" lon="9.142522003354678"><ele>1254.0</ele><time>2026-04-25T11:17:23Z</time></trkpt><trkpt lat="45.986856434526665" lon="9.142396341276603"><ele>1254.0</ele><time>2026-04-25T11:17:24Z</time></trkpt><trkpt lat="45.986783580260024" lon="9.142308293682746"><ele>1254.0</ele><time>2026-04-25T11:17:25Z</time></trkpt><trkpt lat="45.986706223363164" lon="9.142231758415065"><ele>1254.0</ele><time>2026-04-25T11:17:26Z</time></trkpt><trkpt lat="45.98663321941376" lon="9.142166944389103"><ele>1254.0</ele><time>2026-04-25T11:17:27Z</time></trkpt><trkpt lat="45.98654349666058" lon="9.142099102353622"><ele>1257.25</ele><time>2026-04-25T11:17:28Z</time></trkpt><trkpt lat="45.98644210946091" lon="9.142016313383392"><ele>1260.5</ele><time>2026-04-25T11:17:29Z</time></trkpt><trkpt lat="45.98633399939033" lon="9.141945623278001"><ele>1263.75</ele><time>2026-04-25T11:17:30Z</time></trkpt><trkpt lat="45.98623534920447" lon="9.141859419531507"><ele>1267.0</ele><time>2026-04-25T11:17:31Z</time></trkpt><trkpt lat="45.9861230163541" lon="9.141780756320308"><ele>1267.0</ele><time>2026-04-25T11:17:32Z</time></trkpt><trkpt lat="45.986012048268684" lon="9.141672017463316"><ele>1267.0</ele><time>2026-04-25T11:17:33Z</time></trkpt><trkpt lat="45.98588403858164" lon="9.141573127935692"><ele>1267.0</ele><time>2026-04-25T11:17:34.001Z</time></trkpt><trkpt lat="45.98575980883342" lon="9.141467653824755"><ele>1267.0</ele><time>2026-04-25T11:17:35.001Z</time></trkpt><trkpt lat="45.98564610051091" lon="9.141371333938228"><ele>1267.25</ele><time>2026-04-25T11:17:36.001Z</time></trkpt><trkpt lat="45.98552064560087" lon="9.141266478595947"><ele>1267.5</ele><time>2026-04-25T11:17:37.001Z</time></trkpt><trkpt lat="45.98541968104643" lon="9.141187098096522"><ele>1267.75</ele><time>2026-04-25T11:17:38.001Z</time></trkpt><trkpt lat="45.98532081430133" lon="9.14111726221015"><ele>1268.0</ele><time>2026-04-25T11:17:39.001Z</time></trkpt><trkpt lat="45.9852187294915" lon="9.141040346679327"><ele>1268.0</ele><time>2026-04-25T11:17:40.001Z</time></trkpt><trkpt lat="45.985101817502056" lon="9.140979448439838"><ele>1268.0</ele><time>2026-04-25T11:17:41.001Z</time></trkpt><trkpt lat="45.98503002935138" lon="9.140922460837304"><ele>1268.0</ele><time>2026-04-25T11:17:42.001Z</time></trkpt><trkpt lat="45.98496327566248" lon="9.14084632523575"><ele>1268.0</ele><time>2026-04-25T11:17:43.001Z</time></trkpt><trkpt lat="45.98490459891507" lon="9.140702819033828"><ele>1268.0</ele><time>2026-04-25T11:17:45.001Z</time></trkpt><trkpt lat="45.984872283728265" lon="9.14062024447291"><ele>1269.8</ele><time>2026-04-25T11:17:46.001Z</time></trkpt><trkpt lat="45.98484720316898" lon="9.140492931987175"><ele>1271.6</ele><time>2026-04-25T11:17:47.001Z</time></trkpt><trkpt lat="45.9848204466431" lon="9.140337823559488"><ele>1273.4</ele><time>2026-04-25T11:17:48.001Z</time></trkpt><trkpt lat="45.98477984513839" lon="9.140166308076944"><ele>1275.2</ele><time>2026-04-25T11:17:49.001Z</time></trkpt><trkpt lat="45.98475768596832" lon="9.14001202906659"><ele>1277.0</ele><time>2026-04-25T11:17:50.001Z</time></trkpt><trkpt lat="45.98471655179184" lon="9.139833909818512"><ele>1277.0</ele><time>2026-04-25T11:17:51.001Z</time></trkpt><trkpt lat="45.98467509579319" lon="9.139679023289265"><ele>1277.0</ele><time>2026-04-25T11:17:52.001Z</time></trkpt><trkpt lat="45.98465179187875" lon="9.13957426983057"><ele>1277.0</ele><time>2026-04-25T11:17:53.001Z</time></trkpt><trkpt lat="45.984568824868006" lon="9.139434200980514"><ele>1277.0</ele><time>2026-04-25T11:17:54.001Z</time></trkpt><trkpt lat="45.984516472080166" lon="9.139309432720495"><ele>1277.0</ele><time>2026-04-25T11:17:55.001Z</time></trkpt><trkpt lat="45.98445945135092" lon="9.139214549755359"><ele>1277.0</ele><time>2026-04-25T11:17:56.001Z</time></trkpt><trkpt lat="45.98441589584133" lon="9.13911613710641"><ele>1277.0</ele><time>2026-04-25T11:17:57.001Z</time></trkpt><trkpt lat="45.98434975675458" lon="9.139039824832214"><ele>1277.0</ele><time>2026-04-25T11:17:58.001Z</time></trkpt><trkpt lat="45.98426732038162" lon="9.138947812269425"><ele>1277.0</ele><time>2026-04-25T11:17:59.001Z</time></trkpt><trkpt lat="45.98417760540367" lon="9.13887620187766"><ele>1277.0</ele><time>2026-04-25T11:18:00.001Z</time></trkpt><trkpt lat="45.98408944166703" lon="9.138808471757052"><ele>1281.5</ele><time>2026-04-25T11:18:01.001Z</time></trkpt><trkpt lat="45.984019375393984" lon="9.138709781278841"><ele>1286.0</ele><time>2026-04-25T11:18:02.001Z</time></trkpt><trkpt lat="45.98392099401687" lon="9.138626846476082"><ele>1290.5</ele><time>2026-04-25T11:18:03.001Z</time></trkpt><trkpt lat="45.9837627603412" lon="9.138529095308892"><ele>1295.0</ele><time>2026-04-25T11:18:04.001Z</time></trkpt><trkpt lat="45.98363730823105" lon="9.138469263563236"><ele>1295.0</ele><time>2026-04-25T11:18:05.001Z</time></trkpt><trkpt lat="45.98351764063263" lon="9.138390697656575"><ele>1295.0</ele><time>2026-04-25T11:18:06.001Z</time></trkpt><trkpt lat="45.98340613468401" lon="9.138354719279455"><ele>1295.0</ele><time>2026-04-25T11:18:07.001Z</time></trkpt><trkpt lat="45.98331524169813" lon="9.138298129012707"><ele>1295.0</ele><time>2026-04-25T11:18:08.001Z</time></trkpt><trkpt lat="45.983233900777414" lon="9.13824870290113"><ele>1295.0</ele><time>2026-04-25T11:18:09.001Z</time></trkpt><trkpt lat="45.983149666179855" lon="9.138223792411706"><ele>1295.3333333333335</ele><time>2026-04-25T11:18:10.001Z</time></trkpt><trkpt lat="45.98308047078588" lon="9.138175438985792"><ele>1295.6666666666667</ele><time>2026-04-25T11:18:11.001Z</time></trkpt><trkpt lat="45.982991934986885" lon="9.138164963923607"><ele>1296.0</ele><time>2026-04-25T11:18:12.001Z</time></trkpt><trkpt lat="45.98289121407866" lon="9.138188323650303"><ele>1296.3333333333333</ele><time>2026-04-25T11:18:13.001Z</time></trkpt><trkpt lat="45.982813640253184" lon="9.138175378595392"><ele>1296.6666666666665</ele><time>2026-04-25T11:18:14.001Z</time></trkpt><trkpt lat="45.98274658638601" lon="9.138171534969068"><ele>1297.0</ele><time>2026-04-25T11:18:15.001Z</time></trkpt><trkpt lat="45.982652298512434" lon="9.138054684401913"><ele>1297.0</ele><time>2026-04-25T11:18:17.002Z</time></trkpt><trkpt lat="45.982580338902636" lon="9.137955270180035"><ele>1297.0</ele><time>2026-04-25T11:18:18.002Z</time></trkpt><trkpt lat="45.98250518563065" lon="9.137848435311334"><ele>1297.0</ele><time>2026-04-25T11:18:19.002Z</time></trkpt><trkpt lat="45.98242719311602" lon="9.13775539260864"><ele>1297.0</ele><time>2026-04-25T11:18:20.002Z</time></trkpt><trkpt lat="45.98234491462956" lon="9.137671403816903"><ele>1297.0</ele><time>2026-04-25T11:18:21.002Z</time></trkpt><trkpt lat="45.982285914696554" lon="9.137605148809202"><ele>1298.5</ele><time>2026-04-25T11:18:22.002Z</time></trkpt><trkpt lat="45.982229575819424" lon="9.137539535694728"><ele>1300.0</ele><time>2026-04-25T11:18:23.002Z</time></trkpt><trkpt lat="45.98217378936534" lon="9.137455273269847"><ele>1301.5</ele><time>2026-04-25T11:18:24.002Z</time></trkpt><trkpt lat="45.98210866169891" lon="9.137367933337911"><ele>1303.0</ele><time>2026-04-25T11:18:25.002Z</time></trkpt><trkpt lat="45.98205090154355" lon="9.137310205108127"><ele>1304.5</ele><time>2026-04-25T11:18:26.002Z</time></trkpt><trkpt lat="45.981959431986944" lon="9.137280038699197"><ele>1306.0</ele><time>2026-04-25T11:18:27.002Z</time></trkpt><trkpt lat="45.981874167215466" lon="9.137245147850699"><ele>1305.8</ele><time>2026-04-25T11:18:28.002Z</time></trkpt><trkpt lat="45.981776584102434" lon="9.1371946526546"><ele>1305.6</ele><time>2026-04-25T11:18:29.002Z</time></trkpt><trkpt lat="45.981675686415215" lon="9.137142880757303"><ele>1305.4</ele><time>2026-04-25T11:18:30.002Z</time></trkpt><trkpt lat="45.98157256676879" lon="9.137097139835928"><ele>1305.2</ele><time>2026-04-25T11:18:31.002Z</time></trkpt><trkpt lat="45.98146564733543" lon="9.137046988235781"><ele>1305.0</ele><time>2026-04-25T11:18:32.002Z</time></trkpt><trkpt lat="45.98136856702032" lon="9.137005018891376"><ele>1304.9999999999998</ele><time>2026-04-25T11:18:33.002Z</time></trkpt><trkpt lat="45.98128463767625" lon="9.136967662375893"><ele>1305.0</ele><time>2026-04-25T11:18:34.002Z</time></trkpt><trkpt lat="45.98120724409664" lon="9.136927313871437"><ele>1305.0</ele><time>2026-04-25T11:18:35.002Z</time></trkpt><trkpt lat="45.98113949135325" lon="9.136898378513118"><ele>1305.0</ele><time>2026-04-25T11:18:36.002Z</time></trkpt><trkpt lat="45.98107462191845" lon="9.136866474137358"><ele>1305.0</ele><time>2026-04-25T11:18:37.002Z</time></trkpt><trkpt lat="45.98101019813752" lon="9.136841727937357"><ele>1304.9999999999998</ele><time>2026-04-25T11:18:38.002Z</time></trkpt><trkpt lat="45.98094470811256" lon="9.136830302417778"><ele>1305.0</ele><time>2026-04-25T11:18:39.002Z</time></trkpt><trkpt lat="45.98087899300138" lon="9.136821596367563"><ele>1309.5</ele><time>2026-04-25T11:18:40.002Z</time></trkpt><trkpt lat="45.98076406354161" lon="9.136791835775607"><ele>1314.0</ele><time>2026-04-25T11:18:42.002Z</time></trkpt><trkpt lat="45.98065011688112" lon="9.136752027523976"><ele>1318.5</ele><time>2026-04-25T11:18:44.002Z</time></trkpt><trkpt lat="45.98052654268596" lon="9.136726270701201"><ele>1323.0</ele><time>2026-04-25T11:18:46.002Z</time></trkpt><trkpt lat="45.980392684036545" lon="9.136712623979617"><ele>1323.0</ele><time>2026-04-25T11:18:48.002Z</time></trkpt><trkpt lat="45.98032004036326" lon="9.136691593506102"><ele>1323.0</ele><time>2026-04-25T11:18:49.002Z</time></trkpt><trkpt lat="45.98025571867664" lon="9.136649795091053"><ele>1323.0</ele><time>2026-04-25T11:18:50.002Z</time></trkpt><trkpt lat="45.980203722282866" lon="9.136588265589648"><ele>1323.0</ele><time>2026-04-25T11:18:51.002Z</time></trkpt><trkpt lat="45.98017262845092" lon="9.136486388343203"><ele>1323.0</ele><time>2026-04-25T11:18:52.002Z</time></trkpt><trkpt lat="45.98012973727041" lon="9.1364128988291"><ele>1323.0</ele><time>2026-04-25T11:18:53.002Z</time></trkpt><trkpt lat="45.98009985642048" lon="9.136331638039307"><ele>1323.0</ele><time>2026-04-25T11:18:54.002Z</time></trkpt><trkpt lat="45.98006546441843" lon="9.136250256518965"><ele>1324.6666666666667</ele><time>2026-04-25T11:18:55.002Z</time></trkpt><trkpt lat="45.98001430398677" lon="9.136165784421522"><ele>1326.3333333333333</ele><time>2026-04-25T11:18:56.002Z</time></trkpt><trkpt lat="45.979968851495656" lon="9.136075479477736"><ele>1328.0</ele><time>2026-04-25T11:18:57.002Z</time></trkpt><trkpt lat="45.97990224070429" lon="9.136009792884787"><ele>1329.6666666666665</ele><time>2026-04-25T11:18:58.002Z</time></trkpt><trkpt lat="45.979823828509" lon="9.135982878961554"><ele>1331.3333333333333</ele><time>2026-04-25T11:18:59.002Z</time></trkpt><trkpt lat="45.97975748132688" lon="9.135962160948237"><ele>1333.0</ele><time>2026-04-25T11:19:00.003Z</time></trkpt><trkpt lat="45.97968014015749" lon="9.13594072755158"><ele>1333.0</ele><time>2026-04-25T11:19:01.003Z</time></trkpt><trkpt lat="45.979592930991394" lon="9.13597143143761"><ele>1333.0</ele><time>2026-04-25T11:19:02.003Z</time></trkpt><trkpt lat="45.97949894869047" lon="9.135999019579806"><ele>1333.0</ele><time>2026-04-25T11:19:03.003Z</time></trkpt><trkpt lat="45.97941836550826" lon="9.136050286775621"><ele>1333.0</ele><time>2026-04-25T11:19:04Z</time></trkpt><trkpt lat="45.97933873394421" lon="9.136063624595778"><ele>1333.0</ele><time>2026-04-25T11:19:05Z</time></trkpt><trkpt lat="45.979267373521324" lon="9.136038027435076"><ele>1333.0</ele><time>2026-04-25T11:19:06Z</time></trkpt><trkpt lat="45.979201236926244" lon="9.136036148554311"><ele>1331.4</ele><time>2026-04-25T11:19:07Z</time></trkpt><trkpt lat="45.97913056250054" lon="9.136047148883788"><ele>1329.8000000000002</ele><time>2026-04-25T11:19:08Z</time></trkpt><trkpt lat="45.97900713918551" lon="9.136067845629825"><ele>1328.2</ele><time>2026-04-25T11:19:10Z</time></trkpt><trkpt lat="45.97889441526378" lon="9.1361238256805"><ele>1326.6</ele><time>2026-04-25T11:19:12Z</time></trkpt><trkpt lat="45.97880478782612" lon="9.136152840203879"><ele>1325.0</ele><time>2026-04-25T11:19:14Z</time></trkpt><trkpt lat="45.97874112025593" lon="9.13615413063541"><ele>1325.0</ele><time>2026-04-25T11:19:27.001Z</time></trkpt><trkpt lat="45.978679565924324" lon="9.136173281027439"><ele>1325.0</ele><time>2026-04-25T11:19:29.001Z</time></trkpt><trkpt lat="45.97860026398382" lon="9.136192904293257"><ele>1325.0</ele><time>2026-04-25T11:19:32.001Z</time></trkpt><trkpt lat="45.97851979721502" lon="9.13621046998531"><ele>1325.0</ele><time>2026-04-25T11:19:35.001Z</time></trkpt><trkpt lat="45.978481587023914" lon="9.136129999206135"><ele>1325.0</ele><time>2026-04-25T11:19:39.001Z</time></trkpt><trkpt lat="45.97835384873767" lon="9.136215747457523"><ele>1325.0</ele><time>2026-04-25T11:19:44.001Z</time></trkpt><trkpt lat="45.97830340760834" lon="9.136270430668274"><ele>1325.0</ele><time>2026-04-25T11:19:47.001Z</time></trkpt><trkpt lat="45.97823221218022" lon="9.136283333667699"><ele>1325.0</ele><time>2026-04-25T11:19:51.001Z</time></trkpt><trkpt lat="45.97815668226298" lon="9.136297409787243"><ele>1325.0</ele><time>2026-04-25T11:20:25.002Z</time></trkpt><trkpt lat="45.97822009710462" lon="9.13626426151139"><ele>1325.0</ele><time>2026-04-25T11:23:17.003Z</time></trkpt><trkpt lat="45.97828562243156" lon="9.136255415001541"><ele>1325.0</ele><time>2026-04-25T11:23:38.002Z</time></trkpt><trkpt lat="45.97835073106985" lon="9.136242387678262"><ele>1325.0</ele><time>2026-04-25T11:23:42.002Z</time></trkpt><trkpt lat="45.978409002550876" lon="9.13617780130319"><ele>1325.0</ele><time>2026-04-25T11:23:49.002Z</time></trkpt><trkpt lat="45.97847077798734" lon="9.136141292226984"><ele>1325.0</ele><time>2026-04-25T11:23:54.002Z</time></trkpt><trkpt lat="45.97848543080377" lon="9.13605152583501"><ele>1325.0</ele><time>2026-04-25T11:24:09.002Z</time></trkpt><trkpt lat="45.97850866128951" lon="9.135967093627324"><ele>1325.0</ele><time>2026-04-25T11:24:16.002Z</time></trkpt><trkpt lat="45.97843582978367" lon="9.135947965406173"><ele>1325.0</ele><time>2026-04-25T11:25:21.002Z</time></trkpt><trkpt lat="45.97851007370928" lon="9.135947745202957"><ele>1325.0</ele><time>2026-04-25T11:25:44.002Z</time></trkpt><trkpt lat="45.97858851000956" lon="9.135951966411282"><ele>1325.0</ele><time>2026-04-25T11:25:57.001Z</time></trkpt><trkpt lat="45.97865761940955" lon="9.135949575126944"><ele>1325.0</ele><time>2026-04-25T11:26:03.001Z</time></trkpt><trkpt lat="45.978616280524335" lon="9.135848321029112"><ele>1325.0</ele><time>2026-04-25T11:26:12.001Z</time></trkpt><trkpt lat="45.97853886714562" lon="9.135882595815467"><ele>1325.0</ele><time>2026-04-25T11:28:32.002Z</time></trkpt><trkpt lat="45.97847153586196" lon="9.135889892670384"><ele>1325.0</ele><time>2026-04-25T11:28:47.001Z</time></trkpt><trkpt lat="45.978416193803" lon="9.135941106585992"><ele>1325.0</ele><time>2026-04-25T11:28:55.001Z</time></trkpt><trkpt lat="45.97835982438102" lon="9.136056147461607"><ele>1325.0</ele><time>2026-04-25T12:16:37Z</time></trkpt><trkpt lat="45.97838570863382" lon="9.135958521302143"><ele>1325.0</ele><time>2026-04-25T12:18:20.999Z</time></trkpt><trkpt lat="45.97844354939486" lon="9.135913232967773"><ele>1325.0</ele><time>2026-04-25T12:18:25.999Z</time></trkpt><trkpt lat="45.97851018843487" lon="9.135905135067683"><ele>1325.0</ele><time>2026-04-25T12:18:31.999Z</time></trkpt><trkpt lat="45.978454615297835" lon="9.135951585209593"><ele>1325.0</ele><time>2026-04-25T12:20:38.999Z</time></trkpt><trkpt lat="45.97843063936099" lon="9.136038980372742"><ele>1325.0</ele><time>2026-04-25T12:21:13Z</time></trkpt><trkpt lat="45.978407471461445" lon="9.136124305916686"><ele>1325.0</ele><time>2026-04-25T12:21:18Z</time></trkpt><trkpt lat="45.97836912389438" lon="9.136196400842067"><ele>1325.0</ele><time>2026-04-25T12:21:24Z</time></trkpt><trkpt lat="45.97830549124287" lon="9.136253501942766"><ele>1325.0</ele><time>2026-04-25T12:21:28Z</time></trkpt><trkpt lat="45.97824237367847" lon="9.136284476363695"><ele>1325.0</ele><time>2026-04-25T12:21:33Z</time></trkpt><trkpt lat="45.97816638777363" lon="9.136258270582362"><ele>1325.0</ele><time>2026-04-25T12:21:43Z</time></trkpt><trkpt lat="45.97823324127385" lon="9.136236243068021"><ele>1325.0</ele><time>2026-04-25T12:27:27.999Z</time></trkpt><trkpt lat="45.97831411968963" lon="9.136250527336637"><ele>1325.0</ele><time>2026-04-25T12:27:31.999Z</time></trkpt><trkpt lat="45.978392041315324" lon="9.136189841176783"><ele>1325.0</ele><time>2026-04-25T12:27:34.999Z</time></trkpt><trkpt lat="45.978433894541396" lon="9.136082659696552"><ele>1325.0</ele><time>2026-04-25T12:27:37.999Z</time></trkpt><trkpt lat="45.97843286253975" lon="9.135969439995698"><ele>1325.0</ele><time>2026-04-25T12:27:40.999Z</time></trkpt><trkpt lat="45.97844639692559" lon="9.135851597664521"><ele>1325.0</ele><time>2026-04-25T12:27:43.999Z</time></trkpt><trkpt lat="45.978475292306314" lon="9.135744343204756"><ele>1325.0</ele><time>2026-04-25T12:28:58.999Z</time></trkpt><trkpt lat="45.97850562294265" lon="9.135634369659961"><ele>1325.0</ele><time>2026-04-25T12:29:01.999Z</time></trkpt><trkpt lat="45.97855432793667" lon="9.135544395504898"><ele>1325.0</ele><time>2026-04-25T12:29:03.999Z</time></trkpt><trkpt lat="45.97859884438977" lon="9.135465007312076"><ele>1325.0</ele><time>2026-04-25T12:29:05.999Z</time></trkpt><trkpt lat="45.978651071855005" lon="9.135390430499031"><ele>1325.3333333333335</ele><time>2026-04-25T12:29:07.996Z</time></trkpt><trkpt lat="45.9787179493694" lon="9.135298368170536"><ele>1325.6666666666667</ele><time>2026-04-25T12:29:10.997Z</time></trkpt><trkpt lat="45.97877164847582" lon="9.135218218057256"><ele>1326.0</ele><time>2026-04-25T12:29:12.997Z</time></trkpt><trkpt lat="45.97882707652062" lon="9.135143797002051"><ele>1326.3333333333333</ele><time>2026-04-25T12:29:14.997Z</time></trkpt><trkpt lat="45.97887880650027" lon="9.135078307465816"><ele>1326.6666666666665</ele><time>2026-04-25T12:29:16.997Z</time></trkpt><trkpt lat="45.978937044269735" lon="9.135001406408053"><ele>1327.0</ele><time>2026-04-25T12:29:19.997Z</time></trkpt><trkpt lat="45.97898120510972" lon="9.134923681724274"><ele>1329.6</ele><time>2026-04-25T12:29:21.997Z</time></trkpt><trkpt lat="45.97903460888026" lon="9.134843430412964"><ele>1332.1999999999998</ele><time>2026-04-25T12:29:22.997Z</time></trkpt><trkpt lat="45.97909812781666" lon="9.134757894984315"><ele>1334.8</ele><time>2026-04-25T12:29:23.998Z</time></trkpt><trkpt lat="45.979160792023634" lon="9.134654786497983"><ele>1337.4</ele><time>2026-04-25T12:29:24.998Z</time></trkpt><trkpt lat="45.97923481543568" lon="9.134521656338013"><ele>1340.0</ele><time>2026-04-25T12:29:25.998Z</time></trkpt><trkpt lat="45.97931100916627" lon="9.134382787150264"><ele>1340.0</ele><time>2026-04-25T12:29:26.998Z</time></trkpt><trkpt lat="45.97938232863992" lon="9.13425274359841"><ele>1340.0</ele><time>2026-04-25T12:29:27.998Z</time></trkpt><trkpt lat="45.97946926894448" lon="9.13412328819714"><ele>1340.0</ele><time>2026-04-25T12:29:28.998Z</time></trkpt><trkpt lat="45.97954083459823" lon="9.133983093902058"><ele>1340.0</ele><time>2026-04-25T12:29:29.998Z</time></trkpt><trkpt lat="45.97960229027418" lon="9.133859041225556"><ele>1340.0</ele><time>2026-04-25T12:29:30.998Z</time></trkpt><trkpt lat="45.97965589261959" lon="9.13374896831698"><ele>1340.0</ele><time>2026-04-25T12:29:31.998Z</time></trkpt><trkpt lat="45.97969392530757" lon="9.133663958411619"><ele>1340.0</ele><time>2026-04-25T12:29:32.998Z</time></trkpt><trkpt lat="45.979752323482714" lon="9.133547480397693"><ele>1340.0</ele><time>2026-04-25T12:29:34.998Z</time></trkpt><trkpt lat="45.97977898157855" lon="9.13344488821921"><ele>1340.0</ele><time>2026-04-25T12:29:36.998Z</time></trkpt><trkpt lat="45.97976809399727" lon="9.133350912748396"><ele>1340.0</ele><time>2026-04-25T12:29:37.998Z</time></trkpt><trkpt lat="45.97971810993452" lon="9.133265055828502"><ele>1342.3333333333335</ele><time>2026-04-25T12:29:38.998Z</time></trkpt><trkpt lat="45.979659629648815" lon="9.133210773740098"><ele>1344.6666666666667</ele><time>2026-04-25T12:29:39.998Z</time></trkpt><trkpt lat="45.97960902055636" lon="9.133155892380783"><ele>1347.0</ele><time>2026-04-25T12:29:40.998Z</time></trkpt><trkpt lat="45.979528987110584" lon="9.133009962029812"><ele>1349.3333333333333</ele><time>2026-04-25T12:29:42.998Z</time></trkpt><trkpt lat="45.97948693167783" lon="9.13290882236548"><ele>1351.6666666666665</ele><time>2026-04-25T12:29:43.998Z</time></trkpt><trkpt lat="45.97945663568372" lon="9.13280077136798"><ele>1354.0</ele><time>2026-04-25T12:29:44.998Z</time></trkpt><trkpt lat="45.97943861948612" lon="9.13268787720779"><ele>1354.0</ele><time>2026-04-25T12:29:45.998Z</time></trkpt><trkpt lat="45.9794251263401" lon="9.13256167939252"><ele>1354.0</ele><time>2026-04-25T12:29:46.998Z</time></trkpt><trkpt lat="45.979409136239745" lon="9.132434309535903"><ele>1354.0</ele><time>2026-04-25T12:29:47.999Z</time></trkpt><trkpt lat="45.97937907283216" lon="9.132291367473748"><ele>1354.0</ele><time>2026-04-25T12:29:48.999Z</time></trkpt><trkpt lat="45.97933852622643" lon="9.1321601405704"><ele>1354.0</ele><time>2026-04-25T12:29:49.999Z</time></trkpt><trkpt lat="45.97929520050029" lon="9.132036188422108"><ele>1355.8333333333333</ele><time>2026-04-25T12:29:50.999Z</time></trkpt><trkpt lat="45.97925411569419" lon="9.131926675998647"><ele>1357.6666666666665</ele><time>2026-04-25T12:29:51.999Z</time></trkpt><trkpt lat="45.979214492089035" lon="9.131829098194851"><ele>1359.5</ele><time>2026-04-25T12:29:52.999Z</time></trkpt><trkpt lat="45.97917663684489" lon="9.131739924418213"><ele>1361.3333333333333</ele><time>2026-04-25T12:29:53.999Z</time></trkpt><trkpt lat="45.97913898127434" lon="9.131641748387388"><ele>1363.1666666666667</ele><time>2026-04-25T12:29:54.999Z</time></trkpt><trkpt lat="45.97909185649137" lon="9.131543360490495"><ele>1365.0</ele><time>2026-04-25T12:29:55.999Z</time></trkpt><trkpt lat="45.97906705341464" lon="9.131424980410772"><ele>1357.8333333333333</ele><time>2026-04-25T12:29:56.999Z</time></trkpt><trkpt lat="45.97906589817454" lon="9.131305445025813"><ele>1350.6666666666667</ele><time>2026-04-25T12:29:57.999Z</time></trkpt><trkpt lat="45.979051202687714" lon="9.131192254156613"><ele>1343.5</ele><time>2026-04-25T12:29:58.999Z</time></trkpt><trkpt lat="45.97902081558675" lon="9.131076444038188"><ele>1336.3333333333335</ele><time>2026-04-25T12:29:59.999Z</time></trkpt><trkpt lat="45.97900713350624" lon="9.130957173395199"><ele>1329.1666666666667</ele><time>2026-04-25T12:30:00.999Z</time></trkpt><trkpt lat="45.978977472549914" lon="9.130835607394092"><ele>1322.0</ele><time>2026-04-25T12:30:01.999Z</time></trkpt><trkpt lat="45.9789381582624" lon="9.130756905226965"><ele>1327.1999999999998</ele><time>2026-04-25T12:30:02.999Z</time></trkpt><trkpt lat="45.9788885128934" lon="9.130670650116315"><ele>1332.4</ele><time>2026-04-25T12:30:03.999Z</time></trkpt><trkpt lat="45.9788349841338" lon="9.13056189815944"><ele>1337.6</ele><time>2026-04-25T12:30:04.999Z</time></trkpt><trkpt lat="45.97875014592317" lon="9.130453719182833"><ele>1342.8000000000002</ele><time>2026-04-25T12:30:05.999Z</time></trkpt><trkpt lat="45.9786687347907" lon="9.130361015913257"><ele>1348.0</ele><time>2026-04-25T12:30:06.999Z</time></trkpt><trkpt lat="45.978581042884166" lon="9.13026553548188"><ele>1348.0</ele><time>2026-04-25T12:30:07.999Z</time></trkpt><trkpt lat="45.978501360625025" lon="9.130179856219396"><ele>1348.0</ele><time>2026-04-25T12:30:08.999Z</time></trkpt><trkpt lat="45.97842042417572" lon="9.1301143727497"><ele>1348.0</ele><time>2026-04-25T12:30:09.999Z</time></trkpt><trkpt lat="45.978329476014565" lon="9.130040150132528"><ele>1348.0</ele><time>2026-04-25T12:30:10.999Z</time></trkpt><trkpt lat="45.97824618339742" lon="9.129960721214673"><ele>1348.0</ele><time>2026-04-25T12:30:11.999Z</time></trkpt><trkpt lat="45.978169303864874" lon="9.129899241914119"><ele>1342.4</ele><time>2026-04-25T12:30:12.999Z</time></trkpt><trkpt lat="45.97811000498005" lon="9.12983822790809"><ele>1336.8000000000002</ele><time>2026-04-25T12:30:13.999Z</time></trkpt><trkpt lat="45.97804683660436" lon="9.12979155145778"><ele>1331.2</ele><time>2026-04-25T12:30:14.999Z</time></trkpt><trkpt lat="45.97798538756655" lon="9.129664713354527"><ele>1325.6</ele><time>2026-04-25T12:30:16.999Z</time></trkpt><trkpt lat="45.977972376826756" lon="9.129512447556003"><ele>1320.0</ele><time>2026-04-25T12:30:18.999Z</time></trkpt><trkpt lat="45.97795696638872" lon="9.12931707405566"><ele>1320.0</ele><time>2026-04-25T12:30:20.999Z</time></trkpt><trkpt lat="45.97794651004104" lon="9.129224017727621"><ele>1320.0</ele><time>2026-04-25T12:30:21.999Z</time></trkpt><trkpt lat="45.97790273447189" lon="9.129043873603285"><ele>1320.0</ele><time>2026-04-25T12:30:23.999Z</time></trkpt><trkpt lat="45.97784052335525" lon="9.12894667561534"><ele>1320.0</ele><time>2026-04-25T12:30:24.999Z</time></trkpt><trkpt lat="45.97776073252625" lon="9.128857170566876"><ele>1320.0</ele><time>2026-04-25T12:30:25.999Z</time></trkpt><trkpt lat="45.977679100087585" lon="9.128769526124744"><ele>1324.2</ele><time>2026-04-25T12:30:26.999Z</time></trkpt><trkpt lat="45.9775883720564" lon="9.128682673242478"><ele>1328.4</ele><time>2026-04-25T12:30:27.999Z</time></trkpt><trkpt lat="45.97750451751096" lon="9.128607793881354"><ele>1332.6</ele><time>2026-04-25T12:30:28.999Z</time></trkpt><trkpt lat="45.977414342975806" lon="9.128551239979831"><ele>1336.8</ele><time>2026-04-25T12:30:29.999Z</time></trkpt><trkpt lat="45.97733096513895" lon="9.128472137929007"><ele>1341.0</ele><time>2026-04-25T12:30:30.999Z</time></trkpt><trkpt lat="45.97724776599572" lon="9.128420594468519"><ele>1333.1666666666667</ele><time>2026-04-25T12:30:31.999Z</time></trkpt><trkpt lat="45.97716739806562" lon="9.128370017028637"><ele>1325.3333333333333</ele><time>2026-04-25T12:30:32.999Z</time></trkpt><trkpt lat="45.97709249954128" lon="9.128324666068371"><ele>1317.5</ele><time>2026-04-25T12:30:33.999Z</time></trkpt><trkpt lat="45.97702299913121" lon="9.128279929149178"><ele>1309.6666666666665</ele><time>2026-04-25T12:30:34.999Z</time></trkpt><trkpt lat="45.97697858185375" lon="9.1281757773029"><ele>1301.8333333333333</ele><time>2026-04-25T12:30:36.999Z</time></trkpt><trkpt lat="45.97700139706103" lon="9.128023453328856"><ele>1294.0</ele><time>2026-04-25T12:30:38.999Z</time></trkpt><trkpt lat="45.97704026956132" lon="9.127926856583922"><ele>1294.0</ele><time>2026-04-25T12:30:39.999Z</time></trkpt><trkpt lat="45.97708525782279" lon="9.127817577695499"><ele>1294.0</ele><time>2026-04-25T12:30:40.999Z</time></trkpt><trkpt lat="45.97713150828495" lon="9.1276951987876"><ele>1294.0</ele><time>2026-04-25T12:30:41.999Z</time></trkpt><trkpt lat="45.97716920547529" lon="9.12757104802076"><ele>1294.0</ele><time>2026-04-25T12:30:42.999Z</time></trkpt><trkpt lat="45.977199424752634" lon="9.127440164210705"><ele>1294.0</ele><time>2026-04-25T12:30:43.999Z</time></trkpt><trkpt lat="45.977221798459986" lon="9.127306886609723"><ele>1291.0</ele><time>2026-04-25T12:30:44.999Z</time></trkpt><trkpt lat="45.97722254863746" lon="9.12717051302829"><ele>1288.0</ele><time>2026-04-25T12:30:45.999Z</time></trkpt><trkpt lat="45.97724873120369" lon="9.127031299989632"><ele>1285.0</ele><time>2026-04-25T12:30:46.999Z</time></trkpt><trkpt lat="45.97727091931088" lon="9.126848646286"><ele>1282.0</ele><time>2026-04-25T12:30:47.999Z</time></trkpt><trkpt lat="45.97728399188745" lon="9.126687574639961"><ele>1279.0</ele><time>2026-04-25T12:30:48.999Z</time></trkpt><trkpt lat="45.97728973029327" lon="9.126512734024574"><ele>1276.25</ele><time>2026-04-25T12:30:49.999Z</time></trkpt><trkpt lat="45.97730775012016" lon="9.126340771370131"><ele>1273.5</ele><time>2026-04-25T12:30:50.999Z</time></trkpt><trkpt lat="45.97731709440565" lon="9.126174371961602"><ele>1270.75</ele><time>2026-04-25T12:30:51.999Z</time></trkpt><trkpt lat="45.9773227777337" lon="9.126003174132924"><ele>1268.0</ele><time>2026-04-25T12:30:52.999Z</time></trkpt><trkpt lat="45.97732891651381" lon="9.125854982538387"><ele>1269.1666666666667</ele><time>2026-04-25T12:30:53.999Z</time></trkpt><trkpt lat="45.97734347628553" lon="9.12572406074081"><ele>1270.3333333333335</ele><time>2026-04-25T12:30:54.999Z</time></trkpt><trkpt lat="45.977357805343054" lon="9.125599880714887"><ele>1271.5</ele><time>2026-04-25T12:30:55.999Z</time></trkpt><trkpt lat="45.97737829000266" lon="9.125472385012076"><ele>1272.6666666666667</ele><time>2026-04-25T12:30:56.999Z</time></trkpt><trkpt lat="45.977398202536754" lon="9.125367965479553"><ele>1273.8333333333333</ele><time>2026-04-25T12:30:57.999Z</time></trkpt><trkpt lat="45.97741407890488" lon="9.125271934363806"><ele>1275.0</ele><time>2026-04-25T12:30:58.999Z</time></trkpt><trkpt lat="45.97740215993485" lon="9.125163254541226"><ele>1275.0</ele><time>2026-04-25T12:30:59.999Z</time></trkpt><trkpt lat="45.97736797472582" lon="9.125055143534627"><ele>1275.0</ele><time>2026-04-25T12:31:00.999Z</time></trkpt><trkpt lat="45.97730325316646" lon="9.12491863628381"><ele>1275.0</ele><time>2026-04-25T12:31:02.999Z</time></trkpt><trkpt lat="45.97722946503369" lon="9.12486577452111"><ele>1275.0</ele><time>2026-04-25T12:31:03.999Z</time></trkpt><trkpt lat="45.97713915303186" lon="9.124830012850467"><ele>1275.0</ele><time>2026-04-25T12:31:04.999Z</time></trkpt><trkpt lat="45.97703376809843" lon="9.124802179054901"><ele>1273.4</ele><time>2026-04-25T12:31:05.999Z</time></trkpt><trkpt lat="45.976936733939255" lon="9.124787780928738"><ele>1271.8</ele><time>2026-04-25T12:31:06.999Z</time></trkpt><trkpt lat="45.976854691817245" lon="9.124766437544384"><ele>1270.2</ele><time>2026-04-25T12:31:07.999Z</time></trkpt><trkpt lat="45.976753480990205" lon="9.124693813139606"><ele>1268.6</ele><time>2026-04-25T12:31:09.999Z</time></trkpt><trkpt lat="45.97666857635512" lon="9.124610205474086"><ele>1267.0</ele><time>2026-04-25T12:31:11.999Z</time></trkpt><trkpt lat="45.976634978118405" lon="9.124505050454834"><ele>1267.0</ele><time>2026-04-25T12:31:12.996Z</time></trkpt><trkpt lat="45.976566812996914" lon="9.124408096091761"><ele>1267.0</ele><time>2026-04-25T12:31:13.996Z</time></trkpt><trkpt lat="45.976482788764734" lon="9.124332047099506"><ele>1267.0</ele><time>2026-04-25T12:31:14.996Z</time></trkpt><trkpt lat="45.97640392663329" lon="9.124322132297845"><ele>1267.0</ele><time>2026-04-25T12:31:15.996Z</time></trkpt><trkpt lat="45.976334230389455" lon="9.12436257681698"><ele>1267.0</ele><time>2026-04-25T12:31:16.997Z</time></trkpt><trkpt lat="45.97626841814395" lon="9.124421602419718"><ele>1267.0</ele><time>2026-04-25T12:31:17.997Z</time></trkpt><trkpt lat="45.976154082288204" lon="9.124484505255055"><ele>1267.0</ele><time>2026-04-25T12:31:19.997Z</time></trkpt><trkpt lat="45.97604207316622" lon="9.124485618568128"><ele>1267.0</ele><time>2026-04-25T12:31:21.997Z</time></trkpt><trkpt lat="45.97595545516073" lon="9.124481893584232"><ele>1267.0</ele><time>2026-04-25T12:31:22.997Z</time></trkpt><trkpt lat="45.97587529491719" lon="9.124483062585268"><ele>1267.0</ele><time>2026-04-25T12:31:23.997Z</time></trkpt><trkpt lat="45.97579603922241" lon="9.124477384789891"><ele>1267.0</ele><time>2026-04-25T12:31:24.997Z</time></trkpt><trkpt lat="45.97570557072982" lon="9.124415648415248"><ele>1262.5</ele><time>2026-04-25T12:31:26.997Z</time></trkpt><trkpt lat="45.97561365806524" lon="9.12430537724499"><ele>1258.0</ele><time>2026-04-25T12:31:28.997Z</time></trkpt><trkpt lat="45.975557235308614" lon="9.12423627999551"><ele>1253.5</ele><time>2026-04-25T12:31:29.998Z</time></trkpt><trkpt lat="45.9755022253703" lon="9.124170610383862"><ele>1249.0</ele><time>2026-04-25T12:31:30.998Z</time></trkpt><trkpt lat="45.975439258612376" lon="9.124108315525795"><ele>1244.5</ele><time>2026-04-25T12:31:31.998Z</time></trkpt><trkpt lat="45.975341525477376" lon="9.124071383178471"><ele>1240.0</ele><time>2026-04-25T12:31:32.998Z</time></trkpt><trkpt lat="45.97521720447123" lon="9.124083638290088"><ele>1240.0</ele><time>2026-04-25T12:31:33.998Z</time></trkpt><trkpt lat="45.97511618962561" lon="9.124103897325188"><ele>1240.0</ele><time>2026-04-25T12:31:34.998Z</time></trkpt><trkpt lat="45.975030219612165" lon="9.124137773900047"><ele>1240.0</ele><time>2026-04-25T12:31:35.998Z</time></trkpt><trkpt lat="45.97494652155816" lon="9.12417826830876"><ele>1240.0</ele><time>2026-04-25T12:31:36.998Z</time></trkpt><trkpt lat="45.974862666526384" lon="9.1242084868133"><ele>1240.0</ele><time>2026-04-25T12:31:37.998Z</time></trkpt><trkpt lat="45.97479486993575" lon="9.124207947200071"><ele>1240.0</ele><time>2026-04-25T12:31:38.998Z</time></trkpt><trkpt lat="45.97468894395182" lon="9.124210769780198"><ele>1237.0</ele><time>2026-04-25T12:31:40.998Z</time></trkpt><trkpt lat="45.9746597956369" lon="9.12409943781924"><ele>1234.0</ele><time>2026-04-25T12:31:41.998Z</time></trkpt><trkpt lat="45.97459820800568" lon="9.124050861072638"><ele>1231.0</ele><time>2026-04-25T12:31:42.998Z</time></trkpt><trkpt lat="45.9745331189008" lon="9.124006456699219"><ele>1228.0</ele><time>2026-04-25T12:31:43.998Z</time></trkpt><trkpt lat="45.97445320420873" lon="9.123994401849268"><ele>1225.0</ele><time>2026-04-25T12:31:44.998Z</time></trkpt><trkpt lat="45.97436935018446" lon="9.12405527219983"><ele>1222.0</ele><time>2026-04-25T12:31:45.998Z</time></trkpt><trkpt lat="45.97431141585148" lon="9.124144259466354"><ele>1222.0</ele><time>2026-04-25T12:31:46.999Z</time></trkpt><trkpt lat="45.974253363843815" lon="9.124227127378685"><ele>1222.0</ele><time>2026-04-25T12:31:47.999Z</time></trkpt><trkpt lat="45.97418734202339" lon="9.124273254642032"><ele>1222.0</ele><time>2026-04-25T12:31:48.999Z</time></trkpt><trkpt lat="45.9740585239333" lon="9.124252062081744"><ele>1222.0</ele><time>2026-04-25T12:31:50.999Z</time></trkpt><trkpt lat="45.97397146375787" lon="9.124234517885737"><ele>1222.0</ele><time>2026-04-25T12:31:51.999Z</time></trkpt><trkpt lat="45.97387505195098" lon="9.124213955937368"><ele>1220.25</ele><time>2026-04-25T12:31:52.999Z</time></trkpt><trkpt lat="45.97377101036595" lon="9.124194552505585"><ele>1218.5</ele><time>2026-04-25T12:31:53.999Z</time></trkpt><trkpt lat="45.97365794092455" lon="9.124191009826353"><ele>1216.75</ele><time>2026-04-25T12:31:54.999Z</time></trkpt><trkpt lat="45.97352796480682" lon="9.124156566636174"><ele>1215.0</ele><time>2026-04-25T12:31:55.999Z</time></trkpt><trkpt lat="45.973387851522226" lon="9.124151164894153"><ele>1212.75</ele><time>2026-04-25T12:31:56.999Z</time></trkpt><trkpt lat="45.97326316088968" lon="9.12413918576429"><ele>1210.5</ele><time>2026-04-25T12:31:57.999Z</time></trkpt><trkpt lat="45.97314673721201" lon="9.124098667917375"><ele>1208.25</ele><time>2026-04-25T12:31:58.999Z</time></trkpt><trkpt lat="45.97303052386343" lon="9.124096564055753"><ele>1206.0</ele><time>2026-04-25T12:31:59.999Z</time></trkpt><trkpt lat="45.9729135131452" lon="9.124103366542816"><ele>1206.0</ele><time>2026-04-25T12:32:00.999Z</time></trkpt><trkpt lat="45.9728051693578" lon="9.124120550158413"><ele>1206.0</ele><time>2026-04-25T12:32:01.999Z</time></trkpt><trkpt lat="45.972705658446245" lon="9.124102107841983"><ele>1206.0</ele><time>2026-04-25T12:32:02.999Z</time></trkpt><trkpt lat="45.97261509377015" lon="9.124108868942043"><ele>1206.0</ele><time>2026-04-25T12:32:03.999Z</time></trkpt><trkpt lat="45.97251708108121" lon="9.124085376220888"><ele>1206.0</ele><time>2026-04-25T12:32:04.999Z</time></trkpt><trkpt lat="45.97243170540663" lon="9.124054217991924"><ele>1202.1666666666667</ele><time>2026-04-25T12:32:05.999Z</time></trkpt><trkpt lat="45.97236690537497" lon="9.12399860997916"><ele>1198.3333333333333</ele><time>2026-04-25T12:32:06.999Z</time></trkpt><trkpt lat="45.972313451269265" lon="9.123925300041055"><ele>1194.5</ele><time>2026-04-25T12:32:07.999Z</time></trkpt><trkpt lat="45.97232128420632" lon="9.123794672149277"><ele>1190.6666666666665</ele><time>2026-04-25T12:32:09.999Z</time></trkpt><trkpt lat="45.972344022286734" lon="9.123701648172576"><ele>1186.8333333333333</ele><time>2026-04-25T12:32:10.999Z</time></trkpt><trkpt lat="45.97237850853422" lon="9.12359001911223"><ele>1183.0</ele><time>2026-04-25T12:32:11.999Z</time></trkpt><trkpt lat="45.972426322034956" lon="9.123445034466581"><ele>1183.0</ele><time>2026-04-25T12:32:12.999Z</time></trkpt><trkpt lat="45.972475997318476" lon="9.123285987416132"><ele>1183.0</ele><time>2026-04-25T12:32:13.999Z</time></trkpt><trkpt lat="45.972517215878675" lon="9.123123673181585"><ele>1183.0</ele><time>2026-04-25T12:32:14.999Z</time></trkpt><trkpt lat="45.972555828509144" lon="9.12295399945745"><ele>1183.0</ele><time>2026-04-25T12:32:15.999Z</time></trkpt><trkpt lat="45.97258477627754" lon="9.122791081027522"><ele>1191.4</ele><time>2026-04-25T12:32:16.999Z</time></trkpt><trkpt lat="45.9725955226411" lon="9.122629220304104"><ele>1199.8</ele><time>2026-04-25T12:32:17.999Z</time></trkpt><trkpt lat="45.97262691366619" lon="9.122480398586845"><ele>1208.2</ele><time>2026-04-25T12:32:18.999Z</time></trkpt><trkpt lat="45.972642725529866" lon="9.12233004115433"><ele>1216.6</ele><time>2026-04-25T12:32:19.999Z</time></trkpt><trkpt lat="45.97265278662991" lon="9.122198710624314"><ele>1225.0</ele><time>2026-04-25T12:32:20.999Z</time></trkpt><trkpt lat="45.972652430145466" lon="9.122097474976794"><ele>1225.0</ele><time>2026-04-25T12:32:21.999Z</time></trkpt><trkpt lat="45.972609369189904" lon="9.121959476545367"><ele>1225.0</ele><time>2026-04-25T12:32:23.999Z</time></trkpt><trkpt lat="45.97255840116015" lon="9.121894535028796"><ele>1225.0</ele><time>2026-04-25T12:32:24.999Z</time></trkpt><trkpt lat="45.97245078252092" lon="9.121876931032412"><ele>1225.0</ele><time>2026-04-25T12:32:25.999Z</time></trkpt><trkpt lat="45.97235395174952" lon="9.121897655358623"><ele>1225.0</ele><time>2026-04-25T12:32:26.999Z</time></trkpt><trkpt lat="45.97228487860465" lon="9.121893705206649"><ele>1225.0</ele><time>2026-04-25T12:32:27.999Z</time></trkpt><trkpt lat="45.972211331536705" lon="9.121883141782694"><ele>1220.2</ele><time>2026-04-25T12:32:28.999Z</time></trkpt><trkpt lat="45.97211898636475" lon="9.121836759847767"><ele>1215.4</ele><time>2026-04-25T12:32:30.999Z</time></trkpt><trkpt lat="45.972077654560884" lon="9.121724263671949"><ele>1210.6</ele><time>2026-04-25T12:32:33Z</time></trkpt><trkpt lat="45.97205800626661" lon="9.121600847646496"><ele>1205.8</ele><time>2026-04-25T12:32:34Z</time></trkpt><trkpt lat="45.97204051821388" lon="9.121450873427"><ele>1201.0</ele><time>2026-04-25T12:32:35Z</time></trkpt><trkpt lat="45.97202385023214" lon="9.121286841640293"><ele>1201.0</ele><time>2026-04-25T12:32:36Z</time></trkpt><trkpt lat="45.97200561941663" lon="9.121107429890131"><ele>1201.0</ele><time>2026-04-25T12:32:37Z</time></trkpt><trkpt lat="45.97198408599855" lon="9.120932317752933"><ele>1201.0</ele><time>2026-04-25T12:32:38Z</time></trkpt><trkpt lat="45.97196145581013" lon="9.120766383500126"><ele>1201.0</ele><time>2026-04-25T12:32:39Z</time></trkpt><trkpt lat="45.97193845233152" lon="9.120594425471722"><ele>1201.3999999999999</ele><time>2026-04-25T12:32:40Z</time></trkpt><trkpt lat="45.971917020861774" lon="9.120429617630693"><ele>1201.8</ele><time>2026-04-25T12:32:41Z</time></trkpt><trkpt lat="45.97189910421244" lon="9.120283885571242"><ele>1202.1999999999998</ele><time>2026-04-25T12:32:42Z</time></trkpt><trkpt lat="45.97188735110169" lon="9.12014109721384"><ele>1202.6</ele><time>2026-04-25T12:32:43Z</time></trkpt><trkpt lat="45.97189043949363" lon="9.12000568181514"><ele>1203.0</ele><time>2026-04-25T12:32:44Z</time></trkpt><trkpt lat="45.97191861919168" lon="9.119887563848685"><ele>1203.4</ele><time>2026-04-25T12:32:45Z</time></trkpt><trkpt lat="45.97193269239024" lon="9.11978476055099"><ele>1203.8</ele><time>2026-04-25T12:32:46Z</time></trkpt><trkpt lat="45.971935645010184" lon="9.119694066802984"><ele>1204.2</ele><time>2026-04-25T12:32:47Z</time></trkpt><trkpt lat="45.97193110196442" lon="9.119516791022425"><ele>1204.6</ele><time>2026-04-25T12:32:49Z</time></trkpt><trkpt lat="45.97184372089005" lon="9.119448844860683"><ele>1205.0</ele><time>2026-04-25T12:32:50Z</time></trkpt><trkpt lat="45.97174096153163" lon="9.119344898783883"><ele>1205.0</ele><time>2026-04-25T12:32:52Z</time></trkpt><trkpt lat="45.97169418982046" lon="9.119245614830621"><ele>1205.0</ele><time>2026-04-25T12:32:53Z</time></trkpt><trkpt lat="45.9716780624718" lon="9.119128234075061"><ele>1205.0</ele><time>2026-04-25T12:32:54Z</time></trkpt><trkpt lat="45.97166638701463" lon="9.11901296782148"><ele>1205.0</ele><time>2026-04-25T12:32:55Z</time></trkpt><trkpt lat="45.97164007397022" lon="9.118911731302749"><ele>1205.0</ele><time>2026-04-25T12:32:56Z</time></trkpt><trkpt lat="45.97158536461713" lon="9.1188230873865"><ele>1205.0</ele><time>2026-04-25T12:32:58Z</time></trkpt><trkpt lat="45.97149991663446" lon="9.118785811652003"><ele>1200.6</ele><time>2026-04-25T12:33:00Z</time></trkpt><trkpt lat="45.97142852387617" lon="9.118792143878297"><ele>1196.2</ele><time>2026-04-25T12:33:01Z</time></trkpt><trkpt lat="45.971350483484926" lon="9.118842858755942"><ele>1191.8</ele><time>2026-04-25T12:33:02Z</time></trkpt><trkpt lat="45.97127447323491" lon="9.118898260223386"><ele>1187.4</ele><time>2026-04-25T12:33:03Z</time></trkpt><trkpt lat="45.97117682024472" lon="9.118968537934478"><ele>1183.0</ele><time>2026-04-25T12:33:04Z</time></trkpt><trkpt lat="45.97109064360661" lon="9.119049217822162"><ele>1178.0</ele><time>2026-04-25T12:33:05Z</time></trkpt><trkpt lat="45.97099878439349" lon="9.119090958870432"><ele>1173.0</ele><time>2026-04-25T12:33:06Z</time></trkpt><trkpt lat="45.97091048745865" lon="9.119146038269209"><ele>1168.0</ele><time>2026-04-25T12:33:07Z</time></trkpt><trkpt lat="45.97082086165246" lon="9.119238896703127"><ele>1163.0</ele><time>2026-04-25T12:33:08Z</time></trkpt><trkpt lat="45.97074339587848" lon="9.119311349990472"><ele>1158.0</ele><time>2026-04-25T12:33:09Z</time></trkpt><trkpt lat="45.97069398077063" lon="9.119385589969227"><ele>1156.0</ele><time>2026-04-25T12:33:10Z</time></trkpt><trkpt lat="45.97062727682861" lon="9.11945644070043"><ele>1154.0</ele><time>2026-04-25T12:33:11Z</time></trkpt><trkpt lat="45.970552584693216" lon="9.119503438158677"><ele>1152.0</ele><time>2026-04-25T12:33:12Z</time></trkpt><trkpt lat="45.970436324481895" lon="9.119586189530956"><ele>1150.0</ele><time>2026-04-25T12:33:14Z</time></trkpt><trkpt lat="45.970370315174954" lon="9.119720925757202"><ele>1148.0</ele><time>2026-04-25T12:33:15Z</time></trkpt><trkpt lat="45.97030066682817" lon="9.119773112976157"><ele>1148.0</ele><time>2026-04-25T12:33:16Z</time></trkpt><trkpt lat="45.97022504707072" lon="9.119847237843757"><ele>1148.0</ele><time>2026-04-25T12:33:17Z</time></trkpt><trkpt lat="45.97013306483402" lon="9.119900723161573"><ele>1148.0</ele><time>2026-04-25T12:33:18Z</time></trkpt><trkpt lat="45.970067214576865" lon="9.119940320739511"><ele>1148.0</ele><time>2026-04-25T12:33:18.998Z</time></trkpt><trkpt lat="45.96999784800187" lon="9.119953401157261"><ele>1148.0</ele><time>2026-04-25T12:33:19.998Z</time></trkpt><trkpt lat="45.96992876674338" lon="9.119956334021017"><ele>1148.0</ele><time>2026-04-25T12:33:20.998Z</time></trkpt><trkpt lat="45.96986198698556" lon="9.11994226653971"><ele>1150.1666666666667</ele><time>2026-04-25T12:33:21.998Z</time></trkpt><trkpt lat="45.969792833200295" lon="9.119901512796355"><ele>1152.3333333333335</ele><time>2026-04-25T12:33:22.998Z</time></trkpt><trkpt lat="45.969689144713996" lon="9.119799758971489"><ele>1154.5</ele><time>2026-04-25T12:33:24.998Z</time></trkpt><trkpt lat="45.96961789161527" lon="9.119736984918692"><ele>1156.6666666666667</ele><time>2026-04-25T12:33:25.998Z</time></trkpt><trkpt lat="45.96956196297533" lon="9.119690434808513"><ele>1158.8333333333333</ele><time>2026-04-25T12:33:26.998Z</time></trkpt><trkpt lat="45.96948064586894" lon="9.119631556382993"><ele>1161.0</ele><time>2026-04-25T12:33:28.998Z</time></trkpt><trkpt lat="45.96941267231461" lon="9.119605813394383"><ele>1161.0</ele><time>2026-04-25T12:33:29.998Z</time></trkpt><trkpt lat="45.96927796306883" lon="9.119595533990381"><ele>1161.0</ele><time>2026-04-25T12:33:30.998Z</time></trkpt><trkpt lat="45.969119182823185" lon="9.11962277754029"><ele>1161.0</ele><time>2026-04-25T12:33:31.998Z</time></trkpt><trkpt lat="45.96901160248744" lon="9.119670373387436"><ele>1161.0</ele><time>2026-04-25T12:33:32.998Z</time></trkpt><trkpt lat="45.96892188033181" lon="9.11971863679997"><ele>1157.3333333333333</ele><time>2026-04-25T12:33:33.999Z</time></trkpt><trkpt lat="45.96883762585153" lon="9.119765460613484"><ele>1153.6666666666667</ele><time>2026-04-25T12:33:34.999Z</time></trkpt><trkpt lat="45.96875909308135" lon="9.119796345925453"><ele>1150.0</ele><time>2026-04-25T12:33:35.999Z</time></trkpt><trkpt lat="45.968694891659744" lon="9.119818736701355"><ele>1146.3333333333335</ele><time>2026-04-25T12:33:36.999Z</time></trkpt><trkpt lat="45.96861760717593" lon="9.119831633962377"><ele>1142.6666666666667</ele><time>2026-04-25T12:33:37.999Z</time></trkpt><trkpt lat="45.9685151201844" lon="9.119799029142117"><ele>1139.0</ele><time>2026-04-25T12:33:39.999Z</time></trkpt><trkpt lat="45.96848788224013" lon="9.119710433487459"><ele>1139.0</ele><time>2026-04-25T12:33:40.999Z</time></trkpt><trkpt lat="45.96847074626072" lon="9.119602179270254"><ele>1139.0</ele><time>2026-04-25T12:33:41.999Z</time></trkpt><trkpt lat="45.9684540419159" lon="9.119487308768866"><ele>1139.0</ele><time>2026-04-25T12:33:42.999Z</time></trkpt><trkpt lat="45.9684292101739" lon="9.119341533313174"><ele>1139.0</ele><time>2026-04-25T12:33:43.999Z</time></trkpt><trkpt lat="45.968408716448415" lon="9.119216104148727"><ele>1139.0</ele><time>2026-04-25T12:33:44.999Z</time></trkpt><trkpt lat="45.96839449192101" lon="9.119082768087798"><ele>1139.0</ele><time>2026-04-25T12:33:45.999Z</time></trkpt><trkpt lat="45.968386343685424" lon="9.118967504060757"><ele>1138.1666666666667</ele><time>2026-04-25T12:33:46.999Z</time></trkpt><trkpt lat="45.96836181013602" lon="9.118859815456359"><ele>1137.3333333333335</ele><time>2026-04-25T12:33:47.999Z</time></trkpt><trkpt lat="45.96835136122154" lon="9.11876138024827"><ele>1136.5</ele><time>2026-04-25T12:33:48.999Z</time></trkpt><trkpt lat="45.96831694252886" lon="9.118679845399722"><ele>1135.6666666666667</ele><time>2026-04-25T12:33:49.999Z</time></trkpt><trkpt lat="45.96825735627344" lon="9.118615440637136"><ele>1134.8333333333333</ele><time>2026-04-25T12:33:50.999Z</time></trkpt><trkpt lat="45.96817199038559" lon="9.118665533883695"><ele>1134.0</ele><time>2026-04-25T12:33:51.999Z</time></trkpt><trkpt lat="45.96808932504527" lon="9.118695188990344"><ele>1134.0</ele><time>2026-04-25T12:33:52.999Z</time></trkpt><trkpt lat="45.96799731269282" lon="9.118702820006662"><ele>1134.0</ele><time>2026-04-25T12:33:53.999Z</time></trkpt><trkpt lat="45.9679139573876" lon="9.118693293629377"><ele>1134.0</ele><time>2026-04-25T12:33:54.999Z</time></trkpt><trkpt lat="45.96784254665883" lon="9.118624272583782"><ele>1134.0</ele><time>2026-04-25T12:33:55.999Z</time></trkpt><trkpt lat="45.96777828815241" lon="9.118632126575543"><ele>1134.0</ele><time>2026-04-25T12:33:57Z</time></trkpt><trkpt lat="45.96767713182374" lon="9.118708483499532"><ele>1134.0</ele><time>2026-04-25T12:33:58Z</time></trkpt><trkpt lat="45.9676066775107" lon="9.118787210378178"><ele>1134.0</ele><time>2026-04-25T12:33:59Z</time></trkpt><trkpt lat="45.96753234830341" lon="9.118863401381445"><ele>1134.0</ele><time>2026-04-25T12:34:00Z</time></trkpt><trkpt lat="45.967463168888834" lon="9.118929867649278"><ele>1134.0</ele><time>2026-04-25T12:34:01Z</time></trkpt><trkpt lat="45.967392090405426" lon="9.118983410783112"><ele>1134.0</ele><time>2026-04-25T12:34:02Z</time></trkpt><trkpt lat="45.9673086276251" lon="9.119038451921003"><ele>1134.0</ele><time>2026-04-25T12:34:03Z</time></trkpt><trkpt lat="45.9672209700355" lon="9.119088762156418"><ele>1134.0</ele><time>2026-04-25T12:34:04Z</time></trkpt><trkpt lat="45.96714312446924" lon="9.11912755302244"><ele>1128.0</ele><time>2026-04-25T12:34:05Z</time></trkpt><trkpt lat="45.967043489846894" lon="9.119180055358033"><ele>1122.0</ele><time>2026-04-25T12:34:06Z</time></trkpt><trkpt lat="45.966950199880266" lon="9.119202260077634"><ele>1116.0</ele><time>2026-04-25T12:34:07Z</time></trkpt><trkpt lat="45.966844638707" lon="9.11928339214255"><ele>1110.0</ele><time>2026-04-25T12:34:08Z</time></trkpt><trkpt lat="45.966749766632056" lon="9.119338987484138"><ele>1104.0</ele><time>2026-04-25T12:34:09Z</time></trkpt><trkpt lat="45.966654453342926" lon="9.119417520202408"><ele>1104.0</ele><time>2026-04-25T12:34:10Z</time></trkpt><trkpt lat="45.96655353282967" lon="9.119503170364123"><ele>1104.0</ele><time>2026-04-25T12:34:11Z</time></trkpt><trkpt lat="45.96646918710155" lon="9.119584590317912"><ele>1104.0</ele><time>2026-04-25T12:34:12Z</time></trkpt><trkpt lat="45.96638171308263" lon="9.119702093270412"><ele>1104.0</ele><time>2026-04-25T12:34:13Z</time></trkpt><trkpt lat="45.966304846698726" lon="9.119738434126486"><ele>1104.0</ele><time>2026-04-25T12:34:14Z</time></trkpt><trkpt lat="45.966189151659925" lon="9.119784964198569"><ele>1104.0</ele><time>2026-04-25T12:34:16Z</time></trkpt><trkpt lat="45.96606382799911" lon="9.119784671614694"><ele>1104.0</ele><time>2026-04-25T12:34:18Z</time></trkpt><trkpt lat="45.965964807159075" lon="9.119764311406904"><ele>1104.0</ele><time>2026-04-25T12:34:19Z</time></trkpt><trkpt lat="45.96588641912997" lon="9.119741807826655"><ele>1104.0</ele><time>2026-04-25T12:34:20Z</time></trkpt><trkpt lat="45.96581857188617" lon="9.119719761387177"><ele>1104.0</ele><time>2026-04-25T12:34:21Z</time></trkpt><trkpt lat="45.965741297328634" lon="9.119688950164509"><ele>1103.0</ele><time>2026-04-25T12:34:22Z</time></trkpt><trkpt lat="45.96566325861669" lon="9.119646904449665"><ele>1102.0</ele><time>2026-04-25T12:34:23Z</time></trkpt><trkpt lat="45.96560901006999" lon="9.119599763421839"><ele>1101.0</ele><time>2026-04-25T12:34:24Z</time></trkpt><trkpt lat="45.96554102716585" lon="9.119528182121716"><ele>1100.0</ele><time>2026-04-25T12:34:25Z</time></trkpt><trkpt lat="45.96548550602854" lon="9.119462365923917"><ele>1099.0</ele><time>2026-04-25T12:34:26Z</time></trkpt><trkpt lat="45.965416979571735" lon="9.119407858758162"><ele>1098.0</ele><time>2026-04-25T12:34:27Z</time></trkpt><trkpt lat="45.96537048659216" lon="9.119296509073388"><ele>1098.0</ele><time>2026-04-25T12:34:28Z</time></trkpt><trkpt lat="45.965315178173" lon="9.119220269191237"><ele>1098.0</ele><time>2026-04-25T12:34:29Z</time></trkpt><trkpt lat="45.96524281552059" lon="9.119147773270148"><ele>1098.0</ele><time>2026-04-25T12:34:30Z</time></trkpt><trkpt lat="45.96518247264278" lon="9.11909800053326"><ele>1098.0</ele><time>2026-04-25T12:34:31Z</time></trkpt><trkpt lat="45.96512393042018" lon="9.11913543582365"><ele>1098.0</ele><time>2026-04-25T12:34:33Z</time></trkpt><trkpt lat="45.96505274288155" lon="9.119282057587675"><ele>1098.0</ele><time>2026-04-25T12:34:34Z</time></trkpt><trkpt lat="45.965016035808446" lon="9.119377539242173"><ele>1095.5</ele><time>2026-04-25T12:34:35Z</time></trkpt><trkpt lat="45.96497682597092" lon="9.119488777710847"><ele>1093.0</ele><time>2026-04-25T12:34:36Z</time></trkpt><trkpt lat="45.964946308557835" lon="9.11961965560045"><ele>1090.5</ele><time>2026-04-25T12:34:37Z</time></trkpt><trkpt lat="45.96489327831113" lon="9.119710176608905"><ele>1088.0</ele><time>2026-04-25T12:34:38Z</time></trkpt><trkpt lat="45.96480828424622" lon="9.11981173559831"><ele>1085.5</ele><time>2026-04-25T12:34:39Z</time></trkpt><trkpt lat="45.96479990806381" lon="9.119911748952845"><ele>1083.0</ele><time>2026-04-25T12:34:41Z</time></trkpt><trkpt lat="45.96476766804396" lon="9.120030834188029"><ele>1074.25</ele><time>2026-04-25T12:34:43.001Z</time></trkpt><trkpt lat="45.964746762925714" lon="9.12017557993534"><ele>1065.5</ele><time>2026-04-25T12:34:44.001Z</time></trkpt><trkpt lat="45.96472328058521" lon="9.120440532573406"><ele>1056.75</ele><time>2026-04-25T12:34:45.001Z</time></trkpt><trkpt lat="45.96471678229033" lon="9.120594336146544"><ele>1048.0</ele><time>2026-04-25T12:34:46.001Z</time></trkpt><trkpt lat="45.964709645375066" lon="9.120721712478357"><ele>1044.8</ele><time>2026-04-25T12:34:47.001Z</time></trkpt><trkpt lat="45.96471715274539" lon="9.120934412481988"><ele>1041.6</ele><time>2026-04-25T12:34:49.001Z</time></trkpt><trkpt lat="45.96471938532022" lon="9.121040177532317"><ele>1038.4</ele><time>2026-04-25T12:34:50.001Z</time></trkpt><trkpt lat="45.96471570865154" lon="9.121199780572905"><ele>1035.2</ele><time>2026-04-25T12:34:51.001Z</time></trkpt><trkpt lat="45.964705042345344" lon="9.121332854425821"><ele>1032.0</ele><time>2026-04-25T12:34:52.001Z</time></trkpt><trkpt lat="45.96468396079162" lon="9.121468501057432"><ele>1029.4</ele><time>2026-04-25T12:34:53.001Z</time></trkpt><trkpt lat="45.96462622471485" lon="9.121587077137994"><ele>1026.8000000000002</ele><time>2026-04-25T12:34:54.001Z</time></trkpt><trkpt lat="45.964565572804666" lon="9.12171587689196"><ele>1024.2</ele><time>2026-04-25T12:34:55.001Z</time></trkpt><trkpt lat="45.96451481956763" lon="9.121850792643128"><ele>1021.6</ele><time>2026-04-25T12:34:56.001Z</time></trkpt><trkpt lat="45.96444912980486" lon="9.12199747033978"><ele>1019.0</ele><time>2026-04-25T12:34:57.001Z</time></trkpt><trkpt lat="45.96440494217886" lon="9.122165922579843"><ele>1019.0</ele><time>2026-04-25T12:34:58.001Z</time></trkpt><trkpt lat="45.96436927088867" lon="9.122332780648758"><ele>1019.0000000000001</ele><time>2026-04-25T12:34:59.001Z</time></trkpt><trkpt lat="45.96430816688155" lon="9.122419189732605"><ele>1019.0000000000001</ele><time>2026-04-25T12:35:00.001Z</time></trkpt><trkpt lat="45.96426451305189" lon="9.122530686516882"><ele>1019.0</ele><time>2026-04-25T12:35:01.001Z</time></trkpt><trkpt lat="45.964211204544874" lon="9.122654513906667"><ele>1019.0</ele><time>2026-04-25T12:35:02.001Z</time></trkpt><trkpt lat="45.96415237998346" lon="9.122757302195014"><ele>1021.5000000000001</ele><time>2026-04-25T12:35:03.001Z</time></trkpt><trkpt lat="45.964103405781266" lon="9.122840421101142"><ele>1024.0</ele><time>2026-04-25T12:35:04.001Z</time></trkpt><trkpt lat="45.96405044420298" lon="9.12292036994765"><ele>1026.5</ele><time>2026-04-25T12:35:05.001Z</time></trkpt><trkpt lat="45.96399568046635" lon="9.123001074459438"><ele>1029.0</ele><time>2026-04-25T12:35:06.001Z</time></trkpt><trkpt lat="45.96392321789431" lon="9.123068645883508"><ele>1031.5</ele><time>2026-04-25T12:35:07.001Z</time></trkpt><trkpt lat="45.96385974784571" lon="9.123141837246125"><ele>1034.0</ele><time>2026-04-25T12:35:08.001Z</time></trkpt><trkpt lat="45.963789408684214" lon="9.123193144076382"><ele>1034.0</ele><time>2026-04-25T12:35:09.001Z</time></trkpt><trkpt lat="45.96371204278981" lon="9.123244504430096"><ele>1034.0</ele><time>2026-04-25T12:35:10.001Z</time></trkpt><trkpt lat="45.96363530255561" lon="9.123231988668191"><ele>1034.0</ele><time>2026-04-25T12:35:11.001Z</time></trkpt><trkpt lat="45.96354957076339" lon="9.123209616729005"><ele>1034.0</ele><time>2026-04-25T12:35:12.001Z</time></trkpt><trkpt lat="45.96348176129225" lon="9.123187658642044"><ele>1034.0</ele><time>2026-04-25T12:35:13.001Z</time></trkpt><trkpt lat="45.963417786462934" lon="9.123155270112004"><ele>1034.0</ele><time>2026-04-25T12:35:14.001Z</time></trkpt><trkpt lat="45.96332879779626" lon="9.123075174161997"><ele>1035.6000000000001</ele><time>2026-04-25T12:35:15.001Z</time></trkpt><trkpt lat="45.96324641797065" lon="9.122972724644509"><ele>1037.2</ele><time>2026-04-25T12:35:16.001Z</time></trkpt><trkpt lat="45.963163852131984" lon="9.122892397246895"><ele>1038.8000000000002</ele><time>2026-04-25T12:35:17.001Z</time></trkpt><trkpt lat="45.96308860499608" lon="9.122822004152047"><ele>1040.4</ele><time>2026-04-25T12:35:18.001Z</time></trkpt><trkpt lat="45.96300972572038" lon="9.122776322640263"><ele>1042.0</ele><time>2026-04-25T12:35:19.001Z</time></trkpt><trkpt lat="45.962936280603664" lon="9.122742844656388"><ele>1042.0</ele><time>2026-04-25T12:35:20.001Z</time></trkpt><trkpt lat="45.96286552601384" lon="9.122690925028126"><ele>1042.0</ele><time>2026-04-25T12:35:22.001Z</time></trkpt><trkpt lat="45.962689717636444" lon="9.122755507781033"><ele>1042.0</ele><time>2026-04-25T12:35:24.001Z</time></trkpt><trkpt lat="45.96267385128059" lon="9.12290157444416"><ele>1042.0</ele><time>2026-04-25T12:35:24.999Z</time></trkpt><trkpt lat="45.96265540351724" lon="9.123031144882622"><ele>1042.0</ele><time>2026-04-25T12:35:25.999Z</time></trkpt><trkpt lat="45.96263486016514" lon="9.123175433829717"><ele>1042.0</ele><time>2026-04-25T12:35:26.999Z</time></trkpt><trkpt lat="45.9626132037945" lon="9.123318331209516"><ele>1042.0</ele><time>2026-04-25T12:35:27.999Z</time></trkpt><trkpt lat="45.96260509236276" lon="9.123462896282295"><ele>1042.0</ele><time>2026-04-25T12:35:28.999Z</time></trkpt><trkpt lat="45.9625671214881" lon="9.123596482809335"><ele>1042.0</ele><time>2026-04-25T12:35:29.999Z</time></trkpt><trkpt lat="45.96253093440865" lon="9.12373482997861"><ele>1037.4</ele><time>2026-04-25T12:35:30.999Z</time></trkpt><trkpt lat="45.962505478365216" lon="9.123867068256986"><ele>1032.8000000000002</ele><time>2026-04-25T12:35:31.999Z</time></trkpt><trkpt lat="45.96245604955572" lon="9.12399247384601"><ele>1028.2</ele><time>2026-04-25T12:35:32.999Z</time></trkpt><trkpt lat="45.96240082262081" lon="9.12410443221681"><ele>1023.6</ele><time>2026-04-25T12:35:33.999Z</time></trkpt><trkpt lat="45.96233834384263" lon="9.124220119629735"><ele>1019.0</ele><time>2026-04-25T12:35:34.999Z</time></trkpt><trkpt lat="45.962283614331696" lon="9.124335612006782"><ele>1013.25</ele><time>2026-04-25T12:35:35.999Z</time></trkpt><trkpt lat="45.96221464422063" lon="9.124464806632165"><ele>1007.5</ele><time>2026-04-25T12:35:36.999Z</time></trkpt><trkpt lat="45.96213943158217" lon="9.124598008078882"><ele>1001.75</ele><time>2026-04-25T12:35:37.999Z</time></trkpt><trkpt lat="45.96206351159212" lon="9.1247375155007"><ele>996.0</ele><time>2026-04-25T12:35:38.999Z</time></trkpt><trkpt lat="45.961996299456324" lon="9.124874519128095"><ele>987.75</ele><time>2026-04-25T12:35:39.999Z</time></trkpt><trkpt lat="45.96192403184555" lon="9.12502250642004"><ele>979.5</ele><time>2026-04-25T12:35:41Z</time></trkpt><trkpt lat="45.96184766879864" lon="9.125171070312401"><ele>971.25</ele><time>2026-04-25T12:35:42Z</time></trkpt><trkpt lat="45.96176399384222" lon="9.125323529365426"><ele>963.0</ele><time>2026-04-25T12:35:43Z</time></trkpt><trkpt lat="45.961700914931264" lon="9.125470151514282"><ele>967.0</ele><time>2026-04-25T12:35:44Z</time></trkpt><trkpt lat="45.9616327755129" lon="9.125596845296595"><ele>971.0</ele><time>2026-04-25T12:35:45Z</time></trkpt><trkpt lat="45.96155633019006" lon="9.125683059138737"><ele>975.0</ele><time>2026-04-25T12:35:46Z</time></trkpt><trkpt lat="45.96147864622645" lon="9.125694829907873"><ele>979.0</ele><time>2026-04-25T12:35:47Z</time></trkpt><trkpt lat="45.96138553711193" lon="9.125741402589268"><ele>983.0</ele><time>2026-04-25T12:35:48Z</time></trkpt><trkpt lat="45.961316546404596" lon="9.125786889641153"><ele>983.0</ele><time>2026-04-25T12:35:49Z</time></trkpt><trkpt lat="45.96121847577534" lon="9.125866339030281"><ele>983.0</ele><time>2026-04-25T12:35:50Z</time></trkpt><trkpt lat="45.96114895637187" lon="9.125934252954954"><ele>983.0</ele><time>2026-04-25T12:35:51Z</time></trkpt><trkpt lat="45.961047363156105" lon="9.126038514308288"><ele>983.0</ele><time>2026-04-25T12:35:53Z</time></trkpt><trkpt lat="45.960970906027676" lon="9.126120529446556"><ele>983.0</ele><time>2026-04-25T12:35:54Z</time></trkpt><trkpt lat="45.960896539268596" lon="9.126202417791829"><ele>985.0</ele><time>2026-04-25T12:35:55Z</time></trkpt><trkpt lat="45.960826072256985" lon="9.126304693476465"><ele>987.0</ele><time>2026-04-25T12:35:56Z</time></trkpt><trkpt lat="45.96074468471989" lon="9.126373620501784"><ele>989.0</ele><time>2026-04-25T12:35:57Z</time></trkpt><trkpt lat="45.960664633873726" lon="9.126422413820736"><ele>991.0</ele><time>2026-04-25T12:35:58Z</time></trkpt><trkpt lat="45.96057798553254" lon="9.12642306248583"><ele>993.0</ele><time>2026-04-25T12:35:59Z</time></trkpt><trkpt lat="45.96048502260399" lon="9.126447955646904"><ele>993.0</ele><time>2026-04-25T12:36:00Z</time></trkpt><trkpt lat="45.960396541723576" lon="9.126471648658395"><ele>993.0</ele><time>2026-04-25T12:36:01Z</time></trkpt><trkpt lat="45.96030812120193" lon="9.126496797112878"><ele>993.0</ele><time>2026-04-25T12:36:02Z</time></trkpt><trkpt lat="45.96022335537867" lon="9.126517346308711"><ele>993.0</ele><time>2026-04-25T12:36:03Z</time></trkpt><trkpt lat="45.96015175718155" lon="9.126514532176323"><ele>993.0</ele><time>2026-04-25T12:36:04Z</time></trkpt><trkpt lat="45.96008588027594" lon="9.126490466743354"><ele>993.0</ele><time>2026-04-25T12:36:05Z</time></trkpt><trkpt lat="45.960005195408876" lon="9.126454713108773"><ele>991.1666666666666</ele><time>2026-04-25T12:36:06Z</time></trkpt><trkpt lat="45.959915444544144" lon="9.126427263395803"><ele>989.3333333333333</ele><time>2026-04-25T12:36:07Z</time></trkpt><trkpt lat="45.959834397139055" lon="9.126410212742606"><ele>987.5</ele><time>2026-04-25T12:36:08Z</time></trkpt><trkpt lat="45.959763965899874" lon="9.126407078200934"><ele>985.6666666666666</ele><time>2026-04-25T12:36:09Z</time></trkpt><trkpt lat="45.959672558535075" lon="9.126446322648738"><ele>983.8333333333333</ele><time>2026-04-25T12:36:11Z</time></trkpt><trkpt lat="45.95959258482972" lon="9.126444215988906"><ele>982.0</ele><time>2026-04-25T12:36:14Z</time></trkpt><trkpt lat="45.95951756382757" lon="9.12645358366911"><ele>981.9999999999999</ele><time>2026-04-25T12:36:17Z</time></trkpt><trkpt lat="45.959445828140865" lon="9.126494379782503"><ele>982.0</ele><time>2026-04-25T12:36:21.001Z</time></trkpt><trkpt lat="45.959365636962396" lon="9.12645038454423"><ele>982.0</ele><time>2026-04-25T12:36:31.001Z</time></trkpt><trkpt lat="45.95924530473704" lon="9.126476927302761"><ele>982.0</ele><time>2026-04-25T12:36:33.001Z</time></trkpt><trkpt lat="45.95917924388508" lon="9.126478567856324"><ele>981.9999999999999</ele><time>2026-04-25T12:36:34.001Z</time></trkpt><trkpt lat="45.95911049990265" lon="9.126477241514385"><ele>982.0</ele><time>2026-04-25T12:36:35.001Z</time></trkpt><trkpt lat="45.95902502168349" lon="9.126448211123753"><ele>978.9999999999999</ele><time>2026-04-25T12:36:36.001Z</time></trkpt><trkpt lat="45.95893532617081" lon="9.126468000885335"><ele>976.0</ele><time>2026-04-25T12:36:37.001Z</time></trkpt><trkpt lat="45.95884757111181" lon="9.126464754643463"><ele>973.0</ele><time>2026-04-25T12:36:38.001Z</time></trkpt><trkpt lat="45.95877605567733" lon="9.126462975395373"><ele>970.0</ele><time>2026-04-25T12:36:39.001Z</time></trkpt><trkpt lat="45.958708665044135" lon="9.126456117980972"><ele>966.9999999999999</ele><time>2026-04-25T12:36:40.001Z</time></trkpt><trkpt lat="45.95864721237721" lon="9.126412009829085"><ele>964.0</ele><time>2026-04-25T12:36:41.001Z</time></trkpt><trkpt lat="45.95857933176794" lon="9.126367667276678"><ele>963.9999999999999</ele><time>2026-04-25T12:36:42.001Z</time></trkpt><trkpt lat="45.95850516275664" lon="9.126312075105323"><ele>964.0</ele><time>2026-04-25T12:36:43.001Z</time></trkpt><trkpt lat="45.95843621360086" lon="9.126252084954704"><ele>964.0</ele><time>2026-04-25T12:36:44.001Z</time></trkpt><trkpt lat="45.95836367031026" lon="9.126194106075582"><ele>964.0</ele><time>2026-04-25T12:36:45.001Z</time></trkpt><trkpt lat="45.95829475084449" lon="9.126174264380639"><ele>963.9999999999999</ele><time>2026-04-25T12:36:46.001Z</time></trkpt><trkpt lat="45.95823713486685" lon="9.126134344742324"><ele>964.0</ele><time>2026-04-25T12:36:47.001Z</time></trkpt><trkpt lat="45.95812371003066" lon="9.126073376934787"><ele>961.3333333333333</ele><time>2026-04-25T12:36:49.001Z</time></trkpt><trkpt lat="45.958047430941974" lon="9.126026048858158"><ele>958.6666666666666</ele><time>2026-04-25T12:36:51.001Z</time></trkpt><trkpt lat="45.95794619481683" lon="9.12599792399909"><ele>956.0</ele><time>2026-04-25T12:36:53.001Z</time></trkpt><trkpt lat="45.95788068852279" lon="9.125972041474276"><ele>953.3333333333333</ele><time>2026-04-25T12:36:54.001Z</time></trkpt><trkpt lat="45.95781960604465" lon="9.125943228710879"><ele>950.6666666666666</ele><time>2026-04-25T12:36:55.001Z</time></trkpt><trkpt lat="45.957709735282755" lon="9.125888891413785"><ele>948.0</ele><time>2026-04-25T12:36:57.001Z</time></trkpt><trkpt lat="45.95759623822682" lon="9.12582867464572"><ele>948.0</ele><time>2026-04-25T12:36:59.001Z</time></trkpt><trkpt lat="45.95753791902099" lon="9.125792336561512"><ele>948.0</ele><time>2026-04-25T12:37:00.001Z</time></trkpt><trkpt lat="45.95746574107143" lon="9.125739443348893"><ele>948.0</ele><time>2026-04-25T12:37:01.001Z</time></trkpt><trkpt lat="45.95739990270828" lon="9.125682803683025"><ele>948.0</ele><time>2026-04-25T12:37:02.001Z</time></trkpt><trkpt lat="45.957338748923775" lon="9.125625293060274"><ele>948.0</ele><time>2026-04-25T12:37:03.001Z</time></trkpt><trkpt lat="45.95727339119232" lon="9.125556840653873"><ele>948.0</ele><time>2026-04-25T12:37:04.002Z</time></trkpt><trkpt lat="45.95721045617389" lon="9.12549737885437"><ele>947.3333333333334</ele><time>2026-04-25T12:37:05.002Z</time></trkpt><trkpt lat="45.95715164014325" lon="9.125440633227203"><ele>946.6666666666667</ele><time>2026-04-25T12:37:06.002Z</time></trkpt><trkpt lat="45.95708648011189" lon="9.125384189447773"><ele>946.0</ele><time>2026-04-25T12:37:07.002Z</time></trkpt><trkpt lat="45.957046434636" lon="9.12529655781909"><ele>945.3333333333334</ele><time>2026-04-25T12:37:08.002Z</time></trkpt><trkpt lat="45.956966410827285" lon="9.125159026802509"><ele>944.6666666666667</ele><time>2026-04-25T12:37:10.002Z</time></trkpt><trkpt lat="45.956925107741185" lon="9.12507008288675"><ele>944.0</ele><time>2026-04-25T12:37:11.002Z</time></trkpt><trkpt lat="45.95689462222981" lon="9.12498593684913"><ele>944.0000000000001</ele><time>2026-04-25T12:37:12.002Z</time></trkpt><trkpt lat="45.956870487265306" lon="9.124896648165112"><ele>944.0</ele><time>2026-04-25T12:37:13.002Z</time></trkpt><trkpt lat="45.95684269546794" lon="9.124807151569277"><ele>944.0</ele><time>2026-04-25T12:37:14.002Z</time></trkpt><trkpt lat="45.95680508226321" lon="9.124733415030555"><ele>944.0</ele><time>2026-04-25T12:37:15.002Z</time></trkpt><trkpt lat="45.956733797024086" lon="9.124697699638213"><ele>944.0000000000001</ele><time>2026-04-25T12:37:16.002Z</time></trkpt><trkpt lat="45.95666656859978" lon="9.124681843748514"><ele>944.0</ele><time>2026-04-25T12:37:17.002Z</time></trkpt><trkpt lat="45.956559691871156" lon="9.124634598230278"><ele>942.5000000000001</ele><time>2026-04-25T12:37:19.002Z</time></trkpt><trkpt lat="45.9564702939414" lon="9.124515186855932"><ele>941.0</ele><time>2026-04-25T12:37:21.002Z</time></trkpt><trkpt lat="45.956415257190784" lon="9.124447708620778"><ele>939.5</ele><time>2026-04-25T12:37:22.002Z</time></trkpt><trkpt lat="45.956359532176755" lon="9.124379386796425"><ele>938.0</ele><time>2026-04-25T12:37:23.002Z</time></trkpt><trkpt lat="45.95631015431869" lon="9.12431884690924"><ele>936.5000000000001</ele><time>2026-04-25T12:37:24.002Z</time></trkpt><trkpt lat="45.956251934558544" lon="9.124276436296057"><ele>935.0</ele><time>2026-04-25T12:37:25.002Z</time></trkpt><trkpt lat="45.95617731192145" lon="9.124142232832908"><ele>937.6666666666667</ele><time>2026-04-25T12:37:27.002Z</time></trkpt><trkpt lat="45.95616583057989" lon="9.124048335593415"><ele>940.3333333333334</ele><time>2026-04-25T12:37:28.002Z</time></trkpt><trkpt lat="45.95614175299951" lon="9.123952222612477"><ele>943.0</ele><time>2026-04-25T12:37:29.002Z</time></trkpt><trkpt lat="45.9560964826267" lon="9.123855313200385"><ele>945.6666666666667</ele><time>2026-04-25T12:37:30.002Z</time></trkpt><trkpt lat="45.956062980836016" lon="9.123741124460148"><ele>948.3333333333334</ele><time>2026-04-25T12:37:31Z</time></trkpt><trkpt lat="45.95601999150762" lon="9.123612820561103"><ele>951.0</ele><time>2026-04-25T12:37:32Z</time></trkpt><trkpt lat="45.95597525604979" lon="9.123494371242789"><ele>951.0</ele><time>2026-04-25T12:37:33Z</time></trkpt><trkpt lat="45.95593343819915" lon="9.123379396219223"><ele>951.0</ele><time>2026-04-25T12:37:34Z</time></trkpt><trkpt lat="45.955894387529064" lon="9.123278123257597"><ele>951.0</ele><time>2026-04-25T12:37:35Z</time></trkpt><trkpt lat="45.95587125131788" lon="9.12318181099434"><ele>951.0</ele><time>2026-04-25T12:37:36Z</time></trkpt><trkpt lat="45.95586733240141" lon="9.123074572227633"><ele>951.0</ele><time>2026-04-25T12:37:37Z</time></trkpt><trkpt lat="45.95586744189227" lon="9.122977392986725"><ele>951.0</ele><time>2026-04-25T12:37:38Z</time></trkpt><trkpt lat="45.955878492331834" lon="9.122849100175436"><ele>951.5</ele><time>2026-04-25T12:37:39Z</time></trkpt><trkpt lat="45.95588816817695" lon="9.122730754462399"><ele>952.0</ele><time>2026-04-25T12:37:40Z</time></trkpt><trkpt lat="45.95590053529158" lon="9.122621026907387"><ele>952.5</ele><time>2026-04-25T12:37:41Z</time></trkpt><trkpt lat="45.95591818114574" lon="9.12253298757313"><ele>953.0</ele><time>2026-04-25T12:37:42Z</time></trkpt><trkpt lat="45.95587367155466" lon="9.122445083794348"><ele>953.5</ele><time>2026-04-25T12:37:44Z</time></trkpt><trkpt lat="45.9557871371549" lon="9.122495373815854"><ele>954.0</ele><time>2026-04-25T12:37:46Z</time></trkpt><trkpt lat="45.955811777445945" lon="9.122634797697724"><ele>946.0</ele><time>2026-04-25T12:37:47Z</time></trkpt><trkpt lat="45.95579289220542" lon="9.12275187380352"><ele>938.0</ele><time>2026-04-25T12:37:48Z</time></trkpt><trkpt lat="45.95577291628784" lon="9.12287638542447"><ele>930.0</ele><time>2026-04-25T12:37:49Z</time></trkpt><trkpt lat="45.9557477288721" lon="9.123014949919451"><ele>922.0</ele><time>2026-04-25T12:37:50Z</time></trkpt><trkpt lat="45.95573124707398" lon="9.123133273910776"><ele>914.0</ele><time>2026-04-25T12:37:51Z</time></trkpt><trkpt lat="45.95571915701153" lon="9.123248296033388"><ele>906.0</ele><time>2026-04-25T12:37:52Z</time></trkpt><trkpt lat="45.955732307634506" lon="9.123369505948611"><ele>905.8</ele><time>2026-04-25T12:37:53Z</time></trkpt><trkpt lat="45.955755295232784" lon="9.123501959071344"><ele>905.5999999999999</ele><time>2026-04-25T12:37:54Z</time></trkpt><trkpt lat="45.955789872315584" lon="9.123641152303255"><ele>905.4</ele><time>2026-04-25T12:37:55Z</time></trkpt><trkpt lat="45.95582327193621" lon="9.123774922274631"><ele>905.2</ele><time>2026-04-25T12:37:56Z</time></trkpt><trkpt lat="45.9558358577351" lon="9.12390562324399"><ele>905.0</ele><time>2026-04-25T12:37:57Z</time></trkpt><trkpt lat="45.955853909325285" lon="9.124002273634606"><ele>905.0</ele><time>2026-04-25T12:37:58Z</time></trkpt><trkpt lat="45.95584409084226" lon="9.124118411690414"><ele>905.0</ele><time>2026-04-25T12:38:00Z</time></trkpt><trkpt lat="45.95577486182605" lon="9.124085964966753"><ele>905.0</ele><time>2026-04-25T12:38:02Z</time></trkpt><trkpt lat="45.95573225906586" lon="9.123898983657856"><ele>905.0</ele><time>2026-04-25T12:38:04.001Z</time></trkpt><trkpt lat="45.95571066637839" lon="9.123764121151545"><ele>905.0</ele><time>2026-04-25T12:38:05.001Z</time></trkpt><trkpt lat="45.95568636809153" lon="9.123611646709447"><ele>905.0</ele><time>2026-04-25T12:38:06.001Z</time></trkpt><trkpt lat="45.95566212960406" lon="9.123457965145732"><ele>905.0</ele><time>2026-04-25T12:38:07.001Z</time></trkpt><trkpt lat="45.95564351438801" lon="9.12330516199148"><ele>905.0</ele><time>2026-04-25T12:38:08.001Z</time></trkpt><trkpt lat="45.95563242686578" lon="9.1231581444318"><ele>905.0</ele><time>2026-04-25T12:38:09.001Z</time></trkpt><trkpt lat="45.95561953339577" lon="9.123016061589958"><ele>905.0</ele><time>2026-04-25T12:38:10.001Z</time></trkpt><trkpt lat="45.95560978775308" lon="9.122887536290149"><ele>905.1666666666667</ele><time>2026-04-25T12:38:11.001Z</time></trkpt><trkpt lat="45.95559971413957" lon="9.122783473142887"><ele>905.3333333333334</ele><time>2026-04-25T12:38:12.001Z</time></trkpt><trkpt lat="45.95556902542352" lon="9.12260972735139"><ele>905.5</ele><time>2026-04-25T12:38:14.001Z</time></trkpt><trkpt lat="45.955531560516704" lon="9.122514424055607"><ele>905.6666666666667</ele><time>2026-04-25T12:38:15.001Z</time></trkpt><trkpt lat="45.955497490936274" lon="9.122400375644936"><ele>905.8333333333334</ele><time>2026-04-25T12:38:16.001Z</time></trkpt><trkpt lat="45.95547189514986" lon="9.122295287014994"><ele>906.0</ele><time>2026-04-25T12:38:17.001Z</time></trkpt><trkpt lat="45.95544331148998" lon="9.122195459600318"><ele>906.2857142857142</ele><time>2026-04-25T12:38:18.001Z</time></trkpt><trkpt lat="45.955422576517286" lon="9.122103291178915"><ele>906.5714285714286</ele><time>2026-04-25T12:38:19.001Z</time></trkpt><trkpt lat="45.955409331552126" lon="9.122011801521479"><ele>906.8571428571429</ele><time>2026-04-25T12:38:20.001Z</time></trkpt><trkpt lat="45.95541760538199" lon="9.121918920356688"><ele>907.1428571428571</ele><time>2026-04-25T12:38:21.001Z</time></trkpt><trkpt lat="45.95544174567688" lon="9.1218281345841"><ele>907.4285714285716</ele><time>2026-04-25T12:38:22.001Z</time></trkpt><trkpt lat="45.955480532047936" lon="9.121727691926631"><ele>907.7142857142858</ele><time>2026-04-25T12:38:23.001Z</time></trkpt><trkpt lat="45.955536891133576" lon="9.121634933225485"><ele>908.0</ele><time>2026-04-25T12:38:24.001Z</time></trkpt><trkpt lat="45.955587787238436" lon="9.121536316247559"><ele>908.0000000000001</ele><time>2026-04-25T12:38:25.001Z</time></trkpt><trkpt lat="45.95562213890247" lon="9.121444533866818"><ele>908.0</ele><time>2026-04-25T12:38:26.001Z</time></trkpt><trkpt lat="45.9556351822409" lon="9.121351330925732"><ele>908.0</ele><time>2026-04-25T12:38:27.001Z</time></trkpt><trkpt lat="45.95564596160711" lon="9.121252642229354"><ele>908.0</ele><time>2026-04-25T12:38:28.001Z</time></trkpt><trkpt lat="45.95560138048599" lon="9.12112828302906"><ele>908.0000000000001</ele><time>2026-04-25T12:38:29.001Z</time></trkpt><trkpt lat="45.955502689882024" lon="9.121082445478"><ele>908.0</ele><time>2026-04-25T12:38:30.001Z</time></trkpt><trkpt lat="45.9554453585879" lon="9.121011435217138"><ele>908.0</ele><time>2026-04-25T12:38:31.001Z</time></trkpt><trkpt lat="45.955378907466084" lon="9.12087610531214"><ele>908.0</ele><time>2026-04-25T12:38:33.001Z</time></trkpt><trkpt lat="45.955374408915866" lon="9.120763554638906"><ele>908.0</ele><time>2026-04-25T12:38:34.001Z</time></trkpt><trkpt lat="45.955381125211865" lon="9.120636491460647"><ele>908.0</ele><time>2026-04-25T12:38:35.001Z</time></trkpt><trkpt lat="45.95540460729224" lon="9.12051383427108"><ele>908.0</ele><time>2026-04-25T12:38:36.001Z</time></trkpt><trkpt lat="45.955418452560956" lon="9.120391195780554"><ele>911.1666666666667</ele><time>2026-04-25T12:38:37.001Z</time></trkpt><trkpt lat="45.95545578847156" lon="9.12029936140064"><ele>914.3333333333334</ele><time>2026-04-25T12:38:38.001Z</time></trkpt><trkpt lat="45.95548447519519" lon="9.12021051064207"><ele>917.5</ele><time>2026-04-25T12:38:39.001Z</time></trkpt><trkpt lat="45.95546741270067" lon="9.120100366093062"><ele>920.6666666666667</ele><time>2026-04-25T12:38:40.001Z</time></trkpt><trkpt lat="45.955417748154126" lon="9.120001139236685"><ele>923.8333333333334</ele><time>2026-04-25T12:38:41.001Z</time></trkpt><trkpt lat="45.95530334901082" lon="9.119955933539408"><ele>927.0</ele><time>2026-04-25T12:38:42.001Z</time></trkpt><trkpt lat="45.95521228506165" lon="9.119904911074395"><ele>929.5</ele><time>2026-04-25T12:38:43.001Z</time></trkpt><trkpt lat="45.95511692087212" lon="9.119850088512363"><ele>932.0</ele><time>2026-04-25T12:38:44.001Z</time></trkpt><trkpt lat="45.955038217651015" lon="9.119804042441087"><ele>934.5</ele><time>2026-04-25T12:38:45.001Z</time></trkpt><trkpt lat="45.954966469770405" lon="9.119761125741045"><ele>937.0</ele><time>2026-04-25T12:38:46.001Z</time></trkpt><trkpt lat="45.95488736432916" lon="9.119732048636685"><ele>939.5</ele><time>2026-04-25T12:38:47.001Z</time></trkpt><trkpt lat="45.9548248093168" lon="9.119654847721037"><ele>942.0</ele><time>2026-04-25T12:38:48.001Z</time></trkpt><trkpt lat="45.95478842201086" lon="9.11956113167245"><ele>935.6</ele><time>2026-04-25T12:38:49.001Z</time></trkpt><trkpt lat="45.954778266833145" lon="9.119453518822697"><ele>929.2</ele><time>2026-04-25T12:38:50.001Z</time></trkpt><trkpt lat="45.954792434701616" lon="9.119323427779536"><ele>922.8</ele><time>2026-04-25T12:38:51.001Z</time></trkpt><trkpt lat="45.954816908583766" lon="9.11917197343648"><ele>916.4</ele><time>2026-04-25T12:38:52.001Z</time></trkpt><trkpt lat="45.954813385727014" lon="9.119013715972512"><ele>910.0</ele><time>2026-04-25T12:38:53.001Z</time></trkpt><trkpt lat="45.95478400176269" lon="9.118847530051392"><ele>910.0</ele><time>2026-04-25T12:38:54.002Z</time></trkpt><trkpt lat="45.95476086423245" lon="9.11866373787599"><ele>910.0</ele><time>2026-04-25T12:38:55.002Z</time></trkpt><trkpt lat="45.9547169683194" lon="9.11848566564602"><ele>910.0</ele><time>2026-04-25T12:38:56.002Z</time></trkpt><trkpt lat="45.954722641332324" lon="9.118316583609888"><ele>910.0</ele><time>2026-04-25T12:38:57.002Z</time></trkpt><trkpt lat="45.95470048337074" lon="9.11817257108478"><ele>914.1666666666666</ele><time>2026-04-25T12:38:58.002Z</time></trkpt><trkpt lat="45.95468988581667" lon="9.118049835377695"><ele>918.3333333333333</ele><time>2026-04-25T12:38:59.002Z</time></trkpt><trkpt lat="45.95468817861111" lon="9.117948705474452"><ele>922.5</ele><time>2026-04-25T12:39:00.002Z</time></trkpt><trkpt lat="45.95463633758886" lon="9.117869346790505"><ele>926.6666666666667</ele><time>2026-04-25T12:39:01.002Z</time></trkpt><trkpt lat="45.95454825248387" lon="9.117833488902022"><ele>930.8333333333334</ele><time>2026-04-25T12:39:02.002Z</time></trkpt><trkpt lat="45.95445290759459" lon="9.117857684498906"><ele>935.0</ele><time>2026-04-25T12:39:03.002Z</time></trkpt><trkpt lat="45.954365413700884" lon="9.117854731388093"><ele>935.0</ele><time>2026-04-25T12:39:04.002Z</time></trkpt><trkpt lat="45.95429942004578" lon="9.117832189733338"><ele>935.0</ele><time>2026-04-25T12:39:05.002Z</time></trkpt><trkpt lat="45.954232843311935" lon="9.117774368165527"><ele>935.0</ele><time>2026-04-25T12:39:06.002Z</time></trkpt><trkpt lat="45.95417540125435" lon="9.117669907815307"><ele>935.0</ele><time>2026-04-25T12:39:07.002Z</time></trkpt><trkpt lat="45.95412515226691" lon="9.117519056122935"><ele>935.0</ele><time>2026-04-25T12:39:08.002Z</time></trkpt><trkpt lat="45.954084351804866" lon="9.117366069825191"><ele>929.2</ele><time>2026-04-25T12:39:09.002Z</time></trkpt><trkpt lat="45.95402236927019" lon="9.117240347317473"><ele>923.4</ele><time>2026-04-25T12:39:10.002Z</time></trkpt><trkpt lat="45.95394044007532" lon="9.117145921377544"><ele>917.5999999999999</ele><time>2026-04-25T12:39:11.002Z</time></trkpt><trkpt lat="45.95386290835819" lon="9.117050243830365"><ele>911.8</ele><time>2026-04-25T12:39:12.002Z</time></trkpt><trkpt lat="45.95380346548137" lon="9.116934481401428"><ele>906.0</ele><time>2026-04-25T12:39:13.002Z</time></trkpt><trkpt lat="45.95377644632961" lon="9.116781769569773"><ele>906.0</ele><time>2026-04-25T12:39:14.002Z</time></trkpt><trkpt lat="45.95374550218559" lon="9.11660932029246"><ele>906.0</ele><time>2026-04-25T12:39:15.002Z</time></trkpt><trkpt lat="45.95371249888431" lon="9.116424301787594"><ele>906.0</ele><time>2026-04-25T12:39:16.002Z</time></trkpt><trkpt lat="45.953682746572774" lon="9.11625750851113"><ele>906.0</ele><time>2026-04-25T12:39:17.002Z</time></trkpt><trkpt lat="45.95363956604086" lon="9.116102296799687"><ele>908.1999999999999</ele><time>2026-04-25T12:39:18.002Z</time></trkpt><trkpt lat="45.95362318937103" lon="9.115937279685507"><ele>910.3999999999999</ele><time>2026-04-25T12:39:19.002Z</time></trkpt><trkpt lat="45.95362505330114" lon="9.115785566702613"><ele>912.6</ele><time>2026-04-25T12:39:20.002Z</time></trkpt><trkpt lat="45.953629278763984" lon="9.11564520530851"><ele>914.8</ele><time>2026-04-25T12:39:21.002Z</time></trkpt><trkpt lat="45.95362393454359" lon="9.115515500948453"><ele>917.0</ele><time>2026-04-25T12:39:22.002Z</time></trkpt><trkpt lat="45.9535453851333" lon="9.115427794494781"><ele>918.6</ele><time>2026-04-25T12:39:23.002Z</time></trkpt><trkpt lat="45.953467394480946" lon="9.11535173771421"><ele>920.2</ele><time>2026-04-25T12:39:24.002Z</time></trkpt><trkpt lat="45.95340033300241" lon="9.115238883514875"><ele>921.8</ele><time>2026-04-25T12:39:25.002Z</time></trkpt><trkpt lat="45.953342860464126" lon="9.115134127838248"><ele>923.4</ele><time>2026-04-25T12:39:26.002Z</time></trkpt><trkpt lat="45.95330184257053" lon="9.11503112801904"><ele>925.0</ele><time>2026-04-25T12:39:27.002Z</time></trkpt><trkpt lat="45.953262934415996" lon="9.114914972866776"><ele>914.6</ele><time>2026-04-25T12:39:28.002Z</time></trkpt><trkpt lat="45.9532221677206" lon="9.114803700501326"><ele>904.2</ele><time>2026-04-25T12:39:29.002Z</time></trkpt><trkpt lat="45.95324356820515" lon="9.114662519406744"><ele>893.8</ele><time>2026-04-25T12:39:30.002Z</time></trkpt><trkpt lat="45.95325349893763" lon="9.114502411894476"><ele>883.4</ele><time>2026-04-25T12:39:31.002Z</time></trkpt><trkpt lat="45.95326340483114" lon="9.114329372937247"><ele>873.0</ele><time>2026-04-25T12:39:32.002Z</time></trkpt><trkpt lat="45.95327378069461" lon="9.114146206239777"><ele>872.2</ele><time>2026-04-25T12:39:33.002Z</time></trkpt><trkpt lat="45.95327410512234" lon="9.113972483934088"><ele>871.4</ele><time>2026-04-25T12:39:34.002Z</time></trkpt><trkpt lat="45.95328479797936" lon="9.113818807117053"><ele>870.6000000000001</ele><time>2026-04-25T12:39:35.002Z</time></trkpt><trkpt lat="45.95329534411632" lon="9.113678025158862"><ele>869.8000000000001</ele><time>2026-04-25T12:39:36.002Z</time></trkpt><trkpt lat="45.953303472943155" lon="9.113540852115696"><ele>869.0</ele><time>2026-04-25T12:39:37Z</time></trkpt><trkpt lat="45.9533028363861" lon="9.11342645190853"><ele>869.0</ele><time>2026-04-25T12:39:38Z</time></trkpt><trkpt lat="45.95330322735952" lon="9.113322699229215"><ele>869.0</ele><time>2026-04-25T12:39:39Z</time></trkpt><trkpt lat="45.953307565565176" lon="9.113217419160081"><ele>869.0</ele><time>2026-04-25T12:39:40Z</time></trkpt><trkpt lat="45.95331834295016" lon="9.113116311434636"><ele>869.0</ele><time>2026-04-25T12:39:41Z</time></trkpt><trkpt lat="45.953350085413135" lon="9.113028255563137"><ele>869.0</ele><time>2026-04-25T12:39:42Z</time></trkpt><trkpt lat="45.95342142022588" lon="9.112980709351683"><ele>869.0</ele><time>2026-04-25T12:39:43Z</time></trkpt><trkpt lat="45.9534937562676" lon="9.112962943851533"><ele>869.0</ele><time>2026-04-25T12:39:44Z</time></trkpt><trkpt lat="45.95356580582227" lon="9.112983175952852"><ele>869.8000000000001</ele><time>2026-04-25T12:39:45Z</time></trkpt><trkpt lat="45.95366821854957" lon="9.112964674836565"><ele>870.6000000000001</ele><time>2026-04-25T12:39:47Z</time></trkpt><trkpt lat="45.9537490269802" lon="9.112853022759467"><ele>871.4</ele><time>2026-04-25T12:39:49Z</time></trkpt><trkpt lat="45.953804557530866" lon="9.112763139539682"><ele>872.2</ele><time>2026-04-25T12:39:50Z</time></trkpt><trkpt lat="45.95386614429536" lon="9.112655885663376"><ele>873.0</ele><time>2026-04-25T12:39:51Z</time></trkpt><trkpt lat="45.95391181404938" lon="9.112518467300513"><ele>873.0</ele><time>2026-04-25T12:39:52Z</time></trkpt><trkpt lat="45.95397498405297" lon="9.112410707189067"><ele>873.0</ele><time>2026-04-25T12:39:53Z</time></trkpt><trkpt lat="45.954031441862845" lon="9.112307159272977"><ele>873.0</ele><time>2026-04-25T12:39:54Z</time></trkpt><trkpt lat="45.95409817755809" lon="9.112214492460755"><ele>873.0</ele><time>2026-04-25T12:39:55Z</time></trkpt><trkpt lat="45.95416563632022" lon="9.112145008202177"><ele>873.0</ele><time>2026-04-25T12:39:56Z</time></trkpt><trkpt lat="45.95424360551903" lon="9.112095115427161"><ele>874.1666666666666</ele><time>2026-04-25T12:39:57Z</time></trkpt><trkpt lat="45.95433393516299" lon="9.112059568157758"><ele>875.3333333333333</ele><time>2026-04-25T12:39:58Z</time></trkpt><trkpt lat="45.954407410198606" lon="9.112048835316573"><ele>876.5</ele><time>2026-04-25T12:39:59Z</time></trkpt><trkpt lat="45.95448236688024" lon="9.112028805670743"><ele>877.6666666666666</ele><time>2026-04-25T12:40:00Z</time></trkpt><trkpt lat="45.95453319896214" lon="9.11196643973869"><ele>878.8333333333333</ele><time>2026-04-25T12:40:01Z</time></trkpt><trkpt lat="45.95457798395954" lon="9.111880502642093"><ele>880.0</ele><time>2026-04-25T12:40:02Z</time></trkpt><trkpt lat="45.95455180083881" lon="9.11174128299145"><ele>879.9999999999999</ele><time>2026-04-25T12:40:03Z</time></trkpt><trkpt lat="45.95456532075553" lon="9.11160312094335"><ele>880.0</ele><time>2026-04-25T12:40:04Z</time></trkpt><trkpt lat="45.954573139729504" lon="9.111484924696489"><ele>880.0</ele><time>2026-04-25T12:40:05Z</time></trkpt><trkpt lat="45.95459308652118" lon="9.111369085657422"><ele>880.0</ele><time>2026-04-25T12:40:06Z</time></trkpt><trkpt lat="45.954624377852895" lon="9.11126964959436"><ele>879.9999999999999</ele><time>2026-04-25T12:40:07Z</time></trkpt><trkpt lat="45.9546815255333" lon="9.111211579825508"><ele>880.0</ele><time>2026-04-25T12:40:08Z</time></trkpt><trkpt lat="45.9547549476995" lon="9.111168972589015"><ele>880.9999999999999</ele><time>2026-04-25T12:40:09Z</time></trkpt><trkpt lat="45.954825584491495" lon="9.111132874560802"><ele>882.0</ele><time>2026-04-25T12:40:10Z</time></trkpt><trkpt lat="45.95489900914491" lon="9.111124737518823"><ele>883.0</ele><time>2026-04-25T12:40:11Z</time></trkpt><trkpt lat="45.954959404411014" lon="9.111053592007442"><ele>884.0</ele><time>2026-04-25T12:40:12Z</time></trkpt><trkpt lat="45.95497228615887" lon="9.110955374939923"><ele>884.9999999999999</ele><time>2026-04-25T12:40:13.001Z</time></trkpt><trkpt lat="45.95494537327169" lon="9.110843282430496"><ele>886.0</ele><time>2026-04-25T12:40:14.001Z</time></trkpt><trkpt lat="45.954877891385856" lon="9.11072953330953"><ele>886.0</ele><time>2026-04-25T12:40:15.001Z</time></trkpt><trkpt lat="45.954817360329564" lon="9.110623898728903"><ele>886.0</ele><time>2026-04-25T12:40:16.001Z</time></trkpt><trkpt lat="45.95477913351584" lon="9.110526267750377"><ele>886.0</ele><time>2026-04-25T12:40:17.001Z</time></trkpt><trkpt lat="45.954777100972606" lon="9.110433855130294"><ele>886.0</ele><time>2026-04-25T12:40:18.001Z</time></trkpt><trkpt lat="45.95478443570647" lon="9.110335574379228"><ele>886.0</ele><time>2026-04-25T12:40:19.001Z</time></trkpt><trkpt lat="45.95479303100607" lon="9.110236873782904"><ele>886.0</ele><time>2026-04-25T12:40:20.001Z</time></trkpt><trkpt lat="45.95477012325795" lon="9.110139763738589"><ele>886.0</ele><time>2026-04-25T12:40:21.001Z</time></trkpt><trkpt lat="45.95471893247173" lon="9.110078541109338"><ele>886.0</ele><time>2026-04-25T12:40:22.001Z</time></trkpt><trkpt lat="45.95463199048907" lon="9.110083239223172"><ele>885.9999999999999</ele><time>2026-04-25T12:40:23.001Z</time></trkpt><trkpt lat="45.95454633336526" lon="9.110139991863248"><ele>885.9999999999999</ele><time>2026-04-25T12:40:24.001Z</time></trkpt><trkpt lat="45.954437226670784" lon="9.110181780655969"><ele>886.0</ele><time>2026-04-25T12:40:25.001Z</time></trkpt><trkpt lat="45.954332965890664" lon="9.11020910074281"><ele>886.0</ele><time>2026-04-25T12:40:26.001Z</time></trkpt><trkpt lat="45.954239604046585" lon="9.110228994111228"><ele>882.0</ele><time>2026-04-25T12:40:27.001Z</time></trkpt><trkpt lat="45.954152484316744" lon="9.110266443818103"><ele>877.9999999999999</ele><time>2026-04-25T12:40:28.001Z</time></trkpt><trkpt lat="45.95405482231757" lon="9.110212091031247"><ele>873.9999999999999</ele><time>2026-04-25T12:40:29.001Z</time></trkpt><trkpt lat="45.953965786453914" lon="9.11015090833218"><ele>870.0</ele><time>2026-04-25T12:40:30.001Z</time></trkpt><trkpt lat="45.953866260944146" lon="9.110159249267577"><ele>866.0</ele><time>2026-04-25T12:40:31.001Z</time></trkpt><trkpt lat="45.95378570781936" lon="9.11016373921558"><ele>866.0</ele><time>2026-04-25T12:40:32.001Z</time></trkpt><trkpt lat="45.9537176719592" lon="9.110144209939648"><ele>865.9999999999999</ele><time>2026-04-25T12:40:33.001Z</time></trkpt><trkpt lat="45.95365574458629" lon="9.110079356719938"><ele>865.9999999999999</ele><time>2026-04-25T12:40:34.001Z</time></trkpt><trkpt lat="45.95358575941093" lon="9.10995944581127"><ele>866.0</ele><time>2026-04-25T12:40:35.001Z</time></trkpt><trkpt lat="45.95350391159256" lon="9.109824349260265"><ele>866.0</ele><time>2026-04-25T12:40:36.001Z</time></trkpt><trkpt lat="45.953434004172586" lon="9.109684523767744"><ele>867.75</ele><time>2026-04-25T12:40:37.001Z</time></trkpt><trkpt lat="45.9533629992998" lon="9.109529113955517"><ele>869.5</ele><time>2026-04-25T12:40:38.001Z</time></trkpt><trkpt lat="45.95324850632123" lon="9.109414848153145"><ele>871.25</ele><time>2026-04-25T12:40:39.001Z</time></trkpt><trkpt lat="45.95312708974667" lon="9.109302477514673"><ele>873.0</ele><time>2026-04-25T12:40:40.001Z</time></trkpt><trkpt lat="45.95300682052932" lon="9.109190171470493"><ele>873.0</ele><time>2026-04-25T12:40:41.001Z</time></trkpt><trkpt lat="45.952898046963064" lon="9.109090668576565"><ele>873.0</ele><time>2026-04-25T12:40:42.001Z</time></trkpt><trkpt lat="45.95279191812413" lon="9.108993906777421"><ele>873.0</ele><time>2026-04-25T12:40:43.001Z</time></trkpt><trkpt lat="45.95270524232117" lon="9.108905253396"><ele>873.0</ele><time>2026-04-25T12:40:44.001Z</time></trkpt><trkpt lat="45.95263387905993" lon="9.108812101165997"><ele>871.5</ele><time>2026-04-25T12:40:45.001Z</time></trkpt><trkpt lat="45.95258596302547" lon="9.108684617919678"><ele>870.0</ele><time>2026-04-25T12:40:46.001Z</time></trkpt><trkpt lat="45.95253732800352" lon="9.108530143895944"><ele>868.5</ele><time>2026-04-25T12:40:47.001Z</time></trkpt><trkpt lat="45.95249678583372" lon="9.108354428024152"><ele>867.0</ele><time>2026-04-25T12:40:48.001Z</time></trkpt><trkpt lat="45.952448752890994" lon="9.108132958424166"><ele>867.0</ele><time>2026-04-25T12:40:49.001Z</time></trkpt><trkpt lat="45.95241041695805" lon="9.107949508838198"><ele>867.0</ele><time>2026-04-25T12:40:50.001Z</time></trkpt><trkpt lat="45.95236785632794" lon="9.107786301989325"><ele>867.0</ele><time>2026-04-25T12:40:51.001Z</time></trkpt><trkpt lat="45.952311680593816" lon="9.10762597424849"><ele>867.0</ele><time>2026-04-25T12:40:52.001Z</time></trkpt><trkpt lat="45.95224894018682" lon="9.1074975976291"><ele>874.75</ele><time>2026-04-25T12:40:53.001Z</time></trkpt><trkpt lat="45.95217550578883" lon="9.107382224718663"><ele>882.5</ele><time>2026-04-25T12:40:54.001Z</time></trkpt><trkpt lat="45.95207485517265" lon="9.1072930289457"><ele>890.25</ele><time>2026-04-25T12:40:55.001Z</time></trkpt><trkpt lat="45.95196400883157" lon="9.10720254503848"><ele>898.0</ele><time>2026-04-25T12:40:56.001Z</time></trkpt><trkpt lat="45.95184381142626" lon="9.107117998527906"><ele>898.0</ele><time>2026-04-25T12:40:57.001Z</time></trkpt><trkpt lat="45.951733317809925" lon="9.107027207847626"><ele>898.0</ele><time>2026-04-25T12:40:58.001Z</time></trkpt><trkpt lat="45.95163182437102" lon="9.106936815425884"><ele>898.0</ele><time>2026-04-25T12:40:59.001Z</time></trkpt><trkpt lat="45.95153741087176" lon="9.106857852716379"><ele>898.0</ele><time>2026-04-25T12:41:00.001Z</time></trkpt><trkpt lat="45.951442014684474" lon="9.106763030135667"><ele>896.0</ele><time>2026-04-25T12:41:01.001Z</time></trkpt><trkpt lat="45.95135385660619" lon="9.10662978617866"><ele>894.0</ele><time>2026-04-25T12:41:02.001Z</time></trkpt><trkpt lat="45.95126459660908" lon="9.106494093114291"><ele>892.0</ele><time>2026-04-25T12:41:03.001Z</time></trkpt><trkpt lat="45.95119530630236" lon="9.106333111837147"><ele>890.0</ele><time>2026-04-25T12:41:04.002Z</time></trkpt><trkpt lat="45.95112797985862" lon="9.10619763429171"><ele>890.0</ele><time>2026-04-25T12:41:05.002Z</time></trkpt><trkpt lat="45.95107501408998" lon="9.106058496452508"><ele>890.0</ele><time>2026-04-25T12:41:06.002Z</time></trkpt><trkpt lat="45.95100672212475" lon="9.1059351939097"><ele>890.0</ele><time>2026-04-25T12:41:07.002Z</time></trkpt><trkpt lat="45.95095874841049" lon="9.10577947999158"><ele>890.0</ele><time>2026-04-25T12:41:08.002Z</time></trkpt><trkpt lat="45.95094429141076" lon="9.105611784010561"><ele>894.0</ele><time>2026-04-25T12:41:09.002Z</time></trkpt><trkpt lat="45.950909103751556" lon="9.105453968655178"><ele>898.0</ele><time>2026-04-25T12:41:10.002Z</time></trkpt><trkpt lat="45.95086666303014" lon="9.10531480036667"><ele>902.0</ele><time>2026-04-25T12:41:11.002Z</time></trkpt><trkpt lat="45.95084503109865" lon="9.105193356246245"><ele>906.0</ele><time>2026-04-25T12:41:12.002Z</time></trkpt><trkpt lat="45.950836764199565" lon="9.105083721986773"><ele>910.0</ele><time>2026-04-25T12:41:13.002Z</time></trkpt><trkpt lat="45.95084428071911" lon="9.104971055347914"><ele>908.5</ele><time>2026-04-25T12:41:14.002Z</time></trkpt><trkpt lat="45.95085646321921" lon="9.104826478148304"><ele>907.0</ele><time>2026-04-25T12:41:15.002Z</time></trkpt><trkpt lat="45.950876155085936" lon="9.104660629327913"><ele>905.5</ele><time>2026-04-25T12:41:16.002Z</time></trkpt><trkpt lat="45.950902905445844" lon="9.104483773634875"><ele>904.0</ele><time>2026-04-25T12:41:17.002Z</time></trkpt><trkpt lat="45.95093294148582" lon="9.104299641812895"><ele>904.0</ele><time>2026-04-25T12:41:18.002Z</time></trkpt><trkpt lat="45.95096208688685" lon="9.10410677998465"><ele>904.0</ele><time>2026-04-25T12:41:19.002Z</time></trkpt><trkpt lat="45.95097467596645" lon="9.103913515165647"><ele>904.0</ele><time>2026-04-25T12:41:20.002Z</time></trkpt><trkpt lat="45.9509708069477" lon="9.103716230142357"><ele>904.0</ele><time>2026-04-25T12:41:21.002Z</time></trkpt><trkpt lat="45.951008798858034" lon="9.103539297443506"><ele>900.0</ele><time>2026-04-25T12:41:22.002Z</time></trkpt><trkpt lat="45.951036157358764" lon="9.103372749833278"><ele>896.0</ele><time>2026-04-25T12:41:23.002Z</time></trkpt><trkpt lat="45.95105013446964" lon="9.103182325164669"><ele>892.0</ele><time>2026-04-25T12:41:24.002Z</time></trkpt><trkpt lat="45.95104302087067" lon="9.102962792937177"><ele>888.0</ele><time>2026-04-25T12:41:25.002Z</time></trkpt><trkpt lat="45.95106797663998" lon="9.102754495179742"><ele>883.5</ele><time>2026-04-25T12:41:26.002Z</time></trkpt><trkpt lat="45.9511073898899" lon="9.10255309139517"><ele>879.0</ele><time>2026-04-25T12:41:27.002Z</time></trkpt><trkpt lat="45.951145470819576" lon="9.10236524089273"><ele>874.5</ele><time>2026-04-25T12:41:28.002Z</time></trkpt><trkpt lat="45.951178076477056" lon="9.102187283830816"><ele>870.0</ele><time>2026-04-25T12:41:29.002Z</time></trkpt><trkpt lat="45.9512134295057" lon="9.10202868998068"><ele>865.2</ele><time>2026-04-25T12:41:30.002Z</time></trkpt><trkpt lat="45.95125890176766" lon="9.101884401842947"><ele>860.4</ele><time>2026-04-25T12:41:31.002Z</time></trkpt><trkpt lat="45.95130000106135" lon="9.101757361836018"><ele>855.5999999999999</ele><time>2026-04-25T12:41:32.002Z</time></trkpt><trkpt lat="45.951340073173185" lon="9.101656242921983"><ele>850.8</ele><time>2026-04-25T12:41:33.002Z</time></trkpt><trkpt lat="45.95140724190426" lon="9.101565550807246"><ele>846.0</ele><time>2026-04-25T12:41:34.002Z</time></trkpt><trkpt lat="45.95148793677273" lon="9.101466148041597"><ele>846.25</ele><time>2026-04-25T12:41:35.002Z</time></trkpt><trkpt lat="45.951575053586694" lon="9.101346172877038"><ele>846.5</ele><time>2026-04-25T12:41:36.002Z</time></trkpt><trkpt lat="45.95166416298672" lon="9.101210253000213"><ele>846.75</ele><time>2026-04-25T12:41:37.002Z</time></trkpt><trkpt lat="45.951734505627485" lon="9.101058311435896"><ele>847.0</ele><time>2026-04-25T12:41:38.002Z</time></trkpt><trkpt lat="45.951802904804296" lon="9.100915590498126"><ele>847.0</ele><time>2026-04-25T12:41:39.002Z</time></trkpt><trkpt lat="45.95187024901719" lon="9.100787378661142"><ele>847.0</ele><time>2026-04-25T12:41:40.002Z</time></trkpt><trkpt lat="45.95193322318111" lon="9.100683550156717"><ele>847.0</ele><time>2026-04-25T12:41:41.002Z</time></trkpt><trkpt lat="45.95200298147111" lon="9.100584002861392"><ele>847.0</ele><time>2026-04-25T12:41:42.002Z</time></trkpt><trkpt lat="45.952100746434525" lon="9.100510600059069"><ele>847.0</ele><time>2026-04-25T12:41:43Z</time></trkpt><trkpt lat="45.95221103342035" lon="9.100430536552281"><ele>840.6</ele><time>2026-04-25T12:41:44Z</time></trkpt><trkpt lat="45.952297647589596" lon="9.100320302502421"><ele>834.2</ele><time>2026-04-25T12:41:45Z</time></trkpt><trkpt lat="45.952392061153" lon="9.100249433744947"><ele>827.8</ele><time>2026-04-25T12:41:46Z</time></trkpt><trkpt lat="45.952467639832214" lon="9.100159924669306"><ele>821.4</ele><time>2026-04-25T12:41:47Z</time></trkpt><trkpt lat="45.952547318345054" lon="9.100118158893117"><ele>815.0</ele><time>2026-04-25T12:41:48Z</time></trkpt><trkpt lat="45.95262892623889" lon="9.100108842965618"><ele>812.1666666666667</ele><time>2026-04-25T12:41:49Z</time></trkpt><trkpt lat="45.95270957231027" lon="9.100124121940315"><ele>809.3333333333334</ele><time>2026-04-25T12:41:50Z</time></trkpt><trkpt lat="45.95279396508976" lon="9.100156986567164"><ele>806.5</ele><time>2026-04-25T12:41:51Z</time></trkpt><trkpt lat="45.95286371180702" lon="9.100198364457574"><ele>803.6666666666667</ele><time>2026-04-25T12:41:52Z</time></trkpt><trkpt lat="45.95292497895658" lon="9.10025658321621"><ele>800.8333333333334</ele><time>2026-04-25T12:41:53Z</time></trkpt><trkpt lat="45.95298262872134" lon="9.10033822960977"><ele>798.0</ele><time>2026-04-25T12:41:54Z</time></trkpt><trkpt lat="45.953034130667035" lon="9.100472912575015"><ele>798.0</ele><time>2026-04-25T12:41:55Z</time></trkpt><trkpt lat="45.95308791193817" lon="9.100610459738474"><ele>798.0</ele><time>2026-04-25T12:41:56Z</time></trkpt><trkpt lat="45.95316024864372" lon="9.100729692904638"><ele>798.0</ele><time>2026-04-25T12:41:57Z</time></trkpt><trkpt lat="45.95324152776637" lon="9.100833403416727"><ele>798.0</ele><time>2026-04-25T12:41:58Z</time></trkpt><trkpt lat="45.95333017361789" lon="9.100930018642819"><ele>798.0</ele><time>2026-04-25T12:41:59Z</time></trkpt><trkpt lat="45.95340719284636" lon="9.101013589774821"><ele>801.0</ele><time>2026-04-25T12:42:00Z</time></trkpt><trkpt lat="45.95353194715854" lon="9.101030897222964"><ele>804.0</ele><time>2026-04-25T12:42:01Z</time></trkpt><trkpt lat="45.95365555938389" lon="9.101076605241277"><ele>807.0</ele><time>2026-04-25T12:42:02Z</time></trkpt><trkpt lat="45.953778657006076" lon="9.101144984811045"><ele>810.0</ele><time>2026-04-25T12:42:03Z</time></trkpt><trkpt lat="45.9539202945202" lon="9.10113777378284"><ele>810.0</ele><time>2026-04-25T12:42:04Z</time></trkpt><trkpt lat="45.95406194171771" lon="9.101148647518851"><ele>810.0</ele><time>2026-04-25T12:42:05Z</time></trkpt><trkpt lat="45.9541918522858" lon="9.101130373195383"><ele>810.0</ele><time>2026-04-25T12:42:06Z</time></trkpt><trkpt lat="45.954316757614684" lon="9.101106929684223"><ele>810.0</ele><time>2026-04-25T12:42:07Z</time></trkpt><trkpt lat="45.95441469216901" lon="9.101088707649987"><ele>806.3333333333334</ele><time>2026-04-25T12:42:08Z</time></trkpt><trkpt lat="45.954482911698946" lon="9.101078406549199"><ele>802.6666666666667</ele><time>2026-04-25T12:42:09Z</time></trkpt><trkpt lat="45.954561731068125" lon="9.101095931649342"><ele>799.0</ele><time>2026-04-25T12:42:11Z</time></trkpt><trkpt lat="45.95461065200152" lon="9.101190772840608"><ele>795.3333333333334</ele><time>2026-04-25T12:42:12Z</time></trkpt><trkpt lat="45.95469226627297" lon="9.101294365759939"><ele>791.6666666666667</ele><time>2026-04-25T12:42:13Z</time></trkpt><trkpt lat="45.954764508421064" lon="9.101400967038675"><ele>788.0</ele><time>2026-04-25T12:42:14Z</time></trkpt><trkpt lat="45.95482034432178" lon="9.101502160333416"><ele>794.6666666666667</ele><time>2026-04-25T12:42:15Z</time></trkpt><trkpt lat="45.95486558377261" lon="9.10158489505959"><ele>801.3333333333334</ele><time>2026-04-25T12:42:16Z</time></trkpt><trkpt lat="45.954916004911325" lon="9.101680545840773"><ele>808.0</ele><time>2026-04-25T12:42:17Z</time></trkpt><trkpt lat="45.9549756267792" lon="9.10172937543491"><ele>814.6666666666667</ele><time>2026-04-25T12:42:18Z</time></trkpt><trkpt lat="45.95506693307505" lon="9.10175601063948"><ele>821.3333333333334</ele><time>2026-04-25T12:42:19Z</time></trkpt><trkpt lat="45.95518033258385" lon="9.101715181167659"><ele>828.0</ele><time>2026-04-25T12:42:20Z</time></trkpt><trkpt lat="45.95526977893999" lon="9.101603028800067"><ele>819.4</ele><time>2026-04-25T12:42:21Z</time></trkpt><trkpt lat="45.95535017165711" lon="9.101510059425115"><ele>810.8</ele><time>2026-04-25T12:42:22Z</time></trkpt><trkpt lat="45.95541512399758" lon="9.101438248308604"><ele>802.2</ele><time>2026-04-25T12:42:23Z</time></trkpt><trkpt lat="45.95547611956548" lon="9.101379578966073"><ele>793.6</ele><time>2026-04-25T12:42:24Z</time></trkpt><trkpt lat="45.955599621285685" lon="9.101363303468098"><ele>785.0</ele><time>2026-04-25T12:42:26Z</time></trkpt><trkpt lat="45.9556876057193" lon="9.101337329878138"><ele>785.0000000000001</ele><time>2026-04-25T12:42:27Z</time></trkpt><trkpt lat="45.955779738724054" lon="9.101267873155178"><ele>785.0</ele><time>2026-04-25T12:42:28Z</time></trkpt><trkpt lat="45.95585306898905" lon="9.101207161624943"><ele>785.0</ele><time>2026-04-25T12:42:29.001Z</time></trkpt><trkpt lat="45.95592266072201" lon="9.101164393195377"><ele>785.0</ele><time>2026-04-25T12:42:30.001Z</time></trkpt><trkpt lat="45.95599538874149" lon="9.101154653328146"><ele>785.0000000000001</ele><time>2026-04-25T12:42:31.001Z</time></trkpt><trkpt lat="45.95607027713243" lon="9.101191706955646"><ele>785.0</ele><time>2026-04-25T12:42:32.001Z</time></trkpt><trkpt lat="45.95614945033051" lon="9.101226272054074"><ele>787.4</ele><time>2026-04-25T12:42:33.001Z</time></trkpt><trkpt lat="45.95623126764545" lon="9.101257393148874"><ele>789.8</ele><time>2026-04-25T12:42:34.001Z</time></trkpt><trkpt lat="45.95632506687509" lon="9.101233014635259"><ele>792.2</ele><time>2026-04-25T12:42:35.001Z</time></trkpt><trkpt lat="45.95643754936371" lon="9.101262043540059"><ele>794.6</ele><time>2026-04-25T12:42:37.001Z</time></trkpt><trkpt lat="45.95650424586908" lon="9.101324240329545"><ele>797.0</ele><time>2026-04-25T12:42:38.001Z</time></trkpt><trkpt lat="45.956566798153794" lon="9.101398833131613"><ele>797.0</ele><time>2026-04-25T12:42:39.001Z</time></trkpt><trkpt lat="45.95661212015855" lon="9.101497230074406"><ele>797.0</ele><time>2026-04-25T12:42:40.001Z</time></trkpt><trkpt lat="45.95668706628417" lon="9.101655532135844"><ele>797.0</ele><time>2026-04-25T12:42:42.001Z</time></trkpt><trkpt lat="45.95676531837512" lon="9.101692485548849"><ele>797.0</ele><time>2026-04-25T12:42:43.001Z</time></trkpt><trkpt lat="45.95684898936583" lon="9.101658878333266"><ele>797.0</ele><time>2026-04-25T12:42:44.001Z</time></trkpt><trkpt lat="45.956925416886214" lon="9.101560404814213"><ele>799.0</ele><time>2026-04-25T12:42:45.001Z</time></trkpt><trkpt lat="45.95700439893352" lon="9.101462126193955"><ele>801.0</ele><time>2026-04-25T12:42:46.001Z</time></trkpt><trkpt lat="45.95708143345077" lon="9.10136609026705"><ele>803.0</ele><time>2026-04-25T12:42:47.001Z</time></trkpt><trkpt lat="45.95714241523361" lon="9.101296369592294"><ele>805.0</ele><time>2026-04-25T12:42:48.001Z</time></trkpt><trkpt lat="45.95725647452589" lon="9.101269236079203"><ele>807.0</ele><time>2026-04-25T12:42:50.001Z</time></trkpt><trkpt lat="45.9573396105252" lon="9.101265962531281"><ele>807.0</ele><time>2026-04-25T12:42:51.001Z</time></trkpt><trkpt lat="45.957416503132556" lon="9.101261315189298"><ele>807.0</ele><time>2026-04-25T12:42:52.001Z</time></trkpt><trkpt lat="45.957484286479705" lon="9.10123625315473"><ele>807.0</ele><time>2026-04-25T12:42:53.001Z</time></trkpt><trkpt lat="45.957533924896616" lon="9.101165603150402"><ele>807.0</ele><time>2026-04-25T12:42:54.001Z</time></trkpt><trkpt lat="45.95753054201318" lon="9.101015219911094"><ele>807.0</ele><time>2026-04-25T12:42:55.001Z</time></trkpt><trkpt lat="45.957498498575085" lon="9.100889973606957"><ele>807.0</ele><time>2026-04-25T12:42:56.001Z</time></trkpt><trkpt lat="45.957483786988796" lon="9.10076988459886"><ele>804.3333333333334</ele><time>2026-04-25T12:42:57.001Z</time></trkpt><trkpt lat="45.957473673209684" lon="9.100631036313969"><ele>801.6666666666667</ele><time>2026-04-25T12:42:58.001Z</time></trkpt><trkpt lat="45.957466068974796" lon="9.100493248827904"><ele>799.0</ele><time>2026-04-25T12:42:59.001Z</time></trkpt><trkpt lat="45.9574672480103" lon="9.100376367250679"><ele>796.3333333333334</ele><time>2026-04-25T12:43:00.001Z</time></trkpt><trkpt lat="45.95747296644602" lon="9.100262926532908"><ele>793.6666666666667</ele><time>2026-04-25T12:43:01.001Z</time></trkpt><trkpt lat="45.957485552209505" lon="9.100154743109691"><ele>791.0</ele><time>2026-04-25T12:43:02.001Z</time></trkpt><trkpt lat="45.957515227363075" lon="9.100060289026175"><ele>792.1999999999999</ele><time>2026-04-25T12:43:03.001Z</time></trkpt><trkpt lat="45.95755418725235" lon="9.099953624081072"><ele>793.4</ele><time>2026-04-25T12:43:04.001Z</time></trkpt><trkpt lat="45.95760523242914" lon="9.099846055876641"><ele>794.6</ele><time>2026-04-25T12:43:05.001Z</time></trkpt><trkpt lat="45.957676748526644" lon="9.09974397449675"><ele>795.8</ele><time>2026-04-25T12:43:06.001Z</time></trkpt><trkpt lat="45.95776693972675" lon="9.099631534251845"><ele>797.0</ele><time>2026-04-25T12:43:07.001Z</time></trkpt><trkpt lat="45.95785076503358" lon="9.099523339670219"><ele>797.0</ele><time>2026-04-25T12:43:08.001Z</time></trkpt><trkpt lat="45.95793551120465" lon="9.099427864714734"><ele>797.0</ele><time>2026-04-25T12:43:09.001Z</time></trkpt><trkpt lat="45.95802392605446" lon="9.099342730349473"><ele>797.0</ele><time>2026-04-25T12:43:10.001Z</time></trkpt><trkpt lat="45.95811843953731" lon="9.099263335907764"><ele>797.0</ele><time>2026-04-25T12:43:11.001Z</time></trkpt><trkpt lat="45.95821730436814" lon="9.099200289377373"><ele>797.0</ele><time>2026-04-25T12:43:12.001Z</time></trkpt><trkpt lat="45.958313307095075" lon="9.099141496149986"><ele>795.2</ele><time>2026-04-25T12:43:13.001Z</time></trkpt><trkpt lat="45.958405516420804" lon="9.099072617465701"><ele>793.4000000000001</ele><time>2026-04-25T12:43:14.001Z</time></trkpt><trkpt lat="45.95847740519639" lon="9.098952304443117"><ele>791.5999999999999</ele><time>2026-04-25T12:43:15.002Z</time></trkpt><trkpt lat="45.95856696346759" lon="9.09885993900925"><ele>789.8</ele><time>2026-04-25T12:43:16.002Z</time></trkpt><trkpt lat="45.958629973296176" lon="9.098729793389095"><ele>788.0</ele><time>2026-04-25T12:43:17.002Z</time></trkpt><trkpt lat="45.958703471312774" lon="9.098628455326878"><ele>788.0000000000001</ele><time>2026-04-25T12:43:18.002Z</time></trkpt><trkpt lat="45.958776220193535" lon="9.098547195623624"><ele>788.0</ele><time>2026-04-25T12:43:19.002Z</time></trkpt><trkpt lat="45.95884570414258" lon="9.09848104377957"><ele>788.0</ele><time>2026-04-25T12:43:20.002Z</time></trkpt><trkpt lat="45.95893000139902" lon="9.098454133497881"><ele>788.0</ele><time>2026-04-25T12:43:21.002Z</time></trkpt><trkpt lat="45.95900578164375" lon="9.09838719713034"><ele>788.0000000000001</ele><time>2026-04-25T12:43:22.002Z</time></trkpt><trkpt lat="45.95908658314919" lon="9.098376163124538"><ele>788.0</ele><time>2026-04-25T12:43:23.002Z</time></trkpt><trkpt lat="45.95916339682742" lon="9.098335000900127"><ele>788.0000000000001</ele><time>2026-04-25T12:43:24.002Z</time></trkpt><trkpt lat="45.95923769825189" lon="9.098270817870887"><ele>788.0</ele><time>2026-04-25T12:43:25.002Z</time></trkpt><trkpt lat="45.959295029492914" lon="9.09818233939748"><ele>788.0</ele><time>2026-04-25T12:43:26.002Z</time></trkpt><trkpt lat="45.95937231196464" lon="9.098125517327338"><ele>788.0</ele><time>2026-04-25T12:43:27.002Z</time></trkpt><trkpt lat="45.959440680118504" lon="9.098068206908426"><ele>788.0000000000001</ele><time>2026-04-25T12:43:28.002Z</time></trkpt><trkpt lat="45.95951055258031" lon="9.098022943341581"><ele>788.0</ele><time>2026-04-25T12:43:29.002Z</time></trkpt><trkpt lat="45.95957888618859" lon="9.0979563636749"><ele>788.0</ele><time>2026-04-25T12:43:30.002Z</time></trkpt><trkpt lat="45.95964220775719" lon="9.09790601327934"><ele>788.0</ele><time>2026-04-25T12:43:31.002Z</time></trkpt><trkpt lat="45.959707644211" lon="9.097856247680536"><ele>788.0</ele><time>2026-04-25T12:43:32.002Z</time></trkpt><trkpt lat="45.95977423259164" lon="9.097812309152102"><ele>788.0</ele><time>2026-04-25T12:43:33.002Z</time></trkpt><trkpt lat="45.959840837775296" lon="9.097770948588115"><ele>788.0</ele><time>2026-04-25T12:43:34.002Z</time></trkpt><trkpt lat="45.95991089411683" lon="9.09773644619986"><ele>788.0</ele><time>2026-04-25T12:43:35.002Z</time></trkpt><trkpt lat="45.95998446400605" lon="9.097703964427133"><ele>788.0</ele><time>2026-04-25T12:43:36.002Z</time></trkpt><trkpt lat="45.960047843914666" lon="9.09766088363676"><ele>789.0000000000001</ele><time>2026-04-25T12:43:37.002Z</time></trkpt><trkpt lat="45.96011885108058" lon="9.097606026160964"><ele>790.0</ele><time>2026-04-25T12:43:38.002Z</time></trkpt><trkpt lat="45.96019841246371" lon="9.097579440934064"><ele>791.0</ele><time>2026-04-25T12:43:39.002Z</time></trkpt><trkpt lat="45.96027592856634" lon="9.097537462097103"><ele>792.0</ele><time>2026-04-25T12:43:40.002Z</time></trkpt><trkpt lat="45.96035823235949" lon="9.097493484096926"><ele>793.0000000000001</ele><time>2026-04-25T12:43:41.002Z</time></trkpt><trkpt lat="45.960441576251306" lon="9.097455523693242"><ele>794.0</ele><time>2026-04-25T12:43:42.002Z</time></trkpt><trkpt lat="45.96051632995259" lon="9.097425713556623"><ele>792.0000000000001</ele><time>2026-04-25T12:43:43.002Z</time></trkpt><trkpt lat="45.960588977322594" lon="9.097402433000557"><ele>790.0</ele><time>2026-04-25T12:43:44.002Z</time></trkpt><trkpt lat="45.960661773955856" lon="9.09737095757777"><ele>788.0</ele><time>2026-04-25T12:43:45.002Z</time></trkpt><trkpt lat="45.96074093496288" lon="9.097359026866382"><ele>786.0</ele><time>2026-04-25T12:43:46.002Z</time></trkpt><trkpt lat="45.96081465843403" lon="9.097350961603665"><ele>784.0000000000001</ele><time>2026-04-25T12:43:47.002Z</time></trkpt><trkpt lat="45.96089941605462" lon="9.097350172056373"><ele>782.0</ele><time>2026-04-25T12:43:48.002Z</time></trkpt><trkpt lat="45.96097692596873" lon="9.097366187581304"><ele>782.0</ele><time>2026-04-25T12:43:49Z</time></trkpt><trkpt lat="45.96105016678112" lon="9.097397069167771"><ele>782.0</ele><time>2026-04-25T12:43:50Z</time></trkpt><trkpt lat="45.96112717733448" lon="9.097455525628428"><ele>782.0</ele><time>2026-04-25T12:43:51Z</time></trkpt><trkpt lat="45.96120949702472" lon="9.097532829931769"><ele>782.0</ele><time>2026-04-25T12:43:52Z</time></trkpt><trkpt lat="45.96129123678604" lon="9.097611318795996"><ele>782.0</ele><time>2026-04-25T12:43:53Z</time></trkpt><trkpt lat="45.96136917463328" lon="9.097691190426055"><ele>784.3333333333334</ele><time>2026-04-25T12:43:54Z</time></trkpt><trkpt lat="45.96142553558046" lon="9.097783830178097"><ele>786.6666666666667</ele><time>2026-04-25T12:43:55Z</time></trkpt><trkpt lat="45.96148426126911" lon="9.097879160797417"><ele>789.0</ele><time>2026-04-25T12:43:56Z</time></trkpt><trkpt lat="45.96154837221192" lon="9.097945778427128"><ele>791.3333333333333</ele><time>2026-04-25T12:43:57Z</time></trkpt><trkpt lat="45.96161922175419" lon="9.097980393149514"><ele>793.6666666666666</ele><time>2026-04-25T12:43:58Z</time></trkpt><trkpt lat="45.96169574341502" lon="9.097984355510192"><ele>796.0</ele><time>2026-04-25T12:43:59Z</time></trkpt><trkpt lat="45.961782490490634" lon="9.09795492431514"><ele>797.8</ele><time>2026-04-25T12:44:00Z</time></trkpt><trkpt lat="45.961885365370875" lon="9.097932395031073"><ele>799.5999999999999</ele><time>2026-04-25T12:44:01Z</time></trkpt><trkpt lat="45.961993479477066" lon="9.097934376077282"><ele>801.4</ele><time>2026-04-25T12:44:02Z</time></trkpt><trkpt lat="45.962101385950646" lon="9.097915557078181"><ele>803.2</ele><time>2026-04-25T12:44:03Z</time></trkpt><trkpt lat="45.96220348619478" lon="9.09787079235161"><ele>805.0</ele><time>2026-04-25T12:44:04Z</time></trkpt><trkpt lat="45.96230442514146" lon="9.09782599329208"><ele>804.9999999999999</ele><time>2026-04-25T12:44:05Z</time></trkpt><trkpt lat="45.962369249046" lon="9.09769512265309"><ele>805.0</ele><time>2026-04-25T12:44:06Z</time></trkpt><trkpt lat="45.96243260986154" lon="9.0975883150169"><ele>805.0</ele><time>2026-04-25T12:44:07Z</time></trkpt><trkpt lat="45.96249285922945" lon="9.09751613749353"><ele>805.0</ele><time>2026-04-25T12:44:08Z</time></trkpt><trkpt lat="45.96256570002487" lon="9.097476087058684"><ele>804.9999999999999</ele><time>2026-04-25T12:44:09Z</time></trkpt><trkpt lat="45.96264552937991" lon="9.097468940403747"><ele>805.0</ele><time>2026-04-25T12:44:10Z</time></trkpt><trkpt lat="45.962737529606464" lon="9.097495630175366"><ele>803.6666666666666</ele><time>2026-04-25T12:44:11Z</time></trkpt><trkpt lat="45.9628186384208" lon="9.097534678469977"><ele>802.3333333333333</ele><time>2026-04-25T12:44:12Z</time></trkpt><trkpt lat="45.96289327866969" lon="9.097569061941947"><ele>801.0</ele><time>2026-04-25T12:44:13Z</time></trkpt><trkpt lat="45.96296211036545" lon="9.097633380247274"><ele>799.6666666666667</ele><time>2026-04-25T12:44:14Z</time></trkpt><trkpt lat="45.963024924155164" lon="9.097733428143226"><ele>798.3333333333334</ele><time>2026-04-25T12:44:15Z</time></trkpt><trkpt lat="45.963076597265" lon="9.097852060857736"><ele>797.0</ele><time>2026-04-25T12:44:16Z</time></trkpt><trkpt lat="45.96313529829165" lon="9.0979551553946"><ele>797.0</ele><time>2026-04-25T12:44:17Z</time></trkpt><trkpt lat="45.9632093885981" lon="9.098027662638422"><ele>797.0</ele><time>2026-04-25T12:44:18Z</time></trkpt><trkpt lat="45.96330333117566" lon="9.098066756583655"><ele>797.0</ele><time>2026-04-25T12:44:19Z</time></trkpt><trkpt lat="45.96341144783076" lon="9.098073909149429"><ele>797.0</ele><time>2026-04-25T12:44:20Z</time></trkpt><trkpt lat="45.96353312955576" lon="9.098081260741358"><ele>797.0</ele><time>2026-04-25T12:44:21Z</time></trkpt><trkpt lat="45.963650263038346" lon="9.098089643931461"><ele>799.0</ele><time>2026-04-25T12:44:22Z</time></trkpt><trkpt lat="45.96375451242272" lon="9.098075843229518"><ele>801.0</ele><time>2026-04-25T12:44:23Z</time></trkpt><trkpt lat="45.96386068354204" lon="9.098046169430921"><ele>803.0</ele><time>2026-04-25T12:44:24Z</time></trkpt><trkpt lat="45.96395815986376" lon="9.098015504233675"><ele>805.0</ele><time>2026-04-25T12:44:25Z</time></trkpt><trkpt lat="45.96405825053328" lon="9.097991773070492"><ele>807.0</ele><time>2026-04-25T12:44:26Z</time></trkpt><trkpt lat="45.96415471151797" lon="9.097980709631338"><ele>812.6</ele><time>2026-04-25T12:44:27Z</time></trkpt><trkpt lat="45.96425180500236" lon="9.098000634346628"><ele>818.2</ele><time>2026-04-25T12:44:28Z</time></trkpt><trkpt lat="45.96434556324741" lon="9.09805148035286"><ele>823.8</ele><time>2026-04-25T12:44:29Z</time></trkpt><trkpt lat="45.964427142905244" lon="9.098101679059157"><ele>829.4</ele><time>2026-04-25T12:44:30Z</time></trkpt><trkpt lat="45.96451938889971" lon="9.09812766131634"><ele>835.0</ele><time>2026-04-25T12:44:31Z</time></trkpt><trkpt lat="45.9646110114853" lon="9.098117316747247"><ele>834.9999999999999</ele><time>2026-04-25T12:44:32Z</time></trkpt><trkpt lat="45.96469152250127" lon="9.098099336750472"><ele>835.0</ele><time>2026-04-25T12:44:33.001Z</time></trkpt><trkpt lat="45.96477024274522" lon="9.098033093499732"><ele>835.0</ele><time>2026-04-25T12:44:34.001Z</time></trkpt><trkpt lat="45.96482996515454" lon="9.097936183538879"><ele>835.0</ele><time>2026-04-25T12:44:35.001Z</time></trkpt><trkpt lat="45.96487038914729" lon="9.097823783213165"><ele>834.9999999999999</ele><time>2026-04-25T12:44:36.001Z</time></trkpt><trkpt lat="45.964878641963764" lon="9.097688732153541"><ele>835.0</ele><time>2026-04-25T12:44:37.001Z</time></trkpt><trkpt lat="45.96484626543374" lon="9.097545366121143"><ele>839.2</ele><time>2026-04-25T12:44:38.001Z</time></trkpt><trkpt lat="45.96478909801924" lon="9.097417399349547"><ele>843.4</ele><time>2026-04-25T12:44:39.001Z</time></trkpt><trkpt lat="45.96470211681722" lon="9.097320779063613"><ele>847.5999999999999</ele><time>2026-04-25T12:44:40.001Z</time></trkpt><trkpt lat="45.96461263887801" lon="9.097216610664137"><ele>851.8</ele><time>2026-04-25T12:44:41.001Z</time></trkpt><trkpt lat="45.96452816754604" lon="9.097108350848583"><ele>856.0</ele><time>2026-04-25T12:44:42.001Z</time></trkpt><trkpt lat="45.96445667021812" lon="9.097011012112164"><ele>856.0</ele><time>2026-04-25T12:44:43.001Z</time></trkpt><trkpt lat="45.96440333730251" lon="9.096906741151622"><ele>855.9999999999999</ele><time>2026-04-25T12:44:44.001Z</time></trkpt><trkpt lat="45.964357891589835" lon="9.096784608674241"><ele>855.9999999999999</ele><time>2026-04-25T12:44:45.001Z</time></trkpt><trkpt lat="45.964336695946265" lon="9.096660654122543"><ele>856.0</ele><time>2026-04-25T12:44:46.001Z</time></trkpt><trkpt lat="45.964324370743554" lon="9.096513088179154"><ele>856.0</ele><time>2026-04-25T12:44:47.001Z</time></trkpt><trkpt lat="45.96433198297653" lon="9.096366834551475"><ele>858.5</ele><time>2026-04-25T12:44:48.001Z</time></trkpt><trkpt lat="45.96433624612912" lon="9.09620096512068"><ele>861.0</ele><time>2026-04-25T12:44:49.001Z</time></trkpt><trkpt lat="45.96430962066648" lon="9.096019062797602"><ele>863.5</ele><time>2026-04-25T12:44:50.001Z</time></trkpt><trkpt lat="45.964251631440476" lon="9.09583653473357"><ele>866.0</ele><time>2026-04-25T12:44:51.001Z</time></trkpt><trkpt lat="45.96419935831818" lon="9.095664320066625"><ele>858.8</ele><time>2026-04-25T12:44:52.001Z</time></trkpt><trkpt lat="45.96415772071671" lon="9.09551513857311"><ele>851.5999999999999</ele><time>2026-04-25T12:44:53.001Z</time></trkpt><trkpt lat="45.964130029526764" lon="9.095364639941469"><ele>844.4</ele><time>2026-04-25T12:44:54.001Z</time></trkpt><trkpt lat="45.96411596815393" lon="9.095210515084352"><ele>837.2</ele><time>2026-04-25T12:44:55.001Z</time></trkpt><trkpt lat="45.964117122097555" lon="9.09505203835487"><ele>830.0</ele><time>2026-04-25T12:44:56.001Z</time></trkpt><trkpt lat="45.96413039065804" lon="9.094904245555254"><ele>830.0</ele><time>2026-04-25T12:44:57.001Z</time></trkpt><trkpt lat="45.96413996158066" lon="9.094742042100206"><ele>830.0</ele><time>2026-04-25T12:44:58.001Z</time></trkpt><trkpt lat="45.96413961003758" lon="9.094598335566122"><ele>830.0</ele><time>2026-04-25T12:44:59.001Z</time></trkpt><trkpt lat="45.964110329668635" lon="9.094470088844764"><ele>830.0</ele><time>2026-04-25T12:45:00.001Z</time></trkpt><trkpt lat="45.96410653073638" lon="9.094335989663287"><ele>830.0</ele><time>2026-04-25T12:45:01.001Z</time></trkpt><trkpt lat="45.964093457371426" lon="9.094216253643276"><ele>830.0</ele><time>2026-04-25T12:45:02.001Z</time></trkpt><trkpt lat="45.96408798880706" lon="9.094107673471948"><ele>830.0</ele><time>2026-04-25T12:45:03.001Z</time></trkpt><trkpt lat="45.96408714193067" lon="9.094004828606353"><ele>830.0</ele><time>2026-04-25T12:45:04.001Z</time></trkpt><trkpt lat="45.964090840054546" lon="9.093908568794538"><ele>830.0</ele><time>2026-04-25T12:45:05.001Z</time></trkpt><trkpt lat="45.96408377847615" lon="9.093810248171689"><ele>830.0</ele><time>2026-04-25T12:45:06.001Z</time></trkpt><trkpt lat="45.96409162947257" lon="9.0937056972721"><ele>830.0</ele><time>2026-04-25T12:45:07.001Z</time></trkpt><trkpt lat="45.9640765749143" lon="9.093612977141305"><ele>830.0</ele><time>2026-04-25T12:45:08.001Z</time></trkpt><trkpt lat="45.964078164565834" lon="9.0934641394891"><ele>829.6666666666667</ele><time>2026-04-25T12:45:10.001Z</time></trkpt><trkpt lat="45.96406723489832" lon="9.093370317379115"><ele>829.3333333333334</ele><time>2026-04-25T12:45:11.001Z</time></trkpt><trkpt lat="45.96409132275638" lon="9.093251718963353"><ele>829.0</ele><time>2026-04-25T12:45:12.001Z</time></trkpt><trkpt lat="45.96411122259851" lon="9.093113140567725"><ele>828.6666666666667</ele><time>2026-04-25T12:45:13.001Z</time></trkpt><trkpt lat="45.96411509571147" lon="9.093004224962566"><ele>828.3333333333334</ele><time>2026-04-25T12:45:14.001Z</time></trkpt><trkpt lat="45.964112660107524" lon="9.092909166472698"><ele>828.0</ele><time>2026-04-25T12:45:15.001Z</time></trkpt><trkpt lat="45.9641599094405" lon="9.092836024066187"><ele>829.5</ele><time>2026-04-25T12:45:16.001Z</time></trkpt><trkpt lat="45.964187618853835" lon="9.092732613990314"><ele>831.0</ele><time>2026-04-25T12:45:17.002Z</time></trkpt><trkpt lat="45.964224802470504" lon="9.092634585196434"><ele>832.5</ele><time>2026-04-25T12:45:18.002Z</time></trkpt><trkpt lat="45.96426832858718" lon="9.092526551352584"><ele>834.0</ele><time>2026-04-25T12:45:19.002Z</time></trkpt><trkpt lat="45.96429217888975" lon="9.092399232146175"><ele>835.5</ele><time>2026-04-25T12:45:20.002Z</time></trkpt><trkpt lat="45.96430350063346" lon="9.092266016825478"><ele>837.0</ele><time>2026-04-25T12:45:21.002Z</time></trkpt><trkpt lat="45.9643343204541" lon="9.092151390409821"><ele>837.0</ele><time>2026-04-25T12:45:22.002Z</time></trkpt><trkpt lat="45.964370302135535" lon="9.092028986002946"><ele>837.0</ele><time>2026-04-25T12:45:23.002Z</time></trkpt><trkpt lat="45.96443929493714" lon="9.09191934196283"><ele>837.0</ele><time>2026-04-25T12:45:24.002Z</time></trkpt><trkpt lat="45.96449077003768" lon="9.09177556091772"><ele>837.0</ele><time>2026-04-25T12:45:25.002Z</time></trkpt><trkpt lat="45.9645561931633" lon="9.091637864357958"><ele>837.0</ele><time>2026-04-25T12:45:26.002Z</time></trkpt><trkpt lat="45.96462414700917" lon="9.091503088187066"><ele>834.0</ele><time>2026-04-25T12:45:27.002Z</time></trkpt><trkpt lat="45.96467773807289" lon="9.0913629527104"><ele>831.0</ele><time>2026-04-25T12:45:28.002Z</time></trkpt><trkpt lat="45.96471851708033" lon="9.091216626236513"><ele>828.0</ele><time>2026-04-25T12:45:29.002Z</time></trkpt><trkpt lat="45.96475062938719" lon="9.091067447569307"><ele>825.0</ele><time>2026-04-25T12:45:30.002Z</time></trkpt><trkpt lat="45.964777687360375" lon="9.090913467532372"><ele>822.0</ele><time>2026-04-25T12:45:31.002Z</time></trkpt><trkpt lat="45.9648075422897" lon="9.09075438748907"><ele>819.0</ele><time>2026-04-25T12:45:32.002Z</time></trkpt><trkpt lat="45.964847199463875" lon="9.090596985378713"><ele>816.0</ele><time>2026-04-25T12:45:33.002Z</time></trkpt><trkpt lat="45.9648767884096" lon="9.090441187634523"><ele>813.0</ele><time>2026-04-25T12:45:34.002Z</time></trkpt><trkpt lat="45.96490685319766" lon="9.090289811808509"><ele>810.0</ele><time>2026-04-25T12:45:35.002Z</time></trkpt><trkpt lat="45.96493702445714" lon="9.090140900325538"><ele>807.0</ele><time>2026-04-25T12:45:36.002Z</time></trkpt><trkpt lat="45.96496433050582" lon="9.08999484827111"><ele>806.4000000000001</ele><time>2026-04-25T12:45:37.002Z</time></trkpt><trkpt lat="45.965005052824914" lon="9.089855765918928"><ele>805.8000000000001</ele><time>2026-04-25T12:45:38.002Z</time></trkpt><trkpt lat="45.965012930002466" lon="9.089710887601052"><ele>805.2</ele><time>2026-04-25T12:45:39.002Z</time></trkpt><trkpt lat="45.96501831419073" lon="9.089566223946225"><ele>804.6</ele><time>2026-04-25T12:45:40.002Z</time></trkpt><trkpt lat="45.965017192273145" lon="9.089418755160096"><ele>804.0</ele><time>2026-04-25T12:45:41.002Z</time></trkpt><trkpt lat="45.96502042022479" lon="9.089278499111686"><ele>804.0</ele><time>2026-04-25T12:45:42.002Z</time></trkpt><trkpt lat="45.96502720533258" lon="9.08913334720478"><ele>804.0</ele><time>2026-04-25T12:45:43.002Z</time></trkpt><trkpt lat="45.96504121582298" lon="9.08898502310104"><ele>804.0</ele><time>2026-04-25T12:45:44.002Z</time></trkpt><trkpt lat="45.96505945060389" lon="9.088831727307296"><ele>804.0</ele><time>2026-04-25T12:45:45.002Z</time></trkpt><trkpt lat="45.96508106100292" lon="9.088678325135712"><ele>804.0</ele><time>2026-04-25T12:45:46.002Z</time></trkpt><trkpt lat="45.96510477854146" lon="9.088518833661983"><ele>806.75</ele><time>2026-04-25T12:45:47.002Z</time></trkpt><trkpt lat="45.96513373769955" lon="9.088342467488408"><ele>809.5</ele><time>2026-04-25T12:45:48.002Z</time></trkpt><trkpt lat="45.965167905481195" lon="9.088169036371523"><ele>812.25</ele><time>2026-04-25T12:45:49.002Z</time></trkpt><trkpt lat="45.965201616756154" lon="9.088004486112178"><ele>815.0</ele><time>2026-04-25T12:45:50.002Z</time></trkpt><trkpt lat="45.965239055157376" lon="9.087846681535943"><ele>815.0</ele><time>2026-04-25T12:45:51.002Z</time></trkpt><trkpt lat="45.96527701987472" lon="9.08769917084439"><ele>815.0</ele><time>2026-04-25T12:45:52.002Z</time></trkpt><trkpt lat="45.96531759331246" lon="9.087551155003704"><ele>815.0</ele><time>2026-04-25T12:45:53.002Z</time></trkpt><trkpt lat="45.96536720021178" lon="9.08740451519069"><ele>815.0</ele><time>2026-04-25T12:45:54.002Z</time></trkpt><trkpt lat="45.96542882720399" lon="9.087255609226075"><ele>810.75</ele><time>2026-04-25T12:45:54.999Z</time></trkpt><trkpt lat="45.96550248559385" lon="9.08710199695968"><ele>806.5</ele><time>2026-04-25T12:45:55.999Z</time></trkpt><trkpt lat="45.96557371203627" lon="9.086929786798715"><ele>802.25</ele><time>2026-04-25T12:45:56.999Z</time></trkpt><trkpt lat="45.96565225935569" lon="9.086753229841094"><ele>798.0</ele><time>2026-04-25T12:45:57.999Z</time></trkpt><trkpt lat="45.96572658907932" lon="9.086576108518317"><ele>800.5</ele><time>2026-04-25T12:45:58.999Z</time></trkpt><trkpt lat="45.965797758549485" lon="9.086405867550463"><ele>803.0</ele><time>2026-04-25T12:45:59.999Z</time></trkpt><trkpt lat="45.965865154575404" lon="9.086241215784975"><ele>805.5</ele><time>2026-04-25T12:46:00.999Z</time></trkpt><trkpt lat="45.9659378749399" lon="9.086070384793802"><ele>808.0</ele><time>2026-04-25T12:46:01.999Z</time></trkpt><trkpt lat="45.966012741861654" lon="9.085894905329228"><ele>802.0</ele><time>2026-04-25T12:46:02.999Z</time></trkpt><trkpt lat="45.96610197953152" lon="9.085716804658475"><ele>796.0</ele><time>2026-04-25T12:46:03.999Z</time></trkpt><trkpt lat="45.96621842302529" lon="9.085531725713956"><ele>790.0</ele><time>2026-04-25T12:46:04.999Z</time></trkpt><trkpt lat="45.966323360474135" lon="9.085326091734899"><ele>790.0</ele><time>2026-04-25T12:46:05.999Z</time></trkpt><trkpt lat="45.96641296208491" lon="9.085096852737648"><ele>790.0</ele><time>2026-04-25T12:46:06.999Z</time></trkpt><trkpt lat="45.966499405414474" lon="9.084828495666764"><ele>790.0</ele><time>2026-04-25T12:46:07.999Z</time></trkpt><trkpt lat="45.96647234181987" lon="9.084915705674018"><ele>793.5</ele><time>2026-04-25T12:46:08.999Z</time></trkpt><trkpt lat="45.966541873825946" lon="9.084722813126033"><ele>797.0</ele><time>2026-04-25T12:46:09.999Z</time></trkpt><trkpt lat="45.966610991740865" lon="9.084544249498565"><ele>800.5</ele><time>2026-04-25T12:46:11Z</time></trkpt><trkpt lat="45.96667142799916" lon="9.084372230556662"><ele>804.0</ele><time>2026-04-25T12:46:12Z</time></trkpt><trkpt lat="45.96673727726173" lon="9.08421070318735"><ele>799.5</ele><time>2026-04-25T12:46:13Z</time></trkpt><trkpt lat="45.96679108577187" lon="9.0840341548051"><ele>795.0</ele><time>2026-04-25T12:46:14Z</time></trkpt><trkpt lat="45.96684885471417" lon="9.083858693551415"><ele>790.5</ele><time>2026-04-25T12:46:15Z</time></trkpt><trkpt lat="45.966904878529874" lon="9.083688812984091"><ele>786.0</ele><time>2026-04-25T12:46:16Z</time></trkpt><trkpt lat="45.966956923089114" lon="9.08352595150504"><ele>786.0</ele><time>2026-04-25T12:46:17Z</time></trkpt><trkpt lat="45.967015664969374" lon="9.083367341341885"><ele>786.0</ele><time>2026-04-25T12:46:18Z</time></trkpt><trkpt lat="45.96705907408344" lon="9.08320583173617"><ele>786.0</ele><time>2026-04-25T12:46:19Z</time></trkpt><trkpt lat="45.96710125579043" lon="9.083047863774194"><ele>786.0</ele><time>2026-04-25T12:46:20Z</time></trkpt><trkpt lat="45.96714237873008" lon="9.08289571625139"><ele>783.5999999999999</ele><time>2026-04-25T12:46:21Z</time></trkpt><trkpt lat="45.967183980318254" lon="9.082744348206225"><ele>781.2</ele><time>2026-04-25T12:46:22Z</time></trkpt><trkpt lat="45.967225239544646" lon="9.08259383667491"><ele>778.8</ele><time>2026-04-25T12:46:23Z</time></trkpt><trkpt lat="45.9672784787803" lon="9.082455412084347"><ele>776.4000000000001</ele><time>2026-04-25T12:46:24Z</time></trkpt><trkpt lat="45.96730892595756" lon="9.082308694204663"><ele>774.0</ele><time>2026-04-25T12:46:25Z</time></trkpt><trkpt lat="45.96735940848685" lon="9.082136509434479"><ele>772.0</ele><time>2026-04-25T12:46:26Z</time></trkpt><trkpt lat="45.967379265768884" lon="9.081998109901114"><ele>770.0</ele><time>2026-04-25T12:46:27Z</time></trkpt><trkpt lat="45.96736817902946" lon="9.081823812478255"><ele>768.0</ele><time>2026-04-25T12:46:28Z</time></trkpt><trkpt lat="45.96736706398346" lon="9.081634889269893"><ele>766.0</ele><time>2026-04-25T12:46:29Z</time></trkpt><trkpt lat="45.967361582555185" lon="9.081426307618486"><ele>765.0</ele><time>2026-04-25T12:46:30Z</time></trkpt><trkpt lat="45.9673673665008" lon="9.081191461568539"><ele>764.0</ele><time>2026-04-25T12:46:31Z</time></trkpt><trkpt lat="45.9673651851164" lon="9.081020631646078"><ele>763.0</ele><time>2026-04-25T12:46:32Z</time></trkpt><trkpt lat="45.96736296888455" lon="9.08084530317719"><ele>762.0</ele><time>2026-04-25T12:46:33Z</time></trkpt><trkpt lat="45.967356327283234" lon="9.080681371774585"><ele>761.75</ele><time>2026-04-25T12:46:34Z</time></trkpt><trkpt lat="45.96734647587369" lon="9.080527248315118"><ele>761.5</ele><time>2026-04-25T12:46:35Z</time></trkpt><trkpt lat="45.96735462308395" lon="9.080351458540479"><ele>761.25</ele><time>2026-04-25T12:46:36Z</time></trkpt><trkpt lat="45.967351025241776" lon="9.080187756646321"><ele>761.0</ele><time>2026-04-25T12:46:37Z</time></trkpt><trkpt lat="45.96733228030052" lon="9.08002418104953"><ele>760.0</ele><time>2026-04-25T12:46:38Z</time></trkpt><trkpt lat="45.9673352570205" lon="9.079857632183831"><ele>759.0</ele><time>2026-04-25T12:46:39Z</time></trkpt><trkpt lat="45.96733258224497" lon="9.079705920683411"><ele>758.0</ele><time>2026-04-25T12:46:40Z</time></trkpt><trkpt lat="45.9673307769266" lon="9.07956158929835"><ele>757.0</ele><time>2026-04-25T12:46:41Z</time></trkpt><trkpt lat="45.96732849770966" lon="9.079427733717615"><ele>756.0</ele><time>2026-04-25T12:46:42Z</time></trkpt><trkpt lat="45.96732696927827" lon="9.079282603528505"><ele>756.0</ele><time>2026-04-25T12:46:43Z</time></trkpt><trkpt lat="45.96734296859353" lon="9.079152003181711"><ele>756.0</ele><time>2026-04-25T12:46:44Z</time></trkpt><trkpt lat="45.96735819099551" lon="9.079014182997474"><ele>756.0</ele><time>2026-04-25T12:46:45.001Z</time></trkpt><trkpt lat="45.96736585221782" lon="9.0788950897163"><ele>756.0</ele><time>2026-04-25T12:46:46.001Z</time></trkpt><trkpt lat="45.967354676976036" lon="9.078793068971965"><ele>756.0</ele><time>2026-04-25T12:46:47.001Z</time></trkpt><trkpt lat="45.96736742217403" lon="9.078680728586514"><ele>756.0</ele><time>2026-04-25T12:46:48.001Z</time></trkpt><trkpt lat="45.96733678090786" lon="9.078518412668554"><ele>756.0</ele><time>2026-04-25T12:46:50.001Z</time></trkpt><trkpt lat="45.96738881630767" lon="9.078369662706855"><ele>756.0</ele><time>2026-04-25T12:46:54.001Z</time></trkpt><trkpt lat="45.967452752913644" lon="9.078350954874296"><ele>756.0</ele><time>2026-04-25T12:46:55.001Z</time></trkpt><trkpt lat="45.96751474509008" lon="9.078304563719934"><ele>756.0</ele><time>2026-04-25T12:46:56.001Z</time></trkpt><trkpt lat="45.967578230881976" lon="9.078228693968963"><ele>756.0</ele><time>2026-04-25T12:46:57.001Z</time></trkpt><trkpt lat="45.96767014766961" lon="9.078221425872364"><ele>756.0</ele><time>2026-04-25T12:46:59.001Z</time></trkpt><trkpt lat="45.96773998894022" lon="9.078161876638042"><ele>756.0</ele><time>2026-04-25T12:47:00.001Z</time></trkpt><trkpt lat="45.96779966001872" lon="9.078110419075756"><ele>756.0</ele><time>2026-04-25T12:47:01.001Z</time></trkpt><trkpt lat="45.96786885700356" lon="9.078070127681679"><ele>756.0</ele><time>2026-04-25T12:47:02.001Z</time></trkpt><trkpt lat="45.967958773730835" lon="9.078007095430811"><ele>756.0</ele><time>2026-04-25T12:47:03.001Z</time></trkpt><trkpt lat="45.96803879719083" lon="9.077947009453132"><ele>756.0</ele><time>2026-04-25T12:47:04.001Z</time></trkpt><trkpt lat="45.968122964578576" lon="9.0778948767564"><ele>756.0</ele><time>2026-04-25T12:47:05.001Z</time></trkpt><trkpt lat="45.9682366165513" lon="9.077811630210002"><ele>756.0</ele><time>2026-04-25T12:47:07.001Z</time></trkpt><trkpt lat="45.968303278246424" lon="9.077759831842425"><ele>756.0</ele><time>2026-04-25T12:47:08.001Z</time></trkpt><trkpt lat="45.968367248312234" lon="9.07768721215762"><ele>756.0</ele><time>2026-04-25T12:47:09.001Z</time></trkpt><trkpt lat="45.968439958866725" lon="9.077615534834582"><ele>756.0</ele><time>2026-04-25T12:47:10.001Z</time></trkpt><trkpt lat="45.96853202746767" lon="9.077556044429578"><ele>756.0</ele><time>2026-04-25T12:47:11.001Z</time></trkpt><trkpt lat="45.968612550498946" lon="9.077499175651603"><ele>756.0</ele><time>2026-04-25T12:47:12.001Z</time></trkpt><trkpt lat="45.968707084512296" lon="9.077442469057878"><ele>756.0</ele><time>2026-04-25T12:47:13.001Z</time></trkpt><trkpt lat="45.9687939688509" lon="9.077399206051409"><ele>756.0</ele><time>2026-04-25T12:47:14.001Z</time></trkpt><trkpt lat="45.968863945974725" lon="9.077359507769494"><ele>756.0</ele><time>2026-04-25T12:47:15.001Z</time></trkpt><trkpt lat="45.9689396945352" lon="9.077305553425802"><ele>756.0</ele><time>2026-04-25T12:47:16.001Z</time></trkpt><trkpt lat="45.96901606905435" lon="9.077259855862629"><ele>756.0</ele><time>2026-04-25T12:47:17.001Z</time></trkpt><trkpt lat="45.96909329270324" lon="9.077204594309375"><ele>756.0</ele><time>2026-04-25T12:47:18.001Z</time></trkpt><trkpt lat="45.96918517044388" lon="9.077148982164516"><ele>759.0</ele><time>2026-04-25T12:47:19.001Z</time></trkpt><trkpt lat="45.96928500694128" lon="9.07709443128807"><ele>762.0</ele><time>2026-04-25T12:47:20.001Z</time></trkpt><trkpt lat="45.96938323825132" lon="9.07704141937277"><ele>765.0</ele><time>2026-04-25T12:47:21.001Z</time></trkpt><trkpt lat="45.96947634170144" lon="9.076979988066064"><ele>768.0</ele><time>2026-04-25T12:47:22.001Z</time></trkpt><trkpt lat="45.96956782821504" lon="9.07691119677561"><ele>771.0</ele><time>2026-04-25T12:47:23.001Z</time></trkpt><trkpt lat="45.96965431320807" lon="9.076823253171472"><ele>771.0</ele><time>2026-04-25T12:47:24.001Z</time></trkpt><trkpt lat="45.96973143268071" lon="9.076716220493513"><ele>771.0</ele><time>2026-04-25T12:47:25.001Z</time></trkpt><trkpt lat="45.96981778011029" lon="9.076614335881725"><ele>771.0</ele><time>2026-04-25T12:47:26.002Z</time></trkpt><trkpt lat="45.969897999997116" lon="9.07651667699997"><ele>771.0</ele><time>2026-04-25T12:47:27.002Z</time></trkpt><trkpt lat="45.96998184843648" lon="9.076423703337413"><ele>771.0</ele><time>2026-04-25T12:47:28.002Z</time></trkpt><trkpt lat="45.970058838337806" lon="9.076325044477562"><ele>772.1999999999999</ele><time>2026-04-25T12:47:29.002Z</time></trkpt><trkpt lat="45.970137124072274" lon="9.076231279915188"><ele>773.4</ele><time>2026-04-25T12:47:30.002Z</time></trkpt><trkpt lat="45.970213104555604" lon="9.076144770431593"><ele>774.6</ele><time>2026-04-25T12:47:31.002Z</time></trkpt><trkpt lat="45.97029226391912" lon="9.076080722657796"><ele>775.8</ele><time>2026-04-25T12:47:32.002Z</time></trkpt><trkpt lat="45.97037194449309" lon="9.076036242526445"><ele>777.0</ele><time>2026-04-25T12:47:33.002Z</time></trkpt><trkpt lat="45.97047126802339" lon="9.076034817052099"><ele>777.0</ele><time>2026-04-25T12:47:34.002Z</time></trkpt><trkpt lat="45.97057647444147" lon="9.076001354671785"><ele>777.0</ele><time>2026-04-25T12:47:35.002Z</time></trkpt><trkpt lat="45.970672900310944" lon="9.076000834262274"><ele>777.0</ele><time>2026-04-25T12:47:36.002Z</time></trkpt><trkpt lat="45.97074858146926" lon="9.076013289179402"><ele>777.0</ele><time>2026-04-25T12:47:37.002Z</time></trkpt><trkpt lat="45.97080761392466" lon="9.076058249934512"><ele>777.0</ele><time>2026-04-25T12:47:38.002Z</time></trkpt><trkpt lat="45.97088733634323" lon="9.076175557081065"><ele>777.0</ele><time>2026-04-25T12:47:40.002Z</time></trkpt><trkpt lat="45.97095632174096" lon="9.076077275376452"><ele>777.0</ele><time>2026-04-25T12:47:46.002Z</time></trkpt><trkpt lat="45.97093262952251" lon="9.075983115376243"><ele>777.0</ele><time>2026-04-25T12:47:48.002Z</time></trkpt><trkpt lat="45.97091913499715" lon="9.075833440834854"><ele>777.0</ele><time>2026-04-25T12:47:50.002Z</time></trkpt><trkpt lat="45.97092772879803" lon="9.075668147027253"><ele>777.0</ele><time>2026-04-25T12:47:52.002Z</time></trkpt><trkpt lat="45.97094784267149" lon="9.075578945140496"><ele>777.0</ele><time>2026-04-25T12:47:53.002Z</time></trkpt><trkpt lat="45.97099840676577" lon="9.075490973613231"><ele>777.0</ele><time>2026-04-25T12:47:54.002Z</time></trkpt><trkpt lat="45.97103041902402" lon="9.075381254042306"><ele>777.0</ele><time>2026-04-25T12:47:55.002Z</time></trkpt><trkpt lat="45.97108261339027" lon="9.075277095129605"><ele>777.0</ele><time>2026-04-25T12:47:56.002Z</time></trkpt><trkpt lat="45.97112893468763" lon="9.075182190628778"><ele>777.0</ele><time>2026-04-25T12:47:57.002Z</time></trkpt><trkpt lat="45.971176018272885" lon="9.075087179994577"><ele>777.0</ele><time>2026-04-25T12:47:58.002Z</time></trkpt><trkpt lat="45.971214868164935" lon="9.074994174173026"><ele>776.6666666666666</ele><time>2026-04-25T12:47:59.002Z</time></trkpt><trkpt lat="45.971236955468264" lon="9.074884549484908"><ele>776.3333333333333</ele><time>2026-04-25T12:48:00.002Z</time></trkpt><trkpt lat="45.97125209926318" lon="9.074775632279199"><ele>776.0</ele><time>2026-04-25T12:48:00.999Z</time></trkpt><trkpt lat="45.971255205233795" lon="9.07465945262223"><ele>775.6666666666666</ele><time>2026-04-25T12:48:01.999Z</time></trkpt><trkpt lat="45.97127526297255" lon="9.074517124526192"><ele>775.3333333333333</ele><time>2026-04-25T12:48:02.999Z</time></trkpt><trkpt lat="45.97128072818586" lon="9.074403190197625"><ele>775.0</ele><time>2026-04-25T12:48:03.999Z</time></trkpt><trkpt lat="45.971292857228136" lon="9.074294727057158"><ele>775.0</ele><time>2026-04-25T12:48:04.999Z</time></trkpt><trkpt lat="45.97130622979137" lon="9.074188868254621"><ele>775.0</ele><time>2026-04-25T12:48:05.999Z</time></trkpt><trkpt lat="45.971321955074025" lon="9.074071289331634"><ele>775.0</ele><time>2026-04-25T12:48:06.999Z</time></trkpt><trkpt lat="45.97134295470014" lon="9.073933305807143"><ele>775.0</ele><time>2026-04-25T12:48:07.999Z</time></trkpt><trkpt lat="45.971364153321886" lon="9.073794014741086"><ele>775.0</ele><time>2026-04-25T12:48:08.999Z</time></trkpt><trkpt lat="45.971385038742625" lon="9.073656781585951"><ele>773.6</ele><time>2026-04-25T12:48:09.999Z</time></trkpt><trkpt lat="45.971401312090265" lon="9.073508031840818"><ele>772.2</ele><time>2026-04-25T12:48:10.999Z</time></trkpt><trkpt lat="45.971435908393815" lon="9.073365161163919"><ele>770.8</ele><time>2026-04-25T12:48:11.999Z</time></trkpt><trkpt lat="45.97148022496479" lon="9.073236016136562"><ele>769.4</ele><time>2026-04-25T12:48:12.999Z</time></trkpt><trkpt lat="45.971523514397404" lon="9.073098932212382"><ele>768.0</ele><time>2026-04-25T12:48:13.999Z</time></trkpt><trkpt lat="45.97155847155987" lon="9.072946620034816"><ele>767.2</ele><time>2026-04-25T12:48:14.999Z</time></trkpt><trkpt lat="45.97158228309832" lon="9.07278779535738"><ele>766.4</ele><time>2026-04-25T12:48:15.999Z</time></trkpt><trkpt lat="45.971605832387645" lon="9.072641148818455"><ele>765.6</ele><time>2026-04-25T12:48:16.999Z</time></trkpt><trkpt lat="45.97161438402169" lon="9.072498755440838"><ele>764.8000000000001</ele><time>2026-04-25T12:48:17.999Z</time></trkpt><trkpt lat="45.97164064208493" lon="9.072359334272024"><ele>764.0</ele><time>2026-04-25T12:48:18.999Z</time></trkpt><trkpt lat="45.971649383391" lon="9.072226451522612"><ele>762.4000000000001</ele><time>2026-04-25T12:48:19.999Z</time></trkpt><trkpt lat="45.971643331734874" lon="9.072103346357324"><ele>760.8</ele><time>2026-04-25T12:48:20.999Z</time></trkpt><trkpt lat="45.97160976710087" lon="9.071993926054128"><ele>759.2</ele><time>2026-04-25T12:48:21.999Z</time></trkpt><trkpt lat="45.97155148463849" lon="9.071895118378738"><ele>757.5999999999999</ele><time>2026-04-25T12:48:22.999Z</time></trkpt><trkpt lat="45.971477876593376" lon="9.071801064586468"><ele>756.0</ele><time>2026-04-25T12:48:24Z</time></trkpt><trkpt lat="45.971395737381464" lon="9.071706375616088"><ele>753.0</ele><time>2026-04-25T12:48:25Z</time></trkpt><trkpt lat="45.971313367433396" lon="9.071601068623366"><ele>750.0</ele><time>2026-04-25T12:48:26Z</time></trkpt><trkpt lat="45.97124476249292" lon="9.07148872508245"><ele>747.0</ele><time>2026-04-25T12:48:27Z</time></trkpt><trkpt lat="45.971160906494916" lon="9.071393998635674"><ele>744.0</ele><time>2026-04-25T12:48:28Z</time></trkpt><trkpt lat="45.97109920235001" lon="9.0712933035051"><ele>741.0</ele><time>2026-04-25T12:48:29Z</time></trkpt><trkpt lat="45.971025931931194" lon="9.071195067430937"><ele>741.0</ele><time>2026-04-25T12:48:30Z</time></trkpt><trkpt lat="45.970955134815966" lon="9.071081334926346"><ele>741.0</ele><time>2026-04-25T12:48:31Z</time></trkpt><trkpt lat="45.970891151411934" lon="9.070977705660544"><ele>741.0</ele><time>2026-04-25T12:48:32Z</time></trkpt><trkpt lat="45.97084164464074" lon="9.070855861641165"><ele>741.0</ele><time>2026-04-25T12:48:33Z</time></trkpt><trkpt lat="45.97079787325315" lon="9.070729208909754"><ele>741.0</ele><time>2026-04-25T12:48:34Z</time></trkpt><trkpt lat="45.970764008377394" lon="9.070594777689765"><ele>740.5</ele><time>2026-04-25T12:48:35Z</time></trkpt><trkpt lat="45.97074084424804" lon="9.070456380853878"><ele>740.0</ele><time>2026-04-25T12:48:36Z</time></trkpt><trkpt lat="45.9707145138588" lon="9.070317116738842"><ele>739.5</ele><time>2026-04-25T12:48:37Z</time></trkpt><trkpt lat="45.97067602011997" lon="9.07019612252036"><ele>739.0</ele><time>2026-04-25T12:48:38Z</time></trkpt><trkpt lat="45.970623863741956" lon="9.070105938032759"><ele>738.5</ele><time>2026-04-25T12:48:39Z</time></trkpt><trkpt lat="45.97056662095897" lon="9.070041254158127"><ele>738.0</ele><time>2026-04-25T12:48:40Z</time></trkpt><trkpt lat="45.97049935764092" lon="9.069979611286618"><ele>738.25</ele><time>2026-04-25T12:48:42Z</time></trkpt><trkpt lat="45.97047599885596" lon="9.069875350633811"><ele>738.5</ele><time>2026-04-25T12:48:45Z</time></trkpt><trkpt lat="45.97068901404258" lon="9.069785217338069"><ele>738.75</ele><time>2026-04-25T12:48:48Z</time></trkpt><trkpt lat="45.97077215437095" lon="9.06976960361993"><ele>739.0</ele><time>2026-04-25T12:48:49Z</time></trkpt><trkpt lat="45.97084587353341" lon="9.069758107933637"><ele>739.0</ele><time>2026-04-25T12:48:50Z</time></trkpt><trkpt lat="45.97094048069002" lon="9.06974051188776"><ele>739.0</ele><time>2026-04-25T12:48:51Z</time></trkpt><trkpt lat="45.971046115188706" lon="9.069716304221686"><ele>739.0</ele><time>2026-04-25T12:48:52Z</time></trkpt><trkpt lat="45.97115001552185" lon="9.06969622527292"><ele>739.0</ele><time>2026-04-25T12:48:53.001Z</time></trkpt><trkpt lat="45.97124267020481" lon="9.069680463830553"><ele>739.0</ele><time>2026-04-25T12:48:54.001Z</time></trkpt><trkpt lat="45.97132685849706" lon="9.069665982156147"><ele>739.0</ele><time>2026-04-25T12:48:55.001Z</time></trkpt><trkpt lat="45.97140020879107" lon="9.06966050629689"><ele>739.0</ele><time>2026-04-25T12:48:56.001Z</time></trkpt><trkpt lat="45.971467967957885" lon="9.069665744255975"><ele>739.0</ele><time>2026-04-25T12:48:57.001Z</time></trkpt><trkpt lat="45.97158993218609" lon="9.069701390342685"><ele>739.0</ele><time>2026-04-25T12:48:59.001Z</time></trkpt><trkpt lat="45.971650094062994" lon="9.069740913539395"><ele>739.0</ele><time>2026-04-25T12:49:00.001Z</time></trkpt><trkpt lat="45.97171187999979" lon="9.069758688367456"><ele>739.0</ele><time>2026-04-25T12:49:01.001Z</time></trkpt><trkpt lat="45.9717830170758" lon="9.069786449191128"><ele>738.2</ele><time>2026-04-25T12:49:02.001Z</time></trkpt><trkpt lat="45.97185388884541" lon="9.06989066811676"><ele>737.4000000000001</ele><time>2026-04-25T12:49:03.001Z</time></trkpt><trkpt lat="45.97194608675919" lon="9.069923389948638"><ele>736.6</ele><time>2026-04-25T12:49:04.001Z</time></trkpt><trkpt lat="45.972044782637546" lon="9.069926387639105"><ele>735.8</ele><time>2026-04-25T12:49:05.001Z</time></trkpt><trkpt lat="45.97215083180837" lon="9.06989384322703"><ele>735.0</ele><time>2026-04-25T12:49:06.001Z</time></trkpt><trkpt lat="45.972257879549645" lon="9.06982360392993"><ele>735.0</ele><time>2026-04-25T12:49:07.001Z</time></trkpt><trkpt lat="45.97236337751199" lon="9.069706270721767"><ele>735.0</ele><time>2026-04-25T12:49:08.001Z</time></trkpt><trkpt lat="45.972468017936514" lon="9.069555793164282"><ele>735.0</ele><time>2026-04-25T12:49:09.001Z</time></trkpt><trkpt lat="45.972568962029435" lon="9.069403059980294"><ele>735.0</ele><time>2026-04-25T12:49:10.001Z</time></trkpt><trkpt lat="45.97266168516459" lon="9.069259967195379"><ele>734.75</ele><time>2026-04-25T12:49:11.001Z</time></trkpt><trkpt lat="45.972740509745535" lon="9.069121610150427"><ele>734.5</ele><time>2026-04-25T12:49:12.001Z</time></trkpt><trkpt lat="45.97282944114882" lon="9.06898065404373"><ele>734.25</ele><time>2026-04-25T12:49:13.001Z</time></trkpt><trkpt lat="45.97291262466165" lon="9.06884616599281"><ele>734.0</ele><time>2026-04-25T12:49:14.001Z</time></trkpt><trkpt lat="45.97299664605775" lon="9.068710144436537"><ele>734.0</ele><time>2026-04-25T12:49:15.001Z</time></trkpt><trkpt lat="45.973083735675175" lon="9.068570311628688"><ele>734.0</ele><time>2026-04-25T12:49:16.001Z</time></trkpt><trkpt lat="45.97317570344735" lon="9.068422282287832"><ele>734.0</ele><time>2026-04-25T12:49:17.001Z</time></trkpt><trkpt lat="45.97326768173493" lon="9.068269332122213"><ele>734.0</ele><time>2026-04-25T12:49:18.001Z</time></trkpt><trkpt lat="45.9733590186148" lon="9.068116718989398"><ele>732.0</ele><time>2026-04-25T12:49:19.001Z</time></trkpt><trkpt lat="45.97345440995203" lon="9.067973249544455"><ele>730.0</ele><time>2026-04-25T12:49:20.001Z</time></trkpt><trkpt lat="45.973552924435005" lon="9.067842381009328"><ele>728.0</ele><time>2026-04-25T12:49:21.001Z</time></trkpt><trkpt lat="45.97366506230319" lon="9.067719381068802"><ele>726.0</ele><time>2026-04-25T12:49:22.001Z</time></trkpt><trkpt lat="45.97377925072868" lon="9.06760147472395"><ele>726.0</ele><time>2026-04-25T12:49:23.001Z</time></trkpt><trkpt lat="45.97390334806615" lon="9.067500614607972"><ele>726.0</ele><time>2026-04-25T12:49:24.001Z</time></trkpt><trkpt lat="45.97404032121057" lon="9.067397121314016"><ele>726.0</ele><time>2026-04-25T12:49:25.001Z</time></trkpt><trkpt lat="45.97417119697128" lon="9.067297840424942"><ele>726.0</ele><time>2026-04-25T12:49:26.001Z</time></trkpt><trkpt lat="45.97430537487951" lon="9.067208047972512"><ele>723.6666666666666</ele><time>2026-04-25T12:49:27.001Z</time></trkpt><trkpt lat="45.97444241532407" lon="9.06709687664403"><ele>721.3333333333333</ele><time>2026-04-25T12:49:28.001Z</time></trkpt><trkpt lat="45.974570764619685" lon="9.066976907247279"><ele>719.0</ele><time>2026-04-25T12:49:29.002Z</time></trkpt><trkpt lat="45.97469488381791" lon="9.06685265917277"><ele>719.0</ele><time>2026-04-25T12:49:30.002Z</time></trkpt><trkpt lat="45.97479915487382" lon="9.066739553795843"><ele>719.0</ele><time>2026-04-25T12:49:31.002Z</time></trkpt><trkpt lat="45.97488296461062" lon="9.066624393277394"><ele>719.0</ele><time>2026-04-25T12:49:32.002Z</time></trkpt><trkpt lat="45.9750045806249" lon="9.066496267358213"><ele>719.0</ele><time>2026-04-25T12:49:33.002Z</time></trkpt><trkpt lat="45.97511964398677" lon="9.06636365168185"><ele>718.75</ele><time>2026-04-25T12:49:34.002Z</time></trkpt><trkpt lat="45.975236144885685" lon="9.066236402494564"><ele>718.5</ele><time>2026-04-25T12:49:35.002Z</time></trkpt><trkpt lat="45.975352065287495" lon="9.066114557912481"><ele>718.25</ele><time>2026-04-25T12:49:36.002Z</time></trkpt><trkpt lat="45.9754639081019" lon="9.06600001743052"><ele>718.0</ele><time>2026-04-25T12:49:37.002Z</time></trkpt><trkpt lat="45.97557602932138" lon="9.065896551286064"><ele>718.0</ele><time>2026-04-25T12:49:38.002Z</time></trkpt><trkpt lat="45.97569269311586" lon="9.065816113623582"><ele>718.0</ele><time>2026-04-25T12:49:39.002Z</time></trkpt><trkpt lat="45.97582246524719" lon="9.065755612584773"><ele>718.0</ele><time>2026-04-25T12:49:40.002Z</time></trkpt><trkpt lat="45.97596611364104" lon="9.065703985659244"><ele>718.0</ele><time>2026-04-25T12:49:41.002Z</time></trkpt><trkpt lat="45.976120196337696" lon="9.065670611506993"><ele>717.75</ele><time>2026-04-25T12:49:42.002Z</time></trkpt><trkpt lat="45.976267875721135" lon="9.065632579044767"><ele>717.5</ele><time>2026-04-25T12:49:43.002Z</time></trkpt><trkpt lat="45.97640967869915" lon="9.065602650465308"><ele>717.25</ele><time>2026-04-25T12:49:44.002Z</time></trkpt><trkpt lat="45.97654665656398" lon="9.065577147761553"><ele>717.0</ele><time>2026-04-25T12:49:45.002Z</time></trkpt><trkpt lat="45.976680131182874" lon="9.065537464965704"><ele>717.75</ele><time>2026-04-25T12:49:46.002Z</time></trkpt><trkpt lat="45.97680061806384" lon="9.065505570887126"><ele>718.5</ele><time>2026-04-25T12:49:47.002Z</time></trkpt><trkpt lat="45.97692130313113" lon="9.065507653860218"><ele>719.25</ele><time>2026-04-25T12:49:48.002Z</time></trkpt><trkpt lat="45.97702848823468" lon="9.06554229480418"><ele>720.0</ele><time>2026-04-25T12:49:49.002Z</time></trkpt><trkpt lat="45.977128350270014" lon="9.0655906223116"><ele>720.0</ele><time>2026-04-25T12:49:50.002Z</time></trkpt><trkpt lat="45.97720631981202" lon="9.065667046462622"><ele>720.0</ele><time>2026-04-25T12:49:51.002Z</time></trkpt><trkpt lat="45.97726798722262" lon="9.065754405944183"><ele>720.0</ele><time>2026-04-25T12:49:52.002Z</time></trkpt><trkpt lat="45.97731512239033" lon="9.065867388170936"><ele>720.0</ele><time>2026-04-25T12:49:53.002Z</time></trkpt><trkpt lat="45.977348067750185" lon="9.066013740822614"><ele>720.0</ele><time>2026-04-25T12:49:54.002Z</time></trkpt><trkpt lat="45.97736252974941" lon="9.066180872797144"><ele>718.25</ele><time>2026-04-25T12:49:55.002Z</time></trkpt><trkpt lat="45.977372913327216" lon="9.06635939665031"><ele>716.5</ele><time>2026-04-25T12:49:56.002Z</time></trkpt><trkpt lat="45.97738207361848" lon="9.066529932230061"><ele>714.75</ele><time>2026-04-25T12:49:57.002Z</time></trkpt><trkpt lat="45.9773791419631" lon="9.066684595861542"><ele>713.0</ele><time>2026-04-25T12:49:58.002Z</time></trkpt><trkpt lat="45.977369940087115" lon="9.066835212293107"><ele>713.0</ele><time>2026-04-25T12:49:59.002Z</time></trkpt><trkpt lat="45.97734754163775" lon="9.066974039400051"><ele>713.0</ele><time>2026-04-25T12:50:00.002Z</time></trkpt><trkpt lat="45.977290832718055" lon="9.067099079533255"><ele>713.0</ele><time>2026-04-25T12:50:01.002Z</time></trkpt><trkpt lat="45.977215404839924" lon="9.067221033249778"><ele>713.0</ele><time>2026-04-25T12:50:02.002Z</time></trkpt><trkpt lat="45.977144156001955" lon="9.067327189632062"><ele>713.0</ele><time>2026-04-25T12:50:03.002Z</time></trkpt><trkpt lat="45.97707476144587" lon="9.067428024100796"><ele>711.8333333333333</ele><time>2026-04-25T12:50:04.002Z</time></trkpt><trkpt lat="45.97702155821876" lon="9.067525346618503"><ele>710.6666666666666</ele><time>2026-04-25T12:50:05.002Z</time></trkpt><trkpt lat="45.977010130442196" lon="9.067628963970966"><ele>709.5</ele><time>2026-04-25T12:50:06.003Z</time></trkpt><trkpt lat="45.97702317182567" lon="9.067744105596455"><ele>708.3333333333334</ele><time>2026-04-25T12:50:06.999Z</time></trkpt><trkpt lat="45.97706381293443" lon="9.067842352693924"><ele>707.1666666666667</ele><time>2026-04-25T12:50:07.999Z</time></trkpt><trkpt lat="45.97714172723365" lon="9.067917279292121"><ele>706.0</ele><time>2026-04-25T12:50:08.999Z</time></trkpt><trkpt lat="45.977233291431" lon="9.067996482339222"><ele>706.0</ele><time>2026-04-25T12:50:09.999Z</time></trkpt><trkpt lat="45.97734746980283" lon="9.068051525315186"><ele>706.0</ele><time>2026-04-25T12:50:10.999Z</time></trkpt><trkpt lat="45.977466827890915" lon="9.068099845497361"><ele>706.0</ele><time>2026-04-25T12:50:11.999Z</time></trkpt><trkpt lat="45.97759167266903" lon="9.06816379563136"><ele>706.0</ele><time>2026-04-25T12:50:12.999Z</time></trkpt><trkpt lat="45.97771550434263" lon="9.068223727619104"><ele>702.75</ele><time>2026-04-25T12:50:13.999Z</time></trkpt><trkpt lat="45.97782893743866" lon="9.068296401643765"><ele>699.5</ele><time>2026-04-25T12:50:14.999Z</time></trkpt><trkpt lat="45.977949273973245" lon="9.068394780941594"><ele>696.25</ele><time>2026-04-25T12:50:15.999Z</time></trkpt><trkpt lat="45.97806612786402" lon="9.06854158046735"><ele>693.0</ele><time>2026-04-25T12:50:16.999Z</time></trkpt><trkpt lat="45.97819740372458" lon="9.068677105403934"><ele>693.0</ele><time>2026-04-25T12:50:17.999Z</time></trkpt><trkpt lat="45.978323335701646" lon="9.068841310669505"><ele>693.0</ele><time>2026-04-25T12:50:18.999Z</time></trkpt><trkpt lat="45.978425298814" lon="9.06898724310355"><ele>693.0</ele><time>2026-04-25T12:50:19.999Z</time></trkpt><trkpt lat="45.978520167756656" lon="9.069100408399365"><ele>693.0</ele><time>2026-04-25T12:50:20.999Z</time></trkpt><trkpt lat="45.97862364626836" lon="9.069222318647682"><ele>689.0</ele><time>2026-04-25T12:50:21.999Z</time></trkpt><trkpt lat="45.978707476088246" lon="9.069312460108076"><ele>685.0</ele><time>2026-04-25T12:50:22.999Z</time></trkpt><trkpt lat="45.97879268656886" lon="9.069416671617837"><ele>681.0</ele><time>2026-04-25T12:50:24Z</time></trkpt><trkpt lat="45.97885713416044" lon="9.069536703334665"><ele>677.0</ele><time>2026-04-25T12:50:25Z</time></trkpt><trkpt lat="45.97887888718794" lon="9.069646850209756"><ele>673.0</ele><time>2026-04-25T12:50:26Z</time></trkpt><trkpt lat="45.978874736160826" lon="9.069814109289265"><ele>676.0</ele><time>2026-04-25T12:50:27Z</time></trkpt><trkpt lat="45.97886366681413" lon="9.069967650634108"><ele>679.0</ele><time>2026-04-25T12:50:28Z</time></trkpt><trkpt lat="45.97886706559578" lon="9.070106796173405"><ele>682.0</ele><time>2026-04-25T12:50:29Z</time></trkpt><trkpt lat="45.97891297452684" lon="9.070242308043197"><ele>685.0</ele><time>2026-04-25T12:50:30Z</time></trkpt><trkpt lat="45.97898220558939" lon="9.070381500613019"><ele>688.0</ele><time>2026-04-25T12:50:31Z</time></trkpt><trkpt lat="45.97907431959352" lon="9.070487685177874"><ele>688.0</ele><time>2026-04-25T12:50:32Z</time></trkpt><trkpt lat="45.9791582956901" lon="9.070582058473622"><ele>688.0</ele><time>2026-04-25T12:50:33Z</time></trkpt><trkpt lat="45.97922523166746" lon="9.070707823072505"><ele>688.0</ele><time>2026-04-25T12:50:34Z</time></trkpt><trkpt lat="45.97927247383928" lon="9.070871876822066"><ele>688.0</ele><time>2026-04-25T12:50:35Z</time></trkpt><trkpt lat="45.97930938373842" lon="9.071052934096373"><ele>684.0</ele><time>2026-04-25T12:50:36Z</time></trkpt><trkpt lat="45.97934685175109" lon="9.071204451134857"><ele>680.0</ele><time>2026-04-25T12:50:37Z</time></trkpt><trkpt lat="45.979407282214886" lon="9.07131824386783"><ele>676.0</ele><time>2026-04-25T12:50:38Z</time></trkpt><trkpt lat="45.97948489874168" lon="9.071392074206672"><ele>672.0</ele><time>2026-04-25T12:50:39Z</time></trkpt><trkpt lat="45.97957264196126" lon="9.071454700013822"><ele>668.0</ele><time>2026-04-25T12:50:40Z</time></trkpt><trkpt lat="45.979692867776" lon="9.071448559778384"><ele>668.0</ele><time>2026-04-25T12:50:41Z</time></trkpt><trkpt lat="45.979799264861896" lon="9.071495596462517"><ele>668.0</ele><time>2026-04-25T12:50:42Z</time></trkpt><trkpt lat="45.979887743118205" lon="9.07158314308171"><ele>668.0</ele><time>2026-04-25T12:50:43Z</time></trkpt><trkpt lat="45.97995054101618" lon="9.071700568252073"><ele>668.0</ele><time>2026-04-25T12:50:44Z</time></trkpt><trkpt lat="45.97997962875602" lon="9.071837537791657"><ele>668.0</ele><time>2026-04-25T12:50:45Z</time></trkpt><trkpt lat="45.979987985055736" lon="9.072002647527615"><ele>668.2</ele><time>2026-04-25T12:50:46Z</time></trkpt><trkpt lat="45.97999991356005" lon="9.07216993540655"><ele>668.4</ele><time>2026-04-25T12:50:47Z</time></trkpt><trkpt lat="45.98002402786161" lon="9.07232178133125"><ele>668.6</ele><time>2026-04-25T12:50:48Z</time></trkpt><trkpt lat="45.98006310030984" lon="9.07245448279585"><ele>668.8000000000001</ele><time>2026-04-25T12:50:49Z</time></trkpt><trkpt lat="45.98012246291179" lon="9.07254270891718"><ele>669.0</ele><time>2026-04-25T12:50:50.001Z</time></trkpt><trkpt lat="45.9801963454084" lon="9.072583674062574"><ele>669.0</ele><time>2026-04-25T12:50:51.001Z</time></trkpt><trkpt lat="45.980282931203064" lon="9.07257159579145"><ele>669.0</ele><time>2026-04-25T12:50:52.001Z</time></trkpt><trkpt lat="45.98037547583219" lon="9.072528878415708"><ele>669.0</ele><time>2026-04-25T12:50:53.001Z</time></trkpt><trkpt lat="45.98048702872862" lon="9.072468887740415"><ele>669.0</ele><time>2026-04-25T12:50:54.001Z</time></trkpt><trkpt lat="45.980589566846284" lon="9.072437038236657"><ele>669.0</ele><time>2026-04-25T12:50:55.001Z</time></trkpt><trkpt lat="45.9806978893577" lon="9.072376692499713"><ele>669.0</ele><time>2026-04-25T12:50:56.001Z</time></trkpt><trkpt lat="45.9808114780666" lon="9.072305880214357"><ele>669.0</ele><time>2026-04-25T12:50:57.001Z</time></trkpt><trkpt lat="45.980919214847226" lon="9.072226248317946"><ele>669.0</ele><time>2026-04-25T12:50:58.001Z</time></trkpt><trkpt lat="45.981016543421" lon="9.072167795719595"><ele>669.0</ele><time>2026-04-25T12:50:59.001Z</time></trkpt><trkpt lat="45.98112294583052" lon="9.072141808982803"><ele>667.0</ele><time>2026-04-25T12:51:00.001Z</time></trkpt><trkpt lat="45.981234168440515" lon="9.072129183006078"><ele>665.0</ele><time>2026-04-25T12:51:01.001Z</time></trkpt><trkpt lat="45.98135379570834" lon="9.072144547872938"><ele>663.0</ele><time>2026-04-25T12:51:02.001Z</time></trkpt><trkpt lat="45.98146488375537" lon="9.072178735423208"><ele>661.0</ele><time>2026-04-25T12:51:03.001Z</time></trkpt><trkpt lat="45.98156794296402" lon="9.072228245427134"><ele>661.0</ele><time>2026-04-25T12:51:04.001Z</time></trkpt><trkpt lat="45.98165050603016" lon="9.072293872579445"><ele>661.0</ele><time>2026-04-25T12:51:05.001Z</time></trkpt><trkpt lat="45.981706408186156" lon="9.072383850164403"><ele>661.0</ele><time>2026-04-25T12:51:06.001Z</time></trkpt><trkpt lat="45.981739552582745" lon="9.072505075504512"><ele>661.0</ele><time>2026-04-25T12:51:07.001Z</time></trkpt><trkpt lat="45.98175295092856" lon="9.07265074185345"><ele>661.0</ele><time>2026-04-25T12:51:08.001Z</time></trkpt><trkpt lat="45.9817569514404" lon="9.072807254988652"><ele>662.3333333333334</ele><time>2026-04-25T12:51:09.001Z</time></trkpt><trkpt lat="45.98176777705112" lon="9.072949702671227"><ele>663.6666666666667</ele><time>2026-04-25T12:51:10.001Z</time></trkpt><trkpt lat="45.98177884640923" lon="9.073082755460135"><ele>665.0</ele><time>2026-04-25T12:51:11.001Z</time></trkpt><trkpt lat="45.98179947020995" lon="9.073203763978622"><ele>666.3333333333334</ele><time>2026-04-25T12:51:12.001Z</time></trkpt><trkpt lat="45.98183592931416" lon="9.073309762462626"><ele>667.6666666666666</ele><time>2026-04-25T12:51:13.001Z</time></trkpt><trkpt lat="45.9818772830371" lon="9.073396653478765"><ele>669.0</ele><time>2026-04-25T12:51:14.001Z</time></trkpt><trkpt lat="45.981970918382565" lon="9.073416931175274"><ele>670.0</ele><time>2026-04-25T12:51:15.001Z</time></trkpt><trkpt lat="45.982045339743124" lon="9.073416306588205"><ele>671.0</ele><time>2026-04-25T12:51:16.001Z</time></trkpt><trkpt lat="45.98211463900327" lon="9.073399464764835"><ele>672.0</ele><time>2026-04-25T12:51:17.001Z</time></trkpt><trkpt lat="45.98218233127569" lon="9.073412760536206"><ele>673.0</ele><time>2026-04-25T12:51:18.001Z</time></trkpt><trkpt lat="45.98225377471527" lon="9.073381261548528"><ele>674.0</ele><time>2026-04-25T12:51:19.001Z</time></trkpt><trkpt lat="45.98232174248174" lon="9.073388093587237"><ele>675.0</ele><time>2026-04-25T12:51:20.001Z</time></trkpt><trkpt lat="45.982406439413246" lon="9.073398617115313"><ele>676.0</ele><time>2026-04-25T12:51:21.001Z</time></trkpt><trkpt lat="45.98250100447023" lon="9.073431140868369"><ele>675.1999999999999</ele><time>2026-04-25T12:51:22.001Z</time></trkpt><trkpt lat="45.98259844812431" lon="9.073475854526954"><ele>674.4</ele><time>2026-04-25T12:51:23.002Z</time></trkpt><trkpt lat="45.98269190420145" lon="9.073539816322054"><ele>673.6</ele><time>2026-04-25T12:51:24.002Z</time></trkpt><trkpt lat="45.98279077310829" lon="9.073613094112918"><ele>672.8</ele><time>2026-04-25T12:51:25.002Z</time></trkpt><trkpt lat="45.98289143143582" lon="9.073697400634108"><ele>672.0</ele><time>2026-04-25T12:51:26.002Z</time></trkpt><trkpt lat="45.98299771208602" lon="9.073781714014547"><ele>672.0</ele><time>2026-04-25T12:51:27.002Z</time></trkpt><trkpt lat="45.98311413012582" lon="9.073867095682168"><ele>672.0</ele><time>2026-04-25T12:51:28.002Z</time></trkpt><trkpt lat="45.9832210296122" lon="9.073951822433076"><ele>672.0</ele><time>2026-04-25T12:51:29.002Z</time></trkpt><trkpt lat="45.98332087117626" lon="9.0740254377551"><ele>672.0</ele><time>2026-04-25T12:51:30.002Z</time></trkpt><trkpt lat="45.9834110526256" lon="9.074093771716322"><ele>673.1666666666666</ele><time>2026-04-25T12:51:31.002Z</time></trkpt><trkpt lat="45.98348997500474" lon="9.074160512410131"><ele>674.3333333333334</ele><time>2026-04-25T12:51:32.002Z</time></trkpt><trkpt lat="45.98356052946427" lon="9.074222316978743"><ele>675.5</ele><time>2026-04-25T12:51:33.002Z</time></trkpt><trkpt lat="45.98362306416573" lon="9.074283590287857"><ele>676.6666666666667</ele><time>2026-04-25T12:51:34.002Z</time></trkpt><trkpt lat="45.98367694141534" lon="9.074333601866114"><ele>677.8333333333334</ele><time>2026-04-25T12:51:35.002Z</time></trkpt><trkpt lat="45.98377294335593" lon="9.07436388782638"><ele>679.0</ele><time>2026-04-25T12:51:37.002Z</time></trkpt><trkpt lat="45.98387395644701" lon="9.074320719678473"><ele>677.5</ele><time>2026-04-25T12:51:39.002Z</time></trkpt><trkpt lat="45.98393414141232" lon="9.074073804221882"><ele>676.0</ele><time>2026-04-25T12:51:41.002Z</time></trkpt><trkpt lat="45.98399549771913" lon="9.073941463469062"><ele>674.5</ele><time>2026-04-25T12:51:42.002Z</time></trkpt><trkpt lat="45.984040424799474" lon="9.07379458589436"><ele>673.0</ele><time>2026-04-25T12:51:43.002Z</time></trkpt><trkpt lat="45.98407951722826" lon="9.073645607913184"><ele>673.0</ele><time>2026-04-25T12:51:44.002Z</time></trkpt><trkpt lat="45.9841096145582" lon="9.073503420598225"><ele>673.0</ele><time>2026-04-25T12:51:45.002Z</time></trkpt><trkpt lat="45.9841312319218" lon="9.07335908290649"><ele>673.0</ele><time>2026-04-25T12:51:46.002Z</time></trkpt><trkpt lat="45.98415171123369" lon="9.073209203284183"><ele>673.0</ele><time>2026-04-25T12:51:47.002Z</time></trkpt><trkpt lat="45.98417554559757" lon="9.073056054390598"><ele>673.0</ele><time>2026-04-25T12:51:48.002Z</time></trkpt><trkpt lat="45.984198972151596" lon="9.072906077390863"><ele>671.2</ele><time>2026-04-25T12:51:49.002Z</time></trkpt><trkpt lat="45.98421031432066" lon="9.072755903602607"><ele>669.4</ele><time>2026-04-25T12:51:50.002Z</time></trkpt><trkpt lat="45.98424907349585" lon="9.07262361716528"><ele>667.6</ele><time>2026-04-25T12:51:51.002Z</time></trkpt><trkpt lat="45.98430147413705" lon="9.072506445829738"><ele>665.8000000000001</ele><time>2026-04-25T12:51:52.002Z</time></trkpt><trkpt lat="45.984364106160335" lon="9.072410715714508"><ele>664.0</ele><time>2026-04-25T12:51:53.002Z</time></trkpt><trkpt lat="45.98444058775828" lon="9.072338412522923"><ele>659.5</ele><time>2026-04-25T12:51:54.002Z</time></trkpt><trkpt lat="45.9845345696549" lon="9.07228963393112"><ele>655.0</ele><time>2026-04-25T12:51:55.002Z</time></trkpt><trkpt lat="45.98466338633264" lon="9.072257922740922"><ele>650.5</ele><time>2026-04-25T12:51:56.002Z</time></trkpt><trkpt lat="45.984803713471536" lon="9.072240851807406"><ele>646.0</ele><time>2026-04-25T12:51:57.003Z</time></trkpt><trkpt lat="45.984934912869434" lon="9.072225571846566"><ele>645.25</ele><time>2026-04-25T12:51:58.003Z</time></trkpt><trkpt lat="45.98505949599843" lon="9.072202284944465"><ele>644.5</ele><time>2026-04-25T12:51:59.003Z</time></trkpt><trkpt lat="45.98517651264066" lon="9.072174833967905"><ele>643.75</ele><time>2026-04-25T12:52:00.003Z</time></trkpt><trkpt lat="45.98529566883427" lon="9.07212989477426"><ele>643.0</ele><time>2026-04-25T12:52:01.003Z</time></trkpt><trkpt lat="45.98541041353423" lon="9.072079499718892"><ele>643.0</ele><time>2026-04-25T12:52:02.003Z</time></trkpt><trkpt lat="45.98552401629829" lon="9.072027466390802"><ele>643.0</ele><time>2026-04-25T12:52:03.003Z</time></trkpt><trkpt lat="45.98563990636697" lon="9.071971106718845"><ele>643.0</ele><time>2026-04-25T12:52:04.003Z</time></trkpt><trkpt lat="45.985753894035476" lon="9.071910863582923"><ele>643.0</ele><time>2026-04-25T12:52:05.003Z</time></trkpt><trkpt lat="45.98586266893557" lon="9.071854765378408"><ele>640.6</ele><time>2026-04-25T12:52:06.003Z</time></trkpt><trkpt lat="45.985967922748934" lon="9.071799180723842"><ele>638.1999999999999</ele><time>2026-04-25T12:52:07.003Z</time></trkpt><trkpt lat="45.986067234529536" lon="9.071755754999481"><ele>635.8</ele><time>2026-04-25T12:52:08.003Z</time></trkpt><trkpt lat="45.98616027332232" lon="9.071737823051002"><ele>633.4</ele><time>2026-04-25T12:52:09.003Z</time></trkpt><trkpt lat="45.986244862877285" lon="9.07175587238246"><ele>631.0</ele><time>2026-04-25T12:52:10.003Z</time></trkpt><trkpt lat="45.986315019725744" lon="9.071813148111158"><ele>631.0</ele><time>2026-04-25T12:52:11.003Z</time></trkpt><trkpt lat="45.98636322869636" lon="9.07190332596129"><ele>631.0</ele><time>2026-04-25T12:52:12.003Z</time></trkpt><trkpt lat="45.986399370447685" lon="9.072026041456454"><ele>631.0</ele><time>2026-04-25T12:52:12.999Z</time></trkpt><trkpt lat="45.98642109897232" lon="9.072162759007952"><ele>631.0</ele><time>2026-04-25T12:52:13.999Z</time></trkpt><trkpt lat="45.986456493533026" lon="9.072299488817658"><ele>631.0</ele><time>2026-04-25T12:52:14.999Z</time></trkpt><trkpt lat="45.98651973992902" lon="9.072439561344387"><ele>634.25</ele><time>2026-04-25T12:52:15.999Z</time></trkpt><trkpt lat="45.98661270882897" lon="9.072574539878014"><ele>637.5</ele><time>2026-04-25T12:52:16.999Z</time></trkpt><trkpt lat="45.98672457381679" lon="9.072700962068746"><ele>640.75</ele><time>2026-04-25T12:52:17.999Z</time></trkpt><trkpt lat="45.986831388468914" lon="9.072824673409736"><ele>644.0</ele><time>2026-04-25T12:52:18.999Z</time></trkpt><trkpt lat="45.98693456824041" lon="9.072949831665825"><ele>638.5</ele><time>2026-04-25T12:52:19.999Z</time></trkpt><trkpt lat="45.987015551875615" lon="9.073081168243831"><ele>633.0</ele><time>2026-04-25T12:52:21Z</time></trkpt><trkpt lat="45.98708815987203" lon="9.073234237551171"><ele>627.5</ele><time>2026-04-25T12:52:21.999Z</time></trkpt><trkpt lat="45.98714868902761" lon="9.073415127343422"><ele>622.0</ele><time>2026-04-25T12:52:22.999Z</time></trkpt><trkpt lat="45.98720873344658" lon="9.073618635201926"><ele>622.0</ele><time>2026-04-25T12:52:24Z</time></trkpt><trkpt lat="45.98727206236758" lon="9.073828399504306"><ele>622.0</ele><time>2026-04-25T12:52:25Z</time></trkpt><trkpt lat="45.987334208895376" lon="9.074027295736444"><ele>622.0</ele><time>2026-04-25T12:52:26Z</time></trkpt><trkpt lat="45.98739594480973" lon="9.074218245268677"><ele>623.6</ele><time>2026-04-25T12:52:27Z</time></trkpt><trkpt lat="45.987454709672775" lon="9.074406553596624"><ele>625.2</ele><time>2026-04-25T12:52:28Z</time></trkpt><trkpt lat="45.987491122597575" lon="9.074550953080655"><ele>626.8</ele><time>2026-04-25T12:52:29Z</time></trkpt><trkpt lat="45.98750132291964" lon="9.074687026484494"><ele>628.4</ele><time>2026-04-25T12:52:30Z</time></trkpt><trkpt lat="45.98750150578971" lon="9.074835043554412"><ele>630.0</ele><time>2026-04-25T12:52:31Z</time></trkpt><trkpt lat="45.98747205317557" lon="9.074975424658774"><ele>630.6</ele><time>2026-04-25T12:52:32Z</time></trkpt><trkpt lat="45.98747612075653" lon="9.075091646378349"><ele>631.2</ele><time>2026-04-25T12:52:33Z</time></trkpt><trkpt lat="45.987510485418966" lon="9.075167881662722"><ele>631.8</ele><time>2026-04-25T12:52:34Z</time></trkpt><trkpt lat="45.9876282738235" lon="9.075179339303476"><ele>632.4</ele><time>2026-04-25T12:52:36Z</time></trkpt><trkpt lat="45.98766978226536" lon="9.075005920490566"><ele>633.0</ele><time>2026-04-25T12:52:38Z</time></trkpt><trkpt lat="45.98764328377437" lon="9.074892661592544"><ele>624.4</ele><time>2026-04-25T12:52:39Z</time></trkpt><trkpt lat="45.98765795249708" lon="9.074760366770333"><ele>615.8</ele><time>2026-04-25T12:52:40Z</time></trkpt><trkpt lat="45.987675299023394" lon="9.074600410949996"><ele>607.2</ele><time>2026-04-25T12:52:41Z</time></trkpt><trkpt lat="45.98771089849135" lon="9.07444019820954"><ele>598.6</ele><time>2026-04-25T12:52:42Z</time></trkpt><trkpt lat="45.987746240522554" lon="9.074275701196667"><ele>590.0</ele><time>2026-04-25T12:52:43Z</time></trkpt><trkpt lat="45.987770386412635" lon="9.074112371983983"><ele>589.0</ele><time>2026-04-25T12:52:44Z</time></trkpt><trkpt lat="45.98778826956163" lon="9.073948503641539"><ele>588.0</ele><time>2026-04-25T12:52:45Z</time></trkpt><trkpt lat="45.987780301452545" lon="9.073783002946467"><ele>587.0</ele><time>2026-04-25T12:52:46Z</time></trkpt><trkpt lat="45.98776402241201" lon="9.073621807206004"><ele>586.0</ele><time>2026-04-25T12:52:47Z</time></trkpt><trkpt lat="45.987741687201726" lon="9.073478459947248"><ele>585.0</ele><time>2026-04-25T12:52:48Z</time></trkpt><trkpt lat="45.98774159182731" lon="9.073354035145766"><ele>585.0</ele><time>2026-04-25T12:52:49Z</time></trkpt><trkpt lat="45.98776831101766" lon="9.073232292784665"><ele>585.0</ele><time>2026-04-25T12:52:51Z</time></trkpt><trkpt lat="45.987857866823184" lon="9.073272671398682"><ele>585.0</ele><time>2026-04-25T12:52:53.001Z</time></trkpt><trkpt lat="45.98787464838441" lon="9.07337627053422"><ele>585.0</ele><time>2026-04-25T12:52:54.001Z</time></trkpt><trkpt lat="45.98788752949877" lon="9.073508569346544"><ele>585.0</ele><time>2026-04-25T12:52:55.001Z</time></trkpt><trkpt lat="45.98791469729101" lon="9.07366347600761"><ele>585.0</ele><time>2026-04-25T12:52:56.001Z</time></trkpt><trkpt lat="45.98795005224775" lon="9.073833682081306"><ele>585.0</ele><time>2026-04-25T12:52:57.001Z</time></trkpt><trkpt lat="45.987984850208846" lon="9.07400704026206"><ele>585.0</ele><time>2026-04-25T12:52:58.001Z</time></trkpt><trkpt lat="45.98801664983197" lon="9.07417350176387"><ele>585.0</ele><time>2026-04-25T12:52:59.001Z</time></trkpt><trkpt lat="45.988036172489714" lon="9.0743404699953"><ele>585.25</ele><time>2026-04-25T12:53:00.001Z</time></trkpt><trkpt lat="45.988025822134965" lon="9.07451530109652"><ele>585.5</ele><time>2026-04-25T12:53:01.001Z</time></trkpt><trkpt lat="45.98799194515071" lon="9.074709821542454"><ele>585.75</ele><time>2026-04-25T12:53:02.001Z</time></trkpt><trkpt lat="45.98795997051161" lon="9.074912468658642"><ele>586.0</ele><time>2026-04-25T12:53:03.001Z</time></trkpt><trkpt lat="45.98794252358121" lon="9.075124258688813"><ele>586.0</ele><time>2026-04-25T12:53:04.001Z</time></trkpt><trkpt lat="45.98793761802681" lon="9.075337798598765"><ele>586.0</ele><time>2026-04-25T12:53:05.001Z</time></trkpt><trkpt lat="45.987948085271256" lon="9.075544726091147"><ele>586.0</ele><time>2026-04-25T12:53:06.001Z</time></trkpt><trkpt lat="45.987974191473256" lon="9.075750815987693"><ele>586.0</ele><time>2026-04-25T12:53:07.001Z</time></trkpt><trkpt lat="45.98799398805748" lon="9.075958218322354"><ele>586.6666666666667</ele><time>2026-04-25T12:53:08.001Z</time></trkpt><trkpt lat="45.988044223808096" lon="9.076186174988058"><ele>587.3333333333334</ele><time>2026-04-25T12:53:09.001Z</time></trkpt><trkpt lat="45.98811977894618" lon="9.076395581746839"><ele>588.0</ele><time>2026-04-25T12:53:10.001Z</time></trkpt><trkpt lat="45.988170952228266" lon="9.076637130397355"><ele>589.6666666666666</ele><time>2026-04-25T12:53:11.001Z</time></trkpt><trkpt lat="45.98822712888621" lon="9.076844056446458"><ele>591.3333333333333</ele><time>2026-04-25T12:53:12.001Z</time></trkpt><trkpt lat="45.9882846049962" lon="9.077055521725597"><ele>593.0</ele><time>2026-04-25T12:53:13.001Z</time></trkpt><trkpt lat="45.988352506415005" lon="9.077251206134962"><ele>585.25</ele><time>2026-04-25T12:53:14.001Z</time></trkpt><trkpt lat="45.988408249090526" lon="9.077450721849814"><ele>577.5</ele><time>2026-04-25T12:53:15.001Z</time></trkpt><trkpt lat="45.988459632409324" lon="9.077648110887402"><ele>569.75</ele><time>2026-04-25T12:53:16.001Z</time></trkpt><trkpt lat="45.98850020131898" lon="9.077825563665112"><ele>562.0</ele><time>2026-04-25T12:53:17.001Z</time></trkpt><trkpt lat="45.9885131670298" lon="9.07798059576178"><ele>562.0</ele><time>2026-04-25T12:53:18.001Z</time></trkpt><trkpt lat="45.98852516307387" lon="9.078114558914981"><ele>562.0</ele><time>2026-04-25T12:53:19.001Z</time></trkpt><trkpt lat="45.98853121619431" lon="9.078242095748736"><ele>562.0</ele><time>2026-04-25T12:53:20.001Z</time></trkpt><trkpt lat="45.98854635847415" lon="9.078338351433395"><ele>562.0</ele><time>2026-04-25T12:53:21.001Z</time></trkpt><trkpt lat="45.98861448509668" lon="9.078420272388016"><ele>562.0</ele><time>2026-04-25T12:53:22.001Z</time></trkpt><trkpt lat="45.98870753162448" lon="9.0784395739015"><ele>562.0</ele><time>2026-04-25T12:53:23.001Z</time></trkpt><trkpt lat="45.98879571966246" lon="9.07838542982103"><ele>562.0</ele><time>2026-04-25T12:53:24.002Z</time></trkpt><trkpt lat="45.988837036335646" lon="9.078283415715838"><ele>562.0</ele><time>2026-04-25T12:53:25.002Z</time></trkpt><trkpt lat="45.98883911460811" lon="9.078171277707233"><ele>562.0</ele><time>2026-04-25T12:53:26.002Z</time></trkpt><trkpt lat="45.98882194981538" lon="9.07806464987678"><ele>562.0</ele><time>2026-04-25T12:53:27.002Z</time></trkpt><trkpt lat="45.98878898785958" lon="9.077936685608643"><ele>562.0</ele><time>2026-04-25T12:53:28.002Z</time></trkpt><trkpt lat="45.98876807486581" lon="9.077795219967395"><ele>562.0</ele><time>2026-04-25T12:53:29.002Z</time></trkpt><trkpt lat="45.98874646236393" lon="9.077624530093507"><ele>562.0</ele><time>2026-04-25T12:53:30.002Z</time></trkpt><trkpt lat="45.988744969915516" lon="9.077436636819373"><ele>562.0</ele><time>2026-04-25T12:53:31.002Z</time></trkpt><trkpt lat="45.98875105540914" lon="9.077235702956122"><ele>562.0</ele><time>2026-04-25T12:53:32.002Z</time></trkpt><trkpt lat="45.98875895820006" lon="9.077026097149675"><ele>562.0</ele><time>2026-04-25T12:53:33.002Z</time></trkpt><trkpt lat="45.98875902169718" lon="9.076819736112892"><ele>561.0</ele><time>2026-04-25T12:53:34.002Z</time></trkpt><trkpt lat="45.988754848810494" lon="9.076617054785487"><ele>560.0</ele><time>2026-04-25T12:53:35.002Z</time></trkpt><trkpt lat="45.98876097571814" lon="9.076434249733538"><ele>559.0</ele><time>2026-04-25T12:53:36.002Z</time></trkpt><trkpt lat="45.988764777857206" lon="9.076271079686881"><ele>558.0</ele><time>2026-04-25T12:53:37.002Z</time></trkpt><trkpt lat="45.98874794094036" lon="9.076144835622836"><ele>557.4285714285713</ele><time>2026-04-25T12:53:38.002Z</time></trkpt><trkpt lat="45.988770250735044" lon="9.076059911123712"><ele>556.8571428571429</ele><time>2026-04-25T12:53:39.002Z</time></trkpt><trkpt lat="45.98880548535041" lon="9.075971551004768"><ele>556.2857142857142</ele><time>2026-04-25T12:53:40.002Z</time></trkpt><trkpt lat="45.98886548824057" lon="9.075941358845679"><ele>555.7142857142857</ele><time>2026-04-25T12:53:41.002Z</time></trkpt><trkpt lat="45.98892683345281" lon="9.075964308078275"><ele>555.1428571428571</ele><time>2026-04-25T12:53:42.002Z</time></trkpt><trkpt lat="45.988979868019456" lon="9.076035788312161"><ele>554.5714285714286</ele><time>2026-04-25T12:53:43.002Z</time></trkpt><trkpt lat="45.98902441069286" lon="9.076166809811031"><ele>554.0</ele><time>2026-04-25T12:53:44.002Z</time></trkpt><trkpt lat="45.98908096279685" lon="9.076311421899357"><ele>554.0</ele><time>2026-04-25T12:53:45.002Z</time></trkpt><trkpt lat="45.989163212189105" lon="9.076443935450612"><ele>554.0</ele><time>2026-04-25T12:53:46.002Z</time></trkpt><trkpt lat="45.98926455505757" lon="9.076545777142236"><ele>554.0</ele><time>2026-04-25T12:53:47.002Z</time></trkpt><trkpt lat="45.989394479545936" lon="9.076619062115322"><ele>554.0</ele><time>2026-04-25T12:53:48.002Z</time></trkpt><trkpt lat="45.98953162182329" lon="9.076673722275913"><ele>551.0</ele><time>2026-04-25T12:53:49.002Z</time></trkpt><trkpt lat="45.98966226545604" lon="9.076715586181074"><ele>548.0</ele><time>2026-04-25T12:53:50.002Z</time></trkpt><trkpt lat="45.98979806140887" lon="9.076747564464684"><ele>545.0</ele><time>2026-04-25T12:53:51.002Z</time></trkpt><trkpt lat="45.98994598925597" lon="9.076736433273767"><ele>542.0</ele><time>2026-04-25T12:53:52.002Z</time></trkpt><trkpt lat="45.99009383753601" lon="9.076708518685459"><ele>539.5</ele><time>2026-04-25T12:53:53.002Z</time></trkpt><trkpt lat="45.99022919828756" lon="9.076695506119297"><ele>537.0</ele><time>2026-04-25T12:53:54.002Z</time></trkpt><trkpt lat="45.990362770856166" lon="9.076693373573361"><ele>534.5</ele><time>2026-04-25T12:53:55.002Z</time></trkpt><trkpt lat="45.99049630826956" lon="9.076687733330475"><ele>532.0</ele><time>2026-04-25T12:53:56.002Z</time></trkpt><trkpt lat="45.99063474458376" lon="9.076661226619297"><ele>532.0</ele><time>2026-04-25T12:53:57.002Z</time></trkpt><trkpt lat="45.990779122477555" lon="9.076609903347792"><ele>532.0</ele><time>2026-04-25T12:53:58.003Z</time></trkpt><trkpt lat="45.990931224071" lon="9.076540023220337"><ele>532.0</ele><time>2026-04-25T12:53:59.003Z</time></trkpt><trkpt lat="45.99109953752119" lon="9.076460426655101"><ele>525.0</ele><time>2026-04-25T12:54:00.003Z</time></trkpt><trkpt lat="45.99125739916618" lon="9.07638281652208"><ele>518.0</ele><time>2026-04-25T12:54:01.003Z</time></trkpt><trkpt lat="45.99140842158998" lon="9.076319898867172"><ele>511.0</ele><time>2026-04-25T12:54:02.003Z</time></trkpt><trkpt lat="45.99156083707944" lon="9.076258353340688"><ele>508.00000000000006</ele><time>2026-04-25T12:54:03.003Z</time></trkpt><trkpt lat="45.99168119116547" lon="9.076199308672354"><ele>505.0</ele><time>2026-04-25T12:54:04.003Z</time></trkpt><trkpt lat="45.99179811693572" lon="9.076168495383445"><ele>502.0</ele><time>2026-04-25T12:54:06.003Z</time></trkpt><trkpt lat="45.99185516102638" lon="9.076222524822809"><ele>499.0</ele><time>2026-04-25T12:54:07.003Z</time></trkpt><trkpt lat="45.99189893073738" lon="9.076289483261169"><ele>496.00000000000006</ele><time>2026-04-25T12:54:08.003Z</time></trkpt><trkpt lat="45.991930110248674" lon="9.076373094556685"><ele>493.0</ele><time>2026-04-25T12:54:09.003Z</time></trkpt><trkpt lat="45.991953372769686" lon="9.076488120098647"><ele>495.75</ele><time>2026-04-25T12:54:10.003Z</time></trkpt><trkpt lat="45.99198486859605" lon="9.076640657531799"><ele>498.5</ele><time>2026-04-25T12:54:11.003Z</time></trkpt><trkpt lat="45.99197451487575" lon="9.076819348906982"><ele>501.25</ele><time>2026-04-25T12:54:12.003Z</time></trkpt><trkpt lat="45.991984982919455" lon="9.077000941372374"><ele>504.0</ele><time>2026-04-25T12:54:13.003Z</time></trkpt><trkpt lat="45.9919992101029" lon="9.07719255702393"><ele>504.0</ele><time>2026-04-25T12:54:14.003Z</time></trkpt><trkpt lat="45.99204376719165" lon="9.077346150909168"><ele>504.0</ele><time>2026-04-25T12:54:15.003Z</time></trkpt><trkpt lat="45.99208646099347" lon="9.077493106536117"><ele>504.0</ele><time>2026-04-25T12:54:16.003Z</time></trkpt><trkpt lat="45.99219323473969" lon="9.077635736749938"><ele>504.0</ele><time>2026-04-25T12:54:17.003Z</time></trkpt><trkpt lat="45.99228076274722" lon="9.077746232506836"><ele>505.6</ele><time>2026-04-25T12:54:18.003Z</time></trkpt><trkpt lat="45.99238324025632" lon="9.077847595936118"><ele>507.2</ele><time>2026-04-25T12:54:19Z</time></trkpt><trkpt lat="45.99249302122788" lon="9.077918741812075"><ele>508.80000000000007</ele><time>2026-04-25T12:54:20Z</time></trkpt><trkpt lat="45.99258423682457" lon="9.077990250050345"><ele>510.40000000000003</ele><time>2026-04-25T12:54:21Z</time></trkpt><trkpt lat="45.99265247700235" lon="9.078069771904229"><ele>512.0</ele><time>2026-04-25T12:54:22Z</time></trkpt><trkpt lat="45.99270505709147" lon="9.078176152422433"><ele>503.5</ele><time>2026-04-25T12:54:23Z</time></trkpt><trkpt lat="45.99276253704182" lon="9.078371644944644"><ele>495.0</ele><time>2026-04-25T12:54:24Z</time></trkpt><trkpt lat="45.992827231030724" lon="9.078555076966845"><ele>486.5</ele><time>2026-04-25T12:54:25Z</time></trkpt><trkpt lat="45.99290283627787" lon="9.078735191119252"><ele>478.0</ele><time>2026-04-25T12:54:26Z</time></trkpt><trkpt lat="45.99298331530736" lon="9.078902199509649"><ele>478.0</ele><time>2026-04-25T12:54:27Z</time></trkpt><trkpt lat="45.99305160164455" lon="9.0790632676268"><ele>478.0</ele><time>2026-04-25T12:54:28Z</time></trkpt><trkpt lat="45.99313839629611" lon="9.079203170068146"><ele>478.0</ele><time>2026-04-25T12:54:29Z</time></trkpt><trkpt lat="45.99324409254592" lon="9.079364342536765"><ele>478.0</ele><time>2026-04-25T12:54:30Z</time></trkpt><trkpt lat="45.993347623075245" lon="9.079517613244894"><ele>476.33333333333337</ele><time>2026-04-25T12:54:31Z</time></trkpt><trkpt lat="45.993455912004976" lon="9.079682730392703"><ele>474.66666666666663</ele><time>2026-04-25T12:54:32Z</time></trkpt><trkpt lat="45.99357648078311" lon="9.079846725673699"><ele>473.0</ele><time>2026-04-25T12:54:33Z</time></trkpt><trkpt lat="45.99367965183738" lon="9.080002734776462"><ele>473.0</ele><time>2026-04-25T12:54:34Z</time></trkpt><trkpt lat="45.9937703800835" lon="9.080174552982726"><ele>473.0</ele><time>2026-04-25T12:54:35Z</time></trkpt><trkpt lat="45.993868135810196" lon="9.080327735791409"><ele>473.0</ele><time>2026-04-25T12:54:36Z</time></trkpt><trkpt lat="45.993957022745235" lon="9.080496888434531"><ele>473.0</ele><time>2026-04-25T12:54:37Z</time></trkpt><trkpt lat="45.99403096543291" lon="9.08067595238072"><ele>469.25</ele><time>2026-04-25T12:54:38Z</time></trkpt><trkpt lat="45.99411426720523" lon="9.080838680819735"><ele>465.5</ele><time>2026-04-25T12:54:39Z</time></trkpt><trkpt lat="45.99419706519224" lon="9.080983820057957"><ele>461.75</ele><time>2026-04-25T12:54:40Z</time></trkpt><trkpt lat="45.99429981981905" lon="9.081107068740803"><ele>458.0</ele><time>2026-04-25T12:54:41Z</time></trkpt><trkpt lat="45.99443808800839" lon="9.081205929191333"><ele>458.0</ele><time>2026-04-25T12:54:42Z</time></trkpt><trkpt lat="45.99457881720198" lon="9.08131227522615"><ele>458.0</ele><time>2026-04-25T12:54:43Z</time></trkpt><trkpt lat="45.99473118376693" lon="9.081434053838835"><ele>458.0</ele><time>2026-04-25T12:54:44Z</time></trkpt><trkpt lat="45.994882071013464" lon="9.081554650155596"><ele>455.66666666666663</ele><time>2026-04-25T12:54:45Z</time></trkpt><trkpt lat="45.99502519904301" lon="9.08166904489783"><ele>453.33333333333337</ele><time>2026-04-25T12:54:46Z</time></trkpt><trkpt lat="45.99516514976986" lon="9.081781371359423"><ele>451.0</ele><time>2026-04-25T12:54:47Z</time></trkpt><trkpt lat="45.99529475509946" lon="9.081884596345976"><ele>451.0</ele><time>2026-04-25T12:54:48Z</time></trkpt><trkpt lat="45.995437564741955" lon="9.081996621505917"><ele>451.0</ele><time>2026-04-25T12:54:49Z</time></trkpt><trkpt lat="45.99557159652198" lon="9.082077631932096"><ele>451.0</ele><time>2026-04-25T12:54:50.001Z</time></trkpt><trkpt lat="45.99571428720988" lon="9.082166939965465"><ele>443.6666666666667</ele><time>2026-04-25T12:54:51.001Z</time></trkpt><trkpt lat="45.99586623723558" lon="9.082255147364208"><ele>436.33333333333337</ele><time>2026-04-25T12:54:52.001Z</time></trkpt><trkpt lat="45.99601719169462" lon="9.082342041211287"><ele>429.0</ele><time>2026-04-25T12:54:53.001Z</time></trkpt><trkpt lat="45.99616848720791" lon="9.082414464072004"><ele>435.0</ele><time>2026-04-25T12:54:54.001Z</time></trkpt><trkpt lat="45.996315685831846" lon="9.082515489828387"><ele>441.0</ele><time>2026-04-25T12:54:55.001Z</time></trkpt><trkpt lat="45.9964596563805" lon="9.08259039314309"><ele>447.0</ele><time>2026-04-25T12:54:56.001Z</time></trkpt><trkpt lat="45.99659897453773" lon="9.082669592508408"><ele>444.0</ele><time>2026-04-25T12:54:57.001Z</time></trkpt><trkpt lat="45.99672262592538" lon="9.082744112021855"><ele>441.0</ele><time>2026-04-25T12:54:58.001Z</time></trkpt><trkpt lat="45.99681977377733" lon="9.082896797492586"><ele>438.0</ele><time>2026-04-25T12:54:59.001Z</time></trkpt><trkpt lat="45.9971585704334" lon="9.083177140456264"><ele>438.0</ele><time>2026-04-25T12:55:02.001Z</time></trkpt><trkpt lat="45.997248678143684" lon="9.083244130446772"><ele>437.99999999999994</ele><time>2026-04-25T12:55:03.001Z</time></trkpt><trkpt lat="45.997321400870554" lon="9.083277513574966"><ele>437.99999999999994</ele><time>2026-04-25T12:55:04.001Z</time></trkpt><trkpt lat="45.99743788084164" lon="9.08320259665899"><ele>438.0</ele><time>2026-04-25T12:55:06.001Z</time></trkpt><trkpt lat="45.99745204855512" lon="9.083093712881313"><ele>438.0</ele><time>2026-04-25T12:55:07.001Z</time></trkpt><trkpt lat="45.99746524305088" lon="9.082964448077753"><ele>438.0</ele><time>2026-04-25T12:55:08.001Z</time></trkpt><trkpt lat="45.99747851353687" lon="9.082825062713283"><ele>438.0</ele><time>2026-04-25T12:55:09.001Z</time></trkpt><trkpt lat="45.99749398062557" lon="9.08269743499097"><ele>438.0</ele><time>2026-04-25T12:55:10.001Z</time></trkpt><trkpt lat="45.99749531396192" lon="9.082558233067504"><ele>438.0</ele><time>2026-04-25T12:55:11.001Z</time></trkpt><trkpt lat="45.997481823342206" lon="9.082435548488323"><ele>438.0</ele><time>2026-04-25T12:55:12.001Z</time></trkpt><trkpt lat="45.99744747115671" lon="9.0823462659845"><ele>438.0</ele><time>2026-04-25T12:55:13.001Z</time></trkpt><trkpt lat="45.99740382378323" lon="9.082241467534049"><ele>434.59999999999997</ele><time>2026-04-25T12:55:14.001Z</time></trkpt><trkpt lat="45.99732085290717" lon="9.08220039604794"><ele>431.19999999999993</ele><time>2026-04-25T12:55:15.001Z</time></trkpt><trkpt lat="45.99722897750538" lon="9.082162557250655"><ele>427.8</ele><time>2026-04-25T12:55:16.001Z</time></trkpt><trkpt lat="45.99712155368016" lon="9.082140877941605"><ele>424.4</ele><time>2026-04-25T12:55:17.001Z</time></trkpt><trkpt lat="45.99702700434902" lon="9.08211008840615"><ele>421.0</ele><time>2026-04-25T12:55:18.001Z</time></trkpt><trkpt lat="45.99692187460139" lon="9.082114246664434"><ele>421.00000000000006</ele><time>2026-04-25T12:55:19.001Z</time></trkpt><trkpt lat="45.99682912797029" lon="9.082143577832003"><ele>421.0</ele><time>2026-04-25T12:55:20.001Z</time></trkpt><trkpt lat="45.9967517294309" lon="9.08214704363957"><ele>421.0</ele><time>2026-04-25T12:55:22.002Z</time></trkpt><trkpt lat="45.99678547160571" lon="9.082043466786086"><ele>421.0</ele><time>2026-04-25T12:55:24.002Z</time></trkpt><trkpt lat="45.99685148678279" lon="9.082024780301126"><ele>421.00000000000006</ele><time>2026-04-25T12:55:25.002Z</time></trkpt><trkpt lat="45.99694424037794" lon="9.08204190392187"><ele>421.0</ele><time>2026-04-25T12:55:26.002Z</time></trkpt><trkpt lat="45.99704610754515" lon="9.082064740754797"><ele>421.0</ele><time>2026-04-25T12:55:27.002Z</time></trkpt><trkpt lat="45.99715428487498" lon="9.082077940443734"><ele>421.0</ele><time>2026-04-25T12:55:28.002Z</time></trkpt><trkpt lat="45.99727125677291" lon="9.082094336332734"><ele>421.0</ele><time>2026-04-25T12:55:29.002Z</time></trkpt><trkpt lat="45.997387958522786" lon="9.082103953608671"><ele>421.0</ele><time>2026-04-25T12:55:30.002Z</time></trkpt><trkpt lat="45.997497995529145" lon="9.082115901877406"><ele>420.20000000000005</ele><time>2026-04-25T12:55:31.002Z</time></trkpt><trkpt lat="45.997610320369915" lon="9.082131065981565"><ele>419.40000000000003</ele><time>2026-04-25T12:55:32.002Z</time></trkpt><trkpt lat="45.99771840794805" lon="9.082126062408035"><ele>418.6</ele><time>2026-04-25T12:55:33.002Z</time></trkpt><trkpt lat="45.99781480779658" lon="9.082081171283317"><ele>417.8</ele><time>2026-04-25T12:55:34.002Z</time></trkpt><trkpt lat="45.9979224763142" lon="9.082015133056457"><ele>417.0</ele><time>2026-04-25T12:55:35.002Z</time></trkpt><trkpt lat="45.998014905874555" lon="9.08193058975339"><ele>417.0</ele><time>2026-04-25T12:55:36.002Z</time></trkpt><trkpt lat="45.99809076298122" lon="9.081867558630375"><ele>417.0</ele><time>2026-04-25T12:55:37.002Z</time></trkpt><trkpt lat="45.99817761359981" lon="9.081836598175837"><ele>417.0</ele><time>2026-04-25T12:55:38.002Z</time></trkpt><trkpt lat="45.99826076269433" lon="9.081849396945163"><ele>417.0</ele><time>2026-04-25T12:55:39.002Z</time></trkpt><trkpt lat="45.998355303657014" lon="9.081891540862138"><ele>417.0</ele><time>2026-04-25T12:55:40.002Z</time></trkpt><trkpt lat="45.99846161430661" lon="9.08193313056707"><ele>415.8</ele><time>2026-04-25T12:55:41.002Z</time></trkpt><trkpt lat="45.998571490588645" lon="9.081958978747942"><ele>414.6</ele><time>2026-04-25T12:55:42.002Z</time></trkpt><trkpt lat="45.9986812182132" lon="9.081969636897904"><ele>413.40000000000003</ele><time>2026-04-25T12:55:43.002Z</time></trkpt><trkpt lat="45.99879088207994" lon="9.08196690481849"><ele>412.20000000000005</ele><time>2026-04-25T12:55:44.002Z</time></trkpt><trkpt lat="45.99889418146839" lon="9.08196736259798"><ele>411.0</ele><time>2026-04-25T12:55:45.002Z</time></trkpt><trkpt lat="45.99900254749514" lon="9.081973359704712"><ele>411.0</ele><time>2026-04-25T12:55:46.002Z</time></trkpt><trkpt lat="45.99911355358693" lon="9.082002518543185"><ele>411.0</ele><time>2026-04-25T12:55:47.002Z</time></trkpt><trkpt lat="45.99921844589746" lon="9.082035764151831"><ele>411.0</ele><time>2026-04-25T12:55:48.002Z</time></trkpt><trkpt lat="45.999326224743164" lon="9.082037244191971"><ele>411.0</ele><time>2026-04-25T12:55:49.002Z</time></trkpt><trkpt lat="45.999434274819215" lon="9.082035187081392"><ele>411.0</ele><time>2026-04-25T12:55:50.002Z</time></trkpt><trkpt lat="45.999532685999476" lon="9.082008814757344"><ele>409.0</ele><time>2026-04-25T12:55:51.002Z</time></trkpt><trkpt lat="45.99961992996343" lon="9.081985297240461"><ele>407.0</ele><time>2026-04-25T12:55:52.002Z</time></trkpt><trkpt lat="45.99969954943321" lon="9.081970637770173"><ele>405.0</ele><time>2026-04-25T12:55:53.002Z</time></trkpt><trkpt lat="45.999780290491984" lon="9.081944853651107"><ele>403.0</ele><time>2026-04-25T12:55:54.002Z</time></trkpt><trkpt lat="45.99984851402802" lon="9.081979401807136"><ele>401.0</ele><time>2026-04-25T12:55:55.003Z</time></trkpt><trkpt lat="45.99991526389279" lon="9.08204707828941"><ele>399.0</ele><time>2026-04-25T12:55:56.003Z</time></trkpt><trkpt lat="46.00001052957901" lon="9.082083021734352"><ele>399.0</ele><time>2026-04-25T12:55:57.003Z</time></trkpt><trkpt lat="46.000116934027695" lon="9.08218322499205"><ele>399.0</ele><time>2026-04-25T12:55:58.003Z</time></trkpt><trkpt lat="46.00021682898728" lon="9.082344113693381"><ele>399.0</ele><time>2026-04-25T12:55:59.003Z</time></trkpt><trkpt lat="46.00029621710835" lon="9.08248992520867"><ele>399.0</ele><time>2026-04-25T12:56:00.003Z</time></trkpt><trkpt lat="46.000421370562705" lon="9.082584772600793"><ele>397.5</ele><time>2026-04-25T12:56:01.003Z</time></trkpt><trkpt lat="46.00054156254977" lon="9.082682138099276"><ele>396.0</ele><time>2026-04-25T12:56:02.003Z</time></trkpt><trkpt lat="46.000660567853394" lon="9.082767229331319"><ele>394.5</ele><time>2026-04-25T12:56:03.003Z</time></trkpt><trkpt lat="46.00075634052023" lon="9.082857631693381"><ele>393.0</ele><time>2026-04-25T12:56:04.003Z</time></trkpt><trkpt lat="46.00085566250309" lon="9.082945512896298"><ele>393.0</ele><time>2026-04-25T12:56:05.003Z</time></trkpt><trkpt lat="46.000955209473354" lon="9.083034081411643"><ele>393.0</ele><time>2026-04-25T12:56:06.003Z</time></trkpt><trkpt lat="46.00105002381091" lon="9.083130961919819"><ele>393.0</ele><time>2026-04-25T12:56:07.003Z</time></trkpt><trkpt lat="46.001147802306576" lon="9.08324796344882"><ele>393.0</ele><time>2026-04-25T12:56:08.003Z</time></trkpt><trkpt lat="46.00124642355394" lon="9.083368599572415"><ele>398.0</ele><time>2026-04-25T12:56:09.003Z</time></trkpt><trkpt lat="46.001339920866876" lon="9.083492484845202"><ele>403.0</ele><time>2026-04-25T12:56:10.003Z</time></trkpt><trkpt lat="46.00143095386702" lon="9.083608429529361"><ele>408.0</ele><time>2026-04-25T12:56:11.003Z</time></trkpt><trkpt lat="46.00152428294705" lon="9.083721212905076"><ele>413.0</ele><time>2026-04-25T12:56:12.003Z</time></trkpt><trkpt lat="46.0016242845023" lon="9.083842286427307"><ele>410.25</ele><time>2026-04-25T12:56:13.003Z</time></trkpt><trkpt lat="46.00171709295786" lon="9.083959211777929"><ele>407.5</ele><time>2026-04-25T12:56:14.003Z</time></trkpt><trkpt lat="46.00180644438269" lon="9.084085104489851"><ele>404.75</ele><time>2026-04-25T12:56:15.003Z</time></trkpt><trkpt lat="46.001890832112686" lon="9.084201300643832"><ele>402.0</ele><time>2026-04-25T12:56:16.003Z</time></trkpt><trkpt lat="46.00197176668218" lon="9.084331667889614"><ele>402.0</ele><time>2026-04-25T12:56:17.003Z</time></trkpt><trkpt lat="46.0020324488868" lon="9.084464298887381"><ele>402.0</ele><time>2026-04-25T12:56:18.003Z</time></trkpt><trkpt lat="46.00207746357994" lon="9.084619274599925"><ele>402.0</ele><time>2026-04-25T12:56:19.003Z</time></trkpt><trkpt lat="46.00211456753115" lon="9.084773913258491"><ele>402.0</ele><time>2026-04-25T12:56:20.003Z</time></trkpt><trkpt lat="46.002171173341836" lon="9.084906152476137"><ele>402.0</ele><time>2026-04-25T12:56:21.003Z</time></trkpt><trkpt lat="46.002250272066725" lon="9.085010207205363"><ele>402.5</ele><time>2026-04-25T12:56:22.003Z</time></trkpt><trkpt lat="46.00235160286224" lon="9.0850740803673"><ele>403.0</ele><time>2026-04-25T12:56:23.003Z</time></trkpt><trkpt lat="46.002468637744414" lon="9.085116504429402"><ele>403.5</ele><time>2026-04-25T12:56:24.003Z</time></trkpt><trkpt lat="46.0025733424389" lon="9.085169630851912"><ele>404.0</ele><time>2026-04-25T12:56:25Z</time></trkpt><trkpt lat="46.00267605412651" lon="9.085223856993936"><ele>401.8333333333333</ele><time>2026-04-25T12:56:26Z</time></trkpt><trkpt lat="46.002747668367036" lon="9.085283610479872"><ele>399.66666666666663</ele><time>2026-04-25T12:56:27Z</time></trkpt><trkpt lat="46.00280524116938" lon="9.085347943112252"><ele>397.5</ele><time>2026-04-25T12:56:28Z</time></trkpt><trkpt lat="46.0028435799553" lon="9.085436069058604"><ele>395.33333333333337</ele><time>2026-04-25T12:56:29Z</time></trkpt><trkpt lat="46.002873209070394" lon="9.085543077685722"><ele>393.1666666666667</ele><time>2026-04-25T12:56:30Z</time></trkpt><trkpt lat="46.002912049361186" lon="9.085675307457254"><ele>391.0</ele><time>2026-04-25T12:56:31Z</time></trkpt><trkpt lat="46.0029717722377" lon="9.08580366382881"><ele>391.00000000000006</ele><time>2026-04-25T12:56:32Z</time></trkpt><trkpt lat="46.00302336464237" lon="9.085918811960358"><ele>391.0</ele><time>2026-04-25T12:56:33Z</time></trkpt><trkpt lat="46.003066879508204" lon="9.08602998840942"><ele>391.0</ele><time>2026-04-25T12:56:34Z</time></trkpt><trkpt lat="46.003093078743106" lon="9.086153456280957"><ele>391.0</ele><time>2026-04-25T12:56:35Z</time></trkpt><trkpt lat="46.00309001322269" lon="9.08626837205131"><ele>391.00000000000006</ele><time>2026-04-25T12:56:36Z</time></trkpt><trkpt lat="46.00306616351932" lon="9.086377895874831"><ele>391.0</ele><time>2026-04-25T12:56:37Z</time></trkpt><trkpt lat="46.00303248352365" lon="9.08645986198627"><ele>390.99999999999994</ele><time>2026-04-25T12:56:38Z</time></trkpt><trkpt lat="46.00297992419881" lon="9.086516789482285"><ele>391.0</ele><time>2026-04-25T12:56:39Z</time></trkpt><trkpt lat="46.002901810650016" lon="9.086579308595507"><ele>391.0</ele><time>2026-04-25T12:56:40Z</time></trkpt><trkpt lat="46.002837200790935" lon="9.086634170024787"><ele>391.0</ele><time>2026-04-25T12:56:41Z</time></trkpt><trkpt lat="46.00278513582644" lon="9.086705254660554"><ele>391.0</ele><time>2026-04-25T12:56:42Z</time></trkpt><trkpt lat="46.00277101736125" lon="9.086802560407065"><ele>390.99999999999994</ele><time>2026-04-25T12:56:43Z</time></trkpt><trkpt lat="46.00277990782656" lon="9.086899443780883"><ele>391.0</ele><time>2026-04-25T12:56:44Z</time></trkpt><trkpt lat="46.00286617806706" lon="9.087038681068194"><ele>390.1666666666667</ele><time>2026-04-25T12:56:46Z</time></trkpt><trkpt lat="46.0029270024241" lon="9.087109801419201"><ele>389.33333333333337</ele><time>2026-04-25T12:56:47Z</time></trkpt><trkpt lat="46.00300345215561" lon="9.087181199267853"><ele>388.5</ele><time>2026-04-25T12:56:48Z</time></trkpt><trkpt lat="46.00307249499036" lon="9.08725733913836"><ele>387.66666666666663</ele><time>2026-04-25T12:56:49Z</time></trkpt><trkpt lat="46.003145535844425" lon="9.087305261054254"><ele>386.8333333333333</ele><time>2026-04-25T12:56:50Z</time></trkpt><trkpt lat="46.00321849947256" lon="9.087308525252919"><ele>386.0</ele><time>2026-04-25T12:56:51Z</time></trkpt><trkpt lat="46.0032925323902" lon="9.087272665807777"><ele>383.20000000000005</ele><time>2026-04-25T12:56:52Z</time></trkpt><trkpt lat="46.00340128301506" lon="9.087273924566825"><ele>380.40000000000003</ele><time>2026-04-25T12:56:53.001Z</time></trkpt><trkpt lat="46.003414068437586" lon="9.087097365736929"><ele>377.6</ele><time>2026-04-25T12:56:54.001Z</time></trkpt><trkpt lat="46.00345999098052" lon="9.086978089576611"><ele>374.8</ele><time>2026-04-25T12:56:55.001Z</time></trkpt><trkpt lat="46.00350643832711" lon="9.086866407500708"><ele>372.0</ele><time>2026-04-25T12:56:56.001Z</time></trkpt><trkpt lat="46.00354959124451" lon="9.086764232209166"><ele>372.0</ele><time>2026-04-25T12:56:57.001Z</time></trkpt><trkpt lat="46.00359833298619" lon="9.086680085764238"><ele>372.0</ele><time>2026-04-25T12:56:58.001Z</time></trkpt><trkpt lat="46.00365622191989" lon="9.086608993780459"><ele>372.0</ele><time>2026-04-25T12:56:59.001Z</time></trkpt><trkpt lat="46.003737037235624" lon="9.08656920425817"><ele>372.0</ele><time>2026-04-25T12:57:00.001Z</time></trkpt><trkpt lat="46.00382476068695" lon="9.08654903961515"><ele>372.0</ele><time>2026-04-25T12:57:01.001Z</time></trkpt><trkpt lat="46.003927379448804" lon="9.086555353963554"><ele>372.0</ele><time>2026-04-25T12:57:02.001Z</time></trkpt><trkpt lat="46.00404596593389" lon="9.0865934402855"><ele>372.0</ele><time>2026-04-25T12:57:03.001Z</time></trkpt><trkpt lat="46.00416159264419" lon="9.086636475034886"><ele>372.0</ele><time>2026-04-25T12:57:04.001Z</time></trkpt><trkpt lat="46.00426664881166" lon="9.086663167951635"><ele>372.0</ele><time>2026-04-25T12:57:05.001Z</time></trkpt><trkpt lat="46.004368144624344" lon="9.086694019113597"><ele>372.0</ele><time>2026-04-25T12:57:06.001Z</time></trkpt><trkpt lat="46.004470300282016" lon="9.086741361966187"><ele>372.0</ele><time>2026-04-25T12:57:07.001Z</time></trkpt><trkpt lat="46.00457391085705" lon="9.086811346578942"><ele>370.5</ele><time>2026-04-25T12:57:08.001Z</time></trkpt><trkpt lat="46.00467506348596" lon="9.086906279950355"><ele>369.0</ele><time>2026-04-25T12:57:09.001Z</time></trkpt><trkpt lat="46.00477155101938" lon="9.087011574173086"><ele>367.5</ele><time>2026-04-25T12:57:10.001Z</time></trkpt><trkpt lat="46.00487724833115" lon="9.08709898347645"><ele>366.0</ele><time>2026-04-25T12:57:11.001Z</time></trkpt><trkpt lat="46.00499078591989" lon="9.087164723017908"><ele>364.75</ele><time>2026-04-25T12:57:12.001Z</time></trkpt><trkpt lat="46.00510420137482" lon="9.087210189176576"><ele>363.5</ele><time>2026-04-25T12:57:13.001Z</time></trkpt><trkpt lat="46.00521566149052" lon="9.087255892747843"><ele>362.25</ele><time>2026-04-25T12:57:14.001Z</time></trkpt><trkpt lat="46.005317712507676" lon="9.087335523953636"><ele>361.0</ele><time>2026-04-25T12:57:15.001Z</time></trkpt><trkpt lat="46.00541805866327" lon="9.087448061933774"><ele>361.0</ele><time>2026-04-25T12:57:16.001Z</time></trkpt><trkpt lat="46.00549196961198" lon="9.087620799297746"><ele>361.0</ele><time>2026-04-25T12:57:17.001Z</time></trkpt><trkpt lat="46.00557856047308" lon="9.087800089809646"><ele>361.0</ele><time>2026-04-25T12:57:18.001Z</time></trkpt><trkpt lat="46.00565802800724" lon="9.087979182703911"><ele>361.0</ele><time>2026-04-25T12:57:19.001Z</time></trkpt><trkpt lat="46.0057448847367" lon="9.088176015260705"><ele>359.0</ele><time>2026-04-25T12:57:20.001Z</time></trkpt><trkpt lat="46.005819374100035" lon="9.088341308500866"><ele>357.0</ele><time>2026-04-25T12:57:21.001Z</time></trkpt><trkpt lat="46.00588122926555" lon="9.088483512876175"><ele>355.0</ele><time>2026-04-25T12:57:22.001Z</time></trkpt><trkpt lat="46.005934430375284" lon="9.088603375919766"><ele>353.0</ele><time>2026-04-25T12:57:23.001Z</time></trkpt><trkpt lat="46.00599216929417" lon="9.088672582250389"><ele>351.0</ele><time>2026-04-25T12:57:24.001Z</time></trkpt><trkpt lat="46.00607961717091" lon="9.088773298724924"><ele>351.0</ele><time>2026-04-25T12:57:25.001Z</time></trkpt><trkpt lat="46.00617871561871" lon="9.088851951991588"><ele>351.0</ele><time>2026-04-25T12:57:26.001Z</time></trkpt><trkpt lat="46.00626874166321" lon="9.088934051346866"><ele>351.0</ele><time>2026-04-25T12:57:27.001Z</time></trkpt><trkpt lat="46.00634624663032" lon="9.089053928848996"><ele>351.0</ele><time>2026-04-25T12:57:28.001Z</time></trkpt><trkpt lat="46.00641396968729" lon="9.089205411381997"><ele>352.4</ele><time>2026-04-25T12:57:29.002Z</time></trkpt><trkpt lat="46.00647423279943" lon="9.089350163887973"><ele>353.8</ele><time>2026-04-25T12:57:30.002Z</time></trkpt><trkpt lat="46.00653300446185" lon="9.089490081807295"><ele>355.2</ele><time>2026-04-25T12:57:31.002Z</time></trkpt><trkpt lat="46.00659015913346" lon="9.089625378074597"><ele>356.59999999999997</ele><time>2026-04-25T12:57:32.002Z</time></trkpt><trkpt lat="46.0066478567783" lon="9.089734996884944"><ele>358.0</ele><time>2026-04-25T12:57:33.002Z</time></trkpt><trkpt lat="46.006703727789116" lon="9.0897894339851"><ele>354.0</ele><time>2026-04-25T12:57:34.002Z</time></trkpt><trkpt lat="46.00681842032101" lon="9.089765909895359"><ele>350.0</ele><time>2026-04-25T12:57:36.002Z</time></trkpt><trkpt lat="46.00686464940443" lon="9.089673136016906"><ele>346.0</ele><time>2026-04-25T12:57:37.002Z</time></trkpt><trkpt lat="46.00686109058841" lon="9.089531286752214"><ele>342.0</ele><time>2026-04-25T12:57:38.002Z</time></trkpt><trkpt lat="46.006846322886844" lon="9.089424985844522"><ele>338.0</ele><time>2026-04-25T12:57:39.002Z</time></trkpt><trkpt lat="46.00682912866309" lon="9.089310008702535"><ele>338.0</ele><time>2026-04-25T12:57:40.002Z</time></trkpt><trkpt lat="46.00679683837363" lon="9.089179565706424"><ele>338.0</ele><time>2026-04-25T12:57:41.002Z</time></trkpt><trkpt lat="46.00679175766897" lon="9.089023524130408"><ele>338.0</ele><time>2026-04-25T12:57:42.002Z</time></trkpt><trkpt lat="46.00678264105066" lon="9.088856232758719"><ele>338.0</ele><time>2026-04-25T12:57:43.002Z</time></trkpt><trkpt lat="46.00679174310059" lon="9.08868707636389"><ele>338.0</ele><time>2026-04-25T12:57:44.002Z</time></trkpt><trkpt lat="46.00678521805631" lon="9.088516166802012"><ele>336.59999999999997</ele><time>2026-04-25T12:57:45.002Z</time></trkpt><trkpt lat="46.00680936624824" lon="9.088340662031806"><ele>335.2</ele><time>2026-04-25T12:57:46.002Z</time></trkpt><trkpt lat="46.00682152610257" lon="9.088179358950363"><ele>333.8</ele><time>2026-04-25T12:57:47.002Z</time></trkpt><trkpt lat="46.00683202457408" lon="9.088022561238535"><ele>332.4</ele><time>2026-04-25T12:57:48.002Z</time></trkpt><trkpt lat="46.006840447999785" lon="9.087874818587737"><ele>331.0</ele><time>2026-04-25T12:57:49.002Z</time></trkpt><trkpt lat="46.006836174492854" lon="9.087740708042592"><ele>329.8</ele><time>2026-04-25T12:57:50.002Z</time></trkpt><trkpt lat="46.00680153964126" lon="9.087622567082185"><ele>328.6</ele><time>2026-04-25T12:57:51.002Z</time></trkpt><trkpt lat="46.00675177364034" lon="9.087514628165403"><ele>327.4</ele><time>2026-04-25T12:57:52.002Z</time></trkpt><trkpt lat="46.0066531186862" lon="9.087446243715283"><ele>326.2</ele><time>2026-04-25T12:57:53.002Z</time></trkpt><trkpt lat="46.00653955010573" lon="9.087420495573902"><ele>325.0</ele><time>2026-04-25T12:57:54.002Z</time></trkpt><trkpt lat="46.00644076849857" lon="9.087415097219246"><ele>325.0</ele><time>2026-04-25T12:57:55.002Z</time></trkpt><trkpt lat="46.00635046217797" lon="9.087359958472781"><ele>325.0</ele><time>2026-04-25T12:57:56.002Z</time></trkpt><trkpt lat="46.00625802286057" lon="9.087262169886653"><ele>325.0</ele><time>2026-04-25T12:57:57.002Z</time></trkpt><trkpt lat="46.00619058396029" lon="9.087099261016622"><ele>325.0</ele><time>2026-04-25T12:57:58.002Z</time></trkpt><trkpt lat="46.00608656039002" lon="9.08699817179696"><ele>325.0</ele><time>2026-04-25T12:57:59.002Z</time></trkpt><trkpt lat="46.00599225058938" lon="9.086913176673455"><ele>325.0</ele><time>2026-04-25T12:58:00.002Z</time></trkpt><trkpt lat="46.0059069585529" lon="9.086803352324479"><ele>325.0</ele><time>2026-04-25T12:58:01.002Z</time></trkpt><trkpt lat="46.0058320216574" lon="9.086727997129438"><ele>325.0</ele><time>2026-04-25T12:58:02.002Z</time></trkpt><trkpt lat="46.00579659894383" lon="9.086616844842535"><ele>325.0</ele><time>2026-04-25T12:58:03.002Z</time></trkpt><trkpt lat="46.005787186850505" lon="9.086498332907713"><ele>323.16666666666663</ele><time>2026-04-25T12:58:04.002Z</time></trkpt><trkpt lat="46.00582155675883" lon="9.086395423197327"><ele>321.3333333333333</ele><time>2026-04-25T12:58:05.003Z</time></trkpt><trkpt lat="46.00587525551864" lon="9.086319552670773"><ele>319.5</ele><time>2026-04-25T12:58:06.003Z</time></trkpt><trkpt lat="46.00595614687499" lon="9.086280618899258"><ele>317.6666666666667</ele><time>2026-04-25T12:58:07.003Z</time></trkpt><trkpt lat="46.0060363493238" lon="9.086272255406026"><ele>315.83333333333337</ele><time>2026-04-25T12:58:08.003Z</time></trkpt><trkpt lat="46.00612738809356" lon="9.086303991934278"><ele>314.0</ele><time>2026-04-25T12:58:09.003Z</time></trkpt><trkpt lat="46.0062083211802" lon="9.086334268965318"><ele>314.0</ele><time>2026-04-25T12:58:10.003Z</time></trkpt><trkpt lat="46.0062875798216" lon="9.086329816111611"><ele>314.0</ele><time>2026-04-25T12:58:11.003Z</time></trkpt><trkpt lat="46.006352340656996" lon="9.086264564885207"><ele>314.0</ele><time>2026-04-25T12:58:12.003Z</time></trkpt><trkpt lat="46.006391819539026" lon="9.08616625262773"><ele>314.0</ele><time>2026-04-25T12:58:13.003Z</time></trkpt><trkpt lat="46.00640743550865" lon="9.086051850961484"><ele>314.0</ele><time>2026-04-25T12:58:14.003Z</time></trkpt><trkpt lat="46.00637102666796" lon="9.085927098036679"><ele>314.0</ele><time>2026-04-25T12:58:15.003Z</time></trkpt><trkpt lat="46.0062766419116" lon="9.08583578175346"><ele>311.0</ele><time>2026-04-25T12:58:16.003Z</time></trkpt><trkpt lat="46.00618221001814" lon="9.085735297642836"><ele>308.0</ele><time>2026-04-25T12:58:17.003Z</time></trkpt><trkpt lat="46.00607130898112" lon="9.085622402647084"><ele>305.0</ele><time>2026-04-25T12:58:18.003Z</time></trkpt><trkpt lat="46.00596848523147" lon="9.085497226646684"><ele>302.0</ele><time>2026-04-25T12:58:19.003Z</time></trkpt><trkpt lat="46.00587419366194" lon="9.08537999306131"><ele>302.0</ele><time>2026-04-25T12:58:20.003Z</time></trkpt><trkpt lat="46.00579929948686" lon="9.085258486205984"><ele>302.0</ele><time>2026-04-25T12:58:21.003Z</time></trkpt><trkpt lat="46.00575895357207" lon="9.08513638638384"><ele>302.0</ele><time>2026-04-25T12:58:22.003Z</time></trkpt><trkpt lat="46.00571421565758" lon="9.08506379331924"><ele>302.0</ele><time>2026-04-25T12:58:23.003Z</time></trkpt><trkpt lat="46.005764665534194" lon="9.084912491408522"><ele>302.0</ele><time>2026-04-25T12:58:25.003Z</time></trkpt><trkpt lat="46.005878720044464" lon="9.084943315556718"><ele>302.0</ele><time>2026-04-25T12:58:27.003Z</time></trkpt><trkpt lat="46.00591957293704" lon="9.085043353132793"><ele>302.0</ele><time>2026-04-25T12:58:28.003Z</time></trkpt><trkpt lat="46.00595977387086" lon="9.085177709783563"><ele>302.0</ele><time>2026-04-25T12:58:29.003Z</time></trkpt><trkpt lat="46.00602685570027" lon="9.085298714043951"><ele>302.0</ele><time>2026-04-25T12:58:30.003Z</time></trkpt><trkpt lat="46.006120935951316" lon="9.085410942643202"><ele>302.0</ele><time>2026-04-25T12:58:31Z</time></trkpt><trkpt lat="46.006225144629404" lon="9.085504224043731"><ele>302.0</ele><time>2026-04-25T12:58:32Z</time></trkpt><trkpt lat="46.00632850698791" lon="9.085571384839819"><ele>302.0</ele><time>2026-04-25T12:58:33Z</time></trkpt><trkpt lat="46.00642952427036" lon="9.085630188640595"><ele>302.0</ele><time>2026-04-25T12:58:34Z</time></trkpt><trkpt lat="46.00650964854605" lon="9.085696848529212"><ele>302.0</ele><time>2026-04-25T12:58:35Z</time></trkpt><trkpt lat="46.00656656235979" lon="9.085784748972863"><ele>302.0</ele><time>2026-04-25T12:58:36Z</time></trkpt><trkpt lat="46.00660106768959" lon="9.085895966106209"><ele>304.4</ele><time>2026-04-25T12:58:37Z</time></trkpt><trkpt lat="46.00661899233044" lon="9.08602400863228"><ele>306.79999999999995</ele><time>2026-04-25T12:58:38Z</time></trkpt><trkpt lat="46.006636139085074" lon="9.086147695398141"><ele>309.2</ele><time>2026-04-25T12:58:39Z</time></trkpt><trkpt lat="46.00664140999313" lon="9.086271929121597"><ele>311.59999999999997</ele><time>2026-04-25T12:58:40Z</time></trkpt><trkpt lat="46.00663593821105" lon="9.086403465381414"><ele>314.0</ele><time>2026-04-25T12:58:41Z</time></trkpt><trkpt lat="46.0066127206705" lon="9.086533552268946"><ele>315.83333333333337</ele><time>2026-04-25T12:58:42Z</time></trkpt><trkpt lat="46.006577089387534" lon="9.086646421301266"><ele>317.6666666666667</ele><time>2026-04-25T12:58:43Z</time></trkpt><trkpt lat="46.00656027069546" lon="9.086765422789066"><ele>319.5</ele><time>2026-04-25T12:58:44Z</time></trkpt><trkpt lat="46.0065800984297" lon="9.086874383621558"><ele>321.3333333333333</ele><time>2026-04-25T12:58:45Z</time></trkpt><trkpt lat="46.006626344339224" lon="9.08695532110298"><ele>323.16666666666663</ele><time>2026-04-25T12:58:46Z</time></trkpt><trkpt lat="46.00669486730089" lon="9.086984009159492"><ele>325.0</ele><time>2026-04-25T12:58:47Z</time></trkpt><trkpt lat="46.006763870400874" lon="9.086973919675215"><ele>320.3333333333333</ele><time>2026-04-25T12:58:48Z</time></trkpt><trkpt lat="46.00682808011207" lon="9.086919219417519"><ele>315.66666666666663</ele><time>2026-04-25T12:58:49Z</time></trkpt><trkpt lat="46.00686909865844" lon="9.086829739223763"><ele>311.0</ele><time>2026-04-25T12:58:50Z</time></trkpt><trkpt lat="46.006877686355445" lon="9.086720543201132"><ele>306.3333333333333</ele><time>2026-04-25T12:58:51Z</time></trkpt><trkpt lat="46.006865852231556" lon="9.086605776415718"><ele>301.6666666666667</ele><time>2026-04-25T12:58:52Z</time></trkpt><trkpt lat="46.006840485759" lon="9.086480079527842"><ele>297.0</ele><time>2026-04-25T12:58:53Z</time></trkpt><trkpt lat="46.006833786640655" lon="9.086351472739524"><ele>295.6666666666667</ele><time>2026-04-25T12:58:54Z</time></trkpt><trkpt lat="46.0068156586509" lon="9.0862397367384"><ele>294.3333333333333</ele><time>2026-04-25T12:58:55Z</time></trkpt><trkpt lat="46.00679839657005" lon="9.086133337964906"><ele>293.0</ele><time>2026-04-25T12:58:56Z</time></trkpt><trkpt lat="46.00678369445674" lon="9.086029348092023"><ele>291.66666666666663</ele><time>2026-04-25T12:58:57Z</time></trkpt><trkpt lat="46.00679204580721" lon="9.085896900586826"><ele>290.3333333333333</ele><time>2026-04-25T12:58:59Z</time></trkpt><trkpt lat="46.0068727955421" lon="9.085884849046646"><ele>289.0</ele><time>2026-04-25T12:59:01Z</time></trkpt><trkpt lat="46.00694198304625" lon="9.086011265537339"><ele>289.0</ele><time>2026-04-25T12:59:02Z</time></trkpt><trkpt lat="46.00700094599186" lon="9.08610867731863"><ele>289.0</ele><time>2026-04-25T12:59:03.001Z</time></trkpt><trkpt lat="46.00706544631673" lon="9.086214020212457"><ele>289.0</ele><time>2026-04-25T12:59:04.001Z</time></trkpt><trkpt lat="46.00712428614327" lon="9.086332514930751"><ele>289.0</ele><time>2026-04-25T12:59:05.001Z</time></trkpt><trkpt lat="46.00717028517799" lon="9.086469726625632"><ele>289.0</ele><time>2026-04-25T12:59:06.001Z</time></trkpt><trkpt lat="46.00720018109164" lon="9.086621471840854"><ele>291.0</ele><time>2026-04-25T12:59:07.001Z</time></trkpt><trkpt lat="46.007210381375884" lon="9.086792914452468"><ele>293.0</ele><time>2026-04-25T12:59:08.001Z</time></trkpt><trkpt lat="46.007201488538755" lon="9.086979840320195"><ele>295.0</ele><time>2026-04-25T12:59:09.001Z</time></trkpt><trkpt lat="46.007194917640604" lon="9.087180355446257"><ele>297.0</ele><time>2026-04-25T12:59:10.001Z</time></trkpt><trkpt lat="46.00719787168388" lon="9.087360295007214"><ele>301.75</ele><time>2026-04-25T12:59:11.001Z</time></trkpt><trkpt lat="46.00719615982173" lon="9.087549019597729"><ele>306.5</ele><time>2026-04-25T12:59:12.001Z</time></trkpt><trkpt lat="46.007198978993635" lon="9.08775497975945"><ele>311.25</ele><time>2026-04-25T12:59:13.001Z</time></trkpt><trkpt lat="46.00720961821609" lon="9.08796230564786"><ele>316.0</ele><time>2026-04-25T12:59:14.001Z</time></trkpt><trkpt lat="46.00721461697146" lon="9.088172679249361"><ele>319.75</ele><time>2026-04-25T12:59:15.001Z</time></trkpt><trkpt lat="46.0072168569992" lon="9.08837483320314"><ele>323.5</ele><time>2026-04-25T12:59:16.001Z</time></trkpt><trkpt lat="46.00723968629693" lon="9.088577829253643"><ele>327.25</ele><time>2026-04-25T12:59:17.001Z</time></trkpt><trkpt lat="46.00727864169081" lon="9.088776588638373"><ele>331.0</ele><time>2026-04-25T12:59:18.001Z</time></trkpt><trkpt lat="46.007324815426685" lon="9.088971094604544"><ele>332.75</ele><time>2026-04-25T12:59:19.001Z</time></trkpt><trkpt lat="46.00736184765746" lon="9.089168579871243"><ele>334.5</ele><time>2026-04-25T12:59:20.001Z</time></trkpt><trkpt lat="46.0073890910547" lon="9.089372119162785"><ele>336.25</ele><time>2026-04-25T12:59:21.001Z</time></trkpt><trkpt lat="46.0074027447867" lon="9.089577418541106"><ele>338.0</ele><time>2026-04-25T12:59:22.001Z</time></trkpt><trkpt lat="46.00740890341436" lon="9.089785398020464"><ele>340.0</ele><time>2026-04-25T12:59:23.001Z</time></trkpt><trkpt lat="46.00741423500844" lon="9.089979075093634"><ele>342.0</ele><time>2026-04-25T12:59:24.001Z</time></trkpt><trkpt lat="46.00742314837307" lon="9.090150766110915"><ele>344.0</ele><time>2026-04-25T12:59:25.001Z</time></trkpt><trkpt lat="46.007444571867346" lon="9.090322007591618"><ele>346.0</ele><time>2026-04-25T12:59:26.001Z</time></trkpt><trkpt lat="46.007476245614974" lon="9.09049447339332"><ele>346.0</ele><time>2026-04-25T12:59:27.001Z</time></trkpt><trkpt lat="46.0074907334839" lon="9.090646836657257"><ele>346.0</ele><time>2026-04-25T12:59:28.001Z</time></trkpt><trkpt lat="46.0074896772617" lon="9.09080341485282"><ele>346.0</ele><time>2026-04-25T12:59:29.001Z</time></trkpt><trkpt lat="46.007483715723694" lon="9.090979109648144"><ele>346.0</ele><time>2026-04-25T12:59:30.001Z</time></trkpt><trkpt lat="46.007454736902446" lon="9.091162093119564"><ele>347.75</ele><time>2026-04-25T12:59:31.001Z</time></trkpt><trkpt lat="46.007422000609914" lon="9.091362403071473"><ele>349.5</ele><time>2026-04-25T12:59:32.001Z</time></trkpt><trkpt lat="46.00738797602719" lon="9.091557683638925"><ele>351.25</ele><time>2026-04-25T12:59:33.001Z</time></trkpt><trkpt lat="46.007364187327674" lon="9.09174081995299"><ele>353.0</ele><time>2026-04-25T12:59:34.001Z</time></trkpt><trkpt lat="46.00733339275543" lon="9.091907147579407"><ele>353.0</ele><time>2026-04-25T12:59:35.001Z</time></trkpt><trkpt lat="46.007313303940116" lon="9.092065753268585"><ele>353.0</ele><time>2026-04-25T12:59:36.001Z</time></trkpt><trkpt lat="46.007309217743696" lon="9.09222531099339"><ele>353.0</ele><time>2026-04-25T12:59:37.002Z</time></trkpt><trkpt lat="46.00732262821197" lon="9.092388714348527"><ele>353.0</ele><time>2026-04-25T12:59:38.002Z</time></trkpt><trkpt lat="46.00735481824035" lon="9.092557693401776"><ele>354.75</ele><time>2026-04-25T12:59:39.002Z</time></trkpt><trkpt lat="46.007418550668916" lon="9.092728913695659"><ele>356.5</ele><time>2026-04-25T12:59:40.002Z</time></trkpt><trkpt lat="46.00747790925928" lon="9.092907113861912"><ele>358.25</ele><time>2026-04-25T12:59:41.002Z</time></trkpt><trkpt lat="46.00753889912128" lon="9.093086537415788"><ele>360.0</ele><time>2026-04-25T12:59:42.002Z</time></trkpt><trkpt lat="46.00759740207852" lon="9.093271406326535"><ele>349.5</ele><time>2026-04-25T12:59:43.002Z</time></trkpt><trkpt lat="46.00769117764562" lon="9.093433566566762"><ele>339.0</ele><time>2026-04-25T12:59:44.002Z</time></trkpt><trkpt lat="46.007790189432946" lon="9.09357052767286"><ele>328.5</ele><time>2026-04-25T12:59:45.002Z</time></trkpt><trkpt lat="46.007867892386486" lon="9.093732637750787"><ele>318.0</ele><time>2026-04-25T12:59:46.002Z</time></trkpt><trkpt lat="46.007915367881075" lon="9.093907626631683"><ele>318.0</ele><time>2026-04-25T12:59:47.002Z</time></trkpt><trkpt lat="46.00798687271081" lon="9.094058806668288"><ele>318.0</ele><time>2026-04-25T12:59:48.002Z</time></trkpt><trkpt lat="46.00808866920834" lon="9.094190820544227"><ele>318.0</ele><time>2026-04-25T12:59:49.002Z</time></trkpt><trkpt lat="46.00818052861061" lon="9.09433529137341"><ele>318.0</ele><time>2026-04-25T12:59:50.002Z</time></trkpt><trkpt lat="46.008262482357125" lon="9.094483700786338"><ele>315.0</ele><time>2026-04-25T12:59:51.002Z</time></trkpt><trkpt lat="46.00834569688286" lon="9.09466126499513"><ele>312.0</ele><time>2026-04-25T12:59:52.002Z</time></trkpt><trkpt lat="46.0084237826483" lon="9.094846410444234"><ele>309.0</ele><time>2026-04-25T12:59:53.002Z</time></trkpt><trkpt lat="46.00851118200582" lon="9.095037624113138"><ele>309.0</ele><time>2026-04-25T12:59:54.002Z</time></trkpt><trkpt lat="46.00859308706151" lon="9.09523243870292"><ele>309.0</ele><time>2026-04-25T12:59:55.002Z</time></trkpt><trkpt lat="46.008672361637714" lon="9.095432909091464"><ele>309.0</ele><time>2026-04-25T12:59:56.002Z</time></trkpt><trkpt lat="46.00875496751432" lon="9.095623899496491"><ele>318.0</ele><time>2026-04-25T12:59:57.002Z</time></trkpt><trkpt lat="46.008834891226435" lon="9.09581070848885"><ele>327.0</ele><time>2026-04-25T12:59:58.002Z</time></trkpt><trkpt lat="46.00889967710116" lon="9.096000958731878"><ele>336.0</ele><time>2026-04-25T12:59:59.002Z</time></trkpt><trkpt lat="46.008965295126806" lon="9.096184673917708"><ele>345.0</ele><time>2026-04-25T13:00:00.002Z</time></trkpt><trkpt lat="46.009037861197704" lon="9.09634257460304"><ele>345.0</ele><time>2026-04-25T13:00:01.002Z</time></trkpt><trkpt lat="46.009126233414676" lon="9.096496830882838"><ele>345.0</ele><time>2026-04-25T13:00:02.002Z</time></trkpt><trkpt lat="46.00920440593912" lon="9.096640692387458"><ele>345.0</ele><time>2026-04-25T13:00:03.002Z</time></trkpt><trkpt lat="46.00926651750614" lon="9.096787370398575"><ele>345.0</ele><time>2026-04-25T13:00:04.002Z</time></trkpt><trkpt lat="46.009318482219236" lon="9.096952093867941"><ele>340.5</ele><time>2026-04-25T13:00:05.002Z</time></trkpt><trkpt lat="46.00934605453954" lon="9.097118444022907"><ele>336.0</ele><time>2026-04-25T13:00:06.002Z</time></trkpt><trkpt lat="46.00937217741167" lon="9.097270624779057"><ele>331.5</ele><time>2026-04-25T13:00:07.002Z</time></trkpt><trkpt lat="46.00942588463994" lon="9.097416690455303"><ele>327.0</ele><time>2026-04-25T13:00:08.002Z</time></trkpt><trkpt lat="46.00951757792449" lon="9.09756464247324"><ele>327.0</ele><time>2026-04-25T13:00:09.002Z</time></trkpt><trkpt lat="46.00962051886151" lon="9.09773389642496"><ele>327.0</ele><time>2026-04-25T13:00:10.002Z</time></trkpt><trkpt lat="46.009712142507404" lon="9.09792582571758"><ele>327.0</ele><time>2026-04-25T13:00:11.003Z</time></trkpt><trkpt lat="46.009802048999525" lon="9.098112617498897"><ele>335.25</ele><time>2026-04-25T13:00:12.003Z</time></trkpt><trkpt lat="46.00989838884223" lon="9.098284394975703"><ele>343.5</ele><time>2026-04-25T13:00:13.003Z</time></trkpt><trkpt lat="46.00999767034739" lon="9.098436297170917"><ele>351.75</ele><time>2026-04-25T13:00:14.003Z</time></trkpt><trkpt lat="46.01009985726438" lon="9.098574000739173"><ele>360.0</ele><time>2026-04-25T13:00:15.003Z</time></trkpt><trkpt lat="46.01019919629544" lon="9.098708415287035"><ele>351.75</ele><time>2026-04-25T13:00:16.003Z</time></trkpt><trkpt lat="46.010287767736905" lon="9.098845932220271"><ele>343.5</ele><time>2026-04-25T13:00:17.003Z</time></trkpt><trkpt lat="46.01037352299062" lon="9.098995922690666"><ele>335.25</ele><time>2026-04-25T13:00:18.003Z</time></trkpt><trkpt lat="46.010452380343715" lon="9.09917099230482"><ele>327.0</ele><time>2026-04-25T13:00:19.003Z</time></trkpt><trkpt lat="46.01052640187054" lon="9.09935837689029"><ele>327.0</ele><time>2026-04-25T13:00:20.003Z</time></trkpt><trkpt lat="46.01058923374136" lon="9.099551941527732"><ele>327.0</ele><time>2026-04-25T13:00:21.003Z</time></trkpt><trkpt lat="46.010640383469074" lon="9.099732398242365"><ele>327.0</ele><time>2026-04-25T13:00:22.003Z</time></trkpt><trkpt lat="46.010706125758034" lon="9.099889301402449"><ele>327.0</ele><time>2026-04-25T13:00:23.003Z</time></trkpt><trkpt lat="46.0107936209594" lon="9.100032624997105"><ele>319.0</ele><time>2026-04-25T13:00:24.003Z</time></trkpt><trkpt lat="46.01089070121788" lon="9.100172099966676"><ele>311.0</ele><time>2026-04-25T13:00:25.003Z</time></trkpt><trkpt lat="46.01096905331149" lon="9.100334266791348"><ele>303.0</ele><time>2026-04-25T13:00:26.003Z</time></trkpt><trkpt lat="46.011033528573265" lon="9.100520438240759"><ele>295.0</ele><time>2026-04-25T13:00:27.003Z</time></trkpt><trkpt lat="46.01108592366929" lon="9.100712314560877"><ele>301.0</ele><time>2026-04-25T13:00:28.003Z</time></trkpt><trkpt lat="46.01114088408344" lon="9.100884775891917"><ele>307.0</ele><time>2026-04-25T13:00:29.003Z</time></trkpt><trkpt lat="46.011216270333165" lon="9.10105216922814"><ele>313.0</ele><time>2026-04-25T13:00:30.003Z</time></trkpt><trkpt lat="46.011314385263525" lon="9.10122389456527"><ele>319.0</ele><time>2026-04-25T13:00:31.003Z</time></trkpt><trkpt lat="46.01141839225392" lon="9.101409308963623"><ele>327.0</ele><time>2026-04-25T13:00:32.003Z</time></trkpt><trkpt lat="46.011549010358024" lon="9.101582479296615"><ele>335.0</ele><time>2026-04-25T13:00:33.003Z</time></trkpt><trkpt lat="46.011690497951435" lon="9.101750344562344"><ele>343.0</ele><time>2026-04-25T13:00:34.003Z</time></trkpt><trkpt lat="46.01180969149053" lon="9.101960604038208"><ele>333.3333333333333</ele><time>2026-04-25T13:00:35.003Z</time></trkpt><trkpt lat="46.01190748896199" lon="9.102195368047676"><ele>323.6666666666667</ele><time>2026-04-25T13:00:36.003Z</time></trkpt><trkpt lat="46.012033816350716" lon="9.10239878309422"><ele>314.0</ele><time>2026-04-25T13:00:36.999Z</time></trkpt><trkpt lat="46.01215793246217" lon="9.102609498760497"><ele>314.0</ele><time>2026-04-25T13:00:37.999Z</time></trkpt><trkpt lat="46.01227103158463" lon="9.102829077743003"><ele>314.0</ele><time>2026-04-25T13:00:38.999Z</time></trkpt><trkpt lat="46.01237283902782" lon="9.103059297541105"><ele>314.0</ele><time>2026-04-25T13:00:39.999Z</time></trkpt><trkpt lat="46.01246799891645" lon="9.1032893814351"><ele>305.6666666666667</ele><time>2026-04-25T13:00:40.999Z</time></trkpt><trkpt lat="46.012560778531345" lon="9.103510259820235"><ele>297.3333333333333</ele><time>2026-04-25T13:00:41.999Z</time></trkpt><trkpt lat="46.01263796080494" lon="9.103728412668373"><ele>289.0</ele><time>2026-04-25T13:00:42.999Z</time></trkpt><trkpt lat="46.01275213705318" lon="9.103900126604143"><ele>295.0</ele><time>2026-04-25T13:00:43.999Z</time></trkpt><trkpt lat="46.01285317369549" lon="9.104080210780209"><ele>301.0</ele><time>2026-04-25T13:00:44.999Z</time></trkpt><trkpt lat="46.01294542675627" lon="9.104262234062517"><ele>307.0</ele><time>2026-04-25T13:00:45.999Z</time></trkpt><trkpt lat="46.01302632385505" lon="9.104458805523876"><ele>307.0</ele><time>2026-04-25T13:00:46.999Z</time></trkpt><trkpt lat="46.01315670657903" lon="9.104623902664654"><ele>307.0</ele><time>2026-04-25T13:00:47.999Z</time></trkpt><trkpt lat="46.01327330241718" lon="9.104791023008"><ele>307.0</ele><time>2026-04-25T13:00:48.999Z</time></trkpt><trkpt lat="46.0133804243798" lon="9.104939503494005"><ele>303.5</ele><time>2026-04-25T13:00:49.999Z</time></trkpt><trkpt lat="46.01348226512824" lon="9.105072183717352"><ele>300.0</ele><time>2026-04-25T13:00:50.999Z</time></trkpt><trkpt lat="46.01357695087744" lon="9.105194937444885"><ele>296.5</ele><time>2026-04-25T13:00:52Z</time></trkpt><trkpt lat="46.013674054010124" lon="9.105313646114256"><ele>293.0</ele><time>2026-04-25T13:00:53Z</time></trkpt><trkpt lat="46.0137698384774" lon="9.105434318086049"><ele>293.0</ele><time>2026-04-25T13:00:54Z</time></trkpt><trkpt lat="46.013860718527525" lon="9.10555714130064"><ele>293.0</ele><time>2026-04-25T13:00:55Z</time></trkpt><trkpt lat="46.01394069975331" lon="9.10568381886674"><ele>293.0</ele><time>2026-04-25T13:00:56Z</time></trkpt><trkpt lat="46.01401970607601" lon="9.105796337476763"><ele>293.0</ele><time>2026-04-25T13:00:57Z</time></trkpt><trkpt lat="46.01409526775177" lon="9.105906066664913"><ele>290.25</ele><time>2026-04-25T13:00:58Z</time></trkpt><trkpt lat="46.014166431296374" lon="9.106025728651085"><ele>287.5</ele><time>2026-04-25T13:00:59Z</time></trkpt><trkpt lat="46.01423850056768" lon="9.106163628849295"><ele>284.75</ele><time>2026-04-25T13:01:00Z</time></trkpt><trkpt lat="46.01430664534719" lon="9.106304869443866"><ele>282.0</ele><time>2026-04-25T13:01:01Z</time></trkpt><trkpt lat="46.014380642987824" lon="9.106445282564565"><ele>284.0</ele><time>2026-04-25T13:01:02Z</time></trkpt><trkpt lat="46.01444480175871" lon="9.106589410693767"><ele>286.0</ele><time>2026-04-25T13:01:03Z</time></trkpt><trkpt lat="46.01451640123376" lon="9.106722621433047"><ele>288.0</ele><time>2026-04-25T13:01:04Z</time></trkpt><trkpt lat="46.01461279459839" lon="9.106843747907929"><ele>290.0</ele><time>2026-04-25T13:01:05Z</time></trkpt><trkpt lat="46.01473372187236" lon="9.106955631145782"><ele>290.0</ele><time>2026-04-25T13:01:06Z</time></trkpt><trkpt lat="46.0148414987915" lon="9.107047883498103"><ele>290.0</ele><time>2026-04-25T13:01:07Z</time></trkpt><trkpt lat="46.01492675691937" lon="9.107168670284704"><ele>290.0</ele><time>2026-04-25T13:01:08Z</time></trkpt><trkpt lat="46.01502553854001" lon="9.107264288322927"><ele>290.0</ele><time>2026-04-25T13:01:09Z</time></trkpt><trkpt lat="46.015119532180634" lon="9.10740934919995"><ele>290.33333333333337</ele><time>2026-04-25T13:01:10Z</time></trkpt><trkpt lat="46.01520172291997" lon="9.107582056692674"><ele>290.6666666666667</ele><time>2026-04-25T13:01:11Z</time></trkpt><trkpt lat="46.015271008129425" lon="9.107780139003735"><ele>291.0</ele><time>2026-04-25T13:01:12Z</time></trkpt><trkpt lat="46.015368706261604" lon="9.107958089639284"><ele>291.0</ele><time>2026-04-25T13:01:13Z</time></trkpt><trkpt lat="46.01549046184728" lon="9.108128304570718"><ele>291.0</ele><time>2026-04-25T13:01:14Z</time></trkpt><trkpt lat="46.01561841129385" lon="9.10828500436766"><ele>291.0</ele><time>2026-04-25T13:01:15.001Z</time></trkpt><trkpt lat="46.01574051824274" lon="9.108435784958855"><ele>288.75</ele><time>2026-04-25T13:01:16.001Z</time></trkpt><trkpt lat="46.01586550127613" lon="9.10856762870038"><ele>286.5</ele><time>2026-04-25T13:01:17.001Z</time></trkpt><trkpt lat="46.015971470321425" lon="9.108692629146722"><ele>284.25</ele><time>2026-04-25T13:01:18.001Z</time></trkpt><trkpt lat="46.01609328140921" lon="9.108803264851538"><ele>282.0</ele><time>2026-04-25T13:01:19.001Z</time></trkpt><trkpt lat="46.016212247006635" lon="9.108900544702673"><ele>282.0</ele><time>2026-04-25T13:01:20.001Z</time></trkpt><trkpt lat="46.01631625397888" lon="9.109027402482809"><ele>282.0</ele><time>2026-04-25T13:01:21.001Z</time></trkpt><trkpt lat="46.01641731329441" lon="9.10918116174741"><ele>282.0</ele><time>2026-04-25T13:01:22.001Z</time></trkpt><trkpt lat="46.01652119969895" lon="9.109348009720817"><ele>282.0</ele><time>2026-04-25T13:01:23.001Z</time></trkpt><trkpt lat="46.01663237376642" lon="9.109518155079101"><ele>281.0</ele><time>2026-04-25T13:01:24.001Z</time></trkpt><trkpt lat="46.016749423061064" lon="9.1096811035614"><ele>280.0</ele><time>2026-04-25T13:01:25.001Z</time></trkpt><trkpt lat="46.01686270539544" lon="9.109829918489387"><ele>279.0</ele><time>2026-04-25T13:01:26.001Z</time></trkpt><trkpt lat="46.01698470322514" lon="9.109958397020689"><ele>285.6666666666667</ele><time>2026-04-25T13:01:27.001Z</time></trkpt><trkpt lat="46.01711831641932" lon="9.11008481645944"><ele>292.33333333333337</ele><time>2026-04-25T13:01:28.001Z</time></trkpt><trkpt lat="46.01724847702803" lon="9.110207710014475"><ele>299.0</ele><time>2026-04-25T13:01:29.001Z</time></trkpt><trkpt lat="46.01737035269418" lon="9.11034121962617"><ele>299.0</ele><time>2026-04-25T13:01:30.001Z</time></trkpt><trkpt lat="46.017480151221335" lon="9.110470989318761"><ele>299.0</ele><time>2026-04-25T13:01:31.001Z</time></trkpt><trkpt lat="46.017582322681335" lon="9.110627319182418"><ele>299.0</ele><time>2026-04-25T13:01:32.001Z</time></trkpt><trkpt lat="46.01766644230158" lon="9.110799315681845"><ele>299.0</ele><time>2026-04-25T13:01:33.001Z</time></trkpt><trkpt lat="46.01773791007287" lon="9.110943307719042"><ele>298.0</ele><time>2026-04-25T13:01:34.001Z</time></trkpt><trkpt lat="46.01782521163501" lon="9.111079847137356"><ele>297.0</ele><time>2026-04-25T13:01:35.001Z</time></trkpt><trkpt lat="46.01791304439405" lon="9.11118980929273"><ele>296.0</ele><time>2026-04-25T13:01:36.001Z</time></trkpt><trkpt lat="46.01800346438599" lon="9.111280586038006"><ele>295.0</ele><time>2026-04-25T13:01:37.001Z</time></trkpt><trkpt lat="46.01807132298853" lon="9.111387676477744"><ele>295.0</ele><time>2026-04-25T13:01:38.001Z</time></trkpt><trkpt lat="46.018145145442155" lon="9.111480264969826"><ele>295.0</ele><time>2026-04-25T13:01:39.001Z</time></trkpt><trkpt lat="46.01821385123719" lon="9.111585545231282"><ele>295.0</ele><time>2026-04-25T13:01:40.001Z</time></trkpt><trkpt lat="46.018263340566506" lon="9.111754934740251"><ele>295.0</ele><time>2026-04-25T13:01:41.001Z</time></trkpt><trkpt lat="46.0183121510085" lon="9.111944096758219"><ele>293.75</ele><time>2026-04-25T13:01:42.001Z</time></trkpt><trkpt lat="46.018365363736386" lon="9.112130097852274"><ele>292.5</ele><time>2026-04-25T13:01:43.001Z</time></trkpt><trkpt lat="46.01841631028775" lon="9.112305896410016"><ele>291.25</ele><time>2026-04-25T13:01:44.001Z</time></trkpt><trkpt lat="46.018474687499655" lon="9.112476762352035"><ele>290.0</ele><time>2026-04-25T13:01:45.002Z</time></trkpt><trkpt lat="46.01852466189758" lon="9.112665422404893"><ele>297.6666666666667</ele><time>2026-04-25T13:01:46.002Z</time></trkpt><trkpt lat="46.01854159632516" lon="9.11288520765314"><ele>305.3333333333333</ele><time>2026-04-25T13:01:47.002Z</time></trkpt><trkpt lat="46.01856989048962" lon="9.113121348336206"><ele>313.0</ele><time>2026-04-25T13:01:48.002Z</time></trkpt><trkpt lat="46.018598830446045" lon="9.113361453513972"><ele>318.66666666666663</ele><time>2026-04-25T13:01:49.002Z</time></trkpt><trkpt lat="46.01862827354194" lon="9.11360129468428"><ele>324.3333333333333</ele><time>2026-04-25T13:01:50.002Z</time></trkpt><trkpt lat="46.01865821453726" lon="9.113829856701233"><ele>330.0</ele><time>2026-04-25T13:01:51.002Z</time></trkpt><trkpt lat="46.01868923863821" lon="9.114043231099911"><ele>336.0</ele><time>2026-04-25T13:01:52.002Z</time></trkpt><trkpt lat="46.018730158235954" lon="9.114231003607749"><ele>342.0</ele><time>2026-04-25T13:01:53.002Z</time></trkpt><trkpt lat="46.01879835657693" lon="9.114402886116716"><ele>348.0</ele><time>2026-04-25T13:01:54.002Z</time></trkpt><trkpt lat="46.018900166991465" lon="9.114528772016113"><ele>354.0</ele><time>2026-04-25T13:01:55.002Z</time></trkpt><trkpt lat="46.01899659362696" lon="9.114674243677609"><ele>354.0</ele><time>2026-04-25T13:01:56.002Z</time></trkpt><trkpt lat="46.01910321755732" lon="9.114796159148282"><ele>354.0</ele><time>2026-04-25T13:01:57.002Z</time></trkpt><trkpt lat="46.0192030801259" lon="9.114910295584107"><ele>354.0</ele><time>2026-04-25T13:01:58.002Z</time></trkpt><trkpt lat="46.01928886142131" lon="9.115018470075052"><ele>354.0</ele><time>2026-04-25T13:01:59.002Z</time></trkpt><trkpt lat="46.019361282976234" lon="9.115165277277919"><ele>355.75</ele><time>2026-04-25T13:02:00.002Z</time></trkpt><trkpt lat="46.01942979829569" lon="9.11533001199404"><ele>357.5</ele><time>2026-04-25T13:02:01.002Z</time></trkpt><trkpt lat="46.019497808970634" lon="9.115494187409334"><ele>359.25</ele><time>2026-04-25T13:02:02.002Z</time></trkpt><trkpt lat="46.01956113991703" lon="9.115635880057075"><ele>361.0</ele><time>2026-04-25T13:02:03.002Z</time></trkpt><trkpt lat="46.01963173747803" lon="9.115759938358691"><ele>361.0</ele><time>2026-04-25T13:02:04.002Z</time></trkpt><trkpt lat="46.01973009267194" lon="9.115865701350605"><ele>361.0</ele><time>2026-04-25T13:02:05.002Z</time></trkpt><trkpt lat="46.01985390646966" lon="9.115939913250315"><ele>361.0</ele><time>2026-04-25T13:02:06.002Z</time></trkpt><trkpt lat="46.01996716099973" lon="9.11602684475632"><ele>361.0</ele><time>2026-04-25T13:02:07.002Z</time></trkpt><trkpt lat="46.02008792136127" lon="9.11615741816635"><ele>350.0</ele><time>2026-04-25T13:02:08.002Z</time></trkpt><trkpt lat="46.020213857869514" lon="9.11630125338899"><ele>339.0</ele><time>2026-04-25T13:02:09.002Z</time></trkpt><trkpt lat="46.02033306447654" lon="9.11644233673471"><ele>328.0</ele><time>2026-04-25T13:02:10.002Z</time></trkpt><trkpt lat="46.020455448252434" lon="9.11658696278523"><ele>328.0</ele><time>2026-04-25T13:02:11.002Z</time></trkpt><trkpt lat="46.02058202542011" lon="9.116720401635712"><ele>328.0</ele><time>2026-04-25T13:02:12.002Z</time></trkpt><trkpt lat="46.020709016338344" lon="9.116821358890835"><ele>328.0</ele><time>2026-04-25T13:02:13.002Z</time></trkpt><trkpt lat="46.020827537465664" lon="9.11691380746124"><ele>328.0</ele><time>2026-04-25T13:02:14.002Z</time></trkpt><trkpt lat="46.02094570411476" lon="9.116988240138205"><ele>321.0</ele><time>2026-04-25T13:02:15.002Z</time></trkpt><trkpt lat="46.02104376307654" lon="9.117132536397465"><ele>314.0</ele><time>2026-04-25T13:02:16.002Z</time></trkpt><trkpt lat="46.02115617773768" lon="9.11731792248475"><ele>307.0</ele><time>2026-04-25T13:02:17.002Z</time></trkpt><trkpt lat="46.02126628688743" lon="9.117492072908174"><ele>307.0</ele><time>2026-04-25T13:02:18.003Z</time></trkpt><trkpt lat="46.02138093749281" lon="9.117670057868999"><ele>307.0</ele><time>2026-04-25T13:02:19.003Z</time></trkpt><trkpt lat="46.021500538539144" lon="9.117843946389069"><ele>307.0</ele><time>2026-04-25T13:02:20.003Z</time></trkpt><trkpt lat="46.02163470994643" lon="9.118012718221333"><ele>303.0</ele><time>2026-04-25T13:02:21.003Z</time></trkpt><trkpt lat="46.02175682281233" lon="9.11816100155629"><ele>299.0</ele><time>2026-04-25T13:02:22.003Z</time></trkpt><trkpt lat="46.021881664167765" lon="9.118304243067017"><ele>295.0</ele><time>2026-04-25T13:02:23.003Z</time></trkpt><trkpt lat="46.02198175151465" lon="9.118431480123643"><ele>295.0</ele><time>2026-04-25T13:02:24.003Z</time></trkpt><trkpt lat="46.02208813645399" lon="9.118560989951956"><ele>295.0</ele><time>2026-04-25T13:02:25.003Z</time></trkpt><trkpt lat="46.02219143096906" lon="9.11869184096154"><ele>295.0</ele><time>2026-04-25T13:02:26.003Z</time></trkpt><trkpt lat="46.0223005235018" lon="9.118825552099455"><ele>295.0</ele><time>2026-04-25T13:02:27.003Z</time></trkpt><trkpt lat="46.02240709774961" lon="9.118970604572139"><ele>293.25</ele><time>2026-04-25T13:02:28.003Z</time></trkpt><trkpt lat="46.022504861287146" lon="9.11911539158496"><ele>291.5</ele><time>2026-04-25T13:02:29.003Z</time></trkpt><trkpt lat="46.02259835068567" lon="9.119271327366235"><ele>289.75</ele><time>2026-04-25T13:02:30.003Z</time></trkpt><trkpt lat="46.02268161746243" lon="9.119438114823131"><ele>288.0</ele><time>2026-04-25T13:02:31.003Z</time></trkpt><trkpt lat="46.0227463131425" lon="9.11960027493547"><ele>288.0</ele><time>2026-04-25T13:02:32.003Z</time></trkpt><trkpt lat="46.02280301771866" lon="9.11976370234247"><ele>288.0</ele><time>2026-04-25T13:02:33.003Z</time></trkpt><trkpt lat="46.02285378100437" lon="9.119928539090663"><ele>288.0</ele><time>2026-04-25T13:02:34.003Z</time></trkpt><trkpt lat="46.02290233417126" lon="9.120097580626414"><ele>288.0</ele><time>2026-04-25T13:02:35.003Z</time></trkpt><trkpt lat="46.02294528033693" lon="9.120283248839478"><ele>292.5</ele><time>2026-04-25T13:02:36.003Z</time></trkpt><trkpt lat="46.02299356639495" lon="9.120472324855056"><ele>297.0</ele><time>2026-04-25T13:02:37.003Z</time></trkpt><trkpt lat="46.02304516343178" lon="9.120666603877927"><ele>301.5</ele><time>2026-04-25T13:02:38.003Z</time></trkpt><trkpt lat="46.02309698984476" lon="9.120863118042724"><ele>306.0</ele><time>2026-04-25T13:02:39.003Z</time></trkpt><trkpt lat="46.023151433255954" lon="9.121054550095629"><ele>310.75</ele><time>2026-04-25T13:02:40.003Z</time></trkpt><trkpt lat="46.02321319986668" lon="9.121248095179277"><ele>315.5</ele><time>2026-04-25T13:02:41.003Z</time></trkpt><trkpt lat="46.02331911058186" lon="9.121393148519045"><ele>320.25</ele><time>2026-04-25T13:02:42.003Z</time></trkpt><trkpt lat="46.023413506867655" lon="9.121541917845814"><ele>325.0</ele><time>2026-04-25T13:02:43Z</time></trkpt><trkpt lat="46.02350508872093" lon="9.121687279092251"><ele>315.0</ele><time>2026-04-25T13:02:44Z</time></trkpt><trkpt lat="46.02358820646495" lon="9.121833931931604"><ele>305.0</ele><time>2026-04-25T13:02:45Z</time></trkpt><trkpt lat="46.02365827684194" lon="9.121972599018237"><ele>295.0</ele><time>2026-04-25T13:02:46Z</time></trkpt><trkpt lat="46.023723645621615" lon="9.122106036199533"><ele>285.0</ele><time>2026-04-25T13:02:47Z</time></trkpt><trkpt lat="46.023789165004096" lon="9.122251158124012"><ele>285.0</ele><time>2026-04-25T13:02:48Z</time></trkpt><trkpt lat="46.02385342034358" lon="9.122397206792376"><ele>285.0</ele><time>2026-04-25T13:02:49Z</time></trkpt><trkpt lat="46.02391565754293" lon="9.1225430242792"><ele>285.0</ele><time>2026-04-25T13:02:50Z</time></trkpt><trkpt lat="46.02397324105377" lon="9.122679714415295"><ele>285.0</ele><time>2026-04-25T13:02:51Z</time></trkpt><trkpt lat="46.02403349217733" lon="9.12281644593597"><ele>284.75</ele><time>2026-04-25T13:02:52Z</time></trkpt><trkpt lat="46.024093918412596" lon="9.122957699052556"><ele>284.5</ele><time>2026-04-25T13:02:53Z</time></trkpt><trkpt lat="46.024157846621904" lon="9.123095364134294"><ele>284.25</ele><time>2026-04-25T13:02:54Z</time></trkpt><trkpt lat="46.02421962294296" lon="9.123229154484337"><ele>284.0</ele><time>2026-04-25T13:02:55Z</time></trkpt><trkpt lat="46.02428080460535" lon="9.123363580339639"><ele>284.0</ele><time>2026-04-25T13:02:56Z</time></trkpt><trkpt lat="46.02434845768301" lon="9.123486434418274"><ele>284.0</ele><time>2026-04-25T13:02:57Z</time></trkpt><trkpt lat="46.02441882577173" lon="9.123596590757066"><ele>284.0</ele><time>2026-04-25T13:02:58Z</time></trkpt><trkpt lat="46.024504346355805" lon="9.123704366622741"><ele>284.0</ele><time>2026-04-25T13:02:59Z</time></trkpt><trkpt lat="46.024592137589494" lon="9.123811474503661"><ele>284.0</ele><time>2026-04-25T13:03:00Z</time></trkpt><trkpt lat="46.02467243053856" lon="9.123919228687827"><ele>284.0</ele><time>2026-04-25T13:03:01Z</time></trkpt><trkpt lat="46.02474322399069" lon="9.124042541061565"><ele>284.0</ele><time>2026-04-25T13:03:02Z</time></trkpt><trkpt lat="46.02480395158767" lon="9.12418258422321"><ele>284.0</ele><time>2026-04-25T13:03:03Z</time></trkpt><trkpt lat="46.024841880904965" lon="9.12436432110035"><ele>284.0</ele><time>2026-04-25T13:03:04Z</time></trkpt><trkpt lat="46.024869809068846" lon="9.1245557329781"><ele>285.75</ele><time>2026-04-25T13:03:05Z</time></trkpt><trkpt lat="46.02489502020853" lon="9.124759942192401"><ele>287.5</ele><time>2026-04-25T13:03:06Z</time></trkpt><trkpt lat="46.0249181415039" lon="9.124964596940378"><ele>289.25</ele><time>2026-04-25T13:03:07Z</time></trkpt><trkpt lat="46.0249428929035" lon="9.12516989201729"><ele>291.0</ele><time>2026-04-25T13:03:08Z</time></trkpt><trkpt lat="46.02496795508987" lon="9.125375200605465"><ele>287.75</ele><time>2026-04-25T13:03:09Z</time></trkpt><trkpt lat="46.024990740924466" lon="9.125579961229466"><ele>284.5</ele><time>2026-04-25T13:03:10Z</time></trkpt><trkpt lat="46.025010355660555" lon="9.125779499961093"><ele>281.25</ele><time>2026-04-25T13:03:11Z</time></trkpt><trkpt lat="46.02503519666207" lon="9.125982278371245"><ele>278.0</ele><time>2026-04-25T13:03:12Z</time></trkpt><trkpt lat="46.02506799516854" lon="9.126186476189385"><ele>278.0</ele><time>2026-04-25T13:03:13Z</time></trkpt><trkpt lat="46.02510864345261" lon="9.12638874783553"><ele>278.0</ele><time>2026-04-25T13:03:14Z</time></trkpt><trkpt lat="46.025159989238254" lon="9.126587971389354"><ele>278.0</ele><time>2026-04-25T13:03:15Z</time></trkpt><trkpt lat="46.02521020540883" lon="9.126785656510362"><ele>278.0</ele><time>2026-04-25T13:03:16Z</time></trkpt><trkpt lat="46.02525529880232" lon="9.126982375253482"><ele>278.75</ele><time>2026-04-25T13:03:17.001Z</time></trkpt><trkpt lat="46.02530363100579" lon="9.127174243900258"><ele>279.5</ele><time>2026-04-25T13:03:18.001Z</time></trkpt><trkpt lat="46.02535184841502" lon="9.127359977628831"><ele>280.25</ele><time>2026-04-25T13:03:19.001Z</time></trkpt><trkpt lat="46.0253986634319" lon="9.1275425824403"><ele>281.0</ele><time>2026-04-25T13:03:20.001Z</time></trkpt><trkpt lat="46.02544564639535" lon="9.127729468952811"><ele>282.75</ele><time>2026-04-25T13:03:21.001Z</time></trkpt><trkpt lat="46.02549433030088" lon="9.1279200336176"><ele>284.5</ele><time>2026-04-25T13:03:22.001Z</time></trkpt><trkpt lat="46.025543710773995" lon="9.128109467968956"><ele>286.25</ele><time>2026-04-25T13:03:23.001Z</time></trkpt><trkpt lat="46.02559327656296" lon="9.128299004092476"><ele>288.0</ele><time>2026-04-25T13:03:24.001Z</time></trkpt><trkpt lat="46.025643376567665" lon="9.12849091666088"><ele>290.75</ele><time>2026-04-25T13:03:25.001Z</time></trkpt><trkpt lat="46.0256950559264" lon="9.12868450521819"><ele>293.5</ele><time>2026-04-25T13:03:26.001Z</time></trkpt><trkpt lat="46.02574942623808" lon="9.128881533720119"><ele>296.25</ele><time>2026-04-25T13:03:27.001Z</time></trkpt><trkpt lat="46.02580657738556" lon="9.129076021873736"><ele>299.0</ele><time>2026-04-25T13:03:28.001Z</time></trkpt><trkpt lat="46.02586528483561" lon="9.129270534139"><ele>296.0</ele><time>2026-04-25T13:03:29.001Z</time></trkpt><trkpt lat="46.0259246362074" lon="9.12946065370067"><ele>293.0</ele><time>2026-04-25T13:03:30.001Z</time></trkpt><trkpt lat="46.0259818005464" lon="9.129645156810668"><ele>290.0</ele><time>2026-04-25T13:03:31.001Z</time></trkpt><trkpt lat="46.02603624974556" lon="9.129820599206262"><ele>287.0</ele><time>2026-04-25T13:03:32.001Z</time></trkpt><trkpt lat="46.02608983493715" lon="9.129985780929147"><ele>287.0</ele><time>2026-04-25T13:03:33.001Z</time></trkpt><trkpt lat="46.02614277838179" lon="9.130149912422375"><ele>287.0</ele><time>2026-04-25T13:03:34.001Z</time></trkpt><trkpt lat="46.02619191477475" lon="9.130312691924853"><ele>287.0</ele><time>2026-04-25T13:03:35.001Z</time></trkpt><trkpt lat="46.02624913352946" lon="9.13046549597725"><ele>287.0</ele><time>2026-04-25T13:03:36.001Z</time></trkpt><trkpt lat="46.02630617418832" lon="9.130620653520564"><ele>285.0</ele><time>2026-04-25T13:03:37.001Z</time></trkpt><trkpt lat="46.02637506603538" lon="9.13076999271324"><ele>283.0</ele><time>2026-04-25T13:03:38.001Z</time></trkpt><trkpt lat="46.026448262199864" lon="9.130898006167918"><ele>281.0</ele><time>2026-04-25T13:03:39.001Z</time></trkpt><trkpt lat="46.026525478449216" lon="9.130997629661156"><ele>279.0</ele><time>2026-04-25T13:03:40.001Z</time></trkpt><trkpt lat="46.02660810566241" lon="9.131081679334658"><ele>277.0</ele><time>2026-04-25T13:03:41.001Z</time></trkpt><trkpt lat="46.026689000672484" lon="9.131183085384114"><ele>277.0</ele><time>2026-04-25T13:03:42.001Z</time></trkpt><trkpt lat="46.02680826744792" lon="9.131271224118308"><ele>277.0</ele><time>2026-04-25T13:03:43.001Z</time></trkpt><trkpt lat="46.02694293051617" lon="9.131356761769226"><ele>277.0</ele><time>2026-04-25T13:03:44.001Z</time></trkpt><trkpt lat="46.02709210219625" lon="9.131453787121886"><ele>277.0</ele><time>2026-04-25T13:03:45.001Z</time></trkpt><trkpt lat="46.027250026180724" lon="9.131560518250783"><ele>276.66666666666663</ele><time>2026-04-25T13:03:46.001Z</time></trkpt><trkpt lat="46.02740548304491" lon="9.131664640200412"><ele>276.3333333333333</ele><time>2026-04-25T13:03:47.001Z</time></trkpt><trkpt lat="46.027547002418096" lon="9.131754388793029"><ele>276.0</ele><time>2026-04-25T13:03:48.002Z</time></trkpt><trkpt lat="46.027680774588305" lon="9.131831654110156"><ele>276.0</ele><time>2026-04-25T13:03:49.002Z</time></trkpt><trkpt lat="46.027823176114595" lon="9.131886238649564"><ele>276.0</ele><time>2026-04-25T13:03:50.002Z</time></trkpt><trkpt lat="46.02797684048732" lon="9.131913549528573"><ele>276.0</ele><time>2026-04-25T13:03:51.002Z</time></trkpt><trkpt lat="46.028125959300155" lon="9.13192398970612"><ele>276.0</ele><time>2026-04-25T13:03:52.002Z</time></trkpt><trkpt lat="46.028285581471295" lon="9.131857651756226"><ele>276.0</ele><time>2026-04-25T13:03:53.002Z</time></trkpt><trkpt lat="46.02844442289867" lon="9.131780881985273"><ele>276.0</ele><time>2026-04-25T13:03:54.002Z</time></trkpt><trkpt lat="46.02859506515575" lon="9.131678584851842"><ele>276.0</ele><time>2026-04-25T13:03:55.002Z</time></trkpt><trkpt lat="46.02875370890057" lon="9.131582697230005"><ele>276.0</ele><time>2026-04-25T13:03:56.002Z</time></trkpt><trkpt lat="46.02891343423676" lon="9.131468575260342"><ele>276.0</ele><time>2026-04-25T13:03:57.002Z</time></trkpt><trkpt lat="46.02906569515682" lon="9.13132877931688"><ele>276.6666666666667</ele><time>2026-04-25T13:03:58.002Z</time></trkpt><trkpt lat="46.029220177633285" lon="9.131224798254827"><ele>277.33333333333337</ele><time>2026-04-25T13:03:59.002Z</time></trkpt><trkpt lat="46.029378237364924" lon="9.13111815682917"><ele>278.0</ele><time>2026-04-25T13:04:00.002Z</time></trkpt><trkpt lat="46.02952709551764" lon="9.131018224253843"><ele>278.0</ele><time>2026-04-25T13:04:01.002Z</time></trkpt><trkpt lat="46.02967113558424" lon="9.130914825635712"><ele>278.0</ele><time>2026-04-25T13:04:02.002Z</time></trkpt><trkpt lat="46.029807194201375" lon="9.130805101578018"><ele>278.0</ele><time>2026-04-25T13:04:03.002Z</time></trkpt><trkpt lat="46.02993902861516" lon="9.130736969590087"><ele>278.2</ele><time>2026-04-25T13:04:04.002Z</time></trkpt><trkpt lat="46.03004460087526" lon="9.130661689617186"><ele>278.4</ele><time>2026-04-25T13:04:05.002Z</time></trkpt><trkpt lat="46.03014039124505" lon="9.130593384952379"><ele>278.59999999999997</ele><time>2026-04-25T13:04:06.002Z</time></trkpt><trkpt lat="46.030236741003115" lon="9.130524681253382"><ele>278.8</ele><time>2026-04-25T13:04:07.002Z</time></trkpt><trkpt lat="46.03033612549473" lon="9.130453813703692"><ele>279.0</ele><time>2026-04-25T13:04:08.002Z</time></trkpt><trkpt lat="46.030448848287335" lon="9.130373435001593"><ele>279.0</ele><time>2026-04-25T13:04:09.002Z</time></trkpt><trkpt lat="46.0305667403418" lon="9.130289815034024"><ele>279.0</ele><time>2026-04-25T13:04:10.002Z</time></trkpt><trkpt lat="46.03068199643778" lon="9.130206945546805"><ele>279.0</ele><time>2026-04-25T13:04:11.002Z</time></trkpt><trkpt lat="46.03078923303863" lon="9.130131513535778"><ele>279.0</ele><time>2026-04-25T13:04:12.002Z</time></trkpt><trkpt lat="46.03088368486446" lon="9.130063259849575"><ele>278.75</ele><time>2026-04-25T13:04:13.002Z</time></trkpt><trkpt lat="46.0309691650033" lon="9.130002949736866"><ele>278.5</ele><time>2026-04-25T13:04:14.002Z</time></trkpt><trkpt lat="46.031067910985065" lon="9.129932365150761"><ele>278.25</ele><time>2026-04-25T13:04:15.002Z</time></trkpt><trkpt lat="46.03119717578794" lon="9.129839965687605"><ele>278.0</ele><time>2026-04-25T13:04:16.002Z</time></trkpt><trkpt lat="46.03133554409816" lon="9.12974105858384"><ele>277.6666666666667</ele><time>2026-04-25T13:04:17.002Z</time></trkpt><trkpt lat="46.031486239867064" lon="9.129633509466727"><ele>277.3333333333333</ele><time>2026-04-25T13:04:18.002Z</time></trkpt><trkpt lat="46.0316461724028" lon="9.129519911930597"><ele>277.0</ele><time>2026-04-25T13:04:19.002Z</time></trkpt><trkpt lat="46.031798059824766" lon="9.12941202872829"><ele>276.66666666666663</ele><time>2026-04-25T13:04:20.002Z</time></trkpt><trkpt lat="46.031931319058764" lon="9.129291659685432"><ele>276.3333333333333</ele><time>2026-04-25T13:04:21.003Z</time></trkpt><trkpt lat="46.0320792696227" lon="9.129203846552691"><ele>276.0</ele><time>2026-04-25T13:04:22.003Z</time></trkpt><trkpt lat="46.03222310837317" lon="9.129107221320197"><ele>275.6666666666667</ele><time>2026-04-25T13:04:23.003Z</time></trkpt><trkpt lat="46.03236174519124" lon="9.129002791861371"><ele>275.33333333333337</ele><time>2026-04-25T13:04:24.003Z</time></trkpt><trkpt lat="46.03250155449337" lon="9.12890257801869"><ele>275.0</ele><time>2026-04-25T13:04:25.003Z</time></trkpt><trkpt lat="46.03264634911634" lon="9.128801905870658"><ele>275.5</ele><time>2026-04-25T13:04:26.003Z</time></trkpt><trkpt lat="46.032781648179515" lon="9.128709126630298"><ele>276.0</ele><time>2026-04-25T13:04:27.003Z</time></trkpt><trkpt lat="46.03290999092383" lon="9.128624965468056"><ele>276.5</ele><time>2026-04-25T13:04:28.003Z</time></trkpt><trkpt lat="46.03304372365277" lon="9.12853273719499"><ele>277.0</ele><time>2026-04-25T13:04:29.003Z</time></trkpt><trkpt lat="46.03318998755979" lon="9.128435354284314"><ele>277.0</ele><time>2026-04-25T13:04:30.003Z</time></trkpt><trkpt lat="46.03331234357947" lon="9.12834269414005"><ele>277.0</ele><time>2026-04-25T13:04:31.003Z</time></trkpt><trkpt lat="46.03343569371291" lon="9.128252860983855"><ele>277.0</ele><time>2026-04-25T13:04:32.003Z</time></trkpt><trkpt lat="46.03355866010486" lon="9.128162549123784"><ele>277.0</ele><time>2026-04-25T13:04:33.003Z</time></trkpt><trkpt lat="46.03368761692997" lon="9.128071231134042"><ele>277.0</ele><time>2026-04-25T13:04:34.003Z</time></trkpt><trkpt lat="46.03382485539822" lon="9.127976747151232"><ele>277.0</ele><time>2026-04-25T13:04:35.003Z</time></trkpt><trkpt lat="46.0339591198498" lon="9.127881305746008"><ele>277.0</ele><time>2026-04-25T13:04:36.003Z</time></trkpt><trkpt lat="46.0340938708125" lon="9.127784665251395"><ele>277.25</ele><time>2026-04-25T13:04:37.003Z</time></trkpt><trkpt lat="46.034225945407464" lon="9.127690537287513"><ele>277.5</ele><time>2026-04-25T13:04:38.003Z</time></trkpt><trkpt lat="46.03435836244878" lon="9.127595922036589"><ele>277.75</ele><time>2026-04-25T13:04:39.003Z</time></trkpt><trkpt lat="46.034485891035565" lon="9.127502579970045"><ele>278.0</ele><time>2026-04-25T13:04:40.003Z</time></trkpt><trkpt lat="46.03461010059035" lon="9.127411517658805"><ele>278.0</ele><time>2026-04-25T13:04:41.003Z</time></trkpt><trkpt lat="46.034731625551984" lon="9.127323451075258"><ele>278.0</ele><time>2026-04-25T13:04:42.003Z</time></trkpt><trkpt lat="46.034854300471956" lon="9.127238985053674"><ele>278.0</ele><time>2026-04-25T13:04:43.003Z</time></trkpt><trkpt lat="46.03497308186477" lon="9.127153970805514"><ele>278.0</ele><time>2026-04-25T13:04:44.003Z</time></trkpt><trkpt lat="46.03509462427931" lon="9.12707143212574"><ele>278.5</ele><time>2026-04-25T13:04:45.003Z</time></trkpt><trkpt lat="46.03521615453234" lon="9.126990137477934"><ele>279.0</ele><time>2026-04-25T13:04:46.003Z</time></trkpt><trkpt lat="46.03533107587393" lon="9.126903860872895"><ele>279.5</ele><time>2026-04-25T13:04:47.003Z</time></trkpt><trkpt lat="46.0354505161791" lon="9.12681573709472"><ele>280.0</ele><time>2026-04-25T13:04:48.003Z</time></trkpt><trkpt lat="46.03557043137569" lon="9.126725593017825"><ele>280.0</ele><time>2026-04-25T13:04:48.999Z</time></trkpt><trkpt lat="46.035691149742775" lon="9.126638128348361"><ele>280.0</ele><time>2026-04-25T13:04:49.999Z</time></trkpt><trkpt lat="46.035808763772074" lon="9.126553662796253"><ele>280.0</ele><time>2026-04-25T13:04:50.999Z</time></trkpt><trkpt lat="46.03592270785142" lon="9.126471651209355"><ele>280.0</ele><time>2026-04-25T13:04:51.999Z</time></trkpt><trkpt lat="46.036038061372004" lon="9.12638994269488"><ele>280.0</ele><time>2026-04-25T13:04:52.999Z</time></trkpt><trkpt lat="46.036154163691556" lon="9.126308975589078"><ele>280.0</ele><time>2026-04-25T13:04:53.999Z</time></trkpt><trkpt lat="46.03626709373578" lon="9.126229114163452"><ele>280.0</ele><time>2026-04-25T13:04:54.999Z</time></trkpt><trkpt lat="46.03637692728894" lon="9.126151322576009"><ele>280.0</ele><time>2026-04-25T13:04:55.999Z</time></trkpt><trkpt lat="46.0364888690467" lon="9.12607431498547"><ele>280.0</ele><time>2026-04-25T13:04:56.999Z</time></trkpt><trkpt lat="46.036598982922236" lon="9.125996541801566"><ele>280.0</ele><time>2026-04-25T13:04:57.999Z</time></trkpt><trkpt lat="46.03670368035693" lon="9.125921069392689"><ele>280.0</ele><time>2026-04-25T13:04:58.999Z</time></trkpt><trkpt lat="46.0368049964171" lon="9.125850938400816"><ele>280.0</ele><time>2026-04-25T13:04:59.999Z</time></trkpt><trkpt lat="46.036899090732945" lon="9.125789012130856"><ele>280.16666666666663</ele><time>2026-04-25T13:05:00.999Z</time></trkpt><trkpt lat="46.03698019166631" lon="9.12573381448772"><ele>280.3333333333333</ele><time>2026-04-25T13:05:01.999Z</time></trkpt><trkpt lat="46.03705374224762" lon="9.125681258820094"><ele>280.5</ele><time>2026-04-25T13:05:03Z</time></trkpt><trkpt lat="46.03712067332686" lon="9.12563749810919"><ele>280.6666666666667</ele><time>2026-04-25T13:05:04Z</time></trkpt><trkpt lat="46.037183628546785" lon="9.125602852712081"><ele>280.83333333333337</ele><time>2026-04-25T13:05:05Z</time></trkpt><trkpt lat="46.03726899915195" lon="9.125556025138104"><ele>281.0</ele><time>2026-04-25T13:05:07Z</time></trkpt><trkpt lat="46.037349166734614" lon="9.125541611892373"><ele>281.0</ele><time>2026-04-25T13:05:10Z</time></trkpt><trkpt lat="46.03741605269422" lon="9.125504080780646"><ele>281.0</ele><time>2026-04-25T13:05:54.002Z</time></trkpt><trkpt lat="46.03749535789657" lon="9.125442051823558"><ele>281.0</ele><time>2026-04-25T13:05:56.002Z</time></trkpt><trkpt lat="46.03752276733974" lon="9.125353487946537"><ele>281.0</ele><time>2026-04-25T13:05:57.002Z</time></trkpt><trkpt lat="46.03757703354519" lon="9.125197721205154"><ele>281.0</ele><time>2026-04-25T13:05:59.002Z</time></trkpt><trkpt lat="46.03761059492999" lon="9.125112680824797"><ele>281.0</ele><time>2026-04-25T13:06:00.002Z</time></trkpt><trkpt lat="46.03765928492986" lon="9.125005065633697"><ele>282.0</ele><time>2026-04-25T13:06:01.002Z</time></trkpt><trkpt lat="46.03770294368713" lon="9.124883095798475"><ele>283.0</ele><time>2026-04-25T13:06:02.002Z</time></trkpt><trkpt lat="46.03776514888012" lon="9.12474382423678"><ele>284.0</ele><time>2026-04-25T13:06:03.002Z</time></trkpt><trkpt lat="46.03781550429258" lon="9.124618921734438"><ele>285.0</ele><time>2026-04-25T13:06:04.002Z</time></trkpt><trkpt lat="46.03786438053685" lon="9.124490894172666"><ele>286.0</ele><time>2026-04-25T13:06:05.002Z</time></trkpt><trkpt lat="46.03792693893758" lon="9.124383633423369"><ele>286.0</ele><time>2026-04-25T13:06:06.002Z</time></trkpt><trkpt lat="46.03798656025594" lon="9.124305695607164"><ele>286.0</ele><time>2026-04-25T13:06:07.002Z</time></trkpt><trkpt lat="46.03804555430334" lon="9.12424593384239"><ele>286.0</ele><time>2026-04-25T13:06:08.002Z</time></trkpt><trkpt lat="46.038112095929115" lon="9.124197853291179"><ele>286.0</ele><time>2026-04-25T13:06:09.002Z</time></trkpt><trkpt lat="46.03819175900967" lon="9.12416843245775"><ele>286.0</ele><time>2026-04-25T13:06:10.002Z</time></trkpt><trkpt lat="46.038285787895404" lon="9.124147636650838"><ele>286.0</ele><time>2026-04-25T13:06:11.002Z</time></trkpt><trkpt lat="46.03839188567024" lon="9.124117533226697"><ele>286.0</ele><time>2026-04-25T13:06:12.002Z</time></trkpt><trkpt lat="46.03850271325376" lon="9.124080555577855"><ele>286.0</ele><time>2026-04-25T13:06:13.002Z</time></trkpt><trkpt lat="46.03862101544064" lon="9.124039895154308"><ele>286.0</ele><time>2026-04-25T13:06:14.002Z</time></trkpt><trkpt lat="46.03873209079263" lon="9.123993267006636"><ele>286.0</ele><time>2026-04-25T13:06:15.002Z</time></trkpt><trkpt lat="46.03882863704734" lon="9.123948766328677"><ele>286.0</ele><time>2026-04-25T13:06:16.002Z</time></trkpt><trkpt lat="46.03891495317062" lon="9.123918817080728"><ele>286.0</ele><time>2026-04-25T13:06:17.002Z</time></trkpt><trkpt lat="46.03898712578518" lon="9.123928095877716"><ele>286.0</ele><time>2026-04-25T13:06:18.002Z</time></trkpt><trkpt lat="46.039080650965516" lon="9.12405327833552"><ele>286.0</ele><time>2026-04-25T13:06:20.002Z</time></trkpt><trkpt lat="46.03910591519047" lon="9.124183096461522"><ele>286.0</ele><time>2026-04-25T13:06:21.002Z</time></trkpt><trkpt lat="46.0391071683062" lon="9.124330363529813"><ele>286.0</ele><time>2026-04-25T13:06:22.002Z</time></trkpt><trkpt lat="46.03909446583495" lon="9.124479577525683"><ele>286.0</ele><time>2026-04-25T13:06:23.002Z</time></trkpt><trkpt lat="46.03905747711372" lon="9.12461693258738"><ele>286.0</ele><time>2026-04-25T13:06:24.002Z</time></trkpt><trkpt lat="46.03900249820242" lon="9.124735547565148"><ele>286.0</ele><time>2026-04-25T13:06:25.002Z</time></trkpt><trkpt lat="46.038954064573154" lon="9.124836780258438"><ele>286.0</ele><time>2026-04-25T13:06:26.003Z</time></trkpt><trkpt lat="46.0389360820675" lon="9.124952986338029"><ele>286.0</ele><time>2026-04-25T13:06:27.003Z</time></trkpt><trkpt lat="46.038958493232634" lon="9.125063245439717"><ele>286.0</ele><time>2026-04-25T13:06:28.003Z</time></trkpt><trkpt lat="46.0390055035355" lon="9.125161562619265"><ele>286.0</ele><time>2026-04-25T13:06:29.003Z</time></trkpt><trkpt lat="46.039078195701165" lon="9.12524434165531"><ele>286.0</ele><time>2026-04-25T13:06:30.003Z</time></trkpt><trkpt lat="46.03916963492098" lon="9.125311516513992"><ele>286.0</ele><time>2026-04-25T13:06:31.003Z</time></trkpt><trkpt lat="46.03928365622462" lon="9.125366971111639"><ele>288.2</ele><time>2026-04-25T13:06:32.003Z</time></trkpt><trkpt lat="46.03939359609408" lon="9.125395425106891"><ele>290.40000000000003</ele><time>2026-04-25T13:06:33.003Z</time></trkpt><trkpt lat="46.03948946243841" lon="9.125433829191683"><ele>292.6</ele><time>2026-04-25T13:06:34.003Z</time></trkpt><trkpt lat="46.039577268675046" lon="9.125501087081897"><ele>294.8</ele><time>2026-04-25T13:06:35.003Z</time></trkpt><trkpt lat="46.039653411518046" lon="9.125607971571466"><ele>297.0</ele><time>2026-04-25T13:06:36.003Z</time></trkpt><trkpt lat="46.03972681765526" lon="9.125752693168454"><ele>297.0</ele><time>2026-04-25T13:06:37.003Z</time></trkpt><trkpt lat="46.03980273891431" lon="9.12592298323886"><ele>297.0</ele><time>2026-04-25T13:06:38.003Z</time></trkpt><trkpt lat="46.03988385245417" lon="9.126105397358144"><ele>297.0</ele><time>2026-04-25T13:06:39.003Z</time></trkpt><trkpt lat="46.03996484555224" lon="9.126266588290537"><ele>297.0</ele><time>2026-04-25T13:06:40.003Z</time></trkpt><trkpt lat="46.04004260673043" lon="9.126427968639016"><ele>302.3333333333333</ele><time>2026-04-25T13:06:41.003Z</time></trkpt><trkpt lat="46.040128116441146" lon="9.126601068525575"><ele>307.66666666666663</ele><time>2026-04-25T13:06:42.003Z</time></trkpt><trkpt lat="46.04021163143358" lon="9.12678116206936"><ele>313.0</ele><time>2026-04-25T13:06:43.003Z</time></trkpt><trkpt lat="46.04029601153965" lon="9.12696441722013"><ele>313.0</ele><time>2026-04-25T13:06:44.003Z</time></trkpt><trkpt lat="46.040378406097155" lon="9.127149280392329"><ele>313.0</ele><time>2026-04-25T13:06:45.003Z</time></trkpt><trkpt lat="46.04045658571155" lon="9.127328936730363"><ele>313.0</ele><time>2026-04-25T13:06:46.003Z</time></trkpt><trkpt lat="46.040527952078264" lon="9.127508014264322"><ele>313.0</ele><time>2026-04-25T13:06:47.003Z</time></trkpt><trkpt lat="46.040590617308176" lon="9.127693006456102"><ele>309.66666666666663</ele><time>2026-04-25T13:06:48.003Z</time></trkpt><trkpt lat="46.04065379410751" lon="9.127888327693142"><ele>306.3333333333333</ele><time>2026-04-25T13:06:49.003Z</time></trkpt><trkpt lat="46.04073140910603" lon="9.128078433573558"><ele>303.0</ele><time>2026-04-25T13:06:50.003Z</time></trkpt><trkpt lat="46.04081898212398" lon="9.128265504324371"><ele>309.25</ele><time>2026-04-25T13:06:51.003Z</time></trkpt><trkpt lat="46.040908317382346" lon="9.128447216182408"><ele>315.5</ele><time>2026-04-25T13:06:52.003Z</time></trkpt><trkpt lat="46.040986990733046" lon="9.128617672669874"><ele>321.75</ele><time>2026-04-25T13:06:53.003Z</time></trkpt><trkpt lat="46.04106036337972" lon="9.128799605082408"><ele>328.0</ele><time>2026-04-25T13:06:54.003Z</time></trkpt><trkpt lat="46.04112445429998" lon="9.128989705129145"><ele>327.25</ele><time>2026-04-25T13:06:55Z</time></trkpt><trkpt lat="46.04118293661948" lon="9.129175511697424"><ele>326.5</ele><time>2026-04-25T13:06:56Z</time></trkpt><trkpt lat="46.04123277603889" lon="9.129351670759208"><ele>325.75</ele><time>2026-04-25T13:06:57Z</time></trkpt><trkpt lat="46.041278752338634" lon="9.129533365617752"><ele>325.0</ele><time>2026-04-25T13:06:58Z</time></trkpt><trkpt lat="46.04131868801039" lon="9.12972816996169"><ele>325.0</ele><time>2026-04-25T13:06:59Z</time></trkpt><trkpt lat="46.04135934980986" lon="9.129911525189137"><ele>325.0</ele><time>2026-04-25T13:07:00Z</time></trkpt><trkpt lat="46.04139080065206" lon="9.130074318287972"><ele>325.0</ele><time>2026-04-25T13:07:01Z</time></trkpt><trkpt lat="46.04145285705196" lon="9.130243085229218"><ele>325.0</ele><time>2026-04-25T13:07:02Z</time></trkpt><trkpt lat="46.04151959272607" lon="9.130423587540824"><ele>325.0</ele><time>2026-04-25T13:07:03Z</time></trkpt><trkpt lat="46.041591640395005" lon="9.130598498810905"><ele>325.0</ele><time>2026-04-25T13:07:04Z</time></trkpt><trkpt lat="46.04165324841761" lon="9.13077842413871"><ele>325.0</ele><time>2026-04-25T13:07:05Z</time></trkpt><trkpt lat="46.041702071481815" lon="9.130983320375247"><ele>325.0</ele><time>2026-04-25T13:07:06Z</time></trkpt><trkpt lat="46.04173773699861" lon="9.131200863416078"><ele>332.3333333333333</ele><time>2026-04-25T13:07:07Z</time></trkpt><trkpt lat="46.04176892848223" lon="9.13142550615605"><ele>339.6666666666667</ele><time>2026-04-25T13:07:08Z</time></trkpt><trkpt lat="46.041796285677094" lon="9.131648754048532"><ele>347.0</ele><time>2026-04-25T13:07:09Z</time></trkpt><trkpt lat="46.04182373083311" lon="9.131865729029498"><ele>347.0</ele><time>2026-04-25T13:07:10Z</time></trkpt><trkpt lat="46.041845761196655" lon="9.132066315151087"><ele>347.0</ele><time>2026-04-25T13:07:11Z</time></trkpt><trkpt lat="46.041875858985826" lon="9.132273913214727"><ele>347.0</ele><time>2026-04-25T13:07:12Z</time></trkpt><trkpt lat="46.041886232374246" lon="9.13244526401602"><ele>347.0</ele><time>2026-04-25T13:07:13Z</time></trkpt><trkpt lat="46.041882329859966" lon="9.132609257880908"><ele>346.8</ele><time>2026-04-25T13:07:14Z</time></trkpt><trkpt lat="46.04184670711512" lon="9.132762101984138"><ele>346.6</ele><time>2026-04-25T13:07:15Z</time></trkpt><trkpt lat="46.04179423691985" lon="9.132902285323631"><ele>346.40000000000003</ele><time>2026-04-25T13:07:16Z</time></trkpt><trkpt lat="46.04175509271094" lon="9.133044487044618"><ele>346.20000000000005</ele><time>2026-04-25T13:07:17Z</time></trkpt><trkpt lat="46.04174501859964" lon="9.133203160440564"><ele>346.0</ele><time>2026-04-25T13:07:18Z</time></trkpt><trkpt lat="46.04176020475836" lon="9.133371713297505"><ele>346.0</ele><time>2026-04-25T13:07:19Z</time></trkpt><trkpt lat="46.04179084292685" lon="9.133534654262549"><ele>346.0</ele><time>2026-04-25T13:07:20Z</time></trkpt><trkpt lat="46.041844064915445" lon="9.13369462976278"><ele>346.0</ele><time>2026-04-25T13:07:21Z</time></trkpt><trkpt lat="46.041920731646044" lon="9.13384764805882"><ele>346.0</ele><time>2026-04-25T13:07:22Z</time></trkpt><trkpt lat="46.04199943833969" lon="9.133989227336151"><ele>346.0</ele><time>2026-04-25T13:07:23Z</time></trkpt><trkpt lat="46.042065519290766" lon="9.134112094379468"><ele>346.0</ele><time>2026-04-25T13:07:24Z</time></trkpt><trkpt lat="46.042126915089746" lon="9.13420168684861"><ele>346.0</ele><time>2026-04-25T13:07:25Z</time></trkpt><trkpt lat="46.042189427408104" lon="9.134233727975987"><ele>346.0</ele><time>2026-04-25T13:07:26Z</time></trkpt><trkpt lat="46.04225413422494" lon="9.13421801790995"><ele>346.0</ele><time>2026-04-25T13:07:27Z</time></trkpt><trkpt lat="46.042307271135165" lon="9.134155881448478"><ele>346.0</ele><time>2026-04-25T13:07:28Z</time></trkpt><trkpt lat="46.04233232170309" lon="9.134051512832402"><ele>346.0</ele><time>2026-04-25T13:07:29Z</time></trkpt><trkpt lat="46.042324272429674" lon="9.13394443265244"><ele>346.0</ele><time>2026-04-25T13:07:30.001Z</time></trkpt><trkpt lat="46.0422690872508" lon="9.133846705863942"><ele>346.0</ele><time>2026-04-25T13:07:31.001Z</time></trkpt><trkpt lat="46.042179833610945" lon="9.133766076004582"><ele>346.0</ele><time>2026-04-25T13:07:32.001Z</time></trkpt><trkpt lat="46.042112743414215" lon="9.13367027478557"><ele>346.0</ele><time>2026-04-25T13:07:33.001Z</time></trkpt><trkpt lat="46.04204182990753" lon="9.133606318277304"><ele>346.0</ele><time>2026-04-25T13:07:34.001Z</time></trkpt><trkpt lat="46.0420183749081" lon="9.13352128835024"><ele>346.0</ele><time>2026-04-25T13:07:35.001Z</time></trkpt><trkpt lat="46.042053916525454" lon="9.133358410932075"><ele>346.0</ele><time>2026-04-25T13:07:37.001Z</time></trkpt><trkpt lat="46.042120450023624" lon="9.133305708550267"><ele>346.0</ele><time>2026-04-25T13:07:38.001Z</time></trkpt><trkpt lat="46.04220321872669" lon="9.133270163300079"><ele>346.0</ele><time>2026-04-25T13:07:39.001Z</time></trkpt><trkpt lat="46.04228778059946" lon="9.133228296833282"><ele>346.0</ele><time>2026-04-25T13:07:40.001Z</time></trkpt><trkpt lat="46.04235682438264" lon="9.133150314309221"><ele>345.5</ele><time>2026-04-25T13:07:41.001Z</time></trkpt><trkpt lat="46.04241818502193" lon="9.133053262699894"><ele>345.0</ele><time>2026-04-25T13:07:42.001Z</time></trkpt><trkpt lat="46.042441681860794" lon="9.132898369663518"><ele>344.5</ele><time>2026-04-25T13:07:43.001Z</time></trkpt><trkpt lat="46.04242373294732" lon="9.13271646877246"><ele>344.0</ele><time>2026-04-25T13:07:44.001Z</time></trkpt><trkpt lat="46.04243281334757" lon="9.132522290991162"><ele>344.75</ele><time>2026-04-25T13:07:45.001Z</time></trkpt><trkpt lat="46.04239641227749" lon="9.1323258716088"><ele>345.5</ele><time>2026-04-25T13:07:46.001Z</time></trkpt><trkpt lat="46.042369800965936" lon="9.132123311096677"><ele>346.25</ele><time>2026-04-25T13:07:47.001Z</time></trkpt><trkpt lat="46.042342334250336" lon="9.131917139321846"><ele>347.0</ele><time>2026-04-25T13:07:48.001Z</time></trkpt><trkpt lat="46.04233177536876" lon="9.1317225341183"><ele>347.8</ele><time>2026-04-25T13:07:49.001Z</time></trkpt><trkpt lat="46.0423124354087" lon="9.1315529221795"><ele>348.6</ele><time>2026-04-25T13:07:50.001Z</time></trkpt><trkpt lat="46.04229899666531" lon="9.131415543357212"><ele>349.40000000000003</ele><time>2026-04-25T13:07:51.001Z</time></trkpt><trkpt lat="46.04229285400862" lon="9.131292380803217"><ele>350.20000000000005</ele><time>2026-04-25T13:07:52.001Z</time></trkpt><trkpt lat="46.04230090692708" lon="9.131201303068964"><ele>351.0</ele><time>2026-04-25T13:07:53.001Z</time></trkpt><trkpt lat="46.04235939319017" lon="9.131103547777544"><ele>351.0</ele><time>2026-04-25T13:07:55.001Z</time></trkpt><trkpt lat="46.04244716947025" lon="9.13116338932926"><ele>351.0</ele><time>2026-04-25T13:07:57.001Z</time></trkpt><trkpt lat="46.0424517576197" lon="9.131275382814376"><ele>351.0</ele><time>2026-04-25T13:07:58.001Z</time></trkpt><trkpt lat="46.042434648293074" lon="9.13137877502769"><ele>351.0</ele><time>2026-04-25T13:07:59.001Z</time></trkpt><trkpt lat="46.0424232549002" lon="9.131499630445008"><ele>351.0</ele><time>2026-04-25T13:08:00.001Z</time></trkpt><trkpt lat="46.04244350654935" lon="9.131638233836691"><ele>351.0</ele><time>2026-04-25T13:08:01.001Z</time></trkpt><trkpt lat="46.04248488945793" lon="9.131789863167134"><ele>359.25</ele><time>2026-04-25T13:08:02.002Z</time></trkpt><trkpt lat="46.04253382282449" lon="9.131949630189895"><ele>367.5</ele><time>2026-04-25T13:08:03.002Z</time></trkpt><trkpt lat="46.042587064879385" lon="9.13212009448445"><ele>375.75</ele><time>2026-04-25T13:08:04.002Z</time></trkpt><trkpt lat="46.04263991365143" lon="9.132302380233789"><ele>384.0</ele><time>2026-04-25T13:08:05.002Z</time></trkpt><trkpt lat="46.0426955538067" lon="9.13248636876156"><ele>384.0</ele><time>2026-04-25T13:08:06.002Z</time></trkpt><trkpt lat="46.04275593923485" lon="9.132663554039292"><ele>384.0</ele><time>2026-04-25T13:08:07.002Z</time></trkpt><trkpt lat="46.04281816799237" lon="9.132815106175032"><ele>384.0</ele><time>2026-04-25T13:08:08.002Z</time></trkpt><trkpt lat="46.042893531119766" lon="9.132965151144813"><ele>384.0</ele><time>2026-04-25T13:08:09.002Z</time></trkpt><trkpt lat="46.04297740387534" lon="9.133103124202139"><ele>383.2</ele><time>2026-04-25T13:08:10.002Z</time></trkpt><trkpt lat="46.043063989032916" lon="9.133231866191544"><ele>382.4</ele><time>2026-04-25T13:08:11.002Z</time></trkpt><trkpt lat="46.04313122813837" lon="9.133342767861555"><ele>381.6</ele><time>2026-04-25T13:08:12.002Z</time></trkpt><trkpt lat="46.043180435109655" lon="9.133477153152837"><ele>380.8</ele><time>2026-04-25T13:08:13.002Z</time></trkpt><trkpt lat="46.043190746426156" lon="9.1336237743726"><ele>380.0</ele><time>2026-04-25T13:08:14.002Z</time></trkpt><trkpt lat="46.04320844542078" lon="9.133784306492977"><ele>380.0</ele><time>2026-04-25T13:08:15.002Z</time></trkpt><trkpt lat="46.04324550171193" lon="9.133946091090582"><ele>380.0</ele><time>2026-04-25T13:08:16.002Z</time></trkpt><trkpt lat="46.04330805459329" lon="9.134109718853354"><ele>380.0</ele><time>2026-04-25T13:08:17.002Z</time></trkpt><trkpt lat="46.04338894106317" lon="9.134272954608594"><ele>380.0</ele><time>2026-04-25T13:08:18.002Z</time></trkpt><trkpt lat="46.043476681003696" lon="9.134433580818369"><ele>387.5</ele><time>2026-04-25T13:08:19.002Z</time></trkpt><trkpt lat="46.043561546289574" lon="9.134594443542422"><ele>395.0</ele><time>2026-04-25T13:08:20.002Z</time></trkpt><trkpt lat="46.04363132473331" lon="9.134738221072872"><ele>402.5</ele><time>2026-04-25T13:08:21.002Z</time></trkpt><trkpt lat="46.04370793461969" lon="9.134866547758001"><ele>410.0</ele><time>2026-04-25T13:08:22.002Z</time></trkpt><trkpt lat="46.04380504937696" lon="9.134961802751462"><ele>411.25</ele><time>2026-04-25T13:08:23.002Z</time></trkpt><trkpt lat="46.043922218562955" lon="9.135030501973562"><ele>412.5</ele><time>2026-04-25T13:08:24.002Z</time></trkpt><trkpt lat="46.044041363323664" lon="9.135085191095428"><ele>413.75</ele><time>2026-04-25T13:08:25.002Z</time></trkpt><trkpt lat="46.04415616874861" lon="9.135123734460132"><ele>415.0</ele><time>2026-04-25T13:08:26.002Z</time></trkpt><trkpt lat="46.04426291631516" lon="9.1351350065835"><ele>417.00000000000006</ele><time>2026-04-25T13:08:27.002Z</time></trkpt><trkpt lat="46.04435770392592" lon="9.135151482239177"><ele>419.0</ele><time>2026-04-25T13:08:28.002Z</time></trkpt><trkpt lat="46.044429259687604" lon="9.135187071766348"><ele>421.0</ele><time>2026-04-25T13:08:29.002Z</time></trkpt><trkpt lat="46.044480604379416" lon="9.135251525104156"><ele>423.0</ele><time>2026-04-25T13:08:30.002Z</time></trkpt><trkpt lat="46.044521419308495" lon="9.135354692580512"><ele>425.00000000000006</ele><time>2026-04-25T13:08:31.002Z</time></trkpt><trkpt lat="46.044552027750086" lon="9.135479942369729"><ele>427.0</ele><time>2026-04-25T13:08:32.002Z</time></trkpt><trkpt lat="46.04457133760093" lon="9.135606063896189"><ele>427.00000000000006</ele><time>2026-04-25T13:08:33.002Z</time></trkpt><trkpt lat="46.04458537764256" lon="9.135708949552669"><ele>427.0</ele><time>2026-04-25T13:08:34.002Z</time></trkpt><trkpt lat="46.04468647417016" lon="9.135790909443699"><ele>427.0</ele><time>2026-04-25T13:08:36.003Z</time></trkpt><trkpt lat="46.044751464355784" lon="9.135751910791138"><ele>427.0</ele><time>2026-04-25T13:08:37.003Z</time></trkpt><trkpt lat="46.044790761393166" lon="9.135671763749547"><ele>427.00000000000006</ele><time>2026-04-25T13:08:38.003Z</time></trkpt><trkpt lat="46.04479070555518" lon="9.135564523409716"><ele>427.0</ele><time>2026-04-25T13:08:39.003Z</time></trkpt><trkpt lat="46.04473993655478" lon="9.135464009282847"><ele>427.0</ele><time>2026-04-25T13:08:40.003Z</time></trkpt><trkpt lat="46.04466362919273" lon="9.135385925032661"><ele>427.00000000000006</ele><time>2026-04-25T13:08:41.003Z</time></trkpt><trkpt lat="46.04461676459584" lon="9.135261192001261"><ele>427.00000000000006</ele><time>2026-04-25T13:08:42.003Z</time></trkpt><trkpt lat="46.04456470928308" lon="9.13512471878787"><ele>427.0</ele><time>2026-04-25T13:08:43.003Z</time></trkpt><trkpt lat="46.044477012797806" lon="9.1350175706499"><ele>427.0</ele><time>2026-04-25T13:08:44.003Z</time></trkpt><trkpt lat="46.044377410890675" lon="9.134928559584305"><ele>429.0</ele><time>2026-04-25T13:08:45.003Z</time></trkpt><trkpt lat="46.04427030160714" lon="9.134867550430409"><ele>431.00000000000006</ele><time>2026-04-25T13:08:46.003Z</time></trkpt><trkpt lat="46.044170644187" lon="9.134830852272012"><ele>433.00000000000006</ele><time>2026-04-25T13:08:47.003Z</time></trkpt><trkpt lat="46.04408381405425" lon="9.134749061601074"><ele>435.0</ele><time>2026-04-25T13:08:48.003Z</time></trkpt><trkpt lat="46.04402480369226" lon="9.134640371283787"><ele>437.0</ele><time>2026-04-25T13:08:49.003Z</time></trkpt><trkpt lat="46.043978926374145" lon="9.134490004531399"><ele>431.0</ele><time>2026-04-25T13:08:50.003Z</time></trkpt><trkpt lat="46.04400213850466" lon="9.13427833734263"><ele>425.0</ele><time>2026-04-25T13:08:52.003Z</time></trkpt><trkpt lat="46.04399798926491" lon="9.134098443588972"><ele>419.0</ele><time>2026-04-25T13:08:53.003Z</time></trkpt><trkpt lat="46.04399283438578" lon="9.133951161538398"><ele>413.0</ele><time>2026-04-25T13:08:54.003Z</time></trkpt><trkpt lat="46.043985438123016" lon="9.133805332836555"><ele>412.99999999999994</ele><time>2026-04-25T13:08:55.003Z</time></trkpt><trkpt lat="46.04398214273471" lon="9.133702513328547"><ele>413.0</ele><time>2026-04-25T13:08:56.003Z</time></trkpt><trkpt lat="46.04401471258826" lon="9.133603824359612"><ele>413.0</ele><time>2026-04-25T13:08:58.003Z</time></trkpt><trkpt lat="46.04411512200935" lon="9.133651169417309"><ele>413.0</ele><time>2026-04-25T13:09:00.003Z</time></trkpt><trkpt lat="46.04415789369524" lon="9.133764465250557"><ele>412.99999999999994</ele><time>2026-04-25T13:09:00.998Z</time></trkpt><trkpt lat="46.04420968480194" lon="9.133891915016717"><ele>413.0</ele><time>2026-04-25T13:09:01.998Z</time></trkpt><trkpt lat="46.044274639704476" lon="9.134036730137765"><ele>419.0</ele><time>2026-04-25T13:09:02.998Z</time></trkpt><trkpt lat="46.04433643807241" lon="9.134171533522753"><ele>425.0</ele><time>2026-04-25T13:09:03.998Z</time></trkpt><trkpt lat="46.04439707567023" lon="9.134312560539506"><ele>431.0</ele><time>2026-04-25T13:09:04.998Z</time></trkpt><trkpt lat="46.04446959732382" lon="9.134471139191009"><ele>437.0</ele><time>2026-04-25T13:09:05.998Z</time></trkpt><trkpt lat="46.04455014935385" lon="9.134637115091405"><ele>437.0</ele><time>2026-04-25T13:09:06.999Z</time></trkpt><trkpt lat="46.04464472609396" lon="9.134798601287633"><ele>437.0</ele><time>2026-04-25T13:09:07.999Z</time></trkpt><trkpt lat="46.04474762946493" lon="9.134966841887351"><ele>437.0</ele><time>2026-04-25T13:09:08.999Z</time></trkpt><trkpt lat="46.04485494962815" lon="9.135127237654036"><ele>434.5</ele><time>2026-04-25T13:09:09.999Z</time></trkpt><trkpt lat="46.04495090478053" lon="9.135276224821354"><ele>432.0</ele><time>2026-04-25T13:09:10.999Z</time></trkpt><trkpt lat="46.0450496845455" lon="9.135420578069713"><ele>429.5</ele><time>2026-04-25T13:09:11.999Z</time></trkpt><trkpt lat="46.04514858231375" lon="9.135566707320853"><ele>427.0</ele><time>2026-04-25T13:09:12.999Z</time></trkpt><trkpt lat="46.04525066708395" lon="9.135711687128264"><ele>429.75</ele><time>2026-04-25T13:09:13.999Z</time></trkpt><trkpt lat="46.04535484358105" lon="9.135864373484349"><ele>432.5</ele><time>2026-04-25T13:09:14.999Z</time></trkpt><trkpt lat="46.04545771439881" lon="9.13601288738518"><ele>435.25</ele><time>2026-04-25T13:09:15.999Z</time></trkpt><trkpt lat="46.045566719078245" lon="9.136157070532606"><ele>438.0</ele><time>2026-04-25T13:09:16.999Z</time></trkpt><trkpt lat="46.045677098893634" lon="9.136298556818952"><ele>438.0</ele><time>2026-04-25T13:09:17.999Z</time></trkpt><trkpt lat="46.045782171168604" lon="9.136430089314246"><ele>438.0</ele><time>2026-04-25T13:09:18.999Z</time></trkpt><trkpt lat="46.0458866858005" lon="9.136550284765038"><ele>438.0</ele><time>2026-04-25T13:09:19.999Z</time></trkpt><trkpt lat="46.04597606335917" lon="9.136669128430771"><ele>438.0</ele><time>2026-04-25T13:09:20.999Z</time></trkpt><trkpt lat="46.046036778227666" lon="9.136787575536397"><ele>440.79999999999995</ele><time>2026-04-25T13:09:22Z</time></trkpt><trkpt lat="46.0460727719075" lon="9.13689979211356"><ele>443.59999999999997</ele><time>2026-04-25T13:09:23Z</time></trkpt><trkpt lat="46.04610146740667" lon="9.13702032193736"><ele>446.40000000000003</ele><time>2026-04-25T13:09:24Z</time></trkpt><trkpt lat="46.046129458962426" lon="9.137149943324776"><ele>449.20000000000005</ele><time>2026-04-25T13:09:25Z</time></trkpt><trkpt lat="46.0461529973993" lon="9.137285390502457"><ele>452.0</ele><time>2026-04-25T13:09:26Z</time></trkpt><trkpt lat="46.0461761637604" lon="9.137430571111636"><ele>452.0</ele><time>2026-04-25T13:09:27Z</time></trkpt><trkpt lat="46.046194405252294" lon="9.13757869988987"><ele>452.00000000000006</ele><time>2026-04-25T13:09:28Z</time></trkpt><trkpt lat="46.04621431712394" lon="9.137724866274997"><ele>452.00000000000006</ele><time>2026-04-25T13:09:29Z</time></trkpt><trkpt lat="46.04623530348972" lon="9.13786233336156"><ele>452.0</ele><time>2026-04-25T13:09:30Z</time></trkpt><trkpt lat="46.04624546133655" lon="9.138001098714343"><ele>452.0</ele><time>2026-04-25T13:09:31Z</time></trkpt><trkpt lat="46.0462401278545" lon="9.1381448991408"><ele>453.49999999999994</ele><time>2026-04-25T13:09:32Z</time></trkpt><trkpt lat="46.04626153880112" lon="9.138272104186774"><ele>455.0</ele><time>2026-04-25T13:09:33Z</time></trkpt><trkpt lat="46.04626693399151" lon="9.13839468678115"><ele>456.5</ele><time>2026-04-25T13:09:34Z</time></trkpt><trkpt lat="46.04629118812253" lon="9.138487288238728"><ele>458.0</ele><time>2026-04-25T13:09:35Z</time></trkpt><trkpt lat="46.04639323344227" lon="9.13854156496919"><ele>459.49999999999994</ele><time>2026-04-25T13:09:37Z</time></trkpt><trkpt lat="46.046455205591094" lon="9.13851062694734"><ele>461.0</ele><time>2026-04-25T13:09:38Z</time></trkpt><trkpt lat="46.046516768332" lon="9.138460599618266"><ele>460.99999999999994</ele><time>2026-04-25T13:09:39Z</time></trkpt><trkpt lat="46.04658349719112" lon="9.138420597147833"><ele>461.0</ele><time>2026-04-25T13:09:40.001Z</time></trkpt><trkpt lat="46.046643144603436" lon="9.138387327413506"><ele>461.0</ele><time>2026-04-25T13:09:41.001Z</time></trkpt><trkpt lat="46.04671148135891" lon="9.138356329312714"><ele>461.0</ele><time>2026-04-25T13:09:42.001Z</time></trkpt><trkpt lat="46.046784711478274" lon="9.138323560052505"><ele>460.99999999999994</ele><time>2026-04-25T13:09:43.001Z</time></trkpt><trkpt lat="46.046864236163124" lon="9.13829496341434"><ele>461.0</ele><time>2026-04-25T13:09:44.001Z</time></trkpt><trkpt lat="46.0469471970326" lon="9.138271562183778"><ele>462.8333333333333</ele><time>2026-04-25T13:09:45.001Z</time></trkpt><trkpt lat="46.04702774672548" lon="9.13823508218916"><ele>464.66666666666663</ele><time>2026-04-25T13:09:46.001Z</time></trkpt><trkpt lat="46.047090864793596" lon="9.138168735201987"><ele>466.5</ele><time>2026-04-25T13:09:47.001Z</time></trkpt><trkpt lat="46.047129221962294" lon="9.138080733272965"><ele>468.33333333333337</ele><time>2026-04-25T13:09:48.001Z</time></trkpt><trkpt lat="46.04714557273853" lon="9.137971884851854"><ele>470.1666666666667</ele><time>2026-04-25T13:09:49.001Z</time></trkpt><trkpt lat="46.04713404279513" lon="9.137855252429992"><ele>472.0</ele><time>2026-04-25T13:09:50.001Z</time></trkpt><trkpt lat="46.0471005186869" lon="9.137721203694465"><ele>472.20000000000005</ele><time>2026-04-25T13:09:51.001Z</time></trkpt><trkpt lat="46.047066889034895" lon="9.137574621307522"><ele>472.40000000000003</ele><time>2026-04-25T13:09:52.001Z</time></trkpt><trkpt lat="46.04704155547702" lon="9.137420048592295"><ele>472.59999999999997</ele><time>2026-04-25T13:09:53.001Z</time></trkpt><trkpt lat="46.047032228928224" lon="9.137271957463291"><ele>472.79999999999995</ele><time>2026-04-25T13:09:54.001Z</time></trkpt><trkpt lat="46.047034213317666" lon="9.137139989272004"><ele>473.0</ele><time>2026-04-25T13:09:55.001Z</time></trkpt><trkpt lat="46.04701648608249" lon="9.137014854493046"><ele>473.49999999999994</ele><time>2026-04-25T13:09:56.001Z</time></trkpt><trkpt lat="46.04699203446555" lon="9.136912901839546"><ele>474.0</ele><time>2026-04-25T13:09:57.001Z</time></trkpt><trkpt lat="46.04696354882334" lon="9.136751850087226"><ele>474.5</ele><time>2026-04-25T13:09:59.001Z</time></trkpt><trkpt lat="46.047000357010866" lon="9.13667476332415"><ele>475.0</ele><time>2026-04-25T13:10:00.001Z</time></trkpt><trkpt lat="46.047058908492396" lon="9.13662265866434"><ele>475.49999999999994</ele><time>2026-04-25T13:10:01.001Z</time></trkpt><trkpt lat="46.04713773993583" lon="9.13660039485762"><ele>476.0</ele><time>2026-04-25T13:10:02.001Z</time></trkpt><trkpt lat="46.047226074516175" lon="9.136593313502953"><ele>476.0</ele><time>2026-04-25T13:10:03.001Z</time></trkpt><trkpt lat="46.04731540161983" lon="9.13657418690633"><ele>476.0</ele><time>2026-04-25T13:10:04.001Z</time></trkpt><trkpt lat="46.0473903271192" lon="9.13654773242011"><ele>476.0</ele><time>2026-04-25T13:10:05.001Z</time></trkpt><trkpt lat="46.04745800205878" lon="9.136518410351645"><ele>476.0</ele><time>2026-04-25T13:10:06.001Z</time></trkpt><trkpt lat="46.047559330744335" lon="9.136434859941932"><ele>476.0</ele><time>2026-04-25T13:10:08.002Z</time></trkpt><trkpt lat="46.047523042378764" lon="9.136303783808733"><ele>478.0</ele><time>2026-04-25T13:10:10.002Z</time></trkpt><trkpt lat="46.04748742077995" lon="9.136188072303428"><ele>480.0</ele><time>2026-04-25T13:10:11.002Z</time></trkpt><trkpt lat="46.04742731588984" lon="9.13606749386373"><ele>482.0</ele><time>2026-04-25T13:10:12.002Z</time></trkpt><trkpt lat="46.04735998947279" lon="9.13593645985897"><ele>484.0</ele><time>2026-04-25T13:10:13.002Z</time></trkpt><trkpt lat="46.04729293445093" lon="9.135792879775998"><ele>486.0</ele><time>2026-04-25T13:10:14.002Z</time></trkpt><trkpt lat="46.04723410559991" lon="9.135673892822744"><ele>487.5</ele><time>2026-04-25T13:10:15.002Z</time></trkpt><trkpt lat="46.047176172315766" lon="9.135559565645988"><ele>489.0</ele><time>2026-04-25T13:10:16.002Z</time></trkpt><trkpt lat="46.0471430104214" lon="9.135432659066133"><ele>490.5</ele><time>2026-04-25T13:10:17.002Z</time></trkpt><trkpt lat="46.047127731844796" lon="9.135331619780812"><ele>492.0</ele><time>2026-04-25T13:10:18.002Z</time></trkpt><trkpt lat="46.04715574253537" lon="9.135217551741093"><ele>493.5</ele><time>2026-04-25T13:10:19.002Z</time></trkpt><trkpt lat="46.047143732349184" lon="9.135095229155707"><ele>495.0</ele><time>2026-04-25T13:10:20.002Z</time></trkpt><trkpt lat="46.047093038715836" lon="9.134995254692392"><ele>495.0</ele><time>2026-04-25T13:10:21.002Z</time></trkpt><trkpt lat="46.047022313088874" lon="9.134925581321117"><ele>495.0</ele><time>2026-04-25T13:10:22.002Z</time></trkpt><trkpt lat="46.046941281736736" lon="9.134898757905281"><ele>495.0</ele><time>2026-04-25T13:10:23.002Z</time></trkpt><trkpt lat="46.04686911290788" lon="9.134838376616345"><ele>495.0</ele><time>2026-04-25T13:10:24.002Z</time></trkpt><trkpt lat="46.046838657753725" lon="9.134714465910438"><ele>495.0</ele><time>2026-04-25T13:10:25.002Z</time></trkpt><trkpt lat="46.04679106580975" lon="9.134612174978031"><ele>495.0</ele><time>2026-04-25T13:10:26.002Z</time></trkpt><trkpt lat="46.04675196280785" lon="9.134526238953244"><ele>496.3333333333333</ele><time>2026-04-25T13:10:27.002Z</time></trkpt><trkpt lat="46.04674407978251" lon="9.134408284065781"><ele>497.66666666666663</ele><time>2026-04-25T13:10:29.002Z</time></trkpt><trkpt lat="46.046821310409086" lon="9.134378190490482"><ele>499.0</ele><time>2026-04-25T13:10:31.002Z</time></trkpt><trkpt lat="46.046890593067644" lon="9.13447149706662"><ele>500.3333333333333</ele><time>2026-04-25T13:10:32.002Z</time></trkpt><trkpt lat="46.046910734992096" lon="9.134570638729153"><ele>501.66666666666663</ele><time>2026-04-25T13:10:33.002Z</time></trkpt><trkpt lat="46.046930824314245" lon="9.13468000528208"><ele>503.0</ele><time>2026-04-25T13:10:34.002Z</time></trkpt><trkpt lat="46.04697714055114" lon="9.13475525052324"><ele>502.99999999999994</ele><time>2026-04-25T13:10:35.002Z</time></trkpt><trkpt lat="46.04704961799826" lon="9.134776832056765"><ele>503.0</ele><time>2026-04-25T13:10:36.002Z</time></trkpt><trkpt lat="46.04712362663008" lon="9.134760908256895"><ele>503.0</ele><time>2026-04-25T13:10:37.002Z</time></trkpt><trkpt lat="46.04721331656583" lon="9.13471290551975"><ele>503.0</ele><time>2026-04-25T13:10:38.002Z</time></trkpt><trkpt lat="46.047317696596224" lon="9.134683239967817"><ele>502.99999999999994</ele><time>2026-04-25T13:10:39.002Z</time></trkpt><trkpt lat="46.047408994436914" lon="9.134673571864505"><ele>503.0</ele><time>2026-04-25T13:10:40.003Z</time></trkpt><trkpt lat="46.047484594019934" lon="9.134706051503123"><ele>505.4</ele><time>2026-04-25T13:10:41.003Z</time></trkpt><trkpt lat="46.047541852442194" lon="9.13479668037086"><ele>507.79999999999995</ele><time>2026-04-25T13:10:42.003Z</time></trkpt><trkpt lat="46.0475913053676" lon="9.134924294873013"><ele>510.2</ele><time>2026-04-25T13:10:43.003Z</time></trkpt><trkpt lat="46.047633262239955" lon="9.135050883624901"><ele>512.6</ele><time>2026-04-25T13:10:44.003Z</time></trkpt><trkpt lat="46.04768074328212" lon="9.13516776181804"><ele>515.0</ele><time>2026-04-25T13:10:45.003Z</time></trkpt><trkpt lat="46.047731829408825" lon="9.13526944381248"><ele>515.0</ele><time>2026-04-25T13:10:46.003Z</time></trkpt><trkpt lat="46.04779770449791" lon="9.135369432383882"><ele>515.0</ele><time>2026-04-25T13:10:47.003Z</time></trkpt><trkpt lat="46.04787833337469" lon="9.135440630345363"><ele>515.0</ele><time>2026-04-25T13:10:48.003Z</time></trkpt><trkpt lat="46.047991347153406" lon="9.135508038509078"><ele>515.0</ele><time>2026-04-25T13:10:49.003Z</time></trkpt><trkpt lat="46.04811954841434" lon="9.135586718977367"><ele>515.0</ele><time>2026-04-25T13:10:50.003Z</time></trkpt><trkpt lat="46.048228920161925" lon="9.135649259586373"><ele>515.0</ele><time>2026-04-25T13:10:51.003Z</time></trkpt><trkpt lat="46.04833215855642" lon="9.135713683034208"><ele>515.0</ele><time>2026-04-25T13:10:52.003Z</time></trkpt><trkpt lat="46.04841858040155" lon="9.135792116861717"><ele>515.0</ele><time>2026-04-25T13:10:53.003Z</time></trkpt><trkpt lat="46.0484853721262" lon="9.135891447192172"><ele>515.0</ele><time>2026-04-25T13:10:54.003Z</time></trkpt><trkpt lat="46.04854698804076" lon="9.135983908506443"><ele>517.2</ele><time>2026-04-25T13:10:55.003Z</time></trkpt><trkpt lat="46.0486299774554" lon="9.136040076337608"><ele>519.4</ele><time>2026-04-25T13:10:56.003Z</time></trkpt><trkpt lat="46.0487322593118" lon="9.136061750840454"><ele>521.6</ele><time>2026-04-25T13:10:57.003Z</time></trkpt><trkpt lat="46.048835705191614" lon="9.136065355153026"><ele>523.8</ele><time>2026-04-25T13:10:58.003Z</time></trkpt><trkpt lat="46.04892542463163" lon="9.136096208575786"><ele>526.0</ele><time>2026-04-25T13:10:59.003Z</time></trkpt><trkpt lat="46.048995305082606" lon="9.136169799407607"><ele>526.0</ele><time>2026-04-25T13:11:00.003Z</time></trkpt><trkpt lat="46.04903001261507" lon="9.136286457462727"><ele>526.0</ele><time>2026-04-25T13:11:01.003Z</time></trkpt><trkpt lat="46.04907501013787" lon="9.136388140124286"><ele>526.0</ele><time>2026-04-25T13:11:02.003Z</time></trkpt><trkpt lat="46.04909442527968" lon="9.136476850251183"><ele>526.0</ele><time>2026-04-25T13:11:03.003Z</time></trkpt><trkpt lat="46.04913801477375" lon="9.136576782962983"><ele>526.0</ele><time>2026-04-25T13:11:05.003Z</time></trkpt><trkpt lat="46.04918894751479" lon="9.136644832296389"><ele>526.0</ele><time>2026-04-25T13:11:06.998Z</time></trkpt><trkpt lat="46.04924110191263" lon="9.136715597754744"><ele>529.3333333333334</ele><time>2026-04-25T13:11:07.998Z</time></trkpt><trkpt lat="46.04929779543875" lon="9.136823837586983"><ele>532.6666666666667</ele><time>2026-04-25T13:11:08.998Z</time></trkpt><trkpt lat="46.04934563006572" lon="9.13693441122506"><ele>536.0</ele><time>2026-04-25T13:11:09.998Z</time></trkpt><trkpt lat="46.04939235242014" lon="9.13702269600041"><ele>539.3333333333334</ele><time>2026-04-25T13:11:10.998Z</time></trkpt><trkpt lat="46.0494440536449" lon="9.137128884099004"><ele>542.6666666666666</ele><time>2026-04-25T13:11:11.999Z</time></trkpt><trkpt lat="46.0494935236284" lon="9.137237028109467"><ele>546.0</ele><time>2026-04-25T13:11:12.999Z</time></trkpt><trkpt lat="46.04954472851587" lon="9.137342018115769"><ele>544.6666666666666</ele><time>2026-04-25T13:11:13.999Z</time></trkpt><trkpt lat="46.04958463405539" lon="9.13742631119693"><ele>543.3333333333334</ele><time>2026-04-25T13:11:14.999Z</time></trkpt><trkpt lat="46.04961164616866" lon="9.137518766809672"><ele>542.0</ele><time>2026-04-25T13:11:15.999Z</time></trkpt><trkpt lat="46.049622425297265" lon="9.137633740226851"><ele>540.6666666666667</ele><time>2026-04-25T13:11:16.999Z</time></trkpt><trkpt lat="46.04961358647143" lon="9.137776279171279"><ele>539.3333333333334</ele><time>2026-04-25T13:11:17.999Z</time></trkpt><trkpt lat="46.049626379554894" lon="9.137901829734178"><ele>538.0</ele><time>2026-04-25T13:11:18.999Z</time></trkpt><trkpt lat="46.04964264549139" lon="9.138023127926791"><ele>538.0</ele><time>2026-04-25T13:11:19.999Z</time></trkpt><trkpt lat="46.049677723099435" lon="9.138134041486198"><ele>538.0</ele><time>2026-04-25T13:11:20.999Z</time></trkpt><trkpt lat="46.04972652470924" lon="9.138214123941998"><ele>538.0</ele><time>2026-04-25T13:11:21.999Z</time></trkpt><trkpt lat="46.04977454111288" lon="9.138327868752503"><ele>538.0</ele><time>2026-04-25T13:11:22.999Z</time></trkpt><trkpt lat="46.04979948377793" lon="9.138434954733832"><ele>538.0</ele><time>2026-04-25T13:11:23.999Z</time></trkpt><trkpt lat="46.04980996790173" lon="9.13855256548206"><ele>538.0</ele><time>2026-04-25T13:11:24.999Z</time></trkpt><trkpt lat="46.04984251522971" lon="9.138657026735572"><ele>537.5</ele><time>2026-04-25T13:11:25.999Z</time></trkpt><trkpt lat="46.049887982028174" lon="9.138768815532975"><ele>537.0</ele><time>2026-04-25T13:11:27Z</time></trkpt><trkpt lat="46.049912961242214" lon="9.138873605117684"><ele>536.5</ele><time>2026-04-25T13:11:28Z</time></trkpt><trkpt lat="46.04995962774849" lon="9.138944407058757"><ele>536.0</ele><time>2026-04-25T13:11:29Z</time></trkpt><trkpt lat="46.05002825596165" lon="9.139069315786047"><ele>535.5</ele><time>2026-04-25T13:11:31Z</time></trkpt><trkpt lat="46.05010495836131" lon="9.139067094510485"><ele>535.0</ele><time>2026-04-25T13:11:33Z</time></trkpt><trkpt lat="46.05009940940243" lon="9.13891398324262"><ele>541.4</ele><time>2026-04-25T13:11:35Z</time></trkpt><trkpt lat="46.05007338574492" lon="9.138819689323556"><ele>547.8</ele><time>2026-04-25T13:11:36Z</time></trkpt><trkpt lat="46.050077058063515" lon="9.138705109214992"><ele>554.2</ele><time>2026-04-25T13:11:37Z</time></trkpt><trkpt lat="46.050077956773876" lon="9.138572348032817"><ele>560.6</ele><time>2026-04-25T13:11:38Z</time></trkpt><trkpt lat="46.05006755564873" lon="9.13843058563773"><ele>567.0</ele><time>2026-04-25T13:11:39Z</time></trkpt><trkpt lat="46.05009232254172" lon="9.138273439017096"><ele>568.75</ele><time>2026-04-25T13:11:40Z</time></trkpt><trkpt lat="46.050087411654054" lon="9.138086111805181"><ele>570.5</ele><time>2026-04-25T13:11:41Z</time></trkpt><trkpt lat="46.05009845362629" lon="9.13791614356892"><ele>572.25</ele><time>2026-04-25T13:11:42Z</time></trkpt><trkpt lat="46.05010407256319" lon="9.137751454430584"><ele>574.0</ele><time>2026-04-25T13:11:43Z</time></trkpt><trkpt lat="46.05010662196716" lon="9.137575967770577"><ele>574.0</ele><time>2026-04-25T13:11:44.001Z</time></trkpt><trkpt lat="46.05011144695565" lon="9.137396544967155"><ele>574.0</ele><time>2026-04-25T13:11:45.001Z</time></trkpt><trkpt lat="46.05010070470969" lon="9.137213581996457"><ele>574.0</ele><time>2026-04-25T13:11:46.001Z</time></trkpt><trkpt lat="46.05008643817031" lon="9.13705770372641"><ele>574.0</ele><time>2026-04-25T13:11:47.001Z</time></trkpt><trkpt lat="46.05008776358389" lon="9.136921891881295"><ele>575.6666666666667</ele><time>2026-04-25T13:11:48.001Z</time></trkpt><trkpt lat="46.05008039715289" lon="9.136804673150134"><ele>577.3333333333334</ele><time>2026-04-25T13:11:49.001Z</time></trkpt><trkpt lat="46.050065391679794" lon="9.136706765317312"><ele>579.0</ele><time>2026-04-25T13:11:50.001Z</time></trkpt><trkpt lat="46.05003604321877" lon="9.136612884727388"><ele>580.6666666666666</ele><time>2026-04-25T13:11:51.001Z</time></trkpt><trkpt lat="46.049994639124556" lon="9.136541301920673"><ele>582.3333333333333</ele><time>2026-04-25T13:11:52.001Z</time></trkpt><trkpt lat="46.0499722606807" lon="9.136391107510066"><ele>584.0</ele><time>2026-04-25T13:11:54.001Z</time></trkpt><trkpt lat="46.04998555598074" lon="9.136202787137748"><ele>582.0</ele><time>2026-04-25T13:11:56.001Z</time></trkpt><trkpt lat="46.04999030977074" lon="9.136088694123798"><ele>580.0</ele><time>2026-04-25T13:11:57.001Z</time></trkpt><trkpt lat="46.049967319772044" lon="9.135974023148712"><ele>578.0</ele><time>2026-04-25T13:11:58.001Z</time></trkpt><trkpt lat="46.04990801992299" lon="9.135887486230395"><ele>576.0</ele><time>2026-04-25T13:11:59.001Z</time></trkpt><trkpt lat="46.049870271485524" lon="9.135791933827775"><ele>574.0</ele><time>2026-04-25T13:12:00.001Z</time></trkpt><trkpt lat="46.04982835427045" lon="9.135699703816796"><ele>572.0</ele><time>2026-04-25T13:12:01.001Z</time></trkpt><trkpt lat="46.04980204663173" lon="9.135610186800585"><ele>572.0</ele><time>2026-04-25T13:12:02.001Z</time></trkpt><trkpt lat="46.04978712269239" lon="9.135516670415234"><ele>572.0</ele><time>2026-04-25T13:12:03.001Z</time></trkpt><trkpt lat="46.049790210922275" lon="9.135422451777583"><ele>572.0</ele><time>2026-04-25T13:12:04.001Z</time></trkpt><trkpt lat="46.04980222812636" lon="9.135320493324091"><ele>572.0</ele><time>2026-04-25T13:12:05.001Z</time></trkpt><trkpt lat="46.04983917863896" lon="9.135225931058654"><ele>572.0</ele><time>2026-04-25T13:12:06.001Z</time></trkpt><trkpt lat="46.04988086217521" lon="9.135113654700277"><ele>572.0</ele><time>2026-04-25T13:12:07.001Z</time></trkpt><trkpt lat="46.049916312423214" lon="9.135005716020101"><ele>572.0</ele><time>2026-04-25T13:12:08.001Z</time></trkpt><trkpt lat="46.0499278800256" lon="9.134912365420018"><ele>572.0</ele><time>2026-04-25T13:12:09.001Z</time></trkpt><trkpt lat="46.04997510991281" lon="9.134750194210598"><ele>572.0</ele><time>2026-04-25T13:12:10.001Z</time></trkpt><trkpt lat="46.04999957417555" lon="9.134623044230395"><ele>572.0</ele><time>2026-04-25T13:12:11.002Z</time></trkpt><trkpt lat="46.05004923127762" lon="9.134510645769135"><ele>572.0</ele><time>2026-04-25T13:12:12.002Z</time></trkpt><trkpt lat="46.05007350256187" lon="9.134396245422622"><ele>579.8333333333333</ele><time>2026-04-25T13:12:13.002Z</time></trkpt><trkpt lat="46.0500971631049" lon="9.134274076454748"><ele>587.6666666666666</ele><time>2026-04-25T13:12:14.002Z</time></trkpt><trkpt lat="46.050125257052855" lon="9.1341681930354"><ele>595.5</ele><time>2026-04-25T13:12:15.002Z</time></trkpt><trkpt lat="46.05015581568807" lon="9.134069890480752"><ele>603.3333333333334</ele><time>2026-04-25T13:12:16.002Z</time></trkpt><trkpt lat="46.050172754373435" lon="9.133980088594633"><ele>611.1666666666667</ele><time>2026-04-25T13:12:17.002Z</time></trkpt><trkpt lat="46.050175098840946" lon="9.133887608571326"><ele>619.0</ele><time>2026-04-25T13:12:18.002Z</time></trkpt><trkpt lat="46.05012220223726" lon="9.133771028465098"><ele>620.4</ele><time>2026-04-25T13:12:20.002Z</time></trkpt><trkpt lat="46.05006007376376" lon="9.133749345228098"><ele>621.8</ele><time>2026-04-25T13:12:21.002Z</time></trkpt><trkpt lat="46.04993934995827" lon="9.133844274310661"><ele>623.2</ele><time>2026-04-25T13:12:23.002Z</time></trkpt><trkpt lat="46.049829411922694" lon="9.133933395008071"><ele>624.6</ele><time>2026-04-25T13:12:25.002Z</time></trkpt><trkpt lat="46.049743531679106" lon="9.133931539056174"><ele>626.0</ele><time>2026-04-25T13:12:27.002Z</time></trkpt><trkpt lat="46.049686426848595" lon="9.133786430292345"><ele>623.5</ele><time>2026-04-25T13:12:29.002Z</time></trkpt><trkpt lat="46.04966555224332" lon="9.133690563754648"><ele>621.0</ele><time>2026-04-25T13:12:30.002Z</time></trkpt><trkpt lat="46.04963641713097" lon="9.13358701879079"><ele>618.5</ele><time>2026-04-25T13:12:31.002Z</time></trkpt><trkpt lat="46.049609232458806" lon="9.133474646957621"><ele>616.0</ele><time>2026-04-25T13:12:32.002Z</time></trkpt><trkpt lat="46.04958284694884" lon="9.133350894001712"><ele>613.5</ele><time>2026-04-25T13:12:33.002Z</time></trkpt><trkpt lat="46.04956051684693" lon="9.133230125500766"><ele>611.0</ele><time>2026-04-25T13:12:34.002Z</time></trkpt><trkpt lat="46.04953947618773" lon="9.133101461713466"><ele>611.0</ele><time>2026-04-25T13:12:35.002Z</time></trkpt><trkpt lat="46.04952309817075" lon="9.132953455448012"><ele>611.0</ele><time>2026-04-25T13:12:36.002Z</time></trkpt><trkpt lat="46.049514952933286" lon="9.132796844331363"><ele>611.0</ele><time>2026-04-25T13:12:37.002Z</time></trkpt><trkpt lat="46.04951284221387" lon="9.13263196221765"><ele>611.0</ele><time>2026-04-25T13:12:38.002Z</time></trkpt><trkpt lat="46.0495140907876" lon="9.1325005929507"><ele>611.0</ele><time>2026-04-25T13:12:39.002Z</time></trkpt><trkpt lat="46.04951328677477" lon="9.132356137346722"><ele>613.6666666666666</ele><time>2026-04-25T13:12:40.002Z</time></trkpt><trkpt lat="46.049509618489495" lon="9.132226683397525"><ele>616.3333333333333</ele><time>2026-04-25T13:12:41.002Z</time></trkpt><trkpt lat="46.049487793745215" lon="9.132136892088447"><ele>619.0</ele><time>2026-04-25T13:12:42.002Z</time></trkpt><trkpt lat="46.04945017961945" lon="9.131985890664568"><ele>621.6666666666666</ele><time>2026-04-25T13:12:44.003Z</time></trkpt><trkpt lat="46.04939405700343" lon="9.131910611206214"><ele>624.3333333333334</ele><time>2026-04-25T13:12:45.003Z</time></trkpt><trkpt lat="46.04935714048969" lon="9.13182541014301"><ele>627.0</ele><time>2026-04-25T13:12:46.003Z</time></trkpt><trkpt lat="46.04929668321284" lon="9.131669882140452"><ele>627.0</ele><time>2026-04-25T13:12:48.003Z</time></trkpt><trkpt lat="46.049323282312116" lon="9.131584842723077"><ele>627.0</ele><time>2026-04-25T13:12:49.003Z</time></trkpt><trkpt lat="46.04937773912356" lon="9.131406025282232"><ele>627.0</ele><time>2026-04-25T13:12:51.003Z</time></trkpt><trkpt lat="46.049407602638375" lon="9.131311764209563"><ele>627.0</ele><time>2026-04-25T13:12:52.003Z</time></trkpt><trkpt lat="46.04942826633583" lon="9.131217368436621"><ele>627.0</ele><time>2026-04-25T13:12:54.003Z</time></trkpt><trkpt lat="46.04943879593394" lon="9.13109832794385"><ele>627.0</ele><time>2026-04-25T13:12:57.003Z</time></trkpt><trkpt lat="46.04939951988378" lon="9.130989734396348"><ele>628.7142857142858</ele><time>2026-04-25T13:12:58.003Z</time></trkpt><trkpt lat="46.049368555289824" lon="9.130882523479112"><ele>630.4285714285714</ele><time>2026-04-25T13:12:59.003Z</time></trkpt><trkpt lat="46.04933571486273" lon="9.130774160809366"><ele>632.1428571428571</ele><time>2026-04-25T13:13:00.003Z</time></trkpt><trkpt lat="46.049310017033676" lon="9.130683793801667"><ele>633.8571428571429</ele><time>2026-04-25T13:13:01.003Z</time></trkpt><trkpt lat="46.04928414004294" lon="9.130589022839082"><ele>635.5714285714286</ele><time>2026-04-25T13:13:02.003Z</time></trkpt><trkpt lat="46.04925914489694" lon="9.130493177556845"><ele>637.2857142857143</ele><time>2026-04-25T13:13:03.003Z</time></trkpt><trkpt lat="46.04923677796197" lon="9.130401796771377"><ele>639.0</ele><time>2026-04-25T13:13:04.003Z</time></trkpt><trkpt lat="46.049215669354176" lon="9.130308908681275"><ele>640.6666666666666</ele><time>2026-04-25T13:13:05.003Z</time></trkpt><trkpt lat="46.04921404215374" lon="9.130213951556504"><ele>642.3333333333334</ele><time>2026-04-25T13:13:06.003Z</time></trkpt><trkpt lat="46.04922336975365" lon="9.130099022626542"><ele>644.0</ele><time>2026-04-25T13:13:07.003Z</time></trkpt><trkpt lat="46.049238705723916" lon="9.129980156131294"><ele>645.6666666666667</ele><time>2026-04-25T13:13:08.003Z</time></trkpt><trkpt lat="46.049239617023986" lon="9.129837043175078"><ele>647.3333333333334</ele><time>2026-04-25T13:13:09.003Z</time></trkpt><trkpt lat="46.04921776422663" lon="9.129701833221933"><ele>649.0</ele><time>2026-04-25T13:13:10.003Z</time></trkpt><trkpt lat="46.049180524291245" lon="9.129586287191295"><ele>650.6</ele><time>2026-04-25T13:13:11.003Z</time></trkpt><trkpt lat="46.04917794550744" lon="9.129450215887433"><ele>652.2</ele><time>2026-04-25T13:13:12.003Z</time></trkpt><trkpt lat="46.04916802132341" lon="9.129332215742508"><ele>653.8000000000001</ele><time>2026-04-25T13:13:12.998Z</time></trkpt><trkpt lat="46.04916464891151" lon="9.129194253962858"><ele>655.4000000000001</ele><time>2026-04-25T13:13:13.998Z</time></trkpt><trkpt lat="46.04916088979104" lon="9.129062655786456"><ele>657.0</ele><time>2026-04-25T13:13:14.998Z</time></trkpt><trkpt lat="46.04913939687181" lon="9.128915863119522"><ele>656.6</ele><time>2026-04-25T13:13:15.998Z</time></trkpt><trkpt lat="46.0491085204289" lon="9.12876497756177"><ele>656.2</ele><time>2026-04-25T13:13:16.999Z</time></trkpt><trkpt lat="46.049084944237634" lon="9.128621663625351"><ele>655.8</ele><time>2026-04-25T13:13:17.999Z</time></trkpt><trkpt lat="46.049070963852294" lon="9.128464310017076"><ele>655.4</ele><time>2026-04-25T13:13:18.999Z</time></trkpt><trkpt lat="46.049064233602735" lon="9.12829347664533"><ele>655.0</ele><time>2026-04-25T13:13:19.999Z</time></trkpt><trkpt lat="46.049064516714516" lon="9.128121804714814"><ele>655.0</ele><time>2026-04-25T13:13:20.999Z</time></trkpt><trkpt lat="46.049064096134806" lon="9.127977172692782"><ele>655.0</ele><time>2026-04-25T13:13:21.999Z</time></trkpt><trkpt lat="46.04904809482123" lon="9.127827736253238"><ele>655.0</ele><time>2026-04-25T13:13:22.999Z</time></trkpt><trkpt lat="46.0489955941008" lon="9.127661852267662"><ele>655.0</ele><time>2026-04-25T13:13:23.999Z</time></trkpt><trkpt lat="46.04893400495004" lon="9.12749012055869"><ele>660.5</ele><time>2026-04-25T13:13:24.999Z</time></trkpt><trkpt lat="46.04886876048753" lon="9.127325609471853"><ele>666.0</ele><time>2026-04-25T13:13:25.999Z</time></trkpt><trkpt lat="46.048799973662085" lon="9.127178582130245"><ele>671.5</ele><time>2026-04-25T13:13:26.999Z</time></trkpt><trkpt lat="46.04873255118209" lon="9.127051724840076"><ele>677.0</ele><time>2026-04-25T13:13:27.999Z</time></trkpt><trkpt lat="46.04866490444335" lon="9.12694463366424"><ele>677.0</ele><time>2026-04-25T13:13:28.999Z</time></trkpt><trkpt lat="46.048589900681556" lon="9.12684689361328"><ele>677.0</ele><time>2026-04-25T13:13:29.999Z</time></trkpt><trkpt lat="46.04851980951155" lon="9.126759779198942"><ele>677.0</ele><time>2026-04-25T13:13:30.999Z</time></trkpt><trkpt lat="46.04844535709199" lon="9.12666724435815"><ele>677.0</ele><time>2026-04-25T13:13:32Z</time></trkpt><trkpt lat="46.048373926848406" lon="9.126567587215563"><ele>677.0</ele><time>2026-04-25T13:13:33Z</time></trkpt><trkpt lat="46.04830228400417" lon="9.126448382675175"><ele>677.2</ele><time>2026-04-25T13:13:34Z</time></trkpt><trkpt lat="46.04823282030688" lon="9.12631110400635"><ele>677.4000000000001</ele><time>2026-04-25T13:13:35Z</time></trkpt><trkpt lat="46.04816505544197" lon="9.126178717143523"><ele>677.5999999999999</ele><time>2026-04-25T13:13:36Z</time></trkpt><trkpt lat="46.04810161864342" lon="9.126054785630094"><ele>677.8</ele><time>2026-04-25T13:13:37Z</time></trkpt><trkpt lat="46.04803565419213" lon="9.125945414616977"><ele>678.0</ele><time>2026-04-25T13:13:38Z</time></trkpt><trkpt lat="46.04797345243261" lon="9.125836838476987"><ele>678.0</ele><time>2026-04-25T13:13:39Z</time></trkpt><trkpt lat="46.04790131530717" lon="9.125732697643123"><ele>678.0</ele><time>2026-04-25T13:13:40Z</time></trkpt><trkpt lat="46.047818385337436" lon="9.125635823937667"><ele>678.0</ele><time>2026-04-25T13:13:41Z</time></trkpt><trkpt lat="46.0477430107959" lon="9.125546310281548"><ele>678.0</ele><time>2026-04-25T13:13:42Z</time></trkpt><trkpt lat="46.047690287265304" lon="9.125475619327748"><ele>678.0</ele><time>2026-04-25T13:13:43Z</time></trkpt><trkpt lat="46.047635666316765" lon="9.125399415091087"><ele>676.4</ele><time>2026-04-25T13:13:44Z</time></trkpt><trkpt lat="46.04758218506851" lon="9.125307535721184"><ele>674.8</ele><time>2026-04-25T13:13:46Z</time></trkpt><trkpt lat="46.04752573557055" lon="9.125184073892106"><ele>673.2</ele><time>2026-04-25T13:13:48Z</time></trkpt><trkpt lat="46.047478473360314" lon="9.12506441523635"><ele>671.6</ele><time>2026-04-25T13:13:49Z</time></trkpt><trkpt lat="46.0474210880766" lon="9.124956152553859"><ele>670.0</ele><time>2026-04-25T13:13:50.001Z</time></trkpt><trkpt lat="46.04736607321495" lon="9.124830676278087"><ele>670.0</ele><time>2026-04-25T13:13:51.001Z</time></trkpt><trkpt lat="46.04730920330046" lon="9.124681242219529"><ele>670.0</ele><time>2026-04-25T13:13:52.001Z</time></trkpt><trkpt lat="46.047257975985495" lon="9.124537315414589"><ele>670.0</ele><time>2026-04-25T13:13:53.001Z</time></trkpt><trkpt lat="46.047218324024755" lon="9.124407399750762"><ele>670.0</ele><time>2026-04-25T13:13:54.001Z</time></trkpt><trkpt lat="46.04718327622095" lon="9.124275122633172"><ele>670.0</ele><time>2026-04-25T13:13:55.001Z</time></trkpt><trkpt lat="46.04715328450335" lon="9.124140237535716"><ele>674.2</ele><time>2026-04-25T13:13:56.001Z</time></trkpt><trkpt lat="46.04712454824793" lon="9.12400978271743"><ele>678.4</ele><time>2026-04-25T13:13:57.001Z</time></trkpt><trkpt lat="46.047101448637264" lon="9.123873476446924"><ele>682.5999999999999</ele><time>2026-04-25T13:13:58.001Z</time></trkpt><trkpt lat="46.04707146947129" lon="9.123746941825246"><ele>686.8</ele><time>2026-04-25T13:13:59.001Z</time></trkpt><trkpt lat="46.04703930650618" lon="9.123624172853962"><ele>691.0</ele><time>2026-04-25T13:14:00.001Z</time></trkpt><trkpt lat="46.047008297116356" lon="9.123503443296192"><ele>691.0</ele><time>2026-04-25T13:14:01.001Z</time></trkpt><trkpt lat="46.04698640385135" lon="9.123386406501664"><ele>691.0</ele><time>2026-04-25T13:14:02.001Z</time></trkpt><trkpt lat="46.04698584407686" lon="9.123264871073175"><ele>691.0</ele><time>2026-04-25T13:14:03.001Z</time></trkpt><trkpt lat="46.04699170328431" lon="9.123146499993911"><ele>691.0</ele><time>2026-04-25T13:14:04.001Z</time></trkpt><trkpt lat="46.0470104549312" lon="9.123019749889927"><ele>691.0</ele><time>2026-04-25T13:14:05.001Z</time></trkpt><trkpt lat="46.04703548719945" lon="9.122894946945491"><ele>691.0</ele><time>2026-04-25T13:14:06.001Z</time></trkpt><trkpt lat="46.04706584080695" lon="9.122761544031704"><ele>692.0</ele><time>2026-04-25T13:14:07.001Z</time></trkpt><trkpt lat="46.047107827448166" lon="9.122626804817275"><ele>693.0</ele><time>2026-04-25T13:14:08.001Z</time></trkpt><trkpt lat="46.04715349265529" lon="9.122485192248607"><ele>694.0</ele><time>2026-04-25T13:14:09.001Z</time></trkpt><trkpt lat="46.047209357874166" lon="9.122327834940345"><ele>695.0</ele><time>2026-04-25T13:14:10.001Z</time></trkpt><trkpt lat="46.04726212109525" lon="9.122160935293257"><ele>695.0</ele><time>2026-04-25T13:14:11.001Z</time></trkpt><trkpt lat="46.04732796996515" lon="9.121986039126034"><ele>695.0</ele><time>2026-04-25T13:14:12.001Z</time></trkpt><trkpt lat="46.047376319860525" lon="9.121823119383137"><ele>695.0</ele><time>2026-04-25T13:14:13.001Z</time></trkpt><trkpt lat="46.04741243125096" lon="9.12165816549191"><ele>695.0</ele><time>2026-04-25T13:14:14.001Z</time></trkpt><trkpt lat="46.04745830328395" lon="9.121516604407875"><ele>698.8</ele><time>2026-04-25T13:14:15.001Z</time></trkpt><trkpt lat="46.0474905788462" lon="9.121367907840966"><ele>702.6</ele><time>2026-04-25T13:14:16.001Z</time></trkpt><trkpt lat="46.0475231639323" lon="9.121229072551687"><ele>706.4000000000001</ele><time>2026-04-25T13:14:17.001Z</time></trkpt><trkpt lat="46.04756428245159" lon="9.121090452109977"><ele>710.2</ele><time>2026-04-25T13:14:18.002Z</time></trkpt><trkpt lat="46.047594796257265" lon="9.120940684594164"><ele>714.0</ele><time>2026-04-25T13:14:19.002Z</time></trkpt><trkpt lat="46.047648731086085" lon="9.120799339220925"><ele>708.5</ele><time>2026-04-25T13:14:20.002Z</time></trkpt><trkpt lat="46.04771545159326" lon="9.120664452855587"><ele>703.0</ele><time>2026-04-25T13:14:21.002Z</time></trkpt><trkpt lat="46.04779383516181" lon="9.120502402622495"><ele>697.5</ele><time>2026-04-25T13:14:22.002Z</time></trkpt><trkpt lat="46.047874493682905" lon="9.120349987823436"><ele>692.0</ele><time>2026-04-25T13:14:23.002Z</time></trkpt><trkpt lat="46.047949176032276" lon="9.120207367866454"><ele>692.0</ele><time>2026-04-25T13:14:24.002Z</time></trkpt><trkpt lat="46.04802847306117" lon="9.120085887476463"><ele>692.0</ele><time>2026-04-25T13:14:25.002Z</time></trkpt><trkpt lat="46.04809623716876" lon="9.119977889580191"><ele>692.0</ele><time>2026-04-25T13:14:26.002Z</time></trkpt><trkpt lat="46.048149608959974" lon="9.119876500162833"><ele>692.0</ele><time>2026-04-25T13:14:27.002Z</time></trkpt><trkpt lat="46.04820468586161" lon="9.119804764344192"><ele>692.0</ele><time>2026-04-25T13:14:28.002Z</time></trkpt><trkpt lat="46.04832681302225" lon="9.119736271640779"><ele>695.6666666666666</ele><time>2026-04-25T13:14:30.002Z</time></trkpt><trkpt lat="46.04840044412723" lon="9.119730789777133"><ele>699.3333333333333</ele><time>2026-04-25T13:14:31.002Z</time></trkpt><trkpt lat="46.04847105850461" lon="9.119687481919255"><ele>703.0</ele><time>2026-04-25T13:14:32.002Z</time></trkpt><trkpt lat="46.0485388999736" lon="9.119608333967921"><ele>706.6666666666666</ele><time>2026-04-25T13:14:33.002Z</time></trkpt><trkpt lat="46.04860794202387" lon="9.119533582471831"><ele>710.3333333333334</ele><time>2026-04-25T13:14:34.002Z</time></trkpt><trkpt lat="46.0486483977004" lon="9.11944683798633"><ele>714.0</ele><time>2026-04-25T13:14:35.002Z</time></trkpt><trkpt lat="46.048742332993534" lon="9.11934186094634"><ele>714.0</ele><time>2026-04-25T13:14:37.002Z</time></trkpt><trkpt lat="46.048785959511065" lon="9.11927407273424"><ele>714.0</ele><time>2026-04-25T13:14:38.002Z</time></trkpt><trkpt lat="46.04883308408651" lon="9.119181173053743"><ele>714.0</ele><time>2026-04-25T13:14:39.002Z</time></trkpt><trkpt lat="46.04890183583987" lon="9.119091364156"><ele>714.0</ele><time>2026-04-25T13:14:40.002Z</time></trkpt><trkpt lat="46.04897077586472" lon="9.118979171915297"><ele>714.0</ele><time>2026-04-25T13:14:41.002Z</time></trkpt><trkpt lat="46.04904096225573" lon="9.118867817093081"><ele>714.0</ele><time>2026-04-25T13:14:42.002Z</time></trkpt><trkpt lat="46.04911826402041" lon="9.118771967575817"><ele>717.0</ele><time>2026-04-25T13:14:43.002Z</time></trkpt><trkpt lat="46.049200366539054" lon="9.118677336843213"><ele>720.0</ele><time>2026-04-25T13:14:44.002Z</time></trkpt><trkpt lat="46.04926437480984" lon="9.118575849294432"><ele>723.0</ele><time>2026-04-25T13:14:45.002Z</time></trkpt><trkpt lat="46.04931490106354" lon="9.11849740711556"><ele>726.0</ele><time>2026-04-25T13:14:46.002Z</time></trkpt><trkpt lat="46.049368525022295" lon="9.118370303615924"><ele>729.0</ele><time>2026-04-25T13:14:48.002Z</time></trkpt><trkpt lat="46.049455897876676" lon="9.118289056573987"><ele>729.0</ele><time>2026-04-25T13:14:50.002Z</time></trkpt><trkpt lat="46.04952326442012" lon="9.118281281092008"><ele>729.0</ele><time>2026-04-25T13:14:51.003Z</time></trkpt><trkpt lat="46.04961495244974" lon="9.118288726281195"><ele>729.0</ele><time>2026-04-25T13:14:52.003Z</time></trkpt><trkpt lat="46.04971751555948" lon="9.11830162365296"><ele>729.0</ele><time>2026-04-25T13:14:53.003Z</time></trkpt><trkpt lat="46.049820942202615" lon="9.118308952753894"><ele>729.0</ele><time>2026-04-25T13:14:54.003Z</time></trkpt><trkpt lat="46.049904439356006" lon="9.118298511219342"><ele>728.6666666666666</ele><time>2026-04-25T13:14:55.003Z</time></trkpt><trkpt lat="46.04998593895738" lon="9.118270035192586"><ele>728.3333333333334</ele><time>2026-04-25T13:14:56.003Z</time></trkpt><trkpt lat="46.0500712369256" lon="9.118240127661215"><ele>728.0</ele><time>2026-04-25T13:14:57.003Z</time></trkpt><trkpt lat="46.050151292229074" lon="9.118212454650424"><ele>727.6666666666667</ele><time>2026-04-25T13:14:58.003Z</time></trkpt><trkpt lat="46.0502377476378" lon="9.118182225483693"><ele>727.3333333333334</ele><time>2026-04-25T13:14:59.003Z</time></trkpt><trkpt lat="46.05033028060758" lon="9.118148135282677"><ele>727.0</ele><time>2026-04-25T13:15:00.003Z</time></trkpt><trkpt lat="46.05042616033197" lon="9.11811998568763"><ele>727.0</ele><time>2026-04-25T13:15:01.003Z</time></trkpt><trkpt lat="46.05053109556256" lon="9.118113578521136"><ele>727.0</ele><time>2026-04-25T13:15:02.003Z</time></trkpt><trkpt lat="46.050631837741605" lon="9.11810863381828"><ele>727.0</ele><time>2026-04-25T13:15:03.003Z</time></trkpt><trkpt lat="46.05073434541386" lon="9.118114683248946"><ele>727.0</ele><time>2026-04-25T13:15:04.003Z</time></trkpt><trkpt lat="46.05083763369656" lon="9.118057176389568"><ele>727.0</ele><time>2026-04-25T13:15:05.003Z</time></trkpt><trkpt lat="46.05089038958575" lon="9.11798868466823"><ele>729.8333333333334</ele><time>2026-04-25T13:15:06.003Z</time></trkpt><trkpt lat="46.05100875679035" lon="9.117886666343395"><ele>732.6666666666667</ele><time>2026-04-25T13:15:08.003Z</time></trkpt><trkpt lat="46.051091119918496" lon="9.117875469233615"><ele>735.5</ele><time>2026-04-25T13:15:09.003Z</time></trkpt><trkpt lat="46.05115815206916" lon="9.11787235499353"><ele>738.3333333333334</ele><time>2026-04-25T13:15:10.003Z</time></trkpt><trkpt lat="46.05123891822779" lon="9.117858068219274"><ele>741.1666666666666</ele><time>2026-04-25T13:15:11.003Z</time></trkpt><trkpt lat="46.051314127175154" lon="9.117847853950236"><ele>744.0</ele><time>2026-04-25T13:15:12.003Z</time></trkpt><trkpt lat="46.05138401230856" lon="9.117840943822996"><ele>744.0</ele><time>2026-04-25T13:15:13.003Z</time></trkpt><trkpt lat="46.05145521200408" lon="9.117839296264343"><ele>744.0</ele><time>2026-04-25T13:15:14.003Z</time></trkpt><trkpt lat="46.05153208869639" lon="9.117853727662935"><ele>744.0</ele><time>2026-04-25T13:15:15.003Z</time></trkpt><trkpt lat="46.05160921228973" lon="9.117879139286016"><ele>744.0</ele><time>2026-04-25T13:15:16.003Z</time></trkpt><trkpt lat="46.05168810792162" lon="9.117905550255204"><ele>744.0</ele><time>2026-04-25T13:15:17.003Z</time></trkpt><trkpt lat="46.05176843328783" lon="9.117896810409373"><ele>744.0</ele><time>2026-04-25T13:15:18.003Z</time></trkpt><trkpt lat="46.05184130789505" lon="9.117847720969282"><ele>747.8000000000001</ele><time>2026-04-25T13:15:18.998Z</time></trkpt><trkpt lat="46.05191363148817" lon="9.117785355326843"><ele>751.6</ele><time>2026-04-25T13:15:19.998Z</time></trkpt><trkpt lat="46.051985724519135" lon="9.117725081462906"><ele>755.4</ele><time>2026-04-25T13:15:20.998Z</time></trkpt><trkpt lat="46.05205297761491" lon="9.117675165649976"><ele>759.2</ele><time>2026-04-25T13:15:21.998Z</time></trkpt><trkpt lat="46.052169157094404" lon="9.117633058218136"><ele>763.0</ele><time>2026-04-25T13:15:23.999Z</time></trkpt><trkpt lat="46.052279625075975" lon="9.117718060500401"><ele>763.0</ele><time>2026-04-25T13:15:25.999Z</time></trkpt><trkpt lat="46.052330426934" lon="9.11781079850005"><ele>763.0</ele><time>2026-04-25T13:15:26.999Z</time></trkpt><trkpt lat="46.05239161626375" lon="9.117916851814428"><ele>763.0</ele><time>2026-04-25T13:15:27.999Z</time></trkpt><trkpt lat="46.05246488500691" lon="9.118026705483695"><ele>763.0</ele><time>2026-04-25T13:15:28.999Z</time></trkpt><trkpt lat="46.05253905154418" lon="9.118142638437968"><ele>763.0</ele><time>2026-04-25T13:15:29.999Z</time></trkpt><trkpt lat="46.05261828874888" lon="9.118259057160186"><ele>767.5</ele><time>2026-04-25T13:15:30.999Z</time></trkpt><trkpt lat="46.052704251226324" lon="9.118361637545808"><ele>772.0</ele><time>2026-04-25T13:15:31.999Z</time></trkpt><trkpt lat="46.05279988354473" lon="9.118461932693027"><ele>776.5</ele><time>2026-04-25T13:15:32.999Z</time></trkpt><trkpt lat="46.0529013689869" lon="9.118563019548235"><ele>781.0</ele><time>2026-04-25T13:15:33.999Z</time></trkpt><trkpt lat="46.05300799976739" lon="9.11866900745917"><ele>781.0</ele><time>2026-04-25T13:15:34.999Z</time></trkpt><trkpt lat="46.05311967646257" lon="9.118756968257896"><ele>781.0</ele><time>2026-04-25T13:15:35.999Z</time></trkpt><trkpt lat="46.05323540441422" lon="9.11882371184251"><ele>781.0</ele><time>2026-04-25T13:15:36.999Z</time></trkpt><trkpt lat="46.05334003719559" lon="9.118882191111872"><ele>781.0</ele><time>2026-04-25T13:15:38Z</time></trkpt><trkpt lat="46.05342824310166" lon="9.118931649551534"><ele>779.9999999999999</ele><time>2026-04-25T13:15:39Z</time></trkpt><trkpt lat="46.05349673065867" lon="9.118974557604327"><ele>779.0</ele><time>2026-04-25T13:15:40Z</time></trkpt><trkpt lat="46.053550197157094" lon="9.119034384474794"><ele>778.0</ele><time>2026-04-25T13:15:41Z</time></trkpt><trkpt lat="46.053586250238176" lon="9.119116020289841"><ele>777.0</ele><time>2026-04-25T13:15:42Z</time></trkpt><trkpt lat="46.05360607832412" lon="9.119215376580748"><ele>775.9999999999999</ele><time>2026-04-25T13:15:43Z</time></trkpt><trkpt lat="46.05361677044083" lon="9.119341014532377"><ele>775.0</ele><time>2026-04-25T13:15:44Z</time></trkpt><trkpt lat="46.053634353882636" lon="9.119489694682324"><ele>778.6666666666666</ele><time>2026-04-25T13:15:45Z</time></trkpt><trkpt lat="46.05364962336951" lon="9.119651069189748"><ele>782.3333333333333</ele><time>2026-04-25T13:15:46Z</time></trkpt><trkpt lat="46.053663840413066" lon="9.119788220974185"><ele>786.0</ele><time>2026-04-25T13:15:47Z</time></trkpt><trkpt lat="46.053697711218426" lon="9.119887573442101"><ele>789.6666666666667</ele><time>2026-04-25T13:15:48Z</time></trkpt><trkpt lat="46.053749831384685" lon="9.119977877064036"><ele>793.3333333333334</ele><time>2026-04-25T13:15:49Z</time></trkpt><trkpt lat="46.05381764979866" lon="9.120029470510739"><ele>797.0</ele><time>2026-04-25T13:15:50Z</time></trkpt><trkpt lat="46.05389679014891" lon="9.120046094283211"><ele>801.0</ele><time>2026-04-25T13:15:51Z</time></trkpt><trkpt lat="46.053995763501426" lon="9.12002643807272"><ele>805.0</ele><time>2026-04-25T13:15:52Z</time></trkpt><trkpt lat="46.05409762539932" lon="9.11998171257712"><ele>809.0</ele><time>2026-04-25T13:15:53Z</time></trkpt><trkpt lat="46.05421185896329" lon="9.119935913731767"><ele>813.0</ele><time>2026-04-25T13:15:54Z</time></trkpt><trkpt lat="46.05434295889674" lon="9.119905212654896"><ele>807.5</ele><time>2026-04-25T13:15:55Z</time></trkpt><trkpt lat="46.05446519973044" lon="9.119863589188448"><ele>802.0</ele><time>2026-04-25T13:15:56.001Z</time></trkpt><trkpt lat="46.054584001655094" lon="9.119817968949912"><ele>796.5</ele><time>2026-04-25T13:15:57.001Z</time></trkpt><trkpt lat="46.054700932363815" lon="9.119776524579004"><ele>791.0</ele><time>2026-04-25T13:15:58.001Z</time></trkpt><trkpt lat="46.054814535947145" lon="9.119720302394432"><ele>791.0</ele><time>2026-04-25T13:15:59.001Z</time></trkpt><trkpt lat="46.05492742797635" lon="9.11964091909625"><ele>791.0</ele><time>2026-04-25T13:16:00.001Z</time></trkpt><trkpt lat="46.05504068761625" lon="9.119544186009055"><ele>791.0</ele><time>2026-04-25T13:16:01.001Z</time></trkpt><trkpt lat="46.05515470883435" lon="9.119451514107528"><ele>791.0</ele><time>2026-04-25T13:16:02.001Z</time></trkpt><trkpt lat="46.05526214493277" lon="9.119382139598574"><ele>793.3333333333334</ele><time>2026-04-25T13:16:03.001Z</time></trkpt><trkpt lat="46.055362533024216" lon="9.119329432464896"><ele>795.6666666666667</ele><time>2026-04-25T13:16:04.001Z</time></trkpt><trkpt lat="46.0554488562001" lon="9.11929073203765"><ele>798.0</ele><time>2026-04-25T13:16:05.001Z</time></trkpt><trkpt lat="46.05551013728706" lon="9.119258545314844"><ele>800.3333333333333</ele><time>2026-04-25T13:16:06.001Z</time></trkpt><trkpt lat="46.05557439802209" lon="9.1192777129759"><ele>802.6666666666666</ele><time>2026-04-25T13:16:08.001Z</time></trkpt><trkpt lat="46.05553291307989" lon="9.119389363685807"><ele>805.0</ele><time>2026-04-25T13:16:11.001Z</time></trkpt><trkpt lat="46.055458119838576" lon="9.11938041074592"><ele>805.0</ele><time>2026-04-25T13:16:12.001Z</time></trkpt><trkpt lat="46.05538536590778" lon="9.119424212530218"><ele>805.0</ele><time>2026-04-25T13:16:13.001Z</time></trkpt><trkpt lat="46.055304586138675" lon="9.119484415495599"><ele>805.0</ele><time>2026-04-25T13:16:14.001Z</time></trkpt><trkpt lat="46.055221980285964" lon="9.11956847008085"><ele>805.0</ele><time>2026-04-25T13:16:15.001Z</time></trkpt><trkpt lat="46.05513597003381" lon="9.119680986227621"><ele>805.0</ele><time>2026-04-25T13:16:16.001Z</time></trkpt><trkpt lat="46.055052411731914" lon="9.119813105185722"><ele>808.25</ele><time>2026-04-25T13:16:17.001Z</time></trkpt><trkpt lat="46.054971136122965" lon="9.119930324689136"><ele>811.5</ele><time>2026-04-25T13:16:18.001Z</time></trkpt><trkpt lat="46.05487434350872" lon="9.120051630374777"><ele>814.75</ele><time>2026-04-25T13:16:19.001Z</time></trkpt><trkpt lat="46.05477846134931" lon="9.120170888325594"><ele>818.0</ele><time>2026-04-25T13:16:20.001Z</time></trkpt><trkpt lat="46.0546728957733" lon="9.120278370298847"><ele>818.0</ele><time>2026-04-25T13:16:21.001Z</time></trkpt><trkpt lat="46.054564071172685" lon="9.12035688396164"><ele>818.0</ele><time>2026-04-25T13:16:22.001Z</time></trkpt><trkpt lat="46.05444868309145" lon="9.120422378813648"><ele>818.0</ele><time>2026-04-25T13:16:23.001Z</time></trkpt><trkpt lat="46.05434459817932" lon="9.120491490448652"><ele>818.0</ele><time>2026-04-25T13:16:24.002Z</time></trkpt><trkpt lat="46.054254315959454" lon="9.120549486771672"><ele>818.0</ele><time>2026-04-25T13:16:25.002Z</time></trkpt><trkpt lat="46.05418478488478" lon="9.120597233071367"><ele>818.0</ele><time>2026-04-25T13:16:26.002Z</time></trkpt><trkpt lat="46.05414542380238" lon="9.12071412534011"><ele>818.0</ele><time>2026-04-25T13:16:28.002Z</time></trkpt><trkpt lat="46.054277583551496" lon="9.12071704441452"><ele>818.0</ele><time>2026-04-25T13:16:31.002Z</time></trkpt><trkpt lat="46.05434994322033" lon="9.12069284802771"><ele>818.0</ele><time>2026-04-25T13:16:32.002Z</time></trkpt><trkpt lat="46.05444841033059" lon="9.12063877417338"><ele>818.0</ele><time>2026-04-25T13:16:33.002Z</time></trkpt><trkpt lat="46.05455502282253" lon="9.12059190322909"><ele>818.0</ele><time>2026-04-25T13:16:34.002Z</time></trkpt><trkpt lat="46.0546554727274" lon="9.120523508946988"><ele>818.0</ele><time>2026-04-25T13:16:35.002Z</time></trkpt><trkpt lat="46.05475586862961" lon="9.120498658696354"><ele>818.0</ele><time>2026-04-25T13:16:36.002Z</time></trkpt><trkpt lat="46.05486354367717" lon="9.120443847252911"><ele>818.0</ele><time>2026-04-25T13:16:37.002Z</time></trkpt><trkpt lat="46.0549654525281" lon="9.120387258156047"><ele>822.5</ele><time>2026-04-25T13:16:38.002Z</time></trkpt><trkpt lat="46.05507848524064" lon="9.120323178996449"><ele>827.0</ele><time>2026-04-25T13:16:39.002Z</time></trkpt><trkpt lat="46.05518641085104" lon="9.12026288173656"><ele>831.5</ele><time>2026-04-25T13:16:40.002Z</time></trkpt><trkpt lat="46.05529124477281" lon="9.120206981132897"><ele>836.0</ele><time>2026-04-25T13:16:41.002Z</time></trkpt><trkpt lat="46.05539392737201" lon="9.120152227721123"><ele>836.0000000000001</ele><time>2026-04-25T13:16:42.002Z</time></trkpt><trkpt lat="46.05548967837773" lon="9.120100844039651"><ele>836.0</ele><time>2026-04-25T13:16:43.002Z</time></trkpt><trkpt lat="46.055567222037794" lon="9.120057941875457"><ele>836.0</ele><time>2026-04-25T13:16:44.002Z</time></trkpt><trkpt lat="46.05563361796227" lon="9.120011646009226"><ele>836.0</ele><time>2026-04-25T13:16:45.002Z</time></trkpt><trkpt lat="46.05569703450326" lon="9.120005659056545"><ele>836.0000000000001</ele><time>2026-04-25T13:16:46.002Z</time></trkpt><trkpt lat="46.055764968868544" lon="9.120042295288865"><ele>836.0</ele><time>2026-04-25T13:16:47.002Z</time></trkpt><trkpt lat="46.05582748289472" lon="9.120076859853102"><ele>835.3333333333334</ele><time>2026-04-25T13:16:48.002Z</time></trkpt><trkpt lat="46.05590779716293" lon="9.120036911865212"><ele>834.6666666666667</ele><time>2026-04-25T13:16:49.002Z</time></trkpt><trkpt lat="46.05598914070308" lon="9.119954979738205"><ele>834.0</ele><time>2026-04-25T13:16:50.002Z</time></trkpt><trkpt lat="46.056061052701985" lon="9.119871412355382"><ele>833.3333333333333</ele><time>2026-04-25T13:16:51.002Z</time></trkpt><trkpt lat="46.056102307301835" lon="9.119768497197"><ele>832.6666666666666</ele><time>2026-04-25T13:16:52.002Z</time></trkpt><trkpt lat="46.05611692705182" lon="9.119678006598832"><ele>832.0</ele><time>2026-04-25T13:16:53.002Z</time></trkpt><trkpt lat="46.0561623777276" lon="9.119569405433685"><ele>831.9999999999999</ele><time>2026-04-25T13:16:55.002Z</time></trkpt><trkpt lat="46.056229166271976" lon="9.119569828089011"><ele>832.0</ele><time>2026-04-25T13:16:56.003Z</time></trkpt><trkpt lat="46.05630356998579" lon="9.11960471048327"><ele>832.0</ele><time>2026-04-25T13:16:57.003Z</time></trkpt><trkpt lat="46.05638299340993" lon="9.119660801270337"><ele>832.0</ele><time>2026-04-25T13:16:58.003Z</time></trkpt><trkpt lat="46.056461117062824" lon="9.119684786655325"><ele>831.9999999999999</ele><time>2026-04-25T13:16:59.003Z</time></trkpt><trkpt lat="46.05654859565682" lon="9.119701638453563"><ele>832.0</ele><time>2026-04-25T13:17:00.003Z</time></trkpt><trkpt lat="46.05665320844565" lon="9.119633607353416"><ele>835.4000000000001</ele><time>2026-04-25T13:17:01.003Z</time></trkpt><trkpt lat="46.056751633290034" lon="9.119580900171282"><ele>838.8000000000001</ele><time>2026-04-25T13:17:02.003Z</time></trkpt><trkpt lat="46.0568582291046" lon="9.119625333646574"><ele>842.2</ele><time>2026-04-25T13:17:03.003Z</time></trkpt><trkpt lat="46.0569657935861" lon="9.119587723862518"><ele>845.6</ele><time>2026-04-25T13:17:04.003Z</time></trkpt><trkpt lat="46.057071017551856" lon="9.119538197948588"><ele>849.0</ele><time>2026-04-25T13:17:05.003Z</time></trkpt><trkpt lat="46.05718891632519" lon="9.119510318415356"><ele>849.0</ele><time>2026-04-25T13:17:06.003Z</time></trkpt><trkpt lat="46.0573101217118" lon="9.119457448512009"><ele>849.0</ele><time>2026-04-25T13:17:07.003Z</time></trkpt><trkpt lat="46.057436817338356" lon="9.119370448398273"><ele>849.0</ele><time>2026-04-25T13:17:08.003Z</time></trkpt><trkpt lat="46.05755611908589" lon="9.119263971242981"><ele>849.0</ele><time>2026-04-25T13:17:09.003Z</time></trkpt><trkpt lat="46.0576787024461" lon="9.11915480251701"><ele>848.0</ele><time>2026-04-25T13:17:10.003Z</time></trkpt><trkpt lat="46.057798778439235" lon="9.119047859787816"><ele>847.0</ele><time>2026-04-25T13:17:11.003Z</time></trkpt><trkpt lat="46.05789858740328" lon="9.11894117545136"><ele>846.0</ele><time>2026-04-25T13:17:12.003Z</time></trkpt><trkpt lat="46.05799194055058" lon="9.118865168039305"><ele>845.0</ele><time>2026-04-25T13:17:13.003Z</time></trkpt><trkpt lat="46.05807658273771" lon="9.118795190514644"><ele>845.0</ele><time>2026-04-25T13:17:14.003Z</time></trkpt><trkpt lat="46.05817100914325" lon="9.11873559597648"><ele>845.0</ele><time>2026-04-25T13:17:15.003Z</time></trkpt><trkpt lat="46.05826685913184" lon="9.118692534882483"><ele>845.0</ele><time>2026-04-25T13:17:16.003Z</time></trkpt><trkpt lat="46.05837093988337" lon="9.118658516418064"><ele>845.0</ele><time>2026-04-25T13:17:17.003Z</time></trkpt><trkpt lat="46.05848382768273" lon="9.118629465872264"><ele>845.0</ele><time>2026-04-25T13:17:18.003Z</time></trkpt><trkpt lat="46.05861049643209" lon="9.118610348066415"><ele>852.5</ele><time>2026-04-25T13:17:19.003Z</time></trkpt><trkpt lat="46.05875135804987" lon="9.118577926881983"><ele>860.0</ele><time>2026-04-25T13:17:20.003Z</time></trkpt><trkpt lat="46.05888371681416" lon="9.118545178849478"><ele>867.5</ele><time>2026-04-25T13:17:21.003Z</time></trkpt><trkpt lat="46.05903040533506" lon="9.118502639162028"><ele>875.0</ele><time>2026-04-25T13:17:22.003Z</time></trkpt><trkpt lat="46.05918733211572" lon="9.11846406217088"><ele>878.75</ele><time>2026-04-25T13:17:23.003Z</time></trkpt><trkpt lat="46.05934084160315" lon="9.11843554328085"><ele>882.5</ele><time>2026-04-25T13:17:24.003Z</time></trkpt><trkpt lat="46.059455386666535" lon="9.118401275489736"><ele>886.25</ele><time>2026-04-25T13:17:24.998Z</time></trkpt><trkpt lat="46.059563422697366" lon="9.118363244587508"><ele>890.0</ele><time>2026-04-25T13:17:25.998Z</time></trkpt><trkpt lat="46.0596889163704" lon="9.118300231009878"><ele>887.5</ele><time>2026-04-25T13:17:26.998Z</time></trkpt><trkpt lat="46.059811724602405" lon="9.118216641944304"><ele>885.0</ele><time>2026-04-25T13:17:27.998Z</time></trkpt><trkpt lat="46.05992183339266" lon="9.118132746812957"><ele>882.5</ele><time>2026-04-25T13:17:28.998Z</time></trkpt><trkpt lat="46.06002593603291" lon="9.118054687557926"><ele>880.0</ele><time>2026-04-25T13:17:29.999Z</time></trkpt><trkpt lat="46.06010923497802" lon="9.117988152471824"><ele>879.9999999999999</ele><time>2026-04-25T13:17:30.999Z</time></trkpt><trkpt lat="46.060188123351274" lon="9.117949682998612"><ele>880.0</ele><time>2026-04-25T13:17:31.999Z</time></trkpt><trkpt lat="46.060258855190625" lon="9.117944063179007"><ele>880.0</ele><time>2026-04-25T13:17:32.999Z</time></trkpt><trkpt lat="46.06036955017387" lon="9.117994843417355"><ele>880.0</ele><time>2026-04-25T13:17:34.999Z</time></trkpt><trkpt lat="46.06041194183659" lon="9.118079383905014"><ele>879.9999999999999</ele><time>2026-04-25T13:17:35.999Z</time></trkpt><trkpt lat="46.0604434516984" lon="9.118176242953322"><ele>880.0</ele><time>2026-04-25T13:17:36.999Z</time></trkpt><trkpt lat="46.06050294243813" lon="9.118235521950725"><ele>880.0</ele><time>2026-04-25T13:17:37.999Z</time></trkpt><trkpt lat="46.060603365328234" lon="9.118257760295752"><ele>880.0</ele><time>2026-04-25T13:17:38.999Z</time></trkpt><trkpt lat="46.06069610760593" lon="9.118224487742227"><ele>880.0</ele><time>2026-04-25T13:17:39.999Z</time></trkpt><trkpt lat="46.06079626028395" lon="9.118169511551951"><ele>880.0</ele><time>2026-04-25T13:17:40.999Z</time></trkpt><trkpt lat="46.06090558598498" lon="9.118162662097781"><ele>880.0</ele><time>2026-04-25T13:17:41.999Z</time></trkpt><trkpt lat="46.06099777265983" lon="9.11814539638811"><ele>881.8</ele><time>2026-04-25T13:17:42.999Z</time></trkpt><trkpt lat="46.06108752848059" lon="9.118103214628405"><ele>883.6</ele><time>2026-04-25T13:17:44Z</time></trkpt><trkpt lat="46.061177170774414" lon="9.118005707234426"><ele>885.4000000000001</ele><time>2026-04-25T13:17:45Z</time></trkpt><trkpt lat="46.06123883124033" lon="9.117881069863236"><ele>887.2</ele><time>2026-04-25T13:17:46Z</time></trkpt><trkpt lat="46.06128560364121" lon="9.117798900926795"><ele>889.0</ele><time>2026-04-25T13:17:47Z</time></trkpt><trkpt lat="46.061370793152264" lon="9.1177323498602"><ele>889.0</ele><time>2026-04-25T13:17:48Z</time></trkpt><trkpt lat="46.06147406018023" lon="9.117670364434696"><ele>889.0000000000001</ele><time>2026-04-25T13:17:49Z</time></trkpt><trkpt lat="46.061582999869536" lon="9.11761502358323"><ele>889.0000000000001</ele><time>2026-04-25T13:17:50Z</time></trkpt><trkpt lat="46.06167632438403" lon="9.117569847240958"><ele>889.0</ele><time>2026-04-25T13:17:51Z</time></trkpt><trkpt lat="46.061756059666756" lon="9.117532400387105"><ele>889.0</ele><time>2026-04-25T13:17:52Z</time></trkpt><trkpt lat="46.061831287942724" lon="9.117527828745752"><ele>892.4000000000001</ele><time>2026-04-25T13:17:53Z</time></trkpt><trkpt lat="46.06192206344872" lon="9.117543586324576"><ele>895.8000000000001</ele><time>2026-04-25T13:17:54Z</time></trkpt><trkpt lat="46.06202769497967" lon="9.117569633671236"><ele>899.1999999999999</ele><time>2026-04-25T13:17:55Z</time></trkpt><trkpt lat="46.0621343401545" lon="9.11758760072104"><ele>902.5999999999999</ele><time>2026-04-25T13:17:56Z</time></trkpt><trkpt lat="46.062224075916816" lon="9.11761020125275"><ele>906.0</ele><time>2026-04-25T13:17:57Z</time></trkpt><trkpt lat="46.062298464377314" lon="9.117648398439677"><ele>906.0</ele><time>2026-04-25T13:17:58Z</time></trkpt><trkpt lat="46.06236241879816" lon="9.117712203262721"><ele>905.9999999999999</ele><time>2026-04-25T13:17:59Z</time></trkpt><trkpt lat="46.062406801344174" lon="9.117821599701129"><ele>905.9999999999999</ele><time>2026-04-25T13:18:00Z</time></trkpt><trkpt lat="46.062422474910626" lon="9.117945850846965"><ele>906.0</ele><time>2026-04-25T13:18:01Z</time></trkpt><trkpt lat="46.0624120553121" lon="9.118083885059642"><ele>906.0</ele><time>2026-04-25T13:18:02Z</time></trkpt><trkpt lat="46.06238607377836" lon="9.118240314984499"><ele>911.8</ele><time>2026-04-25T13:18:03.001Z</time></trkpt><trkpt lat="46.06235633540916" lon="9.118419808910772"><ele>917.5999999999999</ele><time>2026-04-25T13:18:04.001Z</time></trkpt><trkpt lat="46.06233378168185" lon="9.118591970184417"><ele>923.4</ele><time>2026-04-25T13:18:05.001Z</time></trkpt><trkpt lat="46.062314191998006" lon="9.118736335094061"><ele>929.2</ele><time>2026-04-25T13:18:06.001Z</time></trkpt><trkpt lat="46.062306708422945" lon="9.118873481511248"><ele>935.0</ele><time>2026-04-25T13:18:07.001Z</time></trkpt><trkpt lat="46.06232168248404" lon="9.118987336912364"><ele>935.0</ele><time>2026-04-25T13:18:08.001Z</time></trkpt><trkpt lat="46.06238122460966" lon="9.11908148127137"><ele>935.0</ele><time>2026-04-25T13:18:09.001Z</time></trkpt><trkpt lat="46.06247640087908" lon="9.11915345458235"><ele>935.0</ele><time>2026-04-25T13:18:10.001Z</time></trkpt><trkpt lat="46.06257716642138" lon="9.119235288362674"><ele>935.0</ele><time>2026-04-25T13:18:11.001Z</time></trkpt><trkpt lat="46.06266045204188" lon="9.119323070230681"><ele>935.0</ele><time>2026-04-25T13:18:12.001Z</time></trkpt><trkpt lat="46.06271361825746" lon="9.119418074578139"><ele>935.0</ele><time>2026-04-25T13:18:13.001Z</time></trkpt><trkpt lat="46.06275920762323" lon="9.119541104238312"><ele>935.0</ele><time>2026-04-25T13:18:14.001Z</time></trkpt><trkpt lat="46.062795069198536" lon="9.119699926547016"><ele>935.0</ele><time>2026-04-25T13:18:15.001Z</time></trkpt><trkpt lat="46.062828521583796" lon="9.119860048658309"><ele>935.0</ele><time>2026-04-25T13:18:16.001Z</time></trkpt><trkpt lat="46.06285873102452" lon="9.120021279968473"><ele>935.0</ele><time>2026-04-25T13:18:17.001Z</time></trkpt><trkpt lat="46.062874147842045" lon="9.120149199587303"><ele>942.25</ele><time>2026-04-25T13:18:18.001Z</time></trkpt><trkpt lat="46.06289220863048" lon="9.120238602070438"><ele>949.5</ele><time>2026-04-25T13:18:19.001Z</time></trkpt><trkpt lat="46.062941449927365" lon="9.120303236644428"><ele>956.75</ele><time>2026-04-25T13:18:21.001Z</time></trkpt><trkpt lat="46.062946146644194" lon="9.120415584666112"><ele>964.0</ele><time>2026-04-25T13:18:22.001Z</time></trkpt><trkpt lat="46.06322507641241" lon="9.120388901060334"><ele>963.3333333333333</ele><time>2026-04-25T13:18:23.001Z</time></trkpt><trkpt lat="46.063285811681546" lon="9.120046519045022"><ele>962.6666666666667</ele><time>2026-04-25T13:18:24.001Z</time></trkpt><trkpt lat="46.063296183027404" lon="9.119882036612792"><ele>962.0</ele><time>2026-04-25T13:18:25.001Z</time></trkpt><trkpt lat="46.063305442741935" lon="9.119720291158869"><ele>954.0</ele><time>2026-04-25T13:18:26.001Z</time></trkpt><trkpt lat="46.06332222833261" lon="9.119519411094428"><ele>946.0</ele><time>2026-04-25T13:18:27.001Z</time></trkpt><trkpt lat="46.06330039966967" lon="9.119790668703763"><ele>938.0</ele><time>2026-04-25T13:18:28.001Z</time></trkpt><trkpt lat="46.063314149152205" lon="9.119590499034995"><ele>938.0</ele><time>2026-04-25T13:18:29.001Z</time></trkpt><trkpt lat="46.06333409731142" lon="9.119415093024204"><ele>938.0</ele><time>2026-04-25T13:18:30.001Z</time></trkpt><trkpt lat="46.063367685856605" lon="9.119280721823449"><ele>938.0</ele><time>2026-04-25T13:18:31.001Z</time></trkpt><trkpt lat="46.06340118982439" lon="9.11917090401524"><ele>938.0</ele><time>2026-04-25T13:18:32.002Z</time></trkpt><trkpt lat="46.063464199434385" lon="9.119099863761798"><ele>938.0</ele><time>2026-04-25T13:18:33.002Z</time></trkpt><trkpt lat="46.06352211703194" lon="9.119050246014867"><ele>931.75</ele><time>2026-04-25T13:18:34.002Z</time></trkpt><trkpt lat="46.06360135102179" lon="9.118979905724117"><ele>925.5</ele><time>2026-04-25T13:18:35.002Z</time></trkpt><trkpt lat="46.063700834005736" lon="9.118900242415467"><ele>919.25</ele><time>2026-04-25T13:18:36.002Z</time></trkpt><trkpt lat="46.06380387069703" lon="9.118817389584054"><ele>913.0</ele><time>2026-04-25T13:18:37.002Z</time></trkpt><trkpt lat="46.06390692052091" lon="9.11870219133867"><ele>913.0</ele><time>2026-04-25T13:18:38.002Z</time></trkpt><trkpt lat="46.063996383896416" lon="9.11860153736234"><ele>913.0</ele><time>2026-04-25T13:18:39.002Z</time></trkpt><trkpt lat="46.06405602894621" lon="9.11847127376024"><ele>913.0</ele><time>2026-04-25T13:18:40.002Z</time></trkpt><trkpt lat="46.06409654384295" lon="9.118349172206218"><ele>913.0</ele><time>2026-04-25T13:18:41.002Z</time></trkpt><trkpt lat="46.06413778154452" lon="9.118256762819325"><ele>913.0</ele><time>2026-04-25T13:18:42.002Z</time></trkpt><trkpt lat="46.06427253390404" lon="9.118233879134884"><ele>914.25</ele><time>2026-04-25T13:18:44.002Z</time></trkpt><trkpt lat="46.064369110501495" lon="9.11822653204166"><ele>915.5</ele><time>2026-04-25T13:18:45.002Z</time></trkpt><trkpt lat="46.064489568250366" lon="9.118218760360973"><ele>916.75</ele><time>2026-04-25T13:18:46.002Z</time></trkpt><trkpt lat="46.06462299727658" lon="9.118175726141846"><ele>918.0</ele><time>2026-04-25T13:18:47.002Z</time></trkpt><trkpt lat="46.06474657245496" lon="9.118151408294427"><ele>918.0</ele><time>2026-04-25T13:18:48.002Z</time></trkpt><trkpt lat="46.06487225289296" lon="9.11812962003422"><ele>918.0</ele><time>2026-04-25T13:18:49.002Z</time></trkpt><trkpt lat="46.06497900354037" lon="9.118051049168013"><ele>918.0</ele><time>2026-04-25T13:18:50.002Z</time></trkpt><trkpt lat="46.065082412014974" lon="9.1179955871013"><ele>918.0</ele><time>2026-04-25T13:18:51.002Z</time></trkpt><trkpt lat="46.065177700067785" lon="9.117936399665266"><ele>923.1666666666666</ele><time>2026-04-25T13:18:52.002Z</time></trkpt><trkpt lat="46.06527478009608" lon="9.11792578643186"><ele>928.3333333333333</ele><time>2026-04-25T13:18:53.002Z</time></trkpt><trkpt lat="46.06535194745319" lon="9.117946450506153"><ele>933.5</ele><time>2026-04-25T13:18:54.002Z</time></trkpt><trkpt lat="46.06541899775807" lon="9.118000590548402"><ele>938.6666666666666</ele><time>2026-04-25T13:18:55.002Z</time></trkpt><trkpt lat="46.065539376653035" lon="9.11798403807816"><ele>943.8333333333333</ele><time>2026-04-25T13:18:57.002Z</time></trkpt><trkpt lat="46.06558340271663" lon="9.117901578587043"><ele>949.0</ele><time>2026-04-25T13:18:58.002Z</time></trkpt><trkpt lat="46.06561408875751" lon="9.117785141699233"><ele>948.9999999999999</ele><time>2026-04-25T13:18:59.002Z</time></trkpt><trkpt lat="46.0656492655628" lon="9.117696668512664"><ele>949.0</ele><time>2026-04-25T13:19:00.002Z</time></trkpt><trkpt lat="46.06569237299783" lon="9.117626429467958"><ele>949.0</ele><time>2026-04-25T13:19:01.002Z</time></trkpt><trkpt lat="46.06572628933936" lon="9.117547590607778"><ele>949.0</ele><time>2026-04-25T13:19:03.002Z</time></trkpt><trkpt lat="46.065874628937884" lon="9.117676067535012"><ele>948.9999999999999</ele><time>2026-04-25T13:19:04.003Z</time></trkpt><trkpt lat="46.065900949896196" lon="9.117766729067437"><ele>949.0</ele><time>2026-04-25T13:19:05.003Z</time></trkpt><trkpt lat="46.06594121019978" lon="9.117867418891484"><ele>953.0</ele><time>2026-04-25T13:19:06.003Z</time></trkpt><trkpt lat="46.065981700521334" lon="9.117954929019294"><ele>957.0000000000001</ele><time>2026-04-25T13:19:07.003Z</time></trkpt><trkpt lat="46.06607988593006" lon="9.117991457478837"><ele>961.0000000000001</ele><time>2026-04-25T13:19:09.003Z</time></trkpt><trkpt lat="46.06617945619648" lon="9.117869610547936"><ele>965.0</ele><time>2026-04-25T13:19:11.003Z</time></trkpt><trkpt lat="46.06623979516495" lon="9.117754407240156"><ele>969.0</ele><time>2026-04-25T13:19:12.003Z</time></trkpt><trkpt lat="46.06631783323333" lon="9.117660435152462"><ele>969.0</ele><time>2026-04-25T13:19:13.003Z</time></trkpt><trkpt lat="46.06638754886503" lon="9.117580570102337"><ele>969.0</ele><time>2026-04-25T13:19:14.003Z</time></trkpt><trkpt lat="46.06642332899283" lon="9.117466132896402"><ele>969.0</ele><time>2026-04-25T13:19:15.003Z</time></trkpt><trkpt lat="46.06642958823375" lon="9.117374912280402"><ele>969.0</ele><time>2026-04-25T13:19:16.003Z</time></trkpt><trkpt lat="46.06646919226596" lon="9.117231246178363"><ele>969.0</ele><time>2026-04-25T13:19:18.003Z</time></trkpt><trkpt lat="46.066524964908126" lon="9.117158618083039"><ele>969.0</ele><time>2026-04-25T13:19:19.003Z</time></trkpt><trkpt lat="46.06659960171976" lon="9.11707318727285"><ele>969.6</ele><time>2026-04-25T13:19:20.003Z</time></trkpt><trkpt lat="46.06668121241527" lon="9.11698513344701"><ele>970.2</ele><time>2026-04-25T13:19:21.003Z</time></trkpt><trkpt lat="46.06676068378599" lon="9.116885300729672"><ele>970.8000000000001</ele><time>2026-04-25T13:19:22.003Z</time></trkpt><trkpt lat="46.0668328898798" lon="9.116800304850198"><ele>971.4000000000001</ele><time>2026-04-25T13:19:23.003Z</time></trkpt><trkpt lat="46.06689780534666" lon="9.11674839979268"><ele>972.0</ele><time>2026-04-25T13:19:24.003Z</time></trkpt><trkpt lat="46.066991465515535" lon="9.116724500357398"><ele>972.0</ele><time>2026-04-25T13:19:26.003Z</time></trkpt><trkpt lat="46.06709743349574" lon="9.11681267831402"><ele>972.0</ele><time>2026-04-25T13:19:28.003Z</time></trkpt><trkpt lat="46.06720631376855" lon="9.116760955383839"><ele>972.0</ele><time>2026-04-25T13:19:30.003Z</time></trkpt><trkpt lat="46.06725209970117" lon="9.116664950170716"><ele>972.0</ele><time>2026-04-25T13:19:30.999Z</time></trkpt><trkpt lat="46.067308286053894" lon="9.116576161039008"><ele>972.0</ele><time>2026-04-25T13:19:31.999Z</time></trkpt><trkpt lat="46.067384951564975" lon="9.1164819721187"><ele>973.3333333333334</ele><time>2026-04-25T13:19:32.999Z</time></trkpt><trkpt lat="46.06745974608079" lon="9.116395620509339"><ele>974.6666666666667</ele><time>2026-04-25T13:19:33.999Z</time></trkpt><trkpt lat="46.06752001955812" lon="9.11629391094912"><ele>976.0</ele><time>2026-04-25T13:19:34.999Z</time></trkpt><trkpt lat="46.06756821988051" lon="9.116180289207177"><ele>977.3333333333334</ele><time>2026-04-25T13:19:35.999Z</time></trkpt><trkpt lat="46.067596326159794" lon="9.11605608442115"><ele>978.6666666666667</ele><time>2026-04-25T13:19:36.999Z</time></trkpt><trkpt lat="46.06765732497" lon="9.115988628468182"><ele>980.0</ele><time>2026-04-25T13:19:37.999Z</time></trkpt><trkpt lat="46.06773960207722" lon="9.115946926335033"><ele>980.0</ele><time>2026-04-25T13:19:38.999Z</time></trkpt><trkpt lat="46.06784349589913" lon="9.11593160831107"><ele>980.0</ele><time>2026-04-25T13:19:39.999Z</time></trkpt><trkpt lat="46.067952410392586" lon="9.115911812080077"><ele>980.0</ele><time>2026-04-25T13:19:40.999Z</time></trkpt><trkpt lat="46.06805333683807" lon="9.115900779581278"><ele>980.0</ele><time>2026-04-25T13:19:41.999Z</time></trkpt><trkpt lat="46.06813196005603" lon="9.115918370356445"><ele>980.0</ele><time>2026-04-25T13:19:42.999Z</time></trkpt><trkpt lat="46.068208680012205" lon="9.11589811728776"><ele>980.0</ele><time>2026-04-25T13:19:43.999Z</time></trkpt><trkpt lat="46.068271689636084" lon="9.115862574927565"><ele>980.0</ele><time>2026-04-25T13:19:45Z</time></trkpt><trkpt lat="46.06830659585125" lon="9.115776349058804"><ele>980.0</ele><time>2026-04-25T13:19:46Z</time></trkpt><trkpt lat="46.06832234543937" lon="9.115678278748955"><ele>980.0</ele><time>2026-04-25T13:19:47Z</time></trkpt><trkpt lat="46.068302791196565" lon="9.115561283156243"><ele>980.0</ele><time>2026-04-25T13:19:48Z</time></trkpt><trkpt lat="46.0683192416463" lon="9.115456094900681"><ele>980.0</ele><time>2026-04-25T13:19:49Z</time></trkpt><trkpt lat="46.06836010676255" lon="9.115358751367152"><ele>980.0</ele><time>2026-04-25T13:19:50Z</time></trkpt><trkpt lat="46.06842589066472" lon="9.11527659779995"><ele>982.4</ele><time>2026-04-25T13:19:51Z</time></trkpt><trkpt lat="46.06850307196446" lon="9.115213776085005"><ele>984.8</ele><time>2026-04-25T13:19:52Z</time></trkpt><trkpt lat="46.06859831201608" lon="9.115175464118416"><ele>987.2</ele><time>2026-04-25T13:19:53Z</time></trkpt><trkpt lat="46.06869651506118" lon="9.115164710088214"><ele>989.6</ele><time>2026-04-25T13:19:54Z</time></trkpt><trkpt lat="46.06878941004933" lon="9.115142639137776"><ele>992.0</ele><time>2026-04-25T13:19:55Z</time></trkpt><trkpt lat="46.06886707365057" lon="9.11507522366269"><ele>992.0</ele><time>2026-04-25T13:19:56Z</time></trkpt><trkpt lat="46.068917928741485" lon="9.114952020300084"><ele>992.0</ele><time>2026-04-25T13:19:57Z</time></trkpt><trkpt lat="46.06896654714034" lon="9.114833719388605"><ele>992.0</ele><time>2026-04-25T13:19:58Z</time></trkpt><trkpt lat="46.06904060177667" lon="9.114687063232452"><ele>992.0</ele><time>2026-04-25T13:19:59Z</time></trkpt><trkpt lat="46.06912344252519" lon="9.114561281443203"><ele>992.0</ele><time>2026-04-25T13:20:00Z</time></trkpt><trkpt lat="46.06919491714255" lon="9.114435421799694"><ele>992.2</ele><time>2026-04-25T13:20:01Z</time></trkpt><trkpt lat="46.06922776256369" lon="9.114282798330425"><ele>992.4000000000001</ele><time>2026-04-25T13:20:02Z</time></trkpt><trkpt lat="46.06925771431554" lon="9.114145516356011"><ele>992.5999999999999</ele><time>2026-04-25T13:20:03Z</time></trkpt><trkpt lat="46.06929499475489" lon="9.114041644388472"><ele>992.8</ele><time>2026-04-25T13:20:04Z</time></trkpt><trkpt lat="46.06936640121294" lon="9.113984304787557"><ele>993.0</ele><time>2026-04-25T13:20:05.001Z</time></trkpt><trkpt lat="46.06945646885901" lon="9.11393344054318"><ele>993.0</ele><time>2026-04-25T13:20:06.001Z</time></trkpt><trkpt lat="46.06953273745611" lon="9.113840959395011"><ele>993.0</ele><time>2026-04-25T13:20:07.001Z</time></trkpt><trkpt lat="46.06958254382592" lon="9.113699721108949"><ele>993.0</ele><time>2026-04-25T13:20:08.001Z</time></trkpt><trkpt lat="46.06962107568598" lon="9.11354283472799"><ele>993.0</ele><time>2026-04-25T13:20:09.001Z</time></trkpt><trkpt lat="46.069660944417315" lon="9.113393205668977"><ele>993.0</ele><time>2026-04-25T13:20:10.001Z</time></trkpt><trkpt lat="46.06971267750283" lon="9.113260918059364"><ele>988.75</ele><time>2026-04-25T13:20:11.001Z</time></trkpt><trkpt lat="46.069787885956224" lon="9.113125075078841"><ele>984.5</ele><time>2026-04-25T13:20:12.001Z</time></trkpt><trkpt lat="46.069872519936744" lon="9.112986426659496"><ele>980.25</ele><time>2026-04-25T13:20:13.001Z</time></trkpt><trkpt lat="46.069958234437465" lon="9.112845471018916"><ele>976.0</ele><time>2026-04-25T13:20:14.001Z</time></trkpt><trkpt lat="46.07002959645507" lon="9.1127217089274"><ele>983.0</ele><time>2026-04-25T13:20:15.001Z</time></trkpt><trkpt lat="46.07009215852225" lon="9.112633622672261"><ele>989.9999999999999</ele><time>2026-04-25T13:20:16.001Z</time></trkpt><trkpt lat="46.07016330649245" lon="9.112580985187108"><ele>996.9999999999999</ele><time>2026-04-25T13:20:17.001Z</time></trkpt><trkpt lat="46.07028210858561" lon="9.112571059544875"><ele>1004.0</ele><time>2026-04-25T13:20:19.001Z</time></trkpt><trkpt lat="46.0703600348936" lon="9.112575033105522"><ele>1011.0</ele><time>2026-04-25T13:20:20.001Z</time></trkpt><trkpt lat="46.07045472028823" lon="9.112599740015034"><ele>1011.0</ele><time>2026-04-25T13:20:21.001Z</time></trkpt><trkpt lat="46.07055512311285" lon="9.112638711673306"><ele>1011.0</ele><time>2026-04-25T13:20:22.001Z</time></trkpt><trkpt lat="46.070631678248674" lon="9.11267465637636"><ele>1011.0</ele><time>2026-04-25T13:20:23.001Z</time></trkpt><trkpt lat="46.07069573569655" lon="9.112690385780876"><ele>1011.0</ele><time>2026-04-25T13:20:24.001Z</time></trkpt><trkpt lat="46.07077368011657" lon="9.112585107376729"><ele>1011.0</ele><time>2026-04-25T13:20:26.001Z</time></trkpt><trkpt lat="46.070789509095626" lon="9.112494648159768"><ele>1011.0</ele><time>2026-04-25T13:20:27.001Z</time></trkpt><trkpt lat="46.07081548119651" lon="9.112354835667269"><ele>1012.75</ele><time>2026-04-25T13:20:28.001Z</time></trkpt><trkpt lat="46.0708649041486" lon="9.112223234445656"><ele>1014.5</ele><time>2026-04-25T13:20:29.001Z</time></trkpt><trkpt lat="46.070936786689536" lon="9.11209074293274"><ele>1016.25</ele><time>2026-04-25T13:20:30.001Z</time></trkpt><trkpt lat="46.07101132008925" lon="9.11195594742684"><ele>1018.0</ele><time>2026-04-25T13:20:31.001Z</time></trkpt><trkpt lat="46.07108503522932" lon="9.11183353464588"><ele>1018.0</ele><time>2026-04-25T13:20:32.001Z</time></trkpt><trkpt lat="46.07114496941479" lon="9.11169973072252"><ele>1018.0</ele><time>2026-04-25T13:20:33.001Z</time></trkpt><trkpt lat="46.07116132849161" lon="9.111557052757188"><ele>1018.0</ele><time>2026-04-25T13:20:34.002Z</time></trkpt><trkpt lat="46.071175393128286" lon="9.11141323043332"><ele>1018.0</ele><time>2026-04-25T13:20:35.002Z</time></trkpt><trkpt lat="46.07120170734364" lon="9.111306284538868"><ele>1018.0</ele><time>2026-04-25T13:20:36.002Z</time></trkpt><trkpt lat="46.07124833662878" lon="9.11124303914947"><ele>1015.1666666666666</ele><time>2026-04-25T13:20:37.002Z</time></trkpt><trkpt lat="46.07131343313554" lon="9.111201614709664"><ele>1012.3333333333333</ele><time>2026-04-25T13:20:53.002Z</time></trkpt><trkpt lat="46.07139285256307" lon="9.111129621255309"><ele>1009.5</ele><time>2026-04-25T13:20:55.002Z</time></trkpt><trkpt lat="46.07144567289285" lon="9.11105578703837"><ele>1006.6666666666667</ele><time>2026-04-25T13:20:56.002Z</time></trkpt><trkpt lat="46.07149591324186" lon="9.110968187911235"><ele>1003.8333333333334</ele><time>2026-04-25T13:20:57.002Z</time></trkpt><trkpt lat="46.07154866014508" lon="9.110889301403756"><ele>1001.0</ele><time>2026-04-25T13:20:58.002Z</time></trkpt><trkpt lat="46.07165665037544" lon="9.110802948485698"><ele>1009.4</ele><time>2026-04-25T13:21:00.002Z</time></trkpt><trkpt lat="46.071718255713094" lon="9.110779979386948"><ele>1017.8</ele><time>2026-04-25T13:21:01.002Z</time></trkpt><trkpt lat="46.07183122771581" lon="9.11075184779254"><ele>1026.1999999999998</ele><time>2026-04-25T13:21:03.002Z</time></trkpt><trkpt lat="46.071892144007116" lon="9.11081305705163"><ele>1034.6</ele><time>2026-04-25T13:21:05.002Z</time></trkpt><trkpt lat="46.07187386163234" lon="9.110928148119672"><ele>1043.0</ele><time>2026-04-25T13:21:07.003Z</time></trkpt><trkpt lat="46.071762123420676" lon="9.11097236780167"><ele>1043.0</ele><time>2026-04-25T13:21:09.003Z</time></trkpt><trkpt lat="46.07168865810016" lon="9.111129217950825"><ele>1043.0</ele><time>2026-04-25T13:21:11.003Z</time></trkpt><trkpt lat="46.071657464231045" lon="9.111259277131198"><ele>1043.0</ele><time>2026-04-25T13:21:12.003Z</time></trkpt><trkpt lat="46.07162026507029" lon="9.11136258749606"><ele>1043.0</ele><time>2026-04-25T13:21:13.003Z</time></trkpt><trkpt lat="46.0715876041956" lon="9.111486891836744"><ele>1043.0</ele><time>2026-04-25T13:21:14.003Z</time></trkpt><trkpt lat="46.071561760736024" lon="9.111623659244302"><ele>1038.0</ele><time>2026-04-25T13:21:15.003Z</time></trkpt><trkpt lat="46.07153637449426" lon="9.111759624936578"><ele>1033.0</ele><time>2026-04-25T13:21:16.003Z</time></trkpt><trkpt lat="46.07151985554064" lon="9.111904025276838"><ele>1028.0</ele><time>2026-04-25T13:21:17.003Z</time></trkpt><trkpt lat="46.07150673195162" lon="9.112041028569763"><ele>1023.0</ele><time>2026-04-25T13:21:18.003Z</time></trkpt><trkpt lat="46.071496621228256" lon="9.112160059516729"><ele>1018.0</ele><time>2026-04-25T13:21:19.003Z</time></trkpt><trkpt lat="46.07147299557407" lon="9.112256832939549"><ele>1017.9999999999999</ele><time>2026-04-25T13:21:20.003Z</time></trkpt><trkpt lat="46.07142611459548" lon="9.112338343021252"><ele>1018.0</ele><time>2026-04-25T13:21:21.003Z</time></trkpt><trkpt lat="46.07137183323073" lon="9.112403737414748"><ele>1018.0</ele><time>2026-04-25T13:21:22.003Z</time></trkpt><trkpt lat="46.07132310505803" lon="9.112471189697176"><ele>1018.0</ele><time>2026-04-25T13:21:23.003Z</time></trkpt><trkpt lat="46.071317893696744" lon="9.112605007432244"><ele>1017.9999999999999</ele><time>2026-04-25T13:21:25.003Z</time></trkpt><trkpt lat="46.07141568259215" lon="9.112625776842817"><ele>1018.0</ele><time>2026-04-25T13:21:27.003Z</time></trkpt><trkpt lat="46.07147190005368" lon="9.112552043071693"><ele>1018.0</ele><time>2026-04-25T13:21:28.003Z</time></trkpt><trkpt lat="46.07152365547268" lon="9.11245687098042"><ele>1018.0</ele><time>2026-04-25T13:21:29.003Z</time></trkpt><trkpt lat="46.07158632940079" lon="9.11237388564226"><ele>1018.0</ele><time>2026-04-25T13:21:30.003Z</time></trkpt><trkpt lat="46.07165595356287" lon="9.112279873349468"><ele>1018.0</ele><time>2026-04-25T13:21:31.003Z</time></trkpt><trkpt lat="46.07172347378476" lon="9.112179266556291"><ele>1018.0</ele><time>2026-04-25T13:21:32.003Z</time></trkpt><trkpt lat="46.07179104444324" lon="9.112076813462986"><ele>1025.1666666666665</ele><time>2026-04-25T13:21:33.003Z</time></trkpt><trkpt lat="46.07185450904744" lon="9.111977682732707"><ele>1032.3333333333333</ele><time>2026-04-25T13:21:34.003Z</time></trkpt><trkpt lat="46.07190781130773" lon="9.111886207827846"><ele>1039.5</ele><time>2026-04-25T13:21:35.003Z</time></trkpt><trkpt lat="46.07195447264612" lon="9.111802871016076"><ele>1046.6666666666667</ele><time>2026-04-25T13:21:36.003Z</time></trkpt><trkpt lat="46.07201692013809" lon="9.111689596811425"><ele>1053.8333333333335</ele><time>2026-04-25T13:21:38Z</time></trkpt><trkpt lat="46.072086799181356" lon="9.111674202418353"><ele>1061.0</ele><time>2026-04-25T13:21:40Z</time></trkpt><trkpt lat="46.07212192624724" lon="9.111775759162375"><ele>1061.0</ele><time>2026-04-25T13:21:42Z</time></trkpt><trkpt lat="46.072051595166364" lon="9.11187986437371"><ele>1061.0</ele><time>2026-04-25T13:21:44Z</time></trkpt><trkpt lat="46.07200546898028" lon="9.112059990935549"><ele>1061.0</ele><time>2026-04-25T13:21:46Z</time></trkpt><trkpt lat="46.07199724771003" lon="9.112176283021943"><ele>1061.0</ele><time>2026-04-25T13:21:47Z</time></trkpt><trkpt lat="46.07198354011801" lon="9.112300677630477"><ele>1061.0</ele><time>2026-04-25T13:21:48Z</time></trkpt><trkpt lat="46.0719646539193" lon="9.112439631344392"><ele>1063.5</ele><time>2026-04-25T13:21:49Z</time></trkpt><trkpt lat="46.07195329345871" lon="9.112575404851595"><ele>1066.0</ele><time>2026-04-25T13:21:50Z</time></trkpt><trkpt lat="46.071933862124204" lon="9.1126909335869"><ele>1068.5</ele><time>2026-04-25T13:21:51Z</time></trkpt><trkpt lat="46.07190577616022" lon="9.112801382857855"><ele>1071.0</ele><time>2026-04-25T13:21:52Z</time></trkpt><trkpt lat="46.07187975716505" lon="9.11288972579771"><ele>1073.5</ele><time>2026-04-25T13:21:53Z</time></trkpt><trkpt lat="46.07187395678738" lon="9.113022176259477"><ele>1076.0</ele><time>2026-04-25T13:21:55Z</time></trkpt><trkpt lat="46.071971399258096" lon="9.113047972365559"><ele>1076.0</ele><time>2026-04-25T13:21:58Z</time></trkpt><trkpt lat="46.07201873557172" lon="9.112974560408677"><ele>1076.0</ele><time>2026-04-25T13:21:59Z</time></trkpt><trkpt lat="46.07204951916968" lon="9.112873142024286"><ele>1076.0</ele><time>2026-04-25T13:22:00Z</time></trkpt><trkpt lat="46.072091664270935" lon="9.11277247718191"><ele>1076.0</ele><time>2026-04-25T13:22:01Z</time></trkpt><trkpt lat="46.07214475858032" lon="9.112655295316006"><ele>1076.0</ele><time>2026-04-25T13:22:02Z</time></trkpt><trkpt lat="46.07219871543974" lon="9.112533681796023"><ele>1076.0</ele><time>2026-04-25T13:22:03Z</time></trkpt><trkpt lat="46.0722533826128" lon="9.112411071932987"><ele>1073.5</ele><time>2026-04-25T13:22:04Z</time></trkpt><trkpt lat="46.07231208920562" lon="9.11231721617553"><ele>1071.0</ele><time>2026-04-25T13:22:05Z</time></trkpt><trkpt lat="46.072375202176545" lon="9.112234192767536"><ele>1068.5</ele><time>2026-04-25T13:22:06Z</time></trkpt><trkpt lat="46.072440369526284" lon="9.11216409939747"><ele>1066.0</ele><time>2026-04-25T13:22:07.001Z</time></trkpt><trkpt lat="46.07250189730682" lon="9.11209467329424"><ele>1063.5</ele><time>2026-04-25T13:22:08.001Z</time></trkpt><trkpt lat="46.0725595370631" lon="9.112021634038438"><ele>1061.0</ele><time>2026-04-25T13:22:09.001Z</time></trkpt><trkpt lat="46.07261575166961" lon="9.11196013644595"><ele>1067.2</ele><time>2026-04-25T13:22:10.001Z</time></trkpt><trkpt lat="46.07269007343253" lon="9.111864381939315"><ele>1073.3999999999999</ele><time>2026-04-25T13:22:12.001Z</time></trkpt><trkpt lat="46.07276272862683" lon="9.111853945732776"><ele>1079.6</ele><time>2026-04-25T13:22:14.001Z</time></trkpt><trkpt lat="46.07287754805867" lon="9.111925297223976"><ele>1085.8</ele><time>2026-04-25T13:22:16.001Z</time></trkpt><trkpt lat="46.072960443448046" lon="9.11192595091457"><ele>1092.0</ele><time>2026-04-25T13:22:17.001Z</time></trkpt><trkpt lat="46.07305166593154" lon="9.111902112124016"><ele>1092.0</ele><time>2026-04-25T13:22:18.001Z</time></trkpt><trkpt lat="46.0731434515135" lon="9.111859134550356"><ele>1092.0</ele><time>2026-04-25T13:22:19.001Z</time></trkpt><trkpt lat="46.073231589050295" lon="9.111795217249334"><ele>1092.0</ele><time>2026-04-25T13:22:20.001Z</time></trkpt><trkpt lat="46.07331079142877" lon="9.111718468556484"><ele>1092.0</ele><time>2026-04-25T13:22:21.001Z</time></trkpt><trkpt lat="46.073378228254995" lon="9.11162999014219"><ele>1092.0</ele><time>2026-04-25T13:22:22.001Z</time></trkpt><trkpt lat="46.073436959596144" lon="9.111562331522517"><ele>1092.1666666666667</ele><time>2026-04-25T13:22:23.001Z</time></trkpt><trkpt lat="46.073496371765124" lon="9.111521678266216"><ele>1092.3333333333333</ele><time>2026-04-25T13:22:24.001Z</time></trkpt><trkpt lat="46.073562311724984" lon="9.111493066732685"><ele>1092.5</ele><time>2026-04-25T13:22:25.001Z</time></trkpt><trkpt lat="46.073627458216194" lon="9.111470659950557"><ele>1092.6666666666665</ele><time>2026-04-25T13:22:26.001Z</time></trkpt><trkpt lat="46.073747139968475" lon="9.111427745950275"><ele>1092.8333333333333</ele><time>2026-04-25T13:22:28.001Z</time></trkpt><trkpt lat="46.07382132569851" lon="9.11140252859983"><ele>1093.0</ele><time>2026-04-25T13:22:29.001Z</time></trkpt><trkpt lat="46.07390209207684" lon="9.111367170077227"><ele>1093.0</ele><time>2026-04-25T13:22:30.001Z</time></trkpt><trkpt lat="46.07398297215683" lon="9.111326897772198"><ele>1093.0</ele><time>2026-04-25T13:22:31.001Z</time></trkpt><trkpt lat="46.07406193230005" lon="9.111283289088249"><ele>1093.0</ele><time>2026-04-25T13:22:32.001Z</time></trkpt><trkpt lat="46.074138756455994" lon="9.111244835830322"><ele>1093.0</ele><time>2026-04-25T13:22:33.001Z</time></trkpt><trkpt lat="46.07421141709204" lon="9.11121906285139"><ele>1093.0</ele><time>2026-04-25T13:22:34.001Z</time></trkpt><trkpt lat="46.07429076966898" lon="9.111207682580423"><ele>1093.0</ele><time>2026-04-25T13:22:35.001Z</time></trkpt><trkpt lat="46.07437837085235" lon="9.111214044534085"><ele>1096.0</ele><time>2026-04-25T13:22:36.001Z</time></trkpt><trkpt lat="46.07445873915834" lon="9.111227817060556"><ele>1099.0</ele><time>2026-04-25T13:22:37.001Z</time></trkpt><trkpt lat="46.07452896689916" lon="9.111242993951256"><ele>1102.0</ele><time>2026-04-25T13:22:38.001Z</time></trkpt><trkpt lat="46.074609029007135" lon="9.111274083656404"><ele>1105.0</ele><time>2026-04-25T13:22:40.002Z</time></trkpt><trkpt lat="46.07466920428842" lon="9.111328727172106"><ele>1108.0</ele><time>2026-04-25T13:22:46.002Z</time></trkpt><trkpt lat="46.07472207354992" lon="9.111408059577936"><ele>1111.0</ele><time>2026-04-25T13:22:48.002Z</time></trkpt><trkpt lat="46.074782980756396" lon="9.111446529929106"><ele>1114.0</ele><time>2026-04-25T13:23:05.002Z</time></trkpt><trkpt lat="46.07477609367596" lon="9.111349363229222"><ele>1114.0</ele><time>2026-04-25T13:24:29.001Z</time></trkpt><trkpt lat="46.07479869826574" lon="9.11143512859959"><ele>1114.0</ele><time>2026-04-25T13:28:35.001Z</time></trkpt><trkpt lat="46.07479285566097" lon="9.111343883948496"><ele>1114.0</ele><time>2026-04-25T13:34:02.002Z</time></trkpt><trkpt lat="46.07478949554301" lon="9.111240358712886"><ele>1114.0</ele><time>2026-04-25T13:34:04.002Z</time></trkpt><trkpt lat="46.0747994532384" lon="9.11112200902239"><ele>1114.0</ele><time>2026-04-25T13:34:06.003Z</time></trkpt><trkpt lat="46.07481541329389" lon="9.111025912909698"><ele>1114.0</ele><time>2026-04-25T13:34:08.003Z</time></trkpt><trkpt lat="46.07482909427118" lon="9.110918155738391"><ele>1114.0</ele><time>2026-04-25T13:34:10.003Z</time></trkpt><trkpt lat="46.074842102178046" lon="9.110829222383906"><ele>1112.8</ele><time>2026-04-25T13:34:12.003Z</time></trkpt><trkpt lat="46.074833348736064" lon="9.110724865663473"><ele>1111.6000000000001</ele><time>2026-04-25T13:34:20.001Z</time></trkpt><trkpt lat="46.07480107812923" lon="9.110603617735949"><ele>1110.4</ele><time>2026-04-25T13:34:22.001Z</time></trkpt><trkpt lat="46.07482345444195" lon="9.110428390315537"><ele>1109.2</ele><time>2026-04-25T13:34:24.001Z</time></trkpt><trkpt lat="46.07485940923367" lon="9.110247291812918"><ele>1108.0</ele><time>2026-04-25T13:34:26.001Z</time></trkpt><trkpt lat="46.07488534023287" lon="9.11015419964465"><ele>1108.0</ele><time>2026-04-25T13:34:27.001Z</time></trkpt><trkpt lat="46.07491798727975" lon="9.110066659214333"><ele>1108.0</ele><time>2026-04-25T13:34:28.001Z</time></trkpt><trkpt lat="46.07498524640062" lon="9.10993323354687"><ele>1108.0</ele><time>2026-04-25T13:34:30.001Z</time></trkpt><trkpt lat="46.07506878777747" lon="9.109823945870374"><ele>1108.0</ele><time>2026-04-25T13:34:32.001Z</time></trkpt><trkpt lat="46.07515471342358" lon="9.10978685991681"><ele>1108.0</ele><time>2026-04-25T13:34:34.001Z</time></trkpt><trkpt lat="46.07525524481652" lon="9.109792679195095"><ele>1110.0</ele><time>2026-04-25T13:34:36.001Z</time></trkpt><trkpt lat="46.075343217643" lon="9.109722577027917"><ele>1112.0</ele><time>2026-04-25T13:34:38.001Z</time></trkpt><trkpt lat="46.075384795115" lon="9.109613366769567"><ele>1114.0</ele><time>2026-04-25T13:34:40.001Z</time></trkpt><trkpt lat="46.07543131900098" lon="9.109527144588089"><ele>1116.0</ele><time>2026-04-25T13:34:42.001Z</time></trkpt><trkpt lat="46.07554010969825" lon="9.109499959350178"><ele>1118.0</ele><time>2026-04-25T13:34:45.001Z</time></trkpt><trkpt lat="46.07565023213214" lon="9.109483538686092"><ele>1118.0</ele><time>2026-04-25T13:34:47.001Z</time></trkpt><trkpt lat="46.07573154090394" lon="9.109446258323427"><ele>1118.0</ele><time>2026-04-25T13:34:49.001Z</time></trkpt><trkpt lat="46.075782565286126" lon="9.109382739061335"><ele>1118.0</ele><time>2026-04-25T13:34:51.001Z</time></trkpt><trkpt lat="46.07583575793192" lon="9.109327675569507"><ele>1118.0</ele><time>2026-04-25T13:34:53.001Z</time></trkpt><trkpt lat="46.07589445470024" lon="9.10936437631318"><ele>1118.0</ele><time>2026-04-25T13:34:55.001Z</time></trkpt><trkpt lat="46.075895772305266" lon="9.109468344484895"><ele>1118.0</ele><time>2026-04-25T13:34:57.001Z</time></trkpt><trkpt lat="46.075852080028305" lon="9.109555176569241"><ele>1118.0</ele><time>2026-04-25T13:34:59.001Z</time></trkpt><trkpt lat="46.075790875309146" lon="9.109642095244286"><ele>1118.0</ele><time>2026-04-25T13:35:01.001Z</time></trkpt><trkpt lat="46.07571806311961" lon="9.109722462852906"><ele>1118.0</ele><time>2026-04-25T13:35:03.001Z</time></trkpt><trkpt lat="46.075641329205865" lon="9.109817563611793"><ele>1118.0</ele><time>2026-04-25T13:35:05.001Z</time></trkpt><trkpt lat="46.07557592923405" lon="9.109949514858572"><ele>1118.0</ele><time>2026-04-25T13:35:07.001Z</time></trkpt><trkpt lat="46.075559232881275" lon="9.110059705832427"><ele>1118.0</ele><time>2026-04-25T13:35:09.001Z</time></trkpt><trkpt lat="46.07556282419018" lon="9.110160879362413"><ele>1120.1666666666667</ele><time>2026-04-25T13:35:11.001Z</time></trkpt><trkpt lat="46.07555704042531" lon="9.11026224598151"><ele>1122.3333333333335</ele><time>2026-04-25T13:35:13.001Z</time></trkpt><trkpt lat="46.07557067335739" lon="9.11035951251569"><ele>1124.5</ele><time>2026-04-25T13:35:15.001Z</time></trkpt><trkpt lat="46.07564549049335" lon="9.1103739690586"><ele>1126.6666666666667</ele><time>2026-04-25T13:35:18.001Z</time></trkpt><trkpt lat="46.075698384695" lon="9.110280546004722"><ele>1128.8333333333333</ele><time>2026-04-25T13:35:20.001Z</time></trkpt><trkpt lat="46.07575215296722" lon="9.110195701635"><ele>1131.0</ele><time>2026-04-25T13:35:22.001Z</time></trkpt><trkpt lat="46.07582649068466" lon="9.110121580183742"><ele>1138.0</ele><time>2026-04-25T13:35:24.001Z</time></trkpt><trkpt lat="46.075931674471114" lon="9.110072542976841"><ele>1145.0</ele><time>2026-04-25T13:35:26.001Z</time></trkpt><trkpt lat="46.07604343939876" lon="9.110078645654909"><ele>1152.0</ele><time>2026-04-25T13:35:28.001Z</time></trkpt><trkpt lat="46.07610961386132" lon="9.110110425394872"><ele>1159.0</ele><time>2026-04-25T13:35:29.001Z</time></trkpt><trkpt lat="46.07617666004297" lon="9.110137440970473"><ele>1166.0</ele><time>2026-04-25T13:35:30.001Z</time></trkpt><trkpt lat="46.07627953181942" lon="9.110141584738253"><ele>1166.0</ele><time>2026-04-25T13:35:32.001Z</time></trkpt><trkpt lat="46.076349215178645" lon="9.110104484130833"><ele>1166.0</ele><time>2026-04-25T13:35:34.001Z</time></trkpt><trkpt lat="46.07644308663768" lon="9.110097181293295"><ele>1166.0</ele><time>2026-04-25T13:35:36.001Z</time></trkpt><trkpt lat="46.07655051480981" lon="9.110118129678312"><ele>1166.0</ele><time>2026-04-25T13:35:38.001Z</time></trkpt><trkpt lat="46.07664549607608" lon="9.110106578704988"><ele>1166.0</ele><time>2026-04-25T13:35:40.001Z</time></trkpt><trkpt lat="46.0767076293124" lon="9.11003199327865"><ele>1169.0</ele><time>2026-04-25T13:35:42.001Z</time></trkpt><trkpt lat="46.07677789487661" lon="9.109941439761831"><ele>1172.0</ele><time>2026-04-25T13:35:44.001Z</time></trkpt><trkpt lat="46.076845003183536" lon="9.109862947305258"><ele>1175.0</ele><time>2026-04-25T13:35:46.001Z</time></trkpt><trkpt lat="46.07694093838985" lon="9.109769667853268"><ele>1178.0</ele><time>2026-04-25T13:35:48.001Z</time></trkpt><trkpt lat="46.077051857965834" lon="9.109689314837368"><ele>1181.0</ele><time>2026-04-25T13:35:50.001Z</time></trkpt><trkpt lat="46.07715530010888" lon="9.109603755694671"><ele>1181.0</ele><time>2026-04-25T13:35:52.001Z</time></trkpt><trkpt lat="46.077251126775295" lon="9.10950263903711"><ele>1181.0</ele><time>2026-04-25T13:35:54.002Z</time></trkpt><trkpt lat="46.077359077991225" lon="9.109382448287338"><ele>1181.0</ele><time>2026-04-25T13:35:56.002Z</time></trkpt><trkpt lat="46.077416074513216" lon="9.109334390505317"><ele>1181.0</ele><time>2026-04-25T13:35:57.002Z</time></trkpt><trkpt lat="46.07747183135636" lon="9.109291474990306"><ele>1181.0</ele><time>2026-04-25T13:35:58.002Z</time></trkpt><trkpt lat="46.077533438363005" lon="9.10925418076226"><ele>1186.0</ele><time>2026-04-25T13:35:59.002Z</time></trkpt><trkpt lat="46.07760297826589" lon="9.109201054038989"><ele>1191.0</ele><time>2026-04-25T13:36:01.002Z</time></trkpt><trkpt lat="46.07764562972641" lon="9.109053737845016"><ele>1196.0</ele><time>2026-04-25T13:36:04.002Z</time></trkpt><trkpt lat="46.07764913673941" lon="9.108894027740275"><ele>1201.0</ele><time>2026-04-25T13:36:06.002Z</time></trkpt><trkpt lat="46.077666804922984" lon="9.108781100664173"><ele>1206.0</ele><time>2026-04-25T13:36:08.002Z</time></trkpt><trkpt lat="46.077717675504594" lon="9.108657006489103"><ele>1206.0</ele><time>2026-04-25T13:36:10.002Z</time></trkpt><trkpt lat="46.077769093370826" lon="9.10852172341346"><ele>1206.0</ele><time>2026-04-25T13:36:12.002Z</time></trkpt><trkpt lat="46.07782796576175" lon="9.108406912774873"><ele>1206.0</ele><time>2026-04-25T13:36:14.002Z</time></trkpt><trkpt lat="46.07791586127381" lon="9.10832268708035"><ele>1206.0</ele><time>2026-04-25T13:36:16.002Z</time></trkpt><trkpt lat="46.077989820575134" lon="9.108242490506074"><ele>1206.0</ele><time>2026-04-25T13:36:18.002Z</time></trkpt><trkpt lat="46.07804564354698" lon="9.10819366737197"><ele>1204.6666666666667</ele><time>2026-04-25T13:36:18.998Z</time></trkpt><trkpt lat="46.078137106226635" lon="9.108077651407834"><ele>1203.3333333333333</ele><time>2026-04-25T13:36:20.998Z</time></trkpt><trkpt lat="46.07822796398879" lon="9.10798901418009"><ele>1202.0</ele><time>2026-04-25T13:36:22.998Z</time></trkpt><trkpt lat="46.078277899184606" lon="9.107932873103318"><ele>1200.6666666666665</ele><time>2026-04-25T13:36:23.998Z</time></trkpt><trkpt lat="46.07832857310853" lon="9.107843679567658"><ele>1199.3333333333333</ele><time>2026-04-25T13:36:25.998Z</time></trkpt><trkpt lat="46.07836795011119" lon="9.107772432363117"><ele>1198.0</ele><time>2026-04-25T13:36:26.998Z</time></trkpt><trkpt lat="46.07845649228106" lon="9.1077005925109"><ele>1202.6</ele><time>2026-04-25T13:36:28.998Z</time></trkpt><trkpt lat="46.078532405147484" lon="9.107606156306302"><ele>1207.1999999999998</ele><time>2026-04-25T13:36:30.998Z</time></trkpt><trkpt lat="46.07859875275018" lon="9.107554549150187"><ele>1211.8</ele><time>2026-04-25T13:36:31.998Z</time></trkpt><trkpt lat="46.078672636559496" lon="9.107439237198408"><ele>1216.3999999999999</ele><time>2026-04-25T13:36:33.998Z</time></trkpt><trkpt lat="46.07867999718178" lon="9.10734259387264"><ele>1221.0</ele><time>2026-04-25T13:36:34.998Z</time></trkpt><trkpt lat="46.07867242428781" lon="9.107184208631601"><ele>1221.0</ele><time>2026-04-25T13:36:36.999Z</time></trkpt><trkpt lat="46.078644124128644" lon="9.107033262038868"><ele>1221.0</ele><time>2026-04-25T13:36:38.999Z</time></trkpt><trkpt lat="46.078690678789926" lon="9.106965213869803"><ele>1221.0</ele><time>2026-04-25T13:36:40.999Z</time></trkpt><trkpt lat="46.07877761516919" lon="9.107018880503764"><ele>1221.0</ele><time>2026-04-25T13:36:43.999Z</time></trkpt><trkpt lat="46.07883886178028" lon="9.107064300349359"><ele>1221.0</ele><time>2026-04-25T13:36:45.999Z</time></trkpt><trkpt lat="46.0788949100218" lon="9.10701636045537"><ele>1221.0</ele><time>2026-04-25T13:36:48.999Z</time></trkpt><trkpt lat="46.07893431054133" lon="9.106943749899584"><ele>1221.0</ele><time>2026-04-25T13:36:49.999Z</time></trkpt><trkpt lat="46.07897460523869" lon="9.106870239116324"><ele>1221.0</ele><time>2026-04-25T13:36:50.999Z</time></trkpt><trkpt lat="46.079011071069566" lon="9.106740197570133"><ele>1221.0</ele><time>2026-04-25T13:36:52.999Z</time></trkpt><trkpt lat="46.07901526693444" lon="9.106629043316884"><ele>1221.0</ele><time>2026-04-25T13:36:53.999Z</time></trkpt><trkpt lat="46.07903110244902" lon="9.106520725847293"><ele>1221.0</ele><time>2026-04-25T13:36:54.999Z</time></trkpt><trkpt lat="46.07905812534849" lon="9.10641430386948"><ele>1221.0</ele><time>2026-04-25T13:36:55.999Z</time></trkpt><trkpt lat="46.079100169629115" lon="9.106303327684824"><ele>1227.8333333333333</ele><time>2026-04-25T13:36:56.999Z</time></trkpt><trkpt lat="46.07912860445389" lon="9.1061942353024"><ele>1234.6666666666667</ele><time>2026-04-25T13:36:57.999Z</time></trkpt><trkpt lat="46.079164079807796" lon="9.106082104033336"><ele>1241.5</ele><time>2026-04-25T13:36:58.999Z</time></trkpt><trkpt lat="46.07919196498808" lon="9.105976721766359"><ele>1248.3333333333335</ele><time>2026-04-25T13:36:59.999Z</time></trkpt><trkpt lat="46.07921938011747" lon="9.105865011224372"><ele>1255.1666666666667</ele><time>2026-04-25T13:37:00.999Z</time></trkpt><trkpt lat="46.07923993948417" lon="9.10575741342176"><ele>1262.0</ele><time>2026-04-25T13:37:01.999Z</time></trkpt><trkpt lat="46.07926561153939" lon="9.105659888773413"><ele>1262.0</ele><time>2026-04-25T13:37:02.999Z</time></trkpt><trkpt lat="46.07927615442378" lon="9.105558671334304"><ele>1262.0</ele><time>2026-04-25T13:37:04Z</time></trkpt><trkpt lat="46.079296064280555" lon="9.105463314518628"><ele>1262.0</ele><time>2026-04-25T13:37:05Z</time></trkpt><trkpt lat="46.07930630350064" lon="9.105367228218665"><ele>1262.0</ele><time>2026-04-25T13:37:06Z</time></trkpt><trkpt lat="46.079325058231355" lon="9.105265108535484"><ele>1262.0</ele><time>2026-04-25T13:37:07Z</time></trkpt><trkpt lat="46.07938503987405" lon="9.105115111327612"><ele>1262.0</ele><time>2026-04-25T13:37:09Z</time></trkpt><trkpt lat="46.07943296833333" lon="9.105049219014846"><ele>1262.0</ele><time>2026-04-25T13:37:10Z</time></trkpt><trkpt lat="46.079477225285274" lon="9.104983204741538"><ele>1262.0</ele><time>2026-04-25T13:37:11Z</time></trkpt><trkpt lat="46.07953638850106" lon="9.104890618605749"><ele>1262.0</ele><time>2026-04-25T13:37:13Z</time></trkpt><trkpt lat="46.07958081008307" lon="9.10480631670783"><ele>1262.0</ele><time>2026-04-25T13:37:14Z</time></trkpt><trkpt lat="46.079628658990664" lon="9.10472922172319"><ele>1262.0</ele><time>2026-04-25T13:37:15Z</time></trkpt><trkpt lat="46.079660566580124" lon="9.104648964215635"><ele>1262.0</ele><time>2026-04-25T13:37:16Z</time></trkpt><trkpt lat="46.07971534192409" lon="9.104480913173656"><ele>1261.857142857143</ele><time>2026-04-25T13:37:18Z</time></trkpt><trkpt lat="46.07972460614769" lon="9.10438660874218"><ele>1261.7142857142856</ele><time>2026-04-25T13:37:19Z</time></trkpt><trkpt lat="46.07972323972691" lon="9.104295746923043"><ele>1261.5714285714284</ele><time>2026-04-25T13:37:20Z</time></trkpt><trkpt lat="46.07971348527539" lon="9.104201945626803"><ele>1261.4285714285716</ele><time>2026-04-25T13:37:21Z</time></trkpt><trkpt lat="46.07969985842811" lon="9.104110661143643"><ele>1261.2857142857142</ele><time>2026-04-25T13:37:22Z</time></trkpt><trkpt lat="46.07968998138005" lon="9.104020783439212"><ele>1261.142857142857</ele><time>2026-04-25T13:37:23Z</time></trkpt><trkpt lat="46.07972397928572" lon="9.103846055441556"><ele>1261.0</ele><time>2026-04-25T13:37:25Z</time></trkpt><trkpt lat="46.07975696742483" lon="9.103765749153276"><ele>1260.6666666666665</ele><time>2026-04-25T13:37:26Z</time></trkpt><trkpt lat="46.07978975182075" lon="9.103687613307706"><ele>1260.3333333333333</ele><time>2026-04-25T13:37:27Z</time></trkpt><trkpt lat="46.079828984289705" lon="9.10360408765797"><ele>1260.0</ele><time>2026-04-25T13:37:28Z</time></trkpt><trkpt lat="46.07985929902133" lon="9.103501364187268"><ele>1259.6666666666667</ele><time>2026-04-25T13:37:29Z</time></trkpt><trkpt lat="46.079873685392705" lon="9.103358775345754"><ele>1259.3333333333335</ele><time>2026-04-25T13:37:31Z</time></trkpt><trkpt lat="46.079913605424906" lon="9.103265507694573"><ele>1259.0</ele><time>2026-04-25T13:37:34Z</time></trkpt><trkpt lat="46.07996825502925" lon="9.103367770221002"><ele>1267.8000000000002</ele><time>2026-04-25T13:37:37Z</time></trkpt><trkpt lat="46.079939978292906" lon="9.103520356036972"><ele>1276.6000000000001</ele><time>2026-04-25T13:37:39Z</time></trkpt><trkpt lat="46.07995963103094" lon="9.10369396722973"><ele>1285.4</ele><time>2026-04-25T13:37:41Z</time></trkpt><trkpt lat="46.079992475318846" lon="9.103790044236247"><ele>1294.2</ele><time>2026-04-25T13:37:42Z</time></trkpt><trkpt lat="46.08001927642343" lon="9.103873593321648"><ele>1303.0</ele><time>2026-04-25T13:37:43Z</time></trkpt><trkpt lat="46.080016293687336" lon="9.104037999479806"><ele>1302.1666666666665</ele><time>2026-04-25T13:37:45Z</time></trkpt><trkpt lat="46.07999601804328" lon="9.10412449609534"><ele>1301.3333333333333</ele><time>2026-04-25T13:37:46Z</time></trkpt><trkpt lat="46.079996040106955" lon="9.104294434568997"><ele>1300.5</ele><time>2026-04-25T13:37:48Z</time></trkpt><trkpt lat="46.080057560315865" lon="9.104443764278992"><ele>1299.6666666666667</ele><time>2026-04-25T13:37:50Z</time></trkpt><trkpt lat="46.08008375465855" lon="9.104544348936086"><ele>1298.8333333333335</ele><time>2026-04-25T13:37:51Z</time></trkpt><trkpt lat="46.08010594959953" lon="9.104630020786496"><ele>1298.0</ele><time>2026-04-25T13:37:52Z</time></trkpt><trkpt lat="46.08012644989509" lon="9.104730066764468"><ele>1298.0</ele><time>2026-04-25T13:37:53Z</time></trkpt><trkpt lat="46.08012724685547" lon="9.104828510438708"><ele>1298.0</ele><time>2026-04-25T13:37:54Z</time></trkpt><trkpt lat="46.08011896954765" lon="9.10493257131099"><ele>1298.0</ele><time>2026-04-25T13:37:55Z</time></trkpt><trkpt lat="46.08011327382515" lon="9.105035625969409"><ele>1298.0</ele><time>2026-04-25T13:37:56Z</time></trkpt><trkpt lat="46.08011339797186" lon="9.105142005166948"><ele>1298.0</ele><time>2026-04-25T13:37:57Z</time></trkpt><trkpt lat="46.08011938458333" lon="9.105244685916018"><ele>1298.0</ele><time>2026-04-25T13:37:58Z</time></trkpt><trkpt lat="46.080129441084054" lon="9.105413037397401"><ele>1297.9999999999998</ele><time>2026-04-25T13:38:00.001Z</time></trkpt><trkpt lat="46.08015562658073" lon="9.105524449113004"><ele>1298.0</ele><time>2026-04-25T13:38:03.001Z</time></trkpt><trkpt lat="46.080222439549125" lon="9.105444273371376"><ele>1298.0</ele><time>2026-04-25T13:38:06.001Z</time></trkpt><trkpt lat="46.080233109775946" lon="9.10535113767793"><ele>1298.0</ele><time>2026-04-25T13:38:07.001Z</time></trkpt><trkpt lat="46.08022963031973" lon="9.105257997448577"><ele>1298.0</ele><time>2026-04-25T13:38:08.001Z</time></trkpt><trkpt lat="46.080239340232175" lon="9.10515609815848"><ele>1297.9999999999998</ele><time>2026-04-25T13:38:09.001Z</time></trkpt><trkpt lat="46.080257692624485" lon="9.105061977036474"><ele>1298.0</ele><time>2026-04-25T13:38:10.001Z</time></trkpt><trkpt lat="46.080309326847136" lon="9.104904021267409"><ele>1298.0</ele><time>2026-04-25T13:38:12.001Z</time></trkpt><trkpt lat="46.080329001403484" lon="9.104817276513506"><ele>1298.0</ele><time>2026-04-25T13:38:13.001Z</time></trkpt><trkpt lat="46.08033535717607" lon="9.104726005617525"><ele>1298.0</ele><time>2026-04-25T13:38:14.001Z</time></trkpt><trkpt lat="46.08029559535768" lon="9.104562127057475"><ele>1298.0</ele><time>2026-04-25T13:38:16.001Z</time></trkpt><trkpt lat="46.08028551878849" lon="9.104402641068132"><ele>1298.0</ele><time>2026-04-25T13:38:18.001Z</time></trkpt><trkpt lat="46.080283385151276" lon="9.104257561569387"><ele>1298.0</ele><time>2026-04-25T13:38:20.001Z</time></trkpt><trkpt lat="46.08031079422592" lon="9.10413696386185"><ele>1298.0</ele><time>2026-04-25T13:38:22.001Z</time></trkpt><trkpt lat="46.08034623494464" lon="9.104060581872698"><ele>1298.0</ele><time>2026-04-25T13:38:23.001Z</time></trkpt><trkpt lat="46.080411862831326" lon="9.103898723390177"><ele>1298.0</ele><time>2026-04-25T13:38:24.997Z</time></trkpt><trkpt lat="46.08044622178723" lon="9.103813274710248"><ele>1298.0</ele><time>2026-04-25T13:38:25.997Z</time></trkpt><trkpt lat="46.08046965397209" lon="9.103726492376957"><ele>1298.0</ele><time>2026-04-25T13:38:26.998Z</time></trkpt><trkpt lat="46.080485629320286" lon="9.10362586650163"><ele>1299.0</ele><time>2026-04-25T13:38:27.998Z</time></trkpt><trkpt lat="46.0805002144234" lon="9.103532062688743"><ele>1300.0</ele><time>2026-04-25T13:38:28.998Z</time></trkpt><trkpt lat="46.0805103169689" lon="9.103438798132595"><ele>1301.0</ele><time>2026-04-25T13:38:29.998Z</time></trkpt><trkpt lat="46.08052310830297" lon="9.103261199247491"><ele>1302.0</ele><time>2026-04-25T13:38:31.998Z</time></trkpt><trkpt lat="46.0805024298168" lon="9.103108347729668"><ele>1303.0</ele><time>2026-04-25T13:38:33.998Z</time></trkpt><trkpt lat="46.08052824576145" lon="9.102939377443464"><ele>1303.6000000000001</ele><time>2026-04-25T13:38:35.998Z</time></trkpt><trkpt lat="46.08054848514639" lon="9.102845971726357"><ele>1304.2</ele><time>2026-04-25T13:38:36.998Z</time></trkpt><trkpt lat="46.08055694357789" lon="9.102669082142045"><ele>1304.8</ele><time>2026-04-25T13:38:38.998Z</time></trkpt><trkpt lat="46.08055588348199" lon="9.102509252557024"><ele>1305.4</ele><time>2026-04-25T13:38:40.998Z</time></trkpt><trkpt lat="46.08057694452378" lon="9.102368230591846"><ele>1306.0</ele><time>2026-04-25T13:38:42.998Z</time></trkpt><trkpt lat="46.08062110639164" lon="9.102241554303175"><ele>1306.0</ele><time>2026-04-25T13:38:44.999Z</time></trkpt><trkpt lat="46.08068685412308" lon="9.102115154148164"><ele>1306.0</ele><time>2026-04-25T13:38:46.999Z</time></trkpt><trkpt lat="46.08076228912065" lon="9.101977685731745"><ele>1306.0</ele><time>2026-04-25T13:38:48.999Z</time></trkpt><trkpt lat="46.08084480176007" lon="9.101840241408908"><ele>1306.0</ele><time>2026-04-25T13:38:50.999Z</time></trkpt><trkpt lat="46.08090408970959" lon="9.101689203459708"><ele>1313.6</ele><time>2026-04-25T13:38:52.999Z</time></trkpt><trkpt lat="46.080925673935944" lon="9.101515869988287"><ele>1321.1999999999998</ele><time>2026-04-25T13:38:54.999Z</time></trkpt><trkpt lat="46.080948467991476" lon="9.101349621468305"><ele>1328.8000000000002</ele><time>2026-04-25T13:38:56.999Z</time></trkpt><trkpt lat="46.080947876678344" lon="9.101193777518656"><ele>1336.4</ele><time>2026-04-25T13:38:58.999Z</time></trkpt><trkpt lat="46.0809436889863" lon="9.10110246426868"><ele>1344.0</ele><time>2026-04-25T13:38:59.999Z</time></trkpt><trkpt lat="46.080932963915544" lon="9.101000624735416"><ele>1344.0</ele><time>2026-04-25T13:39:00.999Z</time></trkpt><trkpt lat="46.08092424510772" lon="9.100891838172881"><ele>1344.0</ele><time>2026-04-25T13:39:01.999Z</time></trkpt><trkpt lat="46.08093106670281" lon="9.100770926603083"><ele>1344.0</ele><time>2026-04-25T13:39:02.999Z</time></trkpt><trkpt lat="46.08093764355867" lon="9.100667736137197"><ele>1344.0</ele><time>2026-04-25T13:39:03.999Z</time></trkpt><trkpt lat="46.08096405477404" lon="9.100563270831959"><ele>1344.0</ele><time>2026-04-25T13:39:05Z</time></trkpt><trkpt lat="46.08098751635691" lon="9.100477706579753"><ele>1344.0</ele><time>2026-04-25T13:39:06Z</time></trkpt><trkpt lat="46.08101292572732" lon="9.100351443088964"><ele>1344.0</ele><time>2026-04-25T13:39:08Z</time></trkpt><trkpt lat="46.08104659299018" lon="9.100224069836207"><ele>1344.0</ele><time>2026-04-25T13:39:10Z</time></trkpt><trkpt lat="46.08108082894195" lon="9.100074705218866"><ele>1344.0</ele><time>2026-04-25T13:39:12Z</time></trkpt><trkpt lat="46.08112818385408" lon="9.099916669294176"><ele>1344.0</ele><time>2026-04-25T13:39:14Z</time></trkpt><trkpt lat="46.08117861079739" lon="9.099759155500893"><ele>1344.0</ele><time>2026-04-25T13:39:16Z</time></trkpt><trkpt lat="46.081247096417314" lon="9.099615731071445"><ele>1343.1666666666667</ele><time>2026-04-25T13:39:18Z</time></trkpt><trkpt lat="46.081338993432105" lon="9.099468872408389"><ele>1342.3333333333333</ele><time>2026-04-25T13:39:20Z</time></trkpt><trkpt lat="46.08138589595966" lon="9.099402922566803"><ele>1341.5</ele><time>2026-04-25T13:39:21Z</time></trkpt><trkpt lat="46.08144399005164" lon="9.099336379067278"><ele>1340.6666666666665</ele><time>2026-04-25T13:39:22Z</time></trkpt><trkpt lat="46.08149933544715" lon="9.09926171832919"><ele>1339.8333333333333</ele><time>2026-04-25T13:39:23Z</time></trkpt><trkpt lat="46.08155208524595" lon="9.099183797854174"><ele>1339.0</ele><time>2026-04-25T13:39:24Z</time></trkpt><trkpt lat="46.08159889394425" lon="9.099115069318136"><ele>1342.6666666666665</ele><time>2026-04-25T13:39:25Z</time></trkpt><trkpt lat="46.081678163537404" lon="9.098970502083926"><ele>1346.3333333333333</ele><time>2026-04-25T13:39:27Z</time></trkpt><trkpt lat="46.0817314533417" lon="9.098880685026455"><ele>1350.0</ele><time>2026-04-25T13:39:28Z</time></trkpt><trkpt lat="46.08178056672952" lon="9.098811894734709"><ele>1353.6666666666667</ele><time>2026-04-25T13:39:29Z</time></trkpt><trkpt lat="46.08183580475025" lon="9.098724594525642"><ele>1357.3333333333335</ele><time>2026-04-25T13:39:30Z</time></trkpt><trkpt lat="46.08189618316388" lon="9.098646135354167"><ele>1361.0</ele><time>2026-04-25T13:39:31Z</time></trkpt><trkpt lat="46.08196171682348" lon="9.09855636090951"><ele>1361.0</ele><time>2026-04-25T13:39:32Z</time></trkpt><trkpt lat="46.08204425410961" lon="9.098475603166078"><ele>1361.0</ele><time>2026-04-25T13:39:33Z</time></trkpt><trkpt lat="46.08208893173838" lon="9.098399117211935"><ele>1361.0</ele><time>2026-04-25T13:39:34Z</time></trkpt><trkpt lat="46.08216620600146" lon="9.098271162938426"><ele>1361.0</ele><time>2026-04-25T13:39:36Z</time></trkpt><trkpt lat="46.08218496690218" lon="9.098095418317266"><ele>1361.0</ele><time>2026-04-25T13:39:38Z</time></trkpt><trkpt lat="46.08223120853227" lon="9.097949659539198"><ele>1360.8</ele><time>2026-04-25T13:39:40Z</time></trkpt><trkpt lat="46.08229555720641" lon="9.097853213073249"><ele>1360.6</ele><time>2026-04-25T13:39:42Z</time></trkpt><trkpt lat="46.082380894914145" lon="9.097760891797195"><ele>1360.4</ele><time>2026-04-25T13:39:44.001Z</time></trkpt><trkpt lat="46.08246151657254" lon="9.09765124329092"><ele>1360.2</ele><time>2026-04-25T13:39:46.001Z</time></trkpt><trkpt lat="46.0825608614545" lon="9.097557897927055"><ele>1360.0</ele><time>2026-04-25T13:39:48.001Z</time></trkpt><trkpt lat="46.0826438950936" lon="9.09748088601694"><ele>1364.8</ele><time>2026-04-25T13:39:50.001Z</time></trkpt><trkpt lat="46.082716639817285" lon="9.097375984659555"><ele>1369.6</ele><time>2026-04-25T13:39:52.001Z</time></trkpt><trkpt lat="46.08275442863532" lon="9.097215060514982"><ele>1374.4</ele><time>2026-04-25T13:39:54.001Z</time></trkpt><trkpt lat="46.08278781538576" lon="9.097040283798314"><ele>1379.2</ele><time>2026-04-25T13:39:56.001Z</time></trkpt><trkpt lat="46.08280128575282" lon="9.096944781488213"><ele>1384.0</ele><time>2026-04-25T13:39:57.001Z</time></trkpt><trkpt lat="46.0828136115141" lon="9.09685518208896"><ele>1384.0</ele><time>2026-04-25T13:39:58.001Z</time></trkpt><trkpt lat="46.08281478863553" lon="9.096686070573796"><ele>1384.0</ele><time>2026-04-25T13:40:00.001Z</time></trkpt><trkpt lat="46.082799734529125" lon="9.09651035266062"><ele>1384.0</ele><time>2026-04-25T13:40:02.001Z</time></trkpt><trkpt lat="46.08279726306212" lon="9.096417556704743"><ele>1384.0</ele><time>2026-04-25T13:40:03.001Z</time></trkpt><trkpt lat="46.08278674077641" lon="9.096255384294919"><ele>1384.0</ele><time>2026-04-25T13:40:05.001Z</time></trkpt><trkpt lat="46.082743176454386" lon="9.096132179318467"><ele>1384.0</ele><time>2026-04-25T13:40:07.001Z</time></trkpt><trkpt lat="46.08264132232015" lon="9.096055012417965"><ele>1384.0</ele><time>2026-04-25T13:40:09.001Z</time></trkpt><trkpt lat="46.08252186916492" lon="9.096016057648994"><ele>1384.0</ele><time>2026-04-25T13:40:11.001Z</time></trkpt><trkpt lat="46.08242336812065" lon="9.095956710536218"><ele>1384.0</ele><time>2026-04-25T13:40:13.001Z</time></trkpt><trkpt lat="46.08235110595615" lon="9.09587854502607"><ele>1384.0</ele><time>2026-04-25T13:40:15.001Z</time></trkpt><trkpt lat="46.082298932385854" lon="9.095743789206791"><ele>1384.0</ele><time>2026-04-25T13:40:17.001Z</time></trkpt><trkpt lat="46.082311725205926" lon="9.095603236638267"><ele>1384.0</ele><time>2026-04-25T13:40:19.001Z</time></trkpt><trkpt lat="46.08238055621728" lon="9.095492131394113"><ele>1384.0</ele><time>2026-04-25T13:40:21.001Z</time></trkpt><trkpt lat="46.08245041468643" lon="9.095397184438111"><ele>1384.0</ele><time>2026-04-25T13:40:23.001Z</time></trkpt><trkpt lat="46.082510747191094" lon="9.09524621256711"><ele>1384.0</ele><time>2026-04-25T13:40:25.001Z</time></trkpt><trkpt lat="46.08258073105012" lon="9.095128952600199"><ele>1389.0</ele><time>2026-04-25T13:40:27.002Z</time></trkpt><trkpt lat="46.08263310445119" lon="9.09499454465354"><ele>1394.0</ele><time>2026-04-25T13:40:29.002Z</time></trkpt><trkpt lat="46.08270214835891" lon="9.094866281859499"><ele>1399.0</ele><time>2026-04-25T13:40:30.998Z</time></trkpt><trkpt lat="46.082763138879294" lon="9.094714251278255"><ele>1404.0</ele><time>2026-04-25T13:40:32.998Z</time></trkpt><trkpt lat="46.082823643983296" lon="9.094549617211312"><ele>1404.8333333333333</ele><time>2026-04-25T13:40:34.998Z</time></trkpt><trkpt lat="46.082874322121484" lon="9.09439791398061"><ele>1405.6666666666667</ele><time>2026-04-25T13:40:36.998Z</time></trkpt><trkpt lat="46.082891930687516" lon="9.094298290688133"><ele>1406.5</ele><time>2026-04-25T13:40:37.999Z</time></trkpt><trkpt lat="46.08290199947268" lon="9.094194057114377"><ele>1407.3333333333335</ele><time>2026-04-25T13:40:38.999Z</time></trkpt><trkpt lat="46.0829090699012" lon="9.094090744637965"><ele>1408.1666666666667</ele><time>2026-04-25T13:40:39.999Z</time></trkpt><trkpt lat="46.08291104269686" lon="9.093925871289096"><ele>1409.0</ele><time>2026-04-25T13:40:41.999Z</time></trkpt><trkpt lat="46.0828850511322" lon="9.093756487808724"><ele>1409.7142857142858</ele><time>2026-04-25T13:40:43.999Z</time></trkpt><trkpt lat="46.08286425284424" lon="9.093663705720543"><ele>1410.4285714285713</ele><time>2026-04-25T13:40:44.999Z</time></trkpt><trkpt lat="46.08283261769602" lon="9.093570923624252"><ele>1411.142857142857</ele><time>2026-04-25T13:40:45.999Z</time></trkpt><trkpt lat="46.08280267909771" lon="9.093479899265212"><ele>1411.857142857143</ele><time>2026-04-25T13:40:46.999Z</time></trkpt><trkpt lat="46.082780710888976" lon="9.093390793178106"><ele>1412.5714285714284</ele><time>2026-04-25T13:40:47.999Z</time></trkpt><trkpt lat="46.08276312748792" lon="9.093298652646803"><ele>1413.2857142857142</ele><time>2026-04-25T13:40:48.999Z</time></trkpt><trkpt lat="46.08274979540297" lon="9.093201605796665"><ele>1414.0</ele><time>2026-04-25T13:40:49.999Z</time></trkpt><trkpt lat="46.08273643266881" lon="9.093084285590166"><ele>1415.8000000000002</ele><time>2026-04-25T13:40:50.999Z</time></trkpt><trkpt lat="46.08273890557077" lon="9.092904285693733"><ele>1417.6000000000001</ele><time>2026-04-25T13:40:52.999Z</time></trkpt><trkpt lat="46.08273442190287" lon="9.092751649843628"><ele>1419.4</ele><time>2026-04-25T13:40:54.999Z</time></trkpt><trkpt lat="46.082691730181494" lon="9.092619881682614"><ele>1421.2</ele><time>2026-04-25T13:40:56.999Z</time></trkpt><trkpt lat="46.082673304860336" lon="9.092529897483772"><ele>1423.0</ele><time>2026-04-25T13:40:58Z</time></trkpt><trkpt lat="46.08266034821368" lon="9.092435271901204"><ele>1423.8333333333333</ele><time>2026-04-25T13:40:59Z</time></trkpt><trkpt lat="46.08265638122265" lon="9.092337660568278"><ele>1424.6666666666665</ele><time>2026-04-25T13:41:00Z</time></trkpt><trkpt lat="46.08265777284116" lon="9.092242849909224"><ele>1425.5</ele><time>2026-04-25T13:41:01Z</time></trkpt><trkpt lat="46.08265967498663" lon="9.092143089468589"><ele>1426.3333333333333</ele><time>2026-04-25T13:41:02Z</time></trkpt><trkpt lat="46.082670203170316" lon="9.092049760584567"><ele>1427.1666666666667</ele><time>2026-04-25T13:41:03Z</time></trkpt><trkpt lat="46.082697796648084" lon="9.091873892022774"><ele>1428.0</ele><time>2026-04-25T13:41:05Z</time></trkpt><trkpt lat="46.08270942205231" lon="9.091777560978748"><ele>1428.0</ele><time>2026-04-25T13:41:06Z</time></trkpt><trkpt lat="46.082720787529254" lon="9.091686910248493"><ele>1428.0</ele><time>2026-04-25T13:41:07Z</time></trkpt><trkpt lat="46.082729654988796" lon="9.091499030713027"><ele>1428.0</ele><time>2026-04-25T13:41:09Z</time></trkpt><trkpt lat="46.08274220413188" lon="9.091409847417115"><ele>1428.0</ele><time>2026-04-25T13:41:10Z</time></trkpt><trkpt lat="46.082765617703714" lon="9.09125167309976"><ele>1428.0</ele><time>2026-04-25T13:41:12Z</time></trkpt><trkpt lat="46.08280384140484" lon="9.091107700289028"><ele>1429.3333333333333</ele><time>2026-04-25T13:41:14Z</time></trkpt><trkpt lat="46.082807823601556" lon="9.091000194596658"><ele>1430.6666666666667</ele><time>2026-04-25T13:41:16Z</time></trkpt><trkpt lat="46.082838729053876" lon="9.090903052433422"><ele>1432.0</ele><time>2026-04-25T13:41:18Z</time></trkpt><trkpt lat="46.08286830628267" lon="9.090775404330076"><ele>1433.3333333333335</ele><time>2026-04-25T13:41:20Z</time></trkpt><trkpt lat="46.0828856467753" lon="9.09066984849744"><ele>1434.6666666666667</ele><time>2026-04-25T13:41:22Z</time></trkpt><trkpt lat="46.082904217052615" lon="9.09056723277475"><ele>1436.0</ele><time>2026-04-25T13:41:24Z</time></trkpt><trkpt lat="46.082912600571234" lon="9.090388836235478"><ele>1438.5</ele><time>2026-04-25T13:41:26Z</time></trkpt><trkpt lat="46.08290574158741" lon="9.090293169593576"><ele>1441.0</ele><time>2026-04-25T13:41:28.001Z</time></trkpt><trkpt lat="46.08287887126046" lon="9.090199126395182"><ele>1443.5</ele><time>2026-04-25T13:41:30.001Z</time></trkpt><trkpt lat="46.08287236995469" lon="9.090080231402661"><ele>1446.0</ele><time>2026-04-25T13:41:32.001Z</time></trkpt><trkpt lat="46.0827823883983" lon="9.089976868795576"><ele>1448.5</ele><time>2026-04-25T13:41:36.001Z</time></trkpt><trkpt lat="46.0827408122204" lon="9.0898712300549"><ele>1451.0</ele><time>2026-04-25T13:41:38.001Z</time></trkpt><trkpt lat="46.08267648776059" lon="9.089737889037323"><ele>1450.3333333333335</ele><time>2026-04-25T13:41:40.001Z</time></trkpt><trkpt lat="46.082631961548984" lon="9.089669857469083"><ele>1449.6666666666667</ele><time>2026-04-25T13:41:41.001Z</time></trkpt><trkpt lat="46.08255642029856" lon="9.089528526157727"><ele>1449.0</ele><time>2026-04-25T13:41:43.001Z</time></trkpt><trkpt lat="46.08249074025048" lon="9.089446982306555"><ele>1448.3333333333333</ele><time>2026-04-25T13:41:45.001Z</time></trkpt><trkpt lat="46.08245010987057" lon="9.089316712021139"><ele>1447.6666666666665</ele><time>2026-04-25T13:41:47.001Z</time></trkpt><trkpt lat="46.08241725697511" lon="9.089231708477692"><ele>1447.0</ele><time>2026-04-25T13:41:48.001Z</time></trkpt><trkpt lat="46.08234978669884" lon="9.089065854455212"><ele>1449.8333333333333</ele><time>2026-04-25T13:41:50.001Z</time></trkpt><trkpt lat="46.08231628749366" lon="9.088986345965523"><ele>1452.6666666666665</ele><time>2026-04-25T13:41:51.001Z</time></trkpt><trkpt lat="46.082267257396424" lon="9.088894578253491"><ele>1455.5</ele><time>2026-04-25T13:41:52.001Z</time></trkpt><trkpt lat="46.08221732705567" lon="9.08882011256719"><ele>1458.3333333333333</ele><time>2026-04-25T13:41:53.001Z</time></trkpt><trkpt lat="46.08212626113656" lon="9.088685528045248"><ele>1461.1666666666667</ele><time>2026-04-25T13:41:55.001Z</time></trkpt><trkpt lat="46.08207039600733" lon="9.088622478647848"><ele>1464.0</ele><time>2026-04-25T13:41:56.001Z</time></trkpt><trkpt lat="46.08199222533994" lon="9.088507795499321"><ele>1464.0</ele><time>2026-04-25T13:41:58.001Z</time></trkpt><trkpt lat="46.08194315522671" lon="9.08843974218497"><ele>1464.0</ele><time>2026-04-25T13:41:59.001Z</time></trkpt><trkpt lat="46.0818777930936" lon="9.088340526141414"><ele>1464.0</ele><time>2026-04-25T13:42:01.001Z</time></trkpt><trkpt lat="46.081835235735284" lon="9.088271811344136"><ele>1464.0</ele><time>2026-04-25T13:42:03.002Z</time></trkpt><trkpt lat="46.081821496063796" lon="9.088180818393173"><ele>1464.0</ele><time>2026-04-25T13:42:06.002Z</time></trkpt><trkpt lat="46.08188385043252" lon="9.088146477147243"><ele>1464.0</ele><time>2026-04-25T13:42:36.999Z</time></trkpt><trkpt lat="46.08196255832451" lon="9.08821499227169"><ele>1464.0</ele><time>2026-04-25T13:42:38.999Z</time></trkpt><trkpt lat="46.08210827530254" lon="9.08833966366122"><ele>1464.0</ele><time>2026-04-25T13:42:40.999Z</time></trkpt><trkpt lat="46.082199498139126" lon="9.088409560589703"><ele>1464.0</ele><time>2026-04-25T13:42:41.999Z</time></trkpt><trkpt lat="46.08227459810032" lon="9.088465403632798"><ele>1464.0</ele><time>2026-04-25T13:42:42.999Z</time></trkpt><trkpt lat="46.08233499478667" lon="9.088520856851234"><ele>1464.0</ele><time>2026-04-25T13:42:43.999Z</time></trkpt><trkpt lat="46.08243705722988" lon="9.08862655531472"><ele>1467.4285714285716</ele><time>2026-04-25T13:42:45.999Z</time></trkpt><trkpt lat="46.08248015150545" lon="9.088696669022134"><ele>1470.857142857143</ele><time>2026-04-25T13:42:46.999Z</time></trkpt><trkpt lat="46.08253197433814" lon="9.08877736288104"><ele>1474.2857142857142</ele><time>2026-04-25T13:42:47.999Z</time></trkpt><trkpt lat="46.08258982346511" lon="9.088847959275547"><ele>1477.7142857142858</ele><time>2026-04-25T13:42:48.999Z</time></trkpt><trkpt lat="46.082652960376016" lon="9.088897135158149"><ele>1481.142857142857</ele><time>2026-04-25T13:42:49.999Z</time></trkpt><trkpt lat="46.08271026683285" lon="9.08893856084648"><ele>1484.5714285714287</ele><time>2026-04-25T13:42:50.999Z</time></trkpt><trkpt lat="46.08275971029973" lon="9.088996060571443"><ele>1488.0</ele><time>2026-04-25T13:42:52Z</time></trkpt><trkpt lat="46.08281301127079" lon="9.089067721333167"><ele>1485.1666666666667</ele><time>2026-04-25T13:42:53Z</time></trkpt><trkpt lat="46.082878965936295" lon="9.089129555900197"><ele>1482.3333333333333</ele><time>2026-04-25T13:42:54Z</time></trkpt><trkpt lat="46.082947779203046" lon="9.089169649690938"><ele>1479.5</ele><time>2026-04-25T13:42:55Z</time></trkpt><trkpt lat="46.0830101430359" lon="9.089200015302048"><ele>1476.6666666666665</ele><time>2026-04-25T13:42:56Z</time></trkpt><trkpt lat="46.08310196147806" lon="9.089280876963567"><ele>1473.8333333333333</ele><time>2026-04-25T13:42:58Z</time></trkpt><trkpt lat="46.083184487973874" lon="9.089399341591632"><ele>1471.0</ele><time>2026-04-25T13:43:00Z</time></trkpt><trkpt lat="46.083238185959175" lon="9.089448926032613"><ele>1475.6666666666665</ele><time>2026-04-25T13:43:01Z</time></trkpt><trkpt lat="46.08330233225499" lon="9.089516074825694"><ele>1480.3333333333333</ele><time>2026-04-25T13:43:02Z</time></trkpt><trkpt lat="46.08339678749754" lon="9.08963993188251"><ele>1485.0</ele><time>2026-04-25T13:43:04Z</time></trkpt><trkpt lat="46.083463562798116" lon="9.089695466509234"><ele>1489.6666666666667</ele><time>2026-04-25T13:43:05Z</time></trkpt><trkpt lat="46.08351435840879" lon="9.089768268502953"><ele>1494.3333333333335</ele><time>2026-04-25T13:43:06Z</time></trkpt><trkpt lat="46.08357051877844" lon="9.089816688386355"><ele>1499.0</ele><time>2026-04-25T13:43:07Z</time></trkpt><trkpt lat="46.08362286379943" lon="9.089923960386491"><ele>1496.6666666666667</ele><time>2026-04-25T13:43:09Z</time></trkpt><trkpt lat="46.08368812396516" lon="9.090051852915098"><ele>1494.3333333333335</ele><time>2026-04-25T13:43:11Z</time></trkpt><trkpt lat="46.08372898790795" lon="9.090130419489196"><ele>1492.0</ele><time>2026-04-25T13:43:12Z</time></trkpt><trkpt lat="46.083769471084274" lon="9.09020060496136"><ele>1489.6666666666667</ele><time>2026-04-25T13:43:13Z</time></trkpt><trkpt lat="46.08383501010641" lon="9.090241961087292"><ele>1487.3333333333333</ele><time>2026-04-25T13:43:14Z</time></trkpt><trkpt lat="46.08389468805593" lon="9.090288501939444"><ele>1485.0</ele><time>2026-04-25T13:43:15Z</time></trkpt><trkpt lat="46.08395961191178" lon="9.090380538842977"><ele>1485.0</ele><time>2026-04-25T13:43:17Z</time></trkpt><trkpt lat="46.08404711307918" lon="9.090448983424405"><ele>1485.0</ele><time>2026-04-25T13:43:19.001Z</time></trkpt><trkpt lat="46.08416882640215" lon="9.090472611874805"><ele>1485.0</ele><time>2026-04-25T13:43:21.001Z</time></trkpt><trkpt lat="46.084271540822854" lon="9.090514695647283"><ele>1485.0</ele><time>2026-04-25T13:43:23.001Z</time></trkpt><trkpt lat="46.084364975384645" lon="9.090623740539751"><ele>1485.0</ele><time>2026-04-25T13:43:25.001Z</time></trkpt><trkpt lat="46.08442544211402" lon="9.090651255149341"><ele>1489.0</ele><time>2026-04-25T13:43:26.001Z</time></trkpt><trkpt lat="46.08452818294973" lon="9.090708674552687"><ele>1493.0</ele><time>2026-04-25T13:43:28.001Z</time></trkpt><trkpt lat="46.08463999983008" lon="9.090773143948757"><ele>1497.0</ele><time>2026-04-25T13:43:30.001Z</time></trkpt><trkpt lat="46.08472320252631" lon="9.090864009585594"><ele>1501.0</ele><time>2026-04-25T13:43:32.001Z</time></trkpt><trkpt lat="46.08480345511904" lon="9.09094105267074"><ele>1505.0</ele><time>2026-04-25T13:43:34.001Z</time></trkpt><trkpt lat="46.08489817091142" lon="9.091009051317721"><ele>1509.0</ele><time>2026-04-25T13:43:36.001Z</time></trkpt><trkpt lat="46.084986603959564" lon="9.09101727998769"><ele>1513.0</ele><time>2026-04-25T13:43:38.001Z</time></trkpt><trkpt lat="46.08508252345356" lon="9.09100561163284"><ele>1517.0</ele><time>2026-04-25T13:43:40.001Z</time></trkpt><trkpt lat="46.08515624670245" lon="9.09094596072652"><ele>1521.0</ele><time>2026-04-25T13:43:42.001Z</time></trkpt><trkpt lat="46.085212858738984" lon="9.09084214473858"><ele>1525.0</ele><time>2026-04-25T13:43:44.001Z</time></trkpt><trkpt lat="46.08526548483057" lon="9.090725919207573"><ele>1527.8</ele><time>2026-04-25T13:43:46.001Z</time></trkpt><trkpt lat="46.08533393215552" lon="9.090588140064517"><ele>1530.6</ele><time>2026-04-25T13:43:48.001Z</time></trkpt><trkpt lat="46.08539643908072" lon="9.090470790671137"><ele>1533.4</ele><time>2026-04-25T13:43:50.001Z</time></trkpt><trkpt lat="46.08546509875381" lon="9.090355316462302"><ele>1536.2</ele><time>2026-04-25T13:43:52.002Z</time></trkpt><trkpt lat="46.08555282317846" lon="9.090238890922143"><ele>1539.0</ele><time>2026-04-25T13:43:54.002Z</time></trkpt><trkpt lat="46.08562554862012" lon="9.090129364859225"><ele>1539.0</ele><time>2026-04-25T13:43:56.002Z</time></trkpt><trkpt lat="46.08571369620137" lon="9.090045228885334"><ele>1539.0</ele><time>2026-04-25T13:43:58.002Z</time></trkpt><trkpt lat="46.08580527662847" lon="9.089969281442135"><ele>1539.0</ele><time>2026-04-25T13:44:00.002Z</time></trkpt><trkpt lat="46.08589286395059" lon="9.08991939399675"><ele>1539.0</ele><time>2026-04-25T13:44:02.002Z</time></trkpt><trkpt lat="46.08597917350803" lon="9.089941278801225"><ele>1539.0</ele><time>2026-04-25T13:44:04.002Z</time></trkpt><trkpt lat="46.08606654187287" lon="9.08997376778364"><ele>1538.5</ele><time>2026-04-25T13:44:06.002Z</time></trkpt><trkpt lat="46.08613987517675" lon="9.08994871726095"><ele>1538.0</ele><time>2026-04-25T13:44:08.002Z</time></trkpt><trkpt lat="46.086177599773926" lon="9.089873899377132"><ele>1537.5</ele><time>2026-04-25T13:44:10.002Z</time></trkpt><trkpt lat="46.08618833168395" lon="9.089767901871754"><ele>1537.0</ele><time>2026-04-25T13:44:13.002Z</time></trkpt><trkpt lat="46.08621388537143" lon="9.089670340951052"><ele>1536.5</ele><time>2026-04-25T13:44:22.002Z</time></trkpt><trkpt lat="46.086301452238764" lon="9.08967563458449"><ele>1536.0</ele><time>2026-04-25T13:44:23.002Z</time></trkpt><trkpt lat="46.086374980692334" lon="9.089710973842676"><ele>1536.142857142857</ele><time>2026-04-25T13:44:25.002Z</time></trkpt><trkpt lat="46.08643853393612" lon="9.089756909706278"><ele>1536.2857142857142</ele><time>2026-04-25T13:44:27.003Z</time></trkpt><trkpt lat="46.08651906111897" lon="9.08977566128138"><ele>1536.4285714285716</ele><time>2026-04-25T13:44:29.003Z</time></trkpt><trkpt lat="46.0865825115936" lon="9.08981045779917"><ele>1536.5714285714284</ele><time>2026-04-25T13:44:31.003Z</time></trkpt><trkpt lat="46.08664719304792" lon="9.08983806192767"><ele>1536.7142857142858</ele><time>2026-04-25T13:44:33.003Z</time></trkpt><trkpt lat="46.08673712903541" lon="9.089842525851786"><ele>1536.857142857143</ele><time>2026-04-25T13:44:36.003Z</time></trkpt><trkpt lat="46.08679060135885" lon="9.089891427686913"><ele>1537.0</ele><time>2026-04-25T13:44:38.003Z</time></trkpt><trkpt lat="46.08684977862981" lon="9.089929179013172"><ele>1537.8</ele><time>2026-04-25T13:44:40.003Z</time></trkpt><trkpt lat="46.086933566816185" lon="9.08997635079453"><ele>1538.6</ele><time>2026-04-25T13:44:43Z</time></trkpt><trkpt lat="46.08703515927166" lon="9.090017059805712"><ele>1539.3999999999999</ele><time>2026-04-25T13:44:46Z</time></trkpt><trkpt lat="46.08712660039762" lon="9.090026216789099"><ele>1540.1999999999998</ele><time>2026-04-25T13:44:48Z</time></trkpt><trkpt lat="46.08723984178472" lon="9.090017180808765"><ele>1541.0</ele><time>2026-04-25T13:44:50Z</time></trkpt><trkpt lat="46.08733452570832" lon="9.089972223037075"><ele>1540.9999999999998</ele><time>2026-04-25T13:44:52Z</time></trkpt><trkpt lat="46.08741833644473" lon="9.089930884839628"><ele>1541.0</ele><time>2026-04-25T13:44:54Z</time></trkpt><trkpt lat="46.08751097231878" lon="9.089982549260988"><ele>1541.0</ele><time>2026-04-25T13:44:57Z</time></trkpt><trkpt lat="46.08755153597326" lon="9.090082447632426"><ele>1541.0</ele><time>2026-04-25T13:44:59Z</time></trkpt><trkpt lat="46.0875853627579" lon="9.090185617192313"><ele>1540.9999999999998</ele><time>2026-04-25T13:45:01Z</time></trkpt><trkpt lat="46.087644715110386" lon="9.090273490307542"><ele>1541.0</ele><time>2026-04-25T13:45:03Z</time></trkpt><trkpt lat="46.087742393531514" lon="9.09028849040065"><ele>1542.9999999999998</ele><time>2026-04-25T13:45:05Z</time></trkpt><trkpt lat="46.08783630118003" lon="9.090294002181352"><ele>1545.0</ele><time>2026-04-25T13:45:07.001Z</time></trkpt><trkpt lat="46.08792083756921" lon="9.090281288556302"><ele>1547.0</ele><time>2026-04-25T13:45:09.001Z</time></trkpt><trkpt lat="46.08802873479744" lon="9.09027652871116"><ele>1549.0</ele><time>2026-04-25T13:45:11.001Z</time></trkpt><trkpt lat="46.08811789178476" lon="9.090304379835288"><ele>1550.9999999999998</ele><time>2026-04-25T13:45:13.001Z</time></trkpt><trkpt lat="46.08818453071931" lon="9.090312654816682"><ele>1553.0</ele><time>2026-04-25T13:45:15.001Z</time></trkpt><trkpt lat="46.08826996262414" lon="9.090334094844907"><ele>1554.6666666666665</ele><time>2026-04-25T13:45:17.001Z</time></trkpt><trkpt lat="46.088333261677626" lon="9.090334681189383"><ele>1556.3333333333333</ele><time>2026-04-25T13:45:19.001Z</time></trkpt><trkpt lat="46.08841443781682" lon="9.090337244400164"><ele>1558.0</ele><time>2026-04-25T13:45:21.001Z</time></trkpt><trkpt lat="46.08851493179495" lon="9.090335271927136"><ele>1559.6666666666665</ele><time>2026-04-25T13:45:23.001Z</time></trkpt><trkpt lat="46.08861611180061" lon="9.09030759533414"><ele>1561.3333333333333</ele><time>2026-04-25T13:45:25.001Z</time></trkpt><trkpt lat="46.0887144976845" lon="9.090277145887834"><ele>1563.0</ele><time>2026-04-25T13:45:27.001Z</time></trkpt><trkpt lat="46.08878569762496" lon="9.090270151882434"><ele>1563.0</ele><time>2026-04-25T13:45:29.001Z</time></trkpt><trkpt lat="46.08887146695104" lon="9.090268972494895"><ele>1563.0</ele><time>2026-04-25T13:45:31.001Z</time></trkpt><trkpt lat="46.088955820301926" lon="9.090275035258296"><ele>1563.0</ele><time>2026-04-25T13:45:33.001Z</time></trkpt><trkpt lat="46.08904612123947" lon="9.090258473847065"><ele>1563.0</ele><time>2026-04-25T13:45:35.001Z</time></trkpt><trkpt lat="46.08913451107195" lon="9.09023812126956"><ele>1563.0</ele><time>2026-04-25T13:45:37.001Z</time></trkpt><trkpt lat="46.089242036086844" lon="9.09020949961252"><ele>1564.3333333333333</ele><time>2026-04-25T13:45:39.001Z</time></trkpt><trkpt lat="46.08932095199479" lon="9.090222344183738"><ele>1565.6666666666665</ele><time>2026-04-25T13:45:41.001Z</time></trkpt><trkpt lat="46.08940765867536" lon="9.090247060287188"><ele>1567.0</ele><time>2026-04-25T13:45:43.001Z</time></trkpt><trkpt lat="46.08949021739861" lon="9.090264751324883"><ele>1568.3333333333333</ele><time>2026-04-25T13:45:45.002Z</time></trkpt><trkpt lat="46.08954988943134" lon="9.090308618186985"><ele>1569.6666666666665</ele><time>2026-04-25T13:45:46.002Z</time></trkpt><trkpt lat="46.08966699174847" lon="9.09027405591656"><ele>1571.0</ele><time>2026-04-25T13:45:48.002Z</time></trkpt><trkpt lat="46.089726858649094" lon="9.090221657670739"><ele>1571.0</ele><time>2026-04-25T13:45:49.002Z</time></trkpt><trkpt lat="46.089811233229796" lon="9.09011224715957"><ele>1571.0</ele><time>2026-04-25T13:45:51.002Z</time></trkpt><trkpt lat="46.08985903236162" lon="9.090044230638565"><ele>1571.0</ele><time>2026-04-25T13:45:52.002Z</time></trkpt><trkpt lat="46.08991427351706" lon="9.089935627634707"><ele>1571.0</ele><time>2026-04-25T13:45:53.002Z</time></trkpt><trkpt lat="46.089984674221974" lon="9.0898451764309"><ele>1571.0</ele><time>2026-04-25T13:45:54.002Z</time></trkpt><trkpt lat="46.090048759671355" lon="9.089745439215681"><ele>1573.8</ele><time>2026-04-25T13:45:55.002Z</time></trkpt><trkpt lat="46.090110532902585" lon="9.089657650887125"><ele>1576.6</ele><time>2026-04-25T13:45:56.002Z</time></trkpt><trkpt lat="46.090175036865816" lon="9.089574994803495"><ele>1579.4</ele><time>2026-04-25T13:45:57.002Z</time></trkpt><trkpt lat="46.090218891152354" lon="9.089497394211266"><ele>1582.2</ele><time>2026-04-25T13:45:58.002Z</time></trkpt><trkpt lat="46.0902846129738" lon="9.089388467116521"><ele>1585.0</ele><time>2026-04-25T13:46:00.002Z</time></trkpt><trkpt lat="46.09037636500296" lon="9.089275752968598"><ele>1585.0</ele><time>2026-04-25T13:46:02.002Z</time></trkpt><trkpt lat="46.090434249571494" lon="9.08921952594258"><ele>1585.0</ele><time>2026-04-25T13:46:03.002Z</time></trkpt><trkpt lat="46.09052720495701" lon="9.089137532481022"><ele>1585.0</ele><time>2026-04-25T13:46:05.002Z</time></trkpt><trkpt lat="46.0905875396537" lon="9.089108989630013"><ele>1585.0</ele><time>2026-04-25T13:46:06.002Z</time></trkpt><trkpt lat="46.09070653699444" lon="9.089099587597577"><ele>1585.0</ele><time>2026-04-25T13:46:08.002Z</time></trkpt><trkpt lat="46.090827352595475" lon="9.089047115834436"><ele>1586.1666666666667</ele><time>2026-04-25T13:46:10.002Z</time></trkpt><trkpt lat="46.09089720076232" lon="9.08902176767892"><ele>1587.3333333333335</ele><time>2026-04-25T13:46:11.002Z</time></trkpt><trkpt lat="46.09096523925413" lon="9.088982500047411"><ele>1588.5</ele><time>2026-04-25T13:46:12.002Z</time></trkpt><trkpt lat="46.09103011139679" lon="9.088934034659653"><ele>1589.6666666666665</ele><time>2026-04-25T13:46:13.002Z</time></trkpt><trkpt lat="46.09109135395776" lon="9.088890116385494"><ele>1590.8333333333333</ele><time>2026-04-25T13:46:14.002Z</time></trkpt><trkpt lat="46.09118685750808" lon="9.088815772284141"><ele>1592.0</ele><time>2026-04-25T13:46:16.002Z</time></trkpt><trkpt lat="46.091272895717445" lon="9.08872380316129"><ele>1591.9999999999998</ele><time>2026-04-25T13:46:18.002Z</time></trkpt><trkpt lat="46.09137750206022" lon="9.088641172913519"><ele>1592.0</ele><time>2026-04-25T13:46:20.003Z</time></trkpt><trkpt lat="46.091439187397036" lon="9.088619944508045"><ele>1592.0</ele><time>2026-04-25T13:46:21.003Z</time></trkpt><trkpt lat="46.09153916650774" lon="9.088522718138709"><ele>1592.0</ele><time>2026-04-25T13:46:23.003Z</time></trkpt><trkpt lat="46.09159562096554" lon="9.088475857086122"><ele>1591.9999999999998</ele><time>2026-04-25T13:46:24.003Z</time></trkpt><trkpt lat="46.09165635294772" lon="9.088426586951629"><ele>1592.0</ele><time>2026-04-25T13:46:25.003Z</time></trkpt><trkpt lat="46.091727279197855" lon="9.088379973369037"><ele>1592.8</ele><time>2026-04-25T13:46:26.003Z</time></trkpt><trkpt lat="46.09178403922134" lon="9.088329919912333"><ele>1593.6</ele><time>2026-04-25T13:46:27.003Z</time></trkpt><trkpt lat="46.091894957559546" lon="9.088263803821562"><ele>1594.3999999999999</ele><time>2026-04-25T13:46:29.003Z</time></trkpt><trkpt lat="46.09200804559999" lon="9.088204848478112"><ele>1595.1999999999998</ele><time>2026-04-25T13:46:31.003Z</time></trkpt><trkpt lat="46.092114950939475" lon="9.088240584751322"><ele>1596.0</ele><time>2026-04-25T13:46:33.003Z</time></trkpt><trkpt lat="46.0922213801798" lon="9.088276332019118"><ele>1596.0</ele><time>2026-04-25T13:46:35.003Z</time></trkpt><trkpt lat="46.09228919785198" lon="9.088268481671896"><ele>1596.0</ele><time>2026-04-25T13:46:36.003Z</time></trkpt><trkpt lat="46.09238303316167" lon="9.088246245125454"><ele>1596.0</ele><time>2026-04-25T13:46:37.003Z</time></trkpt><trkpt lat="46.092484633251665" lon="9.088225511502154"><ele>1596.0</ele><time>2026-04-25T13:46:38.003Z</time></trkpt><trkpt lat="46.092580055528735" lon="9.088218560226888"><ele>1596.0</ele><time>2026-04-25T13:46:39.003Z</time></trkpt><trkpt lat="46.09267811602841" lon="9.08821836370394"><ele>1599.3333333333333</ele><time>2026-04-25T13:46:40.003Z</time></trkpt><trkpt lat="46.09277581045968" lon="9.088219365667562"><ele>1602.6666666666665</ele><time>2026-04-25T13:46:41.003Z</time></trkpt><trkpt lat="46.092856243458456" lon="9.088204500285615"><ele>1606.0</ele><time>2026-04-25T13:46:42.003Z</time></trkpt><trkpt lat="46.09292940762357" lon="9.088190035007417"><ele>1609.3333333333333</ele><time>2026-04-25T13:46:43.003Z</time></trkpt><trkpt lat="46.09300646232865" lon="9.088175991409269"><ele>1612.6666666666665</ele><time>2026-04-25T13:46:44.003Z</time></trkpt><trkpt lat="46.093087072284774" lon="9.088167521162118"><ele>1616.0</ele><time>2026-04-25T13:46:45.003Z</time></trkpt><trkpt lat="46.09317238254872" lon="9.088179697310126"><ele>1615.9999999999998</ele><time>2026-04-25T13:46:46.003Z</time></trkpt><trkpt lat="46.093243719448374" lon="9.088177301197732"><ele>1616.0</ele><time>2026-04-25T13:46:47.003Z</time></trkpt><trkpt lat="46.09331850978038" lon="9.088175311663166"><ele>1616.0</ele><time>2026-04-25T13:46:48.003Z</time></trkpt><trkpt lat="46.09340064223289" lon="9.088177000383867"><ele>1616.0</ele><time>2026-04-25T13:46:49.001Z</time></trkpt><trkpt lat="46.09347810931295" lon="9.088178253997986"><ele>1615.9999999999998</ele><time>2026-04-25T13:46:50.001Z</time></trkpt><trkpt lat="46.09355851093123" lon="9.088177262054064"><ele>1616.0</ele><time>2026-04-25T13:46:51.001Z</time></trkpt><trkpt lat="46.093688955991915" lon="9.088197946995988"><ele>1616.8333333333333</ele><time>2026-04-25T13:46:53.001Z</time></trkpt><trkpt lat="46.093754743494046" lon="9.088190826300549"><ele>1617.6666666666665</ele><time>2026-04-25T13:46:54.001Z</time></trkpt><trkpt lat="46.09385528803494" lon="9.088173756994198"><ele>1618.5</ele><time>2026-04-25T13:46:56.001Z</time></trkpt><trkpt lat="46.09395545718628" lon="9.088115623124084"><ele>1619.3333333333335</ele><time>2026-04-25T13:46:58.001Z</time></trkpt><trkpt lat="46.09402295563597" lon="9.088105409934267"><ele>1620.1666666666667</ele><time>2026-04-25T13:46:59.001Z</time></trkpt><trkpt lat="46.0940829273558" lon="9.088075280087244"><ele>1621.0</ele><time>2026-04-25T13:47:00.001Z</time></trkpt><trkpt lat="46.09415234539865" lon="9.088020199687453"><ele>1621.0</ele><time>2026-04-25T13:47:01.001Z</time></trkpt><trkpt lat="46.09421164976828" lon="9.087986452000386"><ele>1621.0</ele><time>2026-04-25T13:47:02.001Z</time></trkpt><trkpt lat="46.09431883452989" lon="9.08792667924459"><ele>1621.0</ele><time>2026-04-25T13:47:04.001Z</time></trkpt><trkpt lat="46.094377779283676" lon="9.087894098524025"><ele>1621.0</ele><time>2026-04-25T13:47:05.001Z</time></trkpt><trkpt lat="46.09448443176746" lon="9.087883159457938"><ele>1621.0</ele><time>2026-04-25T13:47:07.001Z</time></trkpt><trkpt lat="46.094590945990134" lon="9.087985166950157"><ele>1621.0</ele><time>2026-04-25T13:47:09.001Z</time></trkpt><trkpt lat="46.09465363890711" lon="9.08803037429705"><ele>1621.0</ele><time>2026-04-25T13:47:10.001Z</time></trkpt><trkpt lat="46.0947700619144" lon="9.088076855203091"><ele>1621.0</ele><time>2026-04-25T13:47:12.001Z</time></trkpt><trkpt lat="46.09489633272568" lon="9.088115150517577"><ele>1621.0</ele><time>2026-04-25T13:47:14.001Z</time></trkpt><trkpt lat="46.094969021796246" lon="9.08814004071016"><ele>1621.0</ele><time>2026-04-25T13:47:15.001Z</time></trkpt><trkpt lat="46.09504293978433" lon="9.088170074953721"><ele>1621.8333333333335</ele><time>2026-04-25T13:47:16.001Z</time></trkpt><trkpt lat="46.095111140755904" lon="9.088191358486862"><ele>1622.6666666666667</ele><time>2026-04-25T13:47:17.001Z</time></trkpt><trkpt lat="46.095182699446184" lon="9.088215211396468"><ele>1623.5</ele><time>2026-04-25T13:47:18.001Z</time></trkpt><trkpt lat="46.0952577704448" lon="9.088215165683259"><ele>1624.3333333333335</ele><time>2026-04-25T13:47:19.001Z</time></trkpt><trkpt lat="46.0953290014978" lon="9.088248060666885"><ele>1625.1666666666667</ele><time>2026-04-25T13:47:20.001Z</time></trkpt><trkpt lat="46.095393885002835" lon="9.088251495351404"><ele>1626.0</ele><time>2026-04-25T13:47:21.001Z</time></trkpt><trkpt lat="46.0954966383245" lon="9.088258265003796"><ele>1622.1999999999998</ele><time>2026-04-25T13:47:23.001Z</time></trkpt><trkpt lat="46.095566300149564" lon="9.088296295467346"><ele>1618.3999999999999</ele><time>2026-04-25T13:47:25.001Z</time></trkpt><trkpt lat="46.095656019232386" lon="9.088388102513417"><ele>1614.6</ele><time>2026-04-25T13:47:27.001Z</time></trkpt><trkpt lat="46.09576499905263" lon="9.088456366613885"><ele>1610.8</ele><time>2026-04-25T13:47:29.001Z</time></trkpt><trkpt lat="46.09587155531807" lon="9.088473773309715"><ele>1607.0</ele><time>2026-04-25T13:47:31.001Z</time></trkpt><trkpt lat="46.09599585253836" lon="9.088453721482267"><ele>1607.0</ele><time>2026-04-25T13:47:33.001Z</time></trkpt><trkpt lat="46.096062518917336" lon="9.088473602713387"><ele>1607.0</ele><time>2026-04-25T13:47:34.001Z</time></trkpt><trkpt lat="46.09612970746851" lon="9.08848803806037"><ele>1607.0</ele><time>2026-04-25T13:47:35.001Z</time></trkpt><trkpt lat="46.096249672064786" lon="9.088517499129432"><ele>1607.0</ele><time>2026-04-25T13:47:37.001Z</time></trkpt><trkpt lat="46.09636621182117" lon="9.088522028326603"><ele>1607.0</ele><time>2026-04-25T13:47:39.001Z</time></trkpt><trkpt lat="46.09646832938336" lon="9.08857084077021"><ele>1607.0</ele><time>2026-04-25T13:47:41.002Z</time></trkpt><trkpt lat="46.09657578518523" lon="9.088660491181548"><ele>1607.0</ele><time>2026-04-25T13:47:43.002Z</time></trkpt><trkpt lat="46.096702439019865" lon="9.088721404523818"><ele>1607.0</ele><time>2026-04-25T13:47:45.002Z</time></trkpt><trkpt lat="46.09677953824598" lon="9.088768459656526"><ele>1607.0</ele><time>2026-04-25T13:47:46.002Z</time></trkpt><trkpt lat="46.09685532434111" lon="9.088814662059878"><ele>1607.0</ele><time>2026-04-25T13:47:47.002Z</time></trkpt><trkpt lat="46.096927278375745" lon="9.088864140660386"><ele>1604.8333333333333</ele><time>2026-04-25T13:47:48.002Z</time></trkpt><trkpt lat="46.09699960282147" lon="9.088942217711145"><ele>1602.6666666666665</ele><time>2026-04-25T13:47:49.002Z</time></trkpt><trkpt lat="46.097061458234364" lon="9.088998965198066"><ele>1600.5</ele><time>2026-04-25T13:47:50.002Z</time></trkpt><trkpt lat="46.09712807930356" lon="9.089042863942767"><ele>1598.3333333333335</ele><time>2026-04-25T13:47:51.002Z</time></trkpt><trkpt lat="46.09717348840503" lon="9.089114024872996"><ele>1596.1666666666667</ele><time>2026-04-25T13:47:52.002Z</time></trkpt><trkpt lat="46.09723915050681" lon="9.08915197156423"><ele>1594.0</ele><time>2026-04-25T13:47:53.002Z</time></trkpt><trkpt lat="46.09734390541296" lon="9.089229531647531"><ele>1598.0</ele><time>2026-04-25T13:47:55.002Z</time></trkpt><trkpt lat="46.09745576246851" lon="9.089290738233455"><ele>1602.0</ele><time>2026-04-25T13:47:57.002Z</time></trkpt><trkpt lat="46.09756141922831" lon="9.089310854327321"><ele>1606.0</ele><time>2026-04-25T13:47:59.002Z</time></trkpt><trkpt lat="46.09762523895054" lon="9.08932015508916"><ele>1610.0</ele><time>2026-04-25T13:48:00.002Z</time></trkpt><trkpt lat="46.09769198066631" lon="9.089324070266157"><ele>1614.0</ele><time>2026-04-25T13:48:01.002Z</time></trkpt><trkpt lat="46.097806094249115" lon="9.089293459442828"><ele>1614.0</ele><time>2026-04-25T13:48:03.002Z</time></trkpt><trkpt lat="46.09793027218706" lon="9.089274466249586"><ele>1614.0</ele><time>2026-04-25T13:48:05.002Z</time></trkpt><trkpt lat="46.09799972639355" lon="9.089285304032225"><ele>1614.0</ele><time>2026-04-25T13:48:06.002Z</time></trkpt><trkpt lat="46.09806436755562" lon="9.089284041846224"><ele>1614.0</ele><time>2026-04-25T13:48:07.002Z</time></trkpt><trkpt lat="46.09813237643017" lon="9.089284790642331"><ele>1614.0</ele><time>2026-04-25T13:48:08.002Z</time></trkpt><trkpt lat="46.09824952558526" lon="9.089296304017408"><ele>1614.0</ele><time>2026-04-25T13:48:10.002Z</time></trkpt><trkpt lat="46.09833708747767" lon="9.089288276055404"><ele>1615.6666666666667</ele><time>2026-04-25T13:48:12.002Z</time></trkpt><trkpt lat="46.0983872644912" lon="9.08919034964605"><ele>1617.3333333333335</ele><time>2026-04-25T13:48:14.002Z</time></trkpt><trkpt lat="46.09832792855688" lon="9.08907465859649"><ele>1619.0</ele><time>2026-04-25T13:48:16.002Z</time></trkpt><trkpt lat="46.0982487952116" lon="9.088984705233385"><ele>1620.6666666666667</ele><time>2026-04-25T13:48:18.002Z</time></trkpt><trkpt lat="46.098246481562924" lon="9.088886389384243"><ele>1622.3333333333335</ele><time>2026-04-25T13:48:21.002Z</time></trkpt><trkpt lat="46.098320212540564" lon="9.088846435681868"><ele>1624.0</ele><time>2026-04-25T13:48:23.003Z</time></trkpt><trkpt lat="46.098408602138726" lon="9.088781550686726"><ele>1628.4</ele><time>2026-04-25T13:48:25.003Z</time></trkpt><trkpt lat="46.098497859009655" lon="9.088711345688267"><ele>1632.8000000000002</ele><time>2026-04-25T13:48:27.003Z</time></trkpt><trkpt lat="46.09856915684214" lon="9.088612451241396"><ele>1637.1999999999998</ele><time>2026-04-25T13:48:29.003Z</time></trkpt><trkpt lat="46.098614708616374" lon="9.088477193832368"><ele>1641.6</ele><time>2026-04-25T13:48:31.003Z</time></trkpt><trkpt lat="46.09865908543401" lon="9.088353272096619"><ele>1646.0</ele><time>2026-04-25T13:48:33.003Z</time></trkpt><trkpt lat="46.09871466253843" lon="9.08826229319704"><ele>1649.1999999999998</ele><time>2026-04-25T13:48:35.003Z</time></trkpt><trkpt lat="46.09880132424191" lon="9.088220862130557"><ele>1652.3999999999999</ele><time>2026-04-25T13:48:37.003Z</time></trkpt><trkpt lat="46.09887080104636" lon="9.0881303786376"><ele>1655.6</ele><time>2026-04-25T13:48:39.003Z</time></trkpt><trkpt lat="46.09896067115451" lon="9.088112618039295"><ele>1658.8</ele><time>2026-04-25T13:48:41.003Z</time></trkpt><trkpt lat="46.099054962499835" lon="9.088122137675635"><ele>1662.0</ele><time>2026-04-25T13:48:43.003Z</time></trkpt><trkpt lat="46.099157157842455" lon="9.088079381991518"><ele>1662.0</ele><time>2026-04-25T13:48:45.003Z</time></trkpt><trkpt lat="46.09925502216306" lon="9.087994673043065"><ele>1662.0</ele><time>2026-04-25T13:48:47.003Z</time></trkpt><trkpt lat="46.09936888911163" lon="9.08796373327968"><ele>1662.0</ele><time>2026-04-25T13:48:49.003Z</time></trkpt><trkpt lat="46.09947698965341" lon="9.087975380645641"><ele>1662.0</ele><time>2026-04-25T13:48:51.003Z</time></trkpt><trkpt lat="46.09957027597489" lon="9.087943159863084"><ele>1662.0</ele><time>2026-04-25T13:48:53.003Z</time></trkpt><trkpt lat="46.09964595908273" lon="9.087885931281038"><ele>1662.0</ele><time>2026-04-25T13:48:55.002Z</time></trkpt><trkpt lat="46.099727615077406" lon="9.087842154421843"><ele>1662.0</ele><time>2026-04-25T13:48:57.002Z</time></trkpt><trkpt lat="46.09980826089274" lon="9.08777692241607"><ele>1662.0</ele><time>2026-04-25T13:48:59.002Z</time></trkpt><trkpt lat="46.09989003320348" lon="9.087678557867681"><ele>1662.0</ele><time>2026-04-25T13:49:01.002Z</time></trkpt><trkpt lat="46.099962761986085" lon="9.087556608137048"><ele>1662.0</ele><time>2026-04-25T13:49:03.002Z</time></trkpt><trkpt lat="46.100010000813405" lon="9.087384570220408"><ele>1663.3999999999999</ele><time>2026-04-25T13:49:05.002Z</time></trkpt><trkpt lat="46.10002648768272" lon="9.08728697357877"><ele>1664.8</ele><time>2026-04-25T13:49:06.001Z</time></trkpt><trkpt lat="46.100055721806285" lon="9.087199470450111"><ele>1666.2</ele><time>2026-04-25T13:49:07.001Z</time></trkpt><trkpt lat="46.10012014306251" lon="9.087073644597632"><ele>1667.6</ele><time>2026-04-25T13:49:09.001Z</time></trkpt><trkpt lat="46.100164441952515" lon="9.086916461762687"><ele>1669.0</ele><time>2026-04-25T13:49:11.001Z</time></trkpt><trkpt lat="46.10019708799027" lon="9.086787636789587"><ele>1669.0</ele><time>2026-04-25T13:49:13.001Z</time></trkpt><trkpt lat="46.1002452117016" lon="9.086681233483544"><ele>1669.0</ele><time>2026-04-25T13:49:15.001Z</time></trkpt><trkpt lat="46.100352479750896" lon="9.086618076821717"><ele>1669.0</ele><time>2026-04-25T13:49:17.001Z</time></trkpt><trkpt lat="46.100407900706315" lon="9.086562703460892"><ele>1669.0</ele><time>2026-04-25T13:49:18.001Z</time></trkpt><trkpt lat="46.100463458967795" lon="9.08651579991977"><ele>1669.0</ele><time>2026-04-25T13:49:19.001Z</time></trkpt><trkpt lat="46.10057662560665" lon="9.086454762471112"><ele>1673.4</ele><time>2026-04-25T13:49:21.001Z</time></trkpt><trkpt lat="46.1006817215489" lon="9.086428956074325"><ele>1677.8000000000002</ele><time>2026-04-25T13:49:23.001Z</time></trkpt><trkpt lat="46.100783564166534" lon="9.086400655273476"><ele>1682.1999999999998</ele><time>2026-04-25T13:49:25.001Z</time></trkpt><trkpt lat="46.100879510684734" lon="9.086347550262746"><ele>1686.6</ele><time>2026-04-25T13:49:27.001Z</time></trkpt><trkpt lat="46.100983057317364" lon="9.086311954667133"><ele>1691.0</ele><time>2026-04-25T13:49:29.001Z</time></trkpt><trkpt lat="46.10107397629003" lon="9.086300926203936"><ele>1691.0000000000002</ele><time>2026-04-25T13:49:31.001Z</time></trkpt><trkpt lat="46.1011426812311" lon="9.086293683741193"><ele>1691.0</ele><time>2026-04-25T13:49:33.001Z</time></trkpt><trkpt lat="46.101218580922186" lon="9.08630709052771"><ele>1691.0</ele><time>2026-04-25T13:49:36.001Z</time></trkpt><trkpt lat="46.101252522453656" lon="9.086384126163388"><ele>1691.0</ele><time>2026-04-25T13:49:39.001Z</time></trkpt><trkpt lat="46.10122120700434" lon="9.086473206392302"><ele>1691.0</ele><time>2026-04-25T13:49:41.001Z</time></trkpt><trkpt lat="46.10119916387137" lon="9.086593797011368"><ele>1691.0000000000002</ele><time>2026-04-25T13:49:44.002Z</time></trkpt><trkpt lat="46.101188080801826" lon="9.086703361426038"><ele>1691.0</ele><time>2026-04-25T13:49:46.002Z</time></trkpt><trkpt lat="46.10120116961443" lon="9.08679667047259"><ele>1686.8333333333333</ele><time>2026-04-25T13:50:03.002Z</time></trkpt><trkpt lat="46.101241166660344" lon="9.086874363615793"><ele>1682.6666666666665</ele><time>2026-04-25T13:50:05.002Z</time></trkpt><trkpt lat="46.10128561778253" lon="9.086938705104052"><ele>1678.5</ele><time>2026-04-25T13:50:07.002Z</time></trkpt><trkpt lat="46.10134276069173" lon="9.087040760757466"><ele>1674.3333333333335</ele><time>2026-04-25T13:50:09.002Z</time></trkpt><trkpt lat="46.10137230047749" lon="9.087174360286888"><ele>1670.1666666666667</ele><time>2026-04-25T13:50:11.002Z</time></trkpt><trkpt lat="46.10141665145011" lon="9.087291722432582"><ele>1666.0</ele><time>2026-04-25T13:50:13.002Z</time></trkpt><trkpt lat="46.101460702379846" lon="9.087412702296588"><ele>1663.1666666666667</ele><time>2026-04-25T13:50:15.002Z</time></trkpt><trkpt lat="46.10148667104853" lon="9.087537291229168"><ele>1660.3333333333335</ele><time>2026-04-25T13:50:17.002Z</time></trkpt><trkpt lat="46.101460062618315" lon="9.087650988189022"><ele>1657.5</ele><time>2026-04-25T13:50:19.002Z</time></trkpt><trkpt lat="46.1014063053309" lon="9.087736458029898"><ele>1654.6666666666665</ele><time>2026-04-25T13:50:21.002Z</time></trkpt><trkpt lat="46.10136803912889" lon="9.087820226761812"><ele>1651.8333333333333</ele><time>2026-04-25T13:50:23.002Z</time></trkpt><trkpt lat="46.10136140854522" lon="9.087918052138212"><ele>1649.0</ele><time>2026-04-25T13:50:25.002Z</time></trkpt><trkpt lat="46.101401443268536" lon="9.088039772993685"><ele>1649.0</ele><time>2026-04-25T13:50:27.002Z</time></trkpt><trkpt lat="46.101466759817065" lon="9.08817802637047"><ele>1649.0</ele><time>2026-04-25T13:50:29.002Z</time></trkpt><trkpt lat="46.10156384278674" lon="9.088303432398323"><ele>1649.0</ele><time>2026-04-25T13:50:31.002Z</time></trkpt><trkpt lat="46.10162731426322" lon="9.088364222772977"><ele>1649.0</ele><time>2026-04-25T13:50:32.002Z</time></trkpt><trkpt lat="46.10172372853849" lon="9.088441361655757"><ele>1649.0</ele><time>2026-04-25T13:50:34.002Z</time></trkpt><trkpt lat="46.10181800905708" lon="9.088511532453051"><ele>1651.6666666666665</ele><time>2026-04-25T13:50:36.003Z</time></trkpt><trkpt lat="46.101913604509726" lon="9.088592760422213"><ele>1654.3333333333333</ele><time>2026-04-25T13:50:38.003Z</time></trkpt><trkpt lat="46.101970884179174" lon="9.088712816616615"><ele>1657.0</ele><time>2026-04-25T13:50:40.003Z</time></trkpt><trkpt lat="46.10199693572591" lon="9.088806512760238"><ele>1659.6666666666665</ele><time>2026-04-25T13:50:41.003Z</time></trkpt><trkpt lat="46.101984251105115" lon="9.088920009064726"><ele>1662.3333333333333</ele><time>2026-04-25T13:50:42.003Z</time></trkpt><trkpt lat="46.10199483888444" lon="9.089024488266762"><ele>1665.0</ele><time>2026-04-25T13:50:43.003Z</time></trkpt><trkpt lat="46.102023108170755" lon="9.089141378735812"><ele>1665.0</ele><time>2026-04-25T13:50:44.003Z</time></trkpt><trkpt lat="46.10203672295274" lon="9.089265646413516"><ele>1665.0</ele><time>2026-04-25T13:50:45.003Z</time></trkpt><trkpt lat="46.102070575827334" lon="9.089368166456689"><ele>1665.0</ele><time>2026-04-25T13:50:46.003Z</time></trkpt><trkpt lat="46.102100869991" lon="9.08951107465548"><ele>1665.0</ele><time>2026-04-25T13:50:47.003Z</time></trkpt><trkpt lat="46.102135483459186" lon="9.089650684388529"><ele>1665.0</ele><time>2026-04-25T13:50:48.003Z</time></trkpt><trkpt lat="46.10215038385227" lon="9.089773235143532"><ele>1665.0</ele><time>2026-04-25T13:50:49.003Z</time></trkpt><trkpt lat="46.10216269408106" lon="9.08989582952198"><ele>1665.0</ele><time>2026-04-25T13:50:50.003Z</time></trkpt><trkpt lat="46.102189910896996" lon="9.090018602002747"><ele>1665.0</ele><time>2026-04-25T13:50:51.003Z</time></trkpt><trkpt lat="46.10220193975719" lon="9.09011349826969"><ele>1665.0</ele><time>2026-04-25T13:50:52.003Z</time></trkpt><trkpt lat="46.10221403035667" lon="9.090252199753694"><ele>1665.0</ele><time>2026-04-25T13:50:54.003Z</time></trkpt><trkpt lat="46.10220310497008" lon="9.090407782095037"><ele>1665.0</ele><time>2026-04-25T13:50:56.003Z</time></trkpt><trkpt lat="46.10222963223028" lon="9.090592864889622"><ele>1662.6</ele><time>2026-04-25T13:50:58.003Z</time></trkpt><trkpt lat="46.10224704561631" lon="9.090719994662905"><ele>1660.2</ele><time>2026-04-25T13:50:59.003Z</time></trkpt><trkpt lat="46.10227058753331" lon="9.090859612350224"><ele>1657.8000000000002</ele><time>2026-04-25T13:51:00.003Z</time></trkpt><trkpt lat="46.10227174816935" lon="9.090990865527052"><ele>1655.4</ele><time>2026-04-25T13:51:01.001Z</time></trkpt><trkpt lat="46.10229085238652" lon="9.091154713422165"><ele>1653.0</ele><time>2026-04-25T13:51:03.001Z</time></trkpt><trkpt lat="46.102323039759774" lon="9.091268954278895"><ele>1652.5</ele><time>2026-04-25T13:51:04.001Z</time></trkpt><trkpt lat="46.102368322405944" lon="9.091358511167462"><ele>1652.0</ele><time>2026-04-25T13:51:05.001Z</time></trkpt><trkpt lat="46.10239886194456" lon="9.091450006806276"><ele>1651.5</ele><time>2026-04-25T13:51:06.001Z</time></trkpt><trkpt lat="46.102442115925676" lon="9.091641098686983"><ele>1651.0</ele><time>2026-04-25T13:51:08.001Z</time></trkpt><trkpt lat="46.10246049330974" lon="9.09175001107125"><ele>1650.5</ele><time>2026-04-25T13:51:09.001Z</time></trkpt><trkpt lat="46.102472979550626" lon="9.091852627667691"><ele>1650.0</ele><time>2026-04-25T13:51:10.001Z</time></trkpt><trkpt lat="46.10248853870263" lon="9.091949608638995"><ele>1658.8</ele><time>2026-04-25T13:51:11.001Z</time></trkpt><trkpt lat="46.10248552000128" lon="9.092052588884647"><ele>1667.6</ele><time>2026-04-25T13:51:12.001Z</time></trkpt><trkpt lat="46.102501022957966" lon="9.092231362862304"><ele>1676.4</ele><time>2026-04-25T13:51:14.001Z</time></trkpt><trkpt lat="46.10253558968654" lon="9.092398345609547"><ele>1685.2</ele><time>2026-04-25T13:51:16.001Z</time></trkpt><trkpt lat="46.102575544522196" lon="9.092554625592836"><ele>1694.0</ele><time>2026-04-25T13:51:18.001Z</time></trkpt><trkpt lat="46.10263062383469" lon="9.092703907724477"><ele>1694.0</ele><time>2026-04-25T13:51:20.001Z</time></trkpt><trkpt lat="46.102707908951075" lon="9.092833930899973"><ele>1694.0</ele><time>2026-04-25T13:51:22.001Z</time></trkpt><trkpt lat="46.10280114692363" lon="9.092936608881336"><ele>1694.0</ele><time>2026-04-25T13:51:24.001Z</time></trkpt><trkpt lat="46.10287497852443" lon="9.093010349914373"><ele>1694.0</ele><time>2026-04-25T13:51:26.001Z</time></trkpt><trkpt lat="46.10296641168478" lon="9.093075320823916"><ele>1694.0</ele><time>2026-04-25T13:51:28.001Z</time></trkpt><trkpt lat="46.10307932899688" lon="9.093079779607665"><ele>1694.0</ele><time>2026-04-25T13:51:30.001Z</time></trkpt><trkpt lat="46.10320764501119" lon="9.093107500276755"><ele>1694.0</ele><time>2026-04-25T13:51:32.001Z</time></trkpt><trkpt lat="46.103305598530966" lon="9.093096482552507"><ele>1694.0</ele><time>2026-04-25T13:51:34.001Z</time></trkpt><trkpt lat="46.10337624012083" lon="9.093023176828464"><ele>1694.0</ele><time>2026-04-25T13:51:36.001Z</time></trkpt><trkpt lat="46.10344499971397" lon="9.09294291404227"><ele>1694.0</ele><time>2026-04-25T13:51:38.001Z</time></trkpt><trkpt lat="46.103516895872175" lon="9.092818530736979"><ele>1697.2</ele><time>2026-04-25T13:51:40.001Z</time></trkpt><trkpt lat="46.103551715224015" lon="9.092651631534675"><ele>1700.4</ele><time>2026-04-25T13:51:42.001Z</time></trkpt><trkpt lat="46.10357875039171" lon="9.092562740529461"><ele>1703.6</ele><time>2026-04-25T13:51:43.001Z</time></trkpt><trkpt lat="46.10360986975085" lon="9.092482499434942"><ele>1706.8</ele><time>2026-04-25T13:51:44.001Z</time></trkpt><trkpt lat="46.10367766800403" lon="9.092336203505026"><ele>1710.0</ele><time>2026-04-25T13:51:46.001Z</time></trkpt><trkpt lat="46.103740651877224" lon="9.092206294071445"><ele>1712.4</ele><time>2026-04-25T13:51:48.001Z</time></trkpt><trkpt lat="46.10376639872477" lon="9.09205362855686"><ele>1714.8</ele><time>2026-04-25T13:51:50.001Z</time></trkpt><trkpt lat="46.103756814622884" lon="9.091888004572665"><ele>1717.1999999999998</ele><time>2026-04-25T13:51:52.001Z</time></trkpt><trkpt lat="46.10373968105033" lon="9.091800095737648"><ele>1719.6</ele><time>2026-04-25T13:51:53.001Z</time></trkpt><trkpt lat="46.10372766740526" lon="9.091616497562285"><ele>1722.0</ele><time>2026-04-25T13:51:55.001Z</time></trkpt><trkpt lat="46.10374607795365" lon="9.091463244162739"><ele>1724.8333333333333</ele><time>2026-04-25T13:51:57.001Z</time></trkpt><trkpt lat="46.10381364453362" lon="9.091335692602609"><ele>1727.6666666666665</ele><time>2026-04-25T13:51:59.001Z</time></trkpt><trkpt lat="46.103883687510546" lon="9.091282256696566"><ele>1730.5</ele><time>2026-04-25T13:52:00.001Z</time></trkpt><trkpt lat="46.1039657641755" lon="9.091224542416988"><ele>1733.3333333333333</ele><time>2026-04-25T13:52:01.001Z</time></trkpt><trkpt lat="46.10403519974749" lon="9.09118132522017"><ele>1736.1666666666665</ele><time>2026-04-25T13:52:02.001Z</time></trkpt><trkpt lat="46.10408407993704" lon="9.091120911186131"><ele>1739.0</ele><time>2026-04-25T13:52:03.001Z</time></trkpt><trkpt lat="46.104146007799535" lon="9.091102303027885"><ele>1740.5</ele><time>2026-04-25T13:52:04.001Z</time></trkpt><trkpt lat="46.1042467581875" lon="9.090992823109518"><ele>1742.0</ele><time>2026-04-25T13:52:06.001Z</time></trkpt><trkpt lat="46.10434045380175" lon="9.090894743479211"><ele>1743.5</ele><time>2026-04-25T13:52:08.001Z</time></trkpt><trkpt lat="46.104381889264815" lon="9.090735778181667"><ele>1745.0</ele><time>2026-04-25T13:52:10.002Z</time></trkpt><trkpt lat="46.104439895585294" lon="9.090606515173945"><ele>1748.4</ele><time>2026-04-25T13:52:12.002Z</time></trkpt><trkpt lat="46.10449254878505" lon="9.090463897887412"><ele>1751.8</ele><time>2026-04-25T13:52:14.002Z</time></trkpt><trkpt lat="46.10455023273546" lon="9.090342445708247"><ele>1755.1999999999998</ele><time>2026-04-25T13:52:16.002Z</time></trkpt><trkpt lat="46.10461007834591" lon="9.090217246480583"><ele>1758.6</ele><time>2026-04-25T13:52:18.002Z</time></trkpt><trkpt lat="46.104646103421935" lon="9.090141736551553"><ele>1762.0</ele><time>2026-04-25T13:52:19.002Z</time></trkpt><trkpt lat="46.10470953638866" lon="9.090034886357302"><ele>1762.0000000000002</ele><time>2026-04-25T13:52:21.002Z</time></trkpt><trkpt lat="46.10475881080083" lon="9.089970622371284"><ele>1762.0</ele><time>2026-04-25T13:52:22.002Z</time></trkpt><trkpt lat="46.10480655979375" lon="9.089904695774706"><ele>1762.0</ele><time>2026-04-25T13:52:24.002Z</time></trkpt><trkpt lat="46.104870479543685" lon="9.089830111405053"><ele>1762.0</ele><time>2026-04-25T13:52:26.002Z</time></trkpt><trkpt lat="46.104937185938304" lon="9.089750455209348"><ele>1762.0000000000002</ele><time>2026-04-25T13:52:28.002Z</time></trkpt><trkpt lat="46.10499482952526" lon="9.08965286727237"><ele>1762.0</ele><time>2026-04-25T13:52:30.002Z</time></trkpt><trkpt lat="46.1050551692186" lon="9.089538859206966"><ele>1763.8</ele><time>2026-04-25T13:52:32.002Z</time></trkpt><trkpt lat="46.10511683927138" lon="9.08939572264288"><ele>1765.6</ele><time>2026-04-25T13:52:34.002Z</time></trkpt><trkpt lat="46.1051708911174" lon="9.089251530450904"><ele>1767.3999999999999</ele><time>2026-04-25T13:52:36.002Z</time></trkpt><trkpt lat="46.10523133553551" lon="9.08913809606008"><ele>1769.1999999999998</ele><time>2026-04-25T13:52:38.002Z</time></trkpt><trkpt lat="46.10530508874775" lon="9.089029187196257"><ele>1771.0</ele><time>2026-04-25T13:52:40.002Z</time></trkpt><trkpt lat="46.10535071466065" lon="9.088923550323223"><ele>1774.8333333333335</ele><time>2026-04-25T13:52:42.002Z</time></trkpt><trkpt lat="46.10538190175181" lon="9.088826132109649"><ele>1778.6666666666667</ele><time>2026-04-25T13:52:44.002Z</time></trkpt><trkpt lat="46.10547546630007" lon="9.088745368167828"><ele>1782.5</ele><time>2026-04-25T13:52:46.002Z</time></trkpt><trkpt lat="46.105549763585" lon="9.08865859395238"><ele>1786.3333333333335</ele><time>2026-04-25T13:52:48.002Z</time></trkpt><trkpt lat="46.1056184374158" lon="9.08858979073042"><ele>1790.1666666666667</ele><time>2026-04-25T13:52:50.002Z</time></trkpt><trkpt lat="46.105647004872054" lon="9.088486926325142"><ele>1794.0</ele><time>2026-04-25T13:52:52.002Z</time></trkpt><trkpt lat="46.105703595627745" lon="9.088419093213723"><ele>1795.6666666666667</ele><time>2026-04-25T13:52:54.002Z</time></trkpt><trkpt lat="46.10574849664493" lon="9.088339064754669"><ele>1797.3333333333335</ele><time>2026-04-25T13:53:05.002Z</time></trkpt><trkpt lat="46.10580871165899" lon="9.088288917904894"><ele>1799.0</ele><time>2026-04-25T13:53:09.001Z</time></trkpt><trkpt lat="46.10588416668278" lon="9.088227264609706"><ele>1800.6666666666667</ele><time>2026-04-25T13:53:13.001Z</time></trkpt><trkpt lat="46.105974344790745" lon="9.088154846975254"><ele>1802.3333333333335</ele><time>2026-04-25T13:53:16.001Z</time></trkpt><trkpt lat="46.10605098315805" lon="9.088104491264584"><ele>1804.0</ele><time>2026-04-25T13:53:18.001Z</time></trkpt><trkpt lat="46.10613288800322" lon="9.087990499966079"><ele>1804.0</ele><time>2026-04-25T13:53:20Z</time></trkpt><trkpt lat="46.10623812942975" lon="9.087924579122395"><ele>1804.0</ele><time>2026-04-25T13:53:22Z</time></trkpt><trkpt lat="46.10633790748538" lon="9.087827348946393"><ele>1804.0</ele><time>2026-04-25T13:53:24.001Z</time></trkpt><trkpt lat="46.106393816242985" lon="9.08777567989796"><ele>1804.0</ele><time>2026-04-25T13:53:25.001Z</time></trkpt><trkpt lat="46.10649377639027" lon="9.087698754634241"><ele>1804.0</ele><time>2026-04-25T13:53:27.001Z</time></trkpt><trkpt lat="46.10658033065664" lon="9.087613276248693"><ele>1803.142857142857</ele><time>2026-04-25T13:53:29.001Z</time></trkpt><trkpt lat="46.106651380275146" lon="9.087558789684438"><ele>1802.2857142857142</ele><time>2026-04-25T13:53:31.001Z</time></trkpt><trkpt lat="46.10671464765968" lon="9.08749263122001"><ele>1801.4285714285713</ele><time>2026-04-25T13:53:33.001Z</time></trkpt><trkpt lat="46.106765171401754" lon="9.087409263048045"><ele>1800.5714285714284</ele><time>2026-04-25T13:53:35.001Z</time></trkpt><trkpt lat="46.106824839471244" lon="9.08736059334889"><ele>1799.7142857142858</ele><time>2026-04-25T13:53:37.001Z</time></trkpt><trkpt lat="46.10687546044066" lon="9.087305819358715"><ele>1798.8571428571427</ele><time>2026-04-25T13:53:39.001Z</time></trkpt><trkpt lat="46.10693812312223" lon="9.087268580510603"><ele>1797.9999999999998</ele><time>2026-04-25T13:53:41.001Z</time></trkpt><trkpt lat="46.10701632494539" lon="9.087216938398871"><ele>1804.2</ele><time>2026-04-25T13:53:43.001Z</time></trkpt><trkpt lat="46.10710477372009" lon="9.087123364958122"><ele>1810.4</ele><time>2026-04-25T13:53:45.001Z</time></trkpt><trkpt lat="46.10717849505773" lon="9.08701089661503"><ele>1816.6000000000001</ele><time>2026-04-25T13:53:47.001Z</time></trkpt><trkpt lat="46.10723169518529" lon="9.086910569175286"><ele>1822.8000000000002</ele><time>2026-04-25T13:53:49.001Z</time></trkpt><trkpt lat="46.10728183952253" lon="9.086822001572253"><ele>1829.0</ele><time>2026-04-25T13:53:51.001Z</time></trkpt><trkpt lat="46.10734000780673" lon="9.08672891659596"><ele>1829.0</ele><time>2026-04-25T13:53:53.001Z</time></trkpt><trkpt lat="46.107402996462994" lon="9.086598421314196"><ele>1829.0</ele><time>2026-04-25T13:53:55.001Z</time></trkpt><trkpt lat="46.107483281060695" lon="9.086504946003028"><ele>1829.0</ele><time>2026-04-25T13:53:57.001Z</time></trkpt><trkpt lat="46.10753672129933" lon="9.086382067052723"><ele>1829.0</ele><time>2026-04-25T13:53:59.001Z</time></trkpt><trkpt lat="46.107583313779614" lon="9.086265805359124"><ele>1829.0</ele><time>2026-04-25T13:54:01.001Z</time></trkpt><trkpt lat="46.10761942377552" lon="9.086153131595436"><ele>1830.1666666666665</ele><time>2026-04-25T13:54:03.001Z</time></trkpt><trkpt lat="46.10764636757823" lon="9.086068997285903"><ele>1831.3333333333333</ele><time>2026-04-25T13:54:05.001Z</time></trkpt><trkpt lat="46.10764333291792" lon="9.08597012644911"><ele>1832.5</ele><time>2026-04-25T13:54:08.001Z</time></trkpt><trkpt lat="46.107674326466295" lon="9.085883194977301"><ele>1833.6666666666665</ele><time>2026-04-25T13:54:11.001Z</time></trkpt><trkpt lat="46.10775145180787" lon="9.085880234276644"><ele>1834.8333333333333</ele><time>2026-04-25T13:54:13.001Z</time></trkpt><trkpt lat="46.10785777011044" lon="9.085846075399472"><ele>1836.0</ele><time>2026-04-25T13:54:15.001Z</time></trkpt><trkpt lat="46.1079548864411" lon="9.085805840214844"><ele>1837.1666666666667</ele><time>2026-04-25T13:54:17.001Z</time></trkpt><trkpt lat="46.10803630150311" lon="9.085752290637387"><ele>1838.3333333333335</ele><time>2026-04-25T13:54:19.001Z</time></trkpt><trkpt lat="46.1081053437065" lon="9.085712288437872"><ele>1839.5</ele><time>2026-04-25T13:54:20.001Z</time></trkpt><trkpt lat="46.10820708279488" lon="9.085624399470664"><ele>1840.6666666666667</ele><time>2026-04-25T13:54:22.001Z</time></trkpt><trkpt lat="46.10826736023869" lon="9.085564449713344"><ele>1841.8333333333335</ele><time>2026-04-25T13:54:24.001Z</time></trkpt><trkpt lat="46.108310220265594" lon="9.085491334296268"><ele>1843.0</ele><time>2026-04-25T13:55:15.001Z</time></trkpt><trkpt lat="46.108269940173386" lon="9.085571716181134"><ele>1842.0</ele><time>2026-04-25T14:01:12.002Z</time></trkpt><trkpt lat="46.10820738896921" lon="9.085642166373352"><ele>1841.0</ele><time>2026-04-25T14:01:15.002Z</time></trkpt><trkpt lat="46.10814823724895" lon="9.08569695215292"><ele>1840.0</ele><time>2026-04-25T14:01:17.002Z</time></trkpt><trkpt lat="46.10808699097861" lon="9.0857416461396"><ele>1839.0</ele><time>2026-04-25T14:01:19.002Z</time></trkpt><trkpt lat="46.10802352587199" lon="9.085783844034792"><ele>1838.0</ele><time>2026-04-25T14:01:21.002Z</time></trkpt><trkpt lat="46.10796330989547" lon="9.085816279056342"><ele>1837.0</ele><time>2026-04-25T14:01:23.002Z</time></trkpt><trkpt lat="46.10788877023606" lon="9.085849218035287"><ele>1836.0</ele><time>2026-04-25T14:01:25.002Z</time></trkpt><trkpt lat="46.10781193023257" lon="9.085849254398644"><ele>1836.0</ele><time>2026-04-25T14:01:27.002Z</time></trkpt><trkpt lat="46.1077515811405" lon="9.085880661928423"><ele>1836.0</ele><time>2026-04-25T14:01:29.002Z</time></trkpt><trkpt lat="46.10767672413745" lon="9.085877603482325"><ele>1836.0</ele><time>2026-04-25T14:01:32.002Z</time></trkpt><trkpt lat="46.10762593580733" lon="9.085934568143495"><ele>1836.0</ele><time>2026-04-25T14:01:36.002Z</time></trkpt><trkpt lat="46.107559337777865" lon="9.08606681054318"><ele>1836.0</ele><time>2026-04-25T14:01:39.002Z</time></trkpt><trkpt lat="46.10762907494527" lon="9.086226124763964"><ele>1836.0</ele><time>2026-04-25T14:01:41.002Z</time></trkpt><trkpt lat="46.10756572998665" lon="9.086356234333158"><ele>1836.0</ele><time>2026-04-25T14:01:44.002Z</time></trkpt><trkpt lat="46.107522513124984" lon="9.086446371255919"><ele>1836.0</ele><time>2026-04-25T14:01:46.002Z</time></trkpt><trkpt lat="46.10746678301664" lon="9.08654196935946"><ele>1836.0</ele><time>2026-04-25T14:01:49.002Z</time></trkpt><trkpt lat="46.10741227767552" lon="9.08661549515873"><ele>1836.0</ele><time>2026-04-25T14:01:52.002Z</time></trkpt><trkpt lat="46.1073573432375" lon="9.086701027197174"><ele>1836.0</ele><time>2026-04-25T14:01:55.001Z</time></trkpt><trkpt lat="46.10730470949451" lon="9.086784563770479"><ele>1836.0</ele><time>2026-04-25T14:01:57.001Z</time></trkpt><trkpt lat="46.107237183670826" lon="9.086874274450645"><ele>1834.8333333333333</ele><time>2026-04-25T14:02:00.001Z</time></trkpt><trkpt lat="46.10718884134194" lon="9.086956311446315"><ele>1833.6666666666665</ele><time>2026-04-25T14:02:02.001Z</time></trkpt><trkpt lat="46.107140779105876" lon="9.087076634408277"><ele>1832.5</ele><time>2026-04-25T14:02:04.001Z</time></trkpt><trkpt lat="46.10707123853872" lon="9.087166052109549"><ele>1831.3333333333333</ele><time>2026-04-25T14:02:06.001Z</time></trkpt><trkpt lat="46.107001273136824" lon="9.087210825410267"><ele>1830.1666666666665</ele><time>2026-04-25T14:02:08.001Z</time></trkpt><trkpt lat="46.106927103804445" lon="9.087254596069874"><ele>1829.0</ele><time>2026-04-25T14:02:11.001Z</time></trkpt><trkpt lat="46.106865568535156" lon="9.087330661505943"><ele>1829.0</ele><time>2026-04-25T14:02:15.001Z</time></trkpt><trkpt lat="46.1067879137262" lon="9.087398897008796"><ele>1829.0</ele><time>2026-04-25T14:02:18.001Z</time></trkpt><trkpt lat="46.10671712892415" lon="9.08747136063847"><ele>1829.0</ele><time>2026-04-25T14:02:20.001Z</time></trkpt><trkpt lat="46.10665532861437" lon="9.087527243097055"><ele>1829.0</ele><time>2026-04-25T14:02:23.001Z</time></trkpt><trkpt lat="46.1065903993389" lon="9.087610823680363"><ele>1829.0</ele><time>2026-04-25T14:02:25.001Z</time></trkpt><trkpt lat="46.10649349406728" lon="9.087700170945892"><ele>1824.0</ele><time>2026-04-25T14:02:27.001Z</time></trkpt><trkpt lat="46.10640052212439" lon="9.087776695304754"><ele>1819.0</ele><time>2026-04-25T14:02:29.001Z</time></trkpt><trkpt lat="46.10630959062884" lon="9.087844993290435"><ele>1814.0</ele><time>2026-04-25T14:02:31.001Z</time></trkpt><trkpt lat="46.106229289075785" lon="9.087917309779547"><ele>1809.0</ele><time>2026-04-25T14:02:34.002Z</time></trkpt><trkpt lat="46.106168394914356" lon="9.087968030857223"><ele>1804.0</ele><time>2026-04-25T14:02:36.002Z</time></trkpt><trkpt lat="46.106104978626256" lon="9.088028197594642"><ele>1804.0000000000002</ele><time>2026-04-25T14:02:38.002Z</time></trkpt><trkpt lat="46.106035412138084" lon="9.088095289392816"><ele>1804.0</ele><time>2026-04-25T14:02:40.002Z</time></trkpt><trkpt lat="46.105948632798054" lon="9.088146684634399"><ele>1804.0</ele><time>2026-04-25T14:02:43.002Z</time></trkpt><trkpt lat="46.105888582904726" lon="9.088189766895713"><ele>1804.0</ele><time>2026-04-25T14:02:45.002Z</time></trkpt><trkpt lat="46.105826902448996" lon="9.088233701323984"><ele>1804.0000000000002</ele><time>2026-04-25T14:02:48.002Z</time></trkpt><trkpt lat="46.10575842086502" lon="9.088285710981806"><ele>1804.0</ele><time>2026-04-25T14:02:54.002Z</time></trkpt><trkpt lat="46.10570787989062" lon="9.088341264402796"><ele>1802.3333333333335</ele><time>2026-04-25T14:02:56.002Z</time></trkpt><trkpt lat="46.10565857613233" lon="9.088423653788356"><ele>1800.6666666666667</ele><time>2026-04-25T14:02:59.002Z</time></trkpt><trkpt lat="46.105616979667616" lon="9.088506761891823"><ele>1799.0</ele><time>2026-04-25T14:03:02.002Z</time></trkpt><trkpt lat="46.10555534299345" lon="9.088609842683987"><ele>1797.3333333333335</ele><time>2026-04-25T14:03:04.002Z</time></trkpt><trkpt lat="46.10548425582908" lon="9.088677771471207"><ele>1795.6666666666667</ele><time>2026-04-25T14:03:06.002Z</time></trkpt><trkpt lat="46.10542642670923" lon="9.088736698684647"><ele>1794.0</ele><time>2026-04-25T14:03:08.002Z</time></trkpt><trkpt lat="46.10537629021883" lon="9.088792477443874"><ele>1794.0</ele><time>2026-04-25T14:03:10.002Z</time></trkpt><trkpt lat="46.10532173822713" lon="9.088891108266974"><ele>1794.0</ele><time>2026-04-25T14:03:12.002Z</time></trkpt><trkpt lat="46.10529032741996" lon="9.08900983362227"><ele>1794.0</ele><time>2026-04-25T14:03:14.002Z</time></trkpt><trkpt lat="46.105225094254614" lon="9.089129224960148"><ele>1794.0</ele><time>2026-04-25T14:03:16.002Z</time></trkpt><trkpt lat="46.10515970559814" lon="9.089257715877743"><ele>1794.0</ele><time>2026-04-25T14:03:18.002Z</time></trkpt><trkpt lat="46.10509686168959" lon="9.089382957736458"><ele>1791.6</ele><time>2026-04-25T14:03:20.002Z</time></trkpt><trkpt lat="46.10504124782736" lon="9.089519254483928"><ele>1789.2</ele><time>2026-04-25T14:03:22.002Z</time></trkpt><trkpt lat="46.10497732868161" lon="9.089631765969806"><ele>1786.7999999999997</ele><time>2026-04-25T14:03:24.002Z</time></trkpt><trkpt lat="46.104904414905626" lon="9.089736124324054"><ele>1784.3999999999999</ele><time>2026-04-25T14:03:26.002Z</time></trkpt><trkpt lat="46.10481931861987" lon="9.089824807917793"><ele>1782.0</ele><time>2026-04-25T14:03:28.002Z</time></trkpt><trkpt lat="46.10477037908431" lon="9.089916205701448"><ele>1778.0</ele><time>2026-04-25T14:03:30.002Z</time></trkpt><trkpt lat="46.10471282166412" lon="9.089985052735756"><ele>1773.9999999999998</ele><time>2026-04-25T14:03:32.002Z</time></trkpt><trkpt lat="46.10464280370651" lon="9.09012171072738"><ele>1769.9999999999998</ele><time>2026-04-25T14:03:34.002Z</time></trkpt><trkpt lat="46.10458300738287" lon="9.090255071018412"><ele>1766.0</ele><time>2026-04-25T14:03:36.002Z</time></trkpt><trkpt lat="46.10452014650749" lon="9.090392108041392"><ele>1762.0</ele><time>2026-04-25T14:03:38.001Z</time></trkpt><trkpt lat="46.104480328595" lon="9.09047222333151"><ele>1762.0</ele><time>2026-04-25T14:03:39.001Z</time></trkpt><trkpt lat="46.104415868949765" lon="9.090597794802322"><ele>1761.9999999999998</ele><time>2026-04-25T14:03:41.001Z</time></trkpt><trkpt lat="46.10437647601014" lon="9.090708121422937"><ele>1761.9999999999998</ele><time>2026-04-25T14:03:43.001Z</time></trkpt><trkpt lat="46.10434686612082" lon="9.090829363171357"><ele>1762.0</ele><time>2026-04-25T14:03:45Z</time></trkpt><trkpt lat="46.104276738054956" lon="9.090948991337532"><ele>1762.0</ele><time>2026-04-25T14:03:47Z</time></trkpt><trkpt lat="46.104188316875906" lon="9.091044785618209"><ele>1758.6</ele><time>2026-04-25T14:03:49Z</time></trkpt><trkpt lat="46.10412414776556" lon="9.091064755358548"><ele>1755.1999999999998</ele><time>2026-04-25T14:03:50Z</time></trkpt><trkpt lat="46.104021941543735" lon="9.09113738000486"><ele>1751.8</ele><time>2026-04-25T14:03:52Z</time></trkpt><trkpt lat="46.103922505255134" lon="9.091235501705091"><ele>1748.4</ele><time>2026-04-25T14:03:54Z</time></trkpt><trkpt lat="46.103815526304075" lon="9.091325872384276"><ele>1745.0</ele><time>2026-04-25T14:03:56Z</time></trkpt><trkpt lat="46.10374515330255" lon="9.09142453288103"><ele>1743.8</ele><time>2026-04-25T14:03:58Z</time></trkpt><trkpt lat="46.10371649768557" lon="9.091552149802084"><ele>1742.6</ele><time>2026-04-25T14:04:00Z</time></trkpt><trkpt lat="46.103712232903256" lon="9.091709373615247"><ele>1741.4</ele><time>2026-04-25T14:04:02Z</time></trkpt><trkpt lat="46.10373240776584" lon="9.091871465279478"><ele>1740.2</ele><time>2026-04-25T14:04:04Z</time></trkpt><trkpt lat="46.1037502737617" lon="9.092016021096912"><ele>1739.0</ele><time>2026-04-25T14:04:06Z</time></trkpt><trkpt lat="46.10371518338469" lon="9.09216849368795"><ele>1735.6</ele><time>2026-04-25T14:04:08Z</time></trkpt><trkpt lat="46.10366659446828" lon="9.092302153947232"><ele>1732.2</ele><time>2026-04-25T14:04:10Z</time></trkpt><trkpt lat="46.10360285288327" lon="9.09245192553657"><ele>1728.7999999999997</ele><time>2026-04-25T14:04:12Z</time></trkpt><trkpt lat="46.10358091100975" lon="9.09254683249477"><ele>1725.3999999999999</ele><time>2026-04-25T14:04:13Z</time></trkpt><trkpt lat="46.10352952113039" lon="9.092685160540984"><ele>1722.0</ele><time>2026-04-25T14:04:15Z</time></trkpt><trkpt lat="46.10349373682903" lon="9.092815581175428"><ele>1720.0</ele><time>2026-04-25T14:04:17Z</time></trkpt><trkpt lat="46.103457712626735" lon="9.09292174716191"><ele>1718.0</ele><time>2026-04-25T14:04:19Z</time></trkpt><trkpt lat="46.10338514557198" lon="9.092981757652217"><ele>1716.0</ele><time>2026-04-25T14:04:21Z</time></trkpt><trkpt lat="46.103320395467634" lon="9.093017209233343"><ele>1714.0</ele><time>2026-04-25T14:04:23Z</time></trkpt><trkpt lat="46.103253229453614" lon="9.093051496313317"><ele>1712.0</ele><time>2026-04-25T14:04:25Z</time></trkpt><trkpt lat="46.103181719132046" lon="9.09305686049875"><ele>1710.0</ele><time>2026-04-25T14:04:27.001Z</time></trkpt><trkpt lat="46.103082470438345" lon="9.093032020397462"><ele>1707.3333333333333</ele><time>2026-04-25T14:04:29.001Z</time></trkpt><trkpt lat="46.10297374332716" lon="9.093034880634642"><ele>1704.6666666666665</ele><time>2026-04-25T14:04:31.001Z</time></trkpt><trkpt lat="46.10289394921919" lon="9.09298944635478"><ele>1702.0</ele><time>2026-04-25T14:04:33.001Z</time></trkpt><trkpt lat="46.10282763235959" lon="9.092925127797367"><ele>1699.3333333333333</ele><time>2026-04-25T14:04:35.001Z</time></trkpt><trkpt lat="46.10276821625669" lon="9.092839488687554"><ele>1696.6666666666665</ele><time>2026-04-25T14:04:37.001Z</time></trkpt><trkpt lat="46.10269750982455" lon="9.09275838884476"><ele>1694.0</ele><time>2026-04-25T14:04:39.001Z</time></trkpt><trkpt lat="46.10262179120464" lon="9.092666224436691"><ele>1694.0</ele><time>2026-04-25T14:04:41.001Z</time></trkpt><trkpt lat="46.10258904424025" lon="9.092534437774502"><ele>1694.0</ele><time>2026-04-25T14:04:43.001Z</time></trkpt><trkpt lat="46.102557695624284" lon="9.092407868348257"><ele>1694.0</ele><time>2026-04-25T14:04:45.001Z</time></trkpt><trkpt lat="46.1025396330032" lon="9.092281915862433"><ele>1694.0</ele><time>2026-04-25T14:04:47.001Z</time></trkpt><trkpt lat="46.10252889929612" lon="9.092160096358057"><ele>1694.0</ele><time>2026-04-25T14:04:49.001Z</time></trkpt><trkpt lat="46.10250140655043" lon="9.092028035296222"><ele>1694.4</ele><time>2026-04-25T14:04:51.001Z</time></trkpt><trkpt lat="46.10248279083163" lon="9.09187492574648"><ele>1694.8000000000002</ele><time>2026-04-25T14:04:53.001Z</time></trkpt><trkpt lat="46.102473911611064" lon="9.091722396175967"><ele>1695.1999999999998</ele><time>2026-04-25T14:04:55.001Z</time></trkpt><trkpt lat="46.102437265800994" lon="9.091582399563436"><ele>1695.6</ele><time>2026-04-25T14:04:57.001Z</time></trkpt><trkpt lat="46.102420699676344" lon="9.091432605530159"><ele>1696.0</ele><time>2026-04-25T14:04:59.001Z</time></trkpt><trkpt lat="46.10237904428918" lon="9.091284996793119"><ele>1687.4</ele><time>2026-04-25T14:05:01.001Z</time></trkpt><trkpt lat="46.10232585786278" lon="9.0911508262553"><ele>1678.8</ele><time>2026-04-25T14:05:03.001Z</time></trkpt><trkpt lat="46.10230939858576" lon="9.091014437425772"><ele>1670.2</ele><time>2026-04-25T14:05:05.001Z</time></trkpt><trkpt lat="46.1022731446885" lon="9.090852430019359"><ele>1661.6000000000001</ele><time>2026-04-25T14:05:07.001Z</time></trkpt><trkpt lat="46.10224763674059" lon="9.090684390768786"><ele>1653.0</ele><time>2026-04-25T14:05:09.001Z</time></trkpt><trkpt lat="46.10224996013308" lon="9.09059322395914"><ele>1653.0</ele><time>2026-04-25T14:05:10.001Z</time></trkpt><trkpt lat="46.10223677123123" lon="9.090416436944961"><ele>1653.0</ele><time>2026-04-25T14:05:12.001Z</time></trkpt><trkpt lat="46.10224303926587" lon="9.090254289518779"><ele>1653.0</ele><time>2026-04-25T14:05:14.001Z</time></trkpt><trkpt lat="46.10223269687882" lon="9.090089477431494"><ele>1653.0</ele><time>2026-04-25T14:05:16.001Z</time></trkpt><trkpt lat="46.10219864802171" lon="9.09001289212095"><ele>1653.0</ele><time>2026-04-25T14:05:17.001Z</time></trkpt><trkpt lat="46.10219164649764" lon="9.08984547062086"><ele>1655.0</ele><time>2026-04-25T14:05:19.001Z</time></trkpt><trkpt lat="46.10216496942806" lon="9.089760776265864"><ele>1657.0</ele><time>2026-04-25T14:05:20.001Z</time></trkpt><trkpt lat="46.102157192193154" lon="9.089669150610593"><ele>1659.0</ele><time>2026-04-25T14:05:21.001Z</time></trkpt><trkpt lat="46.102136520826846" lon="9.089576291364164"><ele>1661.0</ele><time>2026-04-25T14:05:22.001Z</time></trkpt><trkpt lat="46.10208788852384" lon="9.089389855564214"><ele>1663.0</ele><time>2026-04-25T14:05:24.001Z</time></trkpt><trkpt lat="46.10206775228288" lon="9.089299230583975"><ele>1665.0</ele><time>2026-04-25T14:05:25.001Z</time></trkpt><trkpt lat="46.10204236888798" lon="9.089126772313891"><ele>1667.8</ele><time>2026-04-25T14:05:27.001Z</time></trkpt><trkpt lat="46.102020952330804" lon="9.088950317614355"><ele>1670.6</ele><time>2026-04-25T14:05:29.001Z</time></trkpt><trkpt lat="46.102001226814195" lon="9.088863983518376"><ele>1673.4</ele><time>2026-04-25T14:05:30.001Z</time></trkpt><trkpt lat="46.102004419730434" lon="9.088701389057535"><ele>1676.2</ele><time>2026-04-25T14:05:32.001Z</time></trkpt><trkpt lat="46.10195086733566" lon="9.088553625968784"><ele>1679.0</ele><time>2026-04-25T14:05:34.001Z</time></trkpt><trkpt lat="46.10189067640581" lon="9.088495112348674"><ele>1679.0</ele><time>2026-04-25T14:05:35.001Z</time></trkpt><trkpt lat="46.101810592447116" lon="9.088471452902745"><ele>1679.0</ele><time>2026-04-25T14:05:36.001Z</time></trkpt><trkpt lat="46.101747656581765" lon="9.088405087785663"><ele>1679.0</ele><time>2026-04-25T14:05:37.001Z</time></trkpt><trkpt lat="46.101679975797786" lon="9.088352588299346"><ele>1679.0</ele><time>2026-04-25T14:05:38.001Z</time></trkpt><trkpt lat="46.10161672454132" lon="9.088299503662604"><ele>1679.0</ele><time>2026-04-25T14:05:39.001Z</time></trkpt><trkpt lat="46.10155311465401" lon="9.088263744123058"><ele>1679.0</ele><time>2026-04-25T14:05:40.001Z</time></trkpt><trkpt lat="46.1015130115788" lon="9.088179417161152"><ele>1679.0</ele><time>2026-04-25T14:05:41.001Z</time></trkpt><trkpt lat="46.10144450011492" lon="9.08804066126669"><ele>1671.5</ele><time>2026-04-25T14:05:42.999Z</time></trkpt><trkpt lat="46.10138577198116" lon="9.087902740269637"><ele>1664.0</ele><time>2026-04-25T14:05:44.999Z</time></trkpt><trkpt lat="46.10136646459802" lon="9.08776075105736"><ele>1656.5</ele><time>2026-04-25T14:05:46.999Z</time></trkpt><trkpt lat="46.101398539316435" lon="9.087631767056015"><ele>1649.0</ele><time>2026-04-25T14:05:48.999Z</time></trkpt><trkpt lat="46.10150071325236" lon="9.087479361923037"><ele>1651.8333333333333</ele><time>2026-04-25T14:05:49.999Z</time></trkpt><trkpt lat="46.10147288703686" lon="9.087375992793477"><ele>1654.6666666666665</ele><time>2026-04-25T14:05:51.999Z</time></trkpt><trkpt lat="46.101436523941196" lon="9.087264331570417"><ele>1657.5</ele><time>2026-04-25T14:05:54Z</time></trkpt><trkpt lat="46.10140477381106" lon="9.08715355761304"><ele>1660.3333333333335</ele><time>2026-04-25T14:05:56Z</time></trkpt><trkpt lat="46.10137212990883" lon="9.087039924434503"><ele>1663.1666666666667</ele><time>2026-04-25T14:05:58Z</time></trkpt><trkpt lat="46.10134253287773" lon="9.08692321490606"><ele>1666.0</ele><time>2026-04-25T14:06:00Z</time></trkpt><trkpt lat="46.101274995213096" lon="9.086888362207386"><ele>1666.0000000000002</ele><time>2026-04-25T14:06:01Z</time></trkpt><trkpt lat="46.10123636057051" lon="9.086803522999535"><ele>1666.0</ele><time>2026-04-25T14:06:03Z</time></trkpt><trkpt lat="46.10122219108773" lon="9.086691924766644"><ele>1666.0</ele><time>2026-04-25T14:06:05Z</time></trkpt><trkpt lat="46.10122528262237" lon="9.086531062394977"><ele>1666.0</ele><time>2026-04-25T14:06:07Z</time></trkpt><trkpt lat="46.10126681983356" lon="9.086412460186379"><ele>1666.0000000000002</ele><time>2026-04-25T14:06:09Z</time></trkpt><trkpt lat="46.10124798685178" lon="9.08632037855701"><ele>1666.0</ele><time>2026-04-25T14:06:11Z</time></trkpt><trkpt lat="46.10119508037678" lon="9.08624132879799"><ele>1670.1666666666667</ele><time>2026-04-25T14:06:14Z</time></trkpt><trkpt lat="46.10110187059445" lon="9.086266545771402"><ele>1674.3333333333335</ele><time>2026-04-25T14:06:17Z</time></trkpt><trkpt lat="46.10102639469345" lon="9.086288887524368"><ele>1678.5</ele><time>2026-04-25T14:06:19Z</time></trkpt><trkpt lat="46.10095357985367" lon="9.086312221366114"><ele>1682.6666666666665</ele><time>2026-04-25T14:06:21Z</time></trkpt><trkpt lat="46.1008820513572" lon="9.086342756194894"><ele>1686.8333333333333</ele><time>2026-04-25T14:06:23Z</time></trkpt><trkpt lat="46.10079334135562" lon="9.086373524278699"><ele>1691.0</ele><time>2026-04-25T14:06:25Z</time></trkpt><trkpt lat="46.10070076392331" lon="9.086399582254815"><ele>1693.6</ele><time>2026-04-25T14:06:27Z</time></trkpt><trkpt lat="46.10058285649743" lon="9.08640583382363"><ele>1696.1999999999998</ele><time>2026-04-25T14:06:29Z</time></trkpt><trkpt lat="46.10052498905838" lon="9.086449153289214"><ele>1698.8000000000002</ele><time>2026-04-25T14:06:30Z</time></trkpt><trkpt lat="46.10040341378725" lon="9.086513233760469"><ele>1701.4</ele><time>2026-04-25T14:06:32Z</time></trkpt><trkpt lat="46.10035655159042" lon="9.086575022234705"><ele>1704.0</ele><time>2026-04-25T14:06:33Z</time></trkpt><trkpt lat="46.100261207932704" lon="9.086635127549151"><ele>1698.1666666666667</ele><time>2026-04-25T14:06:35Z</time></trkpt><trkpt lat="46.100202220231296" lon="9.08671311258343"><ele>1692.3333333333335</ele><time>2026-04-25T14:06:37Z</time></trkpt><trkpt lat="46.10015240275331" lon="9.086772951161407"><ele>1686.5</ele><time>2026-04-25T14:06:39Z</time></trkpt><trkpt lat="46.10013392096427" lon="9.086927644252405"><ele>1680.6666666666667</ele><time>2026-04-25T14:06:41Z</time></trkpt><trkpt lat="46.100092504024055" lon="9.08708590867679"><ele>1674.8333333333335</ele><time>2026-04-25T14:06:43Z</time></trkpt><trkpt lat="46.10004221192915" lon="9.087148141522732"><ele>1669.0</ele><time>2026-04-25T14:06:44Z</time></trkpt><trkpt lat="46.10001933590335" lon="9.087246442844298"><ele>1669.0000000000002</ele><time>2026-04-25T14:06:45Z</time></trkpt><trkpt lat="46.09999226837862" lon="9.08733542936545"><ele>1669.0</ele><time>2026-04-25T14:06:46Z</time></trkpt><trkpt lat="46.09996954846722" lon="9.087434432516389"><ele>1669.0</ele><time>2026-04-25T14:06:47Z</time></trkpt><trkpt lat="46.09990463069503" lon="9.087586392333307"><ele>1669.0</ele><time>2026-04-25T14:06:49Z</time></trkpt><trkpt lat="46.09985604644223" lon="9.087654942021134"><ele>1669.0000000000002</ele><time>2026-04-25T14:06:50Z</time></trkpt><trkpt lat="46.099805605585296" lon="9.087715608817804"><ele>1669.0</ele><time>2026-04-25T14:06:51Z</time></trkpt><trkpt lat="46.099748534373006" lon="9.087773397447691"><ele>1667.6</ele><time>2026-04-25T14:06:52Z</time></trkpt><trkpt lat="46.09969612065282" lon="9.08782445232344"><ele>1666.2</ele><time>2026-04-25T14:06:53Z</time></trkpt><trkpt lat="46.0995955179151" lon="9.087885239687614"><ele>1664.8</ele><time>2026-04-25T14:06:55Z</time></trkpt><trkpt lat="46.09947619788393" lon="9.087937091373497"><ele>1663.3999999999999</ele><time>2026-04-25T14:06:57Z</time></trkpt><trkpt lat="46.09941085992426" lon="9.087949109717842"><ele>1662.0</ele><time>2026-04-25T14:06:58Z</time></trkpt><trkpt lat="46.099290118606476" lon="9.087945933958899"><ele>1661.9999999999998</ele><time>2026-04-25T14:07:00.001Z</time></trkpt><trkpt lat="46.09922604031315" lon="9.087975072741136"><ele>1662.0</ele><time>2026-04-25T14:07:01.001Z</time></trkpt><trkpt lat="46.09916694398263" lon="9.088018681899468"><ele>1662.0</ele><time>2026-04-25T14:07:02.001Z</time></trkpt><trkpt lat="46.099096845688884" lon="9.088068244089394"><ele>1662.0</ele><time>2026-04-25T14:07:03.001Z</time></trkpt><trkpt lat="46.09903109492749" lon="9.088081097696174"><ele>1662.0</ele><time>2026-04-25T14:07:04.001Z</time></trkpt><trkpt lat="46.09896265030299" lon="9.08809031125238"><ele>1661.9999999999998</ele><time>2026-04-25T14:07:06.001Z</time></trkpt><trkpt lat="46.09886425541936" lon="9.088080919027558"><ele>1662.0</ele><time>2026-04-25T14:07:08.001Z</time></trkpt><trkpt lat="46.09877521130856" lon="9.08818920555387"><ele>1658.8</ele><time>2026-04-25T14:07:10.001Z</time></trkpt><trkpt lat="46.098683929240046" lon="9.088262672169604"><ele>1655.6</ele><time>2026-04-25T14:07:12.001Z</time></trkpt><trkpt lat="46.09861755465117" lon="9.088361520191276"><ele>1652.3999999999999</ele><time>2026-04-25T14:07:14.001Z</time></trkpt><trkpt lat="46.09857543934005" lon="9.088516496120295"><ele>1649.1999999999998</ele><time>2026-04-25T14:07:16.001Z</time></trkpt><trkpt lat="46.098516344722924" lon="9.088627761610443"><ele>1646.0</ele><time>2026-04-25T14:07:18.001Z</time></trkpt><trkpt lat="46.098448919810004" lon="9.088708413992727"><ele>1645.9999999999998</ele><time>2026-04-25T14:07:20.001Z</time></trkpt><trkpt lat="46.09836223194791" lon="9.088761455598004"><ele>1646.0</ele><time>2026-04-25T14:07:22.001Z</time></trkpt><trkpt lat="46.09826439248511" lon="9.08883627521623"><ele>1646.0</ele><time>2026-04-25T14:07:24.001Z</time></trkpt><trkpt lat="46.09820241255507" lon="9.08889936148983"><ele>1646.0</ele><time>2026-04-25T14:07:26.001Z</time></trkpt><trkpt lat="46.098216291798956" lon="9.089000561273648"><ele>1645.9999999999998</ele><time>2026-04-25T14:07:28.001Z</time></trkpt><trkpt lat="46.09826958734649" lon="9.089089359969673"><ele>1646.0</ele><time>2026-04-25T14:07:30.001Z</time></trkpt><trkpt lat="46.098353747852556" lon="9.089189447092423"><ele>1642.3333333333333</ele><time>2026-04-25T14:07:32.001Z</time></trkpt><trkpt lat="46.098308497357586" lon="9.089275896376824"><ele>1638.6666666666665</ele><time>2026-04-25T14:07:34.001Z</time></trkpt><trkpt lat="46.09820870714873" lon="9.089244054457"><ele>1635.0</ele><time>2026-04-25T14:07:36.001Z</time></trkpt><trkpt lat="46.09807844639082" lon="9.089235731509111"><ele>1631.3333333333335</ele><time>2026-04-25T14:07:38.001Z</time></trkpt><trkpt lat="46.09801081198915" lon="9.089259118116676"><ele>1627.6666666666667</ele><time>2026-04-25T14:07:39.001Z</time></trkpt><trkpt lat="46.09794299767656" lon="9.08926267221538"><ele>1624.0</ele><time>2026-04-25T14:07:40.001Z</time></trkpt><trkpt lat="46.09782504338184" lon="9.089260770876711"><ele>1621.5</ele><time>2026-04-25T14:07:42.001Z</time></trkpt><trkpt lat="46.09770469958143" lon="9.089302361273996"><ele>1619.0</ele><time>2026-04-25T14:07:44.001Z</time></trkpt><trkpt lat="46.09758452834246" lon="9.089297371451295"><ele>1616.5</ele><time>2026-04-25T14:07:46.001Z</time></trkpt><trkpt lat="46.097481039946274" lon="9.08925815856316"><ele>1614.0</ele><time>2026-04-25T14:07:48.001Z</time></trkpt><trkpt lat="46.09737657561654" lon="9.089212776809262"><ele>1615.6</ele><time>2026-04-25T14:07:49.999Z</time></trkpt><trkpt lat="46.09725917306016" lon="9.089137832816895"><ele>1617.2</ele><time>2026-04-25T14:07:51.999Z</time></trkpt><trkpt lat="46.09720352231028" lon="9.089087626217017"><ele>1618.8</ele><time>2026-04-25T14:07:52.999Z</time></trkpt><trkpt lat="46.0970950941876" lon="9.088973749209913"><ele>1620.3999999999999</ele><time>2026-04-25T14:07:54.999Z</time></trkpt><trkpt lat="46.09701934689216" lon="9.088906144271526"><ele>1622.0</ele><time>2026-04-25T14:07:55.999Z</time></trkpt><trkpt lat="46.09695218611869" lon="9.088869231119382"><ele>1622.0</ele><time>2026-04-25T14:07:56.999Z</time></trkpt><trkpt lat="46.09688629960091" lon="9.0888200067092"><ele>1622.0</ele><time>2026-04-25T14:07:57.999Z</time></trkpt><trkpt lat="46.09682530651205" lon="9.088782276173845"><ele>1622.0</ele><time>2026-04-25T14:07:58.999Z</time></trkpt><trkpt lat="46.096761132353436" lon="9.088746126169386"><ele>1622.0</ele><time>2026-04-25T14:07:59.999Z</time></trkpt><trkpt lat="46.09669717617267" lon="9.088705639935487"><ele>1622.0</ele><time>2026-04-25T14:08:00.999Z</time></trkpt><trkpt lat="46.096631681262075" lon="9.08866483218852"><ele>1622.0</ele><time>2026-04-25T14:08:01.999Z</time></trkpt><trkpt lat="46.09656607762643" lon="9.088623176677284"><ele>1622.0</ele><time>2026-04-25T14:08:02.999Z</time></trkpt><trkpt lat="46.096502415324906" lon="9.0885863248258"><ele>1619.4999999999998</ele><time>2026-04-25T14:08:03.999Z</time></trkpt><trkpt lat="46.09639949648239" lon="9.088506024443486"><ele>1617.0</ele><time>2026-04-25T14:08:05.999Z</time></trkpt><trkpt lat="46.09628412436502" lon="9.088493446405977"><ele>1614.5</ele><time>2026-04-25T14:08:07.999Z</time></trkpt><trkpt lat="46.09622152236485" lon="9.088466714990126"><ele>1612.0</ele><time>2026-04-25T14:08:08.999Z</time></trkpt><trkpt lat="46.09615493996773" lon="9.088481372418586"><ele>1609.4999999999998</ele><time>2026-04-25T14:08:10Z</time></trkpt><trkpt lat="46.09608136443167" lon="9.088447152438311"><ele>1607.0</ele><time>2026-04-25T14:08:11Z</time></trkpt><trkpt lat="46.09601000500841" lon="9.088431123387018"><ele>1607.0</ele><time>2026-04-25T14:08:12Z</time></trkpt><trkpt lat="46.095942856804406" lon="9.088433721460516"><ele>1607.0</ele><time>2026-04-25T14:08:13Z</time></trkpt><trkpt lat="46.095826745732914" lon="9.088426789020986"><ele>1607.0</ele><time>2026-04-25T14:08:15Z</time></trkpt><trkpt lat="46.09571938721585" lon="9.088412019800634"><ele>1607.0</ele><time>2026-04-25T14:08:17Z</time></trkpt><trkpt lat="46.09561899689665" lon="9.088302293820597"><ele>1607.0</ele><time>2026-04-25T14:08:19Z</time></trkpt><trkpt lat="46.09552163307879" lon="9.08822813417895"><ele>1610.1666666666665</ele><time>2026-04-25T14:08:21Z</time></trkpt><trkpt lat="46.09542415443416" lon="9.088186756240145"><ele>1613.3333333333333</ele><time>2026-04-25T14:08:23Z</time></trkpt><trkpt lat="46.09530419699919" lon="9.088212884128742"><ele>1616.5</ele><time>2026-04-25T14:08:25Z</time></trkpt><trkpt lat="46.09523913172941" lon="9.088208990327052"><ele>1619.6666666666665</ele><time>2026-04-25T14:08:26Z</time></trkpt><trkpt lat="46.09518156275071" lon="9.088166274282099"><ele>1622.8333333333333</ele><time>2026-04-25T14:08:27Z</time></trkpt><trkpt lat="46.09510433526974" lon="9.088169827458385"><ele>1626.0</ele><time>2026-04-25T14:08:28Z</time></trkpt><trkpt lat="46.095032900991065" lon="9.088158850414567"><ele>1626.0</ele><time>2026-04-25T14:08:29Z</time></trkpt><trkpt lat="46.09496657337643" lon="9.088135995763134"><ele>1626.0</ele><time>2026-04-25T14:08:30Z</time></trkpt><trkpt lat="46.094899007879775" lon="9.08810036988327"><ele>1626.0</ele><time>2026-04-25T14:08:31Z</time></trkpt><trkpt lat="46.09482707107085" lon="9.088076016633652"><ele>1626.0</ele><time>2026-04-25T14:08:32Z</time></trkpt><trkpt lat="46.09476049271408" lon="9.088052487467186"><ele>1626.0</ele><time>2026-04-25T14:08:33Z</time></trkpt><trkpt lat="46.09470554407233" lon="9.088005431575665"><ele>1626.0</ele><time>2026-04-25T14:08:34Z</time></trkpt><trkpt lat="46.094644741677286" lon="9.087969946645972"><ele>1626.0</ele><time>2026-04-25T14:08:35Z</time></trkpt><trkpt lat="46.094534042837445" lon="9.087900177365517"><ele>1626.0</ele><time>2026-04-25T14:08:37Z</time></trkpt><trkpt lat="46.09443317922902" lon="9.087857973906157"><ele>1626.0</ele><time>2026-04-25T14:08:39Z</time></trkpt><trkpt lat="46.09436628340778" lon="9.087851462613417"><ele>1626.0</ele><time>2026-04-25T14:08:40Z</time></trkpt><trkpt lat="46.094295329499595" lon="9.087907963682621"><ele>1626.0</ele><time>2026-04-25T14:08:41Z</time></trkpt><trkpt lat="46.09419791131736" lon="9.08796913448853"><ele>1626.0</ele><time>2026-04-25T14:08:42Z</time></trkpt><trkpt lat="46.094124393371715" lon="9.088025138104578"><ele>1626.0</ele><time>2026-04-25T14:08:43Z</time></trkpt><trkpt lat="46.09400141763621" lon="9.088084155243342"><ele>1626.0</ele><time>2026-04-25T14:08:45Z</time></trkpt><trkpt lat="46.09393130814853" lon="9.088119324463408"><ele>1626.0</ele><time>2026-04-25T14:08:46Z</time></trkpt><trkpt lat="46.0938540226107" lon="9.088123979157515"><ele>1626.0</ele><time>2026-04-25T14:08:47Z</time></trkpt><trkpt lat="46.09377971528254" lon="9.088140214094077"><ele>1626.0</ele><time>2026-04-25T14:08:48Z</time></trkpt><trkpt lat="46.09369487225181" lon="9.088149389957582"><ele>1626.0</ele><time>2026-04-25T14:08:49Z</time></trkpt><trkpt lat="46.09361686394498" lon="9.088152426888593"><ele>1626.0</ele><time>2026-04-25T14:08:50Z</time></trkpt><trkpt lat="46.09349052351636" lon="9.088146062803157"><ele>1626.0</ele><time>2026-04-25T14:08:52Z</time></trkpt><trkpt lat="46.09340256402402" lon="9.088167704344068"><ele>1626.0</ele><time>2026-04-25T14:08:53Z</time></trkpt><trkpt lat="46.09329638746161" lon="9.08814290568749"><ele>1626.0</ele><time>2026-04-25T14:08:54Z</time></trkpt><trkpt lat="46.09320875882171" lon="9.088166140214856"><ele>1626.0</ele><time>2026-04-25T14:08:55Z</time></trkpt><trkpt lat="46.09313722940748" lon="9.088163981130391"><ele>1626.0</ele><time>2026-04-25T14:08:56Z</time></trkpt><trkpt lat="46.093002853601924" lon="9.088154240796028"><ele>1624.3333333333333</ele><time>2026-04-25T14:08:58Z</time></trkpt><trkpt lat="46.09293036347284" lon="9.088167391139208"><ele>1622.6666666666665</ele><time>2026-04-25T14:08:59Z</time></trkpt><trkpt lat="46.09285858011196" lon="9.088182952418475"><ele>1621.0</ele><time>2026-04-25T14:09:00Z</time></trkpt><trkpt lat="46.092791238666386" lon="9.088197234951057"><ele>1619.3333333333333</ele><time>2026-04-25T14:09:01Z</time></trkpt><trkpt lat="46.09266770164662" lon="9.088200702589345"><ele>1617.6666666666665</ele><time>2026-04-25T14:09:03Z</time></trkpt><trkpt lat="46.09260021144798" lon="9.088206872722157"><ele>1616.0</ele><time>2026-04-25T14:09:04Z</time></trkpt><trkpt lat="46.09253448376578" lon="9.088209628766732"><ele>1615.9999999999998</ele><time>2026-04-25T14:09:05Z</time></trkpt><trkpt lat="46.09246395859108" lon="9.088214926493725"><ele>1616.0</ele><time>2026-04-25T14:09:06.001Z</time></trkpt><trkpt lat="46.09239989091427" lon="9.08822516316371"><ele>1616.0</ele><time>2026-04-25T14:09:07.001Z</time></trkpt><trkpt lat="46.09233115443026" lon="9.088232926964661"><ele>1616.0</ele><time>2026-04-25T14:09:08.001Z</time></trkpt><trkpt lat="46.092265495767286" lon="9.088247679731658"><ele>1615.9999999999998</ele><time>2026-04-25T14:09:09.001Z</time></trkpt><trkpt lat="46.092168618756446" lon="9.088258212165469"><ele>1616.0</ele><time>2026-04-25T14:09:11.001Z</time></trkpt><trkpt lat="46.09207890278116" lon="9.088188306397074"><ele>1613.8333333333333</ele><time>2026-04-25T14:09:13.001Z</time></trkpt><trkpt lat="46.091958457781615" lon="9.088166572688658"><ele>1611.6666666666665</ele><time>2026-04-25T14:09:15.001Z</time></trkpt><trkpt lat="46.09189551415718" lon="9.088221620009252"><ele>1609.5</ele><time>2026-04-25T14:09:16.001Z</time></trkpt><trkpt lat="46.09183237884818" lon="9.088269876654316"><ele>1607.3333333333335</ele><time>2026-04-25T14:09:17.001Z</time></trkpt><trkpt lat="46.09176453075683" lon="9.088309480003973"><ele>1605.1666666666667</ele><time>2026-04-25T14:09:18.001Z</time></trkpt><trkpt lat="46.09170197148463" lon="9.088361290531543"><ele>1603.0</ele><time>2026-04-25T14:09:19.001Z</time></trkpt><trkpt lat="46.091639756707636" lon="9.088410849166314"><ele>1601.4285714285713</ele><time>2026-04-25T14:09:20.001Z</time></trkpt><trkpt lat="46.09158017959889" lon="9.088458239204735"><ele>1599.857142857143</ele><time>2026-04-25T14:09:21.001Z</time></trkpt><trkpt lat="46.091528639784414" lon="9.088525730616928"><ele>1598.2857142857142</ele><time>2026-04-25T14:09:22.001Z</time></trkpt><trkpt lat="46.09146983288056" lon="9.08856192677324"><ele>1596.7142857142858</ele><time>2026-04-25T14:09:23.001Z</time></trkpt><trkpt lat="46.091409214792144" lon="9.08861007418641"><ele>1595.142857142857</ele><time>2026-04-25T14:09:24.001Z</time></trkpt><trkpt lat="46.09134952729949" lon="9.088652896533183"><ele>1593.5714285714284</ele><time>2026-04-25T14:09:25.001Z</time></trkpt><trkpt lat="46.09128496395455" lon="9.088702431887082"><ele>1592.0</ele><time>2026-04-25T14:09:26.001Z</time></trkpt><trkpt lat="46.09122818869388" lon="9.088756888264758"><ele>1591.9999999999998</ele><time>2026-04-25T14:09:27.001Z</time></trkpt><trkpt lat="46.091172964615104" lon="9.08880634763057"><ele>1592.0</ele><time>2026-04-25T14:09:28.001Z</time></trkpt><trkpt lat="46.09110729492808" lon="9.088852683605186"><ele>1592.0</ele><time>2026-04-25T14:09:29.001Z</time></trkpt><trkpt lat="46.0910353581887" lon="9.088899799197096"><ele>1592.0</ele><time>2026-04-25T14:09:30.001Z</time></trkpt><trkpt lat="46.090962253036245" lon="9.088948610327934"><ele>1591.9999999999998</ele><time>2026-04-25T14:09:31.001Z</time></trkpt><trkpt lat="46.090885984443105" lon="9.088991782828966"><ele>1592.0</ele><time>2026-04-25T14:09:32.001Z</time></trkpt><trkpt lat="46.090817934831946" lon="9.089033726022636"><ele>1590.9999999999998</ele><time>2026-04-25T14:09:33.001Z</time></trkpt><trkpt lat="46.09075067115713" lon="9.08905597819677"><ele>1590.0</ele><time>2026-04-25T14:09:34.001Z</time></trkpt><trkpt lat="46.090683830953694" lon="9.089061537564797"><ele>1589.0</ele><time>2026-04-25T14:09:35.001Z</time></trkpt><trkpt lat="46.090620804525095" lon="9.089078476031341"><ele>1588.0</ele><time>2026-04-25T14:09:36.001Z</time></trkpt><trkpt lat="46.09055432805163" lon="9.089101625580788"><ele>1587.0</ele><time>2026-04-25T14:09:37.001Z</time></trkpt><trkpt lat="46.0904938349394" lon="9.089131677058532"><ele>1585.9999999999998</ele><time>2026-04-25T14:09:38.001Z</time></trkpt><trkpt lat="46.09039474034546" lon="9.089215552469744"><ele>1585.0</ele><time>2026-04-25T14:09:40.001Z</time></trkpt><trkpt lat="46.09032304794893" lon="9.089315604184536"><ele>1585.0000000000002</ele><time>2026-04-25T14:09:42.001Z</time></trkpt><trkpt lat="46.09026124475897" lon="9.089405928094916"><ele>1585.0</ele><time>2026-04-25T14:09:44.001Z</time></trkpt><trkpt lat="46.09018406226805" lon="9.089527336002675"><ele>1585.0</ele><time>2026-04-25T14:09:46.001Z</time></trkpt><trkpt lat="46.09013183137753" lon="9.089586245713313"><ele>1585.0</ele><time>2026-04-25T14:09:47.001Z</time></trkpt><trkpt lat="46.09008322253844" lon="9.089654045448798"><ele>1585.0000000000002</ele><time>2026-04-25T14:09:48.001Z</time></trkpt><trkpt lat="46.090035898425654" lon="9.08972126416065"><ele>1585.0</ele><time>2026-04-25T14:09:49.001Z</time></trkpt><trkpt lat="46.08995851574308" lon="9.08984112566216"><ele>1582.6666666666667</ele><time>2026-04-25T14:09:51.001Z</time></trkpt><trkpt lat="46.089914439480694" lon="9.089910791095145"><ele>1580.3333333333335</ele><time>2026-04-25T14:09:52.001Z</time></trkpt><trkpt lat="46.089871899447026" lon="9.089983227348577"><ele>1578.0</ele><time>2026-04-25T14:09:53.001Z</time></trkpt><trkpt lat="46.089791080676775" lon="9.090101594307907"><ele>1575.6666666666665</ele><time>2026-04-25T14:09:54.999Z</time></trkpt><trkpt lat="46.08972118382207" lon="9.090183146081854"><ele>1573.3333333333333</ele><time>2026-04-25T14:09:56.999Z</time></trkpt><trkpt lat="46.08964570758214" lon="9.090255423066463"><ele>1571.0</ele><time>2026-04-25T14:09:58.999Z</time></trkpt><trkpt lat="46.08955347012628" lon="9.090285713942515"><ele>1571.0</ele><time>2026-04-25T14:10:00.999Z</time></trkpt><trkpt lat="46.08944905535784" lon="9.090224688867965"><ele>1571.0</ele><time>2026-04-25T14:10:02.999Z</time></trkpt><trkpt lat="46.08934669342886" lon="9.090190785653343"><ele>1571.0</ele><time>2026-04-25T14:10:04.999Z</time></trkpt><trkpt lat="46.08924573237749" lon="9.090175979991155"><ele>1571.0</ele><time>2026-04-25T14:10:06.999Z</time></trkpt><trkpt lat="46.089145989104544" lon="9.090200861451475"><ele>1571.0</ele><time>2026-04-25T14:10:08.999Z</time></trkpt><trkpt lat="46.089062603449555" lon="9.090228106102918"><ele>1569.4</ele><time>2026-04-25T14:10:10.999Z</time></trkpt><trkpt lat="46.08896471345072" lon="9.09022978393826"><ele>1567.8</ele><time>2026-04-25T14:10:12.999Z</time></trkpt><trkpt lat="46.08886719760076" lon="9.090244596866535"><ele>1566.2</ele><time>2026-04-25T14:10:14.999Z</time></trkpt><trkpt lat="46.08876220263301" lon="9.090258306873332"><ele>1564.6000000000001</ele><time>2026-04-25T14:10:17Z</time></trkpt><trkpt lat="46.088656465843094" lon="9.090280706486524"><ele>1563.0</ele><time>2026-04-25T14:10:19Z</time></trkpt><trkpt lat="46.08854241954905" lon="9.09028081806766"><ele>1563.0</ele><time>2026-04-25T14:10:21Z</time></trkpt><trkpt lat="46.08843356849213" lon="9.09029515463194"><ele>1563.0</ele><time>2026-04-25T14:10:23Z</time></trkpt><trkpt lat="46.088328898708674" lon="9.090301382176213"><ele>1563.0</ele><time>2026-04-25T14:10:25Z</time></trkpt><trkpt lat="46.08822513288138" lon="9.090276245341512"><ele>1563.0</ele><time>2026-04-25T14:10:27Z</time></trkpt><trkpt lat="46.088131751056046" lon="9.090253242619445"><ele>1563.0</ele><time>2026-04-25T14:10:29Z</time></trkpt><trkpt lat="46.088042637997056" lon="9.090233467391553"><ele>1561.0</ele><time>2026-04-25T14:10:31Z</time></trkpt><trkpt lat="46.087945570325324" lon="9.0902173073062"><ele>1559.0</ele><time>2026-04-25T14:10:33Z</time></trkpt><trkpt lat="46.08784268896827" lon="9.09022417094048"><ele>1557.0</ele><time>2026-04-25T14:10:35Z</time></trkpt><trkpt lat="46.087742709012026" lon="9.090256947504498"><ele>1555.0</ele><time>2026-04-25T14:10:37Z</time></trkpt><trkpt lat="46.087638708896385" lon="9.090239611396182"><ele>1553.0</ele><time>2026-04-25T14:10:39Z</time></trkpt><trkpt lat="46.0875877775084" lon="9.09012933099011"><ele>1552.9999999999998</ele><time>2026-04-25T14:10:41Z</time></trkpt><trkpt lat="46.087565173800506" lon="9.090016519008717"><ele>1553.0</ele><time>2026-04-25T14:10:43Z</time></trkpt><trkpt lat="46.08751103077207" lon="9.089940491388326"><ele>1553.0</ele><time>2026-04-25T14:10:45Z</time></trkpt><trkpt lat="46.08744142112426" lon="9.089907766767356"><ele>1553.0</ele><time>2026-04-25T14:10:47Z</time></trkpt><trkpt lat="46.08736166081246" lon="9.089899050800408"><ele>1552.9999999999998</ele><time>2026-04-25T14:10:49Z</time></trkpt><trkpt lat="46.08727787525514" lon="9.089952550709224"><ele>1553.0</ele><time>2026-04-25T14:10:51Z</time></trkpt><trkpt lat="46.08720071091054" lon="9.089956886085107"><ele>1551.2857142857142</ele><time>2026-04-25T14:10:53Z</time></trkpt><trkpt lat="46.08712493797235" lon="9.089977678768811"><ele>1549.5714285714284</ele><time>2026-04-25T14:10:55Z</time></trkpt><trkpt lat="46.08704005294664" lon="9.089973763572708"><ele>1547.857142857143</ele><time>2026-04-25T14:10:57Z</time></trkpt><trkpt lat="46.086966842287524" lon="9.08994061515516"><ele>1546.142857142857</ele><time>2026-04-25T14:10:59Z</time></trkpt><trkpt lat="46.086905258183066" lon="9.089911060177279"><ele>1544.4285714285716</ele><time>2026-04-25T14:11:01Z</time></trkpt><trkpt lat="46.086843447244014" lon="9.089867763564298"><ele>1542.7142857142858</ele><time>2026-04-25T14:11:05.001Z</time></trkpt><trkpt lat="46.08677517711147" lon="9.089833395608993"><ele>1541.0</ele><time>2026-04-25T14:11:13.001Z</time></trkpt><trkpt lat="46.08670089498766" lon="9.089802276027422"><ele>1540.3333333333333</ele><time>2026-04-25T14:11:16.001Z</time></trkpt><trkpt lat="46.086729738656985" lon="9.08963108493799"><ele>1539.6666666666665</ele><time>2026-04-25T14:11:21.001Z</time></trkpt><trkpt lat="46.08673272666707" lon="9.089728438860519"><ele>1539.0</ele><time>2026-04-25T14:28:37.999Z</time></trkpt><trkpt lat="46.08666452122245" lon="9.089788567011826"><ele>1538.3333333333335</ele><time>2026-04-25T14:28:41.999Z</time></trkpt><trkpt lat="46.08658485322653" lon="9.089773584807054"><ele>1537.6666666666667</ele><time>2026-04-25T14:28:44.999Z</time></trkpt><trkpt lat="46.086508256682336" lon="9.08975938533267"><ele>1537.0</ele><time>2026-04-25T14:28:47.999Z</time></trkpt><trkpt lat="46.086390772536134" lon="9.089700412414196"><ele>1536.8333333333335</ele><time>2026-04-25T14:28:50.999Z</time></trkpt><trkpt lat="46.08631937600925" lon="9.089660009290322"><ele>1536.6666666666667</ele><time>2026-04-25T14:28:52.999Z</time></trkpt><trkpt lat="46.08624777173185" lon="9.089671236399816"><ele>1536.5</ele><time>2026-04-25T14:28:55.999Z</time></trkpt><trkpt lat="46.086198772490135" lon="9.089779058637971"><ele>1536.3333333333335</ele><time>2026-04-25T14:28:58.999Z</time></trkpt><trkpt lat="46.08615554848102" lon="9.089893971237094"><ele>1536.1666666666667</ele><time>2026-04-25T14:29:01.999Z</time></trkpt><trkpt lat="46.08609708596263" lon="9.089939534577544"><ele>1536.0</ele><time>2026-04-25T14:29:03.999Z</time></trkpt><trkpt lat="46.08601428278143" lon="9.089942079500002"><ele>1536.0</ele><time>2026-04-25T14:29:05.999Z</time></trkpt><trkpt lat="46.08593601588022" lon="9.089925542805391"><ele>1536.0</ele><time>2026-04-25T14:29:07.999Z</time></trkpt><trkpt lat="46.08586789343341" lon="9.089913170108366"><ele>1536.0</ele><time>2026-04-25T14:29:09.999Z</time></trkpt><trkpt lat="46.08579245966962" lon="9.089955641705814"><ele>1536.0</ele><time>2026-04-25T14:29:11.999Z</time></trkpt><trkpt lat="46.085719955577304" lon="9.090033558770527"><ele>1536.0</ele><time>2026-04-25T14:29:13.999Z</time></trkpt><trkpt lat="46.08564655634349" lon="9.090104254257003"><ele>1536.0</ele><time>2026-04-25T14:29:15.999Z</time></trkpt><trkpt lat="46.08558489651691" lon="9.090160672239826"><ele>1536.5</ele><time>2026-04-25T14:29:17.999Z</time></trkpt><trkpt lat="46.085537425163686" lon="9.090222339641414"><ele>1537.0</ele><time>2026-04-25T14:29:19.999Z</time></trkpt><trkpt lat="46.0854945719864" lon="9.09029698713571"><ele>1537.5</ele><time>2026-04-25T14:29:21.999Z</time></trkpt><trkpt lat="46.08543443189795" lon="9.090385058316153"><ele>1538.0</ele><time>2026-04-25T14:29:23.999Z</time></trkpt><trkpt lat="46.08538128568676" lon="9.090450129150662"><ele>1538.5</ele><time>2026-04-25T14:29:25.999Z</time></trkpt><trkpt lat="46.08532904054613" lon="9.090536804374528"><ele>1539.0</ele><time>2026-04-25T14:29:27.999Z</time></trkpt><trkpt lat="46.08528613275091" lon="9.090642202919945"><ele>1539.0</ele><time>2026-04-25T14:29:29.999Z</time></trkpt><trkpt lat="46.08523017043461" lon="9.090752325510481"><ele>1539.0</ele><time>2026-04-25T14:29:31.999Z</time></trkpt><trkpt lat="46.085176513478736" lon="9.090857642457378"><ele>1539.0</ele><time>2026-04-25T14:29:33.999Z</time></trkpt><trkpt lat="46.0851198965692" lon="9.090934622738088"><ele>1539.0</ele><time>2026-04-25T14:29:35.999Z</time></trkpt><trkpt lat="46.085054709814585" lon="9.090990828834578"><ele>1539.0</ele><time>2026-04-25T14:29:37.999Z</time></trkpt><trkpt lat="46.08497914836905" lon="9.091016261028292"><ele>1539.0</ele><time>2026-04-25T14:29:39.999Z</time></trkpt><trkpt lat="46.0848999326242" lon="9.090975755262937"><ele>1535.2</ele><time>2026-04-25T14:29:41.999Z</time></trkpt><trkpt lat="46.08481032556904" lon="9.090926910554996"><ele>1531.4</ele><time>2026-04-25T14:29:43.999Z</time></trkpt><trkpt lat="46.084749877655916" lon="9.090849577251062"><ele>1527.6</ele><time>2026-04-25T14:29:45.999Z</time></trkpt><trkpt lat="46.084673181378704" lon="9.090779056931463"><ele>1523.8</ele><time>2026-04-25T14:29:47.999Z</time></trkpt><trkpt lat="46.08456459803225" lon="9.09071462335847"><ele>1520.0</ele><time>2026-04-25T14:29:49.999Z</time></trkpt><trkpt lat="46.084489137369786" lon="9.090622463140779"><ele>1520.0</ele><time>2026-04-25T14:29:51.999Z</time></trkpt><trkpt lat="46.08438718419273" lon="9.090601535922424"><ele>1520.0</ele><time>2026-04-25T14:29:53.999Z</time></trkpt><trkpt lat="46.08429453624849" lon="9.090502184810031"><ele>1520.0</ele><time>2026-04-25T14:29:55.999Z</time></trkpt><trkpt lat="46.08419116001955" lon="9.090447044187163"><ele>1520.0</ele><time>2026-04-25T14:29:57.999Z</time></trkpt><trkpt lat="46.0841164762512" lon="9.090425986954306"><ele>1520.0</ele><time>2026-04-25T14:29:59.999Z</time></trkpt><trkpt lat="46.084054863290305" lon="9.090405900545077"><ele>1511.25</ele><time>2026-04-25T14:30:00.999Z</time></trkpt><trkpt lat="46.083945516931294" lon="9.090302544496527"><ele>1502.5</ele><time>2026-04-25T14:30:03.999Z</time></trkpt><trkpt lat="46.083860957622804" lon="9.090227612293987"><ele>1493.75</ele><time>2026-04-25T14:30:05.999Z</time></trkpt><trkpt lat="46.083777921013535" lon="9.090140064856762"><ele>1485.0</ele><time>2026-04-25T14:30:07.999Z</time></trkpt><trkpt lat="46.08369276225893" lon="9.090020293048394"><ele>1487.8</ele><time>2026-04-25T14:30:09.999Z</time></trkpt><trkpt lat="46.08364382557282" lon="9.089886799257439"><ele>1490.6</ele><time>2026-04-25T14:30:11.999Z</time></trkpt><trkpt lat="46.083580066868564" lon="9.089788643672804"><ele>1493.4</ele><time>2026-04-25T14:30:13.999Z</time></trkpt><trkpt lat="46.083482117947895" lon="9.08967766595039"><ele>1496.2</ele><time>2026-04-25T14:30:15.999Z</time></trkpt><trkpt lat="46.0834244262011" lon="9.089636641124168"><ele>1499.0</ele><time>2026-04-25T14:30:16.999Z</time></trkpt><trkpt lat="46.083334620780256" lon="9.089518874685268"><ele>1496.8000000000002</ele><time>2026-04-25T14:30:18.999Z</time></trkpt><trkpt lat="46.08325166793931" lon="9.0894124879008"><ele>1494.6000000000001</ele><time>2026-04-25T14:30:20.999Z</time></trkpt><trkpt lat="46.08317261699527" lon="9.089297795539474"><ele>1492.4</ele><time>2026-04-25T14:30:22.999Z</time></trkpt><trkpt lat="46.08307581874873" lon="9.089215925894974"><ele>1490.2</ele><time>2026-04-25T14:30:24.999Z</time></trkpt><trkpt lat="46.08299763583899" lon="9.089153635750508"><ele>1488.0</ele><time>2026-04-25T14:30:26.999Z</time></trkpt><trkpt lat="46.082904095820496" lon="9.089071959952024"><ele>1488.0</ele><time>2026-04-25T14:30:28.999Z</time></trkpt><trkpt lat="46.082807711320015" lon="9.088982348947447"><ele>1488.0</ele><time>2026-04-25T14:30:30.999Z</time></trkpt><trkpt lat="46.08271449266685" lon="9.088906857102765"><ele>1488.0</ele><time>2026-04-25T14:30:32.999Z</time></trkpt><trkpt lat="46.08263632013852" lon="9.088836844681133"><ele>1488.0</ele><time>2026-04-25T14:30:34.999Z</time></trkpt><trkpt lat="46.08254102503278" lon="9.08870485305337"><ele>1488.0</ele><time>2026-04-25T14:30:36.999Z</time></trkpt><trkpt lat="46.0824405539615" lon="9.088614988614184"><ele>1482.0</ele><time>2026-04-25T14:30:38.999Z</time></trkpt><trkpt lat="46.082345026970046" lon="9.088528472332102"><ele>1476.0</ele><time>2026-04-25T14:30:40.999Z</time></trkpt><trkpt lat="46.08223283143507" lon="9.088436340953644"><ele>1470.0</ele><time>2026-04-25T14:30:42.999Z</time></trkpt><trkpt lat="46.08213908508215" lon="9.088338608087021"><ele>1464.0</ele><time>2026-04-25T14:30:44.999Z</time></trkpt><trkpt lat="46.08204155337464" lon="9.088260852794276"><ele>1464.0</ele><time>2026-04-25T14:30:46.999Z</time></trkpt><trkpt lat="46.08197007335231" lon="9.088193023439262"><ele>1464.0</ele><time>2026-04-25T14:30:48.999Z</time></trkpt><trkpt lat="46.08188982024282" lon="9.088160891679655"><ele>1464.0</ele><time>2026-04-25T14:30:50.999Z</time></trkpt><trkpt lat="46.08183372047151" lon="9.088238832897195"><ele>1464.0</ele><time>2026-04-25T14:30:53.999Z</time></trkpt><trkpt lat="46.08186523204617" lon="9.088343328588447"><ele>1464.0</ele><time>2026-04-25T14:35:53Z</time></trkpt><trkpt lat="46.08195636055298" lon="9.088474084396404"><ele>1464.0</ele><time>2026-04-25T14:35:55Z</time></trkpt><trkpt lat="46.082044548823326" lon="9.088586859866568"><ele>1464.0</ele><time>2026-04-25T14:35:57Z</time></trkpt><trkpt lat="46.0820989098864" lon="9.088658549149152"><ele>1464.0</ele><time>2026-04-25T14:35:59Z</time></trkpt><trkpt lat="46.08218567003072" lon="9.08874806141527"><ele>1464.0</ele><time>2026-04-25T14:36:01Z</time></trkpt><trkpt lat="46.08224365891361" lon="9.088878864243018"><ele>1464.0</ele><time>2026-04-25T14:36:03.001Z</time></trkpt><trkpt lat="46.08229094408906" lon="9.08901062531312"><ele>1465.1666666666667</ele><time>2026-04-25T14:36:05.001Z</time></trkpt><trkpt lat="46.08234864426199" lon="9.08912273995206"><ele>1466.3333333333333</ele><time>2026-04-25T14:36:07.001Z</time></trkpt><trkpt lat="46.08239816091149" lon="9.089222402586698"><ele>1467.5</ele><time>2026-04-25T14:36:09.001Z</time></trkpt><trkpt lat="46.08246813391441" lon="9.08934210701385"><ele>1468.6666666666665</ele><time>2026-04-25T14:36:11.001Z</time></trkpt><trkpt lat="46.082508717755516" lon="9.08943278979814"><ele>1469.8333333333333</ele><time>2026-04-25T14:36:12.001Z</time></trkpt><trkpt lat="46.082554699528195" lon="9.089514110843599"><ele>1471.0</ele><time>2026-04-25T14:36:13.001Z</time></trkpt><trkpt lat="46.082621327933545" lon="9.089611316273649"><ele>1471.0</ele><time>2026-04-25T14:36:15.001Z</time></trkpt><trkpt lat="46.082704085321424" lon="9.08969246712355"><ele>1471.0</ele><time>2026-04-25T14:36:17.001Z</time></trkpt><trkpt lat="46.082772493614414" lon="9.089858052969314"><ele>1471.0</ele><time>2026-04-25T14:36:20.001Z</time></trkpt><trkpt lat="46.082821448930474" lon="9.089975136012594"><ele>1471.0</ele><time>2026-04-25T14:36:22.001Z</time></trkpt><trkpt lat="46.08284635415789" lon="9.09013893981906"><ele>1471.0</ele><time>2026-04-25T14:36:24.001Z</time></trkpt><trkpt lat="46.082884742629396" lon="9.09029598218173"><ele>1467.0</ele><time>2026-04-25T14:36:26.001Z</time></trkpt><trkpt lat="46.08287912113762" lon="9.09043153322763"><ele>1463.0</ele><time>2026-04-25T14:36:28.001Z</time></trkpt><trkpt lat="46.08289824218842" lon="9.090551922930874"><ele>1459.0</ele><time>2026-04-25T14:36:30.001Z</time></trkpt><trkpt lat="46.08287368149746" lon="9.090715067291367"><ele>1455.0</ele><time>2026-04-25T14:36:32.001Z</time></trkpt><trkpt lat="46.08282954289336" lon="9.090896556225017"><ele>1451.0</ele><time>2026-04-25T14:36:34.001Z</time></trkpt><trkpt lat="46.08280998712428" lon="9.09104871588771"><ele>1448.5</ele><time>2026-04-25T14:36:36.001Z</time></trkpt><trkpt lat="46.08277675885606" lon="9.091228054355582"><ele>1446.0</ele><time>2026-04-25T14:36:38.001Z</time></trkpt><trkpt lat="46.082766511243314" lon="9.091324438167591"><ele>1443.5</ele><time>2026-04-25T14:36:39.001Z</time></trkpt><trkpt lat="46.082761499061654" lon="9.091430099995758"><ele>1441.0</ele><time>2026-04-25T14:36:40.001Z</time></trkpt><trkpt lat="46.08275259773196" lon="9.091528516294288"><ele>1438.5</ele><time>2026-04-25T14:36:41.001Z</time></trkpt><trkpt lat="46.082751086452674" lon="9.091647570746666"><ele>1436.0</ele><time>2026-04-25T14:36:42.001Z</time></trkpt><trkpt lat="46.082740198500375" lon="9.09175491415493"><ele>1434.6666666666667</ele><time>2026-04-25T14:36:43.001Z</time></trkpt><trkpt lat="46.08272835591038" lon="9.091844807341705"><ele>1433.3333333333335</ele><time>2026-04-25T14:36:44.001Z</time></trkpt><trkpt lat="46.0827140795482" lon="9.091933308999563"><ele>1432.0</ele><time>2026-04-25T14:36:45.001Z</time></trkpt><trkpt lat="46.082684149787816" lon="9.092104788079642"><ele>1430.6666666666667</ele><time>2026-04-25T14:36:47.001Z</time></trkpt><trkpt lat="46.08267310632095" lon="9.092200180286815"><ele>1429.3333333333333</ele><time>2026-04-25T14:36:48.001Z</time></trkpt><trkpt lat="46.0826655478941" lon="9.092308227603269"><ele>1428.0</ele><time>2026-04-25T14:36:49.001Z</time></trkpt><trkpt lat="46.082670248361886" lon="9.092416273179802"><ele>1427.1666666666667</ele><time>2026-04-25T14:36:50.001Z</time></trkpt><trkpt lat="46.082685184200784" lon="9.092513594100152"><ele>1426.3333333333333</ele><time>2026-04-25T14:36:51.001Z</time></trkpt><trkpt lat="46.08269779887095" lon="9.092610388642548"><ele>1425.5</ele><time>2026-04-25T14:36:52.001Z</time></trkpt><trkpt lat="46.082712528873834" lon="9.092699790859461"><ele>1424.6666666666665</ele><time>2026-04-25T14:36:53.001Z</time></trkpt><trkpt lat="46.082754189203555" lon="9.092842593903915"><ele>1423.8333333333333</ele><time>2026-04-25T14:36:55.001Z</time></trkpt><trkpt lat="46.08276388351096" lon="9.093025947949597"><ele>1423.0</ele><time>2026-04-25T14:36:57.001Z</time></trkpt><trkpt lat="46.08276987544652" lon="9.093121807080806"><ele>1423.0</ele><time>2026-04-25T14:36:58.001Z</time></trkpt><trkpt lat="46.082779796750614" lon="9.093234191768165"><ele>1423.0</ele><time>2026-04-25T14:36:59.001Z</time></trkpt><trkpt lat="46.082805122043794" lon="9.093343725481175"><ele>1423.0</ele><time>2026-04-25T14:37:00.001Z</time></trkpt><trkpt lat="46.08281381907891" lon="9.093463423833722"><ele>1423.0</ele><time>2026-04-25T14:37:01.001Z</time></trkpt><trkpt lat="46.082839676987774" lon="9.093571119308551"><ele>1423.0</ele><time>2026-04-25T14:37:02.001Z</time></trkpt><trkpt lat="46.08286090753538" lon="9.093673761699671"><ele>1423.0</ele><time>2026-04-25T14:37:03.001Z</time></trkpt><trkpt lat="46.08287361127229" lon="9.093774160793602"><ele>1421.5</ele><time>2026-04-25T14:37:04.001Z</time></trkpt><trkpt lat="46.082903738714805" lon="9.093928742161847"><ele>1420.0</ele><time>2026-04-25T14:37:06.001Z</time></trkpt><trkpt lat="46.08291228196442" lon="9.094087682006972"><ele>1418.5</ele><time>2026-04-25T14:37:08.001Z</time></trkpt><trkpt lat="46.082912213011966" lon="9.09418409458422"><ele>1417.0</ele><time>2026-04-25T14:37:09.001Z</time></trkpt><trkpt lat="46.0828972599093" lon="9.094281568660751"><ele>1415.5</ele><time>2026-04-25T14:37:10.001Z</time></trkpt><trkpt lat="46.08288094654296" lon="9.094379866718604"><ele>1414.0</ele><time>2026-04-25T14:37:11.001Z</time></trkpt><trkpt lat="46.082861102215794" lon="9.094482380356812"><ele>1413.2857142857142</ele><time>2026-04-25T14:37:12.001Z</time></trkpt><trkpt lat="46.08283658448718" lon="9.094579407614253"><ele>1412.5714285714284</ele><time>2026-04-25T14:37:13Z</time></trkpt><trkpt lat="46.082791657444616" lon="9.094670831461041"><ele>1411.857142857143</ele><time>2026-04-25T14:37:14Z</time></trkpt><trkpt lat="46.08276009540417" lon="9.094762967108407"><ele>1411.142857142857</ele><time>2026-04-25T14:37:15Z</time></trkpt><trkpt lat="46.0827353920135" lon="9.094857756223337"><ele>1410.4285714285713</ele><time>2026-04-25T14:37:16Z</time></trkpt><trkpt lat="46.082689669901775" lon="9.094938663752535"><ele>1409.7142857142858</ele><time>2026-04-25T14:37:17Z</time></trkpt><trkpt lat="46.082641780656026" lon="9.095017104956563"><ele>1409.0</ele><time>2026-04-25T14:37:18Z</time></trkpt><trkpt lat="46.08259737000447" lon="9.09509369495018"><ele>1408.0</ele><time>2026-04-25T14:37:19Z</time></trkpt><trkpt lat="46.08252078566924" lon="9.095244902099997"><ele>1407.0</ele><time>2026-04-25T14:37:21Z</time></trkpt><trkpt lat="46.082470382202786" lon="9.095308067921088"><ele>1406.0</ele><time>2026-04-25T14:37:22Z</time></trkpt><trkpt lat="46.08239875342168" lon="9.095454677270187"><ele>1405.0</ele><time>2026-04-25T14:37:24Z</time></trkpt><trkpt lat="46.082328236219354" lon="9.095576662301612"><ele>1404.0</ele><time>2026-04-25T14:37:26Z</time></trkpt><trkpt lat="46.082293026578924" lon="9.095695630170994"><ele>1403.0</ele><time>2026-04-25T14:37:28Z</time></trkpt><trkpt lat="46.082303180810214" lon="9.095826049366186"><ele>1402.0</ele><time>2026-04-25T14:37:30Z</time></trkpt><trkpt lat="46.082355807842724" lon="9.095879798668674"><ele>1401.0</ele><time>2026-04-25T14:37:31Z</time></trkpt><trkpt lat="46.082470120586855" lon="9.095965523161198"><ele>1400.0</ele><time>2026-04-25T14:37:33Z</time></trkpt><trkpt lat="46.08259804720969" lon="9.096040090689023"><ele>1399.0</ele><time>2026-04-25T14:37:35Z</time></trkpt><trkpt lat="46.08271796658575" lon="9.096097078732118"><ele>1399.0</ele><time>2026-04-25T14:37:37Z</time></trkpt><trkpt lat="46.08278728221158" lon="9.096217419553952"><ele>1399.0</ele><time>2026-04-25T14:37:39Z</time></trkpt><trkpt lat="46.0828074438547" lon="9.096402999930351"><ele>1399.0</ele><time>2026-04-25T14:37:41Z</time></trkpt><trkpt lat="46.08280664220811" lon="9.096503752401771"><ele>1399.0</ele><time>2026-04-25T14:37:42Z</time></trkpt><trkpt lat="46.08280478506892" lon="9.096602331616639"><ele>1399.0</ele><time>2026-04-25T14:37:43Z</time></trkpt><trkpt lat="46.08280874008394" lon="9.096771585146556"><ele>1396.5</ele><time>2026-04-25T14:37:45Z</time></trkpt><trkpt lat="46.0828076391346" lon="9.096865404091902"><ele>1394.0</ele><time>2026-04-25T14:37:46Z</time></trkpt><trkpt lat="46.08278856049346" lon="9.097036006389647"><ele>1391.5</ele><time>2026-04-25T14:37:48Z</time></trkpt><trkpt lat="46.0827624741561" lon="9.097139820384253"><ele>1389.0</ele><time>2026-04-25T14:37:49Z</time></trkpt><trkpt lat="46.08273922256371" lon="9.097234639275248"><ele>1386.5</ele><time>2026-04-25T14:37:50Z</time></trkpt><trkpt lat="46.082716722787396" lon="9.097323787969481"><ele>1384.0</ele><time>2026-04-25T14:37:51Z</time></trkpt><trkpt lat="46.08268999649322" lon="9.097406221794824"><ele>1383.0</ele><time>2026-04-25T14:37:52Z</time></trkpt><trkpt lat="46.08261048295786" lon="9.097525383936663"><ele>1382.0</ele><time>2026-04-25T14:37:54Z</time></trkpt><trkpt lat="46.08253788918239" lon="9.097552069926092"><ele>1381.0</ele><time>2026-04-25T14:37:55Z</time></trkpt><trkpt lat="46.08246624654263" lon="9.097610775189048"><ele>1380.0</ele><time>2026-04-25T14:37:56Z</time></trkpt><trkpt lat="46.08241292912911" lon="9.097690081019511"><ele>1379.0</ele><time>2026-04-25T14:37:57Z</time></trkpt><trkpt lat="46.08235631385782" lon="9.097740662553935"><ele>1378.0</ele><time>2026-04-25T14:37:58Z</time></trkpt><trkpt lat="46.0822682898431" lon="9.097863664204802"><ele>1375.1666666666665</ele><time>2026-04-25T14:38:00Z</time></trkpt><trkpt lat="46.0822289235964" lon="9.097948854621224"><ele>1372.3333333333333</ele><time>2026-04-25T14:38:01Z</time></trkpt><trkpt lat="46.082174152618336" lon="9.09806619259523"><ele>1369.5</ele><time>2026-04-25T14:38:03Z</time></trkpt><trkpt lat="46.08213973090409" lon="9.09822043306188"><ele>1366.6666666666667</ele><time>2026-04-25T14:38:05Z</time></trkpt><trkpt lat="46.08212548756725" lon="9.098311917088232"><ele>1363.8333333333335</ele><time>2026-04-25T14:38:06Z</time></trkpt><trkpt lat="46.082088755117994" lon="9.098390879807063"><ele>1361.0</ele><time>2026-04-25T14:38:07Z</time></trkpt><trkpt lat="46.082014173486456" lon="9.098439492505227"><ele>1361.0</ele><time>2026-04-25T14:38:08Z</time></trkpt><trkpt lat="46.08196875718919" lon="9.098524190422959"><ele>1361.0</ele><time>2026-04-25T14:38:09Z</time></trkpt><trkpt lat="46.08188703485354" lon="9.098602720251751"><ele>1361.0</ele><time>2026-04-25T14:38:10Z</time></trkpt><trkpt lat="46.08184724038509" lon="9.098694746104261"><ele>1361.0</ele><time>2026-04-25T14:38:11Z</time></trkpt><trkpt lat="46.08178759526102" lon="9.09876307382322"><ele>1361.0</ele><time>2026-04-25T14:38:12Z</time></trkpt><trkpt lat="46.08173775725794" lon="9.098849191805133"><ele>1361.0</ele><time>2026-04-25T14:38:13Z</time></trkpt><trkpt lat="46.08168690571302" lon="9.098929758616675"><ele>1361.0</ele><time>2026-04-25T14:38:14Z</time></trkpt><trkpt lat="46.08163762830463" lon="9.09900713806938"><ele>1361.0</ele><time>2026-04-25T14:38:15Z</time></trkpt><trkpt lat="46.081590787009205" lon="9.099084504246765"><ele>1361.0</ele><time>2026-04-25T14:38:16Z</time></trkpt><trkpt lat="46.081513325553836" lon="9.09921762194309"><ele>1361.0</ele><time>2026-04-25T14:38:18Z</time></trkpt><trkpt lat="46.081462464905144" lon="9.099289157881662"><ele>1361.0</ele><time>2026-04-25T14:38:19Z</time></trkpt><trkpt lat="46.08141112421219" lon="9.099353792639358"><ele>1361.0</ele><time>2026-04-25T14:38:20Z</time></trkpt><trkpt lat="46.08135568516854" lon="9.099431752294718"><ele>1358.1666666666667</ele><time>2026-04-25T14:38:21Z</time></trkpt><trkpt lat="46.08130386806808" lon="9.099506514549724"><ele>1355.3333333333335</ele><time>2026-04-25T14:38:22Z</time></trkpt><trkpt lat="46.08126101752517" lon="9.099579233030934"><ele>1352.5</ele><time>2026-04-25T14:38:23Z</time></trkpt><trkpt lat="46.08121711626293" lon="9.09965055679584"><ele>1349.6666666666667</ele><time>2026-04-25T14:38:24Z</time></trkpt><trkpt lat="46.08115553049613" lon="9.099796342868693"><ele>1346.8333333333333</ele><time>2026-04-25T14:38:26Z</time></trkpt><trkpt lat="46.08111227185372" lon="9.099947673088217"><ele>1344.0</ele><time>2026-04-25T14:38:28Z</time></trkpt><trkpt lat="46.081062194843874" lon="9.100099128229292"><ele>1344.0</ele><time>2026-04-25T14:38:30Z</time></trkpt><trkpt lat="46.08100746718721" lon="9.100286328335612"><ele>1344.0</ele><time>2026-04-25T14:38:32Z</time></trkpt><trkpt lat="46.08097929791946" lon="9.100396480080425"><ele>1344.0</ele><time>2026-04-25T14:38:33Z</time></trkpt><trkpt lat="46.080957249965884" lon="9.100514800305271"><ele>1344.0</ele><time>2026-04-25T14:38:34Z</time></trkpt><trkpt lat="46.080941279629215" lon="9.100635258074764"><ele>1344.0</ele><time>2026-04-25T14:38:35Z</time></trkpt><trkpt lat="46.080944050836955" lon="9.100770237916835"><ele>1344.0</ele><time>2026-04-25T14:38:36Z</time></trkpt><trkpt lat="46.08093662840224" lon="9.100906782211322"><ele>1344.0</ele><time>2026-04-25T14:38:37Z</time></trkpt><trkpt lat="46.08093397371785" lon="9.101041823309247"><ele>1344.0</ele><time>2026-04-25T14:38:38Z</time></trkpt><trkpt lat="46.08094358379547" lon="9.101177253658427"><ele>1344.0</ele><time>2026-04-25T14:38:39Z</time></trkpt><trkpt lat="46.08095817389733" lon="9.101272952629376"><ele>1344.0</ele><time>2026-04-25T14:38:40Z</time></trkpt><trkpt lat="46.08094857244163" lon="9.101413645487352"><ele>1344.0</ele><time>2026-04-25T14:38:42Z</time></trkpt><trkpt lat="46.08091801049081" lon="9.10159726178622"><ele>1343.1666666666667</ele><time>2026-04-25T14:38:44Z</time></trkpt><trkpt lat="46.08089076042337" lon="9.101716673501103"><ele>1342.3333333333333</ele><time>2026-04-25T14:38:45Z</time></trkpt><trkpt lat="46.08085899912098" lon="9.101833690535276"><ele>1341.5</ele><time>2026-04-25T14:38:46Z</time></trkpt><trkpt lat="46.080817441560285" lon="9.10192105536143"><ele>1340.6666666666665</ele><time>2026-04-25T14:38:47Z</time></trkpt><trkpt lat="46.08076365851125" lon="9.101972451221547"><ele>1339.8333333333333</ele><time>2026-04-25T14:38:48Z</time></trkpt><trkpt lat="46.08068577204968" lon="9.102094293196794"><ele>1339.0</ele><time>2026-04-25T14:38:50Z</time></trkpt><trkpt lat="46.0806147233804" lon="9.102232487411497"><ele>1333.6666666666665</ele><time>2026-04-25T14:38:52Z</time></trkpt><trkpt lat="46.08058756470127" lon="9.102329249541944"><ele>1328.3333333333333</ele><time>2026-04-25T14:38:53Z</time></trkpt><trkpt lat="46.080589737563194" lon="9.102441699028878"><ele>1323.0</ele><time>2026-04-25T14:38:54Z</time></trkpt><trkpt lat="46.08059206661291" lon="9.10253961385874"><ele>1317.6666666666667</ele><time>2026-04-25T14:38:55Z</time></trkpt><trkpt lat="46.08057150158104" lon="9.102649709243655"><ele>1312.3333333333335</ele><time>2026-04-25T14:38:56Z</time></trkpt><trkpt lat="46.08058263128055" lon="9.10277030353154"><ele>1307.0</ele><time>2026-04-25T14:38:57Z</time></trkpt><trkpt lat="46.0805912699304" lon="9.10288438822111"><ele>1307.0</ele><time>2026-04-25T14:38:58Z</time></trkpt><trkpt lat="46.080581835233026" lon="9.102977022455585"><ele>1307.0</ele><time>2026-04-25T14:38:59Z</time></trkpt><trkpt lat="46.08056412647174" lon="9.103070134929318"><ele>1307.0</ele><time>2026-04-25T14:39:00Z</time></trkpt><trkpt lat="46.08054431099472" lon="9.103235544721095"><ele>1307.0</ele><time>2026-04-25T14:39:02Z</time></trkpt><trkpt lat="46.08053989955464" lon="9.103335029217645"><ele>1307.0</ele><time>2026-04-25T14:39:03Z</time></trkpt><trkpt lat="46.080524532368486" lon="9.103434778926092"><ele>1307.0</ele><time>2026-04-25T14:39:04Z</time></trkpt><trkpt lat="46.08049863395742" lon="9.103551749462701"><ele>1306.3333333333335</ele><time>2026-04-25T14:39:05Z</time></trkpt><trkpt lat="46.080487851832956" lon="9.103673270997689"><ele>1305.6666666666667</ele><time>2026-04-25T14:39:06Z</time></trkpt><trkpt lat="46.080470929076405" lon="9.103779944417875"><ele>1305.0</ele><time>2026-04-25T14:39:07Z</time></trkpt><trkpt lat="46.08044376563641" lon="9.103868435478995"><ele>1304.3333333333333</ele><time>2026-04-25T14:39:08Z</time></trkpt><trkpt lat="46.08040681402197" lon="9.10395827229089"><ele>1303.6666666666665</ele><time>2026-04-25T14:39:09Z</time></trkpt><trkpt lat="46.08036935470706" lon="9.104052604310263"><ele>1303.0</ele><time>2026-04-25T14:39:10Z</time></trkpt><trkpt lat="46.080305673140764" lon="9.104213966414825"><ele>1302.6666666666665</ele><time>2026-04-25T14:39:12.001Z</time></trkpt><trkpt lat="46.08027571357337" lon="9.10435813849493"><ele>1302.3333333333333</ele><time>2026-04-25T14:39:14.001Z</time></trkpt><trkpt lat="46.08028714320608" lon="9.104530648537837"><ele>1302.0</ele><time>2026-04-25T14:39:16.001Z</time></trkpt><trkpt lat="46.08030055259804" lon="9.104634978758453"><ele>1301.6666666666667</ele><time>2026-04-25T14:39:17.001Z</time></trkpt><trkpt lat="46.080316905662" lon="9.104732769669994"><ele>1301.3333333333335</ele><time>2026-04-25T14:39:18.001Z</time></trkpt><trkpt lat="46.080328244663455" lon="9.104832466469219"><ele>1301.0</ele><time>2026-04-25T14:39:19Z</time></trkpt><trkpt lat="46.08027546145655" lon="9.104996293254777"><ele>1301.0</ele><time>2026-04-25T14:39:21Z</time></trkpt><trkpt lat="46.080255283764004" lon="9.10508620551483"><ele>1301.0</ele><time>2026-04-25T14:39:22Z</time></trkpt><trkpt lat="46.08023558828394" lon="9.105178709946316"><ele>1301.0</ele><time>2026-04-25T14:39:23Z</time></trkpt><trkpt lat="46.080207250452844" lon="9.105352721476466"><ele>1301.0</ele><time>2026-04-25T14:39:25Z</time></trkpt><trkpt lat="46.08019070965214" lon="9.105475621106677"><ele>1301.0</ele><time>2026-04-25T14:39:27Z</time></trkpt><trkpt lat="46.08014130387984" lon="9.105388295990025"><ele>1301.0</ele><time>2026-04-25T14:39:33Z</time></trkpt><trkpt lat="46.08015414152411" lon="9.105275911574758"><ele>1301.0</ele><time>2026-04-25T14:39:35Z</time></trkpt><trkpt lat="46.08015944032107" lon="9.105143184405826"><ele>1301.0</ele><time>2026-04-25T14:39:37Z</time></trkpt><trkpt lat="46.080158741662274" lon="9.104968322020307"><ele>1301.0</ele><time>2026-04-25T14:39:39Z</time></trkpt><trkpt lat="46.08015780538601" lon="9.104861882223206"><ele>1301.0</ele><time>2026-04-25T14:39:40Z</time></trkpt><trkpt lat="46.08015435715377" lon="9.104767476371967"><ele>1301.0</ele><time>2026-04-25T14:39:41Z</time></trkpt><trkpt lat="46.08014889141646" lon="9.104580157480035"><ele>1301.3333333333335</ele><time>2026-04-25T14:39:43Z</time></trkpt><trkpt lat="46.08012930014269" lon="9.104488025152952"><ele>1301.6666666666667</ele><time>2026-04-25T14:39:44Z</time></trkpt><trkpt lat="46.080096160320025" lon="9.104395102643243"><ele>1302.0</ele><time>2026-04-25T14:39:45Z</time></trkpt><trkpt lat="46.08005163433006" lon="9.104261192546355"><ele>1302.3333333333333</ele><time>2026-04-25T14:39:47Z</time></trkpt><trkpt lat="46.08002906791229" lon="9.104154429445325"><ele>1302.6666666666665</ele><time>2026-04-25T14:39:49Z</time></trkpt><trkpt lat="46.08005027070909" lon="9.104030937080305"><ele>1303.0</ele><time>2026-04-25T14:39:51Z</time></trkpt><trkpt lat="46.080073518654224" lon="9.10393646576531"><ele>1303.0</ele><time>2026-04-25T14:39:53Z</time></trkpt><trkpt lat="46.0800698696983" lon="9.103823465558879"><ele>1303.0</ele><time>2026-04-25T14:39:55Z</time></trkpt><trkpt lat="46.080014704222535" lon="9.103663240724597"><ele>1303.0</ele><time>2026-04-25T14:39:57Z</time></trkpt><trkpt lat="46.079991928328056" lon="9.10357732021836"><ele>1303.0</ele><time>2026-04-25T14:39:58Z</time></trkpt><trkpt lat="46.079978060073294" lon="9.103453143268148"><ele>1303.0</ele><time>2026-04-25T14:40:00Z</time></trkpt><trkpt lat="46.079987099665324" lon="9.103353645574312"><ele>1303.0</ele><time>2026-04-25T14:40:02Z</time></trkpt><trkpt lat="46.079964583812306" lon="9.103261465494692"><ele>1294.2</ele><time>2026-04-25T14:40:04Z</time></trkpt><trkpt lat="46.07987369295228" lon="9.103354916500857"><ele>1285.4</ele><time>2026-04-25T14:40:07Z</time></trkpt><trkpt lat="46.079872688552804" lon="9.103516478886869"><ele>1276.6000000000001</ele><time>2026-04-25T14:40:08Z</time></trkpt><trkpt lat="46.07982727833653" lon="9.103626859744036"><ele>1267.8000000000002</ele><time>2026-04-25T14:40:09Z</time></trkpt><trkpt lat="46.079797360287756" lon="9.103721056873693"><ele>1259.0</ele><time>2026-04-25T14:40:10Z</time></trkpt><trkpt lat="46.079764427633414" lon="9.103812988219"><ele>1259.0</ele><time>2026-04-25T14:40:11Z</time></trkpt><trkpt lat="46.07973450701769" lon="9.103899444349222"><ele>1259.0</ele><time>2026-04-25T14:40:12Z</time></trkpt><trkpt lat="46.079706030792735" lon="9.104087313182687"><ele>1259.0</ele><time>2026-04-25T14:40:14Z</time></trkpt><trkpt lat="46.07974682204375" lon="9.104217032937045"><ele>1259.0</ele><time>2026-04-25T14:40:15Z</time></trkpt><trkpt lat="46.07973968085528" lon="9.104337328968013"><ele>1259.0</ele><time>2026-04-25T14:40:16Z</time></trkpt><trkpt lat="46.07974005961585" lon="9.104464660002337"><ele>1259.3333333333335</ele><time>2026-04-25T14:40:17Z</time></trkpt><trkpt lat="46.07970506544177" lon="9.104556140383348"><ele>1259.6666666666667</ele><time>2026-04-25T14:40:18Z</time></trkpt><trkpt lat="46.079664711276145" lon="9.104645866551449"><ele>1260.0</ele><time>2026-04-25T14:40:19Z</time></trkpt><trkpt lat="46.07961392612806" lon="9.10475156672555"><ele>1260.3333333333333</ele><time>2026-04-25T14:40:20Z</time></trkpt><trkpt lat="46.07956994608785" lon="9.10486728771305"><ele>1260.6666666666665</ele><time>2026-04-25T14:40:21Z</time></trkpt><trkpt lat="46.07951038417222" lon="9.104961443927344"><ele>1261.0</ele><time>2026-04-25T14:40:22Z</time></trkpt><trkpt lat="46.079450040806286" lon="9.105056798524512"><ele>1261.1666666666665</ele><time>2026-04-25T14:40:23Z</time></trkpt><trkpt lat="46.079385506367544" lon="9.105142248985421"><ele>1261.3333333333333</ele><time>2026-04-25T14:40:24Z</time></trkpt><trkpt lat="46.07934162848368" lon="9.105215331902786"><ele>1261.5</ele><time>2026-04-25T14:40:25Z</time></trkpt><trkpt lat="46.07930604130289" lon="9.105310587828683"><ele>1261.6666666666667</ele><time>2026-04-25T14:40:26Z</time></trkpt><trkpt lat="46.07929339093279" lon="9.10544040277191"><ele>1261.8333333333335</ele><time>2026-04-25T14:40:27Z</time></trkpt><trkpt lat="46.07927462449294" lon="9.105562708696633"><ele>1262.0</ele><time>2026-04-25T14:40:28Z</time></trkpt><trkpt lat="46.07924569789543" lon="9.105675802641722"><ele>1262.1666666666667</ele><time>2026-04-25T14:40:29Z</time></trkpt><trkpt lat="46.07921268210537" lon="9.105801257794514"><ele>1262.3333333333335</ele><time>2026-04-25T14:40:30Z</time></trkpt><trkpt lat="46.079180386236104" lon="9.105923977325965"><ele>1262.5</ele><time>2026-04-25T14:40:31Z</time></trkpt><trkpt lat="46.079150613083755" lon="9.106037110913057"><ele>1262.6666666666667</ele><time>2026-04-25T14:40:32Z</time></trkpt><trkpt lat="46.07912469076441" lon="9.106135611896718"><ele>1262.8333333333333</ele><time>2026-04-25T14:40:33Z</time></trkpt><trkpt lat="46.079100664830364" lon="9.106232621633072"><ele>1263.0</ele><time>2026-04-25T14:40:34Z</time></trkpt><trkpt lat="46.07909143943947" lon="9.106335186843115"><ele>1254.6</ele><time>2026-04-25T14:40:35Z</time></trkpt><trkpt lat="46.079053015056935" lon="9.106493199875178"><ele>1246.1999999999998</ele><time>2026-04-25T14:40:37Z</time></trkpt><trkpt lat="46.07903040697107" lon="9.106634326872243"><ele>1237.8</ele><time>2026-04-25T14:40:39Z</time></trkpt><trkpt lat="46.079016559375304" lon="9.106756440803572"><ele>1229.3999999999999</ele><time>2026-04-25T14:40:41Z</time></trkpt><trkpt lat="46.07896197423951" lon="9.10690890877684"><ele>1221.0</ele><time>2026-04-25T14:40:45Z</time></trkpt><trkpt lat="46.078902726937606" lon="9.106985005355966"><ele>1221.0</ele><time>2026-04-25T14:40:47Z</time></trkpt><trkpt lat="46.078833172426016" lon="9.107014141116782"><ele>1221.0</ele><time>2026-04-25T14:40:51Z</time></trkpt><trkpt lat="46.07877999952746" lon="9.106934223566252"><ele>1221.0</ele><time>2026-04-25T14:40:52Z</time></trkpt><trkpt lat="46.07871701403957" lon="9.10691308695232"><ele>1221.0</ele><time>2026-04-25T14:40:55Z</time></trkpt><trkpt lat="46.07866583232284" lon="9.106973306714238"><ele>1221.0</ele><time>2026-04-25T14:40:57Z</time></trkpt><trkpt lat="46.07865736517687" lon="9.107080059004232"><ele>1221.0</ele><time>2026-04-25T14:40:58Z</time></trkpt><trkpt lat="46.078629929556534" lon="9.107261343751695"><ele>1221.0</ele><time>2026-04-25T14:41:00Z</time></trkpt><trkpt lat="46.07861775455832" lon="9.107363051790317"><ele>1221.0</ele><time>2026-04-25T14:41:01Z</time></trkpt><trkpt lat="46.07860046581617" lon="9.107473233366347"><ele>1221.0</ele><time>2026-04-25T14:41:03Z</time></trkpt><trkpt lat="46.07854406228589" lon="9.107624189703554"><ele>1221.0</ele><time>2026-04-25T14:41:06Z</time></trkpt><trkpt lat="46.078445091686426" lon="9.107726645827585"><ele>1221.0</ele><time>2026-04-25T14:41:08Z</time></trkpt><trkpt lat="46.078377389972516" lon="9.10779785600135"><ele>1222.3999999999999</ele><time>2026-04-25T14:41:10Z</time></trkpt><trkpt lat="46.07829305851387" lon="9.107893724269712"><ele>1223.8</ele><time>2026-04-25T14:41:13Z</time></trkpt><trkpt lat="46.07826668178836" lon="9.107999887954236"><ele>1225.1999999999998</ele><time>2026-04-25T14:41:14Z</time></trkpt><trkpt lat="46.07815100767374" lon="9.108137717614275"><ele>1226.6</ele><time>2026-04-25T14:41:16Z</time></trkpt><trkpt lat="46.07808470795911" lon="9.108191270393919"><ele>1228.0</ele><time>2026-04-25T14:41:17Z</time></trkpt><trkpt lat="46.077994856239094" lon="9.108289379730095"><ele>1223.6</ele><time>2026-04-25T14:41:19Z</time></trkpt><trkpt lat="46.077914007885916" lon="9.108353268724516"><ele>1219.1999999999998</ele><time>2026-04-25T14:41:21Z</time></trkpt><trkpt lat="46.07782882162604" lon="9.108459455180451"><ele>1214.8</ele><time>2026-04-25T14:41:23Z</time></trkpt><trkpt lat="46.07778028971926" lon="9.108620065084173"><ele>1210.3999999999999</ele><time>2026-04-25T14:41:24.999Z</time></trkpt><trkpt lat="46.077759032263415" lon="9.108709309230298"><ele>1206.0</ele><time>2026-04-25T14:41:25.999Z</time></trkpt><trkpt lat="46.077726248068615" lon="9.108804828857929"><ele>1206.0</ele><time>2026-04-25T14:41:26.999Z</time></trkpt><trkpt lat="46.077688841660986" lon="9.108958218644787"><ele>1206.0</ele><time>2026-04-25T14:41:29.999Z</time></trkpt><trkpt lat="46.07767018736941" lon="9.109107323611175"><ele>1206.0</ele><time>2026-04-25T14:41:31.999Z</time></trkpt><trkpt lat="46.07763012864854" lon="9.109211921889441"><ele>1206.0</ele><time>2026-04-25T14:41:34Z</time></trkpt><trkpt lat="46.077552353827265" lon="9.109260306581172"><ele>1206.0</ele><time>2026-04-25T14:41:36Z</time></trkpt><trkpt lat="46.07749114121671" lon="9.109299558112937"><ele>1201.8333333333333</ele><time>2026-04-25T14:41:37Z</time></trkpt><trkpt lat="46.0774210062373" lon="9.109348102292476"><ele>1197.6666666666667</ele><time>2026-04-25T14:41:38Z</time></trkpt><trkpt lat="46.07735464510847" lon="9.109398835795442"><ele>1193.5</ele><time>2026-04-25T14:41:39Z</time></trkpt><trkpt lat="46.07730101860495" lon="9.109460195450032"><ele>1189.3333333333335</ele><time>2026-04-25T14:41:40Z</time></trkpt><trkpt lat="46.077188555475864" lon="9.10958488673257"><ele>1185.1666666666667</ele><time>2026-04-25T14:41:42Z</time></trkpt><trkpt lat="46.07713115568808" lon="9.109643281140494"><ele>1181.0</ele><time>2026-04-25T14:41:43Z</time></trkpt><trkpt lat="46.07706908211062" lon="9.109704102818947"><ele>1181.0</ele><time>2026-04-25T14:41:44Z</time></trkpt><trkpt lat="46.07701127227416" lon="9.109757808544835"><ele>1181.0</ele><time>2026-04-25T14:41:45Z</time></trkpt><trkpt lat="46.07695465132116" lon="9.109802617507725"><ele>1181.0</ele><time>2026-04-25T14:41:46Z</time></trkpt><trkpt lat="46.076856220094726" lon="9.109900048879915"><ele>1181.0</ele><time>2026-04-25T14:41:48Z</time></trkpt><trkpt lat="46.0767574644853" lon="9.109997946042753"><ele>1181.0</ele><time>2026-04-25T14:41:50Z</time></trkpt><trkpt lat="46.0766434796014" lon="9.110072928169915"><ele>1178.0</ele><time>2026-04-25T14:41:52Z</time></trkpt><trkpt lat="46.076573795270406" lon="9.11009404351115"><ele>1175.0</ele><time>2026-04-25T14:41:53Z</time></trkpt><trkpt lat="46.07651017789068" lon="9.110083431891"><ele>1172.0</ele><time>2026-04-25T14:41:54Z</time></trkpt><trkpt lat="46.07638060175787" lon="9.110080848671672"><ele>1169.0</ele><time>2026-04-25T14:41:56Z</time></trkpt><trkpt lat="46.07625345083486" lon="9.110122576693938"><ele>1166.0</ele><time>2026-04-25T14:41:58Z</time></trkpt><trkpt lat="46.07612770477083" lon="9.1101245614006"><ele>1166.0</ele><time>2026-04-25T14:42:00Z</time></trkpt><trkpt lat="46.07606397972881" lon="9.110093542512567"><ele>1166.0</ele><time>2026-04-25T14:42:01Z</time></trkpt><trkpt lat="46.0759994894805" lon="9.110074200928446"><ele>1166.0</ele><time>2026-04-25T14:42:02Z</time></trkpt><trkpt lat="46.075892676797224" lon="9.110076945671011"><ele>1166.0</ele><time>2026-04-25T14:42:04Z</time></trkpt><trkpt lat="46.075800260662106" lon="9.110143682224168"><ele>1166.0</ele><time>2026-04-25T14:42:06Z</time></trkpt><trkpt lat="46.07572570445216" lon="9.110256702518534"><ele>1159.0</ele><time>2026-04-25T14:42:08Z</time></trkpt><trkpt lat="46.0756621693956" lon="9.110366641763731"><ele>1152.0</ele><time>2026-04-25T14:42:10Z</time></trkpt><trkpt lat="46.075596301943875" lon="9.110351088626254"><ele>1145.0</ele><time>2026-04-25T14:42:13Z</time></trkpt><trkpt lat="46.075578483079745" lon="9.110235121558082"><ele>1138.0</ele><time>2026-04-25T14:42:15Z</time></trkpt><trkpt lat="46.07559829652472" lon="9.110058081068098"><ele>1131.0</ele><time>2026-04-25T14:42:17Z</time></trkpt><trkpt lat="46.07562246160923" lon="9.109899564202651"><ele>1128.3999999999999</ele><time>2026-04-25T14:42:19Z</time></trkpt><trkpt lat="46.07567912888306" lon="9.109788064798432"><ele>1125.8</ele><time>2026-04-25T14:42:21Z</time></trkpt><trkpt lat="46.075766119830355" lon="9.109677255674843"><ele>1123.1999999999998</ele><time>2026-04-25T14:42:23Z</time></trkpt><trkpt lat="46.07581751682823" lon="9.109612890668261"><ele>1120.6</ele><time>2026-04-25T14:42:24Z</time></trkpt><trkpt lat="46.07590537530312" lon="9.109507700458394"><ele>1118.0</ele><time>2026-04-25T14:42:26Z</time></trkpt><trkpt lat="46.07593994447007" lon="9.109385910606436"><ele>1118.0</ele><time>2026-04-25T14:42:28Z</time></trkpt><trkpt lat="46.075900003293846" lon="9.109308327534627"><ele>1118.0</ele><time>2026-04-25T14:42:30Z</time></trkpt><trkpt lat="46.07581724514491" lon="9.109341761624206"><ele>1118.0</ele><time>2026-04-25T14:42:32Z</time></trkpt><trkpt lat="46.07572570180362" lon="9.10943543652758"><ele>1118.0</ele><time>2026-04-25T14:42:34Z</time></trkpt><trkpt lat="46.07562102040863" lon="9.109484535986486"><ele>1118.0</ele><time>2026-04-25T14:42:36Z</time></trkpt><trkpt lat="46.07555173049906" lon="9.109497345326671"><ele>1118.0</ele><time>2026-04-25T14:42:37Z</time></trkpt><trkpt lat="46.07547133492733" lon="9.109503533443126"><ele>1118.0</ele><time>2026-04-25T14:42:39Z</time></trkpt><trkpt lat="46.075393610929844" lon="9.10960627497465"><ele>1118.0</ele><time>2026-04-25T14:42:42Z</time></trkpt><trkpt lat="46.075362956493194" lon="9.109728285576253"><ele>1118.0</ele><time>2026-04-25T14:42:44Z</time></trkpt><trkpt lat="46.075288273301396" lon="9.109796110015406"><ele>1118.0</ele><time>2026-04-25T14:42:46Z</time></trkpt><trkpt lat="46.07519775580629" lon="9.109772446269243"><ele>1118.0</ele><time>2026-04-25T14:42:48Z</time></trkpt><trkpt lat="46.075128012508586" lon="9.109782981302914"><ele>1118.0</ele><time>2026-04-25T14:42:50Z</time></trkpt><trkpt lat="46.07504743884607" lon="9.109863286790702"><ele>1116.3333333333335</ele><time>2026-04-25T14:42:52Z</time></trkpt><trkpt lat="46.075007655297505" lon="9.10993914573339"><ele>1114.6666666666667</ele><time>2026-04-25T14:42:53Z</time></trkpt><trkpt lat="46.07496633593583" lon="9.110017616291602"><ele>1113.0</ele><time>2026-04-25T14:42:54Z</time></trkpt><trkpt lat="46.07492944926498" lon="9.1100981351787"><ele>1111.3333333333333</ele><time>2026-04-25T14:42:55Z</time></trkpt><trkpt lat="46.074898493987014" lon="9.11018388265266"><ele>1109.6666666666665</ele><time>2026-04-25T14:42:56Z</time></trkpt><trkpt lat="46.07486355486694" lon="9.110356734006825"><ele>1108.0</ele><time>2026-04-25T14:42:58Z</time></trkpt><trkpt lat="46.07484094187419" lon="9.110515882409619"><ele>1108.0</ele><time>2026-04-25T14:43:00Z</time></trkpt><trkpt lat="46.074838322127384" lon="9.1106087677936"><ele>1108.0</ele><time>2026-04-25T14:43:01Z</time></trkpt><trkpt lat="46.074842347411916" lon="9.110711504962158"><ele>1108.0</ele><time>2026-04-25T14:43:02Z</time></trkpt><trkpt lat="46.07484975785718" lon="9.110805899608325"><ele>1108.0</ele><time>2026-04-25T14:43:03Z</time></trkpt><trkpt lat="46.07484889749955" lon="9.110908344285402"><ele>1108.0</ele><time>2026-04-25T14:43:04Z</time></trkpt><trkpt lat="46.07482600558813" lon="9.111078751954535"><ele>1108.0</ele><time>2026-04-25T14:43:06Z</time></trkpt><trkpt lat="46.07480325416032" lon="9.111229913279068"><ele>1109.0</ele><time>2026-04-25T14:43:08Z</time></trkpt><trkpt lat="46.07480883995526" lon="9.111337537456698"><ele>1110.0</ele><time>2026-04-25T14:43:10Z</time></trkpt><trkpt lat="46.07477925844525" lon="9.111437849630835"><ele>1111.0</ele><time>2026-04-25T14:43:17Z</time></trkpt><trkpt lat="46.0746911600238" lon="9.11136915053495"><ele>1112.0</ele><time>2026-04-25T14:43:20Z</time></trkpt><trkpt lat="46.074658012552845" lon="9.111281197720134"><ele>1113.0</ele><time>2026-04-25T14:43:21Z</time></trkpt><trkpt lat="46.07455205389528" lon="9.111207559036863"><ele>1114.0</ele><time>2026-04-25T14:43:23Z</time></trkpt><trkpt lat="46.074481397173706" lon="9.111207882238219"><ele>1114.0</ele><time>2026-04-25T14:43:24Z</time></trkpt><trkpt lat="46.07440801488722" lon="9.111199786451051"><ele>1114.0</ele><time>2026-04-25T14:43:25Z</time></trkpt><trkpt lat="46.074336835999134" lon="9.111185017377922"><ele>1114.0</ele><time>2026-04-25T14:43:27Z</time></trkpt><trkpt lat="46.07422627575067" lon="9.111214621496853"><ele>1114.0</ele><time>2026-04-25T14:43:29.001Z</time></trkpt><trkpt lat="46.074146854150904" lon="9.111240762153182"><ele>1114.0</ele><time>2026-04-25T14:43:30.001Z</time></trkpt><trkpt lat="46.07406051172815" lon="9.111282320168373"><ele>1114.0</ele><time>2026-04-25T14:43:31Z</time></trkpt><trkpt lat="46.07398008522813" lon="9.111323739809311"><ele>1110.5</ele><time>2026-04-25T14:43:32Z</time></trkpt><trkpt lat="46.07389923700752" lon="9.111364798229593"><ele>1107.0</ele><time>2026-04-25T14:43:33Z</time></trkpt><trkpt lat="46.073832287687736" lon="9.111399129066754"><ele>1103.5</ele><time>2026-04-25T14:43:34Z</time></trkpt><trkpt lat="46.0737704836634" lon="9.111423047478594"><ele>1100.0</ele><time>2026-04-25T14:43:35Z</time></trkpt><trkpt lat="46.07364071573525" lon="9.111457149435203"><ele>1096.5</ele><time>2026-04-25T14:43:37Z</time></trkpt><trkpt lat="46.07357373693199" lon="9.111477714482364"><ele>1093.0</ele><time>2026-04-25T14:43:38Z</time></trkpt><trkpt lat="46.07350578934723" lon="9.11150898006813"><ele>1093.0</ele><time>2026-04-25T14:43:39Z</time></trkpt><trkpt lat="46.07343908151802" lon="9.111562270704878"><ele>1093.0</ele><time>2026-04-25T14:43:40Z</time></trkpt><trkpt lat="46.073372960816315" lon="9.11164779759557"><ele>1093.0</ele><time>2026-04-25T14:43:41Z</time></trkpt><trkpt lat="46.07329834106403" lon="9.111740950339113"><ele>1093.0</ele><time>2026-04-25T14:43:42Z</time></trkpt><trkpt lat="46.073228229765355" lon="9.11180319036222"><ele>1093.0</ele><time>2026-04-25T14:43:43Z</time></trkpt><trkpt lat="46.07314900395461" lon="9.111853905155773"><ele>1093.0</ele><time>2026-04-25T14:43:44Z</time></trkpt><trkpt lat="46.073053592583506" lon="9.111887812973126"><ele>1092.8333333333333</ele><time>2026-04-25T14:43:45Z</time></trkpt><trkpt lat="46.07299027243114" lon="9.11190315860957"><ele>1092.6666666666665</ele><time>2026-04-25T14:43:46Z</time></trkpt><trkpt lat="46.07291599730775" lon="9.11191618306702"><ele>1092.5</ele><time>2026-04-25T14:43:47Z</time></trkpt><trkpt lat="46.0728528718967" lon="9.111916137060772"><ele>1092.3333333333333</ele><time>2026-04-25T14:43:48Z</time></trkpt><trkpt lat="46.072788536166506" lon="9.111847638395743"><ele>1092.1666666666667</ele><time>2026-04-25T14:43:50Z</time></trkpt><trkpt lat="46.07269999010539" lon="9.111838953005005"><ele>1092.0</ele><time>2026-04-25T14:43:53Z</time></trkpt><trkpt lat="46.07263377250107" lon="9.111937752766478"><ele>1092.0</ele><time>2026-04-25T14:43:55Z</time></trkpt><trkpt lat="46.07254897803083" lon="9.112068140685956"><ele>1092.0</ele><time>2026-04-25T14:43:57Z</time></trkpt><trkpt lat="46.07248884968673" lon="9.112132437584483"><ele>1092.0</ele><time>2026-04-25T14:43:58Z</time></trkpt><trkpt lat="46.07243699683728" lon="9.112194716913848"><ele>1092.0</ele><time>2026-04-25T14:43:59Z</time></trkpt><trkpt lat="46.07238778949992" lon="9.112252386456818"><ele>1092.0</ele><time>2026-04-25T14:44:00Z</time></trkpt><trkpt lat="46.07232738596252" lon="9.112328404435798"><ele>1092.0</ele><time>2026-04-25T14:44:01Z</time></trkpt><trkpt lat="46.072255297241846" lon="9.112440406177445"><ele>1089.3333333333333</ele><time>2026-04-25T14:44:02Z</time></trkpt><trkpt lat="46.0722058645668" lon="9.112556888011547"><ele>1086.6666666666667</ele><time>2026-04-25T14:44:03Z</time></trkpt><trkpt lat="46.07215304281582" lon="9.112670669115838"><ele>1084.0</ele><time>2026-04-25T14:44:04Z</time></trkpt><trkpt lat="46.072108572559735" lon="9.112775511806461"><ele>1081.3333333333335</ele><time>2026-04-25T14:44:05Z</time></trkpt><trkpt lat="46.07206594768873" lon="9.112873518223845"><ele>1078.6666666666667</ele><time>2026-04-25T14:44:06Z</time></trkpt><trkpt lat="46.07202985856894" lon="9.112957013872364"><ele>1076.0</ele><time>2026-04-25T14:44:07Z</time></trkpt><trkpt lat="46.07196047150591" lon="9.113031197426963"><ele>1076.0</ele><time>2026-04-25T14:44:09Z</time></trkpt><trkpt lat="46.07190409000786" lon="9.11298731139354"><ele>1076.0</ele><time>2026-04-25T14:44:11Z</time></trkpt><trkpt lat="46.07193350660779" lon="9.11279936919208"><ele>1076.0</ele><time>2026-04-25T14:44:13Z</time></trkpt><trkpt lat="46.07196244665084" lon="9.112684313630357"><ele>1076.0</ele><time>2026-04-25T14:44:14Z</time></trkpt><trkpt lat="46.07198349800016" lon="9.112552545651766"><ele>1076.0</ele><time>2026-04-25T14:44:15Z</time></trkpt><trkpt lat="46.0719911459592" lon="9.112421351921295"><ele>1073.5</ele><time>2026-04-25T14:44:16Z</time></trkpt><trkpt lat="46.071999713683816" lon="9.112291762849777"><ele>1071.0</ele><time>2026-04-25T14:44:17Z</time></trkpt><trkpt lat="46.07200974620283" lon="9.112158586310922"><ele>1068.5</ele><time>2026-04-25T14:44:18Z</time></trkpt><trkpt lat="46.07202818735838" lon="9.11202869116983"><ele>1066.0</ele><time>2026-04-25T14:44:19Z</time></trkpt><trkpt lat="46.07205358350746" lon="9.111920381401342"><ele>1063.5</ele><time>2026-04-25T14:44:20Z</time></trkpt><trkpt lat="46.07208924446253" lon="9.111844197011207"><ele>1061.0</ele><time>2026-04-25T14:44:21Z</time></trkpt><trkpt lat="46.07214402413725" lon="9.111728258691024"><ele>1061.0</ele><time>2026-04-25T14:44:23Z</time></trkpt><trkpt lat="46.07209190156391" lon="9.111647734784409"><ele>1061.0</ele><time>2026-04-25T14:44:25Z</time></trkpt><trkpt lat="46.07201090287132" lon="9.111725295458289"><ele>1061.0</ele><time>2026-04-25T14:44:27Z</time></trkpt><trkpt lat="46.071977785306636" lon="9.111803081863934"><ele>1061.0</ele><time>2026-04-25T14:44:28Z</time></trkpt><trkpt lat="46.07189802343321" lon="9.111939794624119"><ele>1061.0</ele><time>2026-04-25T14:44:30Z</time></trkpt><trkpt lat="46.07184405368288" lon="9.112015580499367"><ele>1061.0</ele><time>2026-04-25T14:44:31Z</time></trkpt><trkpt lat="46.071783938833136" lon="9.112104111940393"><ele>1061.0</ele><time>2026-04-25T14:44:32Z</time></trkpt><trkpt lat="46.07172441901772" lon="9.11219869134937"><ele>1061.0</ele><time>2026-04-25T14:44:33Z</time></trkpt><trkpt lat="46.071663747660914" lon="9.112286961691657"><ele>1061.0</ele><time>2026-04-25T14:44:34Z</time></trkpt><trkpt lat="46.0716029233733" lon="9.112378421842305"><ele>1061.0</ele><time>2026-04-25T14:44:35Z</time></trkpt><trkpt lat="46.07153914966553" lon="9.112464520054338"><ele>1061.0</ele><time>2026-04-25T14:44:36Z</time></trkpt><trkpt lat="46.071454629671756" lon="9.112579528559715"><ele>1057.1666666666667</ele><time>2026-04-25T14:44:38Z</time></trkpt><trkpt lat="46.07136690847015" lon="9.112592028826233"><ele>1053.3333333333335</ele><time>2026-04-25T14:44:41Z</time></trkpt><trkpt lat="46.071373595400225" lon="9.112443863348206"><ele>1049.5</ele><time>2026-04-25T14:44:43Z</time></trkpt><trkpt lat="46.071421772185886" lon="9.112382585257327"><ele>1045.6666666666667</ele><time>2026-04-25T14:44:44Z</time></trkpt><trkpt lat="46.07150019404783" lon="9.112265601020283"><ele>1041.8333333333333</ele><time>2026-04-25T14:44:46Z</time></trkpt><trkpt lat="46.071523211673856" lon="9.11216792914426"><ele>1038.0</ele><time>2026-04-25T14:44:47Z</time></trkpt><trkpt lat="46.071527558872425" lon="9.112057334266579"><ele>1038.8333333333333</ele><time>2026-04-25T14:44:48Z</time></trkpt><trkpt lat="46.07153641533337" lon="9.111936959512594"><ele>1039.6666666666667</ele><time>2026-04-25T14:44:49Z</time></trkpt><trkpt lat="46.07155511952554" lon="9.111812630225016"><ele>1040.5</ele><time>2026-04-25T14:44:50Z</time></trkpt><trkpt lat="46.07157447260502" lon="9.11168960560913"><ele>1041.3333333333335</ele><time>2026-04-25T14:44:51Z</time></trkpt><trkpt lat="46.07159410205023" lon="9.111566397939994"><ele>1042.1666666666667</ele><time>2026-04-25T14:44:52Z</time></trkpt><trkpt lat="46.071614962688066" lon="9.111443251565612"><ele>1043.0</ele><time>2026-04-25T14:44:53Z</time></trkpt><trkpt lat="46.071638399726545" lon="9.111335577525773"><ele>1043.0</ele><time>2026-04-25T14:44:54Z</time></trkpt><trkpt lat="46.071664237864475" lon="9.111252702998971"><ele>1043.0</ele><time>2026-04-25T14:44:55Z</time></trkpt><trkpt lat="46.07170584282544" lon="9.111133939125295"><ele>1043.0</ele><time>2026-04-25T14:44:57Z</time></trkpt><trkpt lat="46.07174142391683" lon="9.111029215656297"><ele>1043.0</ele><time>2026-04-25T14:44:59Z</time></trkpt><trkpt lat="46.07184230497549" lon="9.110945211429053"><ele>1043.0</ele><time>2026-04-25T14:45:01Z</time></trkpt><trkpt lat="46.07192986488896" lon="9.110860705581251"><ele>1043.0</ele><time>2026-04-25T14:45:03Z</time></trkpt><trkpt lat="46.07189112579814" lon="9.110733641983177"><ele>1043.0</ele><time>2026-04-25T14:45:05Z</time></trkpt><trkpt lat="46.07182686929061" lon="9.11072068927662"><ele>1043.0</ele><time>2026-04-25T14:45:06Z</time></trkpt><trkpt lat="46.0717491612696" lon="9.110742900705501"><ele>1043.0</ele><time>2026-04-25T14:45:07Z</time></trkpt><trkpt lat="46.071669587654576" lon="9.11077067565345"><ele>1043.0</ele><time>2026-04-25T14:45:08.001Z</time></trkpt><trkpt lat="46.07159364370295" lon="9.110815399003735"><ele>1043.0</ele><time>2026-04-25T14:45:09.001Z</time></trkpt><trkpt lat="46.07152249842688" lon="9.110896690587442"><ele>1036.0</ele><time>2026-04-25T14:45:10.001Z</time></trkpt><trkpt lat="46.071465311775476" lon="9.110983846948214"><ele>1029.0</ele><time>2026-04-25T14:45:11.001Z</time></trkpt><trkpt lat="46.071415719933434" lon="9.11106386610813"><ele>1022.0</ele><time>2026-04-25T14:45:12.001Z</time></trkpt><trkpt lat="46.071365891787146" lon="9.111145253171186"><ele>1015.0</ele><time>2026-04-25T14:45:13.001Z</time></trkpt><trkpt lat="46.07130230621468" lon="9.111220576213224"><ele>1008.0000000000001</ele><time>2026-04-25T14:45:15.001Z</time></trkpt><trkpt lat="46.07122708097059" lon="9.111296283583659"><ele>1001.0</ele><time>2026-04-25T14:45:17.001Z</time></trkpt><trkpt lat="46.07118663894672" lon="9.11137683813592"><ele>1001.0</ele><time>2026-04-25T14:45:18.001Z</time></trkpt><trkpt lat="46.07116094352329" lon="9.111489221646657"><ele>1000.9999999999999</ele><time>2026-04-25T14:45:19.001Z</time></trkpt><trkpt lat="46.07115246072469" lon="9.111622025064634"><ele>1000.9999999999999</ele><time>2026-04-25T14:45:20.001Z</time></trkpt><trkpt lat="46.07112971703931" lon="9.111741073916727"><ele>1001.0</ele><time>2026-04-25T14:45:21.001Z</time></trkpt><trkpt lat="46.071083837686984" lon="9.111861613871678"><ele>1001.0</ele><time>2026-04-25T14:45:22.001Z</time></trkpt><trkpt lat="46.071020443401586" lon="9.111985054714486"><ele>1002.6666666666667</ele><time>2026-04-25T14:45:23.001Z</time></trkpt><trkpt lat="46.070958366691656" lon="9.112097245775207"><ele>1004.3333333333334</ele><time>2026-04-25T14:45:24.001Z</time></trkpt><trkpt lat="46.07090351246197" lon="9.112203783231854"><ele>1006.0</ele><time>2026-04-25T14:45:25.001Z</time></trkpt><trkpt lat="46.07085511653388" lon="9.11230433499389"><ele>1007.6666666666667</ele><time>2026-04-25T14:45:26.001Z</time></trkpt><trkpt lat="46.07082346391852" lon="9.112401024657245"><ele>1009.3333333333334</ele><time>2026-04-25T14:45:27.001Z</time></trkpt><trkpt lat="46.07079605490484" lon="9.112503592931954"><ele>1011.0</ele><time>2026-04-25T14:45:28.001Z</time></trkpt><trkpt lat="46.070770921241945" lon="9.112597528713962"><ele>1011.0</ele><time>2026-04-25T14:45:29.001Z</time></trkpt><trkpt lat="46.07068661367962" lon="9.112685725699437"><ele>1011.0</ele><time>2026-04-25T14:45:31.001Z</time></trkpt><trkpt lat="46.07061957244119" lon="9.112660124471724"><ele>1011.0</ele><time>2026-04-25T14:45:32.001Z</time></trkpt><trkpt lat="46.070549463758816" lon="9.112607976539085"><ele>1011.0</ele><time>2026-04-25T14:45:33.001Z</time></trkpt><trkpt lat="46.07046227872162" lon="9.112567828916932"><ele>1011.0</ele><time>2026-04-25T14:45:34.001Z</time></trkpt><trkpt lat="46.07037878494387" lon="9.11254962923166"><ele>1011.0</ele><time>2026-04-25T14:45:35.001Z</time></trkpt><trkpt lat="46.0702923966489" lon="9.112541297783979"><ele>1011.0</ele><time>2026-04-25T14:45:36.001Z</time></trkpt><trkpt lat="46.07021465791756" lon="9.112556803299839"><ele>1010.9999999999999</ele><time>2026-04-25T14:45:37Z</time></trkpt><trkpt lat="46.07014334027088" lon="9.11259245659691"><ele>1010.9999999999999</ele><time>2026-04-25T14:45:38Z</time></trkpt><trkpt lat="46.07007763614413" lon="9.112663912284"><ele>1011.0</ele><time>2026-04-25T14:45:39Z</time></trkpt><trkpt lat="46.07000328243306" lon="9.112785213233593"><ele>1011.0</ele><time>2026-04-25T14:45:40Z</time></trkpt><trkpt lat="46.069921879221326" lon="9.112924132357795"><ele>1007.4</ele><time>2026-04-25T14:45:41Z</time></trkpt><trkpt lat="46.06984330429723" lon="9.113061047787454"><ele>1003.8</ele><time>2026-04-25T14:45:42Z</time></trkpt><trkpt lat="46.06976829419495" lon="9.113189594326993"><ele>1000.1999999999999</ele><time>2026-04-25T14:45:43Z</time></trkpt><trkpt lat="46.06970800277734" lon="9.113305244233365"><ele>996.5999999999999</ele><time>2026-04-25T14:45:44Z</time></trkpt><trkpt lat="46.0696650346709" lon="9.113425588411056"><ele>993.0</ele><time>2026-04-25T14:45:45Z</time></trkpt><trkpt lat="46.069630812392354" lon="9.11354789991293"><ele>993.0</ele><time>2026-04-25T14:45:46Z</time></trkpt><trkpt lat="46.06960313434425" lon="9.113667619779608"><ele>993.0</ele><time>2026-04-25T14:45:47Z</time></trkpt><trkpt lat="46.069564466020985" lon="9.113778523737574"><ele>993.0</ele><time>2026-04-25T14:45:48Z</time></trkpt><trkpt lat="46.06951413305965" lon="9.113872221993295"><ele>993.0</ele><time>2026-04-25T14:45:49Z</time></trkpt><trkpt lat="46.06944656417477" lon="9.113948814869262"><ele>993.0</ele><time>2026-04-25T14:45:50Z</time></trkpt><trkpt lat="46.06937180604831" lon="9.113997651254836"><ele>993.0</ele><time>2026-04-25T14:45:51Z</time></trkpt><trkpt lat="46.06930560245021" lon="9.11405747251539"><ele>995.5999999999999</ele><time>2026-04-25T14:45:52Z</time></trkpt><trkpt lat="46.069263173046174" lon="9.114159926447083"><ele>998.1999999999999</ele><time>2026-04-25T14:45:53Z</time></trkpt><trkpt lat="46.069236707867745" lon="9.114291051279482"><ele>1000.8</ele><time>2026-04-25T14:45:54Z</time></trkpt><trkpt lat="46.06920449814778" lon="9.114428913816019"><ele>1003.4</ele><time>2026-04-25T14:45:55Z</time></trkpt><trkpt lat="46.06915281875621" lon="9.114558159917797"><ele>1006.0</ele><time>2026-04-25T14:45:56Z</time></trkpt><trkpt lat="46.06908164268635" lon="9.114667126951856"><ele>1003.1999999999999</ele><time>2026-04-25T14:45:57Z</time></trkpt><trkpt lat="46.068998510245436" lon="9.114774076763426"><ele>1000.3999999999999</ele><time>2026-04-25T14:45:58Z</time></trkpt><trkpt lat="46.068935126745814" lon="9.114892300456821"><ele>997.6</ele><time>2026-04-25T14:45:59Z</time></trkpt><trkpt lat="46.068889805349635" lon="9.11501180808266"><ele>994.8</ele><time>2026-04-25T14:46:00Z</time></trkpt><trkpt lat="46.06882904754556" lon="9.115091395014755"><ele>992.0</ele><time>2026-04-25T14:46:01Z</time></trkpt><trkpt lat="46.06875557289183" lon="9.115146021577262"><ele>992.0000000000001</ele><time>2026-04-25T14:46:02Z</time></trkpt><trkpt lat="46.068672689997314" lon="9.115155831736264"><ele>992.0</ele><time>2026-04-25T14:46:03Z</time></trkpt><trkpt lat="46.06858211894571" lon="9.115158806450319"><ele>992.0</ele><time>2026-04-25T14:46:04Z</time></trkpt><trkpt lat="46.068496227966726" lon="9.115197704729955"><ele>992.0</ele><time>2026-04-25T14:46:05Z</time></trkpt><trkpt lat="46.06842204645781" lon="9.115280362926466"><ele>992.0000000000001</ele><time>2026-04-25T14:46:06Z</time></trkpt><trkpt lat="46.06835789870998" lon="9.115368463489647"><ele>992.0</ele><time>2026-04-25T14:46:07Z</time></trkpt><trkpt lat="46.06831496593392" lon="9.115463027723864"><ele>992.0000000000001</ele><time>2026-04-25T14:46:08Z</time></trkpt><trkpt lat="46.068299904401876" lon="9.115576573965386"><ele>992.0</ele><time>2026-04-25T14:46:09Z</time></trkpt><trkpt lat="46.06830843927736" lon="9.115683205714982"><ele>992.0</ele><time>2026-04-25T14:46:10Z</time></trkpt><trkpt lat="46.068271996382975" lon="9.1158416425951"><ele>992.0</ele><time>2026-04-25T14:46:12Z</time></trkpt><trkpt lat="46.068205563194226" lon="9.115877245909681"><ele>992.0000000000001</ele><time>2026-04-25T14:46:13Z</time></trkpt><trkpt lat="46.0681245002883" lon="9.115883913678399"><ele>992.0</ele><time>2026-04-25T14:46:14Z</time></trkpt><trkpt lat="46.06802982144164" lon="9.115872241839604"><ele>990.0000000000001</ele><time>2026-04-25T14:46:15Z</time></trkpt><trkpt lat="46.06793816568374" lon="9.115892903077627"><ele>988.0</ele><time>2026-04-25T14:46:16Z</time></trkpt><trkpt lat="46.06784746779828" lon="9.115918834897158"><ele>986.0</ele><time>2026-04-25T14:46:17Z</time></trkpt><trkpt lat="46.06776413401656" lon="9.115943107776337"><ele>984.0</ele><time>2026-04-25T14:46:18Z</time></trkpt><trkpt lat="46.06768460789371" lon="9.115982293156193"><ele>982.0000000000001</ele><time>2026-04-25T14:46:19Z</time></trkpt><trkpt lat="46.06761630620914" lon="9.116056447233847"><ele>980.0</ele><time>2026-04-25T14:46:20Z</time></trkpt><trkpt lat="46.067564095956456" lon="9.116156245502998"><ele>980.0000000000001</ele><time>2026-04-25T14:46:21Z</time></trkpt><trkpt lat="46.06752714196361" lon="9.116267816993988"><ele>980.0</ele><time>2026-04-25T14:46:22Z</time></trkpt><trkpt lat="46.067486131702246" lon="9.116379412176773"><ele>980.0</ele><time>2026-04-25T14:46:23Z</time></trkpt><trkpt lat="46.06742754047094" lon="9.116465376591274"><ele>980.0</ele><time>2026-04-25T14:46:24Z</time></trkpt><trkpt lat="46.06735659213315" lon="9.11655151245137"><ele>980.0000000000001</ele><time>2026-04-25T14:46:25Z</time></trkpt><trkpt lat="46.06730975974737" lon="9.116638433810584"><ele>980.0</ele><time>2026-04-25T14:46:26Z</time></trkpt><trkpt lat="46.067255041773706" lon="9.116728979512278"><ele>978.6666666666667</ele><time>2026-04-25T14:46:27Z</time></trkpt><trkpt lat="46.067195812135424" lon="9.116797047817379"><ele>977.3333333333334</ele><time>2026-04-25T14:46:28Z</time></trkpt><trkpt lat="46.06712415162306" lon="9.116808694348252"><ele>976.0</ele><time>2026-04-25T14:46:29Z</time></trkpt><trkpt lat="46.06705919223103" lon="9.116755575090501"><ele>974.6666666666667</ele><time>2026-04-25T14:46:30Z</time></trkpt><trkpt lat="46.06700775571619" lon="9.11669796585893"><ele>973.3333333333334</ele><time>2026-04-25T14:46:31Z</time></trkpt><trkpt lat="46.06689193431356" lon="9.11672196529672"><ele>972.0</ele><time>2026-04-25T14:46:33Z</time></trkpt><trkpt lat="46.06684383940749" lon="9.116789849294614"><ele>972.0</ele><time>2026-04-25T14:46:34Z</time></trkpt><trkpt lat="46.06677979682652" lon="9.116878587042272"><ele>972.0</ele><time>2026-04-25T14:46:35Z</time></trkpt><trkpt lat="46.06669829808474" lon="9.11697175243638"><ele>972.0</ele><time>2026-04-25T14:46:36Z</time></trkpt><trkpt lat="46.06662330037994" lon="9.117067621785134"><ele>972.0</ele><time>2026-04-25T14:46:37Z</time></trkpt><trkpt lat="46.066549780062495" lon="9.117154559238918"><ele>972.0</ele><time>2026-04-25T14:46:38Z</time></trkpt><trkpt lat="46.066491159422235" lon="9.117226295416888"><ele>971.5714285714286</ele><time>2026-04-25T14:46:39Z</time></trkpt><trkpt lat="46.06644988028983" lon="9.117298946713332"><ele>971.1428571428571</ele><time>2026-04-25T14:46:40Z</time></trkpt><trkpt lat="46.06642862714363" lon="9.11738871547483"><ele>970.7142857142857</ele><time>2026-04-25T14:46:41Z</time></trkpt><trkpt lat="46.06641507120387" lon="9.117499553238108"><ele>970.2857142857142</ele><time>2026-04-25T14:46:42Z</time></trkpt><trkpt lat="46.06638020711318" lon="9.117600380518487"><ele>969.8571428571429</ele><time>2026-04-25T14:46:43Z</time></trkpt><trkpt lat="46.06631848790028" lon="9.117685416580601"><ele>969.4285714285713</ele><time>2026-04-25T14:46:44Z</time></trkpt><trkpt lat="46.066255162202204" lon="9.117740219859755"><ele>968.9999999999999</ele><time>2026-04-25T14:46:45Z</time></trkpt><trkpt lat="46.06619885842706" lon="9.117809138926757"><ele>969.0</ele><time>2026-04-25T14:46:46Z</time></trkpt><trkpt lat="46.066119949373544" lon="9.117925078910257"><ele>969.0000000000001</ele><time>2026-04-25T14:46:48Z</time></trkpt><trkpt lat="46.06603599287742" lon="9.117944650933351"><ele>969.0000000000001</ele><time>2026-04-25T14:46:50Z</time></trkpt><trkpt lat="46.06596873590474" lon="9.117775321350637"><ele>969.0</ele><time>2026-04-25T14:46:52Z</time></trkpt><trkpt lat="46.065930015650196" lon="9.11769525138683"><ele>969.0</ele><time>2026-04-25T14:46:53Z</time></trkpt><trkpt lat="46.0658594866875" lon="9.117599124311107"><ele>969.0</ele><time>2026-04-25T14:46:55Z</time></trkpt><trkpt lat="46.06578453561441" lon="9.117567846489901"><ele>969.0</ele><time>2026-04-25T14:46:56Z</time></trkpt><trkpt lat="46.06570444446599" lon="9.117601982172566"><ele>969.0</ele><time>2026-04-25T14:46:57Z</time></trkpt><trkpt lat="46.0656475323664" lon="9.117680202823452"><ele>969.0</ele><time>2026-04-25T14:46:58Z</time></trkpt><trkpt lat="46.06560523360923" lon="9.1177921853672"><ele>969.0</ele><time>2026-04-25T14:46:59Z</time></trkpt><trkpt lat="46.0655771128748" lon="9.117900951289615"><ele>969.0</ele><time>2026-04-25T14:47:00Z</time></trkpt><trkpt lat="46.065537636326866" lon="9.117986462841724"><ele>965.6666666666666</ele><time>2026-04-25T14:47:01Z</time></trkpt><trkpt lat="46.06548249738597" lon="9.118035799988505"><ele>962.3333333333333</ele><time>2026-04-25T14:47:02Z</time></trkpt><trkpt lat="46.065417804260285" lon="9.11800843213365"><ele>959.0</ele><time>2026-04-25T14:47:03Z</time></trkpt><trkpt lat="46.065359847468" lon="9.117961141660457"><ele>955.6666666666666</ele><time>2026-04-25T14:47:04Z</time></trkpt><trkpt lat="46.065299797476044" lon="9.117923901000571"><ele>952.3333333333333</ele><time>2026-04-25T14:47:05Z</time></trkpt><trkpt lat="46.065205074582316" lon="9.117928735771256"><ele>949.0</ele><time>2026-04-25T14:47:06Z</time></trkpt><trkpt lat="46.0651076523671" lon="9.117966522351383"><ele>949.0</ele><time>2026-04-25T14:47:07Z</time></trkpt><trkpt lat="46.065020077218115" lon="9.118034005631161"><ele>949.0000000000001</ele><time>2026-04-25T14:47:08Z</time></trkpt><trkpt lat="46.064946586906004" lon="9.11811346523443"><ele>949.0000000000001</ele><time>2026-04-25T14:47:09Z</time></trkpt><trkpt lat="46.064841710463526" lon="9.118150694216629"><ele>949.0</ele><time>2026-04-25T14:47:10Z</time></trkpt><trkpt lat="46.06471907919632" lon="9.118151584162241"><ele>949.0</ele><time>2026-04-25T14:47:11Z</time></trkpt><trkpt lat="46.06461054772286" lon="9.118168340468651"><ele>949.6</ele><time>2026-04-25T14:47:12Z</time></trkpt><trkpt lat="46.064505662970696" lon="9.118190332473375"><ele>950.2</ele><time>2026-04-25T14:47:13Z</time></trkpt><trkpt lat="46.06439704093436" lon="9.118196419469236"><ele>950.8000000000001</ele><time>2026-04-25T14:47:14.001Z</time></trkpt><trkpt lat="46.0642973849824" lon="9.118200365138946"><ele>951.4000000000001</ele><time>2026-04-25T14:47:15.001Z</time></trkpt><trkpt lat="46.06421279987768" lon="9.118219061268404"><ele>952.0</ele><time>2026-04-25T14:47:16.001Z</time></trkpt><trkpt lat="46.06414918207218" lon="9.118253865542364"><ele>944.2</ele><time>2026-04-25T14:47:17.001Z</time></trkpt><trkpt lat="46.06407513660957" lon="9.118400381560111"><ele>936.4000000000001</ele><time>2026-04-25T14:47:19.001Z</time></trkpt><trkpt lat="46.06403339778869" lon="9.118513635671551"><ele>928.5999999999999</ele><time>2026-04-25T14:47:20.001Z</time></trkpt><trkpt lat="46.06398801416658" lon="9.118613340639255"><ele>920.8</ele><time>2026-04-25T14:47:21.001Z</time></trkpt><trkpt lat="46.06392175543586" lon="9.118701490986647"><ele>913.0</ele><time>2026-04-25T14:47:22.001Z</time></trkpt><trkpt lat="46.063822101324284" lon="9.118781358735394"><ele>913.0</ele><time>2026-04-25T14:47:23.001Z</time></trkpt><trkpt lat="46.06371699064153" lon="9.118845720781133"><ele>913.0</ele><time>2026-04-25T14:47:24.001Z</time></trkpt><trkpt lat="46.06362100630877" lon="9.118919550891025"><ele>913.0</ele><time>2026-04-25T14:47:25.001Z</time></trkpt><trkpt lat="46.063536428350254" lon="9.118984957895778"><ele>913.0</ele><time>2026-04-25T14:47:26.001Z</time></trkpt><trkpt lat="46.063472081491476" lon="9.119037746364226"><ele>913.0</ele><time>2026-04-25T14:47:27.001Z</time></trkpt><trkpt lat="46.06341699102148" lon="9.119099859804578"><ele>918.0</ele><time>2026-04-25T14:47:28.001Z</time></trkpt><trkpt lat="46.063378089416354" lon="9.119198370226984"><ele>923.0</ele><time>2026-04-25T14:47:29.001Z</time></trkpt><trkpt lat="46.0633509214863" lon="9.119314498015672"><ele>928.0</ele><time>2026-04-25T14:47:30.001Z</time></trkpt><trkpt lat="46.06332417835738" lon="9.119444993434668"><ele>933.0</ele><time>2026-04-25T14:47:31.001Z</time></trkpt><trkpt lat="46.06331596674099" lon="9.119588853378279"><ele>938.0</ele><time>2026-04-25T14:47:32.001Z</time></trkpt><trkpt lat="46.06330387542768" lon="9.119742403258257"><ele>938.0</ele><time>2026-04-25T14:47:33.001Z</time></trkpt><trkpt lat="46.063299741946246" lon="9.11989170588544"><ele>938.0</ele><time>2026-04-25T14:47:34.001Z</time></trkpt><trkpt lat="46.063291805467934" lon="9.120031236196123"><ele>938.0</ele><time>2026-04-25T14:47:35.001Z</time></trkpt><trkpt lat="46.06328525822411" lon="9.120161463285122"><ele>938.0</ele><time>2026-04-25T14:47:36.001Z</time></trkpt><trkpt lat="46.06325919048517" lon="9.12028185698132"><ele>938.0</ele><time>2026-04-25T14:47:37.001Z</time></trkpt><trkpt lat="46.063212821762" lon="9.1203598306662"><ele>942.3333333333334</ele><time>2026-04-25T14:47:38.001Z</time></trkpt><trkpt lat="46.06314863712154" lon="9.1204008506379"><ele>946.6666666666667</ele><time>2026-04-25T14:47:39.001Z</time></trkpt><trkpt lat="46.06308106263897" lon="9.120403490788188"><ele>951.0</ele><time>2026-04-25T14:47:40.001Z</time></trkpt><trkpt lat="46.063017968343644" lon="9.120360442234604"><ele>955.3333333333333</ele><time>2026-04-25T14:47:41.001Z</time></trkpt><trkpt lat="46.06297010944768" lon="9.120259100791559"><ele>959.6666666666666</ele><time>2026-04-25T14:47:42.001Z</time></trkpt><trkpt lat="46.0629338688656" lon="9.120121225132664"><ele>964.0</ele><time>2026-04-25T14:47:43Z</time></trkpt><trkpt lat="46.062899361297255" lon="9.11996151077551"><ele>958.2</ele><time>2026-04-25T14:47:44Z</time></trkpt><trkpt lat="46.06285908182432" lon="9.119803610513394"><ele>952.4000000000001</ele><time>2026-04-25T14:47:45Z</time></trkpt><trkpt lat="46.0628184954761" lon="9.11965317060845"><ele>946.6</ele><time>2026-04-25T14:47:46Z</time></trkpt><trkpt lat="46.06279023456179" lon="9.11950364382259"><ele>940.8</ele><time>2026-04-25T14:47:47Z</time></trkpt><trkpt lat="46.06274521303888" lon="9.119376553871952"><ele>935.0</ele><time>2026-04-25T14:47:48Z</time></trkpt><trkpt lat="46.062689102767166" lon="9.119288081835766"><ele>935.0</ele><time>2026-04-25T14:47:49Z</time></trkpt><trkpt lat="46.062600965672814" lon="9.119195096523198"><ele>935.0</ele><time>2026-04-25T14:47:50Z</time></trkpt><trkpt lat="46.06250625584307" lon="9.119114282167947"><ele>935.0</ele><time>2026-04-25T14:47:51Z</time></trkpt><trkpt lat="46.06242533492588" lon="9.119037565539498"><ele>935.0</ele><time>2026-04-25T14:47:52Z</time></trkpt><trkpt lat="46.06236304566052" lon="9.118944850693074"><ele>935.0</ele><time>2026-04-25T14:47:53Z</time></trkpt><trkpt lat="46.06233743361985" lon="9.118826672073835"><ele>935.0</ele><time>2026-04-25T14:47:54Z</time></trkpt><trkpt lat="46.06234148374457" lon="9.118701161900427"><ele>935.0</ele><time>2026-04-25T14:47:55Z</time></trkpt><trkpt lat="46.0623611957078" lon="9.118556268644715"><ele>935.0</ele><time>2026-04-25T14:47:56Z</time></trkpt><trkpt lat="46.06238754321103" lon="9.118406549148373"><ele>935.0</ele><time>2026-04-25T14:47:57Z</time></trkpt><trkpt lat="46.062408083457576" lon="9.118264077596457"><ele>935.0</ele><time>2026-04-25T14:47:58Z</time></trkpt><trkpt lat="46.062425349223034" lon="9.118130827339215"><ele>930.1666666666667</ele><time>2026-04-25T14:47:59Z</time></trkpt><trkpt lat="46.062442010669784" lon="9.118010676265575"><ele>925.3333333333334</ele><time>2026-04-25T14:48:00Z</time></trkpt><trkpt lat="46.06245019524415" lon="9.117896600946176"><ele>920.5</ele><time>2026-04-25T14:48:01Z</time></trkpt><trkpt lat="46.06244093742278" lon="9.117782577635879"><ele>915.6666666666667</ele><time>2026-04-25T14:48:02Z</time></trkpt><trkpt lat="46.06240596867123" lon="9.117692189835067"><ele>910.8333333333334</ele><time>2026-04-25T14:48:03Z</time></trkpt><trkpt lat="46.06234333809757" lon="9.117619133160225"><ele>906.0</ele><time>2026-04-25T14:48:04Z</time></trkpt><trkpt lat="46.062253357239136" lon="9.11757406650542"><ele>906.0</ele><time>2026-04-25T14:48:05Z</time></trkpt><trkpt lat="46.06213823692658" lon="9.117554070341036"><ele>905.9999999999999</ele><time>2026-04-25T14:48:06Z</time></trkpt><trkpt lat="46.062021265805846" lon="9.117534348511471"><ele>905.9999999999999</ele><time>2026-04-25T14:48:07Z</time></trkpt><trkpt lat="46.06191507662908" lon="9.117512116346882"><ele>906.0</ele><time>2026-04-25T14:48:08Z</time></trkpt><trkpt lat="46.0618207037299" lon="9.117495826918896"><ele>906.0</ele><time>2026-04-25T14:48:09Z</time></trkpt><trkpt lat="46.061734663575365" lon="9.117505676112765"><ele>906.0</ele><time>2026-04-25T14:48:10Z</time></trkpt><trkpt lat="46.06163417761331" lon="9.117555112507354"><ele>905.9999999999999</ele><time>2026-04-25T14:48:11Z</time></trkpt><trkpt lat="46.06152623081256" lon="9.11761540179812"><ele>905.9999999999999</ele><time>2026-04-25T14:48:12Z</time></trkpt><trkpt lat="46.06142721739384" lon="9.117662254306817"><ele>906.0</ele><time>2026-04-25T14:48:13Z</time></trkpt><trkpt lat="46.06133621690035" lon="9.117712754601072"><ele>906.0</ele><time>2026-04-25T14:48:14Z</time></trkpt><trkpt lat="46.06126220307236" lon="9.117785021534905"><ele>902.5999999999999</ele><time>2026-04-25T14:48:15Z</time></trkpt><trkpt lat="46.06120940520269" lon="9.117881222035674"><ele>899.1999999999999</ele><time>2026-04-25T14:48:16Z</time></trkpt><trkpt lat="46.06115972131205" lon="9.117980703507598"><ele>895.8000000000001</ele><time>2026-04-25T14:48:17Z</time></trkpt><trkpt lat="46.06108776840291" lon="9.118066182129402"><ele>892.4000000000001</ele><time>2026-04-25T14:48:18Z</time></trkpt><trkpt lat="46.06099613585078" lon="9.11812172314189"><ele>889.0</ele><time>2026-04-25T14:48:19Z</time></trkpt><trkpt lat="46.06089897695388" lon="9.118149363047657"><ele>888.9999999999999</ele><time>2026-04-25T14:48:20Z</time></trkpt><trkpt lat="46.060796820541476" lon="9.118123411922493"><ele>889.0</ele><time>2026-04-25T14:48:21Z</time></trkpt><trkpt lat="46.060704935527475" lon="9.118174617258438"><ele>889.0</ele><time>2026-04-25T14:48:22Z</time></trkpt><trkpt lat="46.06062336552704" lon="9.118198206045648"><ele>889.0</ele><time>2026-04-25T14:48:23Z</time></trkpt><trkpt lat="46.0605471294783" lon="9.118210141617231"><ele>888.9999999999999</ele><time>2026-04-25T14:48:24Z</time></trkpt><trkpt lat="46.06048176948342" lon="9.11814223639183"><ele>889.0</ele><time>2026-04-25T14:48:25Z</time></trkpt><trkpt lat="46.06043988076006" lon="9.118046167664726"><ele>887.4999999999999</ele><time>2026-04-25T14:48:26Z</time></trkpt><trkpt lat="46.0603983471282" lon="9.117963199707114"><ele>886.0</ele><time>2026-04-25T14:48:27Z</time></trkpt><trkpt lat="46.06034648203149" lon="9.117896436558407"><ele>884.5</ele><time>2026-04-25T14:48:28Z</time></trkpt><trkpt lat="46.060250723444845" lon="9.117903799486944"><ele>883.0</ele><time>2026-04-25T14:48:29Z</time></trkpt><trkpt lat="46.06015921150455" lon="9.117931378219902"><ele>881.4999999999999</ele><time>2026-04-25T14:48:30Z</time></trkpt><trkpt lat="46.06006289398109" lon="9.11799094273946"><ele>880.0</ele><time>2026-04-25T14:48:31Z</time></trkpt><trkpt lat="46.0599488230689" lon="9.118050536322638"><ele>882.5</ele><time>2026-04-25T14:48:32Z</time></trkpt><trkpt lat="46.059840251598985" lon="9.118130822413397"><ele>885.0</ele><time>2026-04-25T14:48:33Z</time></trkpt><trkpt lat="46.059735173426695" lon="9.118206603762374"><ele>887.5</ele><time>2026-04-25T14:48:34Z</time></trkpt><trkpt lat="46.05963328268442" lon="9.118276847158109"><ele>890.0</ele><time>2026-04-25T14:48:35Z</time></trkpt><trkpt lat="46.0595164324421" lon="9.11834130322644"><ele>890.0</ele><time>2026-04-25T14:48:36Z</time></trkpt><trkpt lat="46.05938036439484" lon="9.11837495492549"><ele>890.0</ele><time>2026-04-25T14:48:37Z</time></trkpt><trkpt lat="46.059244575033766" lon="9.118409373290309"><ele>890.0</ele><time>2026-04-25T14:48:38Z</time></trkpt><trkpt lat="46.05909925601726" lon="9.118456798766106"><ele>890.0</ele><time>2026-04-25T14:48:39Z</time></trkpt><trkpt lat="46.058943627303314" lon="9.118485891329987"><ele>886.25</ele><time>2026-04-25T14:48:40Z</time></trkpt><trkpt lat="46.05880246945886" lon="9.118523399596246"><ele>882.5</ele><time>2026-04-25T14:48:41Z</time></trkpt><trkpt lat="46.05866836792221" lon="9.118562293433847"><ele>878.75</ele><time>2026-04-25T14:48:42Z</time></trkpt><trkpt lat="46.05854622335304" lon="9.118606282419648"><ele>875.0</ele><time>2026-04-25T14:48:43Z</time></trkpt><trkpt lat="46.05842314358055" lon="9.118632643212573"><ele>875.0</ele><time>2026-04-25T14:48:44Z</time></trkpt><trkpt lat="46.05830233925058" lon="9.118650320907669"><ele>875.0</ele><time>2026-04-25T14:48:45Z</time></trkpt><trkpt lat="46.058199307164294" lon="9.118691074689833"><ele>875.0</ele><time>2026-04-25T14:48:46Z</time></trkpt><trkpt lat="46.058099718564826" lon="9.11874743008139"><ele>875.0</ele><time>2026-04-25T14:48:47Z</time></trkpt><trkpt lat="46.05800075393858" lon="9.118843820855261"><ele>875.0</ele><time>2026-04-25T14:48:48Z</time></trkpt><trkpt lat="46.05788500796294" lon="9.118914772485393"><ele>875.0</ele><time>2026-04-25T14:48:49Z</time></trkpt><trkpt lat="46.057782368602965" lon="9.119006222519648"><ele>875.0</ele><time>2026-04-25T14:48:50Z</time></trkpt><trkpt lat="46.05767208711125" lon="9.11910444309071"><ele>875.0</ele><time>2026-04-25T14:48:51Z</time></trkpt><trkpt lat="46.057560718633866" lon="9.119203624284177"><ele>875.0</ele><time>2026-04-25T14:48:52Z</time></trkpt><trkpt lat="46.05746026279573" lon="9.11929308689134"><ele>875.0</ele><time>2026-04-25T14:48:53Z</time></trkpt><trkpt lat="46.05736123393338" lon="9.11937624170585"><ele>875.0</ele><time>2026-04-25T14:48:54Z</time></trkpt><trkpt lat="46.05725764640563" lon="9.119453595857307"><ele>875.0</ele><time>2026-04-25T14:48:55Z</time></trkpt><trkpt lat="46.057154765399666" lon="9.119495532100318"><ele>868.5</ele><time>2026-04-25T14:48:56Z</time></trkpt><trkpt lat="46.057039260407464" lon="9.11952386313156"><ele>862.0</ele><time>2026-04-25T14:48:57Z</time></trkpt><trkpt lat="46.05692781349696" lon="9.119567145946165"><ele>855.5</ele><time>2026-04-25T14:48:58Z</time></trkpt><trkpt lat="46.05682801576034" lon="9.119632809222509"><ele>849.0</ele><time>2026-04-25T14:48:59Z</time></trkpt><trkpt lat="46.056693649751324" lon="9.119590679161034"><ele>846.1666666666666</ele><time>2026-04-25T14:49:01Z</time></trkpt><trkpt lat="46.05660204806252" lon="9.119615490721324"><ele>843.3333333333333</ele><time>2026-04-25T14:49:02Z</time></trkpt><trkpt lat="46.056519513019644" lon="9.119675748939038"><ele>840.5</ele><time>2026-04-25T14:49:03Z</time></trkpt><trkpt lat="46.05644057457381" lon="9.119698192322419"><ele>837.6666666666666</ele><time>2026-04-25T14:49:04Z</time></trkpt><trkpt lat="46.056365181313815" lon="9.119673770518974"><ele>834.8333333333333</ele><time>2026-04-25T14:49:05Z</time></trkpt><trkpt lat="46.05630864903752" lon="9.119568170368286"><ele>832.0</ele><time>2026-04-25T14:49:06Z</time></trkpt><trkpt lat="46.05623235900569" lon="9.119548820353648"><ele>832.0</ele><time>2026-04-25T14:49:07Z</time></trkpt><trkpt lat="46.056165073722" lon="9.11951467626983"><ele>832.0</ele><time>2026-04-25T14:49:08Z</time></trkpt><trkpt lat="46.05610011256545" lon="9.119536332160884"><ele>832.0</ele><time>2026-04-25T14:49:09.001Z</time></trkpt><trkpt lat="46.05606409276262" lon="9.11961597066038"><ele>832.0</ele><time>2026-04-25T14:49:10.001Z</time></trkpt><trkpt lat="46.056062752386495" lon="9.119720825378655"><ele>832.0</ele><time>2026-04-25T14:49:11.001Z</time></trkpt><trkpt lat="46.056050061645045" lon="9.11983513015925"><ele>832.0</ele><time>2026-04-25T14:49:12.001Z</time></trkpt><trkpt lat="46.05600191330732" lon="9.119928287067944"><ele>832.0</ele><time>2026-04-25T14:49:13.001Z</time></trkpt><trkpt lat="46.05592162054978" lon="9.119963949779773"><ele>832.8</ele><time>2026-04-25T14:49:14.001Z</time></trkpt><trkpt lat="46.055854202620075" lon="9.12002555508238"><ele>833.6</ele><time>2026-04-25T14:49:15.001Z</time></trkpt><trkpt lat="46.05578313961498" lon="9.120043268320538"><ele>834.4</ele><time>2026-04-25T14:49:16.001Z</time></trkpt><trkpt lat="46.05570651798406" lon="9.11995508893952"><ele>835.1999999999999</ele><time>2026-04-25T14:49:17.001Z</time></trkpt><trkpt lat="46.055577876087284" lon="9.119997892469868"><ele>836.0</ele><time>2026-04-25T14:49:19.001Z</time></trkpt><trkpt lat="46.055491555453415" lon="9.12005566735169"><ele>836.0</ele><time>2026-04-25T14:49:20.001Z</time></trkpt><trkpt lat="46.05538495660854" lon="9.120122024886072"><ele>836.0</ele><time>2026-04-25T14:49:21.001Z</time></trkpt><trkpt lat="46.05526093155996" lon="9.120186493593804"><ele>836.0</ele><time>2026-04-25T14:49:22.001Z</time></trkpt><trkpt lat="46.05512903847341" lon="9.120255399743424"><ele>836.0</ele><time>2026-04-25T14:49:23.001Z</time></trkpt><trkpt lat="46.05499583489053" lon="9.120332664013826"><ele>831.5</ele><time>2026-04-25T14:49:24.001Z</time></trkpt><trkpt lat="46.054875087084284" lon="9.120400328533416"><ele>827.0</ele><time>2026-04-25T14:49:25.001Z</time></trkpt><trkpt lat="46.05474686993501" lon="9.120466384232849"><ele>822.5</ele><time>2026-04-25T14:49:26.001Z</time></trkpt><trkpt lat="46.05462558808991" lon="9.120519360329306"><ele>818.0</ele><time>2026-04-25T14:49:27.001Z</time></trkpt><trkpt lat="46.05450364816009" lon="9.120571165134786"><ele>818.0</ele><time>2026-04-25T14:49:28.001Z</time></trkpt><trkpt lat="46.0543933246045" lon="9.120626776295033"><ele>818.0</ele><time>2026-04-25T14:49:29.001Z</time></trkpt><trkpt lat="46.05430638445073" lon="9.120675529370398"><ele>818.0</ele><time>2026-04-25T14:49:30.001Z</time></trkpt><trkpt lat="46.05425040311775" lon="9.120719261322785"><ele>818.0</ele><time>2026-04-25T14:49:31.001Z</time></trkpt><trkpt lat="46.05420260172585" lon="9.120641527927122"><ele>818.0</ele><time>2026-04-25T14:49:34.001Z</time></trkpt><trkpt lat="46.05430809594496" lon="9.120572081563648"><ele>818.0</ele><time>2026-04-25T14:49:36.001Z</time></trkpt><trkpt lat="46.05439269841097" lon="9.12051217142842"><ele>818.0</ele><time>2026-04-25T14:49:37.001Z</time></trkpt><trkpt lat="46.05448589981737" lon="9.120422669336321"><ele>818.0</ele><time>2026-04-25T14:49:38.001Z</time></trkpt><trkpt lat="46.05460051956438" lon="9.120355599811214"><ele>818.0</ele><time>2026-04-25T14:49:39.001Z</time></trkpt><trkpt lat="46.05471093233359" lon="9.120275534288318"><ele>818.0</ele><time>2026-04-25T14:49:40.001Z</time></trkpt><trkpt lat="46.05480888444028" lon="9.120185420665194"><ele>818.0</ele><time>2026-04-25T14:49:41.001Z</time></trkpt><trkpt lat="46.05489517813642" lon="9.12006662888994"><ele>818.0</ele><time>2026-04-25T14:49:42.001Z</time></trkpt><trkpt lat="46.054980577045995" lon="9.119930162890766"><ele>818.0</ele><time>2026-04-25T14:49:43.001Z</time></trkpt><trkpt lat="46.05506265101354" lon="9.119811903344731"><ele>815.4</ele><time>2026-04-25T14:49:44.001Z</time></trkpt><trkpt lat="46.05514899789341" lon="9.119694079180178"><ele>812.8</ele><time>2026-04-25T14:49:45.001Z</time></trkpt><trkpt lat="46.05522816742638" lon="9.119580825227802"><ele>810.2</ele><time>2026-04-25T14:49:46.001Z</time></trkpt><trkpt lat="46.055322304097466" lon="9.119508815791654"><ele>807.6</ele><time>2026-04-25T14:49:47.001Z</time></trkpt><trkpt lat="46.05540982988125" lon="9.119457076145451"><ele>805.0</ele><time>2026-04-25T14:49:48.001Z</time></trkpt><trkpt lat="46.055497564590176" lon="9.119411420037835"><ele>805.0</ele><time>2026-04-25T14:49:48.999Z</time></trkpt><trkpt lat="46.05557292985942" lon="9.119365312647608"><ele>805.0</ele><time>2026-04-25T14:49:49.999Z</time></trkpt><trkpt lat="46.0556453669383" lon="9.119282727186427"><ele>805.0</ele><time>2026-04-25T14:49:51.999Z</time></trkpt><trkpt lat="46.05558280036504" lon="9.119210586115077"><ele>805.0</ele><time>2026-04-25T14:49:52.999Z</time></trkpt><trkpt lat="46.055459118175705" lon="9.119248074009402"><ele>805.0</ele><time>2026-04-25T14:49:54.999Z</time></trkpt><trkpt lat="46.0553548255235" lon="9.119310432649737"><ele>805.0</ele><time>2026-04-25T14:49:55.999Z</time></trkpt><trkpt lat="46.055239315285995" lon="9.119372004739512"><ele>805.0</ele><time>2026-04-25T14:49:56.999Z</time></trkpt><trkpt lat="46.05512086614018" lon="9.119454069878564"><ele>805.0</ele><time>2026-04-25T14:49:57.999Z</time></trkpt><trkpt lat="46.05500096882429" lon="9.119545837993256"><ele>805.0</ele><time>2026-04-25T14:49:58.999Z</time></trkpt><trkpt lat="46.05489138581521" lon="9.119635070152379"><ele>801.5</ele><time>2026-04-25T14:49:59.999Z</time></trkpt><trkpt lat="46.05478768864252" lon="9.119707934189888"><ele>798.0</ele><time>2026-04-25T14:50:00.999Z</time></trkpt><trkpt lat="46.0546704935985" lon="9.119768790657062"><ele>794.5</ele><time>2026-04-25T14:50:01.999Z</time></trkpt><trkpt lat="46.05454224629672" lon="9.119804295090503"><ele>791.0</ele><time>2026-04-25T14:50:02.999Z</time></trkpt><trkpt lat="46.05441107769664" lon="9.119850212573876"><ele>791.0</ele><time>2026-04-25T14:50:03.999Z</time></trkpt><trkpt lat="46.054281944275786" lon="9.119895573896285"><ele>791.0</ele><time>2026-04-25T14:50:04.999Z</time></trkpt><trkpt lat="46.05416207773568" lon="9.119944661908567"><ele>791.0</ele><time>2026-04-25T14:50:05.999Z</time></trkpt><trkpt lat="46.054041603025034" lon="9.119991598301427"><ele>791.0</ele><time>2026-04-25T14:50:06.999Z</time></trkpt><trkpt lat="46.05393812356882" lon="9.11999447673097"><ele>792.0000000000001</ele><time>2026-04-25T14:50:07.999Z</time></trkpt><trkpt lat="46.053854884228365" lon="9.119996496417345"><ele>793.0</ele><time>2026-04-25T14:50:08.999Z</time></trkpt><trkpt lat="46.053793203788835" lon="9.119959387760035"><ele>794.0</ele><time>2026-04-25T14:50:09.999Z</time></trkpt><trkpt lat="46.05372607212788" lon="9.11992293968101"><ele>795.0</ele><time>2026-04-25T14:50:10.999Z</time></trkpt><trkpt lat="46.05368864776359" lon="9.11981255590346"><ele>796.0000000000001</ele><time>2026-04-25T14:50:12Z</time></trkpt><trkpt lat="46.05367191666297" lon="9.119663463625534"><ele>797.0</ele><time>2026-04-25T14:50:13Z</time></trkpt><trkpt lat="46.05365898240007" lon="9.119505537395606"><ele>797.0000000000001</ele><time>2026-04-25T14:50:14Z</time></trkpt><trkpt lat="46.053643561821744" lon="9.119340984421132"><ele>797.0</ele><time>2026-04-25T14:50:15Z</time></trkpt><trkpt lat="46.053639804337784" lon="9.119210728989174"><ele>797.0</ele><time>2026-04-25T14:50:16Z</time></trkpt><trkpt lat="46.053634716970336" lon="9.119090690408353"><ele>797.0</ele><time>2026-04-25T14:50:17Z</time></trkpt><trkpt lat="46.05360174464102" lon="9.118990432494916"><ele>797.0000000000001</ele><time>2026-04-25T14:50:18Z</time></trkpt><trkpt lat="46.05353955551731" lon="9.118922238256966"><ele>797.0</ele><time>2026-04-25T14:50:19Z</time></trkpt><trkpt lat="46.05345384485455" lon="9.11888520836041"><ele>793.0</ele><time>2026-04-25T14:50:20Z</time></trkpt><trkpt lat="46.05335471550594" lon="9.118850611637512"><ele>789.0</ele><time>2026-04-25T14:50:21Z</time></trkpt><trkpt lat="46.05324215680266" lon="9.118765887419983"><ele>785.0</ele><time>2026-04-25T14:50:22Z</time></trkpt><trkpt lat="46.05312679322774" lon="9.118701997996213"><ele>781.0</ele><time>2026-04-25T14:50:23Z</time></trkpt><trkpt lat="46.05302338595342" lon="9.118621254808664"><ele>781.0</ele><time>2026-04-25T14:50:24Z</time></trkpt><trkpt lat="46.052930012699704" lon="9.118519965644346"><ele>781.0</ele><time>2026-04-25T14:50:25Z</time></trkpt><trkpt lat="46.052832176522784" lon="9.118428144418735"><ele>781.0</ele><time>2026-04-25T14:50:26Z</time></trkpt><trkpt lat="46.05273402849062" lon="9.118332236430673"><ele>781.0</ele><time>2026-04-25T14:50:27Z</time></trkpt><trkpt lat="46.0526397259602" lon="9.118243529780198"><ele>777.4</ele><time>2026-04-25T14:50:28Z</time></trkpt><trkpt lat="46.05256433773915" lon="9.11813365964231"><ele>773.8</ele><time>2026-04-25T14:50:29Z</time></trkpt><trkpt lat="46.05248955119427" lon="9.118012623095943"><ele>770.1999999999999</ele><time>2026-04-25T14:50:30Z</time></trkpt><trkpt lat="46.05242149687117" lon="9.117895669248378"><ele>766.5999999999999</ele><time>2026-04-25T14:50:31Z</time></trkpt><trkpt lat="46.05236231519029" lon="9.117779250773385"><ele>763.0</ele><time>2026-04-25T14:50:32Z</time></trkpt><trkpt lat="46.05230648961013" lon="9.117680074642225"><ele>763.0</ele><time>2026-04-25T14:50:33Z</time></trkpt><trkpt lat="46.052254422629716" lon="9.117609415198931"><ele>763.0</ele><time>2026-04-25T14:50:34Z</time></trkpt><trkpt lat="46.052196438769" lon="9.117557889436673"><ele>763.0</ele><time>2026-04-25T14:50:35Z</time></trkpt><trkpt lat="46.05211066748756" lon="9.117602759463072"><ele>763.0</ele><time>2026-04-25T14:50:36Z</time></trkpt><trkpt lat="46.052030432862075" lon="9.117672073058817"><ele>763.0</ele><time>2026-04-25T14:50:37Z</time></trkpt><trkpt lat="46.05192732766837" lon="9.117736646301466"><ele>763.0</ele><time>2026-04-25T14:50:38Z</time></trkpt><trkpt lat="46.05183047856729" lon="9.11781092737604"><ele>763.0</ele><time>2026-04-25T14:50:39Z</time></trkpt><trkpt lat="46.051740342562766" lon="9.117867079994255"><ele>763.0</ele><time>2026-04-25T14:50:40Z</time></trkpt><trkpt lat="46.05166200718927" lon="9.11788450053568"><ele>763.0</ele><time>2026-04-25T14:50:41Z</time></trkpt><trkpt lat="46.05158520911155" lon="9.117845575792279"><ele>763.0</ele><time>2026-04-25T14:50:42Z</time></trkpt><trkpt lat="46.05150004742491" lon="9.117838291266967"><ele>763.0</ele><time>2026-04-25T14:50:43Z</time></trkpt><trkpt lat="46.05140965255675" lon="9.117810880749412"><ele>763.0</ele><time>2026-04-25T14:50:44Z</time></trkpt><trkpt lat="46.05130767826402" lon="9.117820633435151"><ele>759.2</ele><time>2026-04-25T14:50:45Z</time></trkpt><trkpt lat="46.05120842045819" lon="9.117845318337244"><ele>755.4</ele><time>2026-04-25T14:50:46Z</time></trkpt><trkpt lat="46.051112890346815" lon="9.11784024203262"><ele>751.6</ele><time>2026-04-25T14:50:47Z</time></trkpt><trkpt lat="46.051017166898646" lon="9.117853000006741"><ele>747.8000000000001</ele><time>2026-04-25T14:50:48Z</time></trkpt><trkpt lat="46.05092662953397" lon="9.117885072842592"><ele>744.0</ele><time>2026-04-25T14:50:49Z</time></trkpt><trkpt lat="46.05078086251938" lon="9.118042629488993"><ele>740.6</ele><time>2026-04-25T14:50:51Z</time></trkpt><trkpt lat="46.05069411843773" lon="9.118080421175144"><ele>737.2</ele><time>2026-04-25T14:50:52Z</time></trkpt><trkpt lat="46.05059745710137" lon="9.118080125411527"><ele>733.8000000000001</ele><time>2026-04-25T14:50:53Z</time></trkpt><trkpt lat="46.050481957743706" lon="9.118088869439648"><ele>730.4000000000001</ele><time>2026-04-25T14:50:54Z</time></trkpt><trkpt lat="46.05036592042466" lon="9.118128159838818"><ele>727.0</ele><time>2026-04-25T14:50:55Z</time></trkpt><trkpt lat="46.050249799766156" lon="9.118150741816647"><ele>727.0</ele><time>2026-04-25T14:50:56Z</time></trkpt><trkpt lat="46.050129605154986" lon="9.118171127749504"><ele>727.0</ele><time>2026-04-25T14:50:57Z</time></trkpt><trkpt lat="46.050015760476036" lon="9.118217322994509"><ele>727.0</ele><time>2026-04-25T14:50:58Z</time></trkpt><trkpt lat="46.04990425293739" lon="9.11827546421092"><ele>727.0</ele><time>2026-04-25T14:50:59Z</time></trkpt><trkpt lat="46.04983430565901" lon="9.118295370908"><ele>727.0</ele><time>2026-04-25T14:51:00Z</time></trkpt><trkpt lat="46.049752636671364" lon="9.11827707105191"><ele>727.4000000000001</ele><time>2026-04-25T14:51:02Z</time></trkpt><trkpt lat="46.049634112406096" lon="9.118266685131436"><ele>727.8000000000001</ele><time>2026-04-25T14:51:04Z</time></trkpt><trkpt lat="46.049554863658756" lon="9.11825795066973"><ele>728.2</ele><time>2026-04-25T14:51:05Z</time></trkpt><trkpt lat="46.049483650608586" lon="9.118261552888132"><ele>728.6</ele><time>2026-04-25T14:51:06Z</time></trkpt><trkpt lat="46.049388311001046" lon="9.11831250777949"><ele>729.0</ele><time>2026-04-25T14:51:08Z</time></trkpt><trkpt lat="46.04930556622796" lon="9.11849148333002"><ele>729.0</ele><time>2026-04-25T14:51:10Z</time></trkpt><trkpt lat="46.04923521695618" lon="9.118581327398285"><ele>729.0</ele><time>2026-04-25T14:51:11Z</time></trkpt><trkpt lat="46.04914765421836" lon="9.118676800026005"><ele>729.0</ele><time>2026-04-25T14:51:12Z</time></trkpt><trkpt lat="46.049058882304315" lon="9.118779117859816"><ele>729.0</ele><time>2026-04-25T14:51:13Z</time></trkpt><trkpt lat="46.04898428335786" lon="9.118920805928644"><ele>729.0</ele><time>2026-04-25T14:51:14Z</time></trkpt><trkpt lat="46.04889764935026" lon="9.119025934278826"><ele>726.0</ele><time>2026-04-25T14:51:15Z</time></trkpt><trkpt lat="46.04882555874233" lon="9.119141004495816"><ele>723.0</ele><time>2026-04-25T14:51:16Z</time></trkpt><trkpt lat="46.048754642582104" lon="9.119248929927448"><ele>720.0</ele><time>2026-04-25T14:51:17Z</time></trkpt><trkpt lat="46.048683780183275" lon="9.119355073666656"><ele>717.0</ele><time>2026-04-25T14:51:18Z</time></trkpt><trkpt lat="46.04861159858798" lon="9.11946068195981"><ele>714.0</ele><time>2026-04-25T14:51:19Z</time></trkpt><trkpt lat="46.048539482818974" lon="9.119569679806856"><ele>714.0</ele><time>2026-04-25T14:51:20Z</time></trkpt><trkpt lat="46.048473332214996" lon="9.119669305366715"><ele>714.0</ele><time>2026-04-25T14:51:21Z</time></trkpt><trkpt lat="46.048400547032315" lon="9.119729903322737"><ele>714.0</ele><time>2026-04-25T14:51:22Z</time></trkpt><trkpt lat="46.04831285565372" lon="9.119697716722927"><ele>714.0</ele><time>2026-04-25T14:51:23.001Z</time></trkpt><trkpt lat="46.04824166956173" lon="9.119735091319527"><ele>714.0</ele><time>2026-04-25T14:51:24.001Z</time></trkpt><trkpt lat="46.048180923293614" lon="9.1197619235451"><ele>714.0</ele><time>2026-04-25T14:51:25.001Z</time></trkpt><trkpt lat="46.04812975169254" lon="9.119835841393519"><ele>708.5</ele><time>2026-04-25T14:51:26.001Z</time></trkpt><trkpt lat="46.048069047029664" lon="9.11995242973563"><ele>703.0</ele><time>2026-04-25T14:51:27.001Z</time></trkpt><trkpt lat="46.047995587484166" lon="9.120098687443281"><ele>697.5</ele><time>2026-04-25T14:51:28.001Z</time></trkpt><trkpt lat="46.04791712948757" lon="9.120235747727284"><ele>692.0</ele><time>2026-04-25T14:51:29.001Z</time></trkpt><trkpt lat="46.04784828805743" lon="9.120364786240453"><ele>692.0</ele><time>2026-04-25T14:51:30.001Z</time></trkpt><trkpt lat="46.047779768809356" lon="9.120484469380107"><ele>692.0</ele><time>2026-04-25T14:51:31.001Z</time></trkpt><trkpt lat="46.04771596886421" lon="9.120600782711517"><ele>692.0</ele><time>2026-04-25T14:51:32.001Z</time></trkpt><trkpt lat="46.047649702488165" lon="9.120714677703157"><ele>692.0</ele><time>2026-04-25T14:51:33.001Z</time></trkpt><trkpt lat="46.047595622079896" lon="9.12084138335742"><ele>692.0</ele><time>2026-04-25T14:51:34.001Z</time></trkpt><trkpt lat="46.04754788672256" lon="9.120996723809258"><ele>692.75</ele><time>2026-04-25T14:51:35.001Z</time></trkpt><trkpt lat="46.04750766907096" lon="9.121181886519683"><ele>693.5</ele><time>2026-04-25T14:51:36.001Z</time></trkpt><trkpt lat="46.0474654544884" lon="9.12136707448773"><ele>694.25</ele><time>2026-04-25T14:51:37.001Z</time></trkpt><trkpt lat="46.0474063918939" lon="9.12154788175682"><ele>695.0</ele><time>2026-04-25T14:51:38.001Z</time></trkpt><trkpt lat="46.047370285161755" lon="9.12172858368567"><ele>695.0</ele><time>2026-04-25T14:51:39.001Z</time></trkpt><trkpt lat="46.04732822878602" lon="9.121905161587236"><ele>695.0</ele><time>2026-04-25T14:51:40.001Z</time></trkpt><trkpt lat="46.047273951109304" lon="9.122069121787202"><ele>695.0</ele><time>2026-04-25T14:51:41.001Z</time></trkpt><trkpt lat="46.04722018779483" lon="9.12222157866349"><ele>695.0</ele><time>2026-04-25T14:51:42.001Z</time></trkpt><trkpt lat="46.04716234313191" lon="9.12238366199445"><ele>695.6</ele><time>2026-04-25T14:51:43.001Z</time></trkpt><trkpt lat="46.047107371354016" lon="9.122520190173457"><ele>696.2</ele><time>2026-04-25T14:51:44.001Z</time></trkpt><trkpt lat="46.047062793719455" lon="9.122677177653767"><ele>696.8</ele><time>2026-04-25T14:51:45.001Z</time></trkpt><trkpt lat="46.04702493321648" lon="9.122823691084061"><ele>697.4</ele><time>2026-04-25T14:51:46.001Z</time></trkpt><trkpt lat="46.04699391612345" lon="9.12297403677714"><ele>698.0</ele><time>2026-04-25T14:51:47.001Z</time></trkpt><trkpt lat="46.046972300423725" lon="9.123119792046479"><ele>696.5999999999999</ele><time>2026-04-25T14:51:48.001Z</time></trkpt><trkpt lat="46.0469612467684" lon="9.123242139822377"><ele>695.1999999999999</ele><time>2026-04-25T14:51:49.001Z</time></trkpt><trkpt lat="46.046962315735044" lon="9.123366702026596"><ele>693.8</ele><time>2026-04-25T14:51:50.001Z</time></trkpt><trkpt lat="46.04697011871494" lon="9.123498540676213"><ele>692.4</ele><time>2026-04-25T14:51:51.001Z</time></trkpt><trkpt lat="46.04702070516671" lon="9.123642140327469"><ele>691.0</ele><time>2026-04-25T14:51:52.001Z</time></trkpt><trkpt lat="46.047061997287706" lon="9.12379195995191"><ele>691.0</ele><time>2026-04-25T14:51:53.001Z</time></trkpt><trkpt lat="46.04709791948035" lon="9.123949544104985"><ele>691.0</ele><time>2026-04-25T14:51:54.001Z</time></trkpt><trkpt lat="46.04712904493369" lon="9.124107918796732"><ele>691.0</ele><time>2026-04-25T14:51:54.999Z</time></trkpt><trkpt lat="46.04716486922237" lon="9.12426682170976"><ele>691.0</ele><time>2026-04-25T14:51:55.999Z</time></trkpt><trkpt lat="46.04719587289475" lon="9.124425355457555"><ele>685.75</ele><time>2026-04-25T14:51:56.999Z</time></trkpt><trkpt lat="46.04724816519539" lon="9.124582110807157"><ele>680.5</ele><time>2026-04-25T14:51:57.999Z</time></trkpt><trkpt lat="46.0473115650134" lon="9.124732106082938"><ele>675.25</ele><time>2026-04-25T14:51:58.999Z</time></trkpt><trkpt lat="46.047373656501726" lon="9.124870320502577"><ele>670.0</ele><time>2026-04-25T14:51:59.999Z</time></trkpt><trkpt lat="46.0474301580027" lon="9.125015456385741"><ele>676.4</ele><time>2026-04-25T14:52:00.999Z</time></trkpt><trkpt lat="46.04747951460747" lon="9.125150302828322"><ele>682.8</ele><time>2026-04-25T14:52:01.999Z</time></trkpt><trkpt lat="46.04752526674438" lon="9.125261581547804"><ele>689.2</ele><time>2026-04-25T14:52:02.999Z</time></trkpt><trkpt lat="46.04756639245065" lon="9.12535419673158"><ele>695.6</ele><time>2026-04-25T14:52:03.999Z</time></trkpt><trkpt lat="46.04762701037923" lon="9.125438401217986"><ele>702.0</ele><time>2026-04-25T14:52:04.999Z</time></trkpt><trkpt lat="46.04770334708014" lon="9.125532634612581"><ele>702.0</ele><time>2026-04-25T14:52:05.999Z</time></trkpt><trkpt lat="46.04778814585855" lon="9.125629709040247"><ele>702.0</ele><time>2026-04-25T14:52:06.999Z</time></trkpt><trkpt lat="46.04786856309899" lon="9.12572572404266"><ele>702.0</ele><time>2026-04-25T14:52:07.999Z</time></trkpt><trkpt lat="46.047956886877905" lon="9.125839238068206"><ele>702.0</ele><time>2026-04-25T14:52:08.999Z</time></trkpt><trkpt lat="46.04802135944953" lon="9.125980181298132"><ele>702.0</ele><time>2026-04-25T14:52:09.999Z</time></trkpt><trkpt lat="46.048095010136365" lon="9.12609888611771"><ele>704.5</ele><time>2026-04-25T14:52:10.999Z</time></trkpt><trkpt lat="46.048163642615194" lon="9.126234917177666"><ele>707.0</ele><time>2026-04-25T14:52:11.999Z</time></trkpt><trkpt lat="46.04823233388846" lon="9.126372273696811"><ele>709.5</ele><time>2026-04-25T14:52:12.999Z</time></trkpt><trkpt lat="46.04830620529614" lon="9.126501905146391"><ele>712.0</ele><time>2026-04-25T14:52:13.999Z</time></trkpt><trkpt lat="46.04838586430467" lon="9.126625457256004"><ele>705.0</ele><time>2026-04-25T14:52:14.999Z</time></trkpt><trkpt lat="46.048468795081355" lon="9.126739595522196"><ele>698.0</ele><time>2026-04-25T14:52:15.999Z</time></trkpt><trkpt lat="46.04855442018588" lon="9.126846352809595"><ele>691.0</ele><time>2026-04-25T14:52:16.999Z</time></trkpt><trkpt lat="46.04863480653854" lon="9.126949828409506"><ele>684.0</ele><time>2026-04-25T14:52:17.999Z</time></trkpt><trkpt lat="46.04870835553168" lon="9.127064974845121"><ele>677.0</ele><time>2026-04-25T14:52:18.999Z</time></trkpt><trkpt lat="46.04878497633779" lon="9.127200457440631"><ele>677.0</ele><time>2026-04-25T14:52:19.999Z</time></trkpt><trkpt lat="46.04885373355441" lon="9.127338845154874"><ele>677.0</ele><time>2026-04-25T14:52:20.999Z</time></trkpt><trkpt lat="46.04891271239192" lon="9.127484141846123"><ele>677.0</ele><time>2026-04-25T14:52:21.999Z</time></trkpt><trkpt lat="46.04895061913083" lon="9.12763959734849"><ele>677.0</ele><time>2026-04-25T14:52:22.999Z</time></trkpt><trkpt lat="46.04900692266895" lon="9.127775787673347"><ele>672.6</ele><time>2026-04-25T14:52:24Z</time></trkpt><trkpt lat="46.049033278273946" lon="9.127923077818863"><ele>668.2</ele><time>2026-04-25T14:52:25Z</time></trkpt><trkpt lat="46.04904085899835" lon="9.128075812841178"><ele>663.8</ele><time>2026-04-25T14:52:26Z</time></trkpt><trkpt lat="46.04904547639028" lon="9.128224303029093"><ele>659.4</ele><time>2026-04-25T14:52:27Z</time></trkpt><trkpt lat="46.049049182511176" lon="9.128384133758551"><ele>655.0</ele><time>2026-04-25T14:52:28Z</time></trkpt><trkpt lat="46.04904386910681" lon="9.128545572349344"><ele>655.4</ele><time>2026-04-25T14:52:29Z</time></trkpt><trkpt lat="46.04906147345991" lon="9.128701339670414"><ele>655.8</ele><time>2026-04-25T14:52:30Z</time></trkpt><trkpt lat="46.049104838549965" lon="9.1288490604948"><ele>656.2</ele><time>2026-04-25T14:52:31Z</time></trkpt><trkpt lat="46.049129758715935" lon="9.128996232923624"><ele>656.6</ele><time>2026-04-25T14:52:32Z</time></trkpt><trkpt lat="46.04914619321423" lon="9.129154513460996"><ele>657.0</ele><time>2026-04-25T14:52:33Z</time></trkpt><trkpt lat="46.049154910978714" lon="9.129313785989085"><ele>657.0</ele><time>2026-04-25T14:52:34Z</time></trkpt><trkpt lat="46.049168970358494" lon="9.129472129654896"><ele>657.0</ele><time>2026-04-25T14:52:35Z</time></trkpt><trkpt lat="46.04919320334145" lon="9.129633265668671"><ele>657.0</ele><time>2026-04-25T14:52:36Z</time></trkpt><trkpt lat="46.049217215348655" lon="9.129785168186888"><ele>657.0</ele><time>2026-04-25T14:52:37Z</time></trkpt><trkpt lat="46.04922459471095" lon="9.12993329657094"><ele>657.0</ele><time>2026-04-25T14:52:38Z</time></trkpt><trkpt lat="46.049193257889726" lon="9.130073637744706"><ele>655.4000000000001</ele><time>2026-04-25T14:52:39Z</time></trkpt><trkpt lat="46.049180419426875" lon="9.130208464420168"><ele>653.8000000000001</ele><time>2026-04-25T14:52:40Z</time></trkpt><trkpt lat="46.049186004737386" lon="9.130333125414237"><ele>652.2</ele><time>2026-04-25T14:52:41Z</time></trkpt><trkpt lat="46.04921717896273" lon="9.130467222582338"><ele>650.6</ele><time>2026-04-25T14:52:42Z</time></trkpt><trkpt lat="46.04925467651293" lon="9.130612054074968"><ele>649.0</ele><time>2026-04-25T14:52:43Z</time></trkpt><trkpt lat="46.04929627124083" lon="9.1307643895368"><ele>647.3333333333334</ele><time>2026-04-25T14:52:44Z</time></trkpt><trkpt lat="46.049338615964935" lon="9.130903513447453"><ele>645.6666666666667</ele><time>2026-04-25T14:52:45Z</time></trkpt><trkpt lat="46.04937661883558" lon="9.13103706815157"><ele>644.0</ele><time>2026-04-25T14:52:46Z</time></trkpt><trkpt lat="46.0494142084942" lon="9.131137618289983"><ele>642.3333333333334</ele><time>2026-04-25T14:52:47Z</time></trkpt><trkpt lat="46.04940723198459" lon="9.131247739630377"><ele>640.6666666666666</ele><time>2026-04-25T14:52:48Z</time></trkpt><trkpt lat="46.0494049274723" lon="9.13136007877865"><ele>639.0</ele><time>2026-04-25T14:52:49Z</time></trkpt><trkpt lat="46.04939728185695" lon="9.131466298188812"><ele>637.0</ele><time>2026-04-25T14:52:50Z</time></trkpt><trkpt lat="46.04929682915226" lon="9.13156444176037"><ele>635.0</ele><time>2026-04-25T14:52:51Z</time></trkpt><trkpt lat="46.049297578126314" lon="9.131675991458296"><ele>633.0</ele><time>2026-04-25T14:52:52Z</time></trkpt><trkpt lat="46.049316341107655" lon="9.13177650034113"><ele>631.0</ele><time>2026-04-25T14:52:53Z</time></trkpt><trkpt lat="46.049363352033915" lon="9.131868693369439"><ele>629.0</ele><time>2026-04-25T14:52:54Z</time></trkpt><trkpt lat="46.049429292773176" lon="9.131949852845368"><ele>627.0</ele><time>2026-04-25T14:52:55Z</time></trkpt><trkpt lat="46.049482924869736" lon="9.132036023369583"><ele>627.0</ele><time>2026-04-25T14:52:56Z</time></trkpt><trkpt lat="46.04950459075492" lon="9.132151950260361"><ele>627.0</ele><time>2026-04-25T14:52:57Z</time></trkpt><trkpt lat="46.049479407291045" lon="9.132290235930789"><ele>627.0</ele><time>2026-04-25T14:52:58Z</time></trkpt><trkpt lat="46.04949328994982" lon="9.132445314161295"><ele>627.0</ele><time>2026-04-25T14:52:59Z</time></trkpt><trkpt lat="46.04949037827807" lon="9.13260696955951"><ele>627.0</ele><time>2026-04-25T14:53:00Z</time></trkpt><trkpt lat="46.049491487360626" lon="9.132767534141486"><ele>623.8000000000001</ele><time>2026-04-25T14:53:01Z</time></trkpt><trkpt lat="46.04950103402879" lon="9.1329252338356"><ele>620.6</ele><time>2026-04-25T14:53:02Z</time></trkpt><trkpt lat="46.049515457734316" lon="9.13308272009006"><ele>617.4000000000001</ele><time>2026-04-25T14:53:03Z</time></trkpt><trkpt lat="46.04954007653931" lon="9.133235577952387"><ele>614.2</ele><time>2026-04-25T14:53:04Z</time></trkpt><trkpt lat="46.049569415957315" lon="9.133390644050927"><ele>611.0</ele><time>2026-04-25T14:53:05Z</time></trkpt><trkpt lat="46.04960419321574" lon="9.133541906363948"><ele>609.1666666666666</ele><time>2026-04-25T14:53:06Z</time></trkpt><trkpt lat="46.049640134861825" lon="9.133684333883727"><ele>607.3333333333333</ele><time>2026-04-25T14:53:07Z</time></trkpt><trkpt lat="46.049678481349375" lon="9.133800893062233"><ele>605.5</ele><time>2026-04-25T14:53:08Z</time></trkpt><trkpt lat="46.049718321108934" lon="9.133889183668137"><ele>603.6666666666666</ele><time>2026-04-25T14:53:09Z</time></trkpt><trkpt lat="46.049808257387305" lon="9.133970607761897"><ele>601.8333333333334</ele><time>2026-04-25T14:53:11Z</time></trkpt><trkpt lat="46.04987720416159" lon="9.13395453939347"><ele>600.0</ele><time>2026-04-25T14:53:12Z</time></trkpt><trkpt lat="46.0499487721294" lon="9.13385714087833"><ele>603.8</ele><time>2026-04-25T14:53:13Z</time></trkpt><trkpt lat="46.050030855120525" lon="9.133827970656244"><ele>607.6</ele><time>2026-04-25T14:53:14Z</time></trkpt><trkpt lat="46.05009316975974" lon="9.133811246040823"><ele>611.4</ele><time>2026-04-25T14:53:15Z</time></trkpt><trkpt lat="46.05014566445002" lon="9.133897894647792"><ele>615.2</ele><time>2026-04-25T14:53:17.001Z</time></trkpt><trkpt lat="46.05011710815558" lon="9.134092950984162"><ele>619.0</ele><time>2026-04-25T14:53:19.001Z</time></trkpt><trkpt lat="46.05007870968847" lon="9.134231315943346"><ele>619.0</ele><time>2026-04-25T14:53:20.001Z</time></trkpt><trkpt lat="46.05003250937291" lon="9.134398291480315"><ele>619.0</ele><time>2026-04-25T14:53:21.001Z</time></trkpt><trkpt lat="46.04999326390984" lon="9.134558765721337"><ele>619.0</ele><time>2026-04-25T14:53:22.001Z</time></trkpt><trkpt lat="46.04995574235599" lon="9.134712190821531"><ele>619.0</ele><time>2026-04-25T14:53:23.001Z</time></trkpt><trkpt lat="46.0499291979481" lon="9.134876223807936"><ele>609.6</ele><time>2026-04-25T14:53:24.001Z</time></trkpt><trkpt lat="46.04989011133461" lon="9.135026856146634"><ele>600.2</ele><time>2026-04-25T14:53:25.001Z</time></trkpt><trkpt lat="46.04983358896298" lon="9.1351642119641"><ele>590.8000000000001</ele><time>2026-04-25T14:53:26.001Z</time></trkpt><trkpt lat="46.049784774551384" lon="9.135291186070189"><ele>581.4</ele><time>2026-04-25T14:53:27.001Z</time></trkpt><trkpt lat="46.04976378898658" lon="9.135401624144702"><ele>572.0</ele><time>2026-04-25T14:53:28.001Z</time></trkpt><trkpt lat="46.04977056207441" lon="9.13551776599659"><ele>572.0</ele><time>2026-04-25T14:53:29.001Z</time></trkpt><trkpt lat="46.04978799233391" lon="9.13564477582022"><ele>572.0</ele><time>2026-04-25T14:53:30.001Z</time></trkpt><trkpt lat="46.049817292023675" lon="9.135762777855927"><ele>572.0</ele><time>2026-04-25T14:53:31.001Z</time></trkpt><trkpt lat="46.04986757364493" lon="9.135871411780986"><ele>572.0</ele><time>2026-04-25T14:53:32.001Z</time></trkpt><trkpt lat="46.04991802602043" lon="9.135958407138824"><ele>572.0</ele><time>2026-04-25T14:53:33.001Z</time></trkpt><trkpt lat="46.049960931023975" lon="9.136075381904762"><ele>572.0</ele><time>2026-04-25T14:53:34.001Z</time></trkpt><trkpt lat="46.04996950942396" lon="9.13620211509683"><ele>569.6</ele><time>2026-04-25T14:53:35.001Z</time></trkpt><trkpt lat="46.04995273088164" lon="9.136329198219899"><ele>567.2</ele><time>2026-04-25T14:53:36.001Z</time></trkpt><trkpt lat="46.04995829049388" lon="9.136452435119782"><ele>564.8</ele><time>2026-04-25T14:53:37.001Z</time></trkpt><trkpt lat="46.04999175511949" lon="9.136584198385734"><ele>562.4</ele><time>2026-04-25T14:53:38.001Z</time></trkpt><trkpt lat="46.0500430354628" lon="9.136717546573925"><ele>560.0</ele><time>2026-04-25T14:53:39.001Z</time></trkpt><trkpt lat="46.05008011860186" lon="9.136869940851335"><ele>563.5</ele><time>2026-04-25T14:53:40.001Z</time></trkpt><trkpt lat="46.05006648401305" lon="9.137031337320124"><ele>567.0</ele><time>2026-04-25T14:53:41.001Z</time></trkpt><trkpt lat="46.050089534045306" lon="9.137192510361729"><ele>570.5</ele><time>2026-04-25T14:53:42.001Z</time></trkpt><trkpt lat="46.050079739301374" lon="9.137354381562156"><ele>574.0</ele><time>2026-04-25T14:53:43.001Z</time></trkpt><trkpt lat="46.05010068424337" lon="9.137510752309167"><ele>574.0</ele><time>2026-04-25T14:53:44.001Z</time></trkpt><trkpt lat="46.05009757245736" lon="9.137671130684573"><ele>574.0</ele><time>2026-04-25T14:53:45.001Z</time></trkpt><trkpt lat="46.050094184894846" lon="9.137822262883688"><ele>574.0</ele><time>2026-04-25T14:53:46.001Z</time></trkpt><trkpt lat="46.05008610007306" lon="9.13797763572738"><ele>574.0</ele><time>2026-04-25T14:53:47.001Z</time></trkpt><trkpt lat="46.050079215907004" lon="9.138127491148323"><ele>574.0</ele><time>2026-04-25T14:53:48.001Z</time></trkpt><trkpt lat="46.050066236176924" lon="9.138273165371631"><ele>572.8333333333334</ele><time>2026-04-25T14:53:49.001Z</time></trkpt><trkpt lat="46.0500578507691" lon="9.138420013037384"><ele>571.6666666666667</ele><time>2026-04-25T14:53:50.001Z</time></trkpt><trkpt lat="46.050050454550004" lon="9.138562535152797"><ele>570.5</ele><time>2026-04-25T14:53:51.001Z</time></trkpt><trkpt lat="46.05005035427936" lon="9.138703166656397"><ele>569.3333333333334</ele><time>2026-04-25T14:53:52.001Z</time></trkpt><trkpt lat="46.05005828697939" lon="9.138819815864906"><ele>568.1666666666666</ele><time>2026-04-25T14:53:53.001Z</time></trkpt><trkpt lat="46.05007162733864" lon="9.138914709459575"><ele>567.0</ele><time>2026-04-25T14:53:54.001Z</time></trkpt><trkpt lat="46.05006956182782" lon="9.13902098598327"><ele>567.0</ele><time>2026-04-25T14:53:56.001Z</time></trkpt><trkpt lat="46.04999972245266" lon="9.139025526061634"><ele>567.0</ele><time>2026-04-25T14:53:58.001Z</time></trkpt><trkpt lat="46.04992709246752" lon="9.138853885778735"><ele>567.0</ele><time>2026-04-25T14:54:00.001Z</time></trkpt><trkpt lat="46.049896492051104" lon="9.138750018429562"><ele>567.0</ele><time>2026-04-25T14:54:00.998Z</time></trkpt><trkpt lat="46.04985982067786" lon="9.138642691246801"><ele>567.0</ele><time>2026-04-25T14:54:01.998Z</time></trkpt><trkpt lat="46.049830180636285" lon="9.138531662098353"><ele>562.1666666666666</ele><time>2026-04-25T14:54:02.998Z</time></trkpt><trkpt lat="46.0498025015749" lon="9.138414210199464"><ele>557.3333333333334</ele><time>2026-04-25T14:54:03.998Z</time></trkpt><trkpt lat="46.04977339769199" lon="9.138302644949094"><ele>552.5</ele><time>2026-04-25T14:54:04.998Z</time></trkpt><trkpt lat="46.049736079973854" lon="9.138205097560673"><ele>547.6666666666667</ele><time>2026-04-25T14:54:05.998Z</time></trkpt><trkpt lat="46.04969777210782" lon="9.138111156358088"><ele>542.8333333333334</ele><time>2026-04-25T14:54:06.998Z</time></trkpt><trkpt lat="46.04966285295481" lon="9.138021111274096"><ele>538.0</ele><time>2026-04-25T14:54:07.998Z</time></trkpt><trkpt lat="46.049641481764375" lon="9.137902933241145"><ele>538.0</ele><time>2026-04-25T14:54:08.999Z</time></trkpt><trkpt lat="46.04963696710346" lon="9.137777899068796"><ele>538.0</ele><time>2026-04-25T14:54:09.999Z</time></trkpt><trkpt lat="46.04963777097076" lon="9.137659611426056"><ele>538.0</ele><time>2026-04-25T14:54:10.999Z</time></trkpt><trkpt lat="46.049631856158086" lon="9.137544067865225"><ele>538.0</ele><time>2026-04-25T14:54:11.999Z</time></trkpt><trkpt lat="46.049606461217465" lon="9.13743137800147"><ele>538.0</ele><time>2026-04-25T14:54:12.999Z</time></trkpt><trkpt lat="46.04955019856441" lon="9.137305305562883"><ele>538.0</ele><time>2026-04-25T14:54:13.999Z</time></trkpt><trkpt lat="46.04949182315016" lon="9.137181370521759"><ele>539.6</ele><time>2026-04-25T14:54:14.999Z</time></trkpt><trkpt lat="46.04942548726712" lon="9.137053494263526"><ele>541.1999999999999</ele><time>2026-04-25T14:54:15.999Z</time></trkpt><trkpt lat="46.049362672241806" lon="9.136927853695767"><ele>542.8</ele><time>2026-04-25T14:54:16.999Z</time></trkpt><trkpt lat="46.049298724594145" lon="9.13679847656449"><ele>544.4</ele><time>2026-04-25T14:54:17.999Z</time></trkpt><trkpt lat="46.049231973244524" lon="9.13667133219067"><ele>546.0</ele><time>2026-04-25T14:54:18.999Z</time></trkpt><trkpt lat="46.04916644549183" lon="9.136543255391045"><ele>542.0</ele><time>2026-04-25T14:54:19.999Z</time></trkpt><trkpt lat="46.04910668467986" lon="9.136411113224707"><ele>538.0</ele><time>2026-04-25T14:54:20.999Z</time></trkpt><trkpt lat="46.04906032317054" lon="9.13628473530533"><ele>534.0</ele><time>2026-04-25T14:54:21.999Z</time></trkpt><trkpt lat="46.04901994099947" lon="9.13618920087662"><ele>530.0</ele><time>2026-04-25T14:54:22.999Z</time></trkpt><trkpt lat="46.048975835535515" lon="9.136089278317282"><ele>526.0</ele><time>2026-04-25T14:54:23.999Z</time></trkpt><trkpt lat="46.04889854040945" lon="9.136029076323078"><ele>526.0</ele><time>2026-04-25T14:54:24.999Z</time></trkpt><trkpt lat="46.0488068733389" lon="9.136011710981597"><ele>526.0</ele><time>2026-04-25T14:54:25.999Z</time></trkpt><trkpt lat="46.04871732741068" lon="9.136013211041945"><ele>526.0</ele><time>2026-04-25T14:54:26.999Z</time></trkpt><trkpt lat="46.048633130394954" lon="9.13597889115859"><ele>526.0</ele><time>2026-04-25T14:54:27.999Z</time></trkpt><trkpt lat="46.04855029878226" lon="9.135927682306027"><ele>526.0</ele><time>2026-04-25T14:54:28.999Z</time></trkpt><trkpt lat="46.048470266377294" lon="9.135840953953686"><ele>526.0</ele><time>2026-04-25T14:54:29.999Z</time></trkpt><trkpt lat="46.04840125341335" lon="9.135722790257889"><ele>526.0</ele><time>2026-04-25T14:54:30.999Z</time></trkpt><trkpt lat="46.04829131250075" lon="9.13566152042172"><ele>526.0</ele><time>2026-04-25T14:54:31.999Z</time></trkpt><trkpt lat="46.04818049503321" lon="9.135592565023442"><ele>526.0</ele><time>2026-04-25T14:54:33Z</time></trkpt><trkpt lat="46.04808312167784" lon="9.135533788502336"><ele>523.8</ele><time>2026-04-25T14:54:34Z</time></trkpt><trkpt lat="46.04799539912272" lon="9.135467555076339"><ele>521.6</ele><time>2026-04-25T14:54:35Z</time></trkpt><trkpt lat="46.047904006214026" lon="9.135401405478513"><ele>519.4</ele><time>2026-04-25T14:54:36Z</time></trkpt><trkpt lat="46.04783406069419" lon="9.135336760863456"><ele>517.2</ele><time>2026-04-25T14:54:37Z</time></trkpt><trkpt lat="46.04778535871314" lon="9.135251148894959"><ele>515.0</ele><time>2026-04-25T14:54:38Z</time></trkpt><trkpt lat="46.047730313517015" lon="9.135141089929437"><ele>515.0</ele><time>2026-04-25T14:54:39Z</time></trkpt><trkpt lat="46.047655854276655" lon="9.135026645484672"><ele>515.0</ele><time>2026-04-25T14:54:40Z</time></trkpt><trkpt lat="46.04760787245316" lon="9.134909077854308"><ele>515.0</ele><time>2026-04-25T14:54:41Z</time></trkpt><trkpt lat="46.04755900937176" lon="9.134794198344713"><ele>515.0</ele><time>2026-04-25T14:54:42Z</time></trkpt><trkpt lat="46.04749626388453" lon="9.134717601274524"><ele>515.0</ele><time>2026-04-25T14:54:43Z</time></trkpt><trkpt lat="46.04742288603219" lon="9.13466717883073"><ele>513.0</ele><time>2026-04-25T14:54:44Z</time></trkpt><trkpt lat="46.04733699245805" lon="9.13465888936735"><ele>511.0</ele><time>2026-04-25T14:54:45Z</time></trkpt><trkpt lat="46.04724416364732" lon="9.134689654979029"><ele>509.0</ele><time>2026-04-25T14:54:46Z</time></trkpt><trkpt lat="46.04716028246979" lon="9.134718462678011"><ele>507.0</ele><time>2026-04-25T14:54:47Z</time></trkpt><trkpt lat="46.04708758085543" lon="9.134733477823655"><ele>504.99999999999994</ele><time>2026-04-25T14:54:48Z</time></trkpt><trkpt lat="46.047023332869315" lon="9.134725087838657"><ele>503.0</ele><time>2026-04-25T14:54:49Z</time></trkpt><trkpt lat="46.04696594908994" lon="9.134679195153097"><ele>502.99999999999994</ele><time>2026-04-25T14:54:50Z</time></trkpt><trkpt lat="46.046931183501584" lon="9.134598482078465"><ele>503.0</ele><time>2026-04-25T14:54:51Z</time></trkpt><trkpt lat="46.0469140764942" lon="9.13450103254788"><ele>503.0</ele><time>2026-04-25T14:54:52Z</time></trkpt><trkpt lat="46.046893668598436" lon="9.134414143775722"><ele>503.0</ele><time>2026-04-25T14:54:53Z</time></trkpt><trkpt lat="46.0467862516872" lon="9.13434254457196"><ele>502.99999999999994</ele><time>2026-04-25T14:54:55Z</time></trkpt><trkpt lat="46.04672482466146" lon="9.134403104955348"><ele>503.0</ele><time>2026-04-25T14:54:56Z</time></trkpt><trkpt lat="46.04669683571651" lon="9.134494719194297"><ele>503.0</ele><time>2026-04-25T14:54:57Z</time></trkpt><trkpt lat="46.04675408634304" lon="9.134606582395453"><ele>502.99999999999994</ele><time>2026-04-25T14:54:58Z</time></trkpt><trkpt lat="46.0468088723148" lon="9.134705497555716"><ele>502.99999999999994</ele><time>2026-04-25T14:54:59Z</time></trkpt><trkpt lat="46.04686509179675" lon="9.134814579219686"><ele>503.0</ele><time>2026-04-25T14:55:00Z</time></trkpt><trkpt lat="46.04691362342428" lon="9.134922147227691"><ele>503.0</ele><time>2026-04-25T14:55:01Z</time></trkpt><trkpt lat="46.0469883729887" lon="9.134993730737737"><ele>501.66666666666663</ele><time>2026-04-25T14:55:02Z</time></trkpt><trkpt lat="46.04706901473359" lon="9.135025686470433"><ele>500.3333333333333</ele><time>2026-04-25T14:55:03Z</time></trkpt><trkpt lat="46.04711768392359" lon="9.135107212158587"><ele>499.0</ele><time>2026-04-25T14:55:04Z</time></trkpt><trkpt lat="46.04713531062669" lon="9.135206218878613"><ele>497.66666666666663</ele><time>2026-04-25T14:55:05Z</time></trkpt><trkpt lat="46.0471306401272" lon="9.135316502601322"><ele>496.3333333333333</ele><time>2026-04-25T14:55:06Z</time></trkpt><trkpt lat="46.047127565607894" lon="9.135433805127803"><ele>495.0</ele><time>2026-04-25T14:55:07Z</time></trkpt><trkpt lat="46.047156982259146" lon="9.135554744712772"><ele>495.0</ele><time>2026-04-25T14:55:08Z</time></trkpt><trkpt lat="46.04721627381248" lon="9.135690140472628"><ele>495.0</ele><time>2026-04-25T14:55:09Z</time></trkpt><trkpt lat="46.047281354452934" lon="9.135821258590157"><ele>495.0</ele><time>2026-04-25T14:55:10Z</time></trkpt><trkpt lat="46.04733768525431" lon="9.135944216415467"><ele>495.0</ele><time>2026-04-25T14:55:11Z</time></trkpt><trkpt lat="46.0473937535191" lon="9.136066482795043"><ele>495.0</ele><time>2026-04-25T14:55:12Z</time></trkpt><trkpt lat="46.04744304658686" lon="9.136170250845185"><ele>493.5</ele><time>2026-04-25T14:55:13Z</time></trkpt><trkpt lat="46.04748618313222" lon="9.136259990264058"><ele>492.0</ele><time>2026-04-25T14:55:14Z</time></trkpt><trkpt lat="46.04750964484235" lon="9.136350116457775"><ele>490.5</ele><time>2026-04-25T14:55:15Z</time></trkpt><trkpt lat="46.04745740210147" lon="9.136500164887657"><ele>489.0</ele><time>2026-04-25T14:55:17.001Z</time></trkpt><trkpt lat="46.04739758893255" lon="9.136534985902928"><ele>487.5</ele><time>2026-04-25T14:55:18.001Z</time></trkpt><trkpt lat="46.047308604255136" lon="9.136551142060023"><ele>486.0</ele><time>2026-04-25T14:55:19.001Z</time></trkpt><trkpt lat="46.04722410843792" lon="9.136560074503226"><ele>484.3333333333333</ele><time>2026-04-25T14:55:20.001Z</time></trkpt><trkpt lat="46.04713797662447" lon="9.136572184755522"><ele>482.66666666666663</ele><time>2026-04-25T14:55:21.001Z</time></trkpt><trkpt lat="46.047057683165704" lon="9.1366007333897"><ele>481.0</ele><time>2026-04-25T14:55:22.001Z</time></trkpt><trkpt lat="46.04698576118322" lon="9.136664888636748"><ele>479.3333333333333</ele><time>2026-04-25T14:55:23.001Z</time></trkpt><trkpt lat="46.046947752912814" lon="9.136748329398076"><ele>477.66666666666663</ele><time>2026-04-25T14:55:24.001Z</time></trkpt><trkpt lat="46.046942553699964" lon="9.136841846418688"><ele>476.0</ele><time>2026-04-25T14:55:25.001Z</time></trkpt><trkpt lat="46.04697005000998" lon="9.136938271448793"><ele>476.0</ele><time>2026-04-25T14:55:26.001Z</time></trkpt><trkpt lat="46.04698749457957" lon="9.137040563548497"><ele>476.0</ele><time>2026-04-25T14:55:27.001Z</time></trkpt><trkpt lat="46.047002794920324" lon="9.137162539573051"><ele>476.0</ele><time>2026-04-25T14:55:28.001Z</time></trkpt><trkpt lat="46.047014376622116" lon="9.137317275303602"><ele>476.0</ele><time>2026-04-25T14:55:29.001Z</time></trkpt><trkpt lat="46.04703254346211" lon="9.13748058519894"><ele>476.0</ele><time>2026-04-25T14:55:30.001Z</time></trkpt><trkpt lat="46.04705888808114" lon="9.137640735317543"><ele>475.49999999999994</ele><time>2026-04-25T14:55:31.001Z</time></trkpt><trkpt lat="46.04709340343109" lon="9.13778822230236"><ele>475.0</ele><time>2026-04-25T14:55:32.001Z</time></trkpt><trkpt lat="46.04712198997666" lon="9.137921023310753"><ele>474.5</ele><time>2026-04-25T14:55:33.001Z</time></trkpt><trkpt lat="46.047119602741375" lon="9.138021374510535"><ele>474.0</ele><time>2026-04-25T14:55:34.001Z</time></trkpt><trkpt lat="46.04711022668975" lon="9.138113355125574"><ele>473.49999999999994</ele><time>2026-04-25T14:55:35.001Z</time></trkpt><trkpt lat="46.0470597527667" lon="9.138185498039439"><ele>473.0</ele><time>2026-04-25T14:55:36.001Z</time></trkpt><trkpt lat="46.04700072869914" lon="9.138235290125074"><ele>472.79999999999995</ele><time>2026-04-25T14:55:37.001Z</time></trkpt><trkpt lat="46.04692449823445" lon="9.13823927727894"><ele>472.59999999999997</ele><time>2026-04-25T14:55:38.001Z</time></trkpt><trkpt lat="46.046858469749225" lon="9.138269639497247"><ele>472.40000000000003</ele><time>2026-04-25T14:55:39.001Z</time></trkpt><trkpt lat="46.04675755042758" lon="9.138299470012536"><ele>472.20000000000005</ele><time>2026-04-25T14:55:41.001Z</time></trkpt><trkpt lat="46.04669689113696" lon="9.138326849381524"><ele>472.0</ele><time>2026-04-25T14:55:44.001Z</time></trkpt><trkpt lat="46.046770692131034" lon="9.138531759638152"><ele>472.0</ele><time>2026-04-25T14:55:46.001Z</time></trkpt><trkpt lat="46.046799278629194" lon="9.138633528131088"><ele>472.00000000000006</ele><time>2026-04-25T14:55:47.001Z</time></trkpt><trkpt lat="46.04684304295544" lon="9.138701978787465"><ele>472.00000000000006</ele><time>2026-04-25T14:55:48.001Z</time></trkpt><trkpt lat="46.04693331646594" lon="9.138851871143535"><ele>472.0</ele><time>2026-04-25T14:55:50.001Z</time></trkpt><trkpt lat="46.04698325553343" lon="9.138973318748745"><ele>472.0</ele><time>2026-04-25T14:55:51.001Z</time></trkpt><trkpt lat="46.04704677155987" lon="9.139099795999599"><ele>471.40000000000003</ele><time>2026-04-25T14:55:52.001Z</time></trkpt><trkpt lat="46.0470978686595" lon="9.139243757993572"><ele>470.80000000000007</ele><time>2026-04-25T14:55:53.001Z</time></trkpt><trkpt lat="46.04715049244384" lon="9.139358426197703"><ele>470.2</ele><time>2026-04-25T14:55:54.001Z</time></trkpt><trkpt lat="46.04721049410534" lon="9.13948903568511"><ele>469.6</ele><time>2026-04-25T14:55:55.001Z</time></trkpt><trkpt lat="46.04727051759881" lon="9.139619692250035"><ele>469.0</ele><time>2026-04-25T14:55:56.001Z</time></trkpt><trkpt lat="46.0473284840501" lon="9.139745871477002"><ele>469.0</ele><time>2026-04-25T14:55:57.001Z</time></trkpt><trkpt lat="46.04738646070387" lon="9.139874479529855"><ele>469.0</ele><time>2026-04-25T14:55:58.001Z</time></trkpt><trkpt lat="46.04744366621096" lon="9.14000366471503"><ele>469.0</ele><time>2026-04-25T14:55:59.001Z</time></trkpt><trkpt lat="46.047507636863706" lon="9.14013363541384"><ele>469.0</ele><time>2026-04-25T14:56:00.001Z</time></trkpt><trkpt lat="46.04756522622802" lon="9.140280128255377"><ele>469.0</ele><time>2026-04-25T14:56:01.001Z</time></trkpt><trkpt lat="46.04762531654539" lon="9.14045021088132"><ele>469.0</ele><time>2026-04-25T14:56:02.001Z</time></trkpt><trkpt lat="46.04770097770618" lon="9.140630822611993"><ele>469.0</ele><time>2026-04-25T14:56:03.001Z</time></trkpt><trkpt lat="46.047779336955045" lon="9.140811448310748"><ele>469.0</ele><time>2026-04-25T14:56:04.001Z</time></trkpt><trkpt lat="46.04784609198716" lon="9.140968889635191"><ele>469.0</ele><time>2026-04-25T14:56:05.001Z</time></trkpt><trkpt lat="46.047914829654935" lon="9.141128241441452"><ele>469.0</ele><time>2026-04-25T14:56:06.001Z</time></trkpt><trkpt lat="46.04798430917364" lon="9.141287404030662"><ele>469.0</ele><time>2026-04-25T14:56:06.999Z</time></trkpt><trkpt lat="46.04805552550987" lon="9.14145064006144"><ele>469.0</ele><time>2026-04-25T14:56:07.999Z</time></trkpt><trkpt lat="46.04812760721827" lon="9.141624624942681"><ele>469.0</ele><time>2026-04-25T14:56:08.999Z</time></trkpt><trkpt lat="46.0482107103904" lon="9.14180753482855"><ele>468.25</ele><time>2026-04-25T14:56:09.999Z</time></trkpt><trkpt lat="46.0482729052712" lon="9.141946634786928"><ele>467.5</ele><time>2026-04-25T14:56:10.999Z</time></trkpt><trkpt lat="46.048349297007334" lon="9.142126515723461"><ele>466.75</ele><time>2026-04-25T14:56:11.999Z</time></trkpt><trkpt lat="46.04842542408101" lon="9.14229911786561"><ele>466.0</ele><time>2026-04-25T14:56:12.999Z</time></trkpt><trkpt lat="46.048502008400405" lon="9.142473452839228"><ele>468.25</ele><time>2026-04-25T14:56:13.999Z</time></trkpt><trkpt lat="46.04857600045137" lon="9.142646786669342"><ele>470.5</ele><time>2026-04-25T14:56:14.999Z</time></trkpt><trkpt lat="46.048650287981076" lon="9.142810256146184"><ele>472.75</ele><time>2026-04-25T14:56:15.999Z</time></trkpt><trkpt lat="46.0487260688912" lon="9.142977937473276"><ele>475.0</ele><time>2026-04-25T14:56:16.999Z</time></trkpt><trkpt lat="46.04879022818336" lon="9.143149351303254"><ele>472.5</ele><time>2026-04-25T14:56:17.999Z</time></trkpt><trkpt lat="46.048844229966704" lon="9.143310403303875"><ele>470.0</ele><time>2026-04-25T14:56:18.999Z</time></trkpt><trkpt lat="46.048876606392255" lon="9.143478684392608"><ele>467.5</ele><time>2026-04-25T14:56:19.999Z</time></trkpt><trkpt lat="46.04891878649081" lon="9.143613978079214"><ele>465.0</ele><time>2026-04-25T14:56:20.999Z</time></trkpt><trkpt lat="46.048961804595" lon="9.143746194720643"><ele>465.0</ele><time>2026-04-25T14:56:21.999Z</time></trkpt><trkpt lat="46.04901115560589" lon="9.14385936208895"><ele>465.0</ele><time>2026-04-25T14:56:22.999Z</time></trkpt><trkpt lat="46.04908812450185" lon="9.143953449295012"><ele>465.0</ele><time>2026-04-25T14:56:23.999Z</time></trkpt><trkpt lat="46.049190844639206" lon="9.14402873154751"><ele>465.0</ele><time>2026-04-25T14:56:24.999Z</time></trkpt><trkpt lat="46.049289699515654" lon="9.144092323283482"><ele>465.0</ele><time>2026-04-25T14:56:25.999Z</time></trkpt><trkpt lat="46.04938825291338" lon="9.144189404212234"><ele>467.5</ele><time>2026-04-25T14:56:26.999Z</time></trkpt><trkpt lat="46.049485756665455" lon="9.14429908949523"><ele>470.0</ele><time>2026-04-25T14:56:27.999Z</time></trkpt><trkpt lat="46.04957459116416" lon="9.144395715387263"><ele>472.5</ele><time>2026-04-25T14:56:29Z</time></trkpt><trkpt lat="46.049664503069074" lon="9.144496518140244"><ele>475.0</ele><time>2026-04-25T14:56:30Z</time></trkpt><trkpt lat="46.0497444270809" lon="9.144587887040553"><ele>475.0</ele><time>2026-04-25T14:56:31Z</time></trkpt><trkpt lat="46.04982395827962" lon="9.144682727169744"><ele>475.0</ele><time>2026-04-25T14:56:32Z</time></trkpt><trkpt lat="46.04992302002168" lon="9.14476353255916"><ele>475.0</ele><time>2026-04-25T14:56:33Z</time></trkpt><trkpt lat="46.05005606022106" lon="9.144813683768017"><ele>475.0</ele><time>2026-04-25T14:56:34Z</time></trkpt><trkpt lat="46.05018563666243" lon="9.144865464095536"><ele>475.5</ele><time>2026-04-25T14:56:35Z</time></trkpt><trkpt lat="46.05029875375802" lon="9.144935926905434"><ele>476.0</ele><time>2026-04-25T14:56:36Z</time></trkpt><trkpt lat="46.05041673938741" lon="9.14499685925874"><ele>476.5</ele><time>2026-04-25T14:56:37Z</time></trkpt><trkpt lat="46.050522372742925" lon="9.145094468407766"><ele>477.0</ele><time>2026-04-25T14:56:38Z</time></trkpt><trkpt lat="46.05060865670562" lon="9.14520511207349"><ele>477.0</ele><time>2026-04-25T14:56:39Z</time></trkpt><trkpt lat="46.05068289561983" lon="9.145305102207711"><ele>477.00000000000006</ele><time>2026-04-25T14:56:40Z</time></trkpt><trkpt lat="46.05077075896087" lon="9.145338653556141"><ele>477.00000000000006</ele><time>2026-04-25T14:56:41Z</time></trkpt><trkpt lat="46.050863004456296" lon="9.145338834557876"><ele>477.0</ele><time>2026-04-25T14:56:42Z</time></trkpt><trkpt lat="46.05096406845698" lon="9.145329974090561"><ele>477.0</ele><time>2026-04-25T14:56:43Z</time></trkpt><trkpt lat="46.05105588058753" lon="9.145318660805778"><ele>475.6666666666667</ele><time>2026-04-25T14:56:44Z</time></trkpt><trkpt lat="46.051131906571065" lon="9.145309600653258"><ele>474.33333333333337</ele><time>2026-04-25T14:56:45Z</time></trkpt><trkpt lat="46.05118684678104" lon="9.145384780183209"><ele>473.0</ele><time>2026-04-25T14:56:46Z</time></trkpt><trkpt lat="46.051210374376716" lon="9.145493728167386"><ele>471.6666666666667</ele><time>2026-04-25T14:56:47Z</time></trkpt><trkpt lat="46.051197386816355" lon="9.145611359653053"><ele>470.33333333333337</ele><time>2026-04-25T14:56:48Z</time></trkpt><trkpt lat="46.051169391585454" lon="9.145738862717064"><ele>469.0</ele><time>2026-04-25T14:56:49Z</time></trkpt><trkpt lat="46.05114056844311" lon="9.145881554326698"><ele>469.00000000000006</ele><time>2026-04-25T14:56:50Z</time></trkpt><trkpt lat="46.051117276298235" lon="9.14602428083015"><ele>469.0</ele><time>2026-04-25T14:56:51Z</time></trkpt><trkpt lat="46.0510976919943" lon="9.146153959529565"><ele>469.0</ele><time>2026-04-25T14:56:52Z</time></trkpt><trkpt lat="46.051074285757906" lon="9.146264647387545"><ele>469.0</ele><time>2026-04-25T14:56:53Z</time></trkpt><trkpt lat="46.05102981168417" lon="9.146346675000395"><ele>469.00000000000006</ele><time>2026-04-25T14:56:54Z</time></trkpt><trkpt lat="46.05096745910508" lon="9.14639464161813"><ele>469.0</ele><time>2026-04-25T14:56:55Z</time></trkpt><trkpt lat="46.05086266083802" lon="9.146372186831243"><ele>465.6</ele><time>2026-04-25T14:56:56Z</time></trkpt><trkpt lat="46.05077064158874" lon="9.146380902574846"><ele>462.2</ele><time>2026-04-25T14:56:57Z</time></trkpt><trkpt lat="46.05066632635175" lon="9.146381402760627"><ele>458.80000000000007</ele><time>2026-04-25T14:56:58Z</time></trkpt><trkpt lat="46.05058403240072" lon="9.146392248769251"><ele>455.40000000000003</ele><time>2026-04-25T14:56:59Z</time></trkpt><trkpt lat="46.05049929379985" lon="9.146408483126367"><ele>452.0</ele><time>2026-04-25T14:57:00Z</time></trkpt><trkpt lat="46.05042910018059" lon="9.146480744547707"><ele>454.3333333333333</ele><time>2026-04-25T14:57:01Z</time></trkpt><trkpt lat="46.05035707794698" lon="9.14658952348706"><ele>456.66666666666663</ele><time>2026-04-25T14:57:02Z</time></trkpt><trkpt lat="46.05031703017314" lon="9.146667377069482"><ele>459.0</ele><time>2026-04-25T14:57:03.001Z</time></trkpt><trkpt lat="46.05024905227614" lon="9.146758614949084"><ele>461.33333333333337</ele><time>2026-04-25T14:57:04.001Z</time></trkpt><trkpt lat="46.050184137286266" lon="9.14681473429238"><ele>463.6666666666667</ele><time>2026-04-25T14:57:05.001Z</time></trkpt><trkpt lat="46.050113872705445" lon="9.146859705292654"><ele>466.0</ele><time>2026-04-25T14:57:06.001Z</time></trkpt><trkpt lat="46.05002835743368" lon="9.146978896652014"><ele>466.0</ele><time>2026-04-25T14:57:08.001Z</time></trkpt><trkpt lat="46.05001357194257" lon="9.147138570613404"><ele>466.0</ele><time>2026-04-25T14:57:10.001Z</time></trkpt><trkpt lat="46.05010803135127" lon="9.147208037636842"><ele>466.0</ele><time>2026-04-25T14:57:11.001Z</time></trkpt><trkpt lat="46.05020272825814" lon="9.147206407695315"><ele>466.0</ele><time>2026-04-25T14:57:12.001Z</time></trkpt><trkpt lat="46.05028808719919" lon="9.147239292795566"><ele>466.0</ele><time>2026-04-25T14:57:13.001Z</time></trkpt><trkpt lat="46.0503705318112" lon="9.147306179068718"><ele>466.0</ele><time>2026-04-25T14:57:14.001Z</time></trkpt><trkpt lat="46.0504534498113" lon="9.14736354955443"><ele>466.0</ele><time>2026-04-25T14:57:15.001Z</time></trkpt><trkpt lat="46.050523895015026" lon="9.147451225389464"><ele>466.0</ele><time>2026-04-25T14:57:16.001Z</time></trkpt><trkpt lat="46.050592459940184" lon="9.147559600456054"><ele>466.0</ele><time>2026-04-25T14:57:17.001Z</time></trkpt><trkpt lat="46.05066691785373" lon="9.147677688981636"><ele>466.0</ele><time>2026-04-25T14:57:18.001Z</time></trkpt><trkpt lat="46.050738899173616" lon="9.147791275815822"><ele>470.50000000000006</ele><time>2026-04-25T14:57:19.001Z</time></trkpt><trkpt lat="46.05080295854241" lon="9.147884048489795"><ele>475.0</ele><time>2026-04-25T14:57:20.001Z</time></trkpt><trkpt lat="46.05087008982649" lon="9.147954515912469"><ele>479.5</ele><time>2026-04-25T14:57:21.001Z</time></trkpt><trkpt lat="46.05092034867203" lon="9.148031820517255"><ele>484.0</ele><time>2026-04-25T14:57:22.001Z</time></trkpt><trkpt lat="46.05096628315724" lon="9.148144452133991"><ele>488.50000000000006</ele><time>2026-04-25T14:57:23.001Z</time></trkpt><trkpt lat="46.05102238178109" lon="9.148249461285612"><ele>493.0</ele><time>2026-04-25T14:57:24.001Z</time></trkpt><trkpt lat="46.05106761121384" lon="9.148348615786807"><ele>494.4</ele><time>2026-04-25T14:57:25.001Z</time></trkpt><trkpt lat="46.05110390217595" lon="9.148453741625257"><ele>495.79999999999995</ele><time>2026-04-25T14:57:26.001Z</time></trkpt><trkpt lat="46.05112234932625" lon="9.148583570518644"><ele>497.2</ele><time>2026-04-25T14:57:27.001Z</time></trkpt><trkpt lat="46.05111166324303" lon="9.148732542006142"><ele>498.6</ele><time>2026-04-25T14:57:28.001Z</time></trkpt><trkpt lat="46.051101089985785" lon="9.148900624293388"><ele>500.0</ele><time>2026-04-25T14:57:29.001Z</time></trkpt><trkpt lat="46.05108705343564" lon="9.149074802393429"><ele>500.25</ele><time>2026-04-25T14:57:30.001Z</time></trkpt><trkpt lat="46.05107725347303" lon="9.149252322743486"><ele>500.5</ele><time>2026-04-25T14:57:31.001Z</time></trkpt><trkpt lat="46.05106295403471" lon="9.149432637180235"><ele>500.75</ele><time>2026-04-25T14:57:32.001Z</time></trkpt><trkpt lat="46.05104992221711" lon="9.149620780320996"><ele>501.0</ele><time>2026-04-25T14:57:33.001Z</time></trkpt><trkpt lat="46.05102672268581" lon="9.14980159188738"><ele>499.6</ele><time>2026-04-25T14:57:34.001Z</time></trkpt><trkpt lat="46.051011839577974" lon="9.149968832311595"><ele>498.20000000000005</ele><time>2026-04-25T14:57:35.001Z</time></trkpt><trkpt lat="46.050996447683374" lon="9.150119535388837"><ele>496.79999999999995</ele><time>2026-04-25T14:57:36.001Z</time></trkpt><trkpt lat="46.0509853018266" lon="9.150270915891202"><ele>495.4</ele><time>2026-04-25T14:57:37.001Z</time></trkpt><trkpt lat="46.050967351479464" lon="9.150417080823015"><ele>494.0</ele><time>2026-04-25T14:57:38.001Z</time></trkpt><trkpt lat="46.05095157654852" lon="9.150559344707018"><ele>494.0</ele><time>2026-04-25T14:57:39.001Z</time></trkpt><trkpt lat="46.0509321429143" lon="9.150688576910206"><ele>494.0</ele><time>2026-04-25T14:57:40.001Z</time></trkpt><trkpt lat="46.05092659064747" lon="9.150811181843816"><ele>494.0</ele><time>2026-04-25T14:57:41.001Z</time></trkpt><trkpt lat="46.050925941405346" lon="9.150923205903956"><ele>494.0</ele><time>2026-04-25T14:57:42.001Z</time></trkpt><trkpt lat="46.05100009660645" lon="9.15102329855189"><ele>494.0</ele><time>2026-04-25T14:57:43.001Z</time></trkpt><trkpt lat="46.051072369741966" lon="9.151118523488048"><ele>493.3333333333333</ele><time>2026-04-25T14:57:44.001Z</time></trkpt><trkpt lat="46.05113892312561" lon="9.151214865197973"><ele>492.66666666666663</ele><time>2026-04-25T14:57:45.001Z</time></trkpt><trkpt lat="46.05119980834028" lon="9.151313598168613"><ele>492.0</ele><time>2026-04-25T14:57:46.001Z</time></trkpt><trkpt lat="46.05124332945857" lon="9.151391750285086"><ele>491.33333333333337</ele><time>2026-04-25T14:57:47.002Z</time></trkpt><trkpt lat="46.05129942318674" lon="9.151542422370724"><ele>490.6666666666667</ele><time>2026-04-25T14:57:49.002Z</time></trkpt><trkpt lat="46.051333542003285" lon="9.151618770103891"><ele>490.0</ele><time>2026-04-25T14:57:50.002Z</time></trkpt><trkpt lat="46.05139894663493" lon="9.151751830586905"><ele>489.4</ele><time>2026-04-25T14:57:52.002Z</time></trkpt><trkpt lat="46.051384739179234" lon="9.15191589175458"><ele>488.8</ele><time>2026-04-25T14:57:54.002Z</time></trkpt><trkpt lat="46.051320032906474" lon="9.151994382531369"><ele>488.20000000000005</ele><time>2026-04-25T14:57:55.002Z</time></trkpt><trkpt lat="46.05126676749416" lon="9.152118840631433"><ele>487.6</ele><time>2026-04-25T14:57:56.002Z</time></trkpt><trkpt lat="46.05121003890896" lon="9.152267226659946"><ele>487.0</ele><time>2026-04-25T14:57:57.002Z</time></trkpt><trkpt lat="46.05115045036899" lon="9.15242883616296"><ele>487.0</ele><time>2026-04-25T14:57:58.002Z</time></trkpt><trkpt lat="46.05107962162104" lon="9.152587757404545"><ele>487.0</ele><time>2026-04-25T14:57:59.002Z</time></trkpt><trkpt lat="46.05101151935232" lon="9.152753662182327"><ele>487.0</ele><time>2026-04-25T14:58:00.002Z</time></trkpt><trkpt lat="46.05094308560988" lon="9.152906566835766"><ele>487.0</ele><time>2026-04-25T14:58:01.002Z</time></trkpt><trkpt lat="46.05088429381766" lon="9.153043580596524"><ele>487.0</ele><time>2026-04-25T14:58:02.002Z</time></trkpt><trkpt lat="46.05082252239808" lon="9.15318797327039"><ele>487.0</ele><time>2026-04-25T14:58:03.002Z</time></trkpt><trkpt lat="46.050763350494584" lon="9.153341401836151"><ele>487.0</ele><time>2026-04-25T14:58:04.002Z</time></trkpt><trkpt lat="46.05070234199706" lon="9.153481162764239"><ele>487.0</ele><time>2026-04-25T14:58:05.002Z</time></trkpt><trkpt lat="46.05064400649337" lon="9.153615509291805"><ele>486.6</ele><time>2026-04-25T14:58:06.002Z</time></trkpt><trkpt lat="46.05059321326701" lon="9.153736606026001"><ele>486.20000000000005</ele><time>2026-04-25T14:58:07.002Z</time></trkpt><trkpt lat="46.05053885069204" lon="9.153859581082619"><ele>485.8</ele><time>2026-04-25T14:58:08.002Z</time></trkpt><trkpt lat="46.05048452940305" lon="9.1539783141509"><ele>485.4</ele><time>2026-04-25T14:58:09.002Z</time></trkpt><trkpt lat="46.05042370246059" lon="9.154101588889135"><ele>485.0</ele><time>2026-04-25T14:58:10.002Z</time></trkpt><trkpt lat="46.05036451305709" lon="9.15422176803922"><ele>484.99999999999994</ele><time>2026-04-25T14:58:11.002Z</time></trkpt><trkpt lat="46.05030656633301" lon="9.154334190720347"><ele>485.0</ele><time>2026-04-25T14:58:12.002Z</time></trkpt><trkpt lat="46.05023933628385" lon="9.154428736176875"><ele>485.0</ele><time>2026-04-25T14:58:12.999Z</time></trkpt><trkpt lat="46.05019413553403" lon="9.154518893427243"><ele>485.0</ele><time>2026-04-25T14:58:13.999Z</time></trkpt><trkpt lat="46.0501426941413" lon="9.154601145695446"><ele>484.99999999999994</ele><time>2026-04-25T14:58:14.999Z</time></trkpt><trkpt lat="46.0500890319052" lon="9.154679300326862"><ele>485.0</ele><time>2026-04-25T14:58:15.999Z</time></trkpt><trkpt lat="46.050033947884465" lon="9.15474371150464"><ele>484.2</ele><time>2026-04-25T14:58:16.999Z</time></trkpt><trkpt lat="46.04994771271614" lon="9.154844049211274"><ele>483.4</ele><time>2026-04-25T14:58:18.999Z</time></trkpt><trkpt lat="46.04988645618308" lon="9.154907982937617"><ele>482.6</ele><time>2026-04-25T14:58:19.999Z</time></trkpt><trkpt lat="46.049812960091984" lon="9.154979007487535"><ele>481.8</ele><time>2026-04-25T14:58:21Z</time></trkpt><trkpt lat="46.049731847246655" lon="9.155050708533352"><ele>481.0</ele><time>2026-04-25T14:58:22Z</time></trkpt><trkpt lat="46.04963114455763" lon="9.15512401963723"><ele>479.6</ele><time>2026-04-25T14:58:23Z</time></trkpt><trkpt lat="46.04953694022421" lon="9.155204133137676"><ele>478.20000000000005</ele><time>2026-04-25T14:58:24Z</time></trkpt><trkpt lat="46.04943079325615" lon="9.155287668045206"><ele>476.79999999999995</ele><time>2026-04-25T14:58:25Z</time></trkpt><trkpt lat="46.04933177537905" lon="9.155362657245709"><ele>475.4</ele><time>2026-04-25T14:58:26Z</time></trkpt><trkpt lat="46.04923837558785" lon="9.155428082637076"><ele>474.0</ele><time>2026-04-25T14:58:27Z</time></trkpt><trkpt lat="46.049139618634015" lon="9.155481645824777"><ele>471.4</ele><time>2026-04-25T14:58:28Z</time></trkpt><trkpt lat="46.04903600181513" lon="9.15549159240526"><ele>468.79999999999995</ele><time>2026-04-25T14:58:29Z</time></trkpt><trkpt lat="46.04894364889962" lon="9.155538227740198"><ele>466.20000000000005</ele><time>2026-04-25T14:58:30Z</time></trkpt><trkpt lat="46.04885160366293" lon="9.155581982435393"><ele>463.6</ele><time>2026-04-25T14:58:31Z</time></trkpt><trkpt lat="46.04878513699341" lon="9.155665874414188"><ele>461.0</ele><time>2026-04-25T14:58:32Z</time></trkpt><trkpt lat="46.04873616616203" lon="9.155783985031928"><ele>461.0</ele><time>2026-04-25T14:58:33Z</time></trkpt><trkpt lat="46.04871074435204" lon="9.155925991848553"><ele>461.0</ele><time>2026-04-25T14:58:34Z</time></trkpt><trkpt lat="46.04869957976647" lon="9.156073618195208"><ele>461.0</ele><time>2026-04-25T14:58:35Z</time></trkpt><trkpt lat="46.04866591542713" lon="9.156207557560661"><ele>461.0</ele><time>2026-04-25T14:58:36Z</time></trkpt><trkpt lat="46.0486442482667" lon="9.15632318880501"><ele>461.0</ele><time>2026-04-25T14:58:37Z</time></trkpt><trkpt lat="46.04861086615105" lon="9.15644771399147"><ele>461.6</ele><time>2026-04-25T14:58:38Z</time></trkpt><trkpt lat="46.0485572625534" lon="9.15656083390597"><ele>462.20000000000005</ele><time>2026-04-25T14:58:39Z</time></trkpt><trkpt lat="46.04849572710549" lon="9.156661346418115"><ele>462.79999999999995</ele><time>2026-04-25T14:58:40Z</time></trkpt><trkpt lat="46.0484099927052" lon="9.156716685926924"><ele>463.4</ele><time>2026-04-25T14:58:41Z</time></trkpt><trkpt lat="46.048308687208454" lon="9.156735934014186"><ele>464.0</ele><time>2026-04-25T14:58:42Z</time></trkpt><trkpt lat="46.048203447811396" lon="9.156709599733814"><ele>461.25</ele><time>2026-04-25T14:58:43Z</time></trkpt><trkpt lat="46.04805939069398" lon="9.156676748590375"><ele>458.5</ele><time>2026-04-25T14:58:44Z</time></trkpt><trkpt lat="46.04794219061733" lon="9.156625812599556"><ele>455.75</ele><time>2026-04-25T14:58:45Z</time></trkpt><trkpt lat="46.047815513466595" lon="9.156622337281236"><ele>453.0</ele><time>2026-04-25T14:58:46Z</time></trkpt><trkpt lat="46.047697170271505" lon="9.156611881671147"><ele>453.0</ele><time>2026-04-25T14:58:47Z</time></trkpt><trkpt lat="46.04758824798245" lon="9.156633605222815"><ele>452.99999999999994</ele><time>2026-04-25T14:58:48Z</time></trkpt><trkpt lat="46.04748263899679" lon="9.156685856428716"><ele>452.99999999999994</ele><time>2026-04-25T14:58:49Z</time></trkpt><trkpt lat="46.04738283631644" lon="9.156743807689155"><ele>453.0</ele><time>2026-04-25T14:58:50Z</time></trkpt><trkpt lat="46.047292748739764" lon="9.156853313523523"><ele>453.0</ele><time>2026-04-25T14:58:51Z</time></trkpt><trkpt lat="46.047222485748534" lon="9.156986278409867"><ele>447.75</ele><time>2026-04-25T14:58:52Z</time></trkpt><trkpt lat="46.047168641674574" lon="9.157139686755528"><ele>442.5</ele><time>2026-04-25T14:58:53Z</time></trkpt><trkpt lat="46.04715077202206" lon="9.15730053652548"><ele>437.25</ele><time>2026-04-25T14:58:54Z</time></trkpt><trkpt lat="46.04711498173572" lon="9.157461675551488"><ele>432.0</ele><time>2026-04-25T14:58:55Z</time></trkpt><trkpt lat="46.047091634988185" lon="9.157647644004092"><ele>431.25</ele><time>2026-04-25T14:58:56.001Z</time></trkpt><trkpt lat="46.047057972135164" lon="9.157832341483358"><ele>430.5</ele><time>2026-04-25T14:58:57.001Z</time></trkpt><trkpt lat="46.04700228605376" lon="9.158020515043741"><ele>429.75</ele><time>2026-04-25T14:58:58.001Z</time></trkpt><trkpt lat="46.04693666804393" lon="9.15819402952175"><ele>429.0</ele><time>2026-04-25T14:58:59.001Z</time></trkpt><trkpt lat="46.04686461483582" lon="9.158373527779155"><ele>429.0</ele><time>2026-04-25T14:59:00.001Z</time></trkpt><trkpt lat="46.04679662659294" lon="9.158555409348816"><ele>429.0</ele><time>2026-04-25T14:59:01.001Z</time></trkpt><trkpt lat="46.04673397257411" lon="9.158726492105474"><ele>429.0</ele><time>2026-04-25T14:59:02.001Z</time></trkpt><trkpt lat="46.04667631902717" lon="9.158911146299102"><ele>429.0</ele><time>2026-04-25T14:59:03.001Z</time></trkpt><trkpt lat="46.04663892138081" lon="9.159122995807783"><ele>416.33333333333337</ele><time>2026-04-25T14:59:04.001Z</time></trkpt><trkpt lat="46.04660826939527" lon="9.159344898018709"><ele>403.6666666666667</ele><time>2026-04-25T14:59:05.001Z</time></trkpt><trkpt lat="46.046578403443725" lon="9.15956642999359"><ele>391.0</ele><time>2026-04-25T14:59:06.001Z</time></trkpt><trkpt lat="46.04655023064165" lon="9.159775258229756"><ele>392.75</ele><time>2026-04-25T14:59:07.001Z</time></trkpt><trkpt lat="46.04652302465207" lon="9.159978014073191"><ele>394.5</ele><time>2026-04-25T14:59:08.001Z</time></trkpt><trkpt lat="46.04649727254574" lon="9.160172909092928"><ele>396.25</ele><time>2026-04-25T14:59:09.001Z</time></trkpt><trkpt lat="46.04646272740854" lon="9.160354501130314"><ele>398.0</ele><time>2026-04-25T14:59:10.001Z</time></trkpt><trkpt lat="46.046404785089535" lon="9.16052595738406"><ele>398.0</ele><time>2026-04-25T14:59:11.001Z</time></trkpt><trkpt lat="46.046331986770554" lon="9.160681999051896"><ele>398.0</ele><time>2026-04-25T14:59:12.001Z</time></trkpt><trkpt lat="46.046247308495396" lon="9.160829492895582"><ele>398.0</ele><time>2026-04-25T14:59:13.001Z</time></trkpt><trkpt lat="46.04615992918694" lon="9.160974425160651"><ele>398.0</ele><time>2026-04-25T14:59:14.001Z</time></trkpt><trkpt lat="46.04608030713521" lon="9.161105381034899"><ele>400.0</ele><time>2026-04-25T14:59:15.001Z</time></trkpt><trkpt lat="46.046001290686924" lon="9.161237817512585"><ele>402.0</ele><time>2026-04-25T14:59:16.001Z</time></trkpt><trkpt lat="46.045943526824594" lon="9.161362910692326"><ele>404.0</ele><time>2026-04-25T14:59:17.001Z</time></trkpt><trkpt lat="46.0458957009987" lon="9.16151093499903"><ele>406.0</ele><time>2026-04-25T14:59:18.001Z</time></trkpt><trkpt lat="46.045866018253705" lon="9.161672403118859"><ele>406.25</ele><time>2026-04-25T14:59:19.001Z</time></trkpt><trkpt lat="46.045853354063006" lon="9.161850265173207"><ele>406.5</ele><time>2026-04-25T14:59:20.001Z</time></trkpt><trkpt lat="46.045843666639804" lon="9.16203673446626"><ele>406.75</ele><time>2026-04-25T14:59:21.001Z</time></trkpt><trkpt lat="46.045835417403545" lon="9.1622301750601"><ele>407.0</ele><time>2026-04-25T14:59:22.001Z</time></trkpt><trkpt lat="46.045826726557706" lon="9.162414406788823"><ele>407.75</ele><time>2026-04-25T14:59:23.001Z</time></trkpt><trkpt lat="46.04581262276691" lon="9.162596822548505"><ele>408.5</ele><time>2026-04-25T14:59:24.001Z</time></trkpt><trkpt lat="46.04580337054765" lon="9.162776512095347"><ele>409.25</ele><time>2026-04-25T14:59:25.001Z</time></trkpt><trkpt lat="46.04573996344044" lon="9.162925436754657"><ele>410.0</ele><time>2026-04-25T14:59:26.001Z</time></trkpt><trkpt lat="46.04568785812847" lon="9.163099412355084"><ele>402.0</ele><time>2026-04-25T14:59:27.001Z</time></trkpt><trkpt lat="46.04561406710914" lon="9.16325656771102"><ele>394.0</ele><time>2026-04-25T14:59:28.001Z</time></trkpt><trkpt lat="46.04554389482341" lon="9.163406944177115"><ele>386.0</ele><time>2026-04-25T14:59:29.001Z</time></trkpt><trkpt lat="46.04546690315764" lon="9.163540585798774"><ele>378.0</ele><time>2026-04-25T14:59:30.001Z</time></trkpt><trkpt lat="46.04540763822023" lon="9.163695819234018"><ele>378.0</ele><time>2026-04-25T14:59:31.001Z</time></trkpt><trkpt lat="46.04535745905539" lon="9.163863242120561"><ele>378.0</ele><time>2026-04-25T14:59:32.001Z</time></trkpt><trkpt lat="46.04531081707544" lon="9.164035354427973"><ele>378.0</ele><time>2026-04-25T14:59:33.001Z</time></trkpt><trkpt lat="46.04523311668067" lon="9.164399628244222"><ele>379.0</ele><time>2026-04-25T14:59:34.001Z</time></trkpt><trkpt lat="46.04516449462923" lon="9.164597638438662"><ele>380.0</ele><time>2026-04-25T14:59:35.001Z</time></trkpt><trkpt lat="46.045112213923375" lon="9.164800501978648"><ele>381.0</ele><time>2026-04-25T14:59:36.001Z</time></trkpt><trkpt lat="46.045059243064536" lon="9.165002421354973"><ele>383.0</ele><time>2026-04-25T14:59:37.002Z</time></trkpt><trkpt lat="46.04500199714141" lon="9.165196834628327"><ele>385.0</ele><time>2026-04-25T14:59:38.002Z</time></trkpt><trkpt lat="46.04493779062383" lon="9.165363485493298"><ele>387.0</ele><time>2026-04-25T14:59:39.002Z</time></trkpt><trkpt lat="46.0448605819356" lon="9.16551117755335"><ele>389.0</ele><time>2026-04-25T14:59:40.002Z</time></trkpt><trkpt lat="46.04477240609961" lon="9.16565430349507"><ele>382.0</ele><time>2026-04-25T14:59:41.002Z</time></trkpt><trkpt lat="46.04468281470493" lon="9.165797071172587"><ele>375.0</ele><time>2026-04-25T14:59:42.002Z</time></trkpt><trkpt lat="46.04459259805863" lon="9.165939432786738"><ele>368.0</ele><time>2026-04-25T14:59:43.002Z</time></trkpt><trkpt lat="46.04450323523388" lon="9.166080340100752"><ele>361.0</ele><time>2026-04-25T14:59:44.002Z</time></trkpt><trkpt lat="46.04441217570325" lon="9.166228572263531"><ele>361.0</ele><time>2026-04-25T14:59:45.002Z</time></trkpt><trkpt lat="46.044344965551346" lon="9.16639816383677"><ele>361.0</ele><time>2026-04-25T14:59:46.002Z</time></trkpt><trkpt lat="46.04426576061749" lon="9.166569668767876"><ele>361.0</ele><time>2026-04-25T14:59:47.002Z</time></trkpt><trkpt lat="46.044204933509576" lon="9.166757586044648"><ele>361.0</ele><time>2026-04-25T14:59:48.002Z</time></trkpt><trkpt lat="46.04415873921319" lon="9.166948091733284"><ele>358.5</ele><time>2026-04-25T14:59:49.002Z</time></trkpt><trkpt lat="46.044119396739" lon="9.167134701536028"><ele>356.0</ele><time>2026-04-25T14:59:50.002Z</time></trkpt><trkpt lat="46.04406920543559" lon="9.16730417341075"><ele>353.5</ele><time>2026-04-25T14:59:51.002Z</time></trkpt><trkpt lat="46.04398742487907" lon="9.167436134638049"><ele>351.0</ele><time>2026-04-25T14:59:52.002Z</time></trkpt><trkpt lat="46.043903506039904" lon="9.167570272753567"><ele>351.0</ele><time>2026-04-25T14:59:53.002Z</time></trkpt><trkpt lat="46.04382115020904" lon="9.167730907751054"><ele>351.0</ele><time>2026-04-25T14:59:54.002Z</time></trkpt><trkpt lat="46.04370970378895" lon="9.167882028520454"><ele>351.0</ele><time>2026-04-25T14:59:55.002Z</time></trkpt><trkpt lat="46.04360981870792" lon="9.168055956921213"><ele>351.0</ele><time>2026-04-25T14:59:56.002Z</time></trkpt><trkpt lat="46.043510156551875" lon="9.168230063183655"><ele>353.5</ele><time>2026-04-25T14:59:57.002Z</time></trkpt><trkpt lat="46.043415092070894" lon="9.168382345629146"><ele>356.0</ele><time>2026-04-25T14:59:58.002Z</time></trkpt><trkpt lat="46.04332121588042" lon="9.168539577351831"><ele>358.5</ele><time>2026-04-25T14:59:59.002Z</time></trkpt><trkpt lat="46.04324455287111" lon="9.168692245063328"><ele>361.0</ele><time>2026-04-25T15:00:00.002Z</time></trkpt><trkpt lat="46.04317745811056" lon="9.168838723820421"><ele>351.75</ele><time>2026-04-25T15:00:01.002Z</time></trkpt><trkpt lat="46.04313115184575" lon="9.168989914094848"><ele>342.5</ele><time>2026-04-25T15:00:02.002Z</time></trkpt><trkpt lat="46.04309765070301" lon="9.169160084340083"><ele>333.25</ele><time>2026-04-25T15:00:03.002Z</time></trkpt><trkpt lat="46.04308835961829" lon="9.1693323451661"><ele>324.0</ele><time>2026-04-25T15:00:04.002Z</time></trkpt><trkpt lat="46.043082530364345" lon="9.169512520707688"><ele>324.0</ele><time>2026-04-25T15:00:05.002Z</time></trkpt><trkpt lat="46.04307656606348" lon="9.169721810420729"><ele>324.0</ele><time>2026-04-25T15:00:06.002Z</time></trkpt><trkpt lat="46.04306193147367" lon="9.16993820285116"><ele>324.0</ele><time>2026-04-25T15:00:07.002Z</time></trkpt><trkpt lat="46.04303612037448" lon="9.17013761544618"><ele>324.0</ele><time>2026-04-25T15:00:08.002Z</time></trkpt><trkpt lat="46.0430034774841" lon="9.170324006356976"><ele>326.0</ele><time>2026-04-25T15:00:09.002Z</time></trkpt><trkpt lat="46.04292745461181" lon="9.170488615769973"><ele>328.0</ele><time>2026-04-25T15:00:10.002Z</time></trkpt><trkpt lat="46.04286063194862" lon="9.17066377375246"><ele>330.0</ele><time>2026-04-25T15:00:11.002Z</time></trkpt><trkpt lat="46.04276807675764" lon="9.170826540827077"><ele>332.0</ele><time>2026-04-25T15:00:12.002Z</time></trkpt><trkpt lat="46.04268414307865" lon="9.170971730714262"><ele>334.75</ele><time>2026-04-25T15:00:13.002Z</time></trkpt><trkpt lat="46.042618011421816" lon="9.171130819803315"><ele>337.5</ele><time>2026-04-25T15:00:14.002Z</time></trkpt><trkpt lat="46.042569603441414" lon="9.17129048682728"><ele>340.25</ele><time>2026-04-25T15:00:15.002Z</time></trkpt><trkpt lat="46.04253692285785" lon="9.171458685359882"><ele>343.0</ele><time>2026-04-25T15:00:16.002Z</time></trkpt><trkpt lat="46.04250802749441" lon="9.171640824481646"><ele>344.0</ele><time>2026-04-25T15:00:17.002Z</time></trkpt><trkpt lat="46.042500440338294" lon="9.171817426989913"><ele>345.0</ele><time>2026-04-25T15:00:18.002Z</time></trkpt><trkpt lat="46.042484650278666" lon="9.171986076194038"><ele>346.0</ele><time>2026-04-25T15:00:18.999Z</time></trkpt><trkpt lat="46.04244910058913" lon="9.172149861941309"><ele>347.0</ele><time>2026-04-25T15:00:19.999Z</time></trkpt><trkpt lat="46.0423885010082" lon="9.172322273802152"><ele>340.5</ele><time>2026-04-25T15:00:20.999Z</time></trkpt><trkpt lat="46.042311804438036" lon="9.172494528248082"><ele>334.0</ele><time>2026-04-25T15:00:21.999Z</time></trkpt><trkpt lat="46.04223224708332" lon="9.172662826751441"><ele>327.5</ele><time>2026-04-25T15:00:22.999Z</time></trkpt><trkpt lat="46.04215328820702" lon="9.17283255896306"><ele>321.0</ele><time>2026-04-25T15:00:23.999Z</time></trkpt><trkpt lat="46.042080902817446" lon="9.17301694690056"><ele>323.0</ele><time>2026-04-25T15:00:24.999Z</time></trkpt><trkpt lat="46.04201566564397" lon="9.173217635452604"><ele>325.0</ele><time>2026-04-25T15:00:25.999Z</time></trkpt><trkpt lat="46.04197681207011" lon="9.173450667897551"><ele>327.0</ele><time>2026-04-25T15:00:26.999Z</time></trkpt><trkpt lat="46.04192332203433" lon="9.173686892284529"><ele>327.0</ele><time>2026-04-25T15:00:27.999Z</time></trkpt><trkpt lat="46.041875607775935" lon="9.173904516353415"><ele>327.0</ele><time>2026-04-25T15:00:28.999Z</time></trkpt><trkpt lat="46.041824563711536" lon="9.174100198225739"><ele>327.0</ele><time>2026-04-25T15:00:29.999Z</time></trkpt><trkpt lat="46.04176790901839" lon="9.174287003177577"><ele>327.0</ele><time>2026-04-25T15:00:30.999Z</time></trkpt><trkpt lat="46.0417399284108" lon="9.17446576006757"><ele>329.5</ele><time>2026-04-25T15:00:31.999Z</time></trkpt><trkpt lat="46.0417095318089" lon="9.174642586385234"><ele>332.0</ele><time>2026-04-25T15:00:32.999Z</time></trkpt><trkpt lat="46.0416785370875" lon="9.174800806130293"><ele>334.5</ele><time>2026-04-25T15:00:33.999Z</time></trkpt><trkpt lat="46.041632222207156" lon="9.174952528228758"><ele>337.0</ele><time>2026-04-25T15:00:34.999Z</time></trkpt><trkpt lat="46.04155240555513" lon="9.175067001275794"><ele>337.0</ele><time>2026-04-25T15:00:35.999Z</time></trkpt><trkpt lat="46.04146113503098" lon="9.175181233986342"><ele>337.0</ele><time>2026-04-25T15:00:36.999Z</time></trkpt><trkpt lat="46.04136200135911" lon="9.17526366386353"><ele>337.0</ele><time>2026-04-25T15:00:37.999Z</time></trkpt><trkpt lat="46.041258836076715" lon="9.17535040381747"><ele>337.0</ele><time>2026-04-25T15:00:38.999Z</time></trkpt><trkpt lat="46.041139071700535" lon="9.175369783752197"><ele>337.0</ele><time>2026-04-25T15:00:39.999Z</time></trkpt><trkpt lat="46.04102452548576" lon="9.175363562096166"><ele>337.0</ele><time>2026-04-25T15:00:41Z</time></trkpt><trkpt lat="46.04091153154395" lon="9.17534631932432"><ele>337.0</ele><time>2026-04-25T15:00:42Z</time></trkpt><trkpt lat="46.04080230891763" lon="9.175359349295347"><ele>337.0</ele><time>2026-04-25T15:00:43Z</time></trkpt><trkpt lat="46.04070498567245" lon="9.175402899985256"><ele>337.0</ele><time>2026-04-25T15:00:44Z</time></trkpt><trkpt lat="46.04061611484123" lon="9.175483592316523"><ele>336.0</ele><time>2026-04-25T15:00:45Z</time></trkpt><trkpt lat="46.04053294547023" lon="9.175601847650732"><ele>335.0</ele><time>2026-04-25T15:00:46Z</time></trkpt><trkpt lat="46.04045023933808" lon="9.175738417394479"><ele>334.0</ele><time>2026-04-25T15:00:47Z</time></trkpt><trkpt lat="46.040369663047656" lon="9.17587044733786"><ele>333.0</ele><time>2026-04-25T15:00:48Z</time></trkpt><trkpt lat="46.040281957701175" lon="9.175955788708448"><ele>333.0</ele><time>2026-04-25T15:00:49Z</time></trkpt><trkpt lat="46.040203520411104" lon="9.176036353830389"><ele>333.0</ele><time>2026-04-25T15:00:50Z</time></trkpt><trkpt lat="46.04010766472805" lon="9.176057647017739"><ele>333.0</ele><time>2026-04-25T15:00:51Z</time></trkpt><trkpt lat="46.03999887837058" lon="9.176061660899357"><ele>333.0</ele><time>2026-04-25T15:00:52Z</time></trkpt><trkpt lat="46.03988868287521" lon="9.176057341362158"><ele>333.0</ele><time>2026-04-25T15:00:53Z</time></trkpt><trkpt lat="46.039794686044026" lon="9.176080743686958"><ele>330.79999999999995</ele><time>2026-04-25T15:00:54Z</time></trkpt><trkpt lat="46.03970706166624" lon="9.176146506226976"><ele>328.6</ele><time>2026-04-25T15:00:55Z</time></trkpt><trkpt lat="46.03963628573543" lon="9.17625079271883"><ele>326.4</ele><time>2026-04-25T15:00:56Z</time></trkpt><trkpt lat="46.039585987904836" lon="9.176383826317183"><ele>324.20000000000005</ele><time>2026-04-25T15:00:57Z</time></trkpt><trkpt lat="46.03956876956049" lon="9.176543055164457"><ele>322.0</ele><time>2026-04-25T15:00:58Z</time></trkpt><trkpt lat="46.03956958835248" lon="9.176720010690493"><ele>322.0</ele><time>2026-04-25T15:00:59Z</time></trkpt><trkpt lat="46.03956717719819" lon="9.176903221508248"><ele>322.0</ele><time>2026-04-25T15:01:00Z</time></trkpt><trkpt lat="46.03954556386803" lon="9.177087095127403"><ele>322.0</ele><time>2026-04-25T15:01:01Z</time></trkpt><trkpt lat="46.03955760685186" lon="9.177255244474917"><ele>322.0</ele><time>2026-04-25T15:01:02Z</time></trkpt><trkpt lat="46.03954524964628" lon="9.177406520857676"><ele>323.20000000000005</ele><time>2026-04-25T15:01:03Z</time></trkpt><trkpt lat="46.03951655307493" lon="9.177536091229078"><ele>324.4</ele><time>2026-04-25T15:01:04Z</time></trkpt><trkpt lat="46.03946303320484" lon="9.177640031201959"><ele>325.6</ele><time>2026-04-25T15:01:05Z</time></trkpt><trkpt lat="46.03937434109392" lon="9.177698142717002"><ele>326.79999999999995</ele><time>2026-04-25T15:01:06Z</time></trkpt><trkpt lat="46.039279540128135" lon="9.177764227900955"><ele>328.0</ele><time>2026-04-25T15:01:07Z</time></trkpt><trkpt lat="46.039175434451515" lon="9.177827089738692"><ele>327.0</ele><time>2026-04-25T15:01:08Z</time></trkpt><trkpt lat="46.039073905908644" lon="9.177909544560464"><ele>326.0</ele><time>2026-04-25T15:01:09Z</time></trkpt><trkpt lat="46.03897430469354" lon="9.177966307618842"><ele>325.0</ele><time>2026-04-25T15:01:10Z</time></trkpt><trkpt lat="46.03888622331704" lon="9.178019136005167"><ele>324.0</ele><time>2026-04-25T15:01:11.001Z</time></trkpt><trkpt lat="46.038801451644" lon="9.178081481848709"><ele>323.0</ele><time>2026-04-25T15:01:12.001Z</time></trkpt><trkpt lat="46.038728423276396" lon="9.178167379638111"><ele>323.1666666666667</ele><time>2026-04-25T15:01:13.001Z</time></trkpt><trkpt lat="46.03867452378191" lon="9.178275083459281"><ele>323.33333333333337</ele><time>2026-04-25T15:01:14.001Z</time></trkpt><trkpt lat="46.03862123180925" lon="9.178388062733754"><ele>323.5</ele><time>2026-04-25T15:01:15.001Z</time></trkpt><trkpt lat="46.03856084060106" lon="9.178467688899781"><ele>323.6666666666667</ele><time>2026-04-25T15:01:16.001Z</time></trkpt><trkpt lat="46.03852477446943" lon="9.178568802215178"><ele>323.8333333333333</ele><time>2026-04-25T15:01:17.001Z</time></trkpt><trkpt lat="46.038432389883184" lon="9.17856871800859"><ele>324.0</ele><time>2026-04-25T15:01:19.001Z</time></trkpt><trkpt lat="46.03834839486106" lon="9.178491541177069"><ele>322.59999999999997</ele><time>2026-04-25T15:01:21.001Z</time></trkpt><trkpt lat="46.03823639876867" lon="9.178535122165528"><ele>321.2</ele><time>2026-04-25T15:01:23.001Z</time></trkpt><trkpt lat="46.03821562306386" lon="9.178626261462142"><ele>319.79999999999995</ele><time>2026-04-25T15:01:24.001Z</time></trkpt><trkpt lat="46.03818953079582" lon="9.178744435668104"><ele>318.4</ele><time>2026-04-25T15:01:25.001Z</time></trkpt><trkpt lat="46.038179805779194" lon="9.178883652201426"><ele>317.0</ele><time>2026-04-25T15:01:26.001Z</time></trkpt><trkpt lat="46.0381395677156" lon="9.179036573905206"><ele>317.0</ele><time>2026-04-25T15:01:27.001Z</time></trkpt><trkpt lat="46.038092736325154" lon="9.179216040961503"><ele>317.0</ele><time>2026-04-25T15:01:28.001Z</time></trkpt><trkpt lat="46.038038377598504" lon="9.179402133028022"><ele>317.0</ele><time>2026-04-25T15:01:29.001Z</time></trkpt><trkpt lat="46.0379876878068" lon="9.179577891219987"><ele>317.0</ele><time>2026-04-25T15:01:30.001Z</time></trkpt><trkpt lat="46.03793711347609" lon="9.179755183242596"><ele>318.6666666666667</ele><time>2026-04-25T15:01:31.001Z</time></trkpt><trkpt lat="46.037881252134056" lon="9.179947579325253"><ele>320.3333333333333</ele><time>2026-04-25T15:01:32.001Z</time></trkpt><trkpt lat="46.03782196462398" lon="9.180149871932592"><ele>322.0</ele><time>2026-04-25T15:01:33.001Z</time></trkpt><trkpt lat="46.037774713214" lon="9.180370637016654"><ele>322.0</ele><time>2026-04-25T15:01:34.001Z</time></trkpt><trkpt lat="46.037707384958" lon="9.18057363937473"><ele>322.0</ele><time>2026-04-25T15:01:35.001Z</time></trkpt><trkpt lat="46.03765483951502" lon="9.180757352242171"><ele>322.0</ele><time>2026-04-25T15:01:36.001Z</time></trkpt><trkpt lat="46.03760438024871" lon="9.18094554748938"><ele>322.0</ele><time>2026-04-25T15:01:37.001Z</time></trkpt><trkpt lat="46.03756183111201" lon="9.18114377684564"><ele>324.0</ele><time>2026-04-25T15:01:38.001Z</time></trkpt><trkpt lat="46.03752202028114" lon="9.181348216181503"><ele>326.0</ele><time>2026-04-25T15:01:39.001Z</time></trkpt><trkpt lat="46.037486784687474" lon="9.181556480318875"><ele>328.0</ele><time>2026-04-25T15:01:40.001Z</time></trkpt><trkpt lat="46.03743769934023" lon="9.181766353586204"><ele>328.0</ele><time>2026-04-25T15:01:41.001Z</time></trkpt><trkpt lat="46.037349163405494" lon="9.181958488028206"><ele>328.0</ele><time>2026-04-25T15:01:42.001Z</time></trkpt><trkpt lat="46.037256368725224" lon="9.182159448244072"><ele>328.0</ele><time>2026-04-25T15:01:43.001Z</time></trkpt><trkpt lat="46.03716888300545" lon="9.182387363589177"><ele>330.66666666666663</ele><time>2026-04-25T15:01:44.001Z</time></trkpt><trkpt lat="46.037053686677794" lon="9.182605933361263"><ele>333.3333333333333</ele><time>2026-04-25T15:01:45.001Z</time></trkpt><trkpt lat="46.03694838073273" lon="9.182841155263333"><ele>336.0</ele><time>2026-04-25T15:01:46.001Z</time></trkpt><trkpt lat="46.036848251361896" lon="9.183068726887754"><ele>336.6666666666667</ele><time>2026-04-25T15:01:47.001Z</time></trkpt><trkpt lat="46.03675081416009" lon="9.18326845013967"><ele>337.33333333333337</ele><time>2026-04-25T15:01:48.002Z</time></trkpt><trkpt lat="46.03665375624673" lon="9.183459760305949"><ele>338.0</ele><time>2026-04-25T15:01:49.002Z</time></trkpt><trkpt lat="46.036561155423165" lon="9.183646161123269"><ele>338.0</ele><time>2026-04-25T15:01:50.002Z</time></trkpt><trkpt lat="46.036474851903314" lon="9.183841201175541"><ele>338.0</ele><time>2026-04-25T15:01:51.002Z</time></trkpt><trkpt lat="46.036401707823515" lon="9.184044131323635"><ele>338.0</ele><time>2026-04-25T15:01:52.002Z</time></trkpt><trkpt lat="46.036336592911525" lon="9.184250713403603"><ele>340.33333333333337</ele><time>2026-04-25T15:01:53.002Z</time></trkpt><trkpt lat="46.03627101735515" lon="9.184472399354018"><ele>342.6666666666667</ele><time>2026-04-25T15:01:54.002Z</time></trkpt><trkpt lat="46.0362117984243" lon="9.184691512209815"><ele>345.0</ele><time>2026-04-25T15:01:55.002Z</time></trkpt><trkpt lat="46.03613784974983" lon="9.184896099486421"><ele>347.0</ele><time>2026-04-25T15:01:56.002Z</time></trkpt><trkpt lat="46.03609563871566" lon="9.18510162283427"><ele>349.0</ele><time>2026-04-25T15:01:57.002Z</time></trkpt><trkpt lat="46.0360719787108" lon="9.185306457131638"><ele>351.0</ele><time>2026-04-25T15:01:58.002Z</time></trkpt><trkpt lat="46.036022018259104" lon="9.185497663064748"><ele>353.0</ele><time>2026-04-25T15:01:59.002Z</time></trkpt><trkpt lat="46.03595980515235" lon="9.185687835935937"><ele>357.33333333333337</ele><time>2026-04-25T15:02:00.002Z</time></trkpt><trkpt lat="46.035869215245675" lon="9.185864795830518"><ele>361.6666666666667</ele><time>2026-04-25T15:02:01.002Z</time></trkpt><trkpt lat="46.03576271586903" lon="9.186032150183136"><ele>366.0</ele><time>2026-04-25T15:02:02.002Z</time></trkpt><trkpt lat="46.03564220914036" lon="9.186162484467516"><ele>366.6666666666667</ele><time>2026-04-25T15:02:03.002Z</time></trkpt><trkpt lat="46.035519090453626" lon="9.186302394891628"><ele>367.33333333333337</ele><time>2026-04-25T15:02:04.002Z</time></trkpt><trkpt lat="46.03540603730562" lon="9.186466097338773"><ele>368.0</ele><time>2026-04-25T15:02:05.002Z</time></trkpt><trkpt lat="46.035292283940166" lon="9.186626106675112"><ele>367.0</ele><time>2026-04-25T15:02:06.002Z</time></trkpt><trkpt lat="46.035197546771016" lon="9.186798798256218"><ele>366.0</ele><time>2026-04-25T15:02:07.002Z</time></trkpt><trkpt lat="46.03510540713313" lon="9.186953223191523"><ele>365.0</ele><time>2026-04-25T15:02:08.002Z</time></trkpt><trkpt lat="46.03498934535741" lon="9.187097139421763"><ele>364.0</ele><time>2026-04-25T15:02:09.002Z</time></trkpt><trkpt lat="46.034873114198334" lon="9.187249521178522"><ele>366.3333333333333</ele><time>2026-04-25T15:02:10.002Z</time></trkpt><trkpt lat="46.03474577742532" lon="9.187393161680749"><ele>368.6666666666667</ele><time>2026-04-25T15:02:11.002Z</time></trkpt><trkpt lat="46.03462203600724" lon="9.187545881529635"><ele>371.0</ele><time>2026-04-25T15:02:12.002Z</time></trkpt><trkpt lat="46.03449341284449" lon="9.187690791372786"><ele>371.0</ele><time>2026-04-25T15:02:13.002Z</time></trkpt><trkpt lat="46.03437178508392" lon="9.187835683540557"><ele>371.0</ele><time>2026-04-25T15:02:14.002Z</time></trkpt><trkpt lat="46.03424541785618" lon="9.187983580642008"><ele>371.0</ele><time>2026-04-25T15:02:15.002Z</time></trkpt><trkpt lat="46.03412191334511" lon="9.188124007935329"><ele>369.33333333333337</ele><time>2026-04-25T15:02:16.002Z</time></trkpt><trkpt lat="46.03399430212369" lon="9.188267892756533"><ele>367.6666666666667</ele><time>2026-04-25T15:02:17.002Z</time></trkpt><trkpt lat="46.03387170063277" lon="9.188414970121013"><ele>366.0</ele><time>2026-04-25T15:02:18.002Z</time></trkpt><trkpt lat="46.03376082226372" lon="9.188572123887399"><ele>366.0</ele><time>2026-04-25T15:02:19.002Z</time></trkpt><trkpt lat="46.03366023235306" lon="9.188742066973628"><ele>366.0</ele><time>2026-04-25T15:02:20.002Z</time></trkpt><trkpt lat="46.03356880420169" lon="9.188925084938287"><ele>366.0</ele><time>2026-04-25T15:02:21.002Z</time></trkpt><trkpt lat="46.03348566454087" lon="9.189108798695804"><ele>364.3333333333333</ele><time>2026-04-25T15:02:22.002Z</time></trkpt><trkpt lat="46.03340417801721" lon="9.18929783444944"><ele>362.66666666666663</ele><time>2026-04-25T15:02:23.002Z</time></trkpt><trkpt lat="46.033324724886285" lon="9.189483487677998"><ele>361.0</ele><time>2026-04-25T15:02:24.002Z</time></trkpt><trkpt lat="46.033243427501674" lon="9.189662662776716"><ele>363.66666666666663</ele><time>2026-04-25T15:02:24.998Z</time></trkpt><trkpt lat="46.03315704384706" lon="9.189842311053086"><ele>366.3333333333333</ele><time>2026-04-25T15:02:25.998Z</time></trkpt><trkpt lat="46.0330667732351" lon="9.190024065175548"><ele>369.0</ele><time>2026-04-25T15:02:26.998Z</time></trkpt><trkpt lat="46.0329747245632" lon="9.190209781068942"><ele>369.0</ele><time>2026-04-25T15:02:27.998Z</time></trkpt><trkpt lat="46.032877561890274" lon="9.190399810336515"><ele>369.0</ele><time>2026-04-25T15:02:28.998Z</time></trkpt><trkpt lat="46.032775796659564" lon="9.190600067829243"><ele>369.0</ele><time>2026-04-25T15:02:29.998Z</time></trkpt><trkpt lat="46.03266339846836" lon="9.190816481651549"><ele>369.6666666666667</ele><time>2026-04-25T15:02:30.998Z</time></trkpt><trkpt lat="46.032556014616716" lon="9.191036085543296"><ele>370.33333333333337</ele><time>2026-04-25T15:02:31.998Z</time></trkpt><trkpt lat="46.03244408075263" lon="9.191258250111158"><ele>371.0</ele><time>2026-04-25T15:02:32.998Z</time></trkpt><trkpt lat="46.03232953400532" lon="9.19148101217552"><ele>369.0</ele><time>2026-04-25T15:02:33.998Z</time></trkpt><trkpt lat="46.032221512600806" lon="9.191690168697624"><ele>367.0</ele><time>2026-04-25T15:02:34.998Z</time></trkpt><trkpt lat="46.032103818051574" lon="9.19192103351082"><ele>365.0</ele><time>2026-04-25T15:02:35.998Z</time></trkpt><trkpt lat="46.031984369734246" lon="9.192155131675573"><ele>364.6666666666667</ele><time>2026-04-25T15:02:36.998Z</time></trkpt><trkpt lat="46.03186547988401" lon="9.192389700939819"><ele>364.3333333333333</ele><time>2026-04-25T15:02:37.998Z</time></trkpt><trkpt lat="46.03174712920494" lon="9.192622557983348"><ele>364.0</ele><time>2026-04-25T15:02:38.999Z</time></trkpt><trkpt lat="46.03162829135522" lon="9.192852692272112"><ele>364.0</ele><time>2026-04-25T15:02:39.999Z</time></trkpt><trkpt lat="46.03151057501608" lon="9.193077022126372"><ele>364.0</ele><time>2026-04-25T15:02:40.999Z</time></trkpt><trkpt lat="46.03139417104482" lon="9.193292064568654"><ele>364.0</ele><time>2026-04-25T15:02:41.999Z</time></trkpt><trkpt lat="46.03127983686517" lon="9.193502846038113"><ele>366.0</ele><time>2026-04-25T15:02:42.999Z</time></trkpt><trkpt lat="46.03116838360048" lon="9.193707297889407"><ele>368.0</ele><time>2026-04-25T15:02:43.999Z</time></trkpt><trkpt lat="46.03106006362593" lon="9.193908356048206"><ele>370.0</ele><time>2026-04-25T15:02:44.999Z</time></trkpt><trkpt lat="46.03095072708722" lon="9.194111437837686"><ele>368.0</ele><time>2026-04-25T15:02:45.999Z</time></trkpt><trkpt lat="46.030837176703066" lon="9.19431748480175"><ele>366.0</ele><time>2026-04-25T15:02:46.999Z</time></trkpt><trkpt lat="46.03072727323688" lon="9.194520118740208"><ele>364.0</ele><time>2026-04-25T15:02:47.999Z</time></trkpt><trkpt lat="46.030617018792" lon="9.194727493066607"><ele>367.0</ele><time>2026-04-25T15:02:48.999Z</time></trkpt><trkpt lat="46.03050698245559" lon="9.194934377974556"><ele>370.0</ele><time>2026-04-25T15:02:49.999Z</time></trkpt><trkpt lat="46.030400911158644" lon="9.195135156561207"><ele>373.0</ele><time>2026-04-25T15:02:50.999Z</time></trkpt><trkpt lat="46.030292353865484" lon="9.195336551941054"><ele>373.0</ele><time>2026-04-25T15:02:51.999Z</time></trkpt><trkpt lat="46.03018501170994" lon="9.195536941371023"><ele>373.0</ele><time>2026-04-25T15:02:52.999Z</time></trkpt><trkpt lat="46.0300764517105" lon="9.195740692223668"><ele>373.0</ele><time>2026-04-25T15:02:53.999Z</time></trkpt><trkpt lat="46.029968897913555" lon="9.195944076864887"><ele>373.0</ele><time>2026-04-25T15:02:54.999Z</time></trkpt><trkpt lat="46.029860519038905" lon="9.196146925766774"><ele>373.0</ele><time>2026-04-25T15:02:56Z</time></trkpt><trkpt lat="46.02975231481294" lon="9.19635062593468"><ele>373.0</ele><time>2026-04-25T15:02:57Z</time></trkpt><trkpt lat="46.0296467149959" lon="9.196557295964515"><ele>373.0</ele><time>2026-04-25T15:02:58Z</time></trkpt><trkpt lat="46.029543176008445" lon="9.19676550896533"><ele>373.0</ele><time>2026-04-25T15:02:59Z</time></trkpt><trkpt lat="46.02942685229231" lon="9.196954206640163"><ele>373.0</ele><time>2026-04-25T15:03:00Z</time></trkpt><trkpt lat="46.02934239665583" lon="9.197159591230134"><ele>377.0</ele><time>2026-04-25T15:03:01Z</time></trkpt><trkpt lat="46.029256483056244" lon="9.197375124350808"><ele>381.0</ele><time>2026-04-25T15:03:02Z</time></trkpt><trkpt lat="46.02917695424878" lon="9.197596108066882"><ele>385.0</ele><time>2026-04-25T15:03:03Z</time></trkpt><trkpt lat="46.0291044978266" lon="9.197828096102748"><ele>378.0</ele><time>2026-04-25T15:03:04Z</time></trkpt><trkpt lat="46.029029918956326" lon="9.198063819461991"><ele>371.0</ele><time>2026-04-25T15:03:05Z</time></trkpt><trkpt lat="46.02895356491121" lon="9.1983045445195"><ele>364.0</ele><time>2026-04-25T15:03:06Z</time></trkpt><trkpt lat="46.02887840041297" lon="9.198545359198944"><ele>364.0</ele><time>2026-04-25T15:03:07Z</time></trkpt><trkpt lat="46.028807821833375" lon="9.198774518604834"><ele>364.0</ele><time>2026-04-25T15:03:08Z</time></trkpt><trkpt lat="46.02873621574048" lon="9.198999705228672"><ele>364.0</ele><time>2026-04-25T15:03:09Z</time></trkpt><trkpt lat="46.02866455853822" lon="9.19922505246442"><ele>367.0</ele><time>2026-04-25T15:03:10Z</time></trkpt><trkpt lat="46.02859084778857" lon="9.199456857779591"><ele>370.0</ele><time>2026-04-25T15:03:11Z</time></trkpt><trkpt lat="46.028518725733754" lon="9.199686458972783"><ele>373.0</ele><time>2026-04-25T15:03:12Z</time></trkpt><trkpt lat="46.02844647048665" lon="9.199917753283724"><ele>374.66666666666663</ele><time>2026-04-25T15:03:13Z</time></trkpt><trkpt lat="46.0283736512329" lon="9.200150853134817"><ele>376.3333333333333</ele><time>2026-04-25T15:03:14Z</time></trkpt><trkpt lat="46.02830309397809" lon="9.200389419550966"><ele>378.0</ele><time>2026-04-25T15:03:15Z</time></trkpt><trkpt lat="46.02823619742619" lon="9.200620831549028"><ele>377.0</ele><time>2026-04-25T15:03:16Z</time></trkpt><trkpt lat="46.02817041439344" lon="9.200854931386496"><ele>376.0</ele><time>2026-04-25T15:03:17Z</time></trkpt><trkpt lat="46.02810926133973" lon="9.201089404246636"><ele>375.0</ele><time>2026-04-25T15:03:18Z</time></trkpt><trkpt lat="46.02805572754757" lon="9.201328440623769"><ele>377.6666666666667</ele><time>2026-04-25T15:03:19Z</time></trkpt><trkpt lat="46.02800513802177" lon="9.201572499561333"><ele>380.33333333333337</ele><time>2026-04-25T15:03:20Z</time></trkpt><trkpt lat="46.02795757704643" lon="9.201807198508208"><ele>383.0</ele><time>2026-04-25T15:03:21Z</time></trkpt><trkpt lat="46.027913298292916" lon="9.202031842892413"><ele>383.0</ele><time>2026-04-25T15:03:22.001Z</time></trkpt><trkpt lat="46.02788157153154" lon="9.20226076892888"><ele>383.0</ele><time>2026-04-25T15:03:23.001Z</time></trkpt><trkpt lat="46.027815794084184" lon="9.20248249729833"><ele>383.0</ele><time>2026-04-25T15:03:24.001Z</time></trkpt><trkpt lat="46.02775974609618" lon="9.20270647109806"><ele>381.6666666666667</ele><time>2026-04-25T15:03:25.001Z</time></trkpt><trkpt lat="46.027716263928774" lon="9.202923954369423"><ele>380.3333333333333</ele><time>2026-04-25T15:03:26.001Z</time></trkpt><trkpt lat="46.02763819720945" lon="9.203119715718328"><ele>379.0</ele><time>2026-04-25T15:03:27.001Z</time></trkpt><trkpt lat="46.02756842031731" lon="9.203321661847141"><ele>378.3333333333333</ele><time>2026-04-25T15:03:28.001Z</time></trkpt><trkpt lat="46.027491589793975" lon="9.203524578238898"><ele>377.6666666666667</ele><time>2026-04-25T15:03:29.001Z</time></trkpt><trkpt lat="46.02741033980796" lon="9.203728239582784"><ele>377.0</ele><time>2026-04-25T15:03:30.001Z</time></trkpt><trkpt lat="46.027326844340664" lon="9.203932771045089"><ele>374.33333333333337</ele><time>2026-04-25T15:03:31.001Z</time></trkpt><trkpt lat="46.02724235944544" lon="9.204139725992587"><ele>371.6666666666667</ele><time>2026-04-25T15:03:32.001Z</time></trkpt><trkpt lat="46.027158601838245" lon="9.204345118148419"><ele>369.0</ele><time>2026-04-25T15:03:33.001Z</time></trkpt><trkpt lat="46.027072873387425" lon="9.204555400830428"><ele>369.0</ele><time>2026-04-25T15:03:34.001Z</time></trkpt><trkpt lat="46.026985952289635" lon="9.204768613199615"><ele>369.0</ele><time>2026-04-25T15:03:35.001Z</time></trkpt><trkpt lat="46.02690015283031" lon="9.204980739752056"><ele>369.0</ele><time>2026-04-25T15:03:36.001Z</time></trkpt><trkpt lat="46.026814632564616" lon="9.205192633912874"><ele>369.0</ele><time>2026-04-25T15:03:37.001Z</time></trkpt><trkpt lat="46.02674452394807" lon="9.205411338432073"><ele>369.0</ele><time>2026-04-25T15:03:38.001Z</time></trkpt><trkpt lat="46.026661763042156" lon="9.20561203524072"><ele>369.0</ele><time>2026-04-25T15:03:39.001Z</time></trkpt><trkpt lat="46.02657690383619" lon="9.205817485000212"><ele>369.0</ele><time>2026-04-25T15:03:40.001Z</time></trkpt><trkpt lat="46.02648053995688" lon="9.206005633566447"><ele>369.0</ele><time>2026-04-25T15:03:41.001Z</time></trkpt><trkpt lat="46.026405560238395" lon="9.206211128181618"><ele>369.0</ele><time>2026-04-25T15:03:42.001Z</time></trkpt><trkpt lat="46.02631140133943" lon="9.206401309916577"><ele>369.6666666666667</ele><time>2026-04-25T15:03:43.001Z</time></trkpt><trkpt lat="46.02621225623113" lon="9.206586330755492"><ele>370.33333333333337</ele><time>2026-04-25T15:03:44.001Z</time></trkpt><trkpt lat="46.02610212109189" lon="9.206736074069585"><ele>371.0</ele><time>2026-04-25T15:03:45.001Z</time></trkpt><trkpt lat="46.0260203096921" lon="9.20689627953327"><ele>371.0</ele><time>2026-04-25T15:03:46.001Z</time></trkpt><trkpt lat="46.02593777458338" lon="9.20700141112615"><ele>371.0</ele><time>2026-04-25T15:03:47.001Z</time></trkpt><trkpt lat="46.025868675498145" lon="9.207098802266765"><ele>371.0</ele><time>2026-04-25T15:03:49.001Z</time></trkpt><trkpt lat="46.02580587273397" lon="9.207127438236956"><ele>371.0</ele><time>2026-04-25T15:03:51.001Z</time></trkpt><trkpt lat="46.02573059100791" lon="9.207169536425782"><ele>371.0</ele><time>2026-04-25T15:04:04.002Z</time></trkpt><trkpt lat="46.02571255226647" lon="9.20725965362783"><ele>371.0</ele><time>2026-04-25T15:04:08.002Z</time></trkpt><trkpt lat="46.0256563809162" lon="9.20736096699744"><ele>372.57142857142856</ele><time>2026-04-25T15:11:06Z</time></trkpt><trkpt lat="46.02562890912933" lon="9.207450329496377"><ele>374.1428571428571</ele><time>2026-04-25T15:11:08Z</time></trkpt><trkpt lat="46.025597913231366" lon="9.207530990137306"><ele>375.7142857142857</ele><time>2026-04-25T15:11:12Z</time></trkpt><trkpt lat="46.025553756303175" lon="9.207631252646475"><ele>377.2857142857143</ele><time>2026-04-25T15:11:16Z</time></trkpt><trkpt lat="46.0255039427226" lon="9.207704080358933"><ele>378.85714285714283</ele><time>2026-04-25T15:11:17Z</time></trkpt><trkpt lat="46.02545136812949" lon="9.20778079065611"><ele>380.42857142857144</ele><time>2026-04-25T15:11:18.001Z</time></trkpt><trkpt lat="46.0254025580925" lon="9.207864275981041"><ele>382.0</ele><time>2026-04-25T15:11:19.001Z</time></trkpt><trkpt lat="46.02534341530482" lon="9.207953664581462"><ele>382.0</ele><time>2026-04-25T15:11:20.001Z</time></trkpt><trkpt lat="46.02528348793506" lon="9.208046397384447"><ele>382.0</ele><time>2026-04-25T15:11:21.001Z</time></trkpt><trkpt lat="46.02521965464387" lon="9.208146717056168"><ele>382.0</ele><time>2026-04-25T15:11:22.001Z</time></trkpt><trkpt lat="46.025153514614324" lon="9.208220183824327"><ele>382.0</ele><time>2026-04-25T15:11:23.001Z</time></trkpt><trkpt lat="46.02508894966119" lon="9.20831811068315"><ele>382.0</ele><time>2026-04-25T15:11:24.001Z</time></trkpt><trkpt lat="46.02503588180866" lon="9.208438015937178"><ele>387.20000000000005</ele><time>2026-04-25T15:11:25.001Z</time></trkpt><trkpt lat="46.024967587167296" lon="9.208549122021003"><ele>392.4</ele><time>2026-04-25T15:11:26.001Z</time></trkpt><trkpt lat="46.024908051817306" lon="9.208678710299663"><ele>397.6</ele><time>2026-04-25T15:11:27.001Z</time></trkpt><trkpt lat="46.024855650262985" lon="9.208819042970243"><ele>402.79999999999995</ele><time>2026-04-25T15:11:28.001Z</time></trkpt><trkpt lat="46.024808222325674" lon="9.208976184605447"><ele>408.0</ele><time>2026-04-25T15:11:29.001Z</time></trkpt><trkpt lat="46.02477619368773" lon="9.209148840234294"><ele>408.0</ele><time>2026-04-25T15:11:30.001Z</time></trkpt><trkpt lat="46.02475909448804" lon="9.209336316531495"><ele>408.0</ele><time>2026-04-25T15:11:31.001Z</time></trkpt><trkpt lat="46.0247525277707" lon="9.209524169963005"><ele>408.0</ele><time>2026-04-25T15:11:32.001Z</time></trkpt><trkpt lat="46.02475635986508" lon="9.209685788164181"><ele>408.0</ele><time>2026-04-25T15:11:33.001Z</time></trkpt><trkpt lat="46.02474763717229" lon="9.209860210504706"><ele>407.25</ele><time>2026-04-25T15:11:34.001Z</time></trkpt><trkpt lat="46.02473164527924" lon="9.210032185354668"><ele>406.5</ele><time>2026-04-25T15:11:35.001Z</time></trkpt><trkpt lat="46.02470370856411" lon="9.21019404258729"><ele>405.75</ele><time>2026-04-25T15:11:36.001Z</time></trkpt><trkpt lat="46.024666675624594" lon="9.210350074234011"><ele>405.0</ele><time>2026-04-25T15:11:37.001Z</time></trkpt><trkpt lat="46.024623906793586" lon="9.210497614243721"><ele>405.0</ele><time>2026-04-25T15:11:38.001Z</time></trkpt><trkpt lat="46.024570234820935" lon="9.210634257816965"><ele>405.0</ele><time>2026-04-25T15:11:39.001Z</time></trkpt><trkpt lat="46.02452041581268" lon="9.210761066745984"><ele>405.0</ele><time>2026-04-25T15:11:40.001Z</time></trkpt><trkpt lat="46.024478552822714" lon="9.21088591359401"><ele>405.0</ele><time>2026-04-25T15:11:41.001Z</time></trkpt><trkpt lat="46.02444478421085" lon="9.21100517174606"><ele>405.0</ele><time>2026-04-25T15:11:42.001Z</time></trkpt><trkpt lat="46.02441860051174" lon="9.211118543343375"><ele>404.0</ele><time>2026-04-25T15:11:43.001Z</time></trkpt><trkpt lat="46.02439655323359" lon="9.21122991363212"><ele>403.0</ele><time>2026-04-25T15:11:44.001Z</time></trkpt><trkpt lat="46.024381121247174" lon="9.211334940615691"><ele>402.0</ele><time>2026-04-25T15:11:45.001Z</time></trkpt><trkpt lat="46.02436990165117" lon="9.21143693592714"><ele>401.0</ele><time>2026-04-25T15:11:46.001Z</time></trkpt><trkpt lat="46.02436055915105" lon="9.21153696460748"><ele>400.0</ele><time>2026-04-25T15:11:47.001Z</time></trkpt><trkpt lat="46.02435465304553" lon="9.21164779673112"><ele>399.0</ele><time>2026-04-25T15:11:48.001Z</time></trkpt><trkpt lat="46.02434481520579" lon="9.211760836160726"><ele>398.79999999999995</ele><time>2026-04-25T15:11:49.001Z</time></trkpt><trkpt lat="46.024328551664006" lon="9.211880825415204"><ele>398.59999999999997</ele><time>2026-04-25T15:11:50.001Z</time></trkpt><trkpt lat="46.02429381346618" lon="9.212005023709642"><ele>398.4</ele><time>2026-04-25T15:11:51.001Z</time></trkpt><trkpt lat="46.0242433998488" lon="9.212132196174217"><ele>398.2</ele><time>2026-04-25T15:11:52.001Z</time></trkpt><trkpt lat="46.0241764783789" lon="9.212253899253207"><ele>398.0</ele><time>2026-04-25T15:11:53.001Z</time></trkpt><trkpt lat="46.024101803357375" lon="9.212389468189544"><ele>398.0</ele><time>2026-04-25T15:11:54.001Z</time></trkpt><trkpt lat="46.02401735345635" lon="9.212535072944704"><ele>398.0</ele><time>2026-04-25T15:11:55.001Z</time></trkpt><trkpt lat="46.02392882538472" lon="9.212683557512646"><ele>398.0</ele><time>2026-04-25T15:11:56.001Z</time></trkpt><trkpt lat="46.02384423992291" lon="9.2128173988703"><ele>398.0</ele><time>2026-04-25T15:11:57.001Z</time></trkpt><trkpt lat="46.023759350490444" lon="9.212944083027692"><ele>398.0</ele><time>2026-04-25T15:11:58.001Z</time></trkpt><trkpt lat="46.023658838666925" lon="9.213068037641344"><ele>398.0</ele><time>2026-04-25T15:11:59.001Z</time></trkpt><trkpt lat="46.02357035273452" lon="9.213199009148505"><ele>398.0</ele><time>2026-04-25T15:12:00.001Z</time></trkpt><trkpt lat="46.023472433335996" lon="9.213342426784962"><ele>398.0</ele><time>2026-04-25T15:12:01.001Z</time></trkpt><trkpt lat="46.02337281473719" lon="9.213493149392857"><ele>401.3333333333333</ele><time>2026-04-25T15:12:02.001Z</time></trkpt><trkpt lat="46.02326668815643" lon="9.213646358854454"><ele>404.66666666666663</ele><time>2026-04-25T15:12:03.001Z</time></trkpt><trkpt lat="46.023157274475764" lon="9.213808876390665"><ele>408.0</ele><time>2026-04-25T15:12:04.001Z</time></trkpt><trkpt lat="46.02304208666533" lon="9.213974877022855"><ele>402.33333333333337</ele><time>2026-04-25T15:12:05.001Z</time></trkpt><trkpt lat="46.022947578790124" lon="9.214121595076364"><ele>396.6666666666667</ele><time>2026-04-25T15:12:06.001Z</time></trkpt><trkpt lat="46.0228215507965" lon="9.214274168506035"><ele>391.0</ele><time>2026-04-25T15:12:07.001Z</time></trkpt><trkpt lat="46.02271555536392" lon="9.214435951628609"><ele>391.0</ele><time>2026-04-25T15:12:08.001Z</time></trkpt><trkpt lat="46.02260726063497" lon="9.214596535497593"><ele>391.0</ele><time>2026-04-25T15:12:09.001Z</time></trkpt><trkpt lat="46.02250458051526" lon="9.214751921324439"><ele>391.0</ele><time>2026-04-25T15:12:10.001Z</time></trkpt><trkpt lat="46.02240840040436" lon="9.214925818254866"><ele>395.33333333333337</ele><time>2026-04-25T15:12:11.001Z</time></trkpt><trkpt lat="46.022332856915384" lon="9.215109349273064"><ele>399.66666666666663</ele><time>2026-04-25T15:12:12.001Z</time></trkpt><trkpt lat="46.022258354787446" lon="9.215308947459693"><ele>404.0</ele><time>2026-04-25T15:12:13.001Z</time></trkpt><trkpt lat="46.02219753731966" lon="9.215504692522705"><ele>401.75</ele><time>2026-04-25T15:12:14.001Z</time></trkpt><trkpt lat="46.02212636684587" lon="9.215697143662739"><ele>399.5</ele><time>2026-04-25T15:12:15.001Z</time></trkpt><trkpt lat="46.022048336250954" lon="9.215860548625919"><ele>397.25</ele><time>2026-04-25T15:12:16.001Z</time></trkpt><trkpt lat="46.02195528004707" lon="9.21601532368096"><ele>395.0</ele><time>2026-04-25T15:12:17.001Z</time></trkpt><trkpt lat="46.021855185875935" lon="9.216164715154832"><ele>395.0</ele><time>2026-04-25T15:12:18.001Z</time></trkpt><trkpt lat="46.021749230579665" lon="9.21631402405429"><ele>395.0</ele><time>2026-04-25T15:12:19.001Z</time></trkpt><trkpt lat="46.02164318823625" lon="9.216465675474975"><ele>395.0</ele><time>2026-04-25T15:12:20.001Z</time></trkpt><trkpt lat="46.02153590299736" lon="9.216621222728186"><ele>400.0</ele><time>2026-04-25T15:12:21.001Z</time></trkpt><trkpt lat="46.02142017736475" lon="9.21676841138877"><ele>405.0</ele><time>2026-04-25T15:12:22.001Z</time></trkpt><trkpt lat="46.021309808081995" lon="9.216939664743247"><ele>410.0</ele><time>2026-04-25T15:12:23.001Z</time></trkpt><trkpt lat="46.02119570266596" lon="9.217115615199175"><ele>410.0</ele><time>2026-04-25T15:12:24.001Z</time></trkpt><trkpt lat="46.02107420351008" lon="9.217291821832541"><ele>410.0</ele><time>2026-04-25T15:12:25.001Z</time></trkpt><trkpt lat="46.0209496513292" lon="9.217480145528304"><ele>410.0</ele><time>2026-04-25T15:12:26.001Z</time></trkpt><trkpt lat="46.02084461658374" lon="9.217666051706738"><ele>408.3333333333333</ele><time>2026-04-25T15:12:27.001Z</time></trkpt><trkpt lat="46.02077289386725" lon="9.217886339774719"><ele>406.66666666666663</ele><time>2026-04-25T15:12:28.001Z</time></trkpt><trkpt lat="46.02071623249071" lon="9.218057765482042"><ele>405.0</ele><time>2026-04-25T15:12:29.001Z</time></trkpt><trkpt lat="46.02065737462705" lon="9.218265785063647"><ele>405.0</ele><time>2026-04-25T15:12:30.001Z</time></trkpt><trkpt lat="46.02059428105214" lon="9.218483877645117"><ele>405.0</ele><time>2026-04-25T15:12:31.001Z</time></trkpt><trkpt lat="46.020526914313415" lon="9.218707437557963"><ele>405.0</ele><time>2026-04-25T15:12:32.001Z</time></trkpt><trkpt lat="46.020462504349474" lon="9.218919020399325"><ele>400.66666666666663</ele><time>2026-04-25T15:12:33.001Z</time></trkpt><trkpt lat="46.02040028511771" lon="9.219127538518174"><ele>396.3333333333333</ele><time>2026-04-25T15:12:34.001Z</time></trkpt><trkpt lat="46.02033881261671" lon="9.219334767411087"><ele>392.0</ele><time>2026-04-25T15:12:35.001Z</time></trkpt><trkpt lat="46.02027505334016" lon="9.21954237822234"><ele>392.0</ele><time>2026-04-25T15:12:36.001Z</time></trkpt><trkpt lat="46.02021600311377" lon="9.21974717546182"><ele>392.0</ele><time>2026-04-25T15:12:37.001Z</time></trkpt><trkpt lat="46.02015478095899" lon="9.219954283362048"><ele>392.0</ele><time>2026-04-25T15:12:38.001Z</time></trkpt><trkpt lat="46.02009216746589" lon="9.220165819776751"><ele>391.3333333333333</ele><time>2026-04-25T15:12:39.001Z</time></trkpt><trkpt lat="46.020027257835785" lon="9.220375115992244"><ele>390.66666666666663</ele><time>2026-04-25T15:12:40.001Z</time></trkpt><trkpt lat="46.019963303373" lon="9.220582595100693"><ele>390.0</ele><time>2026-04-25T15:12:41.001Z</time></trkpt><trkpt lat="46.0199001470396" lon="9.220791126569425"><ele>395.33333333333337</ele><time>2026-04-25T15:12:42.001Z</time></trkpt><trkpt lat="46.01983281586677" lon="9.220998579210754"><ele>400.6666666666667</ele><time>2026-04-25T15:12:43.001Z</time></trkpt><trkpt lat="46.01976996947288" lon="9.221203369771004"><ele>406.0</ele><time>2026-04-25T15:12:44.001Z</time></trkpt><trkpt lat="46.01970749204432" lon="9.221406709453692"><ele>403.6666666666667</ele><time>2026-04-25T15:12:45.001Z</time></trkpt><trkpt lat="46.019612822147074" lon="9.221580969126332"><ele>401.33333333333337</ele><time>2026-04-25T15:12:46.001Z</time></trkpt><trkpt lat="46.01952931917029" lon="9.22177429556669"><ele>399.0</ele><time>2026-04-25T15:12:47.001Z</time></trkpt><trkpt lat="46.01943430209378" lon="9.22194911876094"><ele>399.0</ele><time>2026-04-25T15:12:48.001Z</time></trkpt><trkpt lat="46.019332595218636" lon="9.22212448480027"><ele>399.0</ele><time>2026-04-25T15:12:49.001Z</time></trkpt><trkpt lat="46.0192314324152" lon="9.22230589566689"><ele>399.0</ele><time>2026-04-25T15:12:50.001Z</time></trkpt><trkpt lat="46.01913945043923" lon="9.222500976390503"><ele>405.33333333333337</ele><time>2026-04-25T15:12:51.001Z</time></trkpt><trkpt lat="46.019083096814185" lon="9.222724175747603"><ele>411.6666666666667</ele><time>2026-04-25T15:12:52.001Z</time></trkpt><trkpt lat="46.01900111869821" lon="9.22292141924401"><ele>418.0</ele><time>2026-04-25T15:12:53.001Z</time></trkpt><trkpt lat="46.01893488129087" lon="9.223124394288059"><ele>414.0</ele><time>2026-04-25T15:12:54.001Z</time></trkpt><trkpt lat="46.01887717793997" lon="9.223304167120656"><ele>410.0</ele><time>2026-04-25T15:12:54.999Z</time></trkpt><trkpt lat="46.01882390579171" lon="9.223471608608941"><ele>406.0</ele><time>2026-04-25T15:12:55.999Z</time></trkpt><trkpt lat="46.01879088481249" lon="9.22362408639058"><ele>402.0</ele><time>2026-04-25T15:12:56.999Z</time></trkpt><trkpt lat="46.018752554530536" lon="9.223738516828893"><ele>402.0</ele><time>2026-04-25T15:12:57.999Z</time></trkpt><trkpt lat="46.01872535947518" lon="9.223832767017312"><ele>402.0</ele><time>2026-04-25T15:12:58.999Z</time></trkpt><trkpt lat="46.018683769037686" lon="9.223905543966955"><ele>402.0</ele><time>2026-04-25T15:12:59.999Z</time></trkpt><trkpt lat="46.01866479084681" lon="9.224042781541828"><ele>402.0</ele><time>2026-04-25T15:13:01.999Z</time></trkpt><trkpt lat="46.018649405938895" lon="9.224149036126205"><ele>402.0</ele><time>2026-04-25T15:13:12.999Z</time></trkpt><trkpt lat="46.01866765201699" lon="9.224277786477614"><ele>402.0</ele><time>2026-04-25T15:13:14.999Z</time></trkpt><trkpt lat="46.01868341344627" lon="9.224374565034402"><ele>401.0</ele><time>2026-04-25T15:13:15.999Z</time></trkpt><trkpt lat="46.01870624702588" lon="9.224483197041152"><ele>400.0</ele><time>2026-04-25T15:13:16.999Z</time></trkpt><trkpt lat="46.01872444734744" lon="9.224575058911832"><ele>399.0</ele><time>2026-04-25T15:13:17.999Z</time></trkpt><trkpt lat="46.01873352056755" lon="9.224680870713533"><ele>398.0</ele><time>2026-04-25T15:13:18.999Z</time></trkpt><trkpt lat="46.018735902590066" lon="9.22479160117182"><ele>397.0</ele><time>2026-04-25T15:13:19.999Z</time></trkpt><trkpt lat="46.01872705480858" lon="9.22491525958462"><ele>396.0</ele><time>2026-04-25T15:13:20.999Z</time></trkpt><trkpt lat="46.01872063222492" lon="9.22503554443185"><ele>395.4</ele><time>2026-04-25T15:13:22Z</time></trkpt><trkpt lat="46.01873072136732" lon="9.225152722859404"><ele>394.8</ele><time>2026-04-25T15:13:23Z</time></trkpt><trkpt lat="46.01875370207557" lon="9.225281904380196"><ele>394.2</ele><time>2026-04-25T15:13:24Z</time></trkpt><trkpt lat="46.018794192914406" lon="9.225417094688702"><ele>393.59999999999997</ele><time>2026-04-25T15:13:25Z</time></trkpt><trkpt lat="46.01884335422051" lon="9.225544361990922"><ele>393.0</ele><time>2026-04-25T15:13:26Z</time></trkpt><trkpt lat="46.01890035464177" lon="9.225671843132996"><ele>391.79999999999995</ele><time>2026-04-25T15:13:27Z</time></trkpt><trkpt lat="46.0189435241496" lon="9.225817032446392"><ele>390.6</ele><time>2026-04-25T15:13:28Z</time></trkpt><trkpt lat="46.01899568524504" lon="9.22593318895491"><ele>389.4</ele><time>2026-04-25T15:13:29Z</time></trkpt><trkpt lat="46.0190552455911" lon="9.226051317759664"><ele>388.20000000000005</ele><time>2026-04-25T15:13:30Z</time></trkpt><trkpt lat="46.01910522884224" lon="9.226155735010975"><ele>387.0</ele><time>2026-04-25T15:13:31Z</time></trkpt><trkpt lat="46.019158238725616" lon="9.226255675437825"><ele>387.0</ele><time>2026-04-25T15:13:32Z</time></trkpt><trkpt lat="46.01921519631311" lon="9.226335359383784"><ele>387.0</ele><time>2026-04-25T15:13:33Z</time></trkpt><trkpt lat="46.01928389184192" lon="9.226403004967697"><ele>387.0</ele><time>2026-04-25T15:13:34Z</time></trkpt><trkpt lat="46.01937273569753" lon="9.226462993958677"><ele>387.0</ele><time>2026-04-25T15:13:35Z</time></trkpt><trkpt lat="46.019473691812465" lon="9.226522123819489"><ele>387.0</ele><time>2026-04-25T15:13:36Z</time></trkpt><trkpt lat="46.01957979793237" lon="9.226578004367479"><ele>384.20000000000005</ele><time>2026-04-25T15:13:37Z</time></trkpt><trkpt lat="46.01967814073868" lon="9.226626771874542"><ele>381.4</ele><time>2026-04-25T15:13:38Z</time></trkpt><trkpt lat="46.0197738096777" lon="9.226671686243664"><ele>378.6</ele><time>2026-04-25T15:13:39Z</time></trkpt><trkpt lat="46.019857215247576" lon="9.226723284311888"><ele>375.79999999999995</ele><time>2026-04-25T15:13:40Z</time></trkpt><trkpt lat="46.01992848635308" lon="9.226806790613377"><ele>373.0</ele><time>2026-04-25T15:13:41Z</time></trkpt><trkpt lat="46.019974379716764" lon="9.226911459528784"><ele>372.59999999999997</ele><time>2026-04-25T15:13:42Z</time></trkpt><trkpt lat="46.02000421196986" lon="9.227023962007104"><ele>372.2</ele><time>2026-04-25T15:13:43Z</time></trkpt><trkpt lat="46.02002039205948" lon="9.227145286781788"><ele>371.8</ele><time>2026-04-25T15:13:44Z</time></trkpt><trkpt lat="46.020033902346114" lon="9.227282779180669"><ele>371.4</ele><time>2026-04-25T15:13:45Z</time></trkpt><trkpt lat="46.02005035370573" lon="9.227416381127856"><ele>371.0</ele><time>2026-04-25T15:13:46Z</time></trkpt><trkpt lat="46.020083203938" lon="9.22754223225013"><ele>371.0</ele><time>2026-04-25T15:13:47Z</time></trkpt><trkpt lat="46.02012231066308" lon="9.227653381961247"><ele>371.0</ele><time>2026-04-25T15:13:48Z</time></trkpt><trkpt lat="46.02017584325139" lon="9.227754048893615"><ele>371.0</ele><time>2026-04-25T15:13:49Z</time></trkpt><trkpt lat="46.02024070664005" lon="9.227846269009666"><ele>371.0</ele><time>2026-04-25T15:13:50Z</time></trkpt><trkpt lat="46.02032672287619" lon="9.227938457804695"><ele>371.0</ele><time>2026-04-25T15:13:51Z</time></trkpt><trkpt lat="46.020412144500085" lon="9.228041896194311"><ele>371.0</ele><time>2026-04-25T15:13:52Z</time></trkpt><trkpt lat="46.02049392402031" lon="9.228138594022873"><ele>371.0</ele><time>2026-04-25T15:13:53Z</time></trkpt><trkpt lat="46.02057624677493" lon="9.228232091638475"><ele>371.0</ele><time>2026-04-25T15:13:54Z</time></trkpt><trkpt lat="46.020662050032385" lon="9.228317956701263"><ele>371.0</ele><time>2026-04-25T15:13:55Z</time></trkpt><trkpt lat="46.0207493878135" lon="9.228388925806293"><ele>371.0</ele><time>2026-04-25T15:13:56Z</time></trkpt><trkpt lat="46.020842172635085" lon="9.228443529737818"><ele>370.4</ele><time>2026-04-25T15:13:57Z</time></trkpt><trkpt lat="46.02094412454656" lon="9.228472284585592"><ele>369.8</ele><time>2026-04-25T15:13:58Z</time></trkpt><trkpt lat="46.02105215199119" lon="9.22847426738118"><ele>369.2</ele><time>2026-04-25T15:13:59Z</time></trkpt><trkpt lat="46.02115728530626" lon="9.228469182431002"><ele>368.59999999999997</ele><time>2026-04-25T15:14:00Z</time></trkpt><trkpt lat="46.0212577184013" lon="9.228462541615961"><ele>368.0</ele><time>2026-04-25T15:14:01Z</time></trkpt><trkpt lat="46.021329199667164" lon="9.228458578271091"><ele>368.0</ele><time>2026-04-25T15:14:02Z</time></trkpt><trkpt lat="46.0214262176392" lon="9.22850169024359"><ele>368.0</ele><time>2026-04-25T15:14:04Z</time></trkpt><trkpt lat="46.02144207428894" lon="9.22864652343463"><ele>368.0</ele><time>2026-04-25T15:14:06Z</time></trkpt><trkpt lat="46.02139367500247" lon="9.228715624707123"><ele>368.0</ele><time>2026-04-25T15:14:07Z</time></trkpt><trkpt lat="46.021321406555195" lon="9.22876526790826"><ele>368.0</ele><time>2026-04-25T15:14:08Z</time></trkpt><trkpt lat="46.0212220113119" lon="9.228792421355749"><ele>368.0</ele><time>2026-04-25T15:14:09Z</time></trkpt><trkpt lat="46.02112572308649" lon="9.228829502671598"><ele>368.0</ele><time>2026-04-25T15:14:10Z</time></trkpt><trkpt lat="46.02102868124356" lon="9.228865866640424"><ele>368.0</ele><time>2026-04-25T15:14:11Z</time></trkpt><trkpt lat="46.02093679402654" lon="9.228897179524052"><ele>368.0</ele><time>2026-04-25T15:14:12Z</time></trkpt><trkpt lat="46.02083785805512" lon="9.228918526796779"><ele>368.0</ele><time>2026-04-25T15:14:13Z</time></trkpt><trkpt lat="46.020733350700674" lon="9.228915173952682"><ele>365.0</ele><time>2026-04-25T15:14:14Z</time></trkpt><trkpt lat="46.020621706685894" lon="9.228888625493278"><ele>362.0</ele><time>2026-04-25T15:14:15Z</time></trkpt><trkpt lat="46.020502700950175" lon="9.228840861762386"><ele>359.0</ele><time>2026-04-25T15:14:16Z</time></trkpt><trkpt lat="46.02037862434693" lon="9.228783925507168"><ele>356.0</ele><time>2026-04-25T15:14:17Z</time></trkpt><trkpt lat="46.02025890697965" lon="9.228723925233389"><ele>356.0</ele><time>2026-04-25T15:14:18Z</time></trkpt><trkpt lat="46.020150558002186" lon="9.22867340356784"><ele>356.0</ele><time>2026-04-25T15:14:19Z</time></trkpt><trkpt lat="46.02004362209888" lon="9.22861589838625"><ele>356.0</ele><time>2026-04-25T15:14:20Z</time></trkpt><trkpt lat="46.01993670181791" lon="9.228566633074944"><ele>356.0</ele><time>2026-04-25T15:14:21Z</time></trkpt><trkpt lat="46.01983427390557" lon="9.22850167259401"><ele>355.0</ele><time>2026-04-25T15:14:22Z</time></trkpt><trkpt lat="46.019744969580955" lon="9.228420113313051"><ele>354.0</ele><time>2026-04-25T15:14:23Z</time></trkpt><trkpt lat="46.01966826873" lon="9.228345055150294"><ele>353.0</ele><time>2026-04-25T15:14:24Z</time></trkpt><trkpt lat="46.01961203704405" lon="9.228299023739444"><ele>352.0</ele><time>2026-04-25T15:14:25Z</time></trkpt><trkpt lat="46.01954529905552" lon="9.228283738625803"><ele>351.0</ele><time>2026-04-25T15:14:26Z</time></trkpt><trkpt lat="46.0194719514978" lon="9.228296722044577"><ele>350.0</ele><time>2026-04-25T15:14:27Z</time></trkpt><trkpt lat="46.01940760321899" lon="9.228363331313053"><ele>350.0</ele><time>2026-04-25T15:14:28.001Z</time></trkpt><trkpt lat="46.01935438079913" lon="9.228470846629671"><ele>350.0</ele><time>2026-04-25T15:14:29.001Z</time></trkpt><trkpt lat="46.019300952578924" lon="9.228600884861299"><ele>350.0</ele><time>2026-04-25T15:14:30.001Z</time></trkpt><trkpt lat="46.01925113524534" lon="9.228728619632955"><ele>350.0</ele><time>2026-04-25T15:14:31.001Z</time></trkpt><trkpt lat="46.01920476071041" lon="9.228851347877468"><ele>350.0</ele><time>2026-04-25T15:14:32.001Z</time></trkpt><trkpt lat="46.01915385508607" lon="9.228967430324237"><ele>349.0</ele><time>2026-04-25T15:14:33.001Z</time></trkpt><trkpt lat="46.01909861827383" lon="9.229069940457611"><ele>348.0</ele><time>2026-04-25T15:14:34.001Z</time></trkpt><trkpt lat="46.01903428500956" lon="9.229164498471356"><ele>347.0</ele><time>2026-04-25T15:14:35.001Z</time></trkpt><trkpt lat="46.01896274832927" lon="9.229235084940463"><ele>346.0</ele><time>2026-04-25T15:14:36.001Z</time></trkpt><trkpt lat="46.01888237267818" lon="9.229284194398256"><ele>345.0</ele><time>2026-04-25T15:14:37.001Z</time></trkpt><trkpt lat="46.018807161316595" lon="9.229309996721282"><ele>344.0</ele><time>2026-04-25T15:14:38.001Z</time></trkpt><trkpt lat="46.01873215745682" lon="9.229345080834207"><ele>344.0</ele><time>2026-04-25T15:14:39.001Z</time></trkpt><trkpt lat="46.018682233526384" lon="9.229404726556252"><ele>344.0</ele><time>2026-04-25T15:14:40.001Z</time></trkpt><trkpt lat="46.01864206405949" lon="9.229541831576018"><ele>344.0</ele><time>2026-04-25T15:14:42.001Z</time></trkpt><trkpt lat="46.01871462608207" lon="9.229620928732109"><ele>344.0</ele><time>2026-04-25T15:14:43.001Z</time></trkpt><trkpt lat="46.0188470766313" lon="9.229597184618811"><ele>344.0</ele><time>2026-04-25T15:14:45.001Z</time></trkpt><trkpt lat="46.01892642432172" lon="9.229522781959854"><ele>344.0</ele><time>2026-04-25T15:14:46.001Z</time></trkpt><trkpt lat="46.019019575066096" lon="9.229461161345778"><ele>344.0</ele><time>2026-04-25T15:14:47.001Z</time></trkpt><trkpt lat="46.01911205898156" lon="9.229420643610991"><ele>344.0</ele><time>2026-04-25T15:14:48.001Z</time></trkpt><trkpt lat="46.01920187639215" lon="9.22939030793075"><ele>344.0</ele><time>2026-04-25T15:14:49.001Z</time></trkpt><trkpt lat="46.01928653251884" lon="9.229358928791566"><ele>344.0</ele><time>2026-04-25T15:14:50.001Z</time></trkpt><trkpt lat="46.01935789618671" lon="9.229344553593384"><ele>342.0</ele><time>2026-04-25T15:14:51.001Z</time></trkpt><trkpt lat="46.01942524373131" lon="9.229351102652231"><ele>340.0</ele><time>2026-04-25T15:14:52.001Z</time></trkpt><trkpt lat="46.019487922341376" lon="9.229385946681221"><ele>338.0</ele><time>2026-04-25T15:14:53.001Z</time></trkpt><trkpt lat="46.019550311275616" lon="9.229457011164346"><ele>336.0</ele><time>2026-04-25T15:14:54.001Z</time></trkpt><trkpt lat="46.01960327701703" lon="9.229559995595716"><ele>334.0</ele><time>2026-04-25T15:14:55.001Z</time></trkpt><trkpt lat="46.019646719804065" lon="9.22968088592525"><ele>332.0</ele><time>2026-04-25T15:14:56.001Z</time></trkpt><trkpt lat="46.019691938419165" lon="9.229795444396283"><ele>330.20000000000005</ele><time>2026-04-25T15:14:57.001Z</time></trkpt><trkpt lat="46.019737876296354" lon="9.229905577861631"><ele>328.4</ele><time>2026-04-25T15:14:58.001Z</time></trkpt><trkpt lat="46.01978628478182" lon="9.230008887448006"><ele>326.6</ele><time>2026-04-25T15:14:59.001Z</time></trkpt><trkpt lat="46.01983703251795" lon="9.230105708459988"><ele>324.79999999999995</ele><time>2026-04-25T15:15:00.001Z</time></trkpt><trkpt lat="46.019903002953214" lon="9.230193404604211"><ele>323.0</ele><time>2026-04-25T15:15:00.998Z</time></trkpt><trkpt lat="46.019987514102084" lon="9.23026985346244"><ele>323.0</ele><time>2026-04-25T15:15:01.998Z</time></trkpt><trkpt lat="46.0200812506913" lon="9.230325516128488"><ele>323.0</ele><time>2026-04-25T15:15:02.998Z</time></trkpt><trkpt lat="46.02018538999521" lon="9.230370702291507"><ele>323.0</ele><time>2026-04-25T15:15:03.998Z</time></trkpt><trkpt lat="46.02029718075902" lon="9.230414788134919"><ele>323.0</ele><time>2026-04-25T15:15:04.998Z</time></trkpt><trkpt lat="46.02041393838359" lon="9.230466022788926"><ele>323.0</ele><time>2026-04-25T15:15:05.998Z</time></trkpt><trkpt lat="46.0205252231459" lon="9.230517704881887"><ele>323.0</ele><time>2026-04-25T15:15:06.998Z</time></trkpt><trkpt lat="46.02062833316779" lon="9.230564546273067"><ele>323.0</ele><time>2026-04-25T15:15:07.998Z</time></trkpt><trkpt lat="46.02073273204213" lon="9.23059713711998"><ele>323.0</ele><time>2026-04-25T15:15:08.998Z</time></trkpt><trkpt lat="46.020828048939876" lon="9.23060217788743"><ele>323.0</ele><time>2026-04-25T15:15:09.998Z</time></trkpt><trkpt lat="46.020922970050684" lon="9.230587171750308"><ele>323.0</ele><time>2026-04-25T15:15:10.998Z</time></trkpt><trkpt lat="46.020995614605226" lon="9.230543382460386"><ele>323.83333333333337</ele><time>2026-04-25T15:15:11.998Z</time></trkpt><trkpt lat="46.021060476967705" lon="9.23051207844107"><ele>324.6666666666667</ele><time>2026-04-25T15:15:12.998Z</time></trkpt><trkpt lat="46.021167149688694" lon="9.230497858420005"><ele>325.5</ele><time>2026-04-25T15:15:14.998Z</time></trkpt><trkpt lat="46.02121202479415" lon="9.230585825118917"><ele>326.3333333333333</ele><time>2026-04-25T15:15:16.999Z</time></trkpt><trkpt lat="46.021161972967086" lon="9.23067567261758"><ele>327.16666666666663</ele><time>2026-04-25T15:15:18.999Z</time></trkpt><trkpt lat="46.02109223014776" lon="9.230723006530507"><ele>328.0</ele><time>2026-04-25T15:15:19.999Z</time></trkpt><trkpt lat="46.02099840137984" lon="9.230738736125712"><ele>323.4</ele><time>2026-04-25T15:15:20.999Z</time></trkpt><trkpt lat="46.02090313153849" lon="9.23078069105949"><ele>318.79999999999995</ele><time>2026-04-25T15:15:21.999Z</time></trkpt><trkpt lat="46.02081495732237" lon="9.230836852151228"><ele>314.2</ele><time>2026-04-25T15:15:22.999Z</time></trkpt><trkpt lat="46.02072621186362" lon="9.230901111369587"><ele>309.6</ele><time>2026-04-25T15:15:23.999Z</time></trkpt><trkpt lat="46.02064242013676" lon="9.230954479384291"><ele>305.0</ele><time>2026-04-25T15:15:24.999Z</time></trkpt><trkpt lat="46.02055459253854" lon="9.230997617295625"><ele>304.5</ele><time>2026-04-25T15:15:25.999Z</time></trkpt><trkpt lat="46.02046894280813" lon="9.231025085917128"><ele>304.0</ele><time>2026-04-25T15:15:26.999Z</time></trkpt><trkpt lat="46.02038604891229" lon="9.231034862491102"><ele>303.5</ele><time>2026-04-25T15:15:27.999Z</time></trkpt><trkpt lat="46.020306429520865" lon="9.231009939976614"><ele>303.0</ele><time>2026-04-25T15:15:28.999Z</time></trkpt><trkpt lat="46.02023871543311" lon="9.230965061639152"><ele>302.5</ele><time>2026-04-25T15:15:29.999Z</time></trkpt><trkpt lat="46.02012766369675" lon="9.231003680475142"><ele>302.0</ele><time>2026-04-25T15:15:31.999Z</time></trkpt><trkpt lat="46.02009833873323" lon="9.231135673773002"><ele>302.0</ele><time>2026-04-25T15:15:33.999Z</time></trkpt><trkpt lat="46.02017807917231" lon="9.23123482370745"><ele>302.0</ele><time>2026-04-25T15:15:35.999Z</time></trkpt><trkpt lat="46.020317236639215" lon="9.231229323113443"><ele>302.0</ele><time>2026-04-25T15:15:38Z</time></trkpt><trkpt lat="46.02040774773204" lon="9.231216037916289"><ele>302.0</ele><time>2026-04-25T15:15:39Z</time></trkpt><trkpt lat="46.02051797312016" lon="9.231204711282643"><ele>302.0</ele><time>2026-04-25T15:15:40Z</time></trkpt><trkpt lat="46.020640656611505" lon="9.23119612420321"><ele>302.0</ele><time>2026-04-25T15:15:41Z</time></trkpt><trkpt lat="46.020772620839864" lon="9.231185368641581"><ele>302.0</ele><time>2026-04-25T15:15:42Z</time></trkpt><trkpt lat="46.020903611307205" lon="9.231172070097214"><ele>302.0</ele><time>2026-04-25T15:15:43Z</time></trkpt><trkpt lat="46.02102873391333" lon="9.231158838512744"><ele>302.0</ele><time>2026-04-25T15:15:44Z</time></trkpt><trkpt lat="46.021144668237" lon="9.231152748423689"><ele>302.75</ele><time>2026-04-25T15:15:45Z</time></trkpt><trkpt lat="46.021261726865575" lon="9.231141133159687"><ele>303.5</ele><time>2026-04-25T15:15:46Z</time></trkpt><trkpt lat="46.02137613948527" lon="9.231134646759582"><ele>304.25</ele><time>2026-04-25T15:15:47Z</time></trkpt><trkpt lat="46.02149126133253" lon="9.23112398194923"><ele>305.0</ele><time>2026-04-25T15:15:48Z</time></trkpt><trkpt lat="46.021606404343515" lon="9.231116657292405"><ele>303.25</ele><time>2026-04-25T15:15:49Z</time></trkpt><trkpt lat="46.0217298640288" lon="9.23111552784273"><ele>301.5</ele><time>2026-04-25T15:15:50Z</time></trkpt><trkpt lat="46.021849290555444" lon="9.231135557245501"><ele>299.75</ele><time>2026-04-25T15:15:51Z</time></trkpt><trkpt lat="46.02195168850628" lon="9.231178120847838"><ele>298.0</ele><time>2026-04-25T15:15:52Z</time></trkpt><trkpt lat="46.02205005738901" lon="9.23124316973828"><ele>298.0</ele><time>2026-04-25T15:15:53Z</time></trkpt><trkpt lat="46.02214896401941" lon="9.231290288716307"><ele>298.0</ele><time>2026-04-25T15:15:54Z</time></trkpt><trkpt lat="46.02223083182605" lon="9.231381094325595"><ele>298.0</ele><time>2026-04-25T15:15:55Z</time></trkpt><trkpt lat="46.02231174353704" lon="9.231465626491914"><ele>298.0</ele><time>2026-04-25T15:15:56Z</time></trkpt><trkpt lat="46.02237628303939" lon="9.231562423833187"><ele>298.0</ele><time>2026-04-25T15:15:57Z</time></trkpt><trkpt lat="46.022427640160295" lon="9.231671028935324"><ele>295.8</ele><time>2026-04-25T15:15:58Z</time></trkpt><trkpt lat="46.02243666650616" lon="9.23180253488496"><ele>293.6</ele><time>2026-04-25T15:15:59Z</time></trkpt><trkpt lat="46.02245870019575" lon="9.23192643164906"><ele>291.4</ele><time>2026-04-25T15:16:00Z</time></trkpt><trkpt lat="46.02248937801336" lon="9.232070345791788"><ele>289.2</ele><time>2026-04-25T15:16:01Z</time></trkpt><trkpt lat="46.022478640375404" lon="9.23220410930297"><ele>287.0</ele><time>2026-04-25T15:16:02Z</time></trkpt><trkpt lat="46.022438522755635" lon="9.23233266078864"><ele>286.0</ele><time>2026-04-25T15:16:03Z</time></trkpt><trkpt lat="46.02237492096763" lon="9.232443380303996"><ele>285.0</ele><time>2026-04-25T15:16:04Z</time></trkpt><trkpt lat="46.0222886223016" lon="9.23255597864992"><ele>284.0</ele><time>2026-04-25T15:16:05Z</time></trkpt><trkpt lat="46.022198366748384" lon="9.232660285947027"><ele>283.0</ele><time>2026-04-25T15:16:06Z</time></trkpt><trkpt lat="46.02212017911256" lon="9.23277200714606"><ele>282.0</ele><time>2026-04-25T15:16:07Z</time></trkpt><trkpt lat="46.02204697568691" lon="9.232899232563014"><ele>282.0</ele><time>2026-04-25T15:16:08Z</time></trkpt><trkpt lat="46.02197596787917" lon="9.23303366092658"><ele>282.0</ele><time>2026-04-25T15:16:09Z</time></trkpt><trkpt lat="46.02195259810375" lon="9.233206505895286"><ele>282.0</ele><time>2026-04-25T15:16:10Z</time></trkpt><trkpt lat="46.02191252411858" lon="9.233364918322202"><ele>282.0</ele><time>2026-04-25T15:16:11Z</time></trkpt><trkpt lat="46.02187509582354" lon="9.233506228497365"><ele>281.2</ele><time>2026-04-25T15:16:12Z</time></trkpt><trkpt lat="46.021815809608775" lon="9.23361793064174"><ele>280.4</ele><time>2026-04-25T15:16:13Z</time></trkpt><trkpt lat="46.02176693276184" lon="9.23374171351802"><ele>279.6</ele><time>2026-04-25T15:16:14Z</time></trkpt><trkpt lat="46.02171716815475" lon="9.233863211834258"><ele>278.8</ele><time>2026-04-25T15:16:15Z</time></trkpt><trkpt lat="46.02167004542986" lon="9.233962754237066"><ele>278.0</ele><time>2026-04-25T15:16:16Z</time></trkpt><trkpt lat="46.02159343256798" lon="9.234072341644232"><ele>276.33333333333337</ele><time>2026-04-25T15:16:18Z</time></trkpt><trkpt lat="46.02153527514284" lon="9.234129250489262"><ele>274.6666666666667</ele><time>2026-04-25T15:16:20Z</time></trkpt><trkpt lat="46.021458477308734" lon="9.234204479528756"><ele>273.0</ele><time>2026-04-25T15:16:22Z</time></trkpt><trkpt lat="46.02136236864759" lon="9.23429094863144"><ele>271.3333333333333</ele><time>2026-04-25T15:16:24Z</time></trkpt><trkpt lat="46.02129964511199" lon="9.23435156314356"><ele>269.66666666666663</ele><time>2026-04-25T15:16:25.001Z</time></trkpt><trkpt lat="46.021229854861105" lon="9.23441497709899"><ele>268.0</ele><time>2026-04-25T15:16:26.001Z</time></trkpt><trkpt lat="46.0211710174736" lon="9.234468636406149"><ele>268.0</ele><time>2026-04-25T15:16:27.001Z</time></trkpt><trkpt lat="46.021116154928535" lon="9.234517933317033"><ele>268.0</ele><time>2026-04-25T15:16:28.001Z</time></trkpt><trkpt lat="46.021017191700146" lon="9.234612167498788"><ele>268.0</ele><time>2026-04-25T15:16:30.001Z</time></trkpt><trkpt lat="46.02095627159727" lon="9.234661026359305"><ele>268.0</ele><time>2026-04-25T15:16:31.001Z</time></trkpt><trkpt lat="46.02090912618217" lon="9.234747296837304"><ele>268.0</ele><time>2026-04-25T15:16:32.001Z</time></trkpt><trkpt lat="46.020880012513686" lon="9.234860814617774"><ele>268.0</ele><time>2026-04-25T15:16:33.001Z</time></trkpt><trkpt lat="46.02087112535769" lon="9.234973044644127"><ele>266.8333333333333</ele><time>2026-04-25T15:16:34.001Z</time></trkpt><trkpt lat="46.02090983171362" lon="9.235114123936032"><ele>265.66666666666663</ele><time>2026-04-25T15:16:35.001Z</time></trkpt><trkpt lat="46.0209394063697" lon="9.235253341148388"><ele>264.5</ele><time>2026-04-25T15:16:36.001Z</time></trkpt><trkpt lat="46.020972945805845" lon="9.235367601540812"><ele>263.3333333333333</ele><time>2026-04-25T15:16:37.001Z</time></trkpt><trkpt lat="46.02100150655619" lon="9.235473262246744"><ele>262.1666666666667</ele><time>2026-04-25T15:16:38.001Z</time></trkpt><trkpt lat="46.02102972829315" lon="9.235577668785526"><ele>261.0</ele><time>2026-04-25T15:16:39.001Z</time></trkpt><trkpt lat="46.02105777327296" lon="9.235681945482742"><ele>260.0</ele><time>2026-04-25T15:16:40.001Z</time></trkpt><trkpt lat="46.02108486320426" lon="9.235787539492257"><ele>259.0</ele><time>2026-04-25T15:16:41.001Z</time></trkpt><trkpt lat="46.02110714555898" lon="9.23588123430531"><ele>258.0</ele><time>2026-04-25T15:16:42.001Z</time></trkpt><trkpt lat="46.02109339836125" lon="9.23597737304209"><ele>257.0</ele><time>2026-04-25T15:16:43.001Z</time></trkpt><trkpt lat="46.0210165979159" lon="9.236096941291189"><ele>256.0</ele><time>2026-04-25T15:16:45.001Z</time></trkpt><trkpt lat="46.020894807793574" lon="9.236132370096215"><ele>254.20000000000002</ele><time>2026-04-25T15:16:47.001Z</time></trkpt><trkpt lat="46.02081181847529" lon="9.23610986337158"><ele>252.40000000000003</ele><time>2026-04-25T15:16:48.001Z</time></trkpt><trkpt lat="46.02071620184144" lon="9.236075271504012"><ele>250.6</ele><time>2026-04-25T15:16:49.001Z</time></trkpt><trkpt lat="46.020617923936264" lon="9.236036283177016"><ele>248.8</ele><time>2026-04-25T15:16:50.001Z</time></trkpt><trkpt lat="46.020517397328945" lon="9.235998595825643"><ele>247.0</ele><time>2026-04-25T15:16:51.001Z</time></trkpt><trkpt lat="46.020405180751396" lon="9.23595909298584"><ele>247.0</ele><time>2026-04-25T15:16:52.001Z</time></trkpt><trkpt lat="46.020297274159525" lon="9.235917954557477"><ele>247.0</ele><time>2026-04-25T15:16:53.001Z</time></trkpt><trkpt lat="46.02018690117788" lon="9.235873884899762"><ele>247.0</ele><time>2026-04-25T15:16:54.001Z</time></trkpt><trkpt lat="46.020077556480494" lon="9.2358304595913"><ele>247.0</ele><time>2026-04-25T15:16:55.001Z</time></trkpt><trkpt lat="46.019966505691606" lon="9.235782018016907"><ele>248.75</ele><time>2026-04-25T15:16:56.001Z</time></trkpt><trkpt lat="46.019849075119744" lon="9.235727764649056"><ele>250.5</ele><time>2026-04-25T15:16:57.001Z</time></trkpt><trkpt lat="46.01972655757596" lon="9.235669552488467"><ele>252.25</ele><time>2026-04-25T15:16:58.001Z</time></trkpt><trkpt lat="46.01959981937577" lon="9.235613155338962"><ele>254.0</ele><time>2026-04-25T15:16:59.001Z</time></trkpt><trkpt lat="46.01947377222129" lon="9.23554388929286"><ele>254.0</ele><time>2026-04-25T15:17:00.001Z</time></trkpt><trkpt lat="46.01935244067287" lon="9.235476923020455"><ele>254.0</ele><time>2026-04-25T15:17:01.001Z</time></trkpt><trkpt lat="46.01923429957939" lon="9.235417436273098"><ele>254.0</ele><time>2026-04-25T15:17:02.001Z</time></trkpt><trkpt lat="46.0191199124805" lon="9.235366856441109"><ele>254.0</ele><time>2026-04-25T15:17:03.001Z</time></trkpt><trkpt lat="46.019002515959485" lon="9.23531535157482"><ele>251.75</ele><time>2026-04-25T15:17:04.001Z</time></trkpt><trkpt lat="46.01888053749224" lon="9.235275513050077"><ele>249.5</ele><time>2026-04-25T15:17:05.001Z</time></trkpt><trkpt lat="46.01876191501151" lon="9.235249221636565"><ele>247.25</ele><time>2026-04-25T15:17:06.001Z</time></trkpt><trkpt lat="46.01864308887228" lon="9.235228379920077"><ele>245.0</ele><time>2026-04-25T15:17:06.999Z</time></trkpt><trkpt lat="46.0185275466737" lon="9.23520312622361"><ele>245.0</ele><time>2026-04-25T15:17:07.999Z</time></trkpt><trkpt lat="46.018417403204474" lon="9.23517778617883"><ele>245.0</ele><time>2026-04-25T15:17:08.999Z</time></trkpt><trkpt lat="46.018309381386125" lon="9.23513889386864"><ele>245.0</ele><time>2026-04-25T15:17:09.999Z</time></trkpt><trkpt lat="46.01821178911182" lon="9.235090794030038"><ele>245.0</ele><time>2026-04-25T15:17:10.999Z</time></trkpt><trkpt lat="46.01812660613012" lon="9.235060032501872"><ele>245.0</ele><time>2026-04-25T15:17:11.999Z</time></trkpt><trkpt lat="46.018022053520745" lon="9.235145169597024"><ele>245.0</ele><time>2026-04-25T15:17:13.999Z</time></trkpt><trkpt lat="46.01804436695971" lon="9.235293855590253"><ele>245.0</ele><time>2026-04-25T15:17:15.999Z</time></trkpt><trkpt lat="46.01810498709972" lon="9.235340966614723"><ele>245.0</ele><time>2026-04-25T15:17:16.999Z</time></trkpt><trkpt lat="46.01820538682784" lon="9.235359403658556"><ele>245.0</ele><time>2026-04-25T15:17:17.999Z</time></trkpt><trkpt lat="46.0183159320551" lon="9.235385727052604"><ele>245.0</ele><time>2026-04-25T15:17:18.999Z</time></trkpt><trkpt lat="46.01844017679749" lon="9.235438931957914"><ele>245.0</ele><time>2026-04-25T15:17:19.999Z</time></trkpt><trkpt lat="46.01856156169069" lon="9.235496080073448"><ele>245.0</ele><time>2026-04-25T15:17:20.999Z</time></trkpt><trkpt lat="46.01867629186175" lon="9.235547560074254"><ele>245.0</ele><time>2026-04-25T15:17:21.999Z</time></trkpt><trkpt lat="46.018786404039496" lon="9.235599815504107"><ele>245.0</ele><time>2026-04-25T15:17:22.999Z</time></trkpt><trkpt lat="46.018891005829424" lon="9.235669216481863"><ele>241.6</ele><time>2026-04-25T15:17:23.999Z</time></trkpt><trkpt lat="46.018972045595085" lon="9.235748162516998"><ele>238.2</ele><time>2026-04-25T15:17:24.999Z</time></trkpt><trkpt lat="46.01904779612744" lon="9.235848917876362"><ele>234.8</ele><time>2026-04-25T15:17:25.999Z</time></trkpt><trkpt lat="46.01911682464101" lon="9.235961808105248"><ele>231.4</ele><time>2026-04-25T15:17:26.999Z</time></trkpt><trkpt lat="46.01919529192159" lon="9.236065545457231"><ele>228.0</ele><time>2026-04-25T15:17:27.999Z</time></trkpt><trkpt lat="46.01927985681046" lon="9.236175146480313"><ele>228.0</ele><time>2026-04-25T15:17:28.999Z</time></trkpt><trkpt lat="46.01934851122706" lon="9.236291154994332"><ele>228.0</ele><time>2026-04-25T15:17:29.999Z</time></trkpt><trkpt lat="46.019422430208195" lon="9.236401309342174"><ele>228.0</ele><time>2026-04-25T15:17:30.999Z</time></trkpt><trkpt lat="46.01949195114106" lon="9.23650460386706"><ele>228.0</ele><time>2026-04-25T15:17:31.999Z</time></trkpt><trkpt lat="46.01955857563029" lon="9.236602036183475"><ele>228.0</ele><time>2026-04-25T15:17:33Z</time></trkpt><trkpt lat="46.019618909562745" lon="9.236677470640362"><ele>225.5</ele><time>2026-04-25T15:17:34Z</time></trkpt><trkpt lat="46.01967555818322" lon="9.236759972845961"><ele>223.0</ele><time>2026-04-25T15:17:35Z</time></trkpt><trkpt lat="46.0197366416458" lon="9.236823095247253"><ele>220.5</ele><time>2026-04-25T15:17:36Z</time></trkpt><trkpt lat="46.019797578918535" lon="9.236876992732842"><ele>218.0</ele><time>2026-04-25T15:17:37Z</time></trkpt><trkpt lat="46.01986366959333" lon="9.236946662937383"><ele>215.5</ele><time>2026-04-25T15:17:39Z</time></trkpt><trkpt lat="46.019906480900076" lon="9.237036916090354"><ele>213.0</ele><time>2026-04-25T15:17:41Z</time></trkpt><trkpt lat="46.01984373632582" lon="9.237115292767465"><ele>213.0</ele><time>2026-04-25T15:17:44Z</time></trkpt><trkpt lat="46.01975921722697" lon="9.23703641140833"><ele>213.0</ele><time>2026-04-25T15:17:46Z</time></trkpt><trkpt lat="46.01969790252608" lon="9.236969763270736"><ele>213.0</ele><time>2026-04-25T15:17:48Z</time></trkpt><trkpt lat="46.01961847184538" lon="9.236915227071627"><ele>213.0</ele><time>2026-04-25T15:17:51Z</time></trkpt><trkpt lat="46.019566635206054" lon="9.236856748826913"><ele>213.0</ele><time>2026-04-25T15:18:31.001Z</time></trkpt><trkpt lat="46.01948745188097" lon="9.23680952205042"><ele>213.0</ele><time>2026-04-25T15:18:34.001Z</time></trkpt><trkpt lat="46.01941831946018" lon="9.236769902654938"><ele>213.0</ele><time>2026-04-25T15:18:36.001Z</time></trkpt><trkpt lat="46.01933126286236" lon="9.236706388536941"><ele>213.0</ele><time>2026-04-25T15:18:38.001Z</time></trkpt><trkpt lat="46.019268412223134" lon="9.236691896350019"><ele>213.0</ele><time>2026-04-25T15:18:43.001Z</time></trkpt><trkpt lat="46.01919347445946" lon="9.236654284228841"><ele>213.0</ele><time>2026-04-25T15:18:46.001Z</time></trkpt><trkpt lat="46.01912876515544" lon="9.236628232218985"><ele>213.0</ele><time>2026-04-25T15:18:48.001Z</time></trkpt><trkpt lat="46.01904003189049" lon="9.2365902757402"><ele>213.0</ele><time>2026-04-25T15:18:50.001Z</time></trkpt><trkpt lat="46.018938974765" lon="9.236544392407597"><ele>212.0</ele><time>2026-04-25T15:18:52.001Z</time></trkpt><trkpt lat="46.01882417285664" lon="9.236489033365421"><ele>211.0</ele><time>2026-04-25T15:18:54.001Z</time></trkpt><trkpt lat="46.01870980902325" lon="9.236440658355958"><ele>210.0</ele><time>2026-04-25T15:18:56.002Z</time></trkpt><trkpt lat="46.01864445020676" lon="9.236409846194663"><ele>209.0</ele><time>2026-04-25T15:18:57.002Z</time></trkpt><trkpt lat="46.01852943929839" lon="9.236364571875884"><ele>208.0</ele><time>2026-04-25T15:18:59.002Z</time></trkpt><trkpt lat="46.018409297046325" lon="9.236318634955456"><ele>209.66666666666666</ele><time>2026-04-25T15:19:01.002Z</time></trkpt><trkpt lat="46.01834345540883" lon="9.236277435782638"><ele>211.33333333333331</ele><time>2026-04-25T15:19:02.002Z</time></trkpt><trkpt lat="46.018269404293044" lon="9.236256400005264"><ele>213.0</ele><time>2026-04-25T15:19:03.002Z</time></trkpt><trkpt lat="46.018195758586316" lon="9.236237823785444"><ele>214.66666666666669</ele><time>2026-04-25T15:19:04.002Z</time></trkpt><trkpt lat="46.018123522962675" lon="9.23622693302449"><ele>216.33333333333334</ele><time>2026-04-25T15:19:05.002Z</time></trkpt><trkpt lat="46.018054608571276" lon="9.236226477669844"><ele>218.0</ele><time>2026-04-25T15:19:06.002Z</time></trkpt><trkpt lat="46.0179417144785" lon="9.23621007498907"><ele>218.2</ele><time>2026-04-25T15:19:08.002Z</time></trkpt><trkpt lat="46.01784039874086" lon="9.236188670846099"><ele>218.4</ele><time>2026-04-25T15:19:10.002Z</time></trkpt><trkpt lat="46.01774826079898" lon="9.236167957556582"><ele>218.59999999999997</ele><time>2026-04-25T15:19:12.002Z</time></trkpt><trkpt lat="46.017634611139286" lon="9.236155792420796"><ele>218.79999999999998</ele><time>2026-04-25T15:19:14Z</time></trkpt><trkpt lat="46.01755832456611" lon="9.23614000545376"><ele>219.0</ele><time>2026-04-25T15:19:15Z</time></trkpt><trkpt lat="46.01747469723851" lon="9.236156968921295"><ele>220.79999999999998</ele><time>2026-04-25T15:19:16Z</time></trkpt><trkpt lat="46.01740003111758" lon="9.236153002941128"><ele>222.59999999999997</ele><time>2026-04-25T15:19:17Z</time></trkpt><trkpt lat="46.017278310443984" lon="9.23618601020234"><ele>224.4</ele><time>2026-04-25T15:19:19Z</time></trkpt><trkpt lat="46.01716293795119" lon="9.236181469477419"><ele>226.2</ele><time>2026-04-25T15:19:21Z</time></trkpt><trkpt lat="46.01722470566108" lon="9.236219380541236"><ele>228.0</ele><time>2026-04-25T15:19:40Z</time></trkpt><trkpt lat="46.01734613262171" lon="9.236185100718618"><ele>228.0</ele><time>2026-04-25T15:19:42Z</time></trkpt><trkpt lat="46.017467542895" lon="9.236196436853739"><ele>228.0</ele><time>2026-04-25T15:19:44Z</time></trkpt><trkpt lat="46.0175017236968" lon="9.236278303605758"><ele>228.0</ele><time>2026-04-25T15:19:46Z</time></trkpt><trkpt lat="46.017486504339224" lon="9.236418044143148"><ele>228.0</ele><time>2026-04-25T15:19:48Z</time></trkpt><trkpt lat="46.017452066382134" lon="9.236178414057461"><ele>228.0</ele><time>2026-04-25T15:19:49Z</time></trkpt><trkpt lat="46.01736561916777" lon="9.236160178844745"><ele>228.0</ele><time>2026-04-25T15:19:54Z</time></trkpt><trkpt lat="46.01730154247653" lon="9.236172210036477"><ele>228.0</ele><time>2026-04-25T15:20:21.001Z</time></trkpt><trkpt lat="46.0171996619511" lon="9.236617670762067"><ele>224.57142857142856</ele><time>2026-04-25T15:21:26Z</time></trkpt><trkpt lat="46.017263481425715" lon="9.236632653685982"><ele>221.1428571428571</ele><time>2026-04-25T15:22:31.001Z</time></trkpt><trkpt lat="46.01733229349498" lon="9.236650913025525"><ele>217.71428571428572</ele><time>2026-04-25T15:22:36.002Z</time></trkpt><trkpt lat="46.01736797562672" lon="9.23676531562125"><ele>214.28571428571428</ele><time>2026-04-25T15:22:41.002Z</time></trkpt><trkpt lat="46.01730051818277" lon="9.236798340924011"><ele>210.85714285714286</ele><time>2026-04-25T15:24:02.001Z</time></trkpt><trkpt lat="46.017235936703806" lon="9.236829865247504"><ele>207.42857142857144</ele><time>2026-04-25T15:24:10.001Z</time></trkpt><trkpt lat="46.017173646495074" lon="9.236856498830118"><ele>204.0</ele><time>2026-04-25T15:24:15.001Z</time></trkpt><trkpt lat="46.01709810765278" lon="9.236853376687064"><ele>204.0</ele><time>2026-04-25T15:35:24Z</time></trkpt><trkpt lat="46.01703082669242" lon="9.236860520517821"><ele>204.0</ele><time>2026-04-25T15:35:28Z</time></trkpt><trkpt lat="46.01698142385464" lon="9.236917937246849"><ele>204.0</ele><time>2026-04-25T15:35:33Z</time></trkpt><trkpt lat="46.016926559635806" lon="9.236971514965841"><ele>204.0</ele><time>2026-04-25T15:35:43.001Z</time></trkpt><trkpt lat="46.01686698997279" lon="9.237034515773502"><ele>204.0</ele><time>2026-04-25T15:35:53.001Z</time></trkpt><trkpt lat="46.01680046639935" lon="9.237089458306839"><ele>204.0</ele><time>2026-04-25T15:36:03Z</time></trkpt><trkpt lat="46.01673389424988" lon="9.237164891980054"><ele>204.0</ele><time>2026-04-25T15:36:07Z</time></trkpt><trkpt lat="46.01669006387348" lon="9.23724013279044"><ele>204.42857142857144</ele><time>2026-04-25T15:36:10Z</time></trkpt><trkpt lat="46.016626229251024" lon="9.237278950923118"><ele>204.85714285714286</ele><time>2026-04-25T15:36:19Z</time></trkpt><trkpt lat="46.01656847150588" lon="9.23732701367951"><ele>205.28571428571428</ele><time>2026-04-25T15:36:39Z</time></trkpt><trkpt lat="46.01652203363644" lon="9.237399399234645"><ele>205.71428571428572</ele><time>2026-04-25T15:39:11Z</time></trkpt><trkpt lat="46.016471250625536" lon="9.237471534911185"><ele>206.14285714285714</ele><time>2026-04-25T15:39:16Z</time></trkpt><trkpt lat="46.0164026281548" lon="9.237560322310783"><ele>206.57142857142858</ele><time>2026-04-25T15:39:20Z</time></trkpt><trkpt lat="46.01635892717303" lon="9.237631812641903"><ele>207.0</ele><time>2026-04-25T15:39:24Z</time></trkpt><trkpt lat="46.01628850918833" lon="9.23768694851984"><ele>205.85714285714286</ele><time>2026-04-25T15:39:27Z</time></trkpt><trkpt lat="46.016226316899875" lon="9.237737349818962"><ele>204.71428571428572</ele><time>2026-04-25T15:39:29Z</time></trkpt><trkpt lat="46.01614957338475" lon="9.237818268628217"><ele>203.57142857142856</ele><time>2026-04-25T15:39:32Z</time></trkpt><trkpt lat="46.016097112912675" lon="9.237872238718719"><ele>202.42857142857144</ele><time>2026-04-25T15:39:34Z</time></trkpt><trkpt lat="46.016021361297135" lon="9.237942397594981"><ele>201.28571428571428</ele><time>2026-04-25T15:39:37Z</time></trkpt><trkpt lat="46.01596549323629" lon="9.237989003030398"><ele>200.14285714285714</ele><time>2026-04-25T15:39:39Z</time></trkpt><trkpt lat="46.01590810077302" lon="9.238029094588297"><ele>199.0</ele><time>2026-04-25T15:39:41Z</time></trkpt><trkpt lat="46.01584381666631" lon="9.238079945041653"><ele>198.83333333333331</ele><time>2026-04-25T15:39:43Z</time></trkpt><trkpt lat="46.01578852401076" lon="9.238124908913656"><ele>198.66666666666666</ele><time>2026-04-25T15:39:45Z</time></trkpt><trkpt lat="46.015721657502375" lon="9.23817834781415"><ele>198.5</ele><time>2026-04-25T15:39:47Z</time></trkpt><trkpt lat="46.01565017217262" lon="9.238232223534416"><ele>198.33333333333331</ele><time>2026-04-25T15:39:49Z</time></trkpt><trkpt lat="46.015586632200375" lon="9.238287667443114"><ele>198.16666666666666</ele><time>2026-04-25T15:39:51Z</time></trkpt><trkpt lat="46.01551664147702" lon="9.238348735281074"><ele>198.0</ele><time>2026-04-25T15:39:53Z</time></trkpt><trkpt lat="46.01544844727339" lon="9.238401437415405"><ele>198.0</ele><time>2026-04-25T15:39:55Z</time></trkpt><trkpt lat="46.01538744336877" lon="9.238460120948872"><ele>198.0</ele><time>2026-04-25T15:39:57Z</time></trkpt><trkpt lat="46.0153097533203" lon="9.238557797750294"><ele>198.0</ele><time>2026-04-25T15:39:59Z</time></trkpt><trkpt lat="46.01524609058394" lon="9.238580946944486"><ele>198.0</ele><time>2026-04-25T15:40:01Z</time></trkpt><trkpt lat="46.01517477258253" lon="9.238636728067599"><ele>198.0</ele><time>2026-04-25T15:40:03Z</time></trkpt><trkpt lat="46.01511236526447" lon="9.23869029810699"><ele>198.0</ele><time>2026-04-25T15:40:05Z</time></trkpt><trkpt lat="46.015037030474424" lon="9.238749980259401"><ele>198.0</ele><time>2026-04-25T15:40:07Z</time></trkpt><trkpt lat="46.014965605494275" lon="9.2388075182926"><ele>198.0</ele><time>2026-04-25T15:40:09Z</time></trkpt><trkpt lat="46.014890361848195" lon="9.238874676656922"><ele>198.0</ele><time>2026-04-25T15:40:11Z</time></trkpt><trkpt lat="46.014812618819796" lon="9.238926789107383"><ele>198.0</ele><time>2026-04-25T15:40:13Z</time></trkpt><trkpt lat="46.01474645695665" lon="9.238985055815888"><ele>198.0</ele><time>2026-04-25T15:40:15Z</time></trkpt><trkpt lat="46.01467532226165" lon="9.23904674257954"><ele>198.0</ele><time>2026-04-25T15:40:17Z</time></trkpt><trkpt lat="46.01460235858156" lon="9.239117189002299"><ele>198.0</ele><time>2026-04-25T15:40:19Z</time></trkpt><trkpt lat="46.014520431047224" lon="9.239199377539872"><ele>198.0</ele><time>2026-04-25T15:40:21Z</time></trkpt><trkpt lat="46.01444742176403" lon="9.239268702430676"><ele>198.0</ele><time>2026-04-25T15:40:23Z</time></trkpt><trkpt lat="46.0143721469091" lon="9.23934400987514"><ele>198.0</ele><time>2026-04-25T15:40:25Z</time></trkpt><trkpt lat="46.01429480132871" lon="9.239406104483322"><ele>198.0</ele><time>2026-04-25T15:40:27Z</time></trkpt><trkpt lat="46.014219392334965" lon="9.23945714803026"><ele>198.0</ele><time>2026-04-25T15:40:29Z</time></trkpt><trkpt lat="46.01415243913835" lon="9.239506480105375"><ele>198.0</ele><time>2026-04-25T15:40:31Z</time></trkpt><trkpt lat="46.01407759193371" lon="9.239563576542947"><ele>198.0</ele><time>2026-04-25T15:40:33Z</time></trkpt><trkpt lat="46.013999701140904" lon="9.23963051177291"><ele>198.0</ele><time>2026-04-25T15:40:35Z</time></trkpt><trkpt lat="46.013931757965345" lon="9.239692104380962"><ele>198.0</ele><time>2026-04-25T15:40:37Z</time></trkpt><trkpt lat="46.01385815581156" lon="9.239756226256127"><ele>198.0</ele><time>2026-04-25T15:40:39Z</time></trkpt><trkpt lat="46.01378834433074" lon="9.239818207968899"><ele>198.0</ele><time>2026-04-25T15:40:41Z</time></trkpt><trkpt lat="46.01371535621316" lon="9.239878109833798"><ele>198.0</ele><time>2026-04-25T15:40:43Z</time></trkpt><trkpt lat="46.01363795116656" lon="9.23994695586587"><ele>198.0</ele><time>2026-04-25T15:40:45Z</time></trkpt><trkpt lat="46.01357270126079" lon="9.24000424787264"><ele>198.0</ele><time>2026-04-25T15:40:47Z</time></trkpt><trkpt lat="46.01349337698767" lon="9.24007650119281"><ele>198.0</ele><time>2026-04-25T15:40:49Z</time></trkpt><trkpt lat="46.01342765538007" lon="9.2401293337926"><ele>198.0</ele><time>2026-04-25T15:40:51Z</time></trkpt><trkpt lat="46.013350596236776" lon="9.24017790029173"><ele>198.0</ele><time>2026-04-25T15:40:53Z</time></trkpt><trkpt lat="46.01326583251664" lon="9.240246958152461"><ele>198.0</ele><time>2026-04-25T15:40:55Z</time></trkpt><trkpt lat="46.01319623732512" lon="9.240320277590008"><ele>198.0</ele><time>2026-04-25T15:40:57Z</time></trkpt><trkpt lat="46.01312129267995" lon="9.24037841230262"><ele>198.0</ele><time>2026-04-25T15:40:59Z</time></trkpt><trkpt lat="46.013048058844895" lon="9.240446836827697"><ele>198.0</ele><time>2026-04-25T15:41:01Z</time></trkpt><trkpt lat="46.012987215784506" lon="9.240491244265405"><ele>198.0</ele><time>2026-04-25T15:41:03Z</time></trkpt><trkpt lat="46.012909182261836" lon="9.240556822261523"><ele>198.0</ele><time>2026-04-25T15:41:05Z</time></trkpt><trkpt lat="46.01283720315009" lon="9.24061903897355"><ele>198.0</ele><time>2026-04-25T15:41:07Z</time></trkpt><trkpt lat="46.01276145938021" lon="9.240687099491714"><ele>198.0</ele><time>2026-04-25T15:41:09Z</time></trkpt><trkpt lat="46.01267920050784" lon="9.240778117207904"><ele>198.0</ele><time>2026-04-25T15:41:11Z</time></trkpt><trkpt lat="46.012611490600285" lon="9.240834724330632"><ele>198.0</ele><time>2026-04-25T15:41:13Z</time></trkpt><trkpt lat="46.01253099621688" lon="9.240890610405867"><ele>198.0</ele><time>2026-04-25T15:41:15Z</time></trkpt><trkpt lat="46.01246383044941" lon="9.240971138279265"><ele>198.0</ele><time>2026-04-25T15:41:17Z</time></trkpt><trkpt lat="46.01237857394483" lon="9.241048280996932"><ele>198.0</ele><time>2026-04-25T15:41:19Z</time></trkpt><trkpt lat="46.0123122557184" lon="9.241126866700778"><ele>198.0</ele><time>2026-04-25T15:41:21Z</time></trkpt><trkpt lat="46.01222182626189" lon="9.241178075568238"><ele>198.0</ele><time>2026-04-25T15:41:23Z</time></trkpt><trkpt lat="46.012149742193486" lon="9.241261656168525"><ele>198.0</ele><time>2026-04-25T15:41:25Z</time></trkpt><trkpt lat="46.01205436313216" lon="9.241328082858129"><ele>198.0</ele><time>2026-04-25T15:41:27Z</time></trkpt><trkpt lat="46.011995298751515" lon="9.241428450163694"><ele>198.0</ele><time>2026-04-25T15:41:29Z</time></trkpt><trkpt lat="46.011906866232536" lon="9.241510704477129"><ele>198.0</ele><time>2026-04-25T15:41:31Z</time></trkpt><trkpt lat="46.01182842788831" lon="9.24158460722524"><ele>198.0</ele><time>2026-04-25T15:41:33Z</time></trkpt><trkpt lat="46.01175579595753" lon="9.241657274733926"><ele>198.0</ele><time>2026-04-25T15:41:35Z</time></trkpt><trkpt lat="46.011685557388525" lon="9.241718075183861"><ele>198.0</ele><time>2026-04-25T15:41:37Z</time></trkpt><trkpt lat="46.011616111099" lon="9.241765968010897"><ele>198.0</ele><time>2026-04-25T15:41:39Z</time></trkpt><trkpt lat="46.01154088346796" lon="9.241838359475379"><ele>198.0</ele><time>2026-04-25T15:41:41Z</time></trkpt><trkpt lat="46.01146707166721" lon="9.241909537104371"><ele>198.0</ele><time>2026-04-25T15:41:43Z</time></trkpt><trkpt lat="46.01139728661441" lon="9.241968617128167"><ele>198.0</ele><time>2026-04-25T15:41:45Z</time></trkpt><trkpt lat="46.01132622101349" lon="9.242037622839613"><ele>198.0</ele><time>2026-04-25T15:41:47Z</time></trkpt><trkpt lat="46.01124765916029" lon="9.242095575100002"><ele>198.0</ele><time>2026-04-25T15:41:49Z</time></trkpt><trkpt lat="46.01116390527662" lon="9.242155370528172"><ele>198.0</ele><time>2026-04-25T15:41:51Z</time></trkpt><trkpt lat="46.011073876337065" lon="9.242218755749716"><ele>198.0</ele><time>2026-04-25T15:41:53Z</time></trkpt><trkpt lat="46.01098410063664" lon="9.242260437568985"><ele>198.0</ele><time>2026-04-25T15:41:55Z</time></trkpt><trkpt lat="46.01092119017898" lon="9.242336565064164"><ele>198.0</ele><time>2026-04-25T15:41:56Z</time></trkpt><trkpt lat="46.010844737605254" lon="9.242395329340374"><ele>198.0</ele><time>2026-04-25T15:41:59Z</time></trkpt><trkpt lat="46.01078841312783" lon="9.242455134491747"><ele>198.0</ele><time>2026-04-25T15:42:01Z</time></trkpt><trkpt lat="46.01071463917357" lon="9.242514867880491"><ele>198.0</ele><time>2026-04-25T15:42:03Z</time></trkpt><trkpt lat="46.01063365152314" lon="9.242559490601908"><ele>198.0</ele><time>2026-04-25T15:42:05Z</time></trkpt><trkpt lat="46.01055139887601" lon="9.242620803892644"><ele>198.0</ele><time>2026-04-25T15:42:07Z</time></trkpt><trkpt lat="46.01046246813271" lon="9.242679256824273"><ele>198.0</ele><time>2026-04-25T15:42:09Z</time></trkpt><trkpt lat="46.010380097240166" lon="9.242741925246065"><ele>198.0</ele><time>2026-04-25T15:42:11Z</time></trkpt><trkpt lat="46.010311658068" lon="9.242801212553951"><ele>198.0</ele><time>2026-04-25T15:42:13Z</time></trkpt><trkpt lat="46.010251246471064" lon="9.242872083332546"><ele>198.0</ele><time>2026-04-25T15:42:15Z</time></trkpt><trkpt lat="46.01019106386823" lon="9.242933127237961"><ele>198.0</ele><time>2026-04-25T15:42:17Z</time></trkpt><trkpt lat="46.010118986060505" lon="9.243007745746326"><ele>198.0</ele><time>2026-04-25T15:42:19Z</time></trkpt><trkpt lat="46.01004495230953" lon="9.243059059983922"><ele>198.0</ele><time>2026-04-25T15:42:21Z</time></trkpt><trkpt lat="46.00997365109818" lon="9.243127415249257"><ele>198.0</ele><time>2026-04-25T15:42:23Z</time></trkpt><trkpt lat="46.009892168182" lon="9.243185036551004"><ele>198.0</ele><time>2026-04-25T15:42:25Z</time></trkpt><trkpt lat="46.009794457717376" lon="9.24322609912303"><ele>198.0</ele><time>2026-04-25T15:42:27Z</time></trkpt><trkpt lat="46.00971572815979" lon="9.243286235875306"><ele>198.0</ele><time>2026-04-25T15:42:29Z</time></trkpt><trkpt lat="46.00964205873682" lon="9.243355753163724"><ele>198.0</ele><time>2026-04-25T15:42:31Z</time></trkpt><trkpt lat="46.00954980653838" lon="9.243370259346735"><ele>198.0</ele><time>2026-04-25T15:42:33Z</time></trkpt><trkpt lat="46.009463874239074" lon="9.243399231919701"><ele>198.0</ele><time>2026-04-25T15:42:35Z</time></trkpt><trkpt lat="46.00939649230592" lon="9.24350834756482"><ele>198.0</ele><time>2026-04-25T15:42:37Z</time></trkpt><trkpt lat="46.00930654412568" lon="9.243620605119627"><ele>198.0</ele><time>2026-04-25T15:42:38Z</time></trkpt><trkpt lat="46.00921490129464" lon="9.243687653247559"><ele>198.0</ele><time>2026-04-25T15:42:41Z</time></trkpt><trkpt lat="46.009139345033255" lon="9.243753008169337"><ele>198.0</ele><time>2026-04-25T15:42:43Z</time></trkpt><trkpt lat="46.0090612959986" lon="9.24381298561123"><ele>198.0</ele><time>2026-04-25T15:42:45Z</time></trkpt><trkpt lat="46.008995621730186" lon="9.2438626305181"><ele>198.0</ele><time>2026-04-25T15:42:47Z</time></trkpt><trkpt lat="46.00892334283454" lon="9.243915172309418"><ele>198.0</ele><time>2026-04-25T15:42:49Z</time></trkpt><trkpt lat="46.00885134836019" lon="9.243976135989255"><ele>198.0</ele><time>2026-04-25T15:42:51Z</time></trkpt><trkpt lat="46.00876606807068" lon="9.244031545417535"><ele>198.0</ele><time>2026-04-25T15:42:53Z</time></trkpt><trkpt lat="46.00869685458809" lon="9.244092933965796"><ele>198.0</ele><time>2026-04-25T15:42:55Z</time></trkpt><trkpt lat="46.00861703530497" lon="9.244135918468357"><ele>198.0</ele><time>2026-04-25T15:42:57Z</time></trkpt><trkpt lat="46.00853669148774" lon="9.244195846406235"><ele>198.0</ele><time>2026-04-25T15:42:59Z</time></trkpt><trkpt lat="46.00845522623716" lon="9.24425375061118"><ele>198.0</ele><time>2026-04-25T15:43:01Z</time></trkpt><trkpt lat="46.00837887075848" lon="9.24430683341832"><ele>198.0</ele><time>2026-04-25T15:43:03Z</time></trkpt><trkpt lat="46.0083017895477" lon="9.244352586551702"><ele>198.0</ele><time>2026-04-25T15:43:05Z</time></trkpt><trkpt lat="46.008230444079146" lon="9.244398248272772"><ele>198.0</ele><time>2026-04-25T15:43:07Z</time></trkpt><trkpt lat="46.008151120227325" lon="9.244454767529936"><ele>198.0</ele><time>2026-04-25T15:43:09Z</time></trkpt><trkpt lat="46.00806735419714" lon="9.244523495074263"><ele>198.0</ele><time>2026-04-25T15:43:11Z</time></trkpt><trkpt lat="46.00798651525953" lon="9.244579572705204"><ele>198.0</ele><time>2026-04-25T15:43:13Z</time></trkpt><trkpt lat="46.00790641739758" lon="9.244620393862911"><ele>198.0</ele><time>2026-04-25T15:43:15Z</time></trkpt><trkpt lat="46.007818594716795" lon="9.24470017853047"><ele>198.0</ele><time>2026-04-25T15:43:17Z</time></trkpt><trkpt lat="46.0077330505881" lon="9.244754237634202"><ele>198.0</ele><time>2026-04-25T15:43:19Z</time></trkpt><trkpt lat="46.007659612852414" lon="9.24479767054897"><ele>198.0</ele><time>2026-04-25T15:43:21Z</time></trkpt><trkpt lat="46.00758224840259" lon="9.244843844912843"><ele>198.0</ele><time>2026-04-25T15:43:23Z</time></trkpt><trkpt lat="46.00750461634739" lon="9.244901521673349"><ele>198.0</ele><time>2026-04-25T15:43:25Z</time></trkpt><trkpt lat="46.00742581820045" lon="9.244944805700431"><ele>198.0</ele><time>2026-04-25T15:43:27Z</time></trkpt><trkpt lat="46.007343463183545" lon="9.24500166188728"><ele>198.0</ele><time>2026-04-25T15:43:29Z</time></trkpt><trkpt lat="46.007260299463354" lon="9.245056583877897"><ele>198.0</ele><time>2026-04-25T15:43:31Z</time></trkpt><trkpt lat="46.00718616967202" lon="9.24510248003852"><ele>198.0</ele><time>2026-04-25T15:43:33Z</time></trkpt><trkpt lat="46.00710480483782" lon="9.245149143804754"><ele>198.0</ele><time>2026-04-25T15:43:35Z</time></trkpt><trkpt lat="46.00703078960829" lon="9.245205306304944"><ele>198.0</ele><time>2026-04-25T15:43:37Z</time></trkpt><trkpt lat="46.00695575671071" lon="9.245257356414193"><ele>198.0</ele><time>2026-04-25T15:43:39Z</time></trkpt><trkpt lat="46.00687865464765" lon="9.245310449892422"><ele>198.0</ele><time>2026-04-25T15:43:41Z</time></trkpt><trkpt lat="46.00680001974856" lon="9.245365985250762"><ele>198.0</ele><time>2026-04-25T15:43:43Z</time></trkpt><trkpt lat="46.006725053254584" lon="9.245422366085284"><ele>198.0</ele><time>2026-04-25T15:43:45Z</time></trkpt><trkpt lat="46.00664834152803" lon="9.245478962411415"><ele>198.0</ele><time>2026-04-25T15:43:47Z</time></trkpt><trkpt lat="46.00656916458463" lon="9.24553590317482"><ele>198.0</ele><time>2026-04-25T15:43:49Z</time></trkpt><trkpt lat="46.00649339840299" lon="9.24559227761942"><ele>198.0</ele><time>2026-04-25T15:43:51Z</time></trkpt><trkpt lat="46.00641650142967" lon="9.245647483773968"><ele>198.0</ele><time>2026-04-25T15:43:53Z</time></trkpt><trkpt lat="46.006337212954236" lon="9.245702520974298"><ele>198.0</ele><time>2026-04-25T15:43:55Z</time></trkpt><trkpt lat="46.006253157306304" lon="9.245762063271027"><ele>198.0</ele><time>2026-04-25T15:43:57Z</time></trkpt><trkpt lat="46.00616560928766" lon="9.245808037293743"><ele>198.0</ele><time>2026-04-25T15:43:59Z</time></trkpt><trkpt lat="46.006082094621846" lon="9.245856024378591"><ele>198.0</ele><time>2026-04-25T15:44:01Z</time></trkpt><trkpt lat="46.00600144670026" lon="9.245910527733486"><ele>198.0</ele><time>2026-04-25T15:44:03Z</time></trkpt><trkpt lat="46.00591828446208" lon="9.24596085361424"><ele>198.0</ele><time>2026-04-25T15:44:05Z</time></trkpt><trkpt lat="46.00583570241286" lon="9.246015315347016"><ele>198.0</ele><time>2026-04-25T15:44:07Z</time></trkpt><trkpt lat="46.00575708612404" lon="9.246072014943051"><ele>198.0</ele><time>2026-04-25T15:44:09Z</time></trkpt><trkpt lat="46.00567934129839" lon="9.246123803675488"><ele>198.0</ele><time>2026-04-25T15:44:11Z</time></trkpt><trkpt lat="46.00560438066966" lon="9.246184991374598"><ele>198.0</ele><time>2026-04-25T15:44:13Z</time></trkpt><trkpt lat="46.00553108161928" lon="9.246242489450065"><ele>198.0</ele><time>2026-04-25T15:44:15Z</time></trkpt><trkpt lat="46.00545630029153" lon="9.246296619871346"><ele>198.0</ele><time>2026-04-25T15:44:17Z</time></trkpt><trkpt lat="46.0053797647273" lon="9.24635299225303"><ele>198.0</ele><time>2026-04-25T15:44:19Z</time></trkpt><trkpt lat="46.005303640018965" lon="9.246404076405799"><ele>198.0</ele><time>2026-04-25T15:44:21Z</time></trkpt><trkpt lat="46.00522342255661" lon="9.246456625291296"><ele>198.0</ele><time>2026-04-25T15:44:23Z</time></trkpt><trkpt lat="46.00514913843823" lon="9.246510186648099"><ele>198.0</ele><time>2026-04-25T15:44:25Z</time></trkpt><trkpt lat="46.0050722806287" lon="9.246563638084107"><ele>198.0</ele><time>2026-04-25T15:44:27Z</time></trkpt><trkpt lat="46.00499836169078" lon="9.246624530809736"><ele>198.0</ele><time>2026-04-25T15:44:29Z</time></trkpt><trkpt lat="46.0049177302864" lon="9.24668104677083"><ele>198.0</ele><time>2026-04-25T15:44:31Z</time></trkpt><trkpt lat="46.004845147820326" lon="9.246721370344842"><ele>198.0</ele><time>2026-04-25T15:44:33Z</time></trkpt><trkpt lat="46.00478330590129" lon="9.246758511199051"><ele>198.0</ele><time>2026-04-25T15:44:34Z</time></trkpt><trkpt lat="46.00470489625832" lon="9.246819417421712"><ele>198.0</ele><time>2026-04-25T15:44:36Z</time></trkpt><trkpt lat="46.00462398290109" lon="9.246875303927155"><ele>198.0</ele><time>2026-04-25T15:44:38Z</time></trkpt><trkpt lat="46.00454402274363" lon="9.246921944203594"><ele>198.0</ele><time>2026-04-25T15:44:40Z</time></trkpt><trkpt lat="46.0044783848144" lon="9.246954723367692"><ele>198.0</ele><time>2026-04-25T15:44:42Z</time></trkpt><trkpt lat="46.004393812647606" lon="9.247007086687713"><ele>198.0</ele><time>2026-04-25T15:44:44Z</time></trkpt><trkpt lat="46.00431103477992" lon="9.247046019678328"><ele>198.0</ele><time>2026-04-25T15:44:46Z</time></trkpt><trkpt lat="46.00422744896897" lon="9.24709841987998"><ele>198.0</ele><time>2026-04-25T15:44:48Z</time></trkpt><trkpt lat="46.00414460729875" lon="9.247133996948"><ele>198.0</ele><time>2026-04-25T15:44:50Z</time></trkpt><trkpt lat="46.00408359337991" lon="9.247167984107872"><ele>198.0</ele><time>2026-04-25T15:44:52Z</time></trkpt><trkpt lat="46.004011188202604" lon="9.247197181862731"><ele>198.0</ele><time>2026-04-25T15:44:54Z</time></trkpt><trkpt lat="46.00391654465604" lon="9.24726334791128"><ele>198.0</ele><time>2026-04-25T15:44:56Z</time></trkpt><trkpt lat="46.00383368521065" lon="9.247341115745387"><ele>198.0</ele><time>2026-04-25T15:44:58Z</time></trkpt><trkpt lat="46.00376159335466" lon="9.2473938395275"><ele>198.0</ele><time>2026-04-25T15:45:00Z</time></trkpt><trkpt lat="46.00369015868365" lon="9.247505866370584"><ele>198.0</ele><time>2026-04-25T15:45:02Z</time></trkpt><trkpt lat="46.00362320894503" lon="9.247520873423452"><ele>198.0</ele><time>2026-04-25T15:45:04Z</time></trkpt><trkpt lat="46.00353628282497" lon="9.24758367946743"><ele>198.0</ele><time>2026-04-25T15:45:06Z</time></trkpt><trkpt lat="46.003459192286336" lon="9.247658212936852"><ele>198.0</ele><time>2026-04-25T15:45:08Z</time></trkpt><trkpt lat="46.00339927093258" lon="9.247712620865293"><ele>198.0</ele><time>2026-04-25T15:45:10Z</time></trkpt><trkpt lat="46.00332010613417" lon="9.247772193470897"><ele>198.0</ele><time>2026-04-25T15:45:12Z</time></trkpt><trkpt lat="46.00323555912815" lon="9.247837769160816"><ele>198.0</ele><time>2026-04-25T15:45:14Z</time></trkpt><trkpt lat="46.003158239802275" lon="9.247882489189376"><ele>198.0</ele><time>2026-04-25T15:45:16Z</time></trkpt><trkpt lat="46.00307246727305" lon="9.247931714402332"><ele>198.0</ele><time>2026-04-25T15:45:18Z</time></trkpt><trkpt lat="46.00300066426591" lon="9.247983144664401"><ele>198.0</ele><time>2026-04-25T15:45:20Z</time></trkpt><trkpt lat="46.00292014532376" lon="9.248032275043359"><ele>198.0</ele><time>2026-04-25T15:45:22Z</time></trkpt><trkpt lat="46.00284474279073" lon="9.248089182460602"><ele>198.0</ele><time>2026-04-25T15:45:24Z</time></trkpt><trkpt lat="46.002768105472434" lon="9.24814330775315"><ele>198.0</ele><time>2026-04-25T15:45:26Z</time></trkpt><trkpt lat="46.002685424154976" lon="9.248202893784015"><ele>198.0</ele><time>2026-04-25T15:45:28Z</time></trkpt><trkpt lat="46.002598879777636" lon="9.248277289438422"><ele>198.0</ele><time>2026-04-25T15:45:30Z</time></trkpt><trkpt lat="46.002529607138534" lon="9.248311157653086"><ele>198.0</ele><time>2026-04-25T15:45:32Z</time></trkpt><trkpt lat="46.002448920820854" lon="9.248362711799514"><ele>198.0</ele><time>2026-04-25T15:45:34Z</time></trkpt><trkpt lat="46.002373314690104" lon="9.24841103392002"><ele>198.0</ele><time>2026-04-25T15:45:36Z</time></trkpt><trkpt lat="46.00230268636381" lon="9.248473322767305"><ele>198.0</ele><time>2026-04-25T15:45:38Z</time></trkpt><trkpt lat="46.00221558862411" lon="9.248539069717179"><ele>198.0</ele><time>2026-04-25T15:45:40Z</time></trkpt><trkpt lat="46.002131768490145" lon="9.248603707713553"><ele>198.0</ele><time>2026-04-25T15:45:42Z</time></trkpt><trkpt lat="46.00205556718922" lon="9.24866201404377"><ele>198.0</ele><time>2026-04-25T15:45:44Z</time></trkpt><trkpt lat="46.00197850387414" lon="9.248722151450526"><ele>198.0</ele><time>2026-04-25T15:45:46Z</time></trkpt><trkpt lat="46.001901236477316" lon="9.248775553925812"><ele>198.0</ele><time>2026-04-25T15:45:48Z</time></trkpt><trkpt lat="46.00182971766756" lon="9.248822003446664"><ele>198.0</ele><time>2026-04-25T15:45:50Z</time></trkpt><trkpt lat="46.001754387210205" lon="9.248877415376906"><ele>198.0</ele><time>2026-04-25T15:45:52Z</time></trkpt><trkpt lat="46.00167477635063" lon="9.248932952247563"><ele>198.0</ele><time>2026-04-25T15:45:54Z</time></trkpt><trkpt lat="46.00159996608359" lon="9.248982976189902"><ele>198.0</ele><time>2026-04-25T15:45:56Z</time></trkpt><trkpt lat="46.00151995805535" lon="9.249041182882067"><ele>198.0</ele><time>2026-04-25T15:45:58Z</time></trkpt><trkpt lat="46.00143919594924" lon="9.249100010685341"><ele>198.0</ele><time>2026-04-25T15:46:00Z</time></trkpt><trkpt lat="46.00135818448462" lon="9.249154738947205"><ele>198.0</ele><time>2026-04-25T15:46:02Z</time></trkpt><trkpt lat="46.00128776444614" lon="9.24920332859289"><ele>198.0</ele><time>2026-04-25T15:46:04Z</time></trkpt><trkpt lat="46.00121182864155" lon="9.249251261443678"><ele>198.0</ele><time>2026-04-25T15:46:06Z</time></trkpt><trkpt lat="46.001137183414365" lon="9.249349635777143"><ele>198.0</ele><time>2026-04-25T15:46:08Z</time></trkpt><trkpt lat="46.00105941326308" lon="9.24940201367108"><ele>198.0</ele><time>2026-04-25T15:46:10Z</time></trkpt><trkpt lat="46.000985094840196" lon="9.249467756082254"><ele>198.0</ele><time>2026-04-25T15:46:12Z</time></trkpt><trkpt lat="46.00090537525629" lon="9.249529630325867"><ele>198.0</ele><time>2026-04-25T15:46:14Z</time></trkpt><trkpt lat="46.00083016998641" lon="9.24958011222786"><ele>198.0</ele><time>2026-04-25T15:46:16Z</time></trkpt><trkpt lat="46.00075527198155" lon="9.249629772360404"><ele>198.0</ele><time>2026-04-25T15:46:18Z</time></trkpt><trkpt lat="46.00068115936232" lon="9.249679544964689"><ele>198.0</ele><time>2026-04-25T15:46:20Z</time></trkpt><trkpt lat="46.00060247642162" lon="9.24974500809587"><ele>198.0</ele><time>2026-04-25T15:46:22Z</time></trkpt><trkpt lat="46.000522927559004" lon="9.24978548706324"><ele>198.0</ele><time>2026-04-25T15:46:24Z</time></trkpt><trkpt lat="46.000444428944476" lon="9.249839908302341"><ele>198.0</ele><time>2026-04-25T15:46:26Z</time></trkpt><trkpt lat="46.00036415249387" lon="9.249894690627197"><ele>198.0</ele><time>2026-04-25T15:46:28Z</time></trkpt><trkpt lat="46.00028679219207" lon="9.249936391352326"><ele>198.0</ele><time>2026-04-25T15:46:30Z</time></trkpt><trkpt lat="46.00020909211374" lon="9.249976421725384"><ele>198.0</ele><time>2026-04-25T15:46:32Z</time></trkpt><trkpt lat="46.00012733545199" lon="9.250030915230042"><ele>198.0</ele><time>2026-04-25T15:46:34Z</time></trkpt><trkpt lat="46.00004760596697" lon="9.250093405341557"><ele>198.0</ele><time>2026-04-25T15:46:36Z</time></trkpt><trkpt lat="45.99995714894244" lon="9.250116760875954"><ele>198.0</ele><time>2026-04-25T15:46:38Z</time></trkpt><trkpt lat="45.99988014463277" lon="9.250183239991754"><ele>198.0</ele><time>2026-04-25T15:46:40Z</time></trkpt><trkpt lat="45.99979220092709" lon="9.250235683344043"><ele>198.0</ele><time>2026-04-25T15:46:42Z</time></trkpt><trkpt lat="45.999719469037316" lon="9.250279483042794"><ele>198.0</ele><time>2026-04-25T15:46:44Z</time></trkpt><trkpt lat="45.99964393130054" lon="9.250321692983166"><ele>198.0</ele><time>2026-04-25T15:46:46Z</time></trkpt><trkpt lat="45.99956825742096" lon="9.25037722882137"><ele>198.0</ele><time>2026-04-25T15:46:48Z</time></trkpt><trkpt lat="45.999495006312785" lon="9.25042458579494"><ele>198.0</ele><time>2026-04-25T15:46:50Z</time></trkpt><trkpt lat="45.99941820315169" lon="9.250462526984867"><ele>198.0</ele><time>2026-04-25T15:46:52Z</time></trkpt><trkpt lat="45.999347627967765" lon="9.250508387507336"><ele>198.0</ele><time>2026-04-25T15:46:54Z</time></trkpt><trkpt lat="45.99929530694958" lon="9.250582981300015"><ele>198.0</ele><time>2026-04-25T15:46:56Z</time></trkpt><trkpt lat="45.99919760153835" lon="9.2506229224801"><ele>198.0</ele><time>2026-04-25T15:46:58Z</time></trkpt><trkpt lat="45.99911515707268" lon="9.250674372179407"><ele>198.0</ele><time>2026-04-25T15:47:00Z</time></trkpt><trkpt lat="45.99902796079993" lon="9.250731987344778"><ele>198.0</ele><time>2026-04-25T15:47:02Z</time></trkpt><trkpt lat="45.99894846532081" lon="9.25079367741349"><ele>198.0</ele><time>2026-04-25T15:47:04Z</time></trkpt><trkpt lat="45.99887040329063" lon="9.250840114339791"><ele>198.0</ele><time>2026-04-25T15:47:06Z</time></trkpt><trkpt lat="45.998797647819266" lon="9.250877518740078"><ele>198.0</ele><time>2026-04-25T15:47:08Z</time></trkpt><trkpt lat="45.99871731834492" lon="9.250926928329125"><ele>198.0</ele><time>2026-04-25T15:47:10Z</time></trkpt><trkpt lat="45.998637723493346" lon="9.25097618370552"><ele>198.0</ele><time>2026-04-25T15:47:12Z</time></trkpt><trkpt lat="45.9985561554281" lon="9.251034584264442"><ele>198.0</ele><time>2026-04-25T15:47:14Z</time></trkpt><trkpt lat="45.99847852372655" lon="9.251088966461847"><ele>198.0</ele><time>2026-04-25T15:47:16Z</time></trkpt><trkpt lat="45.99839806638269" lon="9.251143595974316"><ele>198.0</ele><time>2026-04-25T15:47:18Z</time></trkpt><trkpt lat="45.99832265815845" lon="9.251201731696604"><ele>198.0</ele><time>2026-04-25T15:47:20Z</time></trkpt><trkpt lat="45.99824288265694" lon="9.251258548180756"><ele>198.0</ele><time>2026-04-25T15:47:22Z</time></trkpt><trkpt lat="45.99815915605342" lon="9.251318388834624"><ele>198.0</ele><time>2026-04-25T15:47:24Z</time></trkpt><trkpt lat="45.99808050961812" lon="9.251369642291312"><ele>198.0</ele><time>2026-04-25T15:47:26Z</time></trkpt><trkpt lat="45.99799836291992" lon="9.251431762175594"><ele>198.0</ele><time>2026-04-25T15:47:28Z</time></trkpt><trkpt lat="45.99792040969396" lon="9.251493024465882"><ele>198.0</ele><time>2026-04-25T15:47:30Z</time></trkpt><trkpt lat="45.997845364232845" lon="9.251543994738824"><ele>198.0</ele><time>2026-04-25T15:47:32Z</time></trkpt><trkpt lat="45.99776550205809" lon="9.251606207068708"><ele>198.0</ele><time>2026-04-25T15:47:34Z</time></trkpt><trkpt lat="45.99768509204148" lon="9.25165747712324"><ele>198.0</ele><time>2026-04-25T15:47:36Z</time></trkpt><trkpt lat="45.997592828937925" lon="9.251723113493274"><ele>198.0</ele><time>2026-04-25T15:47:38Z</time></trkpt><trkpt lat="45.9975014271578" lon="9.251778864421556"><ele>198.0</ele><time>2026-04-25T15:47:40Z</time></trkpt><trkpt lat="45.99743920341714" lon="9.251814142538556"><ele>198.0</ele><time>2026-04-25T15:47:42Z</time></trkpt><trkpt lat="45.99736088196436" lon="9.251870811420247"><ele>198.0</ele><time>2026-04-25T15:47:44Z</time></trkpt><trkpt lat="45.99729866852556" lon="9.251920855799035"><ele>198.0</ele><time>2026-04-25T15:47:46Z</time></trkpt><trkpt lat="45.99720872348312" lon="9.251988867163679"><ele>198.0</ele><time>2026-04-25T15:47:48Z</time></trkpt><trkpt lat="45.99714593255536" lon="9.252064313980926"><ele>198.0</ele><time>2026-04-25T15:47:50Z</time></trkpt><trkpt lat="45.99706025568776" lon="9.25212137341204"><ele>198.0</ele><time>2026-04-25T15:47:52Z</time></trkpt><trkpt lat="45.996979294181244" lon="9.252182644843817"><ele>198.0</ele><time>2026-04-25T15:47:54Z</time></trkpt><trkpt lat="45.99688366078525" lon="9.2522594529832"><ele>198.0</ele><time>2026-04-25T15:47:56Z</time></trkpt><trkpt lat="45.996813330307894" lon="9.252309180238486"><ele>198.0</ele><time>2026-04-25T15:47:58Z</time></trkpt><trkpt lat="45.996730865360185" lon="9.252368378990722"><ele>198.0</ele><time>2026-04-25T15:48:00Z</time></trkpt><trkpt lat="45.996653707224546" lon="9.252442934617243"><ele>198.0</ele><time>2026-04-25T15:48:02Z</time></trkpt><trkpt lat="45.996595298131" lon="9.252492435040404"><ele>198.0</ele><time>2026-04-25T15:48:04Z</time></trkpt><trkpt lat="45.996518146911605" lon="9.25253356817667"><ele>198.0</ele><time>2026-04-25T15:48:06Z</time></trkpt><trkpt lat="45.99643499544243" lon="9.252597221289294"><ele>198.0</ele><time>2026-04-25T15:48:08Z</time></trkpt><trkpt lat="45.99635256735159" lon="9.252671674610252"><ele>198.0</ele><time>2026-04-25T15:48:10Z</time></trkpt><trkpt lat="45.99627379755852" lon="9.252741005996366"><ele>198.0</ele><time>2026-04-25T15:48:12Z</time></trkpt><trkpt lat="45.99619142237292" lon="9.252806860087592"><ele>198.0</ele><time>2026-04-25T15:48:14Z</time></trkpt><trkpt lat="45.9961072607939" lon="9.252881753529895"><ele>198.0</ele><time>2026-04-25T15:48:16Z</time></trkpt><trkpt lat="45.99603768943276" lon="9.252928430857853"><ele>198.0</ele><time>2026-04-25T15:48:18Z</time></trkpt><trkpt lat="45.99597375705826" lon="9.25298284804119"><ele>198.0</ele><time>2026-04-25T15:48:20Z</time></trkpt><trkpt lat="45.9958936341772" lon="9.253048859703785"><ele>198.0</ele><time>2026-04-25T15:48:22Z</time></trkpt><trkpt lat="45.995814218843414" lon="9.253102591703078"><ele>198.0</ele><time>2026-04-25T15:48:24Z</time></trkpt><trkpt lat="45.99574253891307" lon="9.253162330661663"><ele>198.0</ele><time>2026-04-25T15:48:26Z</time></trkpt><trkpt lat="45.995665349317406" lon="9.253222411557074"><ele>198.0</ele><time>2026-04-25T15:48:28Z</time></trkpt><trkpt lat="45.99558842681559" lon="9.25328523389485"><ele>198.0</ele><time>2026-04-25T15:48:30Z</time></trkpt><trkpt lat="45.995503767198485" lon="9.253340735155923"><ele>198.0</ele><time>2026-04-25T15:48:32Z</time></trkpt><trkpt lat="45.995415460247834" lon="9.25341369203595"><ele>198.0</ele><time>2026-04-25T15:48:34Z</time></trkpt><trkpt lat="45.99533522424659" lon="9.253478324918712"><ele>198.0</ele><time>2026-04-25T15:48:36Z</time></trkpt><trkpt lat="45.995258361806556" lon="9.253534447238644"><ele>198.0</ele><time>2026-04-25T15:48:38Z</time></trkpt><trkpt lat="45.995177797508056" lon="9.25359792528996"><ele>198.0</ele><time>2026-04-25T15:48:40Z</time></trkpt><trkpt lat="45.9950980011069" lon="9.253648018637977"><ele>198.0</ele><time>2026-04-25T15:48:42Z</time></trkpt><trkpt lat="45.99501447185498" lon="9.253704919831065"><ele>198.0</ele><time>2026-04-25T15:48:44Z</time></trkpt><trkpt lat="45.994947685229356" lon="9.25373960168688"><ele>198.0</ele><time>2026-04-25T15:48:46Z</time></trkpt><trkpt lat="45.994858783751866" lon="9.253803538086448"><ele>198.0</ele><time>2026-04-25T15:48:48Z</time></trkpt><trkpt lat="45.99478113590969" lon="9.253857257498813"><ele>198.0</ele><time>2026-04-25T15:48:50Z</time></trkpt><trkpt lat="45.99470374333835" lon="9.253902975493345"><ele>198.0</ele><time>2026-04-25T15:48:52Z</time></trkpt><trkpt lat="45.99462094925941" lon="9.253948562347835"><ele>198.0</ele><time>2026-04-25T15:48:54Z</time></trkpt><trkpt lat="45.99454453009669" lon="9.253996062383937"><ele>198.0</ele><time>2026-04-25T15:48:56Z</time></trkpt><trkpt lat="45.99446070259819" lon="9.25405319955789"><ele>198.0</ele><time>2026-04-25T15:48:58Z</time></trkpt><trkpt lat="45.99437852023527" lon="9.254111421582316"><ele>198.0</ele><time>2026-04-25T15:49:00Z</time></trkpt><trkpt lat="45.99429129536486" lon="9.254174946343047"><ele>198.0</ele><time>2026-04-25T15:49:02Z</time></trkpt><trkpt lat="45.994213169269585" lon="9.254222061852198"><ele>198.0</ele><time>2026-04-25T15:49:04Z</time></trkpt><trkpt lat="45.99411804313062" lon="9.254256051252137"><ele>198.0</ele><time>2026-04-25T15:49:06Z</time></trkpt><trkpt lat="45.994047677938276" lon="9.254323990415974"><ele>198.0</ele><time>2026-04-25T15:49:08Z</time></trkpt><trkpt lat="45.9939679115721" lon="9.254368923567093"><ele>198.0</ele><time>2026-04-25T15:49:10Z</time></trkpt><trkpt lat="45.99388157366636" lon="9.254426859155371"><ele>198.0</ele><time>2026-04-25T15:49:12Z</time></trkpt><trkpt lat="45.99380364025392" lon="9.254477083385703"><ele>198.0</ele><time>2026-04-25T15:49:14Z</time></trkpt><trkpt lat="45.99372658763809" lon="9.254526755700569"><ele>198.0</ele><time>2026-04-25T15:49:16Z</time></trkpt><trkpt lat="45.99364717259733" lon="9.254579371350713"><ele>198.0</ele><time>2026-04-25T15:49:18Z</time></trkpt><trkpt lat="45.99356584090477" lon="9.254634060434178"><ele>198.0</ele><time>2026-04-25T15:49:20Z</time></trkpt><trkpt lat="45.99347884788823" lon="9.25468576203399"><ele>198.0</ele><time>2026-04-25T15:49:22Z</time></trkpt><trkpt lat="45.99339461311939" lon="9.254732526487121"><ele>198.0</ele><time>2026-04-25T15:49:24Z</time></trkpt><trkpt lat="45.993303132591855" lon="9.254792196358336"><ele>198.0</ele><time>2026-04-25T15:49:26Z</time></trkpt><trkpt lat="45.993220919438535" lon="9.254841699369711"><ele>198.0</ele><time>2026-04-25T15:49:28Z</time></trkpt><trkpt lat="45.99313719677352" lon="9.254892276761787"><ele>198.0</ele><time>2026-04-25T15:49:30Z</time></trkpt><trkpt lat="45.993055216152676" lon="9.254944543235236"><ele>198.0</ele><time>2026-04-25T15:49:32Z</time></trkpt><trkpt lat="45.99297183685668" lon="9.255002827195593"><ele>198.0</ele><time>2026-04-25T15:49:34Z</time></trkpt><trkpt lat="45.99289070387792" lon="9.255055425927422"><ele>198.0</ele><time>2026-04-25T15:49:36Z</time></trkpt><trkpt lat="45.992808109833234" lon="9.255101543138208"><ele>198.0</ele><time>2026-04-25T15:49:38Z</time></trkpt><trkpt lat="45.9927293668492" lon="9.255154798490622"><ele>198.0</ele><time>2026-04-25T15:49:40Z</time></trkpt><trkpt lat="45.99265714549175" lon="9.255212402952118"><ele>198.0</ele><time>2026-04-25T15:49:42Z</time></trkpt><trkpt lat="45.99257831167322" lon="9.255272879564572"><ele>198.0</ele><time>2026-04-25T15:49:44Z</time></trkpt><trkpt lat="45.992506929082154" lon="9.255327053320377"><ele>198.0</ele><time>2026-04-25T15:49:46Z</time></trkpt><trkpt lat="45.99243024512352" lon="9.255383818864845"><ele>198.0</ele><time>2026-04-25T15:49:48Z</time></trkpt><trkpt lat="45.99235405555742" lon="9.255432730058793"><ele>198.0</ele><time>2026-04-25T15:49:50Z</time></trkpt><trkpt lat="45.992277899461456" lon="9.255494960537737"><ele>198.0</ele><time>2026-04-25T15:49:52Z</time></trkpt><trkpt lat="45.992204702175826" lon="9.255553163328175"><ele>198.0</ele><time>2026-04-25T15:49:54Z</time></trkpt><trkpt lat="45.992129223247126" lon="9.25560937511493"><ele>198.0</ele><time>2026-04-25T15:49:56Z</time></trkpt><trkpt lat="45.992049341259644" lon="9.255671949738772"><ele>198.0</ele><time>2026-04-25T15:49:58Z</time></trkpt><trkpt lat="45.99197273876539" lon="9.255727760328947"><ele>198.0</ele><time>2026-04-25T15:50:00Z</time></trkpt><trkpt lat="45.9918953705662" lon="9.25578590828507"><ele>198.0</ele><time>2026-04-25T15:50:02Z</time></trkpt><trkpt lat="45.99181880556294" lon="9.255839584147466"><ele>198.0</ele><time>2026-04-25T15:50:04Z</time></trkpt><trkpt lat="45.99174020769576" lon="9.255895144033458"><ele>198.0</ele><time>2026-04-25T15:50:06Z</time></trkpt><trkpt lat="45.99166555895236" lon="9.255953228047606"><ele>198.0</ele><time>2026-04-25T15:50:08Z</time></trkpt><trkpt lat="45.991588694234274" lon="9.256008106695282"><ele>198.0</ele><time>2026-04-25T15:50:10Z</time></trkpt><trkpt lat="45.991509798529755" lon="9.256070470062035"><ele>198.0</ele><time>2026-04-25T15:50:12Z</time></trkpt><trkpt lat="45.991432307708756" lon="9.25613006640178"><ele>198.0</ele><time>2026-04-25T15:50:14Z</time></trkpt><trkpt lat="45.9913557567643" lon="9.25619095239712"><ele>198.0</ele><time>2026-04-25T15:50:16Z</time></trkpt><trkpt lat="45.991280342385785" lon="9.256254878411536"><ele>198.0</ele><time>2026-04-25T15:50:18Z</time></trkpt><trkpt lat="45.991201580934735" lon="9.25631907346295"><ele>198.0</ele><time>2026-04-25T15:50:20Z</time></trkpt><trkpt lat="45.99112297798638" lon="9.256376628458785"><ele>198.0</ele><time>2026-04-25T15:50:22Z</time></trkpt><trkpt lat="45.99104623822687" lon="9.256440160448575"><ele>198.0</ele><time>2026-04-25T15:50:24Z</time></trkpt><trkpt lat="45.99096915378692" lon="9.256505257231007"><ele>198.0</ele><time>2026-04-25T15:50:26Z</time></trkpt><trkpt lat="45.99088995704552" lon="9.256566446604939"><ele>198.0</ele><time>2026-04-25T15:50:28Z</time></trkpt><trkpt lat="45.99081188650746" lon="9.256632102676155"><ele>198.0</ele><time>2026-04-25T15:50:30Z</time></trkpt><trkpt lat="45.990736098272265" lon="9.256690187534574"><ele>198.0</ele><time>2026-04-25T15:50:32Z</time></trkpt><trkpt lat="45.99066092080569" lon="9.25675666056657"><ele>198.0</ele><time>2026-04-25T15:50:34Z</time></trkpt><trkpt lat="45.990584020207685" lon="9.256819900853806"><ele>198.0</ele><time>2026-04-25T15:50:36Z</time></trkpt><trkpt lat="45.99050467799941" lon="9.256891121256489"><ele>198.0</ele><time>2026-04-25T15:50:38Z</time></trkpt><trkpt lat="45.99042638092941" lon="9.25695305177534"><ele>198.0</ele><time>2026-04-25T15:50:40Z</time></trkpt><trkpt lat="45.99035104006605" lon="9.257018009311988"><ele>198.0</ele><time>2026-04-25T15:50:41.998Z</time></trkpt><trkpt lat="45.99027022752582" lon="9.257088784923956"><ele>198.0</ele><time>2026-04-25T15:50:43.998Z</time></trkpt><trkpt lat="45.990193738597625" lon="9.257151025374487"><ele>198.0</ele><time>2026-04-25T15:50:45.998Z</time></trkpt><trkpt lat="45.990118703870976" lon="9.257209134615719"><ele>198.0</ele><time>2026-04-25T15:50:47.998Z</time></trkpt><trkpt lat="45.99004306622326" lon="9.257269132279223"><ele>198.0</ele><time>2026-04-25T15:50:49.998Z</time></trkpt><trkpt lat="45.98996418514011" lon="9.257334462530624"><ele>198.0</ele><time>2026-04-25T15:50:51.998Z</time></trkpt><trkpt lat="45.98988713082623" lon="9.257398525033851"><ele>198.0</ele><time>2026-04-25T15:50:53.999Z</time></trkpt><trkpt lat="45.98980667443792" lon="9.257464683070458"><ele>198.0</ele><time>2026-04-25T15:50:55.999Z</time></trkpt><trkpt lat="45.989721561728956" lon="9.257528636530786"><ele>198.0</ele><time>2026-04-25T15:50:57.999Z</time></trkpt><trkpt lat="45.98964476721625" lon="9.25758542291024"><ele>198.0</ele><time>2026-04-25T15:50:59.999Z</time></trkpt><trkpt lat="45.98955772297308" lon="9.257648393766587"><ele>198.0</ele><time>2026-04-25T15:51:01.999Z</time></trkpt><trkpt lat="45.98948202298" lon="9.257704068149813"><ele>198.0</ele><time>2026-04-25T15:51:03.999Z</time></trkpt><trkpt lat="45.98940406233691" lon="9.257757885086763"><ele>198.0</ele><time>2026-04-25T15:51:05.999Z</time></trkpt><trkpt lat="45.989328456119964" lon="9.257816044815021"><ele>198.0</ele><time>2026-04-25T15:51:07.999Z</time></trkpt><trkpt lat="45.989246929254975" lon="9.25787664726477"><ele>198.0</ele><time>2026-04-25T15:51:09.999Z</time></trkpt><trkpt lat="45.98916966459767" lon="9.257940957436261"><ele>198.0</ele><time>2026-04-25T15:51:11.999Z</time></trkpt><trkpt lat="45.98909062605715" lon="9.258000527231868"><ele>198.0</ele><time>2026-04-25T15:51:13.999Z</time></trkpt><trkpt lat="45.989005738396585" lon="9.258066277302653"><ele>198.0</ele><time>2026-04-25T15:51:15.999Z</time></trkpt><trkpt lat="45.988925150253436" lon="9.25813081587897"><ele>198.0</ele><time>2026-04-25T15:51:17.999Z</time></trkpt><trkpt lat="45.98884393998585" lon="9.258202515353144"><ele>198.0</ele><time>2026-04-25T15:51:19.999Z</time></trkpt><trkpt lat="45.98876411644109" lon="9.25826046509654"><ele>198.0</ele><time>2026-04-25T15:51:21.999Z</time></trkpt><trkpt lat="45.98868434110073" lon="9.25832559493715"><ele>198.0</ele><time>2026-04-25T15:51:23.999Z</time></trkpt><trkpt lat="45.988610449023234" lon="9.258371909187884"><ele>198.0</ele><time>2026-04-25T15:51:25.999Z</time></trkpt><trkpt lat="45.98853359256958" lon="9.25842297100559"><ele>198.0</ele><time>2026-04-25T15:51:27.999Z</time></trkpt><trkpt lat="45.98845641709238" lon="9.258473825277873"><ele>198.0</ele><time>2026-04-25T15:51:29.999Z</time></trkpt><trkpt lat="45.9883808957936" lon="9.258516460802877"><ele>198.0</ele><time>2026-04-25T15:51:31.999Z</time></trkpt><trkpt lat="45.98829865985898" lon="9.258575325171321"><ele>198.0</ele><time>2026-04-25T15:51:33.999Z</time></trkpt><trkpt lat="45.98821902215312" lon="9.258630392390206"><ele>198.0</ele><time>2026-04-25T15:51:35.999Z</time></trkpt><trkpt lat="45.98814381488792" lon="9.258683480945715"><ele>198.0</ele><time>2026-04-25T15:51:37.999Z</time></trkpt><trkpt lat="45.988073138753734" lon="9.258735423228758"><ele>198.0</ele><time>2026-04-25T15:51:39.999Z</time></trkpt><trkpt lat="45.98799102284617" lon="9.258784961006585"><ele>198.0</ele><time>2026-04-25T15:51:41.999Z</time></trkpt><trkpt lat="45.98791449144193" lon="9.258835732750766"><ele>198.0</ele><time>2026-04-25T15:51:44Z</time></trkpt><trkpt lat="45.98784104001898" lon="9.258886881342058"><ele>198.0</ele><time>2026-04-25T15:51:46Z</time></trkpt><trkpt lat="45.987768831673655" lon="9.258928913087571"><ele>198.0</ele><time>2026-04-25T15:51:48Z</time></trkpt><trkpt lat="45.98769374690508" lon="9.258973997248447"><ele>198.0</ele><time>2026-04-25T15:51:50Z</time></trkpt><trkpt lat="45.987621497426346" lon="9.259021368229153"><ele>198.0</ele><time>2026-04-25T15:51:52Z</time></trkpt><trkpt lat="45.98754937633037" lon="9.259069964957263"><ele>198.0</ele><time>2026-04-25T15:51:54Z</time></trkpt><trkpt lat="45.98748043033108" lon="9.259116012154696"><ele>198.0</ele><time>2026-04-25T15:51:56Z</time></trkpt><trkpt lat="45.987403482017605" lon="9.25917165944055"><ele>198.0</ele><time>2026-04-25T15:51:58Z</time></trkpt><trkpt lat="45.98734324897269" lon="9.259209695908636"><ele>198.0</ele><time>2026-04-25T15:52:00Z</time></trkpt><trkpt lat="45.98727460331765" lon="9.259252248166883"><ele>198.0</ele><time>2026-04-25T15:52:02Z</time></trkpt><trkpt lat="45.98720659144738" lon="9.259295082922845"><ele>198.0</ele><time>2026-04-25T15:52:04Z</time></trkpt><trkpt lat="45.98713772458659" lon="9.259349234705626"><ele>198.0</ele><time>2026-04-25T15:52:06Z</time></trkpt><trkpt lat="45.98707351490979" lon="9.259396525213418"><ele>198.0</ele><time>2026-04-25T15:52:08Z</time></trkpt><trkpt lat="45.9870147576733" lon="9.259443244690996"><ele>198.0</ele><time>2026-04-25T15:52:10Z</time></trkpt><trkpt lat="45.98695150217201" lon="9.259493568077085"><ele>198.0</ele><time>2026-04-25T15:52:12Z</time></trkpt><trkpt lat="45.98687455809107" lon="9.25954077330056"><ele>198.0</ele><time>2026-04-25T15:52:15Z</time></trkpt><trkpt lat="45.9868049988577" lon="9.25958600957862"><ele>198.0</ele><time>2026-04-25T15:52:18Z</time></trkpt><trkpt lat="45.986734705208605" lon="9.259627512183522"><ele>198.0</ele><time>2026-04-25T15:52:21Z</time></trkpt><trkpt lat="45.98666562939432" lon="9.259669971586836"><ele>198.0</ele><time>2026-04-25T15:52:24Z</time></trkpt><trkpt lat="45.98659776414396" lon="9.259721194327375"><ele>198.0</ele><time>2026-04-25T15:52:27Z</time></trkpt><trkpt lat="45.98652217769385" lon="9.259746821487958"><ele>198.0</ele><time>2026-04-25T15:52:31Z</time></trkpt><trkpt lat="45.98645340050457" lon="9.259779718168936"><ele>198.0</ele><time>2026-04-25T15:52:34Z</time></trkpt><trkpt lat="45.986393727934114" lon="9.259809710673622"><ele>198.0</ele><time>2026-04-25T15:52:37Z</time></trkpt><trkpt lat="45.986323258009385" lon="9.259826828432736"><ele>198.0</ele><time>2026-04-25T15:52:42Z</time></trkpt><trkpt lat="45.98625803874198" lon="9.259866730679763"><ele>198.0</ele><time>2026-04-25T15:52:46Z</time></trkpt><trkpt lat="45.98618666675076" lon="9.25990186119032"><ele>198.0</ele><time>2026-04-25T15:52:50.998Z</time></trkpt><trkpt lat="45.98612728644889" lon="9.25993274808506"><ele>198.0</ele><time>2026-04-25T15:52:54.998Z</time></trkpt><trkpt lat="45.9860597041386" lon="9.25993880636886"><ele>198.0</ele><time>2026-04-25T15:53:00.998Z</time></trkpt><trkpt lat="45.98599972591473" lon="9.259967767632666"><ele>198.0</ele><time>2026-04-25T15:53:06.999Z</time></trkpt><trkpt lat="45.98593435996979" lon="9.259985510634893"><ele>198.0</ele><time>2026-04-25T15:53:14.999Z</time></trkpt><trkpt lat="45.98586407954888" lon="9.259995657644932"><ele>198.33333333333334</ele><time>2026-04-25T15:54:22Z</time></trkpt><trkpt lat="45.98578812330659" lon="9.25995785438034"><ele>198.66666666666669</ele><time>2026-04-25T15:54:28Z</time></trkpt><trkpt lat="45.985719650882" lon="9.259942964263855"><ele>199.0</ele><time>2026-04-25T15:54:31Z</time></trkpt><trkpt lat="45.985653018325706" lon="9.259937950177706"><ele>199.33333333333334</ele><time>2026-04-25T15:54:33Z</time></trkpt><trkpt lat="45.985587068717564" lon="9.259937048897767"><ele>199.66666666666669</ele><time>2026-04-25T15:54:35Z</time></trkpt><trkpt lat="45.98548681227135" lon="9.259933672287042"><ele>200.0</ele><time>2026-04-25T15:54:38Z</time></trkpt><trkpt lat="45.98541296065659" lon="9.259956443340677"><ele>200.00000000000003</ele><time>2026-04-25T15:54:40Z</time></trkpt><trkpt lat="45.985336996712995" lon="9.260037445286835"><ele>200.0</ele><time>2026-04-25T15:54:42Z</time></trkpt><trkpt lat="45.98527857082653" lon="9.260122099059425"><ele>200.0</ele><time>2026-04-25T15:54:44Z</time></trkpt><trkpt lat="45.98522399600025" lon="9.26018257615581"><ele>200.0</ele><time>2026-04-25T15:55:20.999Z</time></trkpt><trkpt lat="45.985200494217395" lon="9.260318435312227"><ele>200.00000000000003</ele><time>2026-04-25T15:55:30.999Z</time></trkpt><trkpt lat="45.98521894660298" lon="9.260417013223126"><ele>200.0</ele><time>2026-04-25T15:55:32.999Z</time></trkpt><trkpt lat="45.98528293673204" lon="9.260495696706935"><ele>200.00000000000003</ele><time>2026-04-25T15:55:34.999Z</time></trkpt><trkpt lat="45.985321444946244" lon="9.260577176092033"><ele>200.0</ele><time>2026-04-25T15:55:36.999Z</time></trkpt><trkpt lat="45.985291539072584" lon="9.260679057055755"><ele>200.0</ele><time>2026-04-25T15:55:38.999Z</time></trkpt><trkpt lat="45.985201536266025" lon="9.260707912597953"><ele>200.0</ele><time>2026-04-25T15:55:40.999Z</time></trkpt><trkpt lat="45.98512738038247" lon="9.260638346423399"><ele>200.00000000000003</ele><time>2026-04-25T15:55:42.999Z</time></trkpt><trkpt lat="45.98504213602408" lon="9.26058377518739"><ele>200.0</ele><time>2026-04-25T15:55:44.999Z</time></trkpt><trkpt lat="45.98494919325071" lon="9.26051039964754"><ele>203.0</ele><time>2026-04-25T15:55:46.999Z</time></trkpt><trkpt lat="45.984846248514565" lon="9.260409044873153"><ele>206.0</ele><time>2026-04-25T15:55:49Z</time></trkpt><trkpt lat="45.98475599194406" lon="9.260331620221343"><ele>209.0</ele><time>2026-04-25T15:55:51Z</time></trkpt><trkpt lat="45.9846663457994" lon="9.260223695925232"><ele>212.0</ele><time>2026-04-25T15:55:53Z</time></trkpt><trkpt lat="45.98458331707001" lon="9.2600974237652"><ele>212.00000000000003</ele><time>2026-04-25T15:55:55Z</time></trkpt><trkpt lat="45.98450652301808" lon="9.259974690731303"><ele>212.0</ele><time>2026-04-25T15:55:57Z</time></trkpt><trkpt lat="45.98441429535649" lon="9.259921059244432"><ele>212.0</ele><time>2026-04-25T15:55:59Z</time></trkpt><trkpt lat="45.9843410693382" lon="9.2600093995073"><ele>212.0</ele><time>2026-04-25T15:56:01Z</time></trkpt><trkpt lat="45.984338423791534" lon="9.260101839993942"><ele>212.00000000000003</ele><time>2026-04-25T15:56:02Z</time></trkpt><trkpt lat="45.98433624387218" lon="9.26019287162288"><ele>212.0</ele><time>2026-04-25T15:56:03Z</time></trkpt><trkpt lat="45.98433056453383" lon="9.260284491504805"><ele>212.00000000000003</ele><time>2026-04-25T15:56:04Z</time></trkpt><trkpt lat="45.98432363701602" lon="9.260384786064987"><ele>212.0</ele><time>2026-04-25T15:56:05Z</time></trkpt><trkpt lat="45.984326501363505" lon="9.260478190212055"><ele>212.0</ele><time>2026-04-25T15:56:06Z</time></trkpt><trkpt lat="45.984341208180886" lon="9.260620850161558"><ele>212.0</ele><time>2026-04-25T15:56:08Z</time></trkpt><trkpt lat="45.984363775620686" lon="9.260748411777405"><ele>212.00000000000003</ele><time>2026-04-25T15:56:10Z</time></trkpt><trkpt lat="45.98439277331916" lon="9.260889831957032"><ele>212.0</ele><time>2026-04-25T15:56:12Z</time></trkpt><trkpt lat="45.984430632069206" lon="9.261030315613539"><ele>213.75</ele><time>2026-04-25T15:56:14Z</time></trkpt><trkpt lat="45.98448033481695" lon="9.261173084066563"><ele>215.5</ele><time>2026-04-25T15:56:16Z</time></trkpt><trkpt lat="45.98453495648421" lon="9.261308766461704"><ele>217.25</ele><time>2026-04-25T15:56:18Z</time></trkpt><trkpt lat="45.984622703178985" lon="9.261478405958886"><ele>219.0</ele><time>2026-04-25T15:56:20Z</time></trkpt><trkpt lat="45.98468475379437" lon="9.261563179342746"><ele>219.6</ele><time>2026-04-25T15:56:21Z</time></trkpt><trkpt lat="45.984749565424885" lon="9.26161676788872"><ele>220.2</ele><time>2026-04-25T15:56:22Z</time></trkpt><trkpt lat="45.98481629714661" lon="9.261670697788942"><ele>220.79999999999998</ele><time>2026-04-25T15:56:23Z</time></trkpt><trkpt lat="45.98487432932408" lon="9.261718290170275"><ele>221.39999999999998</ele><time>2026-04-25T15:56:24Z</time></trkpt><trkpt lat="45.984987519791645" lon="9.261784706211026"><ele>222.0</ele><time>2026-04-25T15:56:26Z</time></trkpt><trkpt lat="45.985096721568496" lon="9.261851651030794"><ele>222.0</ele><time>2026-04-25T15:56:28Z</time></trkpt><trkpt lat="45.985182316197054" lon="9.261955438206636"><ele>222.0</ele><time>2026-04-25T15:56:30Z</time></trkpt><trkpt lat="45.985208361952715" lon="9.262099021779049"><ele>222.0</ele><time>2026-04-25T15:56:32Z</time></trkpt><trkpt lat="45.98515271198713" lon="9.26220896735012"><ele>222.0</ele><time>2026-04-25T15:56:34Z</time></trkpt><trkpt lat="45.98504952400815" lon="9.26220011368259"><ele>222.0</ele><time>2026-04-25T15:56:36Z</time></trkpt><trkpt lat="45.984977569284794" lon="9.262161720347235"><ele>223.33333333333334</ele><time>2026-04-25T15:56:38Z</time></trkpt><trkpt lat="45.984904731174275" lon="9.262112165575344"><ele>224.66666666666669</ele><time>2026-04-25T15:56:41.001Z</time></trkpt><trkpt lat="45.984825255533096" lon="9.262081255137906"><ele>226.0</ele><time>2026-04-25T15:56:49.001Z</time></trkpt><trkpt lat="45.98474799981166" lon="9.262033333882076"><ele>227.33333333333334</ele><time>2026-04-25T15:56:52.001Z</time></trkpt><trkpt lat="45.9846813264068" lon="9.261993346307795"><ele>228.66666666666669</ele><time>2026-04-25T15:56:54.001Z</time></trkpt><trkpt lat="45.9846031740073" lon="9.261954072003563"><ele>230.0</ele><time>2026-04-25T15:56:56.001Z</time></trkpt><trkpt lat="45.98451994281889" lon="9.2619120503587"><ele>230.0</ele><time>2026-04-25T15:56:58.001Z</time></trkpt><trkpt lat="45.984440072681956" lon="9.2618579235587"><ele>230.0</ele><time>2026-04-25T15:56:59.998Z</time></trkpt><trkpt lat="45.98436093106121" lon="9.261774266954804"><ele>230.0</ele><time>2026-04-25T15:57:01.998Z</time></trkpt><trkpt lat="45.98426767863383" lon="9.26166638356745"><ele>230.0</ele><time>2026-04-25T15:57:03.998Z</time></trkpt><trkpt lat="45.9841670707574" lon="9.261608015961091"><ele>230.0</ele><time>2026-04-25T15:57:05.998Z</time></trkpt><trkpt lat="45.98406212113965" lon="9.261603696801451"><ele>232.2</ele><time>2026-04-25T15:57:07.998Z</time></trkpt><trkpt lat="45.98396833057864" lon="9.261601140688247"><ele>234.4</ele><time>2026-04-25T15:57:09.998Z</time></trkpt><trkpt lat="45.98387463081912" lon="9.261627242672366"><ele>236.60000000000002</ele><time>2026-04-25T15:57:11.998Z</time></trkpt><trkpt lat="45.983781505023" lon="9.261680794075133"><ele>238.8</ele><time>2026-04-25T15:57:13.998Z</time></trkpt><trkpt lat="45.98366672968572" lon="9.26172689587238"><ele>241.0</ele><time>2026-04-25T15:57:15.998Z</time></trkpt><trkpt lat="45.983555949559154" lon="9.26175122616539"><ele>240.99999999999997</ele><time>2026-04-25T15:57:17.999Z</time></trkpt><trkpt lat="45.98343055867928" lon="9.261736728848797"><ele>241.0</ele><time>2026-04-25T15:57:19.999Z</time></trkpt><trkpt lat="45.98335654021501" lon="9.261719160226258"><ele>241.0</ele><time>2026-04-25T15:57:20.999Z</time></trkpt><trkpt lat="45.983284104157754" lon="9.261689136313855"><ele>241.0</ele><time>2026-04-25T15:57:21.999Z</time></trkpt><trkpt lat="45.98321252470942" lon="9.26165951145933"><ele>240.99999999999997</ele><time>2026-04-25T15:57:22.999Z</time></trkpt><trkpt lat="45.98315128130041" lon="9.261635596523012"><ele>241.0</ele><time>2026-04-25T15:57:23.999Z</time></trkpt><trkpt lat="45.98303386552161" lon="9.261589203179065"><ele>241.4</ele><time>2026-04-25T15:57:25.999Z</time></trkpt><trkpt lat="45.98291534389442" lon="9.261544443721514"><ele>241.8</ele><time>2026-04-25T15:57:27.999Z</time></trkpt><trkpt lat="45.98281194764302" lon="9.261531987231685"><ele>242.20000000000002</ele><time>2026-04-25T15:57:29.999Z</time></trkpt><trkpt lat="45.98271364899864" lon="9.261523735561116"><ele>242.60000000000002</ele><time>2026-04-25T15:57:31.999Z</time></trkpt><trkpt lat="45.982617952336156" lon="9.261513835707866"><ele>243.0</ele><time>2026-04-25T15:57:33.999Z</time></trkpt><trkpt lat="45.98252114890508" lon="9.261512764558464"><ele>242.8</ele><time>2026-04-25T15:57:35.999Z</time></trkpt><trkpt lat="45.98243194288965" lon="9.261506904035466"><ele>242.60000000000002</ele><time>2026-04-25T15:57:37.999Z</time></trkpt><trkpt lat="45.98232977660938" lon="9.261502778030767"><ele>242.39999999999998</ele><time>2026-04-25T15:57:40Z</time></trkpt><trkpt lat="45.98222207897702" lon="9.261503791780495"><ele>242.2</ele><time>2026-04-25T15:57:42Z</time></trkpt><trkpt lat="45.982118289943436" lon="9.261504351233961"><ele>242.0</ele><time>2026-04-25T15:57:44Z</time></trkpt><trkpt lat="45.982006213584626" lon="9.261493411871973"><ele>242.0</ele><time>2026-04-25T15:57:46Z</time></trkpt><trkpt lat="45.98189764845402" lon="9.26145355121515"><ele>242.0</ele><time>2026-04-25T15:57:48Z</time></trkpt><trkpt lat="45.98179081868644" lon="9.261388181750231"><ele>242.0</ele><time>2026-04-25T15:57:50Z</time></trkpt><trkpt lat="45.98169564360137" lon="9.261313917435475"><ele>242.0</ele><time>2026-04-25T15:57:52Z</time></trkpt><trkpt lat="45.98157658933745" lon="9.261247938302546"><ele>241.33333333333334</ele><time>2026-04-25T15:57:54Z</time></trkpt><trkpt lat="45.98150156463827" lon="9.261221619164404"><ele>240.66666666666669</ele><time>2026-04-25T15:57:55Z</time></trkpt><trkpt lat="45.981422018939284" lon="9.261272162137141"><ele>240.0</ele><time>2026-04-25T15:57:56Z</time></trkpt><trkpt lat="45.981343830680956" lon="9.261324252137584"><ele>239.33333333333331</ele><time>2026-04-25T15:57:57Z</time></trkpt><trkpt lat="45.981261161330096" lon="9.26137773051303"><ele>238.66666666666666</ele><time>2026-04-25T15:57:58Z</time></trkpt><trkpt lat="45.98118074883957" lon="9.261428666627854"><ele>238.0</ele><time>2026-04-25T15:57:59Z</time></trkpt><trkpt lat="45.981098692570846" lon="9.261474542904752"><ele>238.0</ele><time>2026-04-25T15:58:00Z</time></trkpt><trkpt lat="45.981020641545854" lon="9.261513857801209"><ele>238.0</ele><time>2026-04-25T15:58:01Z</time></trkpt><trkpt lat="45.980946502941954" lon="9.261549127960164"><ele>238.0</ele><time>2026-04-25T15:58:02Z</time></trkpt><trkpt lat="45.98087794090199" lon="9.261580230845858"><ele>238.0</ele><time>2026-04-25T15:58:03Z</time></trkpt><trkpt lat="45.980815122434024" lon="9.261612753594168"><ele>238.0</ele><time>2026-04-25T15:58:04Z</time></trkpt><trkpt lat="45.98074973480282" lon="9.261643381813904"><ele>238.0</ele><time>2026-04-25T15:58:05Z</time></trkpt><trkpt lat="45.98068665723004" lon="9.261675532406995"><ele>238.0</ele><time>2026-04-25T15:58:06Z</time></trkpt><trkpt lat="45.98062025957488" lon="9.261707522287496"><ele>238.71428571428572</ele><time>2026-04-25T15:58:07Z</time></trkpt><trkpt lat="45.980558975318644" lon="9.261732927467573"><ele>239.42857142857144</ele><time>2026-04-25T15:58:08Z</time></trkpt><trkpt lat="45.98049146437124" lon="9.261765853160687"><ele>240.14285714285714</ele><time>2026-04-25T15:58:09Z</time></trkpt><trkpt lat="45.9804242687824" lon="9.261802607852266"><ele>240.85714285714286</ele><time>2026-04-25T15:58:10Z</time></trkpt><trkpt lat="45.9803574424234" lon="9.261841647141512"><ele>241.57142857142858</ele><time>2026-04-25T15:58:11Z</time></trkpt><trkpt lat="45.9802949497719" lon="9.261882836919533"><ele>242.28571428571428</ele><time>2026-04-25T15:58:12Z</time></trkpt><trkpt lat="45.98023246783489" lon="9.26192891244197"><ele>243.0</ele><time>2026-04-25T15:58:13.001Z</time></trkpt><trkpt lat="45.98017132322723" lon="9.261974425467665"><ele>243.0</ele><time>2026-04-25T15:58:14.001Z</time></trkpt><trkpt lat="45.98011096989434" lon="9.262021210057515"><ele>243.0</ele><time>2026-04-25T15:58:15.001Z</time></trkpt><trkpt lat="45.98004942327092" lon="9.262068375337705"><ele>243.0</ele><time>2026-04-25T15:58:16.001Z</time></trkpt><trkpt lat="45.979989846386935" lon="9.262117681299557"><ele>243.0</ele><time>2026-04-25T15:58:17.001Z</time></trkpt><trkpt lat="45.979932504105356" lon="9.262166328895622"><ele>243.0</ele><time>2026-04-25T15:58:18.001Z</time></trkpt><trkpt lat="45.97987501291492" lon="9.262216245247815"><ele>243.0</ele><time>2026-04-25T15:58:19.001Z</time></trkpt><trkpt lat="45.97977161873816" lon="9.262315063387513"><ele>242.0</ele><time>2026-04-25T15:58:21.001Z</time></trkpt><trkpt lat="45.97967540465259" lon="9.262388333333423"><ele>241.0</ele><time>2026-04-25T15:58:23.001Z</time></trkpt><trkpt lat="45.97959936098028" lon="9.262443498585752"><ele>240.0</ele><time>2026-04-25T15:58:25.001Z</time></trkpt><trkpt lat="45.97953196034117" lon="9.262491190079654"><ele>239.0</ele><time>2026-04-25T15:58:27.001Z</time></trkpt><trkpt lat="45.979449178865025" lon="9.262548238191439"><ele>238.0</ele><time>2026-04-25T15:58:29.001Z</time></trkpt><trkpt lat="45.9793456382141" lon="9.262640872626735"><ele>238.0</ele><time>2026-04-25T15:58:31.001Z</time></trkpt><trkpt lat="45.979272748143636" lon="9.262688706375693"><ele>238.0</ele><time>2026-04-25T15:58:32.001Z</time></trkpt><trkpt lat="45.979192336770765" lon="9.262739158995359"><ele>238.0</ele><time>2026-04-25T15:58:33.001Z</time></trkpt><trkpt lat="45.97910385039057" lon="9.262785789933044"><ele>238.0</ele><time>2026-04-25T15:58:34.001Z</time></trkpt><trkpt lat="45.97901603159537" lon="9.262819617604968"><ele>238.0</ele><time>2026-04-25T15:58:35.001Z</time></trkpt><trkpt lat="45.97891535769208" lon="9.262833633701245"><ele>239.2</ele><time>2026-04-25T15:58:36.001Z</time></trkpt><trkpt lat="45.97881029349472" lon="9.262836392907218"><ele>240.4</ele><time>2026-04-25T15:58:37.001Z</time></trkpt><trkpt lat="45.97871356809899" lon="9.262826265427984"><ele>241.59999999999997</ele><time>2026-04-25T15:58:38.001Z</time></trkpt><trkpt lat="45.978619287346476" lon="9.262790722973769"><ele>242.79999999999998</ele><time>2026-04-25T15:58:39.001Z</time></trkpt><trkpt lat="45.97851560564877" lon="9.262769089520786"><ele>244.0</ele><time>2026-04-25T15:58:40.001Z</time></trkpt><trkpt lat="45.97840804300876" lon="9.262745639827589"><ele>243.2</ele><time>2026-04-25T15:58:41.001Z</time></trkpt><trkpt lat="45.97830281246532" lon="9.262723676162159"><ele>242.39999999999998</ele><time>2026-04-25T15:58:42.001Z</time></trkpt><trkpt lat="45.978210877808955" lon="9.26270627604026"><ele>241.6</ele><time>2026-04-25T15:58:43.001Z</time></trkpt><trkpt lat="45.97812294970877" lon="9.262689280294955"><ele>240.8</ele><time>2026-04-25T15:58:44.001Z</time></trkpt><trkpt lat="45.978037674348606" lon="9.262671816411018"><ele>240.0</ele><time>2026-04-25T15:58:45.001Z</time></trkpt><trkpt lat="45.977957957611174" lon="9.2626565939862"><ele>240.0</ele><time>2026-04-25T15:58:46.001Z</time></trkpt><trkpt lat="45.977873231545296" lon="9.262644049928285"><ele>240.0</ele><time>2026-04-25T15:58:47.001Z</time></trkpt><trkpt lat="45.97778692834087" lon="9.262628643077294"><ele>240.0</ele><time>2026-04-25T15:58:48.001Z</time></trkpt><trkpt lat="45.97770218422038" lon="9.262613170676959"><ele>240.0</ele><time>2026-04-25T15:58:49.001Z</time></trkpt><trkpt lat="45.977617072604744" lon="9.262595615429001"><ele>240.0</ele><time>2026-04-25T15:58:50.001Z</time></trkpt><trkpt lat="45.97753538479935" lon="9.26257302171033"><ele>240.0</ele><time>2026-04-25T15:58:51.001Z</time></trkpt><trkpt lat="45.97745347824407" lon="9.262547940134208"><ele>239.16666666666666</ele><time>2026-04-25T15:58:52.002Z</time></trkpt><trkpt lat="45.97738223894678" lon="9.262528005906269"><ele>238.33333333333331</ele><time>2026-04-25T15:58:53.002Z</time></trkpt><trkpt lat="45.9773033796809" lon="9.26250990912883"><ele>237.5</ele><time>2026-04-25T15:58:54.002Z</time></trkpt><trkpt lat="45.97721590121352" lon="9.262492765792352"><ele>236.66666666666666</ele><time>2026-04-25T15:58:55.002Z</time></trkpt><trkpt lat="45.977124700273556" lon="9.262475841857306"><ele>235.83333333333331</ele><time>2026-04-25T15:58:56.002Z</time></trkpt><trkpt lat="45.97702814300421" lon="9.262458721166885"><ele>235.0</ele><time>2026-04-25T15:58:57.002Z</time></trkpt><trkpt lat="45.97693418855631" lon="9.262440529872178"><ele>235.0</ele><time>2026-04-25T15:58:58.002Z</time></trkpt><trkpt lat="45.97684012987163" lon="9.262421208572526"><ele>235.0</ele><time>2026-04-25T15:58:59.002Z</time></trkpt><trkpt lat="45.976743942594396" lon="9.262403602346394"><ele>235.0</ele><time>2026-04-25T15:59:00.002Z</time></trkpt><trkpt lat="45.976645317486266" lon="9.262386745636018"><ele>235.0</ele><time>2026-04-25T15:59:01.002Z</time></trkpt><trkpt lat="45.97654826222278" lon="9.26236861877003"><ele>235.0</ele><time>2026-04-25T15:59:02.002Z</time></trkpt><trkpt lat="45.976451125116256" lon="9.262351409144038"><ele>234.8</ele><time>2026-04-25T15:59:03.002Z</time></trkpt><trkpt lat="45.97634657547665" lon="9.262330454884951"><ele>234.6</ele><time>2026-04-25T15:59:04.002Z</time></trkpt><trkpt lat="45.97623793768552" lon="9.262309410948829"><ele>234.39999999999998</ele><time>2026-04-25T15:59:05.002Z</time></trkpt><trkpt lat="45.97613181426933" lon="9.26228595737767"><ele>234.2</ele><time>2026-04-25T15:59:05.999Z</time></trkpt><trkpt lat="45.97602662409662" lon="9.262259311715027"><ele>234.0</ele><time>2026-04-25T15:59:06.999Z</time></trkpt><trkpt lat="45.97592150437926" lon="9.262237724722544"><ele>233.79999999999998</ele><time>2026-04-25T15:59:07.999Z</time></trkpt><trkpt lat="45.97581470426162" lon="9.262216480642728"><ele>233.59999999999997</ele><time>2026-04-25T15:59:08.999Z</time></trkpt><trkpt lat="45.975711572926755" lon="9.262196642034692"><ele>233.4</ele><time>2026-04-25T15:59:09.999Z</time></trkpt><trkpt lat="45.975612407064794" lon="9.262175826025503"><ele>233.2</ele><time>2026-04-25T15:59:10.999Z</time></trkpt><trkpt lat="45.97551822100153" lon="9.262152040222315"><ele>233.0</ele><time>2026-04-25T15:59:11.999Z</time></trkpt><trkpt lat="45.97543200631494" lon="9.262125869945205"><ele>233.00000000000003</ele><time>2026-04-25T15:59:12.999Z</time></trkpt><trkpt lat="45.97535252334536" lon="9.262093568621392"><ele>233.0</ele><time>2026-04-25T15:59:13.999Z</time></trkpt><trkpt lat="45.97528173870362" lon="9.262052638447264"><ele>233.0</ele><time>2026-04-25T15:59:14.999Z</time></trkpt><trkpt lat="45.97521213349164" lon="9.261997554570938"><ele>233.0</ele><time>2026-04-25T15:59:15.999Z</time></trkpt><trkpt lat="45.97514064995705" lon="9.261926412054859"><ele>233.00000000000003</ele><time>2026-04-25T15:59:16.999Z</time></trkpt><trkpt lat="45.975068593255614" lon="9.261843316746367"><ele>233.0</ele><time>2026-04-25T15:59:17.999Z</time></trkpt><trkpt lat="45.97499366351614" lon="9.261754431581743"><ele>234.60000000000002</ele><time>2026-04-25T15:59:18.999Z</time></trkpt><trkpt lat="45.97491860580251" lon="9.26166323319102"><ele>236.20000000000002</ele><time>2026-04-25T15:59:19.999Z</time></trkpt><trkpt lat="45.97484115238764" lon="9.261572647339243"><ele>237.8</ele><time>2026-04-25T15:59:20.999Z</time></trkpt><trkpt lat="45.97476144500193" lon="9.261486784614887"><ele>239.4</ele><time>2026-04-25T15:59:21.999Z</time></trkpt><trkpt lat="45.974677808316926" lon="9.26141557826594"><ele>241.0</ele><time>2026-04-25T15:59:22.999Z</time></trkpt><trkpt lat="45.97458276370017" lon="9.261360788802536"><ele>240.99999999999997</ele><time>2026-04-25T15:59:23.999Z</time></trkpt><trkpt lat="45.974483251325466" lon="9.261325006092287"><ele>241.0</ele><time>2026-04-25T15:59:24.999Z</time></trkpt><trkpt lat="45.97438879285106" lon="9.26130620986609"><ele>241.0</ele><time>2026-04-25T15:59:25.999Z</time></trkpt><trkpt lat="45.97429754145081" lon="9.261302072656001"><ele>241.0</ele><time>2026-04-25T15:59:26.999Z</time></trkpt><trkpt lat="45.97421742037142" lon="9.26129844295286"><ele>240.99999999999997</ele><time>2026-04-25T15:59:27.999Z</time></trkpt><trkpt lat="45.97415371009241" lon="9.261275013102956"><ele>241.0</ele><time>2026-04-25T15:59:29Z</time></trkpt><trkpt lat="45.97409167353155" lon="9.261241180151409"><ele>242.99999999999997</ele><time>2026-04-25T15:59:30Z</time></trkpt><trkpt lat="45.97403246996177" lon="9.261191765323696"><ele>245.0</ele><time>2026-04-25T15:59:31Z</time></trkpt><trkpt lat="45.97398824993093" lon="9.261110596317474"><ele>247.0</ele><time>2026-04-25T15:59:32Z</time></trkpt><trkpt lat="45.97396670688335" lon="9.261004138286063"><ele>249.0</ele><time>2026-04-25T15:59:33Z</time></trkpt><trkpt lat="45.97397731434181" lon="9.260887281975908"><ele>250.99999999999997</ele><time>2026-04-25T15:59:34Z</time></trkpt><trkpt lat="45.97400645234542" lon="9.26076132628539"><ele>253.0</ele><time>2026-04-25T15:59:35Z</time></trkpt><trkpt lat="45.9740515729282" lon="9.260637792032412"><ele>254.83333333333331</ele><time>2026-04-25T15:59:36Z</time></trkpt><trkpt lat="45.974098394521384" lon="9.260493667741217"><ele>256.66666666666663</ele><time>2026-04-25T15:59:37Z</time></trkpt><trkpt lat="45.97414848528154" lon="9.260366883999605"><ele>258.5</ele><time>2026-04-25T15:59:38Z</time></trkpt><trkpt lat="45.97419027998998" lon="9.260247294351817"><ele>260.3333333333333</ele><time>2026-04-25T15:59:39Z</time></trkpt><trkpt lat="45.97421005218333" lon="9.260150237776438"><ele>262.1666666666667</ele><time>2026-04-25T15:59:40Z</time></trkpt><trkpt lat="45.97419739583707" lon="9.260054884478803"><ele>264.0</ele><time>2026-04-25T15:59:41Z</time></trkpt><trkpt lat="45.974159841753746" lon="9.259979932940665"><ele>264.0</ele><time>2026-04-25T15:59:42Z</time></trkpt><trkpt lat="45.9740936998956" lon="9.259955177496964"><ele>264.0</ele><time>2026-04-25T15:59:43Z</time></trkpt><trkpt lat="45.974025975447645" lon="9.259990272569274"><ele>264.0</ele><time>2026-04-25T15:59:44Z</time></trkpt><trkpt lat="45.973977713444356" lon="9.260072497704071"><ele>264.0</ele><time>2026-04-25T15:59:45Z</time></trkpt><trkpt lat="45.97394534268665" lon="9.260186895788976"><ele>264.0</ele><time>2026-04-25T15:59:46Z</time></trkpt><trkpt lat="45.97391388705888" lon="9.260327334132505"><ele>264.0</ele><time>2026-04-25T15:59:47Z</time></trkpt><trkpt lat="45.97386911090617" lon="9.260476328826053"><ele>261.25</ele><time>2026-04-25T15:59:48Z</time></trkpt><trkpt lat="45.97382398956095" lon="9.260632025829683"><ele>258.5</ele><time>2026-04-25T15:59:49Z</time></trkpt><trkpt lat="45.973766793968885" lon="9.260782284585193"><ele>255.75</ele><time>2026-04-25T15:59:50Z</time></trkpt><trkpt lat="45.973692132793964" lon="9.26091624837824"><ele>253.0</ele><time>2026-04-25T15:59:51Z</time></trkpt><trkpt lat="45.973608822765115" lon="9.26101882815318"><ele>253.0</ele><time>2026-04-25T15:59:52Z</time></trkpt><trkpt lat="45.973526647425764" lon="9.261083413131542"><ele>253.0</ele><time>2026-04-25T15:59:53Z</time></trkpt><trkpt lat="45.9734411219091" lon="9.26111716269832"><ele>253.0</ele><time>2026-04-25T15:59:54Z</time></trkpt><trkpt lat="45.97334736971059" lon="9.26111568829514"><ele>253.0</ele><time>2026-04-25T15:59:55Z</time></trkpt><trkpt lat="45.97325337544559" lon="9.261072359954868"><ele>253.0</ele><time>2026-04-25T15:59:56Z</time></trkpt><trkpt lat="45.97316854061545" lon="9.261028005492902"><ele>256.4</ele><time>2026-04-25T15:59:57.001Z</time></trkpt><trkpt lat="45.97308717513571" lon="9.260962322215763"><ele>259.8</ele><time>2026-04-25T15:59:58.001Z</time></trkpt><trkpt lat="45.9730118659814" lon="9.260872814542857"><ele>263.2</ele><time>2026-04-25T15:59:59.001Z</time></trkpt><trkpt lat="45.97294600270126" lon="9.260768263004437"><ele>266.6</ele><time>2026-04-25T16:00:00.001Z</time></trkpt><trkpt lat="45.9728803974248" lon="9.260661202643306"><ele>270.0</ele><time>2026-04-25T16:00:01.001Z</time></trkpt><trkpt lat="45.97280915197946" lon="9.260577984710544"><ele>271.8</ele><time>2026-04-25T16:00:02.001Z</time></trkpt><trkpt lat="45.972727915174296" lon="9.260520125979147"><ele>273.6</ele><time>2026-04-25T16:00:03.001Z</time></trkpt><trkpt lat="45.97265752270316" lon="9.260460383822732"><ele>275.4</ele><time>2026-04-25T16:00:04.001Z</time></trkpt><trkpt lat="45.97259797697742" lon="9.260410323557295"><ele>277.2</ele><time>2026-04-25T16:00:05.001Z</time></trkpt><trkpt lat="45.97249328886886" lon="9.260329943273675"><ele>279.0</ele><time>2026-04-25T16:00:07.001Z</time></trkpt><trkpt lat="45.97240829500694" lon="9.260385964910594"><ele>279.1666666666667</ele><time>2026-04-25T16:00:09.001Z</time></trkpt><trkpt lat="45.97243203754595" lon="9.260560146618673"><ele>279.3333333333333</ele><time>2026-04-25T16:00:11.001Z</time></trkpt><trkpt lat="45.9724916967487" lon="9.260628543138626"><ele>279.5</ele><time>2026-04-25T16:00:12.001Z</time></trkpt><trkpt lat="45.97257309480233" lon="9.260675057874217"><ele>279.66666666666663</ele><time>2026-04-25T16:00:13.001Z</time></trkpt><trkpt lat="45.972653743855" lon="9.260721484625664"><ele>279.8333333333333</ele><time>2026-04-25T16:00:14.001Z</time></trkpt><trkpt lat="45.97270828295033" lon="9.2607821526341"><ele>280.0</ele><time>2026-04-25T16:00:15.001Z</time></trkpt><trkpt lat="45.97274978173739" lon="9.260938365140014"><ele>278.3333333333333</ele><time>2026-04-25T16:00:17.001Z</time></trkpt><trkpt lat="45.9727391726325" lon="9.261032056556111"><ele>276.66666666666663</ele><time>2026-04-25T16:00:18.001Z</time></trkpt><trkpt lat="45.97271398670554" lon="9.261147670984007"><ele>275.0</ele><time>2026-04-25T16:00:19.001Z</time></trkpt><trkpt lat="45.97268553515789" lon="9.261275597681914"><ele>273.3333333333333</ele><time>2026-04-25T16:00:20.001Z</time></trkpt><trkpt lat="45.97264431391306" lon="9.261392676396195"><ele>271.6666666666667</ele><time>2026-04-25T16:00:21.001Z</time></trkpt><trkpt lat="45.97259587282893" lon="9.261498895898093"><ele>270.0</ele><time>2026-04-25T16:00:22.001Z</time></trkpt><trkpt lat="45.97256081884831" lon="9.261630021688244"><ele>271.0</ele><time>2026-04-25T16:00:23.001Z</time></trkpt><trkpt lat="45.97255375863478" lon="9.261774103835913"><ele>272.0</ele><time>2026-04-25T16:00:24.001Z</time></trkpt><trkpt lat="45.97256332864704" lon="9.26193027681883"><ele>273.0</ele><time>2026-04-25T16:00:25.001Z</time></trkpt><trkpt lat="45.972571121300305" lon="9.262090353884602"><ele>274.0</ele><time>2026-04-25T16:00:26.001Z</time></trkpt><trkpt lat="45.97257321797082" lon="9.262246088877612"><ele>275.0</ele><time>2026-04-25T16:00:27.001Z</time></trkpt><trkpt lat="45.97257131325379" lon="9.262389042614924"><ele>275.0</ele><time>2026-04-25T16:00:28.001Z</time></trkpt><trkpt lat="45.9725603549265" lon="9.262525404773973"><ele>275.0</ele><time>2026-04-25T16:00:29.001Z</time></trkpt><trkpt lat="45.97253670060148" lon="9.262655469671929"><ele>275.0</ele><time>2026-04-25T16:00:30.001Z</time></trkpt><trkpt lat="45.97250496391701" lon="9.262780571670904"><ele>275.0</ele><time>2026-04-25T16:00:31.002Z</time></trkpt><trkpt lat="45.97245410340707" lon="9.262903032446937"><ele>275.0</ele><time>2026-04-25T16:00:32.002Z</time></trkpt><trkpt lat="45.97238736747464" lon="9.26302962310093"><ele>278.0</ele><time>2026-04-25T16:00:33.002Z</time></trkpt><trkpt lat="45.97231147065411" lon="9.26316740427331"><ele>281.0</ele><time>2026-04-25T16:00:34.002Z</time></trkpt><trkpt lat="45.972234005964694" lon="9.263313092427769"><ele>284.0</ele><time>2026-04-25T16:00:35.002Z</time></trkpt><trkpt lat="45.972160585273734" lon="9.263455846064906"><ele>287.0</ele><time>2026-04-25T16:00:36.002Z</time></trkpt><trkpt lat="45.972076102890455" lon="9.263595348098113"><ele>287.0</ele><time>2026-04-25T16:00:37.002Z</time></trkpt><trkpt lat="45.97199502980758" lon="9.263737070771057"><ele>287.0</ele><time>2026-04-25T16:00:38.002Z</time></trkpt><trkpt lat="45.97191094056683" lon="9.263866100018037"><ele>287.0</ele><time>2026-04-25T16:00:39.002Z</time></trkpt><trkpt lat="45.971822363100586" lon="9.263985195039236"><ele>287.0</ele><time>2026-04-25T16:00:40.002Z</time></trkpt><trkpt lat="45.97174082333803" lon="9.264108238792023"><ele>286.75</ele><time>2026-04-25T16:00:41.002Z</time></trkpt><trkpt lat="45.971669362219146" lon="9.264236166782032"><ele>286.5</ele><time>2026-04-25T16:00:42.002Z</time></trkpt><trkpt lat="45.97161546985925" lon="9.264388637473662"><ele>286.25</ele><time>2026-04-25T16:00:43.002Z</time></trkpt><trkpt lat="45.97157155775928" lon="9.264555276926414"><ele>286.0</ele><time>2026-04-25T16:00:44.002Z</time></trkpt><trkpt lat="45.971525485520765" lon="9.264709270244577"><ele>285.8</ele><time>2026-04-25T16:00:45.002Z</time></trkpt><trkpt lat="45.97147857228005" lon="9.264858179409373"><ele>285.6</ele><time>2026-04-25T16:00:46.002Z</time></trkpt><trkpt lat="45.971420334052254" lon="9.26498895774447"><ele>285.4</ele><time>2026-04-25T16:00:47.002Z</time></trkpt><trkpt lat="45.971350839551555" lon="9.265098793155616"><ele>285.2</ele><time>2026-04-25T16:00:48.002Z</time></trkpt><trkpt lat="45.97126716783504" lon="9.265174996192659"><ele>285.0</ele><time>2026-04-25T16:00:49.002Z</time></trkpt><trkpt lat="45.97116931814539" lon="9.265224564889138"><ele>285.0</ele><time>2026-04-25T16:00:50.002Z</time></trkpt><trkpt lat="45.97105783763063" lon="9.265228366388346"><ele>285.0</ele><time>2026-04-25T16:00:51.002Z</time></trkpt><trkpt lat="45.97094902585952" lon="9.265213184576863"><ele>285.0</ele><time>2026-04-25T16:00:52.002Z</time></trkpt><trkpt lat="45.97084499867193" lon="9.265230852991786"><ele>285.0</ele><time>2026-04-25T16:00:53.002Z</time></trkpt><trkpt lat="45.97074839933371" lon="9.265285647315983"><ele>285.0</ele><time>2026-04-25T16:00:54.002Z</time></trkpt><trkpt lat="45.970668651515865" lon="9.265380338513937"><ele>282.6</ele><time>2026-04-25T16:00:55.002Z</time></trkpt><trkpt lat="45.97061416078879" lon="9.265497131626185"><ele>280.2</ele><time>2026-04-25T16:00:56.002Z</time></trkpt><trkpt lat="45.97057441348663" lon="9.265636970906352"><ele>277.8</ele><time>2026-04-25T16:00:57.002Z</time></trkpt><trkpt lat="45.970532436702584" lon="9.265766023319387"><ele>275.4</ele><time>2026-04-25T16:00:58.002Z</time></trkpt><trkpt lat="45.97047566178464" lon="9.265879394019025"><ele>273.0</ele><time>2026-04-25T16:00:59.002Z</time></trkpt><trkpt lat="45.97039687476571" lon="9.26596200427608"><ele>271.5</ele><time>2026-04-25T16:01:00.002Z</time></trkpt><trkpt lat="45.97029324098272" lon="9.266014947440663"><ele>270.0</ele><time>2026-04-25T16:01:01.002Z</time></trkpt><trkpt lat="45.97017284409223" lon="9.266036998808033"><ele>268.5</ele><time>2026-04-25T16:01:02.002Z</time></trkpt><trkpt lat="45.970042116041846" lon="9.266046969439255"><ele>267.0</ele><time>2026-04-25T16:01:03.002Z</time></trkpt><trkpt lat="45.969907372403014" lon="9.266034701190614"><ele>267.0</ele><time>2026-04-25T16:01:04.002Z</time></trkpt><trkpt lat="45.96977364225903" lon="9.266005360888638"><ele>267.0</ele><time>2026-04-25T16:01:05.002Z</time></trkpt><trkpt lat="45.969646003607096" lon="9.265982517276129"><ele>267.0</ele><time>2026-04-25T16:01:06.002Z</time></trkpt><trkpt lat="45.9695326684369" lon="9.265993016745536"><ele>267.0</ele><time>2026-04-25T16:01:07.003Z</time></trkpt><trkpt lat="45.96943490280654" lon="9.26604278664167"><ele>267.0</ele><time>2026-04-25T16:01:08.003Z</time></trkpt><trkpt lat="45.96934500174791" lon="9.266135267505708"><ele>267.0</ele><time>2026-04-25T16:01:09.003Z</time></trkpt><trkpt lat="45.969271750698795" lon="9.266250427976436"><ele>267.0</ele><time>2026-04-25T16:01:10.003Z</time></trkpt><trkpt lat="45.96919291927122" lon="9.266331632903675"><ele>267.0</ele><time>2026-04-25T16:01:11.003Z</time></trkpt><trkpt lat="45.96909831416373" lon="9.2663737150214"><ele>267.0</ele><time>2026-04-25T16:01:11.999Z</time></trkpt><trkpt lat="45.96899440626383" lon="9.266380713938805"><ele>267.5</ele><time>2026-04-25T16:01:12.999Z</time></trkpt><trkpt lat="45.96890004833041" lon="9.266347580335232"><ele>268.0</ele><time>2026-04-25T16:01:13.999Z</time></trkpt><trkpt lat="45.968784586575" lon="9.266273671670113"><ele>268.5</ele><time>2026-04-25T16:01:14.999Z</time></trkpt><trkpt lat="45.96867526595696" lon="9.266202943299257"><ele>269.0</ele><time>2026-04-25T16:01:15.999Z</time></trkpt><trkpt lat="45.96857146596755" lon="9.266161402295763"><ele>269.0</ele><time>2026-04-25T16:01:16.999Z</time></trkpt><trkpt lat="45.96846872597011" lon="9.266169904712617"><ele>269.0</ele><time>2026-04-25T16:01:17.999Z</time></trkpt><trkpt lat="45.96837541053838" lon="9.266230388210934"><ele>269.0</ele><time>2026-04-25T16:01:18.999Z</time></trkpt><trkpt lat="45.968301095088435" lon="9.266326358187547"><ele>269.0</ele><time>2026-04-25T16:01:19.999Z</time></trkpt><trkpt lat="45.968254382571686" lon="9.26645246947155"><ele>269.0</ele><time>2026-04-25T16:01:20.999Z</time></trkpt><trkpt lat="45.96823066848291" lon="9.266607095723142"><ele>266.2</ele><time>2026-04-25T16:01:21.999Z</time></trkpt><trkpt lat="45.968225300702436" lon="9.266756245685047"><ele>263.4</ele><time>2026-04-25T16:01:22.999Z</time></trkpt><trkpt lat="45.968207684107696" lon="9.26689599386444"><ele>260.6</ele><time>2026-04-25T16:01:23.999Z</time></trkpt><trkpt lat="45.96815753777987" lon="9.26700285699143"><ele>257.8</ele><time>2026-04-25T16:01:24.999Z</time></trkpt><trkpt lat="45.968081010924614" lon="9.267076213939644"><ele>255.0</ele><time>2026-04-25T16:01:25.999Z</time></trkpt><trkpt lat="45.96797457751599" lon="9.267139051007765"><ele>255.0</ele><time>2026-04-25T16:01:27Z</time></trkpt><trkpt lat="45.96784289703623" lon="9.267191686174462"><ele>255.0</ele><time>2026-04-25T16:01:28Z</time></trkpt><trkpt lat="45.967703173124065" lon="9.26725805870547"><ele>255.0</ele><time>2026-04-25T16:01:29Z</time></trkpt><trkpt lat="45.967556515204386" lon="9.267329452293716"><ele>255.0</ele><time>2026-04-25T16:01:30Z</time></trkpt><trkpt lat="45.967425737106225" lon="9.267398082243599"><ele>253.4</ele><time>2026-04-25T16:01:31Z</time></trkpt><trkpt lat="45.9673144323142" lon="9.267443646328747"><ele>251.8</ele><time>2026-04-25T16:01:32Z</time></trkpt><trkpt lat="45.967216795227536" lon="9.267455685370933"><ele>250.2</ele><time>2026-04-25T16:01:33Z</time></trkpt><trkpt lat="45.9671250693141" lon="9.267440992257653"><ele>248.6</ele><time>2026-04-25T16:01:34Z</time></trkpt><trkpt lat="45.967036414663895" lon="9.267380537886208"><ele>247.0</ele><time>2026-04-25T16:01:35Z</time></trkpt><trkpt lat="45.9669386831444" lon="9.267333257831185"><ele>247.0</ele><time>2026-04-25T16:01:36Z</time></trkpt><trkpt lat="45.96683106449138" lon="9.267329494841091"><ele>247.0</ele><time>2026-04-25T16:01:37Z</time></trkpt><trkpt lat="45.96673095692348" lon="9.267340151990735"><ele>247.0</ele><time>2026-04-25T16:01:38Z</time></trkpt><trkpt lat="45.96663860826907" lon="9.267320245927593"><ele>247.0</ele><time>2026-04-25T16:01:39Z</time></trkpt><trkpt lat="45.9665421118572" lon="9.267250969470929"><ele>247.0</ele><time>2026-04-25T16:01:40Z</time></trkpt><trkpt lat="45.966435077941476" lon="9.267167221354452"><ele>255.0</ele><time>2026-04-25T16:01:41Z</time></trkpt><trkpt lat="45.96631919122035" lon="9.267089580304354"><ele>263.0</ele><time>2026-04-25T16:01:42Z</time></trkpt><trkpt lat="45.96619671521489" lon="9.267010689123259"><ele>271.0</ele><time>2026-04-25T16:01:43Z</time></trkpt><trkpt lat="45.96606898426589" lon="9.266948105164225"><ele>279.0</ele><time>2026-04-25T16:01:44Z</time></trkpt><trkpt lat="45.96594838314721" lon="9.266884511885612"><ele>273.25</ele><time>2026-04-25T16:01:45Z</time></trkpt><trkpt lat="45.96583390503815" lon="9.266829930990884"><ele>267.5</ele><time>2026-04-25T16:01:46Z</time></trkpt><trkpt lat="45.96571478749266" lon="9.266792748580963"><ele>261.75</ele><time>2026-04-25T16:01:47Z</time></trkpt><trkpt lat="45.965598456074396" lon="9.26675433031822"><ele>256.0</ele><time>2026-04-25T16:01:48Z</time></trkpt><trkpt lat="45.965488957005654" lon="9.266805621258463"><ele>255.99999999999997</ele><time>2026-04-25T16:01:49Z</time></trkpt><trkpt lat="45.96539497859874" lon="9.266819284991799"><ele>256.0</ele><time>2026-04-25T16:01:50Z</time></trkpt><trkpt lat="45.965314507513696" lon="9.266796149331926"><ele>256.0</ele><time>2026-04-25T16:01:51Z</time></trkpt><trkpt lat="45.96524152690727" lon="9.266737449929197"><ele>256.0</ele><time>2026-04-25T16:01:52.001Z</time></trkpt><trkpt lat="45.965183795008514" lon="9.266654536637425"><ele>255.99999999999997</ele><time>2026-04-25T16:01:53.001Z</time></trkpt><trkpt lat="45.96514084842417" lon="9.266560722000577"><ele>256.0</ele><time>2026-04-25T16:01:54.001Z</time></trkpt><trkpt lat="45.9651128716983" lon="9.266464498627869"><ele>258.6</ele><time>2026-04-25T16:01:55.001Z</time></trkpt><trkpt lat="45.96507001638446" lon="9.266376185776668"><ele>261.20000000000005</ele><time>2026-04-25T16:01:56.001Z</time></trkpt><trkpt lat="45.96501390118885" lon="9.266279193554086"><ele>263.79999999999995</ele><time>2026-04-25T16:01:57.001Z</time></trkpt><trkpt lat="45.964916481031565" lon="9.266244795737785"><ele>266.4</ele><time>2026-04-25T16:01:58.001Z</time></trkpt><trkpt lat="45.96481834701894" lon="9.266208905147208"><ele>269.0</ele><time>2026-04-25T16:01:59.001Z</time></trkpt><trkpt lat="45.96469918180195" lon="9.266157457799995"><ele>269.0</ele><time>2026-04-25T16:02:00.001Z</time></trkpt><trkpt lat="45.96456566742307" lon="9.26610538993066"><ele>269.0</ele><time>2026-04-25T16:02:01.001Z</time></trkpt><trkpt lat="45.964428108838355" lon="9.266051604810826"><ele>269.0</ele><time>2026-04-25T16:02:02.001Z</time></trkpt><trkpt lat="45.96428862775577" lon="9.266014486543433"><ele>269.0</ele><time>2026-04-25T16:02:03.001Z</time></trkpt><trkpt lat="45.9641647013946" lon="9.265969168967723"><ele>262.75</ele><time>2026-04-25T16:02:04.001Z</time></trkpt><trkpt lat="45.96405476239064" lon="9.265921714116429"><ele>256.5</ele><time>2026-04-25T16:02:05.001Z</time></trkpt><trkpt lat="45.96395962355388" lon="9.265873843414148"><ele>250.25</ele><time>2026-04-25T16:02:06.001Z</time></trkpt><trkpt lat="45.96384594429745" lon="9.26583867751013"><ele>244.0</ele><time>2026-04-25T16:02:07.001Z</time></trkpt><trkpt lat="45.96372718234753" lon="9.265812847214194"><ele>244.0</ele><time>2026-04-25T16:02:08.001Z</time></trkpt><trkpt lat="45.963594055921966" lon="9.265758116200479"><ele>244.0</ele><time>2026-04-25T16:02:09.001Z</time></trkpt><trkpt lat="45.96342358519895" lon="9.265732098723484"><ele>244.0</ele><time>2026-04-25T16:02:10.001Z</time></trkpt><trkpt lat="45.963246388223595" lon="9.265705401388509"><ele>239.75</ele><time>2026-04-25T16:02:11.001Z</time></trkpt><trkpt lat="45.96310096457755" lon="9.265682877317161"><ele>235.5</ele><time>2026-04-25T16:02:12.001Z</time></trkpt><trkpt lat="45.96297757803764" lon="9.265668404159324"><ele>231.25</ele><time>2026-04-25T16:02:13.001Z</time></trkpt><trkpt lat="45.96285599250023" lon="9.265640100902008"><ele>227.0</ele><time>2026-04-25T16:02:14.001Z</time></trkpt><trkpt lat="45.96273758484871" lon="9.265621888973346"><ele>226.5</ele><time>2026-04-25T16:02:15.001Z</time></trkpt><trkpt lat="45.962625819788435" lon="9.265602595358413"><ele>226.0</ele><time>2026-04-25T16:02:16.001Z</time></trkpt><trkpt lat="45.96251462094256" lon="9.265590192668771"><ele>225.5</ele><time>2026-04-25T16:02:17.001Z</time></trkpt><trkpt lat="45.96239852334959" lon="9.26559369095203"><ele>225.0</ele><time>2026-04-25T16:02:18.001Z</time></trkpt><trkpt lat="45.9622803673324" lon="9.265630852930729"><ele>225.0</ele><time>2026-04-25T16:02:19.001Z</time></trkpt><trkpt lat="45.96216731056967" lon="9.26569942911921"><ele>225.0</ele><time>2026-04-25T16:02:20.001Z</time></trkpt><trkpt lat="45.96206776032609" lon="9.265762988429953"><ele>225.0</ele><time>2026-04-25T16:02:21.001Z</time></trkpt><trkpt lat="45.96197319041094" lon="9.265803626865823"><ele>225.0</ele><time>2026-04-25T16:02:22.001Z</time></trkpt><trkpt lat="45.96187793234039" lon="9.265810189420483"><ele>225.0</ele><time>2026-04-25T16:02:23.001Z</time></trkpt><trkpt lat="45.96179347319864" lon="9.265782100499406"><ele>225.0</ele><time>2026-04-25T16:02:24.002Z</time></trkpt><trkpt lat="45.96170169460428" lon="9.265750763262053"><ele>225.0</ele><time>2026-04-25T16:02:25.002Z</time></trkpt><trkpt lat="45.96159665659706" lon="9.26572245326115"><ele>225.0</ele><time>2026-04-25T16:02:26.002Z</time></trkpt><trkpt lat="45.961480839367646" lon="9.265697553850947"><ele>225.0</ele><time>2026-04-25T16:02:27.002Z</time></trkpt><trkpt lat="45.96135396136704" lon="9.265727988281233"><ele>225.0</ele><time>2026-04-25T16:02:28.002Z</time></trkpt><trkpt lat="45.96122800904008" lon="9.265780548681107"><ele>225.5</ele><time>2026-04-25T16:02:29.002Z</time></trkpt><trkpt lat="45.96110437622965" lon="9.265837729394582"><ele>226.0</ele><time>2026-04-25T16:02:30.002Z</time></trkpt><trkpt lat="45.960983790213376" lon="9.26589558789662"><ele>226.5</ele><time>2026-04-25T16:02:31.002Z</time></trkpt><trkpt lat="45.96087257381389" lon="9.26594936671581"><ele>227.0</ele><time>2026-04-25T16:02:32.002Z</time></trkpt><trkpt lat="45.96076858265806" lon="9.265999651763483"><ele>227.0</ele><time>2026-04-25T16:02:33.002Z</time></trkpt><trkpt lat="45.96066439927582" lon="9.266067972476119"><ele>227.0</ele><time>2026-04-25T16:02:34.002Z</time></trkpt><trkpt lat="45.96055293157621" lon="9.266106629354017"><ele>227.0</ele><time>2026-04-25T16:02:35.002Z</time></trkpt><trkpt lat="45.960448280227844" lon="9.266122982573922"><ele>227.0</ele><time>2026-04-25T16:02:36.002Z</time></trkpt><trkpt lat="45.96035010464867" lon="9.266132657712303"><ele>227.0</ele><time>2026-04-25T16:02:37.002Z</time></trkpt><trkpt lat="45.96025441073529" lon="9.266129268686907"><ele>227.00000000000003</ele><time>2026-04-25T16:02:38.002Z</time></trkpt><trkpt lat="45.96015986101505" lon="9.266121960389052"><ele>227.0</ele><time>2026-04-25T16:02:39.002Z</time></trkpt><trkpt lat="45.96007275449597" lon="9.266122167617938"><ele>227.0</ele><time>2026-04-25T16:02:40.002Z</time></trkpt><trkpt lat="45.95999217366882" lon="9.266153467170321"><ele>227.0</ele><time>2026-04-25T16:02:41.002Z</time></trkpt><trkpt lat="45.9599257531938" lon="9.26622333623761"><ele>227.00000000000003</ele><time>2026-04-25T16:02:42.002Z</time></trkpt><trkpt lat="45.959884440414505" lon="9.266329699572943"><ele>227.0</ele><time>2026-04-25T16:02:43.002Z</time></trkpt><trkpt lat="45.959866607787006" lon="9.26645674395463"><ele>227.0</ele><time>2026-04-25T16:02:44.002Z</time></trkpt><trkpt lat="45.95986255317364" lon="9.266591818644144"><ele>227.0</ele><time>2026-04-25T16:02:45.002Z</time></trkpt><trkpt lat="45.95986361279006" lon="9.266733604808755"><ele>227.0</ele><time>2026-04-25T16:02:46.002Z</time></trkpt><trkpt lat="45.95986420873699" lon="9.266884270808655"><ele>227.0</ele><time>2026-04-25T16:02:47.002Z</time></trkpt><trkpt lat="45.95985875592723" lon="9.267024815561197"><ele>227.0</ele><time>2026-04-25T16:02:48.002Z</time></trkpt><trkpt lat="45.95983309244368" lon="9.267137920191844"><ele>227.00000000000003</ele><time>2026-04-25T16:02:49.002Z</time></trkpt><trkpt lat="45.95979832681347" lon="9.267251437096698"><ele>227.0</ele><time>2026-04-25T16:02:50.002Z</time></trkpt><trkpt lat="45.959757602825704" lon="9.26736019304853"><ele>227.0</ele><time>2026-04-25T16:02:51.002Z</time></trkpt><trkpt lat="45.95972428852595" lon="9.267451742778853"><ele>227.0</ele><time>2026-04-25T16:02:52.002Z</time></trkpt><trkpt lat="45.95967768622697" lon="9.267555996341954"><ele>227.00000000000003</ele><time>2026-04-25T16:02:53.002Z</time></trkpt><trkpt lat="45.959628003503674" lon="9.267655452625812"><ele>227.0</ele><time>2026-04-25T16:02:54.002Z</time></trkpt><trkpt lat="45.95956154367589" lon="9.267750199044256"><ele>225.66666666666669</ele><time>2026-04-25T16:02:55.002Z</time></trkpt><trkpt lat="45.95949653809046" lon="9.267832647800862"><ele>224.33333333333334</ele><time>2026-04-25T16:02:56.002Z</time></trkpt><trkpt lat="45.95942837990177" lon="9.267907679810811"><ele>223.0</ele><time>2026-04-25T16:02:57.003Z</time></trkpt><trkpt lat="45.95936165992024" lon="9.267992832512233"><ele>221.66666666666669</ele><time>2026-04-25T16:02:58.003Z</time></trkpt><trkpt lat="45.95932259087707" lon="9.268104927258387"><ele>220.33333333333334</ele><time>2026-04-25T16:02:59.003Z</time></trkpt><trkpt lat="45.959297432032066" lon="9.268233533143915"><ele>219.0</ele><time>2026-04-25T16:03:00.003Z</time></trkpt><trkpt lat="45.95926997144667" lon="9.26834620436236"><ele>217.33333333333334</ele><time>2026-04-25T16:03:01.003Z</time></trkpt><trkpt lat="45.95923364385412" lon="9.268456113919633"><ele>215.66666666666669</ele><time>2026-04-25T16:03:02.003Z</time></trkpt><trkpt lat="45.95918970408107" lon="9.26856655503765"><ele>214.0</ele><time>2026-04-25T16:03:03.003Z</time></trkpt><trkpt lat="45.959145050427374" lon="9.268673850817855"><ele>212.33333333333334</ele><time>2026-04-25T16:03:04.003Z</time></trkpt><trkpt lat="45.959094971160425" lon="9.26877234244595"><ele>210.66666666666669</ele><time>2026-04-25T16:03:05.003Z</time></trkpt><trkpt lat="45.95902209886098" lon="9.26885888151174"><ele>209.0</ele><time>2026-04-25T16:03:06.003Z</time></trkpt><trkpt lat="45.958934321394054" lon="9.268940203087228"><ele>214.0</ele><time>2026-04-25T16:03:07.003Z</time></trkpt><trkpt lat="45.95884090992805" lon="9.26903431828992"><ele>219.0</ele><time>2026-04-25T16:03:08.003Z</time></trkpt><trkpt lat="45.958745719535045" lon="9.26913393237375"><ele>224.0</ele><time>2026-04-25T16:03:09.003Z</time></trkpt><trkpt lat="45.95865030687622" lon="9.269235246434462"><ele>229.0</ele><time>2026-04-25T16:03:10.003Z</time></trkpt><trkpt lat="45.95856126221441" lon="9.269330364222688"><ele>229.0</ele><time>2026-04-25T16:03:11.003Z</time></trkpt><trkpt lat="45.95846897489429" lon="9.26941135375595"><ele>229.0</ele><time>2026-04-25T16:03:12.003Z</time></trkpt><trkpt lat="45.95838199439481" lon="9.269526735390095"><ele>229.0</ele><time>2026-04-25T16:03:13.003Z</time></trkpt><trkpt lat="45.95827792653062" lon="9.269598484633683"><ele>229.0</ele><time>2026-04-25T16:03:14.003Z</time></trkpt><trkpt lat="45.958167946101234" lon="9.26964235470845"><ele>232.75</ele><time>2026-04-25T16:03:15.003Z</time></trkpt><trkpt lat="45.95806290308952" lon="9.26967464907421"><ele>236.5</ele><time>2026-04-25T16:03:16.003Z</time></trkpt><trkpt lat="45.957951354584424" lon="9.269698240263622"><ele>240.25</ele><time>2026-04-25T16:03:17.003Z</time></trkpt><trkpt lat="45.9578072681074" lon="9.269716568315287"><ele>244.0</ele><time>2026-04-25T16:03:18Z</time></trkpt><trkpt lat="45.95765499286536" lon="9.269733566467563"><ele>247.0</ele><time>2026-04-25T16:03:19Z</time></trkpt><trkpt lat="45.957520353986475" lon="9.269754768422635"><ele>250.0</ele><time>2026-04-25T16:03:20Z</time></trkpt><trkpt lat="45.95738600494385" lon="9.269793704691054"><ele>253.0</ele><time>2026-04-25T16:03:21Z</time></trkpt><trkpt lat="45.957269615578795" lon="9.26981678274877"><ele>256.0</ele><time>2026-04-25T16:03:22Z</time></trkpt><trkpt lat="45.957153239182176" lon="9.269840583893561"><ele>253.0</ele><time>2026-04-25T16:03:23Z</time></trkpt><trkpt lat="45.95703250184108" lon="9.269833058172011"><ele>250.00000000000003</ele><time>2026-04-25T16:03:24Z</time></trkpt><trkpt lat="45.95694936719466" lon="9.269823666108973"><ele>247.00000000000003</ele><time>2026-04-25T16:03:25Z</time></trkpt><trkpt lat="45.95685696236762" lon="9.269813569062299"><ele>244.0</ele><time>2026-04-25T16:03:26Z</time></trkpt><trkpt lat="45.95676355965382" lon="9.269834248466426"><ele>241.0</ele><time>2026-04-25T16:03:27Z</time></trkpt><trkpt lat="45.95667186171041" lon="9.269873312913095"><ele>241.0</ele><time>2026-04-25T16:03:28Z</time></trkpt><trkpt lat="45.956586081629496" lon="9.26993419052696"><ele>241.00000000000003</ele><time>2026-04-25T16:03:29Z</time></trkpt><trkpt lat="45.95651206904446" lon="9.27002900902807"><ele>241.00000000000003</ele><time>2026-04-25T16:03:30Z</time></trkpt><trkpt lat="45.956461670111025" lon="9.270137985363062"><ele>241.0</ele><time>2026-04-25T16:03:31Z</time></trkpt><trkpt lat="45.95641736023569" lon="9.270270769414081"><ele>241.0</ele><time>2026-04-25T16:03:32Z</time></trkpt><trkpt lat="45.95637437254433" lon="9.270400693546296"><ele>241.0</ele><time>2026-04-25T16:03:33Z</time></trkpt><trkpt lat="45.956315330420516" lon="9.270545997977875"><ele>241.0</ele><time>2026-04-25T16:03:34Z</time></trkpt><trkpt lat="45.956251236331006" lon="9.270673546299848"><ele>241.0</ele><time>2026-04-25T16:03:35Z</time></trkpt><trkpt lat="45.95616969178558" lon="9.270786668778694"><ele>241.0</ele><time>2026-04-25T16:03:36Z</time></trkpt><trkpt lat="45.95608744050447" lon="9.270892692075307"><ele>239.20000000000002</ele><time>2026-04-25T16:03:37Z</time></trkpt><trkpt lat="45.95600825582539" lon="9.27098604539112"><ele>237.40000000000003</ele><time>2026-04-25T16:03:38Z</time></trkpt><trkpt lat="45.955928767825505" lon="9.271084169454156"><ele>235.6</ele><time>2026-04-25T16:03:39.001Z</time></trkpt><trkpt lat="45.955855898382104" lon="9.271183452799448"><ele>233.8</ele><time>2026-04-25T16:03:40.001Z</time></trkpt><trkpt lat="45.95578425834068" lon="9.271279389306953"><ele>232.0</ele><time>2026-04-25T16:03:41.001Z</time></trkpt><trkpt lat="45.95572234340383" lon="9.271384943062946"><ele>229.8</ele><time>2026-04-25T16:03:42.001Z</time></trkpt><trkpt lat="45.955670157794145" lon="9.271506855092817"><ele>227.6</ele><time>2026-04-25T16:03:43.001Z</time></trkpt><trkpt lat="45.9556249472068" lon="9.271653806178884"><ele>225.40000000000003</ele><time>2026-04-25T16:03:44.001Z</time></trkpt><trkpt lat="45.95560379471327" lon="9.271824443508988"><ele>223.20000000000002</ele><time>2026-04-25T16:03:45.001Z</time></trkpt><trkpt lat="45.955598017979376" lon="9.271987653110612"><ele>221.0</ele><time>2026-04-25T16:03:46.001Z</time></trkpt><trkpt lat="45.95557821034486" lon="9.272161185605196"><ele>219.0</ele><time>2026-04-25T16:03:47.001Z</time></trkpt><trkpt lat="45.95554517002782" lon="9.272319113966988"><ele>217.0</ele><time>2026-04-25T16:03:48.001Z</time></trkpt><trkpt lat="45.955481800445085" lon="9.272491745196268"><ele>215.0</ele><time>2026-04-25T16:03:49.001Z</time></trkpt><trkpt lat="45.955403180218354" lon="9.272702877881475"><ele>213.0</ele><time>2026-04-25T16:03:50.001Z</time></trkpt><trkpt lat="45.95529231726805" lon="9.27290927069964"><ele>210.66666666666669</ele><time>2026-04-25T16:03:51.001Z</time></trkpt><trkpt lat="45.95519653989457" lon="9.273114606315186"><ele>208.33333333333334</ele><time>2026-04-25T16:03:52.001Z</time></trkpt><trkpt lat="45.95510717518307" lon="9.273313820176924"><ele>206.0</ele><time>2026-04-25T16:03:53.001Z</time></trkpt><trkpt lat="45.955019033974" lon="9.273526843637754"><ele>208.66666666666669</ele><time>2026-04-25T16:03:54.001Z</time></trkpt><trkpt lat="45.954924536482075" lon="9.273723781360182"><ele>211.33333333333331</ele><time>2026-04-25T16:03:55.001Z</time></trkpt><trkpt lat="45.954837026788354" lon="9.27390672998448"><ele>214.0</ele><time>2026-04-25T16:03:56.001Z</time></trkpt><trkpt lat="45.954746807853674" lon="9.274070839025693"><ele>214.0</ele><time>2026-04-25T16:03:57.001Z</time></trkpt><trkpt lat="45.95465796187394" lon="9.274222839055792"><ele>214.0</ele><time>2026-04-25T16:03:58.001Z</time></trkpt><trkpt lat="45.95456533323112" lon="9.274355593189835"><ele>214.0</ele><time>2026-04-25T16:03:59.001Z</time></trkpt><trkpt lat="45.95447246137846" lon="9.274481158133712"><ele>214.0</ele><time>2026-04-25T16:04:00.001Z</time></trkpt><trkpt lat="45.954378639043995" lon="9.274587702234983"><ele>214.0</ele><time>2026-04-25T16:04:01.001Z</time></trkpt><trkpt lat="45.95429376057494" lon="9.274687460056034"><ele>213.99999999999997</ele><time>2026-04-25T16:04:02.001Z</time></trkpt><trkpt lat="45.95420303441643" lon="9.274781176835496"><ele>213.99999999999997</ele><time>2026-04-25T16:04:03.001Z</time></trkpt><trkpt lat="45.95410925454246" lon="9.274851411539544"><ele>214.0</ele><time>2026-04-25T16:04:04.001Z</time></trkpt><trkpt lat="45.954001155283976" lon="9.27492584770472"><ele>214.0</ele><time>2026-04-25T16:04:05.001Z</time></trkpt><trkpt lat="45.953883829166294" lon="9.274995752168168"><ele>214.5</ele><time>2026-04-25T16:04:06.001Z</time></trkpt><trkpt lat="45.95376269860008" lon="9.275061125867747"><ele>215.0</ele><time>2026-04-25T16:04:07.001Z</time></trkpt><trkpt lat="45.95364279472591" lon="9.275126969957022"><ele>215.5</ele><time>2026-04-25T16:04:08.001Z</time></trkpt><trkpt lat="45.953515104258145" lon="9.275191085031329"><ele>216.0</ele><time>2026-04-25T16:04:09.001Z</time></trkpt><trkpt lat="45.953391163359" lon="9.275251143773307"><ele>217.25</ele><time>2026-04-25T16:04:10.001Z</time></trkpt><trkpt lat="45.953266230357364" lon="9.275316881309227"><ele>218.5</ele><time>2026-04-25T16:04:11.001Z</time></trkpt><trkpt lat="45.95314020978916" lon="9.275390249555066"><ele>219.75</ele><time>2026-04-25T16:04:12.001Z</time></trkpt><trkpt lat="45.953014602286636" lon="9.275449505922577"><ele>221.0</ele><time>2026-04-25T16:04:13.001Z</time></trkpt><trkpt lat="45.95289005894606" lon="9.275496994332292"><ele>221.0</ele><time>2026-04-25T16:04:14.001Z</time></trkpt><trkpt lat="45.95275612188937" lon="9.275522792692117"><ele>221.0</ele><time>2026-04-25T16:04:15.001Z</time></trkpt><trkpt lat="45.95261979564359" lon="9.275558537171559"><ele>221.0</ele><time>2026-04-25T16:04:16.001Z</time></trkpt><trkpt lat="45.952495992669455" lon="9.275626402514558"><ele>221.0</ele><time>2026-04-25T16:04:17.001Z</time></trkpt><trkpt lat="45.95237611024608" lon="9.275733190901605"><ele>217.33333333333334</ele><time>2026-04-25T16:04:18.002Z</time></trkpt><trkpt lat="45.952237635102094" lon="9.27581920386184"><ele>213.66666666666669</ele><time>2026-04-25T16:04:19.002Z</time></trkpt><trkpt lat="45.95204893708009" lon="9.2759419800597"><ele>210.0</ele><time>2026-04-25T16:04:20.002Z</time></trkpt><trkpt lat="45.951885208684544" lon="9.276048366533669"><ele>210.0</ele><time>2026-04-25T16:04:21.002Z</time></trkpt><trkpt lat="45.95172445775794" lon="9.276143336563663"><ele>210.0</ele><time>2026-04-25T16:04:22.002Z</time></trkpt><trkpt lat="45.95156438842216" lon="9.276231081953457"><ele>210.0</ele><time>2026-04-25T16:04:23.002Z</time></trkpt><trkpt lat="45.95141530351187" lon="9.276301537027885"><ele>210.25</ele><time>2026-04-25T16:04:24.002Z</time></trkpt><trkpt lat="45.95126810721542" lon="9.276363971863816"><ele>210.5</ele><time>2026-04-25T16:04:25.002Z</time></trkpt><trkpt lat="45.95113363860354" lon="9.276435231036663"><ele>210.75</ele><time>2026-04-25T16:04:26.002Z</time></trkpt><trkpt lat="45.951014422748706" lon="9.276512247736088"><ele>211.0</ele><time>2026-04-25T16:04:27.002Z</time></trkpt><trkpt lat="45.950895617249074" lon="9.276618023715777"><ele>213.75</ele><time>2026-04-25T16:04:28.002Z</time></trkpt><trkpt lat="45.9507748493273" lon="9.276727232993657"><ele>216.5</ele><time>2026-04-25T16:04:29.002Z</time></trkpt><trkpt lat="45.95065702179759" lon="9.27681100849795"><ele>219.25</ele><time>2026-04-25T16:04:30.002Z</time></trkpt><trkpt lat="45.95053591322972" lon="9.27687633251928"><ele>222.0</ele><time>2026-04-25T16:04:31.002Z</time></trkpt><trkpt lat="45.95041623966425" lon="9.276928573842172"><ele>222.0</ele><time>2026-04-25T16:04:32.002Z</time></trkpt><trkpt lat="45.950298291132356" lon="9.276965454585104"><ele>222.0</ele><time>2026-04-25T16:04:33.002Z</time></trkpt><trkpt lat="45.950173118552534" lon="9.276993660762471"><ele>222.0</ele><time>2026-04-25T16:04:34.002Z</time></trkpt><trkpt lat="45.95003675460066" lon="9.2770201906969"><ele>222.0</ele><time>2026-04-25T16:04:35.002Z</time></trkpt><trkpt lat="45.949902665883435" lon="9.277056033191338"><ele>217.75</ele><time>2026-04-25T16:04:36.002Z</time></trkpt><trkpt lat="45.94975835122276" lon="9.277089188260236"><ele>213.5</ele><time>2026-04-25T16:04:37.002Z</time></trkpt><trkpt lat="45.949620669573186" lon="9.277138291337172"><ele>209.25</ele><time>2026-04-25T16:04:38.002Z</time></trkpt><trkpt lat="45.94949548970854" lon="9.27720709398517"><ele>205.0</ele><time>2026-04-25T16:04:39.002Z</time></trkpt><trkpt lat="45.949381490352366" lon="9.277292221575518"><ele>205.0</ele><time>2026-04-25T16:04:40.002Z</time></trkpt><trkpt lat="45.9492603584407" lon="9.277386454711962"><ele>205.0</ele><time>2026-04-25T16:04:41.002Z</time></trkpt><trkpt lat="45.949137405363274" lon="9.277476735392433"><ele>205.0</ele><time>2026-04-25T16:04:42.002Z</time></trkpt><trkpt lat="45.94901955436704" lon="9.27753249899962"><ele>205.0</ele><time>2026-04-25T16:04:43.002Z</time></trkpt><trkpt lat="45.94890032277649" lon="9.2775594091698"><ele>208.75</ele><time>2026-04-25T16:04:44.002Z</time></trkpt><trkpt lat="45.94877638878016" lon="9.277578930146843"><ele>212.5</ele><time>2026-04-25T16:04:45.002Z</time></trkpt><trkpt lat="45.94864879255751" lon="9.27757707367188"><ele>216.25</ele><time>2026-04-25T16:04:46.002Z</time></trkpt><trkpt lat="45.94851099033227" lon="9.277563931692281"><ele>220.0</ele><time>2026-04-25T16:04:47.002Z</time></trkpt><trkpt lat="45.948381724134784" lon="9.277537355766917"><ele>223.0</ele><time>2026-04-25T16:04:48.002Z</time></trkpt><trkpt lat="45.94826455404303" lon="9.27753583828244"><ele>226.0</ele><time>2026-04-25T16:04:49.002Z</time></trkpt><trkpt lat="45.948156394808244" lon="9.2775437731797"><ele>229.0</ele><time>2026-04-25T16:04:50.002Z</time></trkpt><trkpt lat="45.948065945722504" lon="9.277641651754413"><ele>232.0</ele><time>2026-04-25T16:04:51.002Z</time></trkpt><trkpt lat="45.9479691511755" lon="9.277733104881639"><ele>232.0</ele><time>2026-04-25T16:04:52.002Z</time></trkpt><trkpt lat="45.94786138690328" lon="9.277794954055164"><ele>232.0</ele><time>2026-04-25T16:04:53.003Z</time></trkpt><trkpt lat="45.94775492218458" lon="9.277840214358571"><ele>232.0</ele><time>2026-04-25T16:04:54.003Z</time></trkpt><trkpt lat="45.947639438153324" lon="9.277864432980534"><ele>232.0</ele><time>2026-04-25T16:04:55.003Z</time></trkpt><trkpt lat="45.94750832649109" lon="9.277863859260167"><ele>238.0</ele><time>2026-04-25T16:04:56.003Z</time></trkpt><trkpt lat="45.94736094166385" lon="9.277845502095428"><ele>244.0</ele><time>2026-04-25T16:04:57.003Z</time></trkpt><trkpt lat="45.94721351293484" lon="9.277853337137579"><ele>250.0</ele><time>2026-04-25T16:04:58.003Z</time></trkpt><trkpt lat="45.94708558570102" lon="9.277861391163595"><ele>256.0</ele><time>2026-04-25T16:04:59.003Z</time></trkpt><trkpt lat="45.94697525147905" lon="9.277891311821495"><ele>256.0</ele><time>2026-04-25T16:05:00.003Z</time></trkpt><trkpt lat="45.94687314853514" lon="9.277963134944654"><ele>256.0</ele><time>2026-04-25T16:05:01.003Z</time></trkpt><trkpt lat="45.94678560571885" lon="9.278076038443613"><ele>256.0</ele><time>2026-04-25T16:05:02.003Z</time></trkpt><trkpt lat="45.94672018182999" lon="9.278191610174352"><ele>256.0</ele><time>2026-04-25T16:05:03.003Z</time></trkpt><trkpt lat="45.9466584130693" lon="9.278283358396155"><ele>256.0</ele><time>2026-04-25T16:05:04.003Z</time></trkpt><trkpt lat="45.946582429752475" lon="9.278339745129582"><ele>250.25</ele><time>2026-04-25T16:05:05.003Z</time></trkpt><trkpt lat="45.946486939098584" lon="9.278375731836364"><ele>244.5</ele><time>2026-04-25T16:05:06.003Z</time></trkpt><trkpt lat="45.946375196449885" lon="9.278406826835289"><ele>238.75</ele><time>2026-04-25T16:05:07.003Z</time></trkpt><trkpt lat="45.946261168910475" lon="9.278433256782932"><ele>233.0</ele><time>2026-04-25T16:05:08.003Z</time></trkpt><trkpt lat="45.94614457030284" lon="9.278484800366348"><ele>233.0</ele><time>2026-04-25T16:05:09.003Z</time></trkpt><trkpt lat="45.94602409838826" lon="9.278527493510763"><ele>233.0</ele><time>2026-04-25T16:05:10.003Z</time></trkpt><trkpt lat="45.945895918256575" lon="9.278552153232056"><ele>233.0</ele><time>2026-04-25T16:05:11.003Z</time></trkpt><trkpt lat="45.94577069933422" lon="9.278571288873689"><ele>233.0</ele><time>2026-04-25T16:05:12.003Z</time></trkpt><trkpt lat="45.94565450816953" lon="9.278599051511485"><ele>233.60000000000002</ele><time>2026-04-25T16:05:13.003Z</time></trkpt><trkpt lat="45.94554258329307" lon="9.278610705362697"><ele>234.20000000000002</ele><time>2026-04-25T16:05:14.003Z</time></trkpt><trkpt lat="45.94544022493539" lon="9.278673124811917"><ele>234.8</ele><time>2026-04-25T16:05:15.003Z</time></trkpt><trkpt lat="45.94534159680931" lon="9.278736888162388"><ele>235.4</ele><time>2026-04-25T16:05:16.003Z</time></trkpt><trkpt lat="45.94523783643423" lon="9.278790173044694"><ele>236.0</ele><time>2026-04-25T16:05:17.003Z</time></trkpt><trkpt lat="45.94513144619375" lon="9.278832823873865"><ele>238.5</ele><time>2026-04-25T16:05:18.003Z</time></trkpt><trkpt lat="45.945012515496465" lon="9.278859060998025"><ele>241.0</ele><time>2026-04-25T16:05:19.003Z</time></trkpt><trkpt lat="45.944875008127624" lon="9.278877518596985"><ele>243.5</ele><time>2026-04-25T16:05:20.003Z</time></trkpt><trkpt lat="45.944736120567285" lon="9.278896576912247"><ele>246.0</ele><time>2026-04-25T16:05:21.003Z</time></trkpt><trkpt lat="45.94459438376506" lon="9.278916069389613"><ele>246.0</ele><time>2026-04-25T16:05:22.003Z</time></trkpt><trkpt lat="45.94445940499482" lon="9.278935002139002"><ele>246.00000000000003</ele><time>2026-04-25T16:05:23.003Z</time></trkpt><trkpt lat="45.944337131046716" lon="9.278955837446563"><ele>246.00000000000003</ele><time>2026-04-25T16:05:24.001Z</time></trkpt><trkpt lat="45.94423801877364" lon="9.278968278952783"><ele>246.0</ele><time>2026-04-25T16:05:25.001Z</time></trkpt><trkpt lat="45.944154509995705" lon="9.278976630934535"><ele>246.0</ele><time>2026-04-25T16:05:26.001Z</time></trkpt><trkpt lat="45.94407730522396" lon="9.278974691910067"><ele>246.0</ele><time>2026-04-25T16:05:27.001Z</time></trkpt><trkpt lat="45.943992737233536" lon="9.278989502910461"><ele>246.0</ele><time>2026-04-25T16:05:28.001Z</time></trkpt><trkpt lat="45.943917792707275" lon="9.279002591611963"><ele>246.0</ele><time>2026-04-25T16:05:29.001Z</time></trkpt><trkpt lat="45.9438314889807" lon="9.279031333663148"><ele>246.0</ele><time>2026-04-25T16:05:30.001Z</time></trkpt><trkpt lat="45.94375270556455" lon="9.279083076204994"><ele>246.0</ele><time>2026-04-25T16:05:31.001Z</time></trkpt><trkpt lat="45.94367659950642" lon="9.279147375814455"><ele>246.0</ele><time>2026-04-25T16:05:32.001Z</time></trkpt><trkpt lat="45.94360168790758" lon="9.279218200761779"><ele>244.5</ele><time>2026-04-25T16:05:33.001Z</time></trkpt><trkpt lat="45.94350128275143" lon="9.279293351953827"><ele>243.0</ele><time>2026-04-25T16:05:34.001Z</time></trkpt><trkpt lat="45.9433852806656" lon="9.279403225009277"><ele>241.5</ele><time>2026-04-25T16:05:35.001Z</time></trkpt><trkpt lat="45.9432655685767" lon="9.279536359586125"><ele>240.0</ele><time>2026-04-25T16:05:36.001Z</time></trkpt><trkpt lat="45.943168099409164" lon="9.279684701136787"><ele>233.5</ele><time>2026-04-25T16:05:37.001Z</time></trkpt><trkpt lat="45.94309661764783" lon="9.279839861429313"><ele>227.0</ele><time>2026-04-25T16:05:38.001Z</time></trkpt><trkpt lat="45.94301947257989" lon="9.279967116845848"><ele>220.5</ele><time>2026-04-25T16:05:39.001Z</time></trkpt><trkpt lat="45.942939305182904" lon="9.28007334920685"><ele>214.0</ele><time>2026-04-25T16:05:40.001Z</time></trkpt><trkpt lat="45.94284794936461" lon="9.28015813367203"><ele>214.0</ele><time>2026-04-25T16:05:41.001Z</time></trkpt><trkpt lat="45.94274010308893" lon="9.280215497232264"><ele>214.0</ele><time>2026-04-25T16:05:42.001Z</time></trkpt><trkpt lat="45.942621506973374" lon="9.280231363211103"><ele>214.0</ele><time>2026-04-25T16:05:43.001Z</time></trkpt><trkpt lat="45.94251449389834" lon="9.280288672870173"><ele>214.0</ele><time>2026-04-25T16:05:44.001Z</time></trkpt><trkpt lat="45.94240058767226" lon="9.280356535679745"><ele>213.25</ele><time>2026-04-25T16:05:45.001Z</time></trkpt><trkpt lat="45.94228847889392" lon="9.280437861323586"><ele>212.5</ele><time>2026-04-25T16:05:46.001Z</time></trkpt><trkpt lat="45.94218236565051" lon="9.280527891746228"><ele>211.75</ele><time>2026-04-25T16:05:47.001Z</time></trkpt><trkpt lat="45.94206160522377" lon="9.280624480274206"><ele>211.0</ele><time>2026-04-25T16:05:48.001Z</time></trkpt><trkpt lat="45.94194909871729" lon="9.280738760872252"><ele>211.0</ele><time>2026-04-25T16:05:49.001Z</time></trkpt><trkpt lat="45.94183284759139" lon="9.280847129635822"><ele>211.0</ele><time>2026-04-25T16:05:50.001Z</time></trkpt><trkpt lat="45.94172689253376" lon="9.28094637366582"><ele>211.0</ele><time>2026-04-25T16:05:51.001Z</time></trkpt><trkpt lat="45.941625117063616" lon="9.281030055395103"><ele>211.0</ele><time>2026-04-25T16:05:52.001Z</time></trkpt><trkpt lat="45.94153551058737" lon="9.28111936862756"><ele>209.4</ele><time>2026-04-25T16:05:53.001Z</time></trkpt><trkpt lat="45.94144996842637" lon="9.281194563659664"><ele>207.8</ele><time>2026-04-25T16:05:54.001Z</time></trkpt><trkpt lat="45.94136806793037" lon="9.281266520968638"><ele>206.20000000000002</ele><time>2026-04-25T16:05:55.001Z</time></trkpt><trkpt lat="45.941282924559445" lon="9.281349754045932"><ele>204.60000000000002</ele><time>2026-04-25T16:05:56.001Z</time></trkpt><trkpt lat="45.9412011707349" lon="9.281424515128288"><ele>203.0</ele><time>2026-04-25T16:05:57.001Z</time></trkpt><trkpt lat="45.9411320132103" lon="9.281490591120226"><ele>203.00000000000003</ele><time>2026-04-25T16:05:58.001Z</time></trkpt><trkpt lat="45.941063228439646" lon="9.281556511496353"><ele>203.0</ele><time>2026-04-25T16:05:59.001Z</time></trkpt><trkpt lat="45.940992345400446" lon="9.281626983501555"><ele>203.0</ele><time>2026-04-25T16:06:00.001Z</time></trkpt><trkpt lat="45.94092408961524" lon="9.281703809938918"><ele>203.0</ele><time>2026-04-25T16:06:01.001Z</time></trkpt><trkpt lat="45.94087138927606" lon="9.281778278812498"><ele>203.00000000000003</ele><time>2026-04-25T16:06:02.001Z</time></trkpt><trkpt lat="45.94079955614751" lon="9.281824891923987"><ele>203.0</ele><time>2026-04-25T16:06:03.001Z</time></trkpt><trkpt lat="45.940733941652155" lon="9.281865534606904"><ele>208.00000000000003</ele><time>2026-04-25T16:06:04.001Z</time></trkpt><trkpt lat="45.940651474501735" lon="9.281912945238977"><ele>213.0</ele><time>2026-04-25T16:06:05.001Z</time></trkpt><trkpt lat="45.94057878562857" lon="9.281952828017783"><ele>218.0</ele><time>2026-04-25T16:06:06.001Z</time></trkpt><trkpt lat="45.940502555523864" lon="9.281994449149648"><ele>223.0</ele><time>2026-04-25T16:06:07.001Z</time></trkpt><trkpt lat="45.9404392765858" lon="9.282032202980927"><ele>228.00000000000003</ele><time>2026-04-25T16:06:08.001Z</time></trkpt><trkpt lat="45.940373178307176" lon="9.282064854402526"><ele>233.0</ele><time>2026-04-25T16:06:09.001Z</time></trkpt><trkpt lat="45.940306894947526" lon="9.282103025369642"><ele>233.0</ele><time>2026-04-25T16:06:10.001Z</time></trkpt><trkpt lat="45.940213862258304" lon="9.2821339448474"><ele>233.0</ele><time>2026-04-25T16:06:11.001Z</time></trkpt><trkpt lat="45.94010577343402" lon="9.282129287643478"><ele>233.0</ele><time>2026-04-25T16:06:12.001Z</time></trkpt><trkpt lat="45.94001032267498" lon="9.282152987888969"><ele>233.0</ele><time>2026-04-25T16:06:13.001Z</time></trkpt><trkpt lat="45.939915182893984" lon="9.282143628496442"><ele>233.0</ele><time>2026-04-25T16:06:14.001Z</time></trkpt><trkpt lat="45.93982749934784" lon="9.28215552221393"><ele>234.00000000000003</ele><time>2026-04-25T16:06:15.002Z</time></trkpt><trkpt lat="45.939736334280454" lon="9.282166320388491"><ele>235.0</ele><time>2026-04-25T16:06:16.002Z</time></trkpt><trkpt lat="45.939643669084774" lon="9.282171959238756"><ele>236.0</ele><time>2026-04-25T16:06:17.002Z</time></trkpt><trkpt lat="45.93955423575816" lon="9.282172485337522"><ele>237.0</ele><time>2026-04-25T16:06:18.002Z</time></trkpt><trkpt lat="45.93947340298882" lon="9.282173781232013"><ele>238.00000000000003</ele><time>2026-04-25T16:06:19.002Z</time></trkpt><trkpt lat="45.939404187304795" lon="9.282175254005528"><ele>239.0</ele><time>2026-04-25T16:06:20.002Z</time></trkpt><trkpt lat="45.93928559490476" lon="9.282186114073621"><ele>247.16666666666669</ele><time>2026-04-25T16:06:22.002Z</time></trkpt><trkpt lat="45.939207192160815" lon="9.282191862493839"><ele>255.33333333333334</ele><time>2026-04-25T16:06:24.002Z</time></trkpt><trkpt lat="45.939129642896134" lon="9.282215849638044"><ele>263.5</ele><time>2026-04-25T16:06:26.002Z</time></trkpt><trkpt lat="45.939025456174285" lon="9.282226333530696"><ele>271.6666666666667</ele><time>2026-04-25T16:06:28.002Z</time></trkpt><trkpt lat="45.93894371810339" lon="9.282208243618506"><ele>279.8333333333333</ele><time>2026-04-25T16:06:29.002Z</time></trkpt><trkpt lat="45.93885369443738" lon="9.282188241370234"><ele>288.0</ele><time>2026-04-25T16:06:30.002Z</time></trkpt><trkpt lat="45.938755111911156" lon="9.282164738774505"><ele>288.0</ele><time>2026-04-25T16:06:31.002Z</time></trkpt><trkpt lat="45.938652668383796" lon="9.282181734800503"><ele>288.0</ele><time>2026-04-25T16:06:32.002Z</time></trkpt><trkpt lat="45.93856394953061" lon="9.282178487741401"><ele>288.0</ele><time>2026-04-25T16:06:33.002Z</time></trkpt><trkpt lat="45.938470984089626" lon="9.282216333062873"><ele>288.0</ele><time>2026-04-25T16:06:34.002Z</time></trkpt><trkpt lat="45.93839228992573" lon="9.282268860312627"><ele>288.0</ele><time>2026-04-25T16:06:35.002Z</time></trkpt><trkpt lat="45.938314969634604" lon="9.282326132359705"><ele>274.4</ele><time>2026-04-25T16:06:36.002Z</time></trkpt><trkpt lat="45.938246837458166" lon="9.282397064245597"><ele>260.8</ele><time>2026-04-25T16:06:37.002Z</time></trkpt><trkpt lat="45.93817290626784" lon="9.282424968160361"><ele>247.2</ele><time>2026-04-25T16:06:38.002Z</time></trkpt><trkpt lat="45.938081992657004" lon="9.282403409042098"><ele>233.6</ele><time>2026-04-25T16:06:39.002Z</time></trkpt><trkpt lat="45.93797330065649" lon="9.282406607895762"><ele>220.0</ele><time>2026-04-25T16:06:40.002Z</time></trkpt><trkpt lat="45.937854741451055" lon="9.282369792360363"><ele>220.0</ele><time>2026-04-25T16:06:41.002Z</time></trkpt><trkpt lat="45.937719800505036" lon="9.282346482715207"><ele>220.0</ele><time>2026-04-25T16:06:42.002Z</time></trkpt><trkpt lat="45.93758333587329" lon="9.282309864384994"><ele>220.0</ele><time>2026-04-25T16:06:43.002Z</time></trkpt><trkpt lat="45.937437254813176" lon="9.282278839352827"><ele>220.0</ele><time>2026-04-25T16:06:44.002Z</time></trkpt><trkpt lat="45.93730193818176" lon="9.282267192440566"><ele>221.5</ele><time>2026-04-25T16:06:45.002Z</time></trkpt><trkpt lat="45.93716169912247" lon="9.282261466026513"><ele>223.0</ele><time>2026-04-25T16:06:46.002Z</time></trkpt><trkpt lat="45.93702751616424" lon="9.282265146043814"><ele>224.5</ele><time>2026-04-25T16:06:47.002Z</time></trkpt><trkpt lat="45.936900452709516" lon="9.282269633779707"><ele>226.0</ele><time>2026-04-25T16:06:48.002Z</time></trkpt><trkpt lat="45.93677897101347" lon="9.282275060224013"><ele>223.60000000000002</ele><time>2026-04-25T16:06:49.002Z</time></trkpt><trkpt lat="45.936665139974686" lon="9.282291621846305"><ele>221.20000000000002</ele><time>2026-04-25T16:06:50.002Z</time></trkpt><trkpt lat="45.93656980413648" lon="9.282292973541159"><ele>218.79999999999998</ele><time>2026-04-25T16:06:51.002Z</time></trkpt><trkpt lat="45.93646266517608" lon="9.282320346282196"><ele>216.39999999999998</ele><time>2026-04-25T16:06:52.002Z</time></trkpt><trkpt lat="45.93635679886176" lon="9.282341302049106"><ele>214.0</ele><time>2026-04-25T16:06:53.002Z</time></trkpt><trkpt lat="45.936254006578174" lon="9.282390068584638"><ele>214.0</ele><time>2026-04-25T16:06:54.002Z</time></trkpt><trkpt lat="45.93615388821475" lon="9.282426853630268"><ele>214.0</ele><time>2026-04-25T16:06:55.003Z</time></trkpt><trkpt lat="45.93604204931415" lon="9.282448377978316"><ele>214.0</ele><time>2026-04-25T16:06:56.003Z</time></trkpt><trkpt lat="45.935921406556254" lon="9.282438206188612"><ele>214.0</ele><time>2026-04-25T16:06:57.003Z</time></trkpt><trkpt lat="45.935798956705014" lon="9.28240799362867"><ele>212.5</ele><time>2026-04-25T16:06:58.003Z</time></trkpt><trkpt lat="45.93566995376441" lon="9.28238622654561"><ele>211.0</ele><time>2026-04-25T16:06:59.003Z</time></trkpt><trkpt lat="45.93553042171546" lon="9.282389607584506"><ele>209.5</ele><time>2026-04-25T16:07:00.003Z</time></trkpt><trkpt lat="45.93538145911802" lon="9.282408159583616"><ele>208.0</ele><time>2026-04-25T16:07:01.003Z</time></trkpt><trkpt lat="45.935223429235876" lon="9.282448765812997"><ele>208.0</ele><time>2026-04-25T16:07:02.003Z</time></trkpt><trkpt lat="45.935066450743584" lon="9.282492444721811"><ele>208.0</ele><time>2026-04-25T16:07:03.003Z</time></trkpt><trkpt lat="45.93492336519744" lon="9.282531738388496"><ele>208.0</ele><time>2026-04-25T16:07:04.003Z</time></trkpt><trkpt lat="45.934786467069145" lon="9.282576477397418"><ele>208.0</ele><time>2026-04-25T16:07:05.003Z</time></trkpt><trkpt lat="45.93465386320841" lon="9.282636510017046"><ele>209.0</ele><time>2026-04-25T16:07:06.003Z</time></trkpt><trkpt lat="45.934523001647655" lon="9.282712408667937"><ele>210.0</ele><time>2026-04-25T16:07:07.003Z</time></trkpt><trkpt lat="45.93440139318444" lon="9.28280162189252"><ele>211.0</ele><time>2026-04-25T16:07:08.003Z</time></trkpt><trkpt lat="45.93429774062833" lon="9.282896798979085"><ele>212.0</ele><time>2026-04-25T16:07:09.003Z</time></trkpt><trkpt lat="45.93420383683251" lon="9.28299303093271"><ele>212.0</ele><time>2026-04-25T16:07:10.003Z</time></trkpt><trkpt lat="45.9341070021505" lon="9.283083911232676"><ele>212.0</ele><time>2026-04-25T16:07:11.003Z</time></trkpt><trkpt lat="45.93401745514471" lon="9.283179550306754"><ele>212.0</ele><time>2026-04-25T16:07:12.003Z</time></trkpt><trkpt lat="45.93392538859658" lon="9.283282606347408"><ele>212.0</ele><time>2026-04-25T16:07:13.003Z</time></trkpt><trkpt lat="45.933839915458634" lon="9.283387263841822"><ele>210.0</ele><time>2026-04-25T16:07:14.003Z</time></trkpt><trkpt lat="45.933750023719135" lon="9.283484063019364"><ele>208.0</ele><time>2026-04-25T16:07:15.003Z</time></trkpt><trkpt lat="45.93365279287244" lon="9.283568479977346"><ele>206.0</ele><time>2026-04-25T16:07:16.003Z</time></trkpt><trkpt lat="45.93353605731374" lon="9.283632492464344"><ele>204.0</ele><time>2026-04-25T16:07:17.003Z</time></trkpt><trkpt lat="45.93341359331044" lon="9.28366798757104"><ele>206.0</ele><time>2026-04-25T16:07:18.003Z</time></trkpt><trkpt lat="45.93328080796682" lon="9.283689759000206"><ele>208.0</ele><time>2026-04-25T16:07:19.003Z</time></trkpt><trkpt lat="45.933148476132004" lon="9.283716795619346"><ele>210.0</ele><time>2026-04-25T16:07:20.003Z</time></trkpt><trkpt lat="45.93301851770272" lon="9.283745575307584"><ele>212.0</ele><time>2026-04-25T16:07:21.003Z</time></trkpt><trkpt lat="45.93289408029846" lon="9.283765997078582"><ele>212.0</ele><time>2026-04-25T16:07:22.003Z</time></trkpt><trkpt lat="45.93278483339038" lon="9.283785161037839"><ele>212.0</ele><time>2026-04-25T16:07:23.003Z</time></trkpt><trkpt lat="45.932668230420475" lon="9.28379970856107"><ele>212.0</ele><time>2026-04-25T16:07:24.003Z</time></trkpt><trkpt lat="45.93255223586981" lon="9.283814144530593"><ele>212.0</ele><time>2026-04-25T16:07:25.003Z</time></trkpt><trkpt lat="45.93243837781751" lon="9.283823896995639"><ele>213.5</ele><time>2026-04-25T16:07:26.003Z</time></trkpt><trkpt lat="45.93232561566104" lon="9.283812575118725"><ele>215.0</ele><time>2026-04-25T16:07:27.003Z</time></trkpt><trkpt lat="45.93221274882125" lon="9.283793843414095"><ele>216.5</ele><time>2026-04-25T16:07:28.003Z</time></trkpt><trkpt lat="45.93209971671473" lon="9.28376128894528"><ele>218.0</ele><time>2026-04-25T16:07:29.003Z</time></trkpt><trkpt lat="45.93199367649849" lon="9.283734466426264"><ele>218.0</ele><time>2026-04-25T16:07:30.002Z</time></trkpt><trkpt lat="45.9318937759184" lon="9.283709552899994"><ele>218.0</ele><time>2026-04-25T16:07:31.002Z</time></trkpt><trkpt lat="45.93179000634243" lon="9.283681852516455"><ele>218.0</ele><time>2026-04-25T16:07:32.002Z</time></trkpt><trkpt lat="45.931685523929325" lon="9.283668179235848"><ele>218.0</ele><time>2026-04-25T16:07:33.002Z</time></trkpt><trkpt lat="45.93158162588756" lon="9.283672190077507"><ele>218.0</ele><time>2026-04-25T16:07:34.002Z</time></trkpt><trkpt lat="45.93148228141916" lon="9.28369365555239"><ele>218.60000000000002</ele><time>2026-04-25T16:07:35.002Z</time></trkpt><trkpt lat="45.93138701451147" lon="9.283721910460933"><ele>219.20000000000002</ele><time>2026-04-25T16:07:36.002Z</time></trkpt><trkpt lat="45.93128924421817" lon="9.283755316791149"><ele>219.8</ele><time>2026-04-25T16:07:37.002Z</time></trkpt><trkpt lat="45.93119782643727" lon="9.283793908688912"><ele>220.4</ele><time>2026-04-25T16:07:38.002Z</time></trkpt><trkpt lat="45.9311068920603" lon="9.283829607000857"><ele>221.0</ele><time>2026-04-25T16:07:39.001Z</time></trkpt><trkpt lat="45.93101471086876" lon="9.283866314942061"><ele>221.0</ele><time>2026-04-25T16:07:40.001Z</time></trkpt><trkpt lat="45.930904391904285" lon="9.283917798256201"><ele>221.0</ele><time>2026-04-25T16:07:41.001Z</time></trkpt><trkpt lat="45.930785768239346" lon="9.283991886697462"><ele>221.0</ele><time>2026-04-25T16:07:42.001Z</time></trkpt><trkpt lat="45.93067499510675" lon="9.28405402711262"><ele>221.0</ele><time>2026-04-25T16:07:43.001Z</time></trkpt><trkpt lat="45.930578347414674" lon="9.284129550911096"><ele>218.75</ele><time>2026-04-25T16:07:44.001Z</time></trkpt><trkpt lat="45.930479050778814" lon="9.284226384438808"><ele>216.5</ele><time>2026-04-25T16:07:45.001Z</time></trkpt><trkpt lat="45.9303686559328" lon="9.284307014076886"><ele>214.25</ele><time>2026-04-25T16:07:46.001Z</time></trkpt><trkpt lat="45.9302530588313" lon="9.284381557355879"><ele>212.0</ele><time>2026-04-25T16:07:47.001Z</time></trkpt><trkpt lat="45.93012865172007" lon="9.284449726447525"><ele>212.25</ele><time>2026-04-25T16:07:48.001Z</time></trkpt><trkpt lat="45.929994183798215" lon="9.28450304710723"><ele>212.5</ele><time>2026-04-25T16:07:49.001Z</time></trkpt><trkpt lat="45.92985263108206" lon="9.284535909423653"><ele>212.75</ele><time>2026-04-25T16:07:50.001Z</time></trkpt><trkpt lat="45.92970566405323" lon="9.284548391479042"><ele>213.0</ele><time>2026-04-25T16:07:51.001Z</time></trkpt><trkpt lat="45.92955674538188" lon="9.284560348102646"><ele>213.0</ele><time>2026-04-25T16:07:52.001Z</time></trkpt><trkpt lat="45.92941517141306" lon="9.284572058912001"><ele>213.0</ele><time>2026-04-25T16:07:53.001Z</time></trkpt><trkpt lat="45.92927573676338" lon="9.284580828572293"><ele>213.0</ele><time>2026-04-25T16:07:54.001Z</time></trkpt><trkpt lat="45.92913238349302" lon="9.284592538144146"><ele>213.0</ele><time>2026-04-25T16:07:55.001Z</time></trkpt><trkpt lat="45.92899279976905" lon="9.284607573642194"><ele>213.66666666666669</ele><time>2026-04-25T16:07:56.001Z</time></trkpt><trkpt lat="45.92884751017793" lon="9.284640442081802"><ele>214.33333333333334</ele><time>2026-04-25T16:07:57.001Z</time></trkpt><trkpt lat="45.92870323080571" lon="9.284691513647836"><ele>215.0</ele><time>2026-04-25T16:07:58.001Z</time></trkpt><trkpt lat="45.928557333625314" lon="9.284784451002377"><ele>213.66666666666669</ele><time>2026-04-25T16:07:59.001Z</time></trkpt><trkpt lat="45.92843520317409" lon="9.284917914309395"><ele>212.33333333333331</ele><time>2026-04-25T16:08:00.001Z</time></trkpt><trkpt lat="45.92830504691069" lon="9.285035484361947"><ele>211.0</ele><time>2026-04-25T16:08:01.001Z</time></trkpt><trkpt lat="45.928177409927514" lon="9.285138510287352"><ele>211.0</ele><time>2026-04-25T16:08:02.001Z</time></trkpt><trkpt lat="45.92804577944112" lon="9.285219602579916"><ele>211.0</ele><time>2026-04-25T16:08:03.001Z</time></trkpt><trkpt lat="45.92792024509871" lon="9.285286751302353"><ele>211.0</ele><time>2026-04-25T16:08:04.001Z</time></trkpt><trkpt lat="45.92779954206204" lon="9.285333945955504"><ele>211.0</ele><time>2026-04-25T16:08:05.001Z</time></trkpt><trkpt lat="45.927672508701875" lon="9.2853670354695"><ele>212.0</ele><time>2026-04-25T16:08:06.001Z</time></trkpt><trkpt lat="45.92754835812099" lon="9.285388949060055"><ele>213.0</ele><time>2026-04-25T16:08:07.001Z</time></trkpt><trkpt lat="45.92743181491217" lon="9.285412425906765"><ele>214.0</ele><time>2026-04-25T16:08:08.001Z</time></trkpt><trkpt lat="45.92731025703577" lon="9.285407305497296"><ele>215.0</ele><time>2026-04-25T16:08:09.001Z</time></trkpt><trkpt lat="45.92717822347171" lon="9.28538319647997"><ele>215.0</ele><time>2026-04-25T16:08:10.001Z</time></trkpt><trkpt lat="45.92704720683238" lon="9.285368451567722"><ele>215.0</ele><time>2026-04-25T16:08:11.001Z</time></trkpt><trkpt lat="45.92691860798315" lon="9.28534525393985"><ele>215.0</ele><time>2026-04-25T16:08:12.001Z</time></trkpt><trkpt lat="45.926782038397405" lon="9.285326505982013"><ele>215.0</ele><time>2026-04-25T16:08:13.001Z</time></trkpt><trkpt lat="45.92664721734654" lon="9.285308232793215"><ele>214.0</ele><time>2026-04-25T16:08:14.001Z</time></trkpt><trkpt lat="45.92651164915784" lon="9.285288581457905"><ele>213.0</ele><time>2026-04-25T16:08:15.001Z</time></trkpt><trkpt lat="45.92638661065204" lon="9.285261840966555"><ele>212.0</ele><time>2026-04-25T16:08:16.001Z</time></trkpt><trkpt lat="45.92626343770482" lon="9.28523479429288"><ele>211.0</ele><time>2026-04-25T16:08:17.001Z</time></trkpt><trkpt lat="45.926134749521154" lon="9.285213554589488"><ele>211.0</ele><time>2026-04-25T16:08:18.001Z</time></trkpt><trkpt lat="45.92600474614275" lon="9.28518949684036"><ele>211.0</ele><time>2026-04-25T16:08:19.001Z</time></trkpt><trkpt lat="45.925877841824416" lon="9.28517589189682"><ele>211.0</ele><time>2026-04-25T16:08:20.001Z</time></trkpt><trkpt lat="45.92575110795189" lon="9.285193509413423"><ele>211.0</ele><time>2026-04-25T16:08:21.002Z</time></trkpt><trkpt lat="45.925622833724205" lon="9.28524171136431"><ele>212.25</ele><time>2026-04-25T16:08:22.002Z</time></trkpt><trkpt lat="45.92549814147433" lon="9.28529847827392"><ele>213.5</ele><time>2026-04-25T16:08:23.002Z</time></trkpt><trkpt lat="45.925379627647246" lon="9.285356480211814"><ele>214.75</ele><time>2026-04-25T16:08:24.002Z</time></trkpt><trkpt lat="45.92527289002977" lon="9.285434750737991"><ele>216.0</ele><time>2026-04-25T16:08:25.002Z</time></trkpt><trkpt lat="45.925174071445404" lon="9.285535820142975"><ele>214.75</ele><time>2026-04-25T16:08:26.002Z</time></trkpt><trkpt lat="45.9250897415068" lon="9.285661514670135"><ele>213.5</ele><time>2026-04-25T16:08:27.002Z</time></trkpt><trkpt lat="45.92500219800949" lon="9.285773015238448"><ele>212.25</ele><time>2026-04-25T16:08:28.002Z</time></trkpt><trkpt lat="45.924908929489774" lon="9.285869908293217"><ele>211.0</ele><time>2026-04-25T16:08:29.002Z</time></trkpt><trkpt lat="45.924794046276276" lon="9.285950878754123"><ele>211.0</ele><time>2026-04-25T16:08:30.002Z</time></trkpt><trkpt lat="45.92467474200264" lon="9.286034261424291"><ele>211.0</ele><time>2026-04-25T16:08:31.002Z</time></trkpt><trkpt lat="45.92453526188948" lon="9.286127640455776"><ele>211.0</ele><time>2026-04-25T16:08:32.002Z</time></trkpt><trkpt lat="45.92439121518198" lon="9.28622348278727"><ele>211.0</ele><time>2026-04-25T16:08:33.002Z</time></trkpt><trkpt lat="45.92426093853219" lon="9.286314903536036"><ele>210.0</ele><time>2026-04-25T16:08:34.002Z</time></trkpt><trkpt lat="45.924135643718415" lon="9.286398693819928"><ele>209.0</ele><time>2026-04-25T16:08:35.002Z</time></trkpt><trkpt lat="45.92401051297658" lon="9.286480792553185"><ele>208.0</ele><time>2026-04-25T16:08:36.002Z</time></trkpt><trkpt lat="45.92389356390593" lon="9.286561810989923"><ele>207.0</ele><time>2026-04-25T16:08:37.002Z</time></trkpt><trkpt lat="45.923790809540996" lon="9.286630786724322"><ele>207.0</ele><time>2026-04-25T16:08:38.002Z</time></trkpt><trkpt lat="45.92370108323387" lon="9.2867132707689"><ele>207.0</ele><time>2026-04-25T16:08:39.002Z</time></trkpt><trkpt lat="45.92362070900731" lon="9.286798233579567"><ele>207.0</ele><time>2026-04-25T16:08:40.002Z</time></trkpt><trkpt lat="45.92354139745221" lon="9.286889968586454"><ele>207.0</ele><time>2026-04-25T16:08:41.002Z</time></trkpt><trkpt lat="45.92346672373237" lon="9.286969648192688"><ele>207.0</ele><time>2026-04-25T16:08:42.002Z</time></trkpt><trkpt lat="45.923390938677265" lon="9.287046520982722"><ele>207.6</ele><time>2026-04-25T16:08:43.002Z</time></trkpt><trkpt lat="45.92331022787709" lon="9.287131668230609"><ele>208.2</ele><time>2026-04-25T16:08:44.002Z</time></trkpt><trkpt lat="45.92322922689198" lon="9.287212520156963"><ele>208.8</ele><time>2026-04-25T16:08:45.002Z</time></trkpt><trkpt lat="45.923148984429716" lon="9.28728618512396"><ele>209.4</ele><time>2026-04-25T16:08:46.002Z</time></trkpt><trkpt lat="45.92306996899782" lon="9.28735686452218"><ele>210.0</ele><time>2026-04-25T16:08:47.002Z</time></trkpt><trkpt lat="45.92299410516041" lon="9.28741072533656"><ele>210.0</ele><time>2026-04-25T16:08:48.002Z</time></trkpt><trkpt lat="45.92291046730706" lon="9.287457795618606"><ele>210.0</ele><time>2026-04-25T16:08:49.002Z</time></trkpt><trkpt lat="45.922818877849295" lon="9.28751532994061"><ele>210.0</ele><time>2026-04-25T16:08:50.002Z</time></trkpt><trkpt lat="45.92272523033461" lon="9.287555823353426"><ele>210.0</ele><time>2026-04-25T16:08:51.002Z</time></trkpt><trkpt lat="45.922632922381105" lon="9.28756792627693"><ele>210.0</ele><time>2026-04-25T16:08:52.002Z</time></trkpt><trkpt lat="45.92252999827123" lon="9.287569967751514"><ele>213.75</ele><time>2026-04-25T16:08:53.002Z</time></trkpt><trkpt lat="45.922414936031515" lon="9.287556155224792"><ele>217.5</ele><time>2026-04-25T16:08:54.002Z</time></trkpt><trkpt lat="45.9222964572509" lon="9.287555863162218"><ele>221.25</ele><time>2026-04-25T16:08:55.002Z</time></trkpt><trkpt lat="45.92218254689011" lon="9.287579565623124"><ele>225.0</ele><time>2026-04-25T16:08:56.002Z</time></trkpt><trkpt lat="45.9220584270728" lon="9.287586175779284"><ele>225.0</ele><time>2026-04-25T16:08:57.002Z</time></trkpt><trkpt lat="45.92194575039687" lon="9.287624936037949"><ele>225.0</ele><time>2026-04-25T16:08:58.002Z</time></trkpt><trkpt lat="45.92182739005972" lon="9.28767236950059"><ele>225.0</ele><time>2026-04-25T16:08:59.002Z</time></trkpt><trkpt lat="45.92172498223017" lon="9.287716443338196"><ele>225.0</ele><time>2026-04-25T16:09:00.002Z</time></trkpt><trkpt lat="45.921630936397975" lon="9.287756918314473"><ele>225.0</ele><time>2026-04-25T16:09:01.002Z</time></trkpt><trkpt lat="45.92153427870914" lon="9.287800186273476"><ele>227.25</ele><time>2026-04-25T16:09:02.002Z</time></trkpt><trkpt lat="45.92144321001601" lon="9.287867689695082"><ele>229.5</ele><time>2026-04-25T16:09:03.002Z</time></trkpt><trkpt lat="45.921339444068636" lon="9.28791750877794"><ele>231.75</ele><time>2026-04-25T16:09:04.002Z</time></trkpt><trkpt lat="45.92123188965054" lon="9.287999574291645"><ele>234.0</ele><time>2026-04-25T16:09:05.002Z</time></trkpt><trkpt lat="45.921084118480415" lon="9.2881049739511"><ele>228.33333333333331</ele><time>2026-04-25T16:09:06.002Z</time></trkpt><trkpt lat="45.92092708810952" lon="9.288251864786348"><ele>222.66666666666666</ele><time>2026-04-25T16:09:07.002Z</time></trkpt><trkpt lat="45.92074817522843" lon="9.288419641927936"><ele>217.0</ele><time>2026-04-25T16:09:08.002Z</time></trkpt><trkpt lat="45.92057733867509" lon="9.288595630301065"><ele>217.0</ele><time>2026-04-25T16:09:09.003Z</time></trkpt><trkpt lat="45.92041580050815" lon="9.28874255187724"><ele>217.0</ele><time>2026-04-25T16:09:10.003Z</time></trkpt><trkpt lat="45.92028105274463" lon="9.288863323787467"><ele>217.0</ele><time>2026-04-25T16:09:11.003Z</time></trkpt><trkpt lat="45.920166097533055" lon="9.288959326978228"><ele>215.25</ele><time>2026-04-25T16:09:12.003Z</time></trkpt><trkpt lat="45.92004695472318" lon="9.289035160860942"><ele>213.5</ele><time>2026-04-25T16:09:13.003Z</time></trkpt><trkpt lat="45.91991718642249" lon="9.289082083939297"><ele>211.75</ele><time>2026-04-25T16:09:14.003Z</time></trkpt><trkpt lat="45.91975895215385" lon="9.289128177610468"><ele>210.0</ele><time>2026-04-25T16:09:15.003Z</time></trkpt><trkpt lat="45.91957803244234" lon="9.289174972012955"><ele>210.0</ele><time>2026-04-25T16:09:16.003Z</time></trkpt><trkpt lat="45.91937484872677" lon="9.28923864908791"><ele>210.0</ele><time>2026-04-25T16:09:17.003Z</time></trkpt><trkpt lat="45.91917535657455" lon="9.28928818058169"><ele>210.0</ele><time>2026-04-25T16:09:18.003Z</time></trkpt><trkpt lat="45.91900248471406" lon="9.28933060492593"><ele>210.66666666666669</ele><time>2026-04-25T16:09:19.003Z</time></trkpt><trkpt lat="45.91883558535639" lon="9.289384835283645"><ele>211.33333333333334</ele><time>2026-04-25T16:09:20.003Z</time></trkpt><trkpt lat="45.9186937974167" lon="9.289455739537699"><ele>212.0</ele><time>2026-04-25T16:09:21.003Z</time></trkpt><trkpt lat="45.918552326514124" lon="9.289536481004802"><ele>212.0</ele><time>2026-04-25T16:09:22.003Z</time></trkpt><trkpt lat="45.9184319151103" lon="9.289689301721756"><ele>212.0</ele><time>2026-04-25T16:09:23.003Z</time></trkpt><trkpt lat="45.91830598651312" lon="9.28983175994848"><ele>212.0</ele><time>2026-04-25T16:09:24.003Z</time></trkpt><trkpt lat="45.918167869364204" lon="9.289945278420879"><ele>209.33333333333334</ele><time>2026-04-25T16:09:25.003Z</time></trkpt><trkpt lat="45.918037300402545" lon="9.290009704482715"><ele>206.66666666666669</ele><time>2026-04-25T16:09:26.003Z</time></trkpt><trkpt lat="45.91789516178495" lon="9.290086652017433"><ele>204.0</ele><time>2026-04-25T16:09:27.003Z</time></trkpt><trkpt lat="45.91775584872656" lon="9.290213939772237"><ele>204.0</ele><time>2026-04-25T16:09:28.003Z</time></trkpt><trkpt lat="45.917635229147" lon="9.29035903418393"><ele>204.0</ele><time>2026-04-25T16:09:29.003Z</time></trkpt><trkpt lat="45.917515765531974" lon="9.290525603753556"><ele>204.0</ele><time>2026-04-25T16:09:30.003Z</time></trkpt><trkpt lat="45.917392427387576" lon="9.290733172697905"><ele>205.0</ele><time>2026-04-25T16:09:31.003Z</time></trkpt><trkpt lat="45.91727180957739" lon="9.29093794972991"><ele>206.0</ele><time>2026-04-25T16:09:32.003Z</time></trkpt><trkpt lat="45.917168013642225" lon="9.291112876526766"><ele>207.0</ele><time>2026-04-25T16:09:33.003Z</time></trkpt><trkpt lat="45.91706552630568" lon="9.291274628019993"><ele>207.0</ele><time>2026-04-25T16:09:34.003Z</time></trkpt><trkpt lat="45.91695147516678" lon="9.291423244211874"><ele>207.0</ele><time>2026-04-25T16:09:35.003Z</time></trkpt><trkpt lat="45.91681964647517" lon="9.291560973158209"><ele>207.0</ele><time>2026-04-25T16:09:36.001Z</time></trkpt><trkpt lat="45.91667893175977" lon="9.291694061248315"><ele>206.66666666666669</ele><time>2026-04-25T16:09:37.001Z</time></trkpt><trkpt lat="45.91653481754547" lon="9.291817771120314"><ele>206.33333333333334</ele><time>2026-04-25T16:09:38.001Z</time></trkpt><trkpt lat="45.916395435597806" lon="9.2919375593554"><ele>206.0</ele><time>2026-04-25T16:09:39.001Z</time></trkpt><trkpt lat="45.9162611579361" lon="9.292052452016616"><ele>206.0</ele><time>2026-04-25T16:09:40.001Z</time></trkpt><trkpt lat="45.91613474626035" lon="9.292172039233218"><ele>206.0</ele><time>2026-04-25T16:09:41.001Z</time></trkpt><trkpt lat="45.91599931512294" lon="9.292284551148235"><ele>206.0</ele><time>2026-04-25T16:09:42.001Z</time></trkpt><trkpt lat="45.91586250213166" lon="9.29239761407748"><ele>204.66666666666669</ele><time>2026-04-25T16:09:43.001Z</time></trkpt><trkpt lat="45.915720742675504" lon="9.292509233886047"><ele>203.33333333333331</ele><time>2026-04-25T16:09:44.001Z</time></trkpt><trkpt lat="45.91557170503852" lon="9.292610490508848"><ele>202.0</ele><time>2026-04-25T16:09:45.001Z</time></trkpt><trkpt lat="45.91542196697193" lon="9.292697823644472"><ele>202.0</ele><time>2026-04-25T16:09:46Z</time></trkpt><trkpt lat="45.915280561041044" lon="9.29277539345549"><ele>202.0</ele><time>2026-04-25T16:09:47Z</time></trkpt><trkpt lat="45.915153209363496" lon="9.292845249384108"><ele>202.0</ele><time>2026-04-25T16:09:48Z</time></trkpt><trkpt lat="45.91502475873971" lon="9.292914530721447"><ele>202.0</ele><time>2026-04-25T16:09:49Z</time></trkpt><trkpt lat="45.914898206258364" lon="9.292970479807487"><ele>202.75</ele><time>2026-04-25T16:09:50Z</time></trkpt><trkpt lat="45.91476939541329" lon="9.292989725775138"><ele>203.5</ele><time>2026-04-25T16:09:51Z</time></trkpt><trkpt lat="45.914627121359665" lon="9.2929760129438"><ele>204.25</ele><time>2026-04-25T16:09:52Z</time></trkpt><trkpt lat="45.91448014610498" lon="9.292952909070584"><ele>205.0</ele><time>2026-04-25T16:09:53Z</time></trkpt><trkpt lat="45.91433483179765" lon="9.292930166481126"><ele>205.25</ele><time>2026-04-25T16:09:54Z</time></trkpt><trkpt lat="45.9142016346155" lon="9.292908254169006"><ele>205.5</ele><time>2026-04-25T16:09:55Z</time></trkpt><trkpt lat="45.914066650861415" lon="9.29289269096513"><ele>205.75</ele><time>2026-04-25T16:09:56Z</time></trkpt><trkpt lat="45.91393418156873" lon="9.29289264086038"><ele>206.0</ele><time>2026-04-25T16:09:57Z</time></trkpt><trkpt lat="45.913803822081235" lon="9.292911567350743"><ele>206.0</ele><time>2026-04-25T16:09:58Z</time></trkpt><trkpt lat="45.91367734152322" lon="9.29294221840538"><ele>206.0</ele><time>2026-04-25T16:09:59.001Z</time></trkpt><trkpt lat="45.91355336122847" lon="9.292975786886991"><ele>206.0</ele><time>2026-04-25T16:10:00.001Z</time></trkpt><trkpt lat="45.913430255881" lon="9.293011470899891"><ele>206.0</ele><time>2026-04-25T16:10:01.001Z</time></trkpt><trkpt lat="45.913306139365275" lon="9.293052167940422"><ele>205.0</ele><time>2026-04-25T16:10:02.001Z</time></trkpt><trkpt lat="45.91317828041809" lon="9.293093295081505"><ele>204.0</ele><time>2026-04-25T16:10:03.001Z</time></trkpt><trkpt lat="45.913051399603205" lon="9.293160730920452"><ele>203.0</ele><time>2026-04-25T16:10:04.001Z</time></trkpt><trkpt lat="45.91293163529432" lon="9.293226824721216"><ele>202.0</ele><time>2026-04-25T16:10:05.001Z</time></trkpt><trkpt lat="45.91281936988417" lon="9.29328838570133"><ele>202.0</ele><time>2026-04-25T16:10:06.001Z</time></trkpt><trkpt lat="45.91270398855582" lon="9.29335672268939"><ele>202.0</ele><time>2026-04-25T16:10:07.001Z</time></trkpt><trkpt lat="45.91258745965731" lon="9.293430210786518"><ele>202.0</ele><time>2026-04-25T16:10:08.001Z</time></trkpt><trkpt lat="45.91247104940665" lon="9.293498826390513"><ele>202.0</ele><time>2026-04-25T16:10:09.001Z</time></trkpt><trkpt lat="45.912363034827564" lon="9.293568735154214"><ele>203.5</ele><time>2026-04-25T16:10:10.001Z</time></trkpt><trkpt lat="45.9122570169821" lon="9.29363830160695"><ele>205.0</ele><time>2026-04-25T16:10:11.001Z</time></trkpt><trkpt lat="45.91214358158771" lon="9.293712403195524"><ele>206.5</ele><time>2026-04-25T16:10:12.001Z</time></trkpt><trkpt lat="45.91203511368904" lon="9.293785349419464"><ele>208.0</ele><time>2026-04-25T16:10:13.001Z</time></trkpt><trkpt lat="45.9119358487829" lon="9.293842977425482"><ele>208.0</ele><time>2026-04-25T16:10:14.001Z</time></trkpt><trkpt lat="45.91184326500936" lon="9.293874560911116"><ele>208.0</ele><time>2026-04-25T16:10:15.001Z</time></trkpt><trkpt lat="45.911753014402755" lon="9.293873919062053"><ele>208.0</ele><time>2026-04-25T16:10:16.001Z</time></trkpt><trkpt lat="45.91164379434096" lon="9.29388336916773"><ele>208.0</ele><time>2026-04-25T16:10:17.001Z</time></trkpt><trkpt lat="45.91152387244109" lon="9.29389632181067"><ele>208.0</ele><time>2026-04-25T16:10:18.001Z</time></trkpt><trkpt lat="45.91140523787409" lon="9.293912623627346"><ele>206.75</ele><time>2026-04-25T16:10:19.001Z</time></trkpt><trkpt lat="45.911289723793715" lon="9.293926248080204"><ele>205.5</ele><time>2026-04-25T16:10:20.001Z</time></trkpt><trkpt lat="45.911171391574186" lon="9.293948530216372"><ele>204.25</ele><time>2026-04-25T16:10:21.001Z</time></trkpt><trkpt lat="45.911044592820744" lon="9.293979501303202"><ele>203.0</ele><time>2026-04-25T16:10:22.001Z</time></trkpt><trkpt lat="45.91091135434861" lon="9.294020356677597"><ele>203.5</ele><time>2026-04-25T16:10:23.001Z</time></trkpt><trkpt lat="45.91077545159462" lon="9.294070212462383"><ele>204.0</ele><time>2026-04-25T16:10:24.001Z</time></trkpt><trkpt lat="45.910637665363446" lon="9.294132233528785"><ele>204.5</ele><time>2026-04-25T16:10:25.001Z</time></trkpt><trkpt lat="45.910511856438035" lon="9.294212409887072"><ele>205.0</ele><time>2026-04-25T16:10:26.001Z</time></trkpt><trkpt lat="45.91039233190714" lon="9.294297075501142"><ele>205.0</ele><time>2026-04-25T16:10:27.001Z</time></trkpt><trkpt lat="45.91027844851124" lon="9.294372595930867"><ele>205.0</ele><time>2026-04-25T16:10:28.001Z</time></trkpt><trkpt lat="45.91016316909374" lon="9.294455057911872"><ele>205.0</ele><time>2026-04-25T16:10:29.001Z</time></trkpt><trkpt lat="45.9100549761608" lon="9.294540154996719"><ele>205.0</ele><time>2026-04-25T16:10:30.001Z</time></trkpt><trkpt lat="45.909967711919855" lon="9.294625996144623"><ele>204.5</ele><time>2026-04-25T16:10:31.001Z</time></trkpt><trkpt lat="45.90988626341361" lon="9.29472564168383"><ele>204.0</ele><time>2026-04-25T16:10:32.001Z</time></trkpt><trkpt lat="45.909808645217204" lon="9.294848737012163"><ele>203.5</ele><time>2026-04-25T16:10:33.001Z</time></trkpt><trkpt lat="45.909735455623455" lon="9.294987158987587"><ele>203.0</ele><time>2026-04-25T16:10:34.001Z</time></trkpt><trkpt lat="45.90966941710092" lon="9.295123659281346"><ele>203.0</ele><time>2026-04-25T16:10:35.001Z</time></trkpt><trkpt lat="45.9096076446315" lon="9.295262349431518"><ele>203.0</ele><time>2026-04-25T16:10:36.001Z</time></trkpt><trkpt lat="45.90954680002385" lon="9.295416282344261"><ele>203.0</ele><time>2026-04-25T16:10:37.001Z</time></trkpt><trkpt lat="45.90949031721607" lon="9.295574005604715"><ele>203.0</ele><time>2026-04-25T16:10:38.001Z</time></trkpt><trkpt lat="45.90942578286026" lon="9.295751187409326"><ele>201.66666666666669</ele><time>2026-04-25T16:10:39.001Z</time></trkpt><trkpt lat="45.90934066774497" lon="9.295938899653818"><ele>200.33333333333331</ele><time>2026-04-25T16:10:40.001Z</time></trkpt><trkpt lat="45.90924737553806" lon="9.296116493085641"><ele>199.0</ele><time>2026-04-25T16:10:41.001Z</time></trkpt><trkpt lat="45.90915327101606" lon="9.296270997743953"><ele>199.5</ele><time>2026-04-25T16:10:42.001Z</time></trkpt><trkpt lat="45.90905431621273" lon="9.296397827182174"><ele>200.0</ele><time>2026-04-25T16:10:43.001Z</time></trkpt><trkpt lat="45.90894860862885" lon="9.296500076038432"><ele>200.5</ele><time>2026-04-25T16:10:44.001Z</time></trkpt><trkpt lat="45.90882761720642" lon="9.296604010365852"><ele>201.0</ele><time>2026-04-25T16:10:45.001Z</time></trkpt><trkpt lat="45.9087083803855" lon="9.296718581435181"><ele>201.0</ele><time>2026-04-25T16:10:46.001Z</time></trkpt><trkpt lat="45.908587303370616" lon="9.296829770871426"><ele>201.0</ele><time>2026-04-25T16:10:47.001Z</time></trkpt><trkpt lat="45.90847286829491" lon="9.296939054631297"><ele>201.0</ele><time>2026-04-25T16:10:48.001Z</time></trkpt><trkpt lat="45.90835217287053" lon="9.297042732921861"><ele>201.0</ele><time>2026-04-25T16:10:49.001Z</time></trkpt><trkpt lat="45.90823225950412" lon="9.297156430159657"><ele>201.0</ele><time>2026-04-25T16:10:50.001Z</time></trkpt><trkpt lat="45.90811013606316" lon="9.297265789120587"><ele>201.0</ele><time>2026-04-25T16:10:51.001Z</time></trkpt><trkpt lat="45.90798886690808" lon="9.29737645291219"><ele>201.0</ele><time>2026-04-25T16:10:52.001Z</time></trkpt><trkpt lat="45.90786616811541" lon="9.297487775786983"><ele>201.0</ele><time>2026-04-25T16:10:53.001Z</time></trkpt><trkpt lat="45.907746098034146" lon="9.297602143646662"><ele>201.0</ele><time>2026-04-25T16:10:54.002Z</time></trkpt><trkpt lat="45.90762107469373" lon="9.297711810795601"><ele>201.0</ele><time>2026-04-25T16:10:55.002Z</time></trkpt><trkpt lat="45.90749791253843" lon="9.297823815642786"><ele>201.0</ele><time>2026-04-25T16:10:56.002Z</time></trkpt><trkpt lat="45.90737552548883" lon="9.29793653664306"><ele>201.0</ele><time>2026-04-25T16:10:57.002Z</time></trkpt><trkpt lat="45.907255503703865" lon="9.298043535227148"><ele>200.75</ele><time>2026-04-25T16:10:58.002Z</time></trkpt><trkpt lat="45.907134220428716" lon="9.298148226965678"><ele>200.5</ele><time>2026-04-25T16:10:59.002Z</time></trkpt><trkpt lat="45.90701805986301" lon="9.29825769358201"><ele>200.25</ele><time>2026-04-25T16:11:00.002Z</time></trkpt><trkpt lat="45.90690143562949" lon="9.298365277077112"><ele>200.0</ele><time>2026-04-25T16:11:01.002Z</time></trkpt><trkpt lat="45.90679148616341" lon="9.298463792264421"><ele>201.25</ele><time>2026-04-25T16:11:02.002Z</time></trkpt><trkpt lat="45.90667164902173" lon="9.298567863979065"><ele>202.5</ele><time>2026-04-25T16:11:03.002Z</time></trkpt><trkpt lat="45.90655585687741" lon="9.298673444440238"><ele>203.75</ele><time>2026-04-25T16:11:04.002Z</time></trkpt><trkpt lat="45.90644383790518" lon="9.298774472757643"><ele>205.0</ele><time>2026-04-25T16:11:05.002Z</time></trkpt><trkpt lat="45.90633564815727" lon="9.298875992270366"><ele>203.75</ele><time>2026-04-25T16:11:06.002Z</time></trkpt><trkpt lat="45.90622655492793" lon="9.298977703983427"><ele>202.5</ele><time>2026-04-25T16:11:07.002Z</time></trkpt><trkpt lat="45.906122288550954" lon="9.299074671719499"><ele>201.25</ele><time>2026-04-25T16:11:08.002Z</time></trkpt><trkpt lat="45.90602169605013" lon="9.299165833274103"><ele>200.0</ele><time>2026-04-25T16:11:09.002Z</time></trkpt><trkpt lat="45.90592667610064" lon="9.299257129289083"><ele>201.0</ele><time>2026-04-25T16:11:10.002Z</time></trkpt><trkpt lat="45.905827852704576" lon="9.29935240762282"><ele>202.0</ele><time>2026-04-25T16:11:11.002Z</time></trkpt><trkpt lat="45.90572661094971" lon="9.299446140342692"><ele>203.0</ele><time>2026-04-25T16:11:12.002Z</time></trkpt><trkpt lat="45.90561848437548" lon="9.299537021844564"><ele>204.0</ele><time>2026-04-25T16:11:13.002Z</time></trkpt><trkpt lat="45.90549068612682" lon="9.299621668395503"><ele>204.0</ele><time>2026-04-25T16:11:14.002Z</time></trkpt><trkpt lat="45.90536045823336" lon="9.299682332268743"><ele>204.0</ele><time>2026-04-25T16:11:15.002Z</time></trkpt><trkpt lat="45.90523161958672" lon="9.299725403323036"><ele>204.0</ele><time>2026-04-25T16:11:16.002Z</time></trkpt><trkpt lat="45.905105623236395" lon="9.299766356282374"><ele>204.0</ele><time>2026-04-25T16:11:17.002Z</time></trkpt><trkpt lat="45.904979100151515" lon="9.299815777833206"><ele>203.25</ele><time>2026-04-25T16:11:18.002Z</time></trkpt><trkpt lat="45.904858587469846" lon="9.299882557996261"><ele>202.5</ele><time>2026-04-25T16:11:19.002Z</time></trkpt><trkpt lat="45.90474216145799" lon="9.299975913387245"><ele>201.75</ele><time>2026-04-25T16:11:20.002Z</time></trkpt><trkpt lat="45.904633605610826" lon="9.300091723128306"><ele>201.0</ele><time>2026-04-25T16:11:21.002Z</time></trkpt><trkpt lat="45.904528590948054" lon="9.300214457049114"><ele>201.0</ele><time>2026-04-25T16:11:22.002Z</time></trkpt><trkpt lat="45.90443049030161" lon="9.300328135497903"><ele>201.0</ele><time>2026-04-25T16:11:23.002Z</time></trkpt><trkpt lat="45.90433456707003" lon="9.300436754814829"><ele>201.0</ele><time>2026-04-25T16:11:24.002Z</time></trkpt><trkpt lat="45.90423696697649" lon="9.300543681760411"><ele>201.0</ele><time>2026-04-25T16:11:25.002Z</time></trkpt><trkpt lat="45.90414381867251" lon="9.300644534516238"><ele>200.75</ele><time>2026-04-25T16:11:26.002Z</time></trkpt><trkpt lat="45.90404892837224" lon="9.300740357852174"><ele>200.5</ele><time>2026-04-25T16:11:27.002Z</time></trkpt><trkpt lat="45.90395058208446" lon="9.30083529085972"><ele>200.25</ele><time>2026-04-25T16:11:28.002Z</time></trkpt><trkpt lat="45.90384835405127" lon="9.300920718836865"><ele>200.0</ele><time>2026-04-25T16:11:29.002Z</time></trkpt><trkpt lat="45.90373204580655" lon="9.300992590975598"><ele>200.0</ele><time>2026-04-25T16:11:30.002Z</time></trkpt><trkpt lat="45.903613879064125" lon="9.301046334932028"><ele>200.0</ele><time>2026-04-25T16:11:31.002Z</time></trkpt><trkpt lat="45.9035041707456" lon="9.301088813752548"><ele>200.0</ele><time>2026-04-25T16:11:32.002Z</time></trkpt><trkpt lat="45.90339888781456" lon="9.30112848808604"><ele>200.0</ele><time>2026-04-25T16:11:33.002Z</time></trkpt><trkpt lat="45.903286361849325" lon="9.30117158617542"><ele>201.5</ele><time>2026-04-25T16:11:34.002Z</time></trkpt><trkpt lat="45.90317127973899" lon="9.301213670679285"><ele>203.0</ele><time>2026-04-25T16:11:35.002Z</time></trkpt><trkpt lat="45.90305571044603" lon="9.301252754106557"><ele>204.5</ele><time>2026-04-25T16:11:36.002Z</time></trkpt><trkpt lat="45.902938226966505" lon="9.301289616171703"><ele>206.0</ele><time>2026-04-25T16:11:37.002Z</time></trkpt><trkpt lat="45.90283078568585" lon="9.301335450076081"><ele>206.0</ele><time>2026-04-25T16:11:38.002Z</time></trkpt><trkpt lat="45.90273620564645" lon="9.301398105330827"><ele>206.0</ele><time>2026-04-25T16:11:39.002Z</time></trkpt><trkpt lat="45.90264703078226" lon="9.301488456320499"><ele>206.0</ele><time>2026-04-25T16:11:40.002Z</time></trkpt><trkpt lat="45.902560226419475" lon="9.301595122424985"><ele>206.0</ele><time>2026-04-25T16:11:41.002Z</time></trkpt><trkpt lat="45.90248115572074" lon="9.301745348667728"><ele>205.5</ele><time>2026-04-25T16:11:42Z</time></trkpt><trkpt lat="45.902400992071215" lon="9.301901540518204"><ele>205.0</ele><time>2026-04-25T16:11:43Z</time></trkpt><trkpt lat="45.902309855456586" lon="9.302068945958549"><ele>204.5</ele><time>2026-04-25T16:11:44Z</time></trkpt><trkpt lat="45.902218767938166" lon="9.302245719941988"><ele>204.0</ele><time>2026-04-25T16:11:45Z</time></trkpt><trkpt lat="45.90214051367125" lon="9.302400251698096"><ele>204.0</ele><time>2026-04-25T16:11:46Z</time></trkpt><trkpt lat="45.90206685208629" lon="9.302551895016121"><ele>204.0</ele><time>2026-04-25T16:11:47Z</time></trkpt><trkpt lat="45.90201781588632" lon="9.302707771166636"><ele>204.0</ele><time>2026-04-25T16:11:48Z</time></trkpt><trkpt lat="45.90195420421699" lon="9.302839422091333"><ele>204.0</ele><time>2026-04-25T16:11:49Z</time></trkpt><trkpt lat="45.90189314501724" lon="9.302962655724981"><ele>203.0</ele><time>2026-04-25T16:11:50Z</time></trkpt><trkpt lat="45.90183514920255" lon="9.303094515563837"><ele>202.0</ele><time>2026-04-25T16:11:51Z</time></trkpt><trkpt lat="45.90178072905369" lon="9.30321946668909"><ele>201.0</ele><time>2026-04-25T16:11:52Z</time></trkpt><trkpt lat="45.90172424335837" lon="9.303337001210284"><ele>200.0</ele><time>2026-04-25T16:11:53Z</time></trkpt><trkpt lat="45.90166754241976" lon="9.303471499178475"><ele>199.0</ele><time>2026-04-25T16:11:54Z</time></trkpt><trkpt lat="45.90159101124696" lon="9.303612722694643"><ele>200.33333333333331</ele><time>2026-04-25T16:11:55Z</time></trkpt><trkpt lat="45.90150671206682" lon="9.303762763053424"><ele>201.66666666666669</ele><time>2026-04-25T16:11:56Z</time></trkpt><trkpt lat="45.90139573971571" lon="9.303933769854861"><ele>203.0</ele><time>2026-04-25T16:11:57Z</time></trkpt><trkpt lat="45.90127610723966" lon="9.304127794259543"><ele>203.0</ele><time>2026-04-25T16:11:58Z</time></trkpt><trkpt lat="45.90115810519808" lon="9.304283580770335"><ele>203.0</ele><time>2026-04-25T16:11:59Z</time></trkpt><trkpt lat="45.901057629974424" lon="9.304448271467205"><ele>203.0</ele><time>2026-04-25T16:12:00Z</time></trkpt><trkpt lat="45.900958602849414" lon="9.304616449994755"><ele>205.75</ele><time>2026-04-25T16:12:01Z</time></trkpt><trkpt lat="45.90087707207823" lon="9.304778007877678"><ele>208.5</ele><time>2026-04-25T16:12:02Z</time></trkpt><trkpt lat="45.90080607152547" lon="9.304929179515803"><ele>211.25</ele><time>2026-04-25T16:12:03Z</time></trkpt><trkpt lat="45.90074774164404" lon="9.30508210098987"><ele>214.0</ele><time>2026-04-25T16:12:04Z</time></trkpt><trkpt lat="45.90068626371366" lon="9.30523140326973"><ele>214.0</ele><time>2026-04-25T16:12:05Z</time></trkpt><trkpt lat="45.900617264621424" lon="9.305389451941792"><ele>214.0</ele><time>2026-04-25T16:12:06Z</time></trkpt><trkpt lat="45.90055096615806" lon="9.305534565314849"><ele>214.0</ele><time>2026-04-25T16:12:07Z</time></trkpt><trkpt lat="45.90047575718383" lon="9.305678656357259"><ele>214.0</ele><time>2026-04-25T16:12:08Z</time></trkpt><trkpt lat="45.90037707887686" lon="9.305820550441283"><ele>211.0</ele><time>2026-04-25T16:12:09Z</time></trkpt><trkpt lat="45.900270327351535" lon="9.305962881152995"><ele>208.0</ele><time>2026-04-25T16:12:10Z</time></trkpt><trkpt lat="45.90014565464503" lon="9.306119193731677"><ele>205.0</ele><time>2026-04-25T16:12:11Z</time></trkpt><trkpt lat="45.9000221836544" lon="9.306268754194395"><ele>206.66666666666666</ele><time>2026-04-25T16:12:12Z</time></trkpt><trkpt lat="45.89989449150392" lon="9.306396979145198"><ele>208.33333333333331</ele><time>2026-04-25T16:12:13Z</time></trkpt><trkpt lat="45.89978812753609" lon="9.306566699200216"><ele>210.0</ele><time>2026-04-25T16:12:14Z</time></trkpt><trkpt lat="45.89967635421182" lon="9.306764363382735"><ele>210.0</ele><time>2026-04-25T16:12:15Z</time></trkpt><trkpt lat="45.89955100057691" lon="9.306991810202858"><ele>210.0</ele><time>2026-04-25T16:12:16Z</time></trkpt><trkpt lat="45.8994275701445" lon="9.307215767403163"><ele>210.0</ele><time>2026-04-25T16:12:17Z</time></trkpt><trkpt lat="45.899326023216275" lon="9.307428906974666"><ele>215.0</ele><time>2026-04-25T16:12:18Z</time></trkpt><trkpt lat="45.89921613482036" lon="9.30762973961814"><ele>220.0</ele><time>2026-04-25T16:12:19Z</time></trkpt><trkpt lat="45.89909670392189" lon="9.30782668862502"><ele>225.0</ele><time>2026-04-25T16:12:20Z</time></trkpt><trkpt lat="45.89901515465688" lon="9.308042524078838"><ele>220.5</ele><time>2026-04-25T16:12:21Z</time></trkpt><trkpt lat="45.89895086885237" lon="9.308238373406073"><ele>216.0</ele><time>2026-04-25T16:12:22.001Z</time></trkpt><trkpt lat="45.89890279652829" lon="9.308433974824766"><ele>211.5</ele><time>2026-04-25T16:12:23.001Z</time></trkpt><trkpt lat="45.89884734095518" lon="9.308607309961449"><ele>207.0</ele><time>2026-04-25T16:12:24.001Z</time></trkpt><trkpt lat="45.89878889595051" lon="9.308800364328494"><ele>205.0</ele><time>2026-04-25T16:12:25.001Z</time></trkpt><trkpt lat="45.89872589714839" lon="9.308984419326134"><ele>203.0</ele><time>2026-04-25T16:12:26.001Z</time></trkpt><trkpt lat="45.898676963009095" lon="9.309172242249094"><ele>201.0</ele><time>2026-04-25T16:12:27.001Z</time></trkpt><trkpt lat="45.898646494755575" lon="9.309381985339728"><ele>199.0</ele><time>2026-04-25T16:12:28.001Z</time></trkpt><trkpt lat="45.89862211466086" lon="9.309586535278285"><ele>198.75</ele><time>2026-04-25T16:12:29.001Z</time></trkpt><trkpt lat="45.89857963504224" lon="9.309778963561236"><ele>198.5</ele><time>2026-04-25T16:12:30.001Z</time></trkpt><trkpt lat="45.8985547365197" lon="9.309963833855875"><ele>198.25</ele><time>2026-04-25T16:12:31.001Z</time></trkpt><trkpt lat="45.898529800385646" lon="9.31014148320797"><ele>198.0</ele><time>2026-04-25T16:12:32.001Z</time></trkpt><trkpt lat="45.89851141852207" lon="9.310304727659886"><ele>198.0</ele><time>2026-04-25T16:12:33.001Z</time></trkpt><trkpt lat="45.89845262188742" lon="9.31044244199418"><ele>198.0</ele><time>2026-04-25T16:12:34.001Z</time></trkpt><trkpt lat="45.898379148887905" lon="9.310553848324435"><ele>198.0</ele><time>2026-04-25T16:12:35.001Z</time></trkpt><trkpt lat="45.898281640296375" lon="9.310639953546778"><ele>198.0</ele><time>2026-04-25T16:12:36.001Z</time></trkpt><trkpt lat="45.89817705319314" lon="9.310723228319695"><ele>199.75</ele><time>2026-04-25T16:12:37.001Z</time></trkpt><trkpt lat="45.89806230890439" lon="9.310797978776447"><ele>201.5</ele><time>2026-04-25T16:12:38.001Z</time></trkpt><trkpt lat="45.89794507773566" lon="9.310851425189304"><ele>203.25</ele><time>2026-04-25T16:12:39.001Z</time></trkpt><trkpt lat="45.897816245100856" lon="9.310859989511899"><ele>205.0</ele><time>2026-04-25T16:12:40.001Z</time></trkpt><trkpt lat="45.8976896265121" lon="9.31085920836643"><ele>207.75</ele><time>2026-04-25T16:12:41.001Z</time></trkpt><trkpt lat="45.89755953402982" lon="9.310842776740987"><ele>210.5</ele><time>2026-04-25T16:12:42.001Z</time></trkpt><trkpt lat="45.89743671623335" lon="9.310846439665632"><ele>213.25</ele><time>2026-04-25T16:12:43.001Z</time></trkpt><trkpt lat="45.89732430093036" lon="9.310850449761753"><ele>216.0</ele><time>2026-04-25T16:12:44.001Z</time></trkpt><trkpt lat="45.89721670544317" lon="9.310883339492387"><ele>216.0</ele><time>2026-04-25T16:12:45.001Z</time></trkpt><trkpt lat="45.897119943827846" lon="9.310948357718162"><ele>216.0</ele><time>2026-04-25T16:12:46.001Z</time></trkpt><trkpt lat="45.8970169454181" lon="9.311042991831316"><ele>216.0</ele><time>2026-04-25T16:12:47.001Z</time></trkpt><trkpt lat="45.896898530032885" lon="9.311146872159648"><ele>216.0</ele><time>2026-04-25T16:12:48.001Z</time></trkpt><trkpt lat="45.89676475208035" lon="9.31125496740058"><ele>219.66666666666669</ele><time>2026-04-25T16:12:49.001Z</time></trkpt><trkpt lat="45.89661877849077" lon="9.311380174266436"><ele>223.33333333333334</ele><time>2026-04-25T16:12:50.001Z</time></trkpt><trkpt lat="45.89645971806834" lon="9.311512543722376"><ele>227.0</ele><time>2026-04-25T16:12:51.001Z</time></trkpt><trkpt lat="45.8963049844395" lon="9.311648678851334"><ele>231.0</ele><time>2026-04-25T16:12:52.001Z</time></trkpt><trkpt lat="45.8961577238247" lon="9.311784334196776"><ele>235.0</ele><time>2026-04-25T16:12:53.001Z</time></trkpt><trkpt lat="45.89602251337869" lon="9.31190576927351"><ele>239.0</ele><time>2026-04-25T16:12:54.001Z</time></trkpt><trkpt lat="45.895877919937384" lon="9.312027876692051"><ele>239.0</ele><time>2026-04-25T16:12:55.001Z</time></trkpt><trkpt lat="45.89573287625366" lon="9.312153272716156"><ele>239.0</ele><time>2026-04-25T16:12:56.001Z</time></trkpt><trkpt lat="45.89558884648836" lon="9.312274562488067"><ele>239.0</ele><time>2026-04-25T16:12:57.001Z</time></trkpt><trkpt lat="45.8954498842075" lon="9.31239289019426"><ele>236.66666666666669</ele><time>2026-04-25T16:12:58.001Z</time></trkpt><trkpt lat="45.89531197643223" lon="9.312515079143179"><ele>234.33333333333331</ele><time>2026-04-25T16:12:59.001Z</time></trkpt><trkpt lat="45.89518029565994" lon="9.312625342468014"><ele>232.0</ele><time>2026-04-25T16:13:00.001Z</time></trkpt><trkpt lat="45.89505776727822" lon="9.312733198637249"><ele>232.0</ele><time>2026-04-25T16:13:01.001Z</time></trkpt><trkpt lat="45.89494481573626" lon="9.31282398389376"><ele>232.0</ele><time>2026-04-25T16:13:02.001Z</time></trkpt><trkpt lat="45.89483687095297" lon="9.312922071816779"><ele>232.0</ele><time>2026-04-25T16:13:03.001Z</time></trkpt><trkpt lat="45.89473477166284" lon="9.313005168483844"><ele>232.0</ele><time>2026-04-25T16:13:04.001Z</time></trkpt><trkpt lat="45.89462974751716" lon="9.313064801249089"><ele>232.0</ele><time>2026-04-25T16:13:05.001Z</time></trkpt><trkpt lat="45.89451694262239" lon="9.313078928622867"><ele>232.0</ele><time>2026-04-25T16:13:06.001Z</time></trkpt><trkpt lat="45.89439998288442" lon="9.313068705623447"><ele>232.0</ele><time>2026-04-25T16:13:07.001Z</time></trkpt><trkpt lat="45.8942768846042" lon="9.31310119174349"><ele>232.0</ele><time>2026-04-25T16:13:08.001Z</time></trkpt><trkpt lat="45.89413893860647" lon="9.313169165849386"><ele>232.66666666666666</ele><time>2026-04-25T16:13:09.001Z</time></trkpt><trkpt lat="45.89399816681922" lon="9.313242809561354"><ele>233.33333333333331</ele><time>2026-04-25T16:13:10.002Z</time></trkpt><trkpt lat="45.89385927727757" lon="9.313329140091623"><ele>234.0</ele><time>2026-04-25T16:13:11.002Z</time></trkpt><trkpt lat="45.89372861946476" lon="9.31343651945592"><ele>234.0</ele><time>2026-04-25T16:13:12.002Z</time></trkpt><trkpt lat="45.89361298780517" lon="9.313573605357142"><ele>234.0</ele><time>2026-04-25T16:13:13.002Z</time></trkpt><trkpt lat="45.89348914207043" lon="9.313709299916379"><ele>234.0</ele><time>2026-04-25T16:13:14.002Z</time></trkpt><trkpt lat="45.89338100291484" lon="9.31383344689813"><ele>234.0</ele><time>2026-04-25T16:13:15.002Z</time></trkpt><trkpt lat="45.89327919144615" lon="9.313965765946108"><ele>230.75</ele><time>2026-04-25T16:13:16.002Z</time></trkpt><trkpt lat="45.89319278424623" lon="9.314117641181593"><ele>227.5</ele><time>2026-04-25T16:13:17.002Z</time></trkpt><trkpt lat="45.89312504006481" lon="9.314251520013547"><ele>224.25</ele><time>2026-04-25T16:13:18.002Z</time></trkpt><trkpt lat="45.89305499751691" lon="9.314381322310464"><ele>221.0</ele><time>2026-04-25T16:13:19.002Z</time></trkpt><trkpt lat="45.89296960868935" lon="9.314486670052215"><ele>221.0</ele><time>2026-04-25T16:13:20.002Z</time></trkpt><trkpt lat="45.892883260778014" lon="9.3145730827764"><ele>221.0</ele><time>2026-04-25T16:13:21.002Z</time></trkpt><trkpt lat="45.89278821925434" lon="9.31465699322282"><ele>221.0</ele><time>2026-04-25T16:13:22.002Z</time></trkpt><trkpt lat="45.8926710927659" lon="9.314746693289116"><ele>221.0</ele><time>2026-04-25T16:13:23.002Z</time></trkpt><trkpt lat="45.8925533660497" lon="9.314830431187083"><ele>218.75</ele><time>2026-04-25T16:13:24.002Z</time></trkpt><trkpt lat="45.89243488585449" lon="9.3149209718482"><ele>216.5</ele><time>2026-04-25T16:13:25.002Z</time></trkpt><trkpt lat="45.892316437150505" lon="9.31501328712842"><ele>214.25</ele><time>2026-04-25T16:13:26.002Z</time></trkpt><trkpt lat="45.89219226486119" lon="9.315082173975917"><ele>212.0</ele><time>2026-04-25T16:13:27.002Z</time></trkpt><trkpt lat="45.89206915529141" lon="9.315128218707432"><ele>212.0</ele><time>2026-04-25T16:13:28.002Z</time></trkpt><trkpt lat="45.89193511454132" lon="9.315164159908381"><ele>212.0</ele><time>2026-04-25T16:13:29.002Z</time></trkpt><trkpt lat="45.89179495499831" lon="9.315177181305135"><ele>212.0</ele><time>2026-04-25T16:13:30.002Z</time></trkpt><trkpt lat="45.891652624495094" lon="9.315157206460963"><ele>212.0</ele><time>2026-04-25T16:13:31.002Z</time></trkpt><trkpt lat="45.891526346017145" lon="9.315161052607682"><ele>210.2</ele><time>2026-04-25T16:13:32.002Z</time></trkpt><trkpt lat="45.89140774239402" lon="9.315178251070408"><ele>208.39999999999998</ele><time>2026-04-25T16:13:33.002Z</time></trkpt><trkpt lat="45.89131334939938" lon="9.315246462000825"><ele>206.60000000000002</ele><time>2026-04-25T16:13:34.002Z</time></trkpt><trkpt lat="45.89122698121499" lon="9.315350700868985"><ele>204.8</ele><time>2026-04-25T16:13:35.002Z</time></trkpt><trkpt lat="45.89117020276875" lon="9.315486412651884"><ele>203.0</ele><time>2026-04-25T16:13:36.002Z</time></trkpt><trkpt lat="45.891137805328505" lon="9.315605333586275"><ele>203.0</ele><time>2026-04-25T16:13:37.002Z</time></trkpt><trkpt lat="45.891126015048215" lon="9.315750047517344"><ele>203.0</ele><time>2026-04-25T16:13:38.002Z</time></trkpt><trkpt lat="45.891132362223395" lon="9.315903091550378"><ele>203.0</ele><time>2026-04-25T16:13:39.002Z</time></trkpt><trkpt lat="45.891129838829" lon="9.316064304213564"><ele>203.0</ele><time>2026-04-25T16:13:40.002Z</time></trkpt><trkpt lat="45.8911247389334" lon="9.31622678529802"><ele>203.0</ele><time>2026-04-25T16:13:41.002Z</time></trkpt><trkpt lat="45.8911061979162" lon="9.316390432369248"><ele>201.75</ele><time>2026-04-25T16:13:42.002Z</time></trkpt><trkpt lat="45.89110150992407" lon="9.316555105383044"><ele>200.5</ele><time>2026-04-25T16:13:43.002Z</time></trkpt><trkpt lat="45.891069021674646" lon="9.31671152397758"><ele>199.25</ele><time>2026-04-25T16:13:44.002Z</time></trkpt><trkpt lat="45.891017053277395" lon="9.316874471836122"><ele>198.0</ele><time>2026-04-25T16:13:45.002Z</time></trkpt><trkpt lat="45.89094213116642" lon="9.317038242870431"><ele>202.2</ele><time>2026-04-25T16:13:46.002Z</time></trkpt><trkpt lat="45.89086929700856" lon="9.317178822750288"><ele>206.4</ele><time>2026-04-25T16:13:47.002Z</time></trkpt><trkpt lat="45.890805669513256" lon="9.317316462119367"><ele>210.59999999999997</ele><time>2026-04-25T16:13:48Z</time></trkpt><trkpt lat="45.89074419499431" lon="9.317454764015059"><ele>214.79999999999998</ele><time>2026-04-25T16:13:49Z</time></trkpt><trkpt lat="45.89067719365264" lon="9.317553352215866"><ele>219.0</ele><time>2026-04-25T16:13:50Z</time></trkpt><trkpt lat="45.89058006310227" lon="9.31762469111801"><ele>219.0</ele><time>2026-04-25T16:13:51Z</time></trkpt><trkpt lat="45.890458220240546" lon="9.317742658890209"><ele>219.0</ele><time>2026-04-25T16:13:52Z</time></trkpt><trkpt lat="45.89032985591873" lon="9.317853811429991"><ele>219.0</ele><time>2026-04-25T16:13:53Z</time></trkpt><trkpt lat="45.890184097057826" lon="9.317937070297473"><ele>218.25</ele><time>2026-04-25T16:13:54Z</time></trkpt><trkpt lat="45.890045359580434" lon="9.318008670071906"><ele>217.5</ele><time>2026-04-25T16:13:55Z</time></trkpt><trkpt lat="45.889929120472694" lon="9.318085163226707"><ele>216.75</ele><time>2026-04-25T16:13:56Z</time></trkpt><trkpt lat="45.88981980084654" lon="9.318169818870453"><ele>216.0</ele><time>2026-04-25T16:13:57Z</time></trkpt><trkpt lat="45.889729794546604" lon="9.318284210875753"><ele>216.0</ele><time>2026-04-25T16:13:58Z</time></trkpt><trkpt lat="45.88965376574651" lon="9.318432811022822"><ele>216.0</ele><time>2026-04-25T16:13:59Z</time></trkpt><trkpt lat="45.88958387519684" lon="9.318599252898247"><ele>216.0</ele><time>2026-04-25T16:14:00Z</time></trkpt><trkpt lat="45.88951698405138" lon="9.318776721141228"><ele>216.0</ele><time>2026-04-25T16:14:01Z</time></trkpt><trkpt lat="45.889439467873785" lon="9.31894697014546"><ele>218.5</ele><time>2026-04-25T16:14:02Z</time></trkpt><trkpt lat="45.88933609612799" lon="9.319085955269191"><ele>221.0</ele><time>2026-04-25T16:14:03Z</time></trkpt><trkpt lat="45.88922702528713" lon="9.319223187856773"><ele>223.5</ele><time>2026-04-25T16:14:04Z</time></trkpt><trkpt lat="45.88912961515599" lon="9.319350126146029"><ele>226.0</ele><time>2026-04-25T16:14:05Z</time></trkpt><trkpt lat="45.88903942330584" lon="9.31946451815556"><ele>226.0</ele><time>2026-04-25T16:14:06Z</time></trkpt><trkpt lat="45.88895004152308" lon="9.319548515684454"><ele>226.0</ele><time>2026-04-25T16:14:07Z</time></trkpt><trkpt lat="45.88885608845112" lon="9.319617444405282"><ele>226.0</ele><time>2026-04-25T16:14:08Z</time></trkpt><trkpt lat="45.88874054301527" lon="9.319664359976905"><ele>226.0</ele><time>2026-04-25T16:14:09Z</time></trkpt><trkpt lat="45.88861513817159" lon="9.319710989366556"><ele>226.5</ele><time>2026-04-25T16:14:10Z</time></trkpt><trkpt lat="45.88849045083567" lon="9.319787935623864"><ele>227.0</ele><time>2026-04-25T16:14:11Z</time></trkpt><trkpt lat="45.888371545526" lon="9.319871827217899"><ele>227.5</ele><time>2026-04-25T16:14:12Z</time></trkpt><trkpt lat="45.888259522634904" lon="9.319957001851003"><ele>228.0</ele><time>2026-04-25T16:14:13Z</time></trkpt><trkpt lat="45.88815702858237" lon="9.320042525358101"><ele>228.0</ele><time>2026-04-25T16:14:14Z</time></trkpt><trkpt lat="45.88806140547747" lon="9.320149267218248"><ele>228.0</ele><time>2026-04-25T16:14:15Z</time></trkpt><trkpt lat="45.88797502399485" lon="9.32028961625165"><ele>228.0</ele><time>2026-04-25T16:14:16Z</time></trkpt><trkpt lat="45.88787181080918" lon="9.320411444146709"><ele>228.0</ele><time>2026-04-25T16:14:17Z</time></trkpt><trkpt lat="45.887789758291746" lon="9.320563342972159"><ele>230.0</ele><time>2026-04-25T16:14:18Z</time></trkpt><trkpt lat="45.88770405973324" lon="9.320673402011362"><ele>232.0</ele><time>2026-04-25T16:14:19Z</time></trkpt><trkpt lat="45.88761734513316" lon="9.320779508511729"><ele>234.0</ele><time>2026-04-25T16:14:20Z</time></trkpt><trkpt lat="45.88755717735154" lon="9.320940610981973"><ele>236.0</ele><time>2026-04-25T16:14:21Z</time></trkpt><trkpt lat="45.887499455768896" lon="9.321105755827602"><ele>236.0</ele><time>2026-04-25T16:14:22Z</time></trkpt><trkpt lat="45.88743832121435" lon="9.32127406082279"><ele>236.0</ele><time>2026-04-25T16:14:23Z</time></trkpt><trkpt lat="45.88737674403182" lon="9.321416282745817"><ele>236.0</ele><time>2026-04-25T16:14:24Z</time></trkpt><trkpt lat="45.88729989608938" lon="9.321545834552897"><ele>236.0</ele><time>2026-04-25T16:14:25.001Z</time></trkpt><trkpt lat="45.8871963825459" lon="9.32166157988964"><ele>229.25</ele><time>2026-04-25T16:14:26.001Z</time></trkpt><trkpt lat="45.88708668138945" lon="9.321782607376468"><ele>222.5</ele><time>2026-04-25T16:14:27.001Z</time></trkpt><trkpt lat="45.88697976517064" lon="9.321928982602797"><ele>215.75</ele><time>2026-04-25T16:14:28.001Z</time></trkpt><trkpt lat="45.88687724574114" lon="9.322086307721985"><ele>209.0</ele><time>2026-04-25T16:14:29.001Z</time></trkpt><trkpt lat="45.886781170711" lon="9.322237141646015"><ele>213.75</ele><time>2026-04-25T16:14:30.001Z</time></trkpt><trkpt lat="45.88667154037995" lon="9.322363915288697"><ele>218.5</ele><time>2026-04-25T16:14:31.001Z</time></trkpt><trkpt lat="45.88656265533999" lon="9.322473457461372"><ele>223.25</ele><time>2026-04-25T16:14:32.001Z</time></trkpt><trkpt lat="45.88646027814629" lon="9.3225862972548"><ele>228.0</ele><time>2026-04-25T16:14:33.001Z</time></trkpt><trkpt lat="45.88639849590237" lon="9.32277490166334"><ele>228.0</ele><time>2026-04-25T16:14:34.001Z</time></trkpt><trkpt lat="45.88633453724473" lon="9.322952381969007"><ele>228.0</ele><time>2026-04-25T16:14:35.001Z</time></trkpt><trkpt lat="45.886276405479464" lon="9.323096226796157"><ele>228.0</ele><time>2026-04-25T16:14:36.001Z</time></trkpt><trkpt lat="45.88620468230725" lon="9.323247965558325"><ele>228.0</ele><time>2026-04-25T16:14:37.001Z</time></trkpt><trkpt lat="45.8861245667686" lon="9.323368951437775"><ele>227.75</ele><time>2026-04-25T16:14:38.001Z</time></trkpt><trkpt lat="45.88602440904118" lon="9.323462540535104"><ele>227.5</ele><time>2026-04-25T16:14:39.001Z</time></trkpt><trkpt lat="45.885900520183384" lon="9.323531978532296"><ele>227.25</ele><time>2026-04-25T16:14:40.001Z</time></trkpt><trkpt lat="45.88576861685696" lon="9.323639070830586"><ele>227.0</ele><time>2026-04-25T16:14:41.001Z</time></trkpt><trkpt lat="45.885636926746855" lon="9.323729070658189"><ele>227.0</ele><time>2026-04-25T16:14:42.001Z</time></trkpt><trkpt lat="45.88551557483948" lon="9.323804293986473"><ele>227.0</ele><time>2026-04-25T16:14:43.001Z</time></trkpt><trkpt lat="45.885401702380925" lon="9.323894451997772"><ele>227.0</ele><time>2026-04-25T16:14:44.001Z</time></trkpt><trkpt lat="45.88529361561425" lon="9.323985857638329"><ele>227.0</ele><time>2026-04-25T16:14:45.001Z</time></trkpt><trkpt lat="45.88519846943769" lon="9.324106425978828"><ele>227.75</ele><time>2026-04-25T16:14:46.001Z</time></trkpt><trkpt lat="45.885104209550725" lon="9.32422382271257"><ele>228.5</ele><time>2026-04-25T16:14:47.001Z</time></trkpt><trkpt lat="45.885024091068004" lon="9.324344136325669"><ele>229.25</ele><time>2026-04-25T16:14:48.001Z</time></trkpt><trkpt lat="45.884962027997354" lon="9.324476683605454"><ele>230.0</ele><time>2026-04-25T16:14:49.001Z</time></trkpt><trkpt lat="45.88491709747283" lon="9.324643629600882"><ele>223.0</ele><time>2026-04-25T16:14:50.001Z</time></trkpt><trkpt lat="45.88488430490296" lon="9.324844606870451"><ele>216.0</ele><time>2026-04-25T16:14:51.001Z</time></trkpt><trkpt lat="45.88483045381687" lon="9.325049246915434"><ele>209.0</ele><time>2026-04-25T16:14:52.001Z</time></trkpt><trkpt lat="45.88477622526869" lon="9.325279718639434"><ele>209.0</ele><time>2026-04-25T16:14:53.001Z</time></trkpt><trkpt lat="45.88472363366838" lon="9.325505179962379"><ele>209.0</ele><time>2026-04-25T16:14:54.001Z</time></trkpt><trkpt lat="45.884676936519014" lon="9.325749055509934"><ele>209.0</ele><time>2026-04-25T16:14:55.001Z</time></trkpt><trkpt lat="45.88463271906918" lon="9.326000947196803"><ele>206.33333333333334</ele><time>2026-04-25T16:14:56.001Z</time></trkpt><trkpt lat="45.88458928063199" lon="9.326259404433117"><ele>203.66666666666669</ele><time>2026-04-25T16:14:57.001Z</time></trkpt><trkpt lat="45.8845475846086" lon="9.326512401405912"><ele>201.0</ele><time>2026-04-25T16:14:58.001Z</time></trkpt><trkpt lat="45.88450571270167" lon="9.326752347568068"><ele>201.0</ele><time>2026-04-25T16:14:59.001Z</time></trkpt><trkpt lat="45.88446988402163" lon="9.326993473801078"><ele>201.0</ele><time>2026-04-25T16:15:00.001Z</time></trkpt><trkpt lat="45.884441674832374" lon="9.327232224245247"><ele>201.0</ele><time>2026-04-25T16:15:01.001Z</time></trkpt><trkpt lat="45.884418113096295" lon="9.327452807225402"><ele>200.5</ele><time>2026-04-25T16:15:02.001Z</time></trkpt><trkpt lat="45.88439849053309" lon="9.32766142219631"><ele>200.0</ele><time>2026-04-25T16:15:03.001Z</time></trkpt><trkpt lat="45.884378398595494" lon="9.327865377214"><ele>199.5</ele><time>2026-04-25T16:15:04.001Z</time></trkpt><trkpt lat="45.884361849126954" lon="9.32805714491659"><ele>199.0</ele><time>2026-04-25T16:15:05.001Z</time></trkpt><trkpt lat="45.884343560408" lon="9.32826310733529"><ele>198.75</ele><time>2026-04-25T16:15:06.001Z</time></trkpt><trkpt lat="45.884329327320025" lon="9.328472954826827"><ele>198.5</ele><time>2026-04-25T16:15:07.001Z</time></trkpt><trkpt lat="45.88431250190878" lon="9.328681119936219"><ele>198.25</ele><time>2026-04-25T16:15:08.001Z</time></trkpt><trkpt lat="45.8843001257499" lon="9.328888930836113"><ele>198.0</ele><time>2026-04-25T16:15:09.001Z</time></trkpt><trkpt lat="45.88428576301491" lon="9.329087999931946"><ele>198.0</ele><time>2026-04-25T16:15:10.001Z</time></trkpt><trkpt lat="45.88427359408831" lon="9.329296252165825"><ele>198.0</ele><time>2026-04-25T16:15:11.001Z</time></trkpt><trkpt lat="45.88425922046566" lon="9.329503935553781"><ele>198.0</ele><time>2026-04-25T16:15:12.001Z</time></trkpt><trkpt lat="45.884246012548516" lon="9.329713621641172"><ele>198.0</ele><time>2026-04-25T16:15:13.001Z</time></trkpt><trkpt lat="45.884240621075854" lon="9.329918514643492"><ele>202.5</ele><time>2026-04-25T16:15:14.001Z</time></trkpt><trkpt lat="45.88424066377378" lon="9.330112758631499"><ele>207.0</ele><time>2026-04-25T16:15:15.001Z</time></trkpt><trkpt lat="45.88424378409339" lon="9.330294459565776"><ele>211.5</ele><time>2026-04-25T16:15:16.002Z</time></trkpt><trkpt lat="45.88424399402102" lon="9.330460806922568"><ele>216.0</ele><time>2026-04-25T16:15:17.002Z</time></trkpt><trkpt lat="45.884233082664245" lon="9.330634788777484"><ele>216.0</ele><time>2026-04-25T16:15:18.002Z</time></trkpt><trkpt lat="45.88420636460902" lon="9.33081257943297"><ele>216.0</ele><time>2026-04-25T16:15:19.002Z</time></trkpt><trkpt lat="45.88417005016289" lon="9.330990086200222"><ele>216.0</ele><time>2026-04-25T16:15:20.002Z</time></trkpt><trkpt lat="45.884107576223144" lon="9.331156552601199"><ele>216.0</ele><time>2026-04-25T16:15:21.002Z</time></trkpt><trkpt lat="45.88403810461728" lon="9.331321387970569"><ele>214.0</ele><time>2026-04-25T16:15:22.002Z</time></trkpt><trkpt lat="45.883964387093904" lon="9.331490586471089"><ele>212.0</ele><time>2026-04-25T16:15:23.002Z</time></trkpt><trkpt lat="45.88389340859182" lon="9.331667116232852"><ele>210.0</ele><time>2026-04-25T16:15:24.002Z</time></trkpt><trkpt lat="45.883819512748566" lon="9.331847329858514"><ele>208.0</ele><time>2026-04-25T16:15:25.002Z</time></trkpt><trkpt lat="45.88374753087633" lon="9.332034571496635"><ele>208.0</ele><time>2026-04-25T16:15:26.002Z</time></trkpt><trkpt lat="45.88366822980292" lon="9.332223136133821"><ele>208.0</ele><time>2026-04-25T16:15:27.002Z</time></trkpt><trkpt lat="45.88358549597126" lon="9.33243350909129"><ele>208.0</ele><time>2026-04-25T16:15:28.002Z</time></trkpt><trkpt lat="45.883496292212094" lon="9.332647497332974"><ele>208.0</ele><time>2026-04-25T16:15:29.002Z</time></trkpt><trkpt lat="45.883403850783175" lon="9.332874590832587"><ele>208.0</ele><time>2026-04-25T16:15:30.002Z</time></trkpt><trkpt lat="45.883312437249515" lon="9.333105709092582"><ele>208.0</ele><time>2026-04-25T16:15:31.002Z</time></trkpt><trkpt lat="45.883216837818296" lon="9.333339511980451"><ele>208.0</ele><time>2026-04-25T16:15:32.015Z</time></trkpt><trkpt lat="45.883120210123685" lon="9.333582343271457"><ele>208.0</ele><time>2026-04-25T16:15:33.019Z</time></trkpt><trkpt lat="45.88300035676356" lon="9.333824020982698"><ele>208.0</ele><time>2026-04-25T16:15:34.019Z</time></trkpt><trkpt lat="45.8828904373217" lon="9.334086740941451"><ele>208.0</ele><time>2026-04-25T16:15:35.014Z</time></trkpt><trkpt lat="45.882774211460706" lon="9.334364534001157"><ele>208.0</ele><time>2026-04-25T16:15:36.018Z</time></trkpt><trkpt lat="45.88265275750714" lon="9.33465433319844"><ele>392.0</ele><time>2026-04-25T16:15:37.019Z</time></trkpt><trkpt lat="45.881682743145824" lon="9.336875606215576"><ele>385.5</ele><time>2026-04-25T16:15:41.075Z</time></trkpt><trkpt lat="45.8814122449475" lon="9.337391145710642"><ele>379.0</ele><time>2026-04-25T16:15:42.075Z</time></trkpt><trkpt lat="45.8811482019561" lon="9.33790874787491"><ele>400.0</ele><time>2026-04-25T16:15:43.071Z</time></trkpt><trkpt lat="45.8809228" lon="9.3383789"><ele>421.0</ele><time>2026-04-25T16:15:44.074Z</time></trkpt><trkpt lat="45.87333048232446" lon="9.356417767712246"><ele>347.6666666666667</ele><time>2026-04-25T16:17:10.004Z</time></trkpt><trkpt lat="45.87327033848074" lon="9.356586239715918"><ele>274.33333333333337</ele><time>2026-04-25T16:17:11.004Z</time></trkpt><trkpt lat="45.87314583721181" lon="9.356791775341264"><ele>201.0</ele><time>2026-04-25T16:17:12.004Z</time></trkpt><trkpt lat="45.87303984960541" lon="9.356958889074019"><ele>201.0</ele><time>2026-04-25T16:17:13.004Z</time></trkpt><trkpt lat="45.87295052169943" lon="9.3571587682529"><ele>201.0</ele><time>2026-04-25T16:17:14.004Z</time></trkpt><trkpt lat="45.87281386015648" lon="9.357290347548314"><ele>201.0</ele><time>2026-04-25T16:17:15.004Z</time></trkpt><trkpt lat="45.872665279093745" lon="9.357426645346525"><ele>203.66666666666669</ele><time>2026-04-25T16:17:16.002Z</time></trkpt><trkpt lat="45.872499864492646" lon="9.357533042436986"><ele>206.33333333333334</ele><time>2026-04-25T16:17:17.002Z</time></trkpt><trkpt lat="45.87235523595516" lon="9.357615789847722"><ele>209.0</ele><time>2026-04-25T16:17:18.002Z</time></trkpt><trkpt lat="45.87221735566312" lon="9.357688995826246"><ele>209.0</ele><time>2026-04-25T16:17:19.002Z</time></trkpt><trkpt lat="45.87198499147102" lon="9.357833958997649"><ele>209.0</ele><time>2026-04-25T16:17:20.002Z</time></trkpt><trkpt lat="45.871814807445226" lon="9.35789694638545"><ele>209.0</ele><time>2026-04-25T16:17:21.002Z</time></trkpt><trkpt lat="45.871650902886294" lon="9.35798162665359"><ele>209.0</ele><time>2026-04-25T16:17:22.018Z</time></trkpt><trkpt lat="45.86925423853848" lon="9.359242374280464"><ele>209.0</ele><time>2026-04-25T16:17:26.078Z</time></trkpt><trkpt lat="45.8686647784746" lon="9.35954711184759"><ele>270.0</ele><time>2026-04-25T16:17:27.073Z</time></trkpt><trkpt lat="45.86808772702342" lon="9.359915175752963"><ele>270.0</ele><time>2026-04-25T16:17:28.078Z</time></trkpt><trkpt lat="45.8675671" lon="9.3603516"><ele>200.0</ele><time>2026-04-25T16:17:29.077Z</time></trkpt><trkpt lat="45.85882836491415" lon="9.365720590585251"><ele>200.0</ele><time>2026-04-25T16:18:44.002Z</time></trkpt><trkpt lat="45.85875519342651" lon="9.365704724325768"><ele>200.0</ele><time>2026-04-25T16:18:45.002Z</time></trkpt><trkpt lat="45.85865212727937" lon="9.365745031299195"><ele>200.0</ele><time>2026-04-25T16:18:46.002Z</time></trkpt><trkpt lat="45.858516541493" lon="9.365821411313952"><ele>200.0</ele><time>2026-04-25T16:18:47.002Z</time></trkpt><trkpt lat="45.858417355887404" lon="9.36587513048016"><ele>200.0</ele><time>2026-04-25T16:18:48.002Z</time></trkpt><trkpt lat="45.85833339383449" lon="9.365906083870952"><ele>200.2857142857143</ele><time>2026-04-25T16:18:49.002Z</time></trkpt><trkpt lat="45.85825616307539" lon="9.365909274164812"><ele>200.57142857142858</ele><time>2026-04-25T16:18:50.002Z</time></trkpt><trkpt lat="45.8581888314778" lon="9.365877495372098"><ele>200.85714285714286</ele><time>2026-04-25T16:18:51.002Z</time></trkpt><trkpt lat="45.85812184653866" lon="9.365838059513173"><ele>201.14285714285717</ele><time>2026-04-25T16:18:52.002Z</time></trkpt><trkpt lat="45.85804532075246" lon="9.36580131663881"><ele>201.42857142857142</ele><time>2026-04-25T16:18:53.002Z</time></trkpt><trkpt lat="45.85796699229437" lon="9.365797625970025"><ele>201.71428571428572</ele><time>2026-04-25T16:18:54.002Z</time></trkpt><trkpt lat="45.85789825687136" lon="9.365800005332092"><ele>202.0</ele><time>2026-04-25T16:18:55.002Z</time></trkpt><trkpt lat="45.857832470814465" lon="9.365806120958581"><ele>201.99999999999997</ele><time>2026-04-25T16:18:56.002Z</time></trkpt><trkpt lat="45.85776226701679" lon="9.365813613115453"><ele>202.0</ele><time>2026-04-25T16:18:57.002Z</time></trkpt><trkpt lat="45.85769134868131" lon="9.365819875362261"><ele>202.0</ele><time>2026-04-25T16:18:58.002Z</time></trkpt><trkpt lat="45.857613033493" lon="9.365823166790591"><ele>202.0</ele><time>2026-04-25T16:18:59.002Z</time></trkpt><trkpt lat="45.8574766393773" lon="9.365832693659584"><ele>201.99999999999997</ele><time>2026-04-25T16:19:01.002Z</time></trkpt><trkpt lat="45.85741028211944" lon="9.365845627197007"><ele>202.0</ele><time>2026-04-25T16:19:02.002Z</time></trkpt><trkpt lat="45.85734139763994" lon="9.365959053265527"><ele>201.39999999999998</ele><time>2026-04-25T16:19:04.002Z</time></trkpt><trkpt lat="45.857374210569716" lon="9.366126864586997"><ele>200.79999999999998</ele><time>2026-04-25T16:19:06.002Z</time></trkpt><trkpt lat="45.85738857144507" lon="9.366286881449083"><ele>200.2</ele><time>2026-04-25T16:19:08.002Z</time></trkpt><trkpt lat="45.857362241162356" lon="9.36637665063773"><ele>199.6</ele><time>2026-04-25T16:19:09.002Z</time></trkpt><trkpt lat="45.85732372336885" lon="9.366472462432638"><ele>199.0</ele><time>2026-04-25T16:19:10.002Z</time></trkpt><trkpt lat="45.85729483495041" lon="9.366568925909567"><ele>199.0</ele><time>2026-04-25T16:19:11.002Z</time></trkpt><trkpt lat="45.85728333915099" lon="9.366669348551412"><ele>199.0</ele><time>2026-04-25T16:19:12.002Z</time></trkpt><trkpt lat="45.85729451430649" lon="9.366765315132962"><ele>199.0</ele><time>2026-04-25T16:19:13.002Z</time></trkpt><trkpt lat="45.857358487648625" lon="9.366943298984575"><ele>199.0</ele><time>2026-04-25T16:19:15.002Z</time></trkpt><trkpt lat="45.8574085101278" lon="9.36707324370768"><ele>199.0</ele><time>2026-04-25T16:19:16.002Z</time></trkpt><trkpt lat="45.857452982374" lon="9.367166343731428"><ele>198.79999999999998</ele><time>2026-04-25T16:19:17.002Z</time></trkpt><trkpt lat="45.85749210269736" lon="9.367280901204722"><ele>198.6</ele><time>2026-04-25T16:19:18.002Z</time></trkpt><trkpt lat="45.857546488891565" lon="9.367398743051211"><ele>198.4</ele><time>2026-04-25T16:19:19.002Z</time></trkpt><trkpt lat="45.85760594003604" lon="9.367524382766796"><ele>198.2</ele><time>2026-04-25T16:19:20.002Z</time></trkpt><trkpt lat="45.85766019864269" lon="9.367634836382749"><ele>198.0</ele><time>2026-04-25T16:19:21.002Z</time></trkpt><trkpt lat="45.857711922138876" lon="9.367745650755127"><ele>198.0</ele><time>2026-04-25T16:19:22.002Z</time></trkpt><trkpt lat="45.85776415447504" lon="9.367862621226925"><ele>198.0</ele><time>2026-04-25T16:19:23.002Z</time></trkpt><trkpt lat="45.857817326260324" lon="9.367967311945442"><ele>198.0</ele><time>2026-04-25T16:19:24.002Z</time></trkpt><trkpt lat="45.85785522164689" lon="9.368077681062813"><ele>198.0</ele><time>2026-04-25T16:19:25.002Z</time></trkpt><trkpt lat="45.857871785742844" lon="9.368193251049014"><ele>198.0</ele><time>2026-04-25T16:19:26.002Z</time></trkpt><trkpt lat="45.85786302075218" lon="9.368329675390173"><ele>198.25</ele><time>2026-04-25T16:19:27.002Z</time></trkpt><trkpt lat="45.857839536123706" lon="9.368476994559288"><ele>198.5</ele><time>2026-04-25T16:19:28.002Z</time></trkpt><trkpt lat="45.85781658791084" lon="9.368644818260309"><ele>198.75</ele><time>2026-04-25T16:19:29.002Z</time></trkpt><trkpt lat="45.85780333032392" lon="9.368823535553336"><ele>199.0</ele><time>2026-04-25T16:19:30.002Z</time></trkpt><trkpt lat="45.85779374161269" lon="9.369019738969294"><ele>199.0</ele><time>2026-04-25T16:19:31.001Z</time></trkpt><trkpt lat="45.857781557515565" lon="9.369199097388439"><ele>199.0</ele><time>2026-04-25T16:19:32.001Z</time></trkpt><trkpt lat="45.857767113262746" lon="9.369373622578486"><ele>199.0</ele><time>2026-04-25T16:19:33.001Z</time></trkpt><trkpt lat="45.85775452646224" lon="9.369554190833755"><ele>199.0</ele><time>2026-04-25T16:19:34.001Z</time></trkpt><trkpt lat="45.85774012628954" lon="9.369740861209298"><ele>199.0</ele><time>2026-04-25T16:19:35.001Z</time></trkpt><trkpt lat="45.85772627141069" lon="9.369919775443973"><ele>199.0</ele><time>2026-04-25T16:19:36.001Z</time></trkpt><trkpt lat="45.857708615048494" lon="9.370087734299956"><ele>199.0</ele><time>2026-04-25T16:19:37.001Z</time></trkpt><trkpt lat="45.85769336478136" lon="9.37024384151369"><ele>199.0</ele><time>2026-04-25T16:19:38.001Z</time></trkpt><trkpt lat="45.85770252879642" lon="9.370405610204799"><ele>200.0</ele><time>2026-04-25T16:19:39.001Z</time></trkpt><trkpt lat="45.857744064295446" lon="9.37058024851197"><ele>201.0</ele><time>2026-04-25T16:19:40.001Z</time></trkpt><trkpt lat="45.85780603457384" lon="9.370748716554255"><ele>202.0</ele><time>2026-04-25T16:19:41.001Z</time></trkpt><trkpt lat="45.85787479150074" lon="9.370910388570227"><ele>203.0</ele><time>2026-04-25T16:19:42.001Z</time></trkpt><trkpt lat="45.8579372562055" lon="9.371060179526488"><ele>203.0</ele><time>2026-04-25T16:19:43.001Z</time></trkpt><trkpt lat="45.85798541396313" lon="9.371207202946914"><ele>203.0</ele><time>2026-04-25T16:19:44.001Z</time></trkpt><trkpt lat="45.85800114348447" lon="9.371349467086397"><ele>203.0</ele><time>2026-04-25T16:19:45.001Z</time></trkpt><trkpt lat="45.858001035753006" lon="9.37150068587886"><ele>203.0</ele><time>2026-04-25T16:19:46.001Z</time></trkpt><trkpt lat="45.857978636974444" lon="9.371648693712569"><ele>203.0</ele><time>2026-04-25T16:19:47.001Z</time></trkpt><trkpt lat="45.85793352107292" lon="9.371788213958451"><ele>203.0</ele><time>2026-04-25T16:19:48.001Z</time></trkpt><trkpt lat="45.85785420283308" lon="9.371897119686029"><ele>203.0</ele><time>2026-04-25T16:19:49.001Z</time></trkpt><trkpt lat="45.85776341434056" lon="9.371996119519716"><ele>203.0</ele><time>2026-04-25T16:19:50.001Z</time></trkpt><trkpt lat="45.85765798728008" lon="9.372109703166648"><ele>203.0</ele><time>2026-04-25T16:19:51.001Z</time></trkpt><trkpt lat="45.85754629480575" lon="9.372229839582479"><ele>207.75</ele><time>2026-04-25T16:19:52.001Z</time></trkpt><trkpt lat="45.857428809950626" lon="9.372388479076827"><ele>212.5</ele><time>2026-04-25T16:19:53.001Z</time></trkpt><trkpt lat="45.85731249381569" lon="9.372527130182052"><ele>217.25</ele><time>2026-04-25T16:19:54.001Z</time></trkpt><trkpt lat="45.85721911830582" lon="9.372670946662755"><ele>222.0</ele><time>2026-04-25T16:19:55.001Z</time></trkpt><trkpt lat="45.857150989042125" lon="9.372804189888065"><ele>222.0</ele><time>2026-04-25T16:19:56.001Z</time></trkpt><trkpt lat="45.85708635710009" lon="9.372961611363301"><ele>222.0</ele><time>2026-04-25T16:19:57.001Z</time></trkpt><trkpt lat="45.857006858047455" lon="9.373132367110474"><ele>222.0</ele><time>2026-04-25T16:19:58.001Z</time></trkpt><trkpt lat="45.85692629843518" lon="9.373304724181173"><ele>222.0</ele><time>2026-04-25T16:19:59.001Z</time></trkpt><trkpt lat="45.85684582497472" lon="9.37348703395133"><ele>221.0</ele><time>2026-04-25T16:20:00.001Z</time></trkpt><trkpt lat="45.85676911181183" lon="9.373647102612367"><ele>220.0</ele><time>2026-04-25T16:20:01.001Z</time></trkpt><trkpt lat="45.856697260383456" lon="9.373796913974171"><ele>219.0</ele><time>2026-04-25T16:20:02.001Z</time></trkpt><trkpt lat="45.856624773863935" lon="9.373938123872641"><ele>218.0</ele><time>2026-04-25T16:20:03.001Z</time></trkpt><trkpt lat="45.85655617090273" lon="9.374070744107431"><ele>218.0</ele><time>2026-04-25T16:20:04.001Z</time></trkpt><trkpt lat="45.85648506272471" lon="9.374190122438106"><ele>218.0</ele><time>2026-04-25T16:20:05.001Z</time></trkpt><trkpt lat="45.85641110318295" lon="9.37429477208459"><ele>218.0</ele><time>2026-04-25T16:20:06.001Z</time></trkpt><trkpt lat="45.85632951923786" lon="9.374367562780574"><ele>218.0</ele><time>2026-04-25T16:20:07.001Z</time></trkpt><trkpt lat="45.856243241624966" lon="9.374416053687494"><ele>218.0</ele><time>2026-04-25T16:20:08.001Z</time></trkpt><trkpt lat="45.85616519104314" lon="9.374464863955163"><ele>218.0</ele><time>2026-04-25T16:20:09.001Z</time></trkpt><trkpt lat="45.85609363989747" lon="9.374513843052465"><ele>218.0</ele><time>2026-04-25T16:20:10.001Z</time></trkpt><trkpt lat="45.85601871786674" lon="9.374525044649449"><ele>218.0</ele><time>2026-04-25T16:20:11.001Z</time></trkpt><trkpt lat="45.85594772049314" lon="9.374513414929277"><ele>218.0</ele><time>2026-04-25T16:20:12.001Z</time></trkpt><trkpt lat="45.85587791210843" lon="9.374480851137845"><ele>218.0</ele><time>2026-04-25T16:20:13.001Z</time></trkpt><trkpt lat="45.85581488136363" lon="9.374455546870973"><ele>218.0</ele><time>2026-04-25T16:20:14.001Z</time></trkpt><trkpt lat="45.855745131566216" lon="9.374448247959666"><ele>218.0</ele><time>2026-04-25T16:20:15.001Z</time></trkpt><trkpt lat="45.855676558751846" lon="9.374431290872169"><ele>218.33333333333334</ele><time>2026-04-25T16:20:16.001Z</time></trkpt><trkpt lat="45.8555927254224" lon="9.374424680607778"><ele>218.66666666666669</ele><time>2026-04-25T16:20:17.001Z</time></trkpt><trkpt lat="45.855507875292886" lon="9.374422420708276"><ele>219.0</ele><time>2026-04-25T16:20:18.001Z</time></trkpt><trkpt lat="45.8554251340201" lon="9.374407953433908"><ele>219.33333333333331</ele><time>2026-04-25T16:20:19.001Z</time></trkpt><trkpt lat="45.85533834094925" lon="9.37439486482526"><ele>219.66666666666666</ele><time>2026-04-25T16:20:20.001Z</time></trkpt><trkpt lat="45.85524470261804" lon="9.374387204529565"><ele>220.0</ele><time>2026-04-25T16:20:21.001Z</time></trkpt><trkpt lat="45.85514745933248" lon="9.374379927997085"><ele>220.2</ele><time>2026-04-25T16:20:22.001Z</time></trkpt><trkpt lat="45.85505036220093" lon="9.37438584094527"><ele>220.4</ele><time>2026-04-25T16:20:23.001Z</time></trkpt><trkpt lat="45.85495288793157" lon="9.374396967542408"><ele>220.60000000000002</ele><time>2026-04-25T16:20:24.001Z</time></trkpt><trkpt lat="45.85486147542886" lon="9.374425099972841"><ele>220.8</ele><time>2026-04-25T16:20:25.001Z</time></trkpt><trkpt lat="45.85477537452589" lon="9.374446007741334"><ele>221.0</ele><time>2026-04-25T16:20:26.001Z</time></trkpt><trkpt lat="45.85469072913494" lon="9.374470790107646"><ele>221.00000000000003</ele><time>2026-04-25T16:20:27.001Z</time></trkpt><trkpt lat="45.85459846652834" lon="9.374487973289348"><ele>221.0</ele><time>2026-04-25T16:20:28.001Z</time></trkpt><trkpt lat="45.85450742293696" lon="9.374496918770793"><ele>221.0</ele><time>2026-04-25T16:20:29.001Z</time></trkpt><trkpt lat="45.854424014890995" lon="9.374501419798916"><ele>221.0</ele><time>2026-04-25T16:20:30.001Z</time></trkpt><trkpt lat="45.85434473612165" lon="9.374505697946182"><ele>221.00000000000003</ele><time>2026-04-25T16:20:31.001Z</time></trkpt><trkpt lat="45.85426005851249" lon="9.374496219887652"><ele>221.0</ele><time>2026-04-25T16:20:32.001Z</time></trkpt><trkpt lat="45.854175810763415" lon="9.374502205885392"><ele>219.83333333333334</ele><time>2026-04-25T16:20:33.001Z</time></trkpt><trkpt lat="45.854084395230934" lon="9.37451293593689"><ele>218.66666666666669</ele><time>2026-04-25T16:20:34.001Z</time></trkpt><trkpt lat="45.85399642155102" lon="9.374526577613336"><ele>217.5</ele><time>2026-04-25T16:20:35.001Z</time></trkpt><trkpt lat="45.85391206419235" lon="9.374553624600022"><ele>216.33333333333331</ele><time>2026-04-25T16:20:36.001Z</time></trkpt><trkpt lat="45.853828073883385" lon="9.374595985404858"><ele>215.16666666666666</ele><time>2026-04-25T16:20:37.001Z</time></trkpt><trkpt lat="45.8537433591941" lon="9.374620976515462"><ele>214.0</ele><time>2026-04-25T16:20:38.001Z</time></trkpt><trkpt lat="45.853664374324474" lon="9.374667572566624"><ele>213.14285714285717</ele><time>2026-04-25T16:20:39.001Z</time></trkpt><trkpt lat="45.85358801991874" lon="9.374709550318707"><ele>212.28571428571428</ele><time>2026-04-25T16:20:40.001Z</time></trkpt><trkpt lat="45.85351459173703" lon="9.374753495696645"><ele>211.42857142857144</ele><time>2026-04-25T16:20:41.001Z</time></trkpt><trkpt lat="45.85344643762049" lon="9.374792763000768"><ele>210.57142857142858</ele><time>2026-04-25T16:20:42.001Z</time></trkpt><trkpt lat="45.853381362543004" lon="9.374827198428353"><ele>209.71428571428572</ele><time>2026-04-25T16:20:43.001Z</time></trkpt><trkpt lat="45.853314824302664" lon="9.374858392835465"><ele>208.85714285714286</ele><time>2026-04-25T16:20:44.001Z</time></trkpt><trkpt lat="45.853250656217405" lon="9.374895631285558"><ele>208.0</ele><time>2026-04-25T16:20:45.001Z</time></trkpt><trkpt lat="45.853190474578234" lon="9.374940350479699"><ele>207.99999999999997</ele><time>2026-04-25T16:20:46.001Z</time></trkpt><trkpt lat="45.8531234636536" lon="9.374964187075552"><ele>208.0</ele><time>2026-04-25T16:20:47.001Z</time></trkpt><trkpt lat="45.85306560469571" lon="9.37500300089357"><ele>208.0</ele><time>2026-04-25T16:20:48.001Z</time></trkpt><trkpt lat="45.852959427566645" lon="9.37508692453016"><ele>208.0</ele><time>2026-04-25T16:20:50.001Z</time></trkpt><trkpt lat="45.85290329103347" lon="9.375129361511133"><ele>207.99999999999997</ele><time>2026-04-25T16:20:51.001Z</time></trkpt><trkpt lat="45.85284472220404" lon="9.375185499960839"><ele>208.0</ele><time>2026-04-25T16:20:52.001Z</time></trkpt><trkpt lat="45.85275098177668" lon="9.375256327814569"><ele>207.99999999999997</ele><time>2026-04-25T16:20:54.001Z</time></trkpt><trkpt lat="45.852666320889675" lon="9.375329079714694"><ele>208.0</ele><time>2026-04-25T16:20:56.001Z</time></trkpt><trkpt lat="45.85258443951155" lon="9.375398858942466"><ele>208.0</ele><time>2026-04-25T16:20:58.001Z</time></trkpt><trkpt lat="45.85250497362536" lon="9.375474461802565"><ele>208.0</ele><time>2026-04-25T16:21:00.002Z</time></trkpt><trkpt lat="45.85244462776204" lon="9.375537841840936"><ele>207.99999999999997</ele><time>2026-04-25T16:21:02.002Z</time></trkpt><trkpt lat="45.85239730267071" lon="9.375612832770889"><ele>208.0</ele><time>2026-04-25T16:21:04.002Z</time></trkpt><trkpt lat="45.85232016695126" lon="9.375700932639017"><ele>208.0</ele><time>2026-04-25T16:21:06.002Z</time></trkpt><trkpt lat="45.85224083169079" lon="9.375834762785976"><ele>208.0</ele><time>2026-04-25T16:21:08.002Z</time></trkpt><trkpt lat="45.85220116266826" lon="9.37591884865872"><ele>208.0</ele><time>2026-04-25T16:21:09.002Z</time></trkpt><trkpt lat="45.85216892821027" lon="9.376030084752998"><ele>208.0</ele><time>2026-04-25T16:21:10.002Z</time></trkpt><trkpt lat="45.85210802399317" lon="9.376129569185018"><ele>208.0</ele><time>2026-04-25T16:21:11.002Z</time></trkpt><trkpt lat="45.85205539167017" lon="9.376234839697648"><ele>207.99999999999997</ele><time>2026-04-25T16:21:12.002Z</time></trkpt><trkpt lat="45.85200509471641" lon="9.376329576072296"><ele>208.0</ele><time>2026-04-25T16:21:13.002Z</time></trkpt><trkpt lat="45.85195534426816" lon="9.376420892087662"><ele>208.0</ele><time>2026-04-25T16:21:14.002Z</time></trkpt><trkpt lat="45.85191053053787" lon="9.376496891080512"><ele>208.0</ele><time>2026-04-25T16:21:15.002Z</time></trkpt><trkpt lat="45.85186508919795" lon="9.376563820419904"><ele>207.99999999999997</ele><time>2026-04-25T16:21:16.002Z</time></trkpt><trkpt lat="45.851821054434815" lon="9.376633686600872"><ele>208.0</ele><time>2026-04-25T16:21:18.002Z</time></trkpt><trkpt lat="45.851737810839836" lon="9.376773801136697"><ele>208.66666666666666</ele><time>2026-04-25T16:21:20.002Z</time></trkpt><trkpt lat="45.851692605245724" lon="9.376858166338282"><ele>209.33333333333331</ele><time>2026-04-25T16:21:21.002Z</time></trkpt><trkpt lat="45.85165373492355" lon="9.376949149164092"><ele>210.0</ele><time>2026-04-25T16:21:22.002Z</time></trkpt><trkpt lat="45.85160909379529" lon="9.377058098066062"><ele>210.66666666666669</ele><time>2026-04-25T16:21:23.002Z</time></trkpt><trkpt lat="45.85155593764092" lon="9.377172502971769"><ele>211.33333333333334</ele><time>2026-04-25T16:21:24.002Z</time></trkpt><trkpt lat="45.85150333358325" lon="9.377296421346777"><ele>212.0</ele><time>2026-04-25T16:21:25.002Z</time></trkpt><trkpt lat="45.85144767057408" lon="9.377426251655775"><ele>210.39999999999998</ele><time>2026-04-25T16:21:26.002Z</time></trkpt><trkpt lat="45.85139450984178" lon="9.377542571121008"><ele>208.79999999999998</ele><time>2026-04-25T16:21:27.002Z</time></trkpt><trkpt lat="45.85134365809755" lon="9.377660861959072"><ele>207.2</ele><time>2026-04-25T16:21:27.999Z</time></trkpt><trkpt lat="45.851292314978416" lon="9.377789432920887"><ele>205.6</ele><time>2026-04-25T16:21:28.999Z</time></trkpt><trkpt lat="45.85123361152683" lon="9.37791014622159"><ele>204.0</ele><time>2026-04-25T16:21:29.999Z</time></trkpt><trkpt lat="45.851173650420854" lon="9.378043310530883"><ele>203.0</ele><time>2026-04-25T16:21:30.999Z</time></trkpt><trkpt lat="45.85110848673735" lon="9.3781791562345"><ele>202.0</ele><time>2026-04-25T16:21:31.999Z</time></trkpt><trkpt lat="45.85104502872735" lon="9.37832645606972"><ele>201.0</ele><time>2026-04-25T16:21:32.999Z</time></trkpt><trkpt lat="45.850974723023626" lon="9.378474021942978"><ele>200.0</ele><time>2026-04-25T16:21:33.999Z</time></trkpt><trkpt lat="45.85090620883056" lon="9.378636862063574"><ele>202.25</ele><time>2026-04-25T16:21:34.999Z</time></trkpt><trkpt lat="45.85083382509553" lon="9.378805903844412"><ele>204.5</ele><time>2026-04-25T16:21:35.999Z</time></trkpt><trkpt lat="45.850761173185205" lon="9.378975877666507"><ele>206.75</ele><time>2026-04-25T16:21:36.999Z</time></trkpt><trkpt lat="45.85069308035674" lon="9.37913790248339"><ele>209.0</ele><time>2026-04-25T16:21:37.999Z</time></trkpt><trkpt lat="45.85062260725366" lon="9.379295321312807"><ele>209.0</ele><time>2026-04-25T16:21:38.999Z</time></trkpt><trkpt lat="45.85055595171" lon="9.379452750725537"><ele>209.0</ele><time>2026-04-25T16:21:39.999Z</time></trkpt><trkpt lat="45.85047729436771" lon="9.379613226081268"><ele>209.0</ele><time>2026-04-25T16:21:40.999Z</time></trkpt><trkpt lat="45.850403622631866" lon="9.379795881557882"><ele>209.0</ele><time>2026-04-25T16:21:41.999Z</time></trkpt><trkpt lat="45.850330646528896" lon="9.379977421080628"><ele>208.75</ele><time>2026-04-25T16:21:42.999Z</time></trkpt><trkpt lat="45.85024916147657" lon="9.3801532402193"><ele>208.5</ele><time>2026-04-25T16:21:43.999Z</time></trkpt><trkpt lat="45.85017143709006" lon="9.38033670344231"><ele>208.25</ele><time>2026-04-25T16:21:44.999Z</time></trkpt><trkpt lat="45.85009700649481" lon="9.380516383558788"><ele>208.0</ele><time>2026-04-25T16:21:45.999Z</time></trkpt><trkpt lat="45.85001978751445" lon="9.380698339008784"><ele>208.0</ele><time>2026-04-25T16:21:46.999Z</time></trkpt><trkpt lat="45.84995079164558" lon="9.380871064819441"><ele>208.0</ele><time>2026-04-25T16:21:47.999Z</time></trkpt><trkpt lat="45.849891526700304" lon="9.381035907212327"><ele>208.0</ele><time>2026-04-25T16:21:48.999Z</time></trkpt><trkpt lat="45.849841799087045" lon="9.381185540842273"><ele>208.0</ele><time>2026-04-25T16:21:49.999Z</time></trkpt><trkpt lat="45.84979373305194" lon="9.381322808356556"><ele>207.16666666666666</ele><time>2026-04-25T16:21:50.999Z</time></trkpt><trkpt lat="45.849753727729194" lon="9.381444099003016"><ele>206.33333333333331</ele><time>2026-04-25T16:21:51.999Z</time></trkpt><trkpt lat="45.84971704125348" lon="9.381550009434505"><ele>205.5</ele><time>2026-04-25T16:21:52.999Z</time></trkpt><trkpt lat="45.84968362259171" lon="9.381644824586523"><ele>204.66666666666669</ele><time>2026-04-25T16:21:53.999Z</time></trkpt><trkpt lat="45.8496563070498" lon="9.38173120792802"><ele>203.83333333333334</ele><time>2026-04-25T16:21:55Z</time></trkpt><trkpt lat="45.84961462784655" lon="9.381865417684832"><ele>203.0</ele><time>2026-04-25T16:21:57Z</time></trkpt><trkpt lat="45.8495711873696" lon="9.381982293451735"><ele>203.00000000000003</ele><time>2026-04-25T16:21:59Z</time></trkpt><trkpt lat="45.849525566933906" lon="9.382091974648189"><ele>203.0</ele><time>2026-04-25T16:22:01Z</time></trkpt><trkpt lat="45.84949242657142" lon="9.382170143270585"><ele>203.0</ele><time>2026-04-25T16:22:02Z</time></trkpt><trkpt lat="45.84946018531113" lon="9.382267439358502"><ele>203.0</ele><time>2026-04-25T16:22:03Z</time></trkpt><trkpt lat="45.84942599466569" lon="9.38236854134871"><ele>203.00000000000003</ele><time>2026-04-25T16:22:04Z</time></trkpt><trkpt lat="45.84939052019603" lon="9.382487270799327"><ele>203.0</ele><time>2026-04-25T16:22:05Z</time></trkpt><trkpt lat="45.84935208098339" lon="9.38260744437564"><ele>203.4</ele><time>2026-04-25T16:22:06Z</time></trkpt><trkpt lat="45.84930976720322" lon="9.382730211934108"><ele>203.8</ele><time>2026-04-25T16:22:07Z</time></trkpt><trkpt lat="45.84927098845582" lon="9.382838304380183"><ele>204.2</ele><time>2026-04-25T16:22:08Z</time></trkpt><trkpt lat="45.849233155679634" lon="9.382955121360506"><ele>204.6</ele><time>2026-04-25T16:22:09Z</time></trkpt><trkpt lat="45.849188864319835" lon="9.383081152798288"><ele>205.0</ele><time>2026-04-25T16:22:10Z</time></trkpt><trkpt lat="45.84913233928174" lon="9.383214787568354"><ele>205.0</ele><time>2026-04-25T16:22:11Z</time></trkpt><trkpt lat="45.8490746109971" lon="9.383353256416921"><ele>205.0</ele><time>2026-04-25T16:22:12Z</time></trkpt><trkpt lat="45.84901831274614" lon="9.383495605900286"><ele>205.0</ele><time>2026-04-25T16:22:13Z</time></trkpt><trkpt lat="45.848966621891385" lon="9.383647948277373"><ele>205.0</ele><time>2026-04-25T16:22:14Z</time></trkpt><trkpt lat="45.848920720176615" lon="9.383806672282327"><ele>203.25</ele><time>2026-04-25T16:22:15Z</time></trkpt><trkpt lat="45.84888466219594" lon="9.383974096910077"><ele>201.5</ele><time>2026-04-25T16:22:16Z</time></trkpt><trkpt lat="45.84885373593311" lon="9.384147665026312"><ele>199.75</ele><time>2026-04-25T16:22:17Z</time></trkpt><trkpt lat="45.84882727406422" lon="9.384324158000421"><ele>198.0</ele><time>2026-04-25T16:22:18Z</time></trkpt><trkpt lat="45.84880378050375" lon="9.384482393341017"><ele>198.0</ele><time>2026-04-25T16:22:19Z</time></trkpt><trkpt lat="45.848782079836006" lon="9.384637105525425"><ele>198.0</ele><time>2026-04-25T16:22:20Z</time></trkpt><trkpt lat="45.84875777630054" lon="9.384783072859763"><ele>198.0</ele><time>2026-04-25T16:22:21Z</time></trkpt><trkpt lat="45.84873773082845" lon="9.384911984203567"><ele>198.0</ele><time>2026-04-25T16:22:22Z</time></trkpt><trkpt lat="45.84871824519022" lon="9.385029888690601"><ele>198.0</ele><time>2026-04-25T16:22:23Z</time></trkpt><trkpt lat="45.84869629838549" lon="9.385145045156754"><ele>198.0</ele><time>2026-04-25T16:22:24Z</time></trkpt><trkpt lat="45.84867318231542" lon="9.385255939882782"><ele>198.0</ele><time>2026-04-25T16:22:25Z</time></trkpt><trkpt lat="45.84865183589087" lon="9.385359814341088"><ele>198.0</ele><time>2026-04-25T16:22:26Z</time></trkpt><trkpt lat="45.84862817858767" lon="9.385448336711454"><ele>198.0</ele><time>2026-04-25T16:22:27Z</time></trkpt><trkpt lat="45.848584119747336" lon="9.385612281370545"><ele>198.0</ele><time>2026-04-25T16:22:29Z</time></trkpt><trkpt lat="45.84854986914589" lon="9.385736012331394"><ele>198.0</ele><time>2026-04-25T16:22:31Z</time></trkpt><trkpt lat="45.848525624763134" lon="9.385840415678418"><ele>198.0</ele><time>2026-04-25T16:22:34Z</time></trkpt><trkpt lat="45.84850914576666" lon="9.385947655165152"><ele>198.0</ele><time>2026-04-25T16:22:36Z</time></trkpt><trkpt lat="45.84846232807597" lon="9.386099045913996"><ele>198.0</ele><time>2026-04-25T16:22:38Z</time></trkpt><trkpt lat="45.848400133920165" lon="9.386208571680212"><ele>198.0</ele><time>2026-04-25T16:22:40Z</time></trkpt><trkpt lat="45.84833510120283" lon="9.386280774466078"><ele>198.0</ele><time>2026-04-25T16:22:43Z</time></trkpt><trkpt lat="45.84828116820548" lon="9.38633975818221"><ele>198.0</ele><time>2026-04-25T16:22:46Z</time></trkpt><trkpt lat="45.848223927881044" lon="9.386384855300177"><ele>199.0</ele><time>2026-04-25T16:23:01.001Z</time></trkpt><trkpt lat="45.84811839371669" lon="9.38648581948764"><ele>200.0</ele><time>2026-04-25T16:23:03.001Z</time></trkpt><trkpt lat="45.8480507805789" lon="9.386588885755186"><ele>201.0</ele><time>2026-04-25T16:23:05.001Z</time></trkpt><trkpt lat="45.848007515149334" lon="9.3866992100252"><ele>202.0</ele><time>2026-04-25T16:23:07.001Z</time></trkpt><trkpt lat="45.847951576384894" lon="9.386816696224662"><ele>203.0</ele><time>2026-04-25T16:23:09.001Z</time></trkpt><trkpt lat="45.847914282480815" lon="9.386903778336212"><ele>203.0</ele><time>2026-04-25T16:23:11.001Z</time></trkpt><trkpt lat="45.84787453245144" lon="9.387011705915553"><ele>203.0</ele><time>2026-04-25T16:23:13.001Z</time></trkpt><trkpt lat="45.8478269479611" lon="9.387169066488905"><ele>203.0</ele><time>2026-04-25T16:23:15.001Z</time></trkpt><trkpt lat="45.847829184994765" lon="9.387345974420127"><ele>203.0</ele><time>2026-04-25T16:23:17.001Z</time></trkpt><trkpt lat="45.847851756674146" lon="9.387440349186097"><ele>203.0</ele><time>2026-04-25T16:23:18.001Z</time></trkpt><trkpt lat="45.84788244555223" lon="9.387530307640205"><ele>202.50000000000003</ele><time>2026-04-25T16:23:19.001Z</time></trkpt><trkpt lat="45.847906374252744" lon="9.387623753968926"><ele>202.0</ele><time>2026-04-25T16:23:20.001Z</time></trkpt><trkpt lat="45.84791325309583" lon="9.38775206299506"><ele>201.5</ele><time>2026-04-25T16:23:21.001Z</time></trkpt><trkpt lat="45.84792202860093" lon="9.387867319512521"><ele>201.0</ele><time>2026-04-25T16:23:22.001Z</time></trkpt><trkpt lat="45.84792902325414" lon="9.387977799991516"><ele>200.50000000000003</ele><time>2026-04-25T16:23:23.001Z</time></trkpt><trkpt lat="45.847933676360356" lon="9.388084106266964"><ele>200.0</ele><time>2026-04-25T16:23:24.001Z</time></trkpt><trkpt lat="45.84794112043225" lon="9.388201110485921"><ele>199.83333333333334</ele><time>2026-04-25T16:23:25.001Z</time></trkpt><trkpt lat="45.84794559853966" lon="9.388321990485446"><ele>199.66666666666669</ele><time>2026-04-25T16:23:26.001Z</time></trkpt><trkpt lat="45.847945944368064" lon="9.388443559785129"><ele>199.5</ele><time>2026-04-25T16:23:27.001Z</time></trkpt><trkpt lat="45.84794481972544" lon="9.38856059969361"><ele>199.33333333333331</ele><time>2026-04-25T16:23:28.001Z</time></trkpt><trkpt lat="45.847939825509975" lon="9.38868025630844"><ele>199.16666666666666</ele><time>2026-04-25T16:23:29.001Z</time></trkpt><trkpt lat="45.84793503129785" lon="9.3887999485488"><ele>199.0</ele><time>2026-04-25T16:23:30.001Z</time></trkpt><trkpt lat="45.847929424403986" lon="9.388918226233695"><ele>198.83333333333331</ele><time>2026-04-25T16:23:31.001Z</time></trkpt><trkpt lat="45.847922295869495" lon="9.389047387055138"><ele>198.66666666666666</ele><time>2026-04-25T16:23:32.001Z</time></trkpt><trkpt lat="45.847910865644984" lon="9.389172370867142"><ele>198.5</ele><time>2026-04-25T16:23:33.001Z</time></trkpt><trkpt lat="45.84789823103017" lon="9.38928596974856"><ele>198.33333333333331</ele><time>2026-04-25T16:23:33.997Z</time></trkpt><trkpt lat="45.84788017750673" lon="9.389391402882772"><ele>198.16666666666666</ele><time>2026-04-25T16:23:34.997Z</time></trkpt><trkpt lat="45.847857753266396" lon="9.389505296899582"><ele>198.0</ele><time>2026-04-25T16:23:35.997Z</time></trkpt><trkpt lat="45.84782869684701" lon="9.3896184964143"><ele>198.0</ele><time>2026-04-25T16:23:36.997Z</time></trkpt><trkpt lat="45.84779853039641" lon="9.38973941987168"><ele>198.0</ele><time>2026-04-25T16:23:37.997Z</time></trkpt><trkpt lat="45.84776312395474" lon="9.389851034421781"><ele>198.0</ele><time>2026-04-25T16:23:38.997Z</time></trkpt><trkpt lat="45.84772320810134" lon="9.38995748745271"><ele>198.0</ele><time>2026-04-25T16:23:39.997Z</time></trkpt><trkpt lat="45.84768325131694" lon="9.390067102030661"><ele>198.0</ele><time>2026-04-25T16:23:40.997Z</time></trkpt><trkpt lat="45.847640984737474" lon="9.39017402933589"><ele>198.0</ele><time>2026-04-25T16:23:41.997Z</time></trkpt><trkpt lat="45.847596797973665" lon="9.390276718242081"><ele>198.66666666666666</ele><time>2026-04-25T16:23:42.997Z</time></trkpt><trkpt lat="45.84754974166559" lon="9.390382590811106"><ele>199.33333333333331</ele><time>2026-04-25T16:23:43.997Z</time></trkpt><trkpt lat="45.847503401104994" lon="9.390488267647948"><ele>200.0</ele><time>2026-04-25T16:23:44.997Z</time></trkpt><trkpt lat="45.847459248114454" lon="9.390588943481287"><ele>200.66666666666666</ele><time>2026-04-25T16:23:45.997Z</time></trkpt><trkpt lat="45.847417949735174" lon="9.39068708824426"><ele>201.33333333333331</ele><time>2026-04-25T16:23:46.997Z</time></trkpt><trkpt lat="45.84737745569915" lon="9.390781278549166"><ele>202.0</ele><time>2026-04-25T16:23:47.997Z</time></trkpt><trkpt lat="45.847338126095714" lon="9.39087720605422"><ele>201.99999999999997</ele><time>2026-04-25T16:23:48.997Z</time></trkpt><trkpt lat="45.84729348473427" lon="9.390974777368926"><ele>202.0</ele><time>2026-04-25T16:23:49.998Z</time></trkpt><trkpt lat="45.84725332190013" lon="9.391071396763953"><ele>202.0</ele><time>2026-04-25T16:23:50.998Z</time></trkpt><trkpt lat="45.84721052543661" lon="9.391171055946709"><ele>202.0</ele><time>2026-04-25T16:23:51.998Z</time></trkpt><trkpt lat="45.84716714520578" lon="9.391270861132414"><ele>201.99999999999997</ele><time>2026-04-25T16:23:52.998Z</time></trkpt><trkpt lat="45.84712270968067" lon="9.391371871121844"><ele>202.0</ele><time>2026-04-25T16:23:53.998Z</time></trkpt><trkpt lat="45.847084468482215" lon="9.391457771811112"><ele>201.49999999999997</ele><time>2026-04-25T16:23:54.998Z</time></trkpt><trkpt lat="45.84704743310494" lon="9.391544041129956"><ele>201.0</ele><time>2026-04-25T16:23:55.998Z</time></trkpt><trkpt lat="45.84701291702685" lon="9.391627181543866"><ele>200.5</ele><time>2026-04-25T16:23:56.998Z</time></trkpt><trkpt lat="45.84698108112619" lon="9.391705613947673"><ele>200.0</ele><time>2026-04-25T16:23:57.998Z</time></trkpt><trkpt lat="45.84692701065766" lon="9.391845343863373"><ele>199.49999999999997</ele><time>2026-04-25T16:23:59.998Z</time></trkpt><trkpt lat="45.84688266452948" lon="9.391953946189048"><ele>199.0</ele><time>2026-04-25T16:24:01.998Z</time></trkpt><trkpt lat="45.8468292338607" lon="9.39207551916175"><ele>199.49999999999997</ele><time>2026-04-25T16:24:03.999Z</time></trkpt><trkpt lat="45.846788100012155" lon="9.392165208533104"><ele>200.0</ele><time>2026-04-25T16:24:04.999Z</time></trkpt><trkpt lat="45.84673391042831" lon="9.392270271755484"><ele>200.5</ele><time>2026-04-25T16:24:05.999Z</time></trkpt><trkpt lat="45.84668152855396" lon="9.392371793779569"><ele>201.0</ele><time>2026-04-25T16:24:06.999Z</time></trkpt><trkpt lat="45.84663344744851" lon="9.392468770383394"><ele>201.49999999999997</ele><time>2026-04-25T16:24:07.999Z</time></trkpt><trkpt lat="45.8465873455648" lon="9.39256877837931"><ele>202.0</ele><time>2026-04-25T16:24:08.999Z</time></trkpt><trkpt lat="45.84654411465189" lon="9.392663508548285"><ele>201.99999999999997</ele><time>2026-04-25T16:24:09.999Z</time></trkpt><trkpt lat="45.84649386286077" lon="9.392761398242182"><ele>202.0</ele><time>2026-04-25T16:24:10.999Z</time></trkpt><trkpt lat="45.846445089395054" lon="9.392855626648187"><ele>202.0</ele><time>2026-04-25T16:24:11.999Z</time></trkpt><trkpt lat="45.846393856838006" lon="9.392950732186442"><ele>202.0</ele><time>2026-04-25T16:24:12.999Z</time></trkpt><trkpt lat="45.846340886064965" lon="9.393045545055715"><ele>201.99999999999997</ele><time>2026-04-25T16:24:13.999Z</time></trkpt><trkpt lat="45.846288141861756" lon="9.393148527382033"><ele>202.0</ele><time>2026-04-25T16:24:14.999Z</time></trkpt><trkpt lat="45.84623620345239" lon="9.393255296012825"><ele>201.39999999999998</ele><time>2026-04-25T16:24:15.999Z</time></trkpt><trkpt lat="45.84618712437097" lon="9.393359477985415"><ele>200.79999999999998</ele><time>2026-04-25T16:24:16.999Z</time></trkpt><trkpt lat="45.8461352638379" lon="9.39346326855882"><ele>200.2</ele><time>2026-04-25T16:24:17.999Z</time></trkpt><trkpt lat="45.84607916519737" lon="9.393569570149324"><ele>199.6</ele><time>2026-04-25T16:24:18.999Z</time></trkpt><trkpt lat="45.846018731174766" lon="9.393676962341754"><ele>199.0</ele><time>2026-04-25T16:24:19.999Z</time></trkpt><trkpt lat="45.845966657572426" lon="9.393783088129272"><ele>199.6</ele><time>2026-04-25T16:24:20.999Z</time></trkpt><trkpt lat="45.845916200214035" lon="9.393895285498395"><ele>200.2</ele><time>2026-04-25T16:24:21.999Z</time></trkpt><trkpt lat="45.84585761463378" lon="9.394014510153562"><ele>200.79999999999998</ele><time>2026-04-25T16:24:22.999Z</time></trkpt><trkpt lat="45.84579529341422" lon="9.394143872285252"><ele>201.39999999999998</ele><time>2026-04-25T16:24:23.999Z</time></trkpt><trkpt lat="45.84571862968288" lon="9.394306752888985"><ele>202.0</ele><time>2026-04-25T16:24:24.999Z</time></trkpt><trkpt lat="45.84562254161766" lon="9.394464621545081"><ele>202.0</ele><time>2026-04-25T16:24:25.999Z</time></trkpt><trkpt lat="45.8455461138704" lon="9.39461628281079"><ele>202.0</ele><time>2026-04-25T16:24:26.999Z</time></trkpt><trkpt lat="45.84548112334754" lon="9.394757547973427"><ele>202.0</ele><time>2026-04-25T16:24:27.999Z</time></trkpt><trkpt lat="45.845413302927895" lon="9.394888440209487"><ele>202.0</ele><time>2026-04-25T16:24:28.999Z</time></trkpt><trkpt lat="45.84534477251032" lon="9.395006994728725"><ele>202.25</ele><time>2026-04-25T16:24:29.999Z</time></trkpt><trkpt lat="45.845273361644104" lon="9.395127436055722"><ele>202.5</ele><time>2026-04-25T16:24:31Z</time></trkpt><trkpt lat="45.845196521041636" lon="9.395248342430575"><ele>202.75</ele><time>2026-04-25T16:24:32Z</time></trkpt><trkpt lat="45.845114051846586" lon="9.395368764014584"><ele>203.0</ele><time>2026-04-25T16:24:33Z</time></trkpt><trkpt lat="45.84502324425847" lon="9.395482680765364"><ele>202.0</ele><time>2026-04-25T16:24:34Z</time></trkpt><trkpt lat="45.844922945108564" lon="9.39559178280467"><ele>201.0</ele><time>2026-04-25T16:24:35Z</time></trkpt><trkpt lat="45.84482086650611" lon="9.395689731761808"><ele>200.0</ele><time>2026-04-25T16:24:36Z</time></trkpt><trkpt lat="45.84470761257707" lon="9.395779859089533"><ele>199.0</ele><time>2026-04-25T16:24:37Z</time></trkpt><trkpt lat="45.84458908621745" lon="9.395879403150069"><ele>199.0</ele><time>2026-04-25T16:24:38Z</time></trkpt><trkpt lat="45.844457860106495" lon="9.395989308625564"><ele>199.0</ele><time>2026-04-25T16:24:39Z</time></trkpt><trkpt lat="45.844321192789685" lon="9.396101757546008"><ele>199.0</ele><time>2026-04-25T16:24:40Z</time></trkpt><trkpt lat="45.84417413923875" lon="9.396208796017707"><ele>199.33333333333331</ele><time>2026-04-25T16:24:41Z</time></trkpt><trkpt lat="45.84402703411455" lon="9.396323527128738"><ele>199.66666666666669</ele><time>2026-04-25T16:24:42Z</time></trkpt><trkpt lat="45.84388462025278" lon="9.396433763896653"><ele>200.0</ele><time>2026-04-25T16:24:43Z</time></trkpt><trkpt lat="45.843746653832746" lon="9.396537526333407"><ele>200.0</ele><time>2026-04-25T16:24:44Z</time></trkpt><trkpt lat="45.843608174276184" lon="9.396638127799411"><ele>200.0</ele><time>2026-04-25T16:24:45Z</time></trkpt><trkpt lat="45.8434711412082" lon="9.396731986767756"><ele>200.0</ele><time>2026-04-25T16:24:46Z</time></trkpt><trkpt lat="45.84334192335135" lon="9.39682071206637"><ele>202.0</ele><time>2026-04-25T16:24:47Z</time></trkpt><trkpt lat="45.843219105790325" lon="9.396889976727483"><ele>204.0</ele><time>2026-04-25T16:24:48Z</time></trkpt><trkpt lat="45.84309807853531" lon="9.396928914223022"><ele>206.0</ele><time>2026-04-25T16:24:49Z</time></trkpt><trkpt lat="45.84296970311814" lon="9.396942008612367"><ele>208.0</ele><time>2026-04-25T16:24:50Z</time></trkpt><trkpt lat="45.842839737081405" lon="9.396923614079146"><ele>208.0</ele><time>2026-04-25T16:24:51Z</time></trkpt><trkpt lat="45.8427055976043" lon="9.396876081741166"><ele>208.0</ele><time>2026-04-25T16:24:52Z</time></trkpt><trkpt lat="45.84257747003883" lon="9.396794743941246"><ele>208.0</ele><time>2026-04-25T16:24:53Z</time></trkpt><trkpt lat="45.84245832505634" lon="9.396694007770224"><ele>208.0</ele><time>2026-04-25T16:24:54Z</time></trkpt><trkpt lat="45.84233888215419" lon="9.396588878744021"><ele>208.5</ele><time>2026-04-25T16:24:55Z</time></trkpt><trkpt lat="45.842215355649316" lon="9.396484240796326"><ele>209.0</ele><time>2026-04-25T16:24:56Z</time></trkpt><trkpt lat="45.842092048348334" lon="9.396378006582507"><ele>209.5</ele><time>2026-04-25T16:24:57Z</time></trkpt><trkpt lat="45.841971932457334" lon="9.39627190784141"><ele>210.0</ele><time>2026-04-25T16:24:58Z</time></trkpt><trkpt lat="45.8418521898076" lon="9.396167931445987"><ele>209.75</ele><time>2026-04-25T16:24:59Z</time></trkpt><trkpt lat="45.84173646227842" lon="9.396067396251997"><ele>209.5</ele><time>2026-04-25T16:25:00Z</time></trkpt><trkpt lat="45.84161880325204" lon="9.3959648403755"><ele>209.25</ele><time>2026-04-25T16:25:01Z</time></trkpt><trkpt lat="45.841504947713524" lon="9.395865256143674"><ele>209.0</ele><time>2026-04-25T16:25:02Z</time></trkpt><trkpt lat="45.841388797038675" lon="9.395763774498066"><ele>209.0</ele><time>2026-04-25T16:25:03Z</time></trkpt><trkpt lat="45.84127400700673" lon="9.395664844478409"><ele>209.0</ele><time>2026-04-25T16:25:04Z</time></trkpt><trkpt lat="45.84115791224496" lon="9.395571971815698"><ele>209.0</ele><time>2026-04-25T16:25:05Z</time></trkpt><trkpt lat="45.841036639801565" lon="9.395486098218377"><ele>209.0</ele><time>2026-04-25T16:25:06Z</time></trkpt><trkpt lat="45.840912890605225" lon="9.395409755557031"><ele>208.0</ele><time>2026-04-25T16:25:07Z</time></trkpt><trkpt lat="45.84078707382513" lon="9.395348759114446"><ele>207.0</ele><time>2026-04-25T16:25:08Z</time></trkpt><trkpt lat="45.840658124558786" lon="9.395300652990223"><ele>206.0</ele><time>2026-04-25T16:25:09Z</time></trkpt><trkpt lat="45.84053709418291" lon="9.395265770982284"><ele>205.0</ele><time>2026-04-25T16:25:10Z</time></trkpt><trkpt lat="45.840421108570105" lon="9.395236826554966"><ele>205.0</ele><time>2026-04-25T16:25:11Z</time></trkpt><trkpt lat="45.84030765132793" lon="9.395218765389695"><ele>205.0</ele><time>2026-04-25T16:25:12.001Z</time></trkpt><trkpt lat="45.84018210726886" lon="9.395206431053479"><ele>205.0</ele><time>2026-04-25T16:25:13.001Z</time></trkpt><trkpt lat="45.840052585423116" lon="9.39520701956657"><ele>205.0</ele><time>2026-04-25T16:25:14.001Z</time></trkpt><trkpt lat="45.839926549345805" lon="9.395213877178373"><ele>205.0</ele><time>2026-04-25T16:25:15.001Z</time></trkpt><trkpt lat="45.839802255405395" lon="9.395220951341864"><ele>205.0</ele><time>2026-04-25T16:25:16.001Z</time></trkpt><trkpt lat="45.83968379333706" lon="9.395225201641122"><ele>205.0</ele><time>2026-04-25T16:25:17.001Z</time></trkpt><trkpt lat="45.83957070225116" lon="9.395227848578578"><ele>205.0</ele><time>2026-04-25T16:25:18.001Z</time></trkpt><trkpt lat="45.839455880998464" lon="9.39522885111783"><ele>205.0</ele><time>2026-04-25T16:25:19.001Z</time></trkpt><trkpt lat="45.839345787302385" lon="9.395229896027528"><ele>205.0</ele><time>2026-04-25T16:25:20.001Z</time></trkpt><trkpt lat="45.839241329663075" lon="9.39523051101915"><ele>205.0</ele><time>2026-04-25T16:25:21.001Z</time></trkpt><trkpt lat="45.83913221428021" lon="9.39522856611422"><ele>205.0</ele><time>2026-04-25T16:25:22.001Z</time></trkpt><trkpt lat="45.83902609628897" lon="9.395232263856604"><ele>205.0</ele><time>2026-04-25T16:25:23.001Z</time></trkpt><trkpt lat="45.838917131589675" lon="9.395239832059524"><ele>205.2</ele><time>2026-04-25T16:25:24.001Z</time></trkpt><trkpt lat="45.83881204645913" lon="9.395241829237111"><ele>205.4</ele><time>2026-04-25T16:25:25.001Z</time></trkpt><trkpt lat="45.838703624995105" lon="9.395241009407728"><ele>205.60000000000002</ele><time>2026-04-25T16:25:26.001Z</time></trkpt><trkpt lat="45.83859330224869" lon="9.395247895702232"><ele>205.8</ele><time>2026-04-25T16:25:27.001Z</time></trkpt><trkpt lat="45.838483783735334" lon="9.395256597486936"><ele>206.0</ele><time>2026-04-25T16:25:28.001Z</time></trkpt><trkpt lat="45.83837870298733" lon="9.395265741859598"><ele>206.5</ele><time>2026-04-25T16:25:29.001Z</time></trkpt><trkpt lat="45.83827116422371" lon="9.395270106476506"><ele>207.0</ele><time>2026-04-25T16:25:30.001Z</time></trkpt><trkpt lat="45.838163418935906" lon="9.395277671257663"><ele>207.5</ele><time>2026-04-25T16:25:31.001Z</time></trkpt><trkpt lat="45.83804433650922" lon="9.3952896113534"><ele>208.0</ele><time>2026-04-25T16:25:32.001Z</time></trkpt><trkpt lat="45.83792453637342" lon="9.39529752081231"><ele>208.0</ele><time>2026-04-25T16:25:33.001Z</time></trkpt><trkpt lat="45.83781327570295" lon="9.395309128393123"><ele>208.0</ele><time>2026-04-25T16:25:34.001Z</time></trkpt><trkpt lat="45.837710162211195" lon="9.395311426707098"><ele>208.0</ele><time>2026-04-25T16:25:35.001Z</time></trkpt><trkpt lat="45.83760573637016" lon="9.395306171594521"><ele>208.0</ele><time>2026-04-25T16:25:36.001Z</time></trkpt><trkpt lat="45.83750854653737" lon="9.39528998504704"><ele>208.0</ele><time>2026-04-25T16:25:37.001Z</time></trkpt><trkpt lat="45.837407696661245" lon="9.395267299090252"><ele>207.75</ele><time>2026-04-25T16:25:38.001Z</time></trkpt><trkpt lat="45.83730636593314" lon="9.395230024820435"><ele>207.5</ele><time>2026-04-25T16:25:39.001Z</time></trkpt><trkpt lat="45.837196905946016" lon="9.395175937517802"><ele>207.25</ele><time>2026-04-25T16:25:39.996Z</time></trkpt><trkpt lat="45.83707864805799" lon="9.395099086232358"><ele>207.0</ele><time>2026-04-25T16:25:40.996Z</time></trkpt><trkpt lat="45.83696288313838" lon="9.394998626608222"><ele>207.0</ele><time>2026-04-25T16:25:41.997Z</time></trkpt><trkpt lat="45.83685426894104" lon="9.394882471506774"><ele>207.0</ele><time>2026-04-25T16:25:42.997Z</time></trkpt><trkpt lat="45.83675401463013" lon="9.394770996779105"><ele>207.0</ele><time>2026-04-25T16:25:43.997Z</time></trkpt><trkpt lat="45.83666025032427" lon="9.394665775244448"><ele>207.0</ele><time>2026-04-25T16:25:44.997Z</time></trkpt><trkpt lat="45.83657021209915" lon="9.39456747431686"><ele>207.2</ele><time>2026-04-25T16:25:45.997Z</time></trkpt><trkpt lat="45.83648648854226" lon="9.394477349564573"><ele>207.39999999999998</ele><time>2026-04-25T16:25:46.997Z</time></trkpt><trkpt lat="45.836404722766694" lon="9.394386643843175"><ele>207.60000000000002</ele><time>2026-04-25T16:25:47.997Z</time></trkpt><trkpt lat="45.83632985573707" lon="9.394301448190888"><ele>207.8</ele><time>2026-04-25T16:25:48.997Z</time></trkpt><trkpt lat="45.83625984286493" lon="9.394213716414354"><ele>208.0</ele><time>2026-04-25T16:25:49.997Z</time></trkpt><trkpt lat="45.83619701946646" lon="9.394130544427851"><ele>207.99999999999997</ele><time>2026-04-25T16:25:50.997Z</time></trkpt><trkpt lat="45.83613509044475" lon="9.394061520469922"><ele>208.0</ele><time>2026-04-25T16:25:51.997Z</time></trkpt><trkpt lat="45.836050441303335" lon="9.393978424579029"><ele>208.0</ele><time>2026-04-25T16:25:53.997Z</time></trkpt><trkpt lat="45.83598862956807" lon="9.393926676169999"><ele>208.0</ele><time>2026-04-25T16:25:56.998Z</time></trkpt><trkpt lat="45.83590086934632" lon="9.393909259115347"><ele>207.99999999999997</ele><time>2026-04-25T16:25:58.998Z</time></trkpt><trkpt lat="45.83584046293843" lon="9.39383435047501"><ele>208.0</ele><time>2026-04-25T16:25:59.998Z</time></trkpt><trkpt lat="45.835769256921964" lon="9.393795783967335"><ele>208.49999999999997</ele><time>2026-04-25T16:26:00.998Z</time></trkpt><trkpt lat="45.83570079540539" lon="9.393759351110731"><ele>209.0</ele><time>2026-04-25T16:26:01.998Z</time></trkpt><trkpt lat="45.83561869818642" lon="9.393722864068865"><ele>209.5</ele><time>2026-04-25T16:26:02.998Z</time></trkpt><trkpt lat="45.83552803792698" lon="9.393691681826773"><ele>210.0</ele><time>2026-04-25T16:26:03.998Z</time></trkpt><trkpt lat="45.835433663649034" lon="9.393670926234584"><ele>210.49999999999997</ele><time>2026-04-25T16:26:04.998Z</time></trkpt><trkpt lat="45.835334672858394" lon="9.393656312644465"><ele>211.0</ele><time>2026-04-25T16:26:05.998Z</time></trkpt><trkpt lat="45.83524133715516" lon="9.393648036021647"><ele>211.0</ele><time>2026-04-25T16:26:06.999Z</time></trkpt><trkpt lat="45.83513970228481" lon="9.393646937130603"><ele>211.0</ele><time>2026-04-25T16:26:07.999Z</time></trkpt><trkpt lat="45.83503265296353" lon="9.393654603602817"><ele>211.0</ele><time>2026-04-25T16:26:08.999Z</time></trkpt><trkpt lat="45.83492139970122" lon="9.393666005861462"><ele>211.0</ele><time>2026-04-25T16:26:09.999Z</time></trkpt><trkpt lat="45.834802851849126" lon="9.393682446158186"><ele>211.0</ele><time>2026-04-25T16:26:10.999Z</time></trkpt><trkpt lat="45.83468350639892" lon="9.393704521601373"><ele>210.8</ele><time>2026-04-25T16:26:11.999Z</time></trkpt><trkpt lat="45.834575394504235" lon="9.393721235868519"><ele>210.60000000000002</ele><time>2026-04-25T16:26:12.999Z</time></trkpt><trkpt lat="45.83447041409262" lon="9.39373740306218"><ele>210.4</ele><time>2026-04-25T16:26:13.999Z</time></trkpt><trkpt lat="45.8343685212148" lon="9.39375723669576"><ele>210.2</ele><time>2026-04-25T16:26:14.999Z</time></trkpt><trkpt lat="45.83427658516862" lon="9.393771806476632"><ele>210.0</ele><time>2026-04-25T16:26:15.999Z</time></trkpt><trkpt lat="45.8341882304673" lon="9.393789552572558"><ele>210.0</ele><time>2026-04-25T16:26:16.999Z</time></trkpt><trkpt lat="45.83411256375861" lon="9.393801931574513"><ele>210.0</ele><time>2026-04-25T16:26:17.999Z</time></trkpt><trkpt lat="45.834032715637974" lon="9.393821852626882"><ele>210.0</ele><time>2026-04-25T16:26:18.999Z</time></trkpt><trkpt lat="45.83395418868353" lon="9.393842702106461"><ele>210.0</ele><time>2026-04-25T16:26:20Z</time></trkpt><trkpt lat="45.83387078010897" lon="9.393862176529879"><ele>210.0</ele><time>2026-04-25T16:26:20.999Z</time></trkpt><trkpt lat="45.83379628035392" lon="9.393882598890821"><ele>210.0</ele><time>2026-04-25T16:26:21.999Z</time></trkpt><trkpt lat="45.833698189764284" lon="9.393848896876902"><ele>210.0</ele><time>2026-04-25T16:26:22.999Z</time></trkpt><trkpt lat="45.83358922815677" lon="9.393814931945766"><ele>210.0</ele><time>2026-04-25T16:26:23.999Z</time></trkpt><trkpt lat="45.8334667782705" lon="9.393779710791385"><ele>210.0</ele><time>2026-04-25T16:26:24.999Z</time></trkpt><trkpt lat="45.8333295645988" lon="9.393749395582438"><ele>210.0</ele><time>2026-04-25T16:26:26Z</time></trkpt><trkpt lat="45.833199419710596" lon="9.393722773891854"><ele>210.5</ele><time>2026-04-25T16:26:27Z</time></trkpt><trkpt lat="45.83309654896549" lon="9.39372161821294"><ele>211.0</ele><time>2026-04-25T16:26:28Z</time></trkpt><trkpt lat="45.83298718417182" lon="9.393770425529048"><ele>211.5</ele><time>2026-04-25T16:26:29Z</time></trkpt><trkpt lat="45.83287472166481" lon="9.393865463493512"><ele>212.0</ele><time>2026-04-25T16:26:30Z</time></trkpt><trkpt lat="45.83275884939632" lon="9.393995387910543"><ele>212.25</ele><time>2026-04-25T16:26:31Z</time></trkpt><trkpt lat="45.83263854929202" lon="9.394105891883033"><ele>212.5</ele><time>2026-04-25T16:26:32Z</time></trkpt><trkpt lat="45.83251769923966" lon="9.394224335368497"><ele>212.75</ele><time>2026-04-25T16:26:33Z</time></trkpt><trkpt lat="45.83239871825477" lon="9.3943327786794"><ele>213.0</ele><time>2026-04-25T16:26:34Z</time></trkpt><trkpt lat="45.832287647626934" lon="9.394432850315917"><ele>213.0</ele><time>2026-04-25T16:26:35Z</time></trkpt><trkpt lat="45.83218740036355" lon="9.394506953868058"><ele>213.0</ele><time>2026-04-25T16:26:36Z</time></trkpt><trkpt lat="45.83208445459472" lon="9.39454596726426"><ele>213.0</ele><time>2026-04-25T16:26:37Z</time></trkpt><trkpt lat="45.83197201799959" lon="9.394560095048694"><ele>213.0</ele><time>2026-04-25T16:26:38Z</time></trkpt><trkpt lat="45.831849431597014" lon="9.394538091349549"><ele>215.0</ele><time>2026-04-25T16:26:39Z</time></trkpt><trkpt lat="45.8317137516117" lon="9.394493660875831"><ele>217.0</ele><time>2026-04-25T16:26:40Z</time></trkpt><trkpt lat="45.831561297958714" lon="9.394442211128721"><ele>219.0</ele><time>2026-04-25T16:26:41Z</time></trkpt><trkpt lat="45.831397754883284" lon="9.394396854182602"><ele>219.0</ele><time>2026-04-25T16:26:42Z</time></trkpt><trkpt lat="45.83123197974807" lon="9.39434701419148"><ele>219.0</ele><time>2026-04-25T16:26:43Z</time></trkpt><trkpt lat="45.83107068250195" lon="9.394300403173933"><ele>219.0</ele><time>2026-04-25T16:26:44Z</time></trkpt><trkpt lat="45.83091333372177" lon="9.394251387712764"><ele>218.66666666666669</ele><time>2026-04-25T16:26:45Z</time></trkpt><trkpt lat="45.83075159029191" lon="9.394199462467732"><ele>218.33333333333334</ele><time>2026-04-25T16:26:46Z</time></trkpt><trkpt lat="45.83057804837707" lon="9.394134840093514"><ele>218.0</ele><time>2026-04-25T16:26:47Z</time></trkpt><trkpt lat="45.83039227895775" lon="9.39407387579396"><ele>218.0</ele><time>2026-04-25T16:26:48Z</time></trkpt><trkpt lat="45.83021435111848" lon="9.394015722499386"><ele>218.0</ele><time>2026-04-25T16:26:49Z</time></trkpt><trkpt lat="45.830060783514085" lon="9.393968864871601"><ele>218.0</ele><time>2026-04-25T16:26:50Z</time></trkpt><trkpt lat="45.82991020735237" lon="9.393912096529066"><ele>219.5</ele><time>2026-04-25T16:26:51Z</time></trkpt><trkpt lat="45.82977562908479" lon="9.3938571614164"><ele>221.0</ele><time>2026-04-25T16:26:52Z</time></trkpt><trkpt lat="45.829650630973894" lon="9.393800345747009"><ele>222.5</ele><time>2026-04-25T16:26:53Z</time></trkpt><trkpt lat="45.82951340592562" lon="9.393732926715536"><ele>224.0</ele><time>2026-04-25T16:26:54Z</time></trkpt><trkpt lat="45.829376365402595" lon="9.39366554487166"><ele>229.75</ele><time>2026-04-25T16:26:55.001Z</time></trkpt><trkpt lat="45.82924158377296" lon="9.393591920781763"><ele>235.5</ele><time>2026-04-25T16:26:56.001Z</time></trkpt><trkpt lat="45.82910295100862" lon="9.393525232617442"><ele>241.25</ele><time>2026-04-25T16:26:57.001Z</time></trkpt><trkpt lat="45.82896300517658" lon="9.393460159075705"><ele>247.0</ele><time>2026-04-25T16:26:58.001Z</time></trkpt><trkpt lat="45.82882819894938" lon="9.39339348851764"><ele>247.0</ele><time>2026-04-25T16:26:59.001Z</time></trkpt><trkpt lat="45.82869801047089" lon="9.393332838684236"><ele>247.0</ele><time>2026-04-25T16:27:00.001Z</time></trkpt><trkpt lat="45.82857023317657" lon="9.393300220961205"><ele>247.0</ele><time>2026-04-25T16:27:01.001Z</time></trkpt><trkpt lat="45.82843856449662" lon="9.393277961424923"><ele>247.0</ele><time>2026-04-25T16:27:02.001Z</time></trkpt><trkpt lat="45.82831133449766" lon="9.393269311979141"><ele>245.25</ele><time>2026-04-25T16:27:03.001Z</time></trkpt><trkpt lat="45.828181704876734" lon="9.393273148736633"><ele>243.5</ele><time>2026-04-25T16:27:04.001Z</time></trkpt><trkpt lat="45.828053444859144" lon="9.393285404025267"><ele>241.75</ele><time>2026-04-25T16:27:05.001Z</time></trkpt><trkpt lat="45.82793980159724" lon="9.393282972095678"><ele>240.0</ele><time>2026-04-25T16:27:06.001Z</time></trkpt><trkpt lat="45.82784166419181" lon="9.393270531799324"><ele>240.0</ele><time>2026-04-25T16:27:07.001Z</time></trkpt><trkpt lat="45.82775173073311" lon="9.393237824428494"><ele>240.0</ele><time>2026-04-25T16:27:08.001Z</time></trkpt><trkpt lat="45.82767741348258" lon="9.393176316623364"><ele>240.0</ele><time>2026-04-25T16:27:09.001Z</time></trkpt><trkpt lat="45.82761139229774" lon="9.393083396068334"><ele>240.0</ele><time>2026-04-25T16:27:10.001Z</time></trkpt><trkpt lat="45.8275572284678" lon="9.392975970150728"><ele>240.0</ele><time>2026-04-25T16:27:11.001Z</time></trkpt><trkpt lat="45.827501046205995" lon="9.392867558130058"><ele>243.5</ele><time>2026-04-25T16:27:12.001Z</time></trkpt><trkpt lat="45.827433020101104" lon="9.392764419952428"><ele>247.0</ele><time>2026-04-25T16:27:13.001Z</time></trkpt><trkpt lat="45.82734286734218" lon="9.39268118422734"><ele>250.5</ele><time>2026-04-25T16:27:14.001Z</time></trkpt><trkpt lat="45.827227486244844" lon="9.392632383938366"><ele>254.0</ele><time>2026-04-25T16:27:15.001Z</time></trkpt><trkpt lat="45.82709471934199" lon="9.392607491541996"><ele>254.0</ele><time>2026-04-25T16:27:16.001Z</time></trkpt><trkpt lat="45.826953542880716" lon="9.39259530091479"><ele>254.0</ele><time>2026-04-25T16:27:17.001Z</time></trkpt><trkpt lat="45.82680447775" lon="9.392580619604507"><ele>254.0</ele><time>2026-04-25T16:27:18.001Z</time></trkpt><trkpt lat="45.82665426472535" lon="9.392556725262521"><ele>254.0</ele><time>2026-04-25T16:27:19.001Z</time></trkpt><trkpt lat="45.82649882303122" lon="9.392525572390364"><ele>253.0</ele><time>2026-04-25T16:27:20.001Z</time></trkpt><trkpt lat="45.82633782348111" lon="9.392497023384374"><ele>252.0</ele><time>2026-04-25T16:27:21.001Z</time></trkpt><trkpt lat="45.82617859745411" lon="9.392470112947906"><ele>251.0</ele><time>2026-04-25T16:27:22.001Z</time></trkpt><trkpt lat="45.8260320585107" lon="9.392448553963627"><ele>251.66666666666669</ele><time>2026-04-25T16:27:23.001Z</time></trkpt><trkpt lat="45.82588244548264" lon="9.392428964681269"><ele>252.33333333333331</ele><time>2026-04-25T16:27:24.001Z</time></trkpt><trkpt lat="45.825734897221096" lon="9.39241213878577"><ele>253.0</ele><time>2026-04-25T16:27:25.001Z</time></trkpt><trkpt lat="45.82558291085053" lon="9.3923966855709"><ele>253.0</ele><time>2026-04-25T16:27:26.001Z</time></trkpt><trkpt lat="45.82544750385675" lon="9.39240064242587"><ele>253.0</ele><time>2026-04-25T16:27:27.002Z</time></trkpt><trkpt lat="45.82532298790589" lon="9.392422264980532"><ele>253.0</ele><time>2026-04-25T16:27:28.002Z</time></trkpt><trkpt lat="45.82510187389182" lon="9.392423256720994"><ele>255.66666666666666</ele><time>2026-04-25T16:27:29.002Z</time></trkpt><trkpt lat="45.82494808478985" lon="9.392455718560335"><ele>258.3333333333333</ele><time>2026-04-25T16:27:30.002Z</time></trkpt><trkpt lat="45.824787508284565" lon="9.392482572323482"><ele>261.0</ele><time>2026-04-25T16:27:31.002Z</time></trkpt><trkpt lat="45.824621312513344" lon="9.3925119664282"><ele>261.0</ele><time>2026-04-25T16:27:32.002Z</time></trkpt><trkpt lat="45.82445894643971" lon="9.392537449180901"><ele>261.0</ele><time>2026-04-25T16:27:33.002Z</time></trkpt><trkpt lat="45.82428303312382" lon="9.39257166875273"><ele>261.0</ele><time>2026-04-25T16:27:34.002Z</time></trkpt><trkpt lat="45.824101314933976" lon="9.392606839802522"><ele>264.3333333333333</ele><time>2026-04-25T16:27:35.002Z</time></trkpt><trkpt lat="45.823911878970655" lon="9.392636344398612"><ele>267.66666666666663</ele><time>2026-04-25T16:27:36.002Z</time></trkpt><trkpt lat="45.82373467261884" lon="9.392660819848865"><ele>271.0</ele><time>2026-04-25T16:27:37.002Z</time></trkpt><trkpt lat="45.82355740410129" lon="9.39268775093824"><ele>273.3333333333333</ele><time>2026-04-25T16:27:38.002Z</time></trkpt><trkpt lat="45.82338211969506" lon="9.39271440436015"><ele>275.6666666666667</ele><time>2026-04-25T16:27:39.002Z</time></trkpt><trkpt lat="45.82321198400727" lon="9.392740274914058"><ele>278.0</ele><time>2026-04-25T16:27:40.002Z</time></trkpt><trkpt lat="45.82304797908081" lon="9.392788557292619"><ele>278.0</ele><time>2026-04-25T16:27:41.002Z</time></trkpt><trkpt lat="45.822890706237864" lon="9.39280619162982"><ele>278.0</ele><time>2026-04-25T16:27:42.002Z</time></trkpt><trkpt lat="45.822751174240395" lon="9.392828009924115"><ele>278.0</ele><time>2026-04-25T16:27:43.002Z</time></trkpt><trkpt lat="45.82261336515773" lon="9.3928480998835"><ele>278.0</ele><time>2026-04-25T16:27:44.002Z</time></trkpt><trkpt lat="45.822476681560204" lon="9.392859009067696"><ele>283.0</ele><time>2026-04-25T16:27:45.002Z</time></trkpt><trkpt lat="45.82233210792444" lon="9.392877495487271"><ele>288.0</ele><time>2026-04-25T16:27:45.999Z</time></trkpt><trkpt lat="45.8222034054063" lon="9.392903343737187"><ele>293.0</ele><time>2026-04-25T16:27:46.999Z</time></trkpt><trkpt lat="45.82206714807656" lon="9.392925417130975"><ele>298.0</ele><time>2026-04-25T16:27:47.999Z</time></trkpt><trkpt lat="45.82193421101885" lon="9.392951699771507"><ele>301.0</ele><time>2026-04-25T16:27:48.999Z</time></trkpt><trkpt lat="45.82180612065816" lon="9.392973449378633"><ele>304.0</ele><time>2026-04-25T16:27:49.999Z</time></trkpt><trkpt lat="45.82167072501406" lon="9.39294312530612"><ele>307.0</ele><time>2026-04-25T16:27:50.999Z</time></trkpt><trkpt lat="45.821546709711576" lon="9.392927991352929"><ele>310.0</ele><time>2026-04-25T16:27:51.999Z</time></trkpt><trkpt lat="45.82142306263835" lon="9.392907781811711"><ele>310.0</ele><time>2026-04-25T16:27:52.999Z</time></trkpt><trkpt lat="45.82130625429375" lon="9.392886278443045"><ele>310.0</ele><time>2026-04-25T16:27:53.999Z</time></trkpt><trkpt lat="45.82119057492554" lon="9.3928581130385"><ele>310.0</ele><time>2026-04-25T16:27:54.999Z</time></trkpt><trkpt lat="45.82107889138865" lon="9.392853619101752"><ele>310.0</ele><time>2026-04-25T16:27:55.999Z</time></trkpt><trkpt lat="45.8209562235586" lon="9.392852893980049"><ele>312.0</ele><time>2026-04-25T16:27:57Z</time></trkpt><trkpt lat="45.820838374760626" lon="9.39288931725355"><ele>314.0</ele><time>2026-04-25T16:27:58Z</time></trkpt><trkpt lat="45.82072934897386" lon="9.392951968411301"><ele>316.0</ele><time>2026-04-25T16:27:59Z</time></trkpt><trkpt lat="45.820617051190005" lon="9.393017269538221"><ele>318.0</ele><time>2026-04-25T16:28:00Z</time></trkpt><trkpt lat="45.820494737741356" lon="9.393080001188778"><ele>309.5</ele><time>2026-04-25T16:28:01Z</time></trkpt><trkpt lat="45.820379695874955" lon="9.393155900034992"><ele>301.0</ele><time>2026-04-25T16:28:02Z</time></trkpt><trkpt lat="45.8202632247767" lon="9.393201128672386"><ele>292.5</ele><time>2026-04-25T16:28:03Z</time></trkpt><trkpt lat="45.82015643234968" lon="9.393240184296674"><ele>284.0</ele><time>2026-04-25T16:28:04Z</time></trkpt><trkpt lat="45.82005501897754" lon="9.393256052471836"><ele>284.0</ele><time>2026-04-25T16:28:05Z</time></trkpt><trkpt lat="45.81995723219952" lon="9.393216979504457"><ele>284.0</ele><time>2026-04-25T16:28:06Z</time></trkpt><trkpt lat="45.819872263211025" lon="9.393143545160886"><ele>284.0</ele><time>2026-04-25T16:28:07Z</time></trkpt><trkpt lat="45.81980187030608" lon="9.393023022315088"><ele>284.0</ele><time>2026-04-25T16:28:08Z</time></trkpt><trkpt lat="45.8197489456661" lon="9.39287098149395"><ele>284.0</ele><time>2026-04-25T16:28:09Z</time></trkpt><trkpt lat="45.819696193215975" lon="9.392703624873715"><ele>291.25</ele><time>2026-04-25T16:28:10Z</time></trkpt><trkpt lat="45.81964615791883" lon="9.392534215431926"><ele>298.5</ele><time>2026-04-25T16:28:11Z</time></trkpt><trkpt lat="45.81958807430051" lon="9.3923601394689"><ele>305.75</ele><time>2026-04-25T16:28:12Z</time></trkpt><trkpt lat="45.819556858607214" lon="9.39218621945271"><ele>313.0</ele><time>2026-04-25T16:28:13Z</time></trkpt><trkpt lat="45.81952779284163" lon="9.3920099789731"><ele>317.25</ele><time>2026-04-25T16:28:14Z</time></trkpt><trkpt lat="45.81950561732844" lon="9.391843922687746"><ele>321.5</ele><time>2026-04-25T16:28:15Z</time></trkpt><trkpt lat="45.81947401367665" lon="9.391683087426834"><ele>325.75</ele><time>2026-04-25T16:28:16Z</time></trkpt><trkpt lat="45.819409188421645" lon="9.391527967416598"><ele>330.0</ele><time>2026-04-25T16:28:17Z</time></trkpt><trkpt lat="45.81931794127538" lon="9.391378533278537"><ele>325.25</ele><time>2026-04-25T16:28:18Z</time></trkpt><trkpt lat="45.81922190095135" lon="9.391224462114305"><ele>320.5</ele><time>2026-04-25T16:28:19Z</time></trkpt><trkpt lat="45.81913202782494" lon="9.391062175824933"><ele>315.75</ele><time>2026-04-25T16:28:20Z</time></trkpt><trkpt lat="45.81904128238142" lon="9.390898747177571"><ele>311.0</ele><time>2026-04-25T16:28:21.001Z</time></trkpt><trkpt lat="45.81895473049107" lon="9.390734928480798"><ele>311.0</ele><time>2026-04-25T16:28:22.001Z</time></trkpt><trkpt lat="45.81887339335424" lon="9.390575336463801"><ele>311.0</ele><time>2026-04-25T16:28:23.001Z</time></trkpt><trkpt lat="45.818777323622655" lon="9.390428413984488"><ele>311.0</ele><time>2026-04-25T16:28:24.001Z</time></trkpt><trkpt lat="45.818681993078634" lon="9.390289911823329"><ele>311.0</ele><time>2026-04-25T16:28:25.001Z</time></trkpt><trkpt lat="45.81859463177801" lon="9.390170202609182"><ele>311.0</ele><time>2026-04-25T16:28:26.001Z</time></trkpt><trkpt lat="45.818528818245504" lon="9.390058057333311"><ele>311.0</ele><time>2026-04-25T16:28:27.001Z</time></trkpt><trkpt lat="45.818476659691285" lon="9.389934778050124"><ele>311.0</ele><time>2026-04-25T16:28:28.001Z</time></trkpt><trkpt lat="45.818453104934136" lon="9.38979355752434"><ele>311.0</ele><time>2026-04-25T16:28:29.001Z</time></trkpt><trkpt lat="45.81845674227017" lon="9.389643878694336"><ele>311.0</ele><time>2026-04-25T16:28:30.001Z</time></trkpt><trkpt lat="45.818474250528915" lon="9.389478911257223"><ele>314.75</ele><time>2026-04-25T16:28:31.001Z</time></trkpt><trkpt lat="45.818507816316384" lon="9.389296213893324"><ele>318.5</ele><time>2026-04-25T16:28:32.001Z</time></trkpt><trkpt lat="45.81853135927821" lon="9.389106552568697"><ele>322.25</ele><time>2026-04-25T16:28:33.001Z</time></trkpt><trkpt lat="45.81855042552698" lon="9.388913259395466"><ele>326.0</ele><time>2026-04-25T16:28:34.001Z</time></trkpt><trkpt lat="45.81857106008771" lon="9.388716116235031"><ele>326.5</ele><time>2026-04-25T16:28:35.001Z</time></trkpt><trkpt lat="45.818594323685886" lon="9.388514860533663"><ele>327.0</ele><time>2026-04-25T16:28:36.001Z</time></trkpt><trkpt lat="45.818613861795974" lon="9.388323972107129"><ele>327.5</ele><time>2026-04-25T16:28:37.001Z</time></trkpt><trkpt lat="45.81863566201964" lon="9.388144122894783"><ele>328.0</ele><time>2026-04-25T16:28:38.001Z</time></trkpt><trkpt lat="45.818658994203375" lon="9.387981350826843"><ele>329.5</ele><time>2026-04-25T16:28:39.001Z</time></trkpt><trkpt lat="45.818691881699735" lon="9.387832186885374"><ele>331.0</ele><time>2026-04-25T16:28:40.001Z</time></trkpt><trkpt lat="45.818764255857744" lon="9.387708391048829"><ele>332.5</ele><time>2026-04-25T16:28:41.001Z</time></trkpt><trkpt lat="45.818832088535856" lon="9.387570678683728"><ele>334.0</ele><time>2026-04-25T16:28:42.001Z</time></trkpt><trkpt lat="45.818917398139874" lon="9.387431830922035"><ele>334.0</ele><time>2026-04-25T16:28:43.001Z</time></trkpt><trkpt lat="45.81899566698488" lon="9.387282395835008"><ele>334.0</ele><time>2026-04-25T16:28:44.001Z</time></trkpt><trkpt lat="45.819072163168464" lon="9.387120160972199"><ele>334.0</ele><time>2026-04-25T16:28:45.001Z</time></trkpt><trkpt lat="45.81914059961693" lon="9.386970016549395"><ele>334.0</ele><time>2026-04-25T16:28:46.001Z</time></trkpt><trkpt lat="45.81914749579154" lon="9.386775624445901"><ele>334.25</ele><time>2026-04-25T16:28:47.001Z</time></trkpt><trkpt lat="45.819154127896674" lon="9.386578645838563"><ele>334.5</ele><time>2026-04-25T16:28:48.001Z</time></trkpt><trkpt lat="45.81916377320221" lon="9.386363998359352"><ele>334.75</ele><time>2026-04-25T16:28:49.001Z</time></trkpt><trkpt lat="45.81918012632354" lon="9.386157112406691"><ele>335.0</ele><time>2026-04-25T16:28:50.001Z</time></trkpt><trkpt lat="45.81919539262039" lon="9.38595433777028"><ele>335.0</ele><time>2026-04-25T16:28:51.002Z</time></trkpt><trkpt lat="45.81920598576654" lon="9.385766033555306"><ele>335.0</ele><time>2026-04-25T16:28:52.002Z</time></trkpt><trkpt lat="45.81921848542499" lon="9.385607383753154"><ele>335.0</ele><time>2026-04-25T16:28:53.002Z</time></trkpt><trkpt lat="45.81922770500088" lon="9.385462580674938"><ele>335.0</ele><time>2026-04-25T16:28:54.002Z</time></trkpt><trkpt lat="45.81923921732314" lon="9.38530463477929"><ele>336.8</ele><time>2026-04-25T16:28:55.002Z</time></trkpt><trkpt lat="45.819243484111" lon="9.385156584681303"><ele>338.6</ele><time>2026-04-25T16:28:56.002Z</time></trkpt><trkpt lat="45.819214560509295" lon="9.385040138651782"><ele>340.4</ele><time>2026-04-25T16:28:57.002Z</time></trkpt><trkpt lat="45.81916138444425" lon="9.384929122381937"><ele>342.2</ele><time>2026-04-25T16:28:58.002Z</time></trkpt><trkpt lat="45.81909059033725" lon="9.38484049794749"><ele>344.0</ele><time>2026-04-25T16:28:59.002Z</time></trkpt><trkpt lat="45.81899680150053" lon="9.384784922591857"><ele>344.0</ele><time>2026-04-25T16:29:00.002Z</time></trkpt><trkpt lat="45.818892950361736" lon="9.384736266405822"><ele>344.0</ele><time>2026-04-25T16:29:01.002Z</time></trkpt><trkpt lat="45.81878593933289" lon="9.3846759124724"><ele>344.0</ele><time>2026-04-25T16:29:02.002Z</time></trkpt><trkpt lat="45.81866935510378" lon="9.384599156167784"><ele>344.0</ele><time>2026-04-25T16:29:03.002Z</time></trkpt><trkpt lat="45.81854971126196" lon="9.38452068375294"><ele>344.25</ele><time>2026-04-25T16:29:04.002Z</time></trkpt><trkpt lat="45.818429605760244" lon="9.384437179893098"><ele>344.5</ele><time>2026-04-25T16:29:05.002Z</time></trkpt><trkpt lat="45.81832430542159" lon="9.384354000729287"><ele>344.75</ele><time>2026-04-25T16:29:06.002Z</time></trkpt><trkpt lat="45.8182368922036" lon="9.3842701668528"><ele>345.0</ele><time>2026-04-25T16:29:07.002Z</time></trkpt><trkpt lat="45.8181700527816" lon="9.384157354098505"><ele>345.0</ele><time>2026-04-25T16:29:08.002Z</time></trkpt><trkpt lat="45.81812452290829" lon="9.384004139184428"><ele>345.0</ele><time>2026-04-25T16:29:09.002Z</time></trkpt><trkpt lat="45.81808463334026" lon="9.383817743835523"><ele>345.0</ele><time>2026-04-25T16:29:10.002Z</time></trkpt><trkpt lat="45.81804040551408" lon="9.38361900047214"><ele>345.0</ele><time>2026-04-25T16:29:11.002Z</time></trkpt><trkpt lat="45.817994804712235" lon="9.383426742306876"><ele>346.25</ele><time>2026-04-25T16:29:12.002Z</time></trkpt><trkpt lat="45.81794951768248" lon="9.38324203693589"><ele>347.5</ele><time>2026-04-25T16:29:13.002Z</time></trkpt><trkpt lat="45.81790557340447" lon="9.383073953143823"><ele>348.75</ele><time>2026-04-25T16:29:14.002Z</time></trkpt><trkpt lat="45.81786983566191" lon="9.382920021251557"><ele>350.0</ele><time>2026-04-25T16:29:15.002Z</time></trkpt><trkpt lat="45.81783293126154" lon="9.382774098977187"><ele>351.75</ele><time>2026-04-25T16:29:16.002Z</time></trkpt><trkpt lat="45.81780822892087" lon="9.382610351560489"><ele>353.5</ele><time>2026-04-25T16:29:17.002Z</time></trkpt><trkpt lat="45.81776236469263" lon="9.382443960027548"><ele>355.25</ele><time>2026-04-25T16:29:18.002Z</time></trkpt><trkpt lat="45.81772127461272" lon="9.382277887102711"><ele>357.0</ele><time>2026-04-25T16:29:19.002Z</time></trkpt><trkpt lat="45.81768073160571" lon="9.382096907837221"><ele>355.5</ele><time>2026-04-25T16:29:20.002Z</time></trkpt><trkpt lat="45.81763670163532" lon="9.381915872387419"><ele>354.0</ele><time>2026-04-25T16:29:21.002Z</time></trkpt><trkpt lat="45.81759941016942" lon="9.381733483947146"><ele>352.5</ele><time>2026-04-25T16:29:22.002Z</time></trkpt><trkpt lat="45.81756444634235" lon="9.38154360475764"><ele>351.0</ele><time>2026-04-25T16:29:23.002Z</time></trkpt><trkpt lat="45.817515936887744" lon="9.381363375400882"><ele>352.25</ele><time>2026-04-25T16:29:24.003Z</time></trkpt><trkpt lat="45.817474062476286" lon="9.381186645996264"><ele>353.5</ele><time>2026-04-25T16:29:25.003Z</time></trkpt><trkpt lat="45.817435901899046" lon="9.381016900662996"><ele>354.75</ele><time>2026-04-25T16:29:26.003Z</time></trkpt><trkpt lat="45.81740008199199" lon="9.380860206311542"><ele>356.0</ele><time>2026-04-25T16:29:27.003Z</time></trkpt><trkpt lat="45.81736904378175" lon="9.380711508877727"><ele>356.0</ele><time>2026-04-25T16:29:28.003Z</time></trkpt><trkpt lat="45.81732900020618" lon="9.380581279503385"><ele>356.0</ele><time>2026-04-25T16:29:29.003Z</time></trkpt><trkpt lat="45.81729570362527" lon="9.38043276809633"><ele>356.0</ele><time>2026-04-25T16:29:30.003Z</time></trkpt><trkpt lat="45.817262240977925" lon="9.380286613497926"><ele>356.0</ele><time>2026-04-25T16:29:31.003Z</time></trkpt><trkpt lat="45.81723274710584" lon="9.380133781668336"><ele>356.0</ele><time>2026-04-25T16:29:32.003Z</time></trkpt><trkpt lat="45.81719650952486" lon="9.37998178137795"><ele>357.20000000000005</ele><time>2026-04-25T16:29:33.003Z</time></trkpt><trkpt lat="45.817160516133846" lon="9.379830984036703"><ele>358.40000000000003</ele><time>2026-04-25T16:29:34.003Z</time></trkpt><trkpt lat="45.81712596323531" lon="9.379679045026572"><ele>359.6</ele><time>2026-04-25T16:29:35.003Z</time></trkpt><trkpt lat="45.81708416412177" lon="9.37953021023723"><ele>360.8</ele><time>2026-04-25T16:29:36.003Z</time></trkpt><trkpt lat="45.81704133684074" lon="9.379379546397134"><ele>362.0</ele><time>2026-04-25T16:29:37.003Z</time></trkpt><trkpt lat="45.81700695235584" lon="9.379223143335636"><ele>362.8</ele><time>2026-04-25T16:29:38.003Z</time></trkpt><trkpt lat="45.816986445387464" lon="9.379061055346304"><ele>363.6</ele><time>2026-04-25T16:29:39.003Z</time></trkpt><trkpt lat="45.81695164570642" lon="9.37893804596172"><ele>364.40000000000003</ele><time>2026-04-25T16:29:40.003Z</time></trkpt><trkpt lat="45.81691876351512" lon="9.378817233998594"><ele>365.20000000000005</ele><time>2026-04-25T16:29:41.003Z</time></trkpt><trkpt lat="45.816892299029355" lon="9.378712084999997"><ele>366.0</ele><time>2026-04-25T16:29:42.003Z</time></trkpt><trkpt lat="45.81686682711564" lon="9.378602945882701"><ele>366.3333333333333</ele><time>2026-04-25T16:29:43.003Z</time></trkpt><trkpt lat="45.81685042671782" lon="9.378504612853941"><ele>366.6666666666667</ele><time>2026-04-25T16:29:44.003Z</time></trkpt><trkpt lat="45.81680494053137" lon="9.378351625007458"><ele>367.0</ele><time>2026-04-25T16:29:46.003Z</time></trkpt><trkpt lat="45.81678507769124" lon="9.378265230720908"><ele>367.33333333333337</ele><time>2026-04-25T16:29:48.003Z</time></trkpt><trkpt lat="45.81675938743487" lon="9.378102107244544"><ele>367.6666666666667</ele><time>2026-04-25T16:29:51.003Z</time></trkpt><trkpt lat="45.81673496925075" lon="9.378001581754138"><ele>368.0</ele><time>2026-04-25T16:29:52.001Z</time></trkpt><trkpt lat="45.81670932306662" lon="9.3778959982212"><ele>368.59999999999997</ele><time>2026-04-25T16:29:53.001Z</time></trkpt><trkpt lat="45.81668713779409" lon="9.37780466170817"><ele>369.2</ele><time>2026-04-25T16:29:54.001Z</time></trkpt><trkpt lat="45.816639519211485" lon="9.377724569478021"><ele>369.8</ele><time>2026-04-25T16:29:55.001Z</time></trkpt><trkpt lat="45.81661161243006" lon="9.37756826975635"><ele>370.4</ele><time>2026-04-25T16:29:57.001Z</time></trkpt><trkpt lat="45.81659661736546" lon="9.37739823817666"><ele>371.0</ele><time>2026-04-25T16:29:59Z</time></trkpt><trkpt lat="45.81655853596185" lon="9.377232231829636"><ele>371.5</ele><time>2026-04-25T16:30:01Z</time></trkpt><trkpt lat="45.81652740300813" lon="9.377102013689331"><ele>372.0</ele><time>2026-04-25T16:30:03Z</time></trkpt><trkpt lat="45.81651198138663" lon="9.3770112014243"><ele>372.5</ele><time>2026-04-25T16:30:05Z</time></trkpt><trkpt lat="45.8162881399885" lon="9.377040574875007"><ele>373.0</ele><time>2026-04-25T16:30:07Z</time></trkpt><trkpt lat="45.81620265569172" lon="9.377051304160837"><ele>373.0</ele><time>2026-04-25T16:30:08Z</time></trkpt><trkpt lat="45.81611847468865" lon="9.377064078336103"><ele>373.0</ele><time>2026-04-25T16:30:09Z</time></trkpt><trkpt lat="45.81602565948703" lon="9.377074146236067"><ele>373.0</ele><time>2026-04-25T16:30:10Z</time></trkpt><trkpt lat="45.815949503403864" lon="9.377076943575434"><ele>373.0</ele><time>2026-04-25T16:30:11Z</time></trkpt><trkpt lat="45.81588348660687" lon="9.377087645665192"><ele>373.0</ele><time>2026-04-25T16:30:12Z</time></trkpt><trkpt lat="45.81577058257072" lon="9.377115509131436"><ele>373.0</ele><time>2026-04-25T16:30:14Z</time></trkpt><trkpt lat="45.8156484109478" lon="9.377144735297236"><ele>372.8333333333333</ele><time>2026-04-25T16:30:16Z</time></trkpt><trkpt lat="45.815583075200195" lon="9.377160003084468"><ele>372.66666666666663</ele><time>2026-04-25T16:30:17Z</time></trkpt><trkpt lat="45.8155185011287" lon="9.377179425836761"><ele>372.5</ele><time>2026-04-25T16:30:18Z</time></trkpt><trkpt lat="45.815447495772915" lon="9.377207325065676"><ele>372.3333333333333</ele><time>2026-04-25T16:30:19Z</time></trkpt><trkpt lat="45.81537708246555" lon="9.377235183556898"><ele>372.1666666666667</ele><time>2026-04-25T16:30:20.001Z</time></trkpt><trkpt lat="45.81529336396172" lon="9.37727259569736"><ele>372.0</ele><time>2026-04-25T16:30:21.001Z</time></trkpt><trkpt lat="45.815212638205665" lon="9.377308106374711"><ele>372.0</ele><time>2026-04-25T16:30:22.001Z</time></trkpt><trkpt lat="45.81512976729694" lon="9.377339535195242"><ele>372.0</ele><time>2026-04-25T16:30:23.001Z</time></trkpt><trkpt lat="45.81504533394631" lon="9.377372944718156"><ele>372.0</ele><time>2026-04-25T16:30:24.001Z</time></trkpt><trkpt lat="45.814953346184616" lon="9.377405501699029"><ele>372.0</ele><time>2026-04-25T16:30:25.001Z</time></trkpt><trkpt lat="45.814845993943294" lon="9.377431234222387"><ele>372.0</ele><time>2026-04-25T16:30:26.001Z</time></trkpt><trkpt lat="45.814747726457895" lon="9.377456131491634"><ele>372.0</ele><time>2026-04-25T16:30:27.001Z</time></trkpt><trkpt lat="45.8146361065368" lon="9.377470411424023"><ele>372.0</ele><time>2026-04-25T16:30:28.001Z</time></trkpt><trkpt lat="45.81453989152333" lon="9.377480877240219"><ele>372.0</ele><time>2026-04-25T16:30:29.001Z</time></trkpt><trkpt lat="45.81445106135441" lon="9.377497391576"><ele>372.0</ele><time>2026-04-25T16:30:30.001Z</time></trkpt><trkpt lat="45.81435962970506" lon="9.377503975691953"><ele>372.0</ele><time>2026-04-25T16:30:31.001Z</time></trkpt><trkpt lat="45.81427401105849" lon="9.377500816079701"><ele>371.6666666666667</ele><time>2026-04-25T16:30:32.001Z</time></trkpt><trkpt lat="45.81420050988328" lon="9.37750227369144"><ele>371.3333333333333</ele><time>2026-04-25T16:30:33.001Z</time></trkpt><trkpt lat="45.814137282674636" lon="9.3775054381361"><ele>371.0</ele><time>2026-04-25T16:30:34.001Z</time></trkpt><trkpt lat="45.81405034011717" lon="9.377504433085866"><ele>370.66666666666663</ele><time>2026-04-25T16:30:36.001Z</time></trkpt><trkpt lat="45.81398072471406" lon="9.377500401244115"><ele>370.3333333333333</ele><time>2026-04-25T16:30:41.001Z</time></trkpt><trkpt lat="45.81390652061953" lon="9.377490076090304"><ele>370.0</ele><time>2026-04-25T16:30:43.001Z</time></trkpt><trkpt lat="45.81382224120075" lon="9.377440247081068"><ele>370.0</ele><time>2026-04-25T16:30:45.001Z</time></trkpt><trkpt lat="45.81373103770533" lon="9.377434331176158"><ele>370.0</ele><time>2026-04-25T16:30:47.001Z</time></trkpt><trkpt lat="45.81366726557551" lon="9.377461416200934"><ele>370.0</ele><time>2026-04-25T16:30:48.001Z</time></trkpt><trkpt lat="45.81358770264715" lon="9.377483340668425"><ele>370.0</ele><time>2026-04-25T16:30:49.001Z</time></trkpt><trkpt lat="45.81351149093236" lon="9.377477222693939"><ele>370.0</ele><time>2026-04-25T16:30:50.001Z</time></trkpt><trkpt lat="45.81341274453781" lon="9.37745504904494"><ele>370.0</ele><time>2026-04-25T16:30:51.001Z</time></trkpt><trkpt lat="45.81329839815623" lon="9.37743819898298"><ele>370.5</ele><time>2026-04-25T16:30:52.001Z</time></trkpt><trkpt lat="45.81317017195618" lon="9.377436787938727"><ele>371.0</ele><time>2026-04-25T16:30:53.001Z</time></trkpt><trkpt lat="45.813055617728125" lon="9.377440558607034"><ele>371.5</ele><time>2026-04-25T16:30:54.001Z</time></trkpt><trkpt lat="45.812930663518024" lon="9.377452555983023"><ele>372.0</ele><time>2026-04-25T16:30:55.001Z</time></trkpt><trkpt lat="45.81280423382579" lon="9.377465735121369"><ele>372.0</ele><time>2026-04-25T16:30:56.001Z</time></trkpt><trkpt lat="45.81268808011461" lon="9.377478701737484"><ele>372.0</ele><time>2026-04-25T16:30:57.001Z</time></trkpt><trkpt lat="45.812570958553636" lon="9.3774877440272"><ele>372.0</ele><time>2026-04-25T16:30:58.001Z</time></trkpt><trkpt lat="45.81245371950478" lon="9.37754327706295"><ele>372.0</ele><time>2026-04-25T16:30:59.001Z</time></trkpt><trkpt lat="45.81236023888095" lon="9.377683171407417"><ele>373.5</ele><time>2026-04-25T16:31:00.001Z</time></trkpt><trkpt lat="45.81226631341453" lon="9.377816628493743"><ele>375.0</ele><time>2026-04-25T16:31:01.001Z</time></trkpt><trkpt lat="45.812174694305966" lon="9.377954650088189"><ele>376.5</ele><time>2026-04-25T16:31:02.001Z</time></trkpt><trkpt lat="45.812088966058845" lon="9.378084397142405"><ele>378.0</ele><time>2026-04-25T16:31:03.001Z</time></trkpt><trkpt lat="45.81200507947802" lon="9.378209997646431"><ele>378.0</ele><time>2026-04-25T16:31:04.001Z</time></trkpt><trkpt lat="45.81192016587856" lon="9.37832883148382"><ele>378.0</ele><time>2026-04-25T16:31:05.002Z</time></trkpt><trkpt lat="45.81183632844357" lon="9.378449926829147"><ele>378.0</ele><time>2026-04-25T16:31:06.002Z</time></trkpt><trkpt lat="45.81175169575761" lon="9.37856938260151"><ele>378.0</ele><time>2026-04-25T16:31:07.002Z</time></trkpt><trkpt lat="45.81167190274581" lon="9.378670569129776"><ele>379.79999999999995</ele><time>2026-04-25T16:31:08.002Z</time></trkpt><trkpt lat="45.81158682204934" lon="9.378754922439041"><ele>381.6</ele><time>2026-04-25T16:31:09.002Z</time></trkpt><trkpt lat="45.811504464592595" lon="9.37882278267146"><ele>383.4</ele><time>2026-04-25T16:31:10.002Z</time></trkpt><trkpt lat="45.81141394295285" lon="9.37887680430888"><ele>385.20000000000005</ele><time>2026-04-25T16:31:11.002Z</time></trkpt><trkpt lat="45.81132097393967" lon="9.378904793636996"><ele>387.0</ele><time>2026-04-25T16:31:12.002Z</time></trkpt><trkpt lat="45.81122124200585" lon="9.378914608146415"><ele>387.0</ele><time>2026-04-25T16:31:13.002Z</time></trkpt><trkpt lat="45.81111935037239" lon="9.378904146402782"><ele>387.0</ele><time>2026-04-25T16:31:14.002Z</time></trkpt><trkpt lat="45.81101721640309" lon="9.378871304622635"><ele>387.0</ele><time>2026-04-25T16:31:15.002Z</time></trkpt><trkpt lat="45.81091519498974" lon="9.378807324000013"><ele>387.0</ele><time>2026-04-25T16:31:16.002Z</time></trkpt><trkpt lat="45.810822720997876" lon="9.378724171717444"><ele>387.0</ele><time>2026-04-25T16:31:17.002Z</time></trkpt><trkpt lat="45.81074638220833" lon="9.378582521210308"><ele>388.0</ele><time>2026-04-25T16:31:18.002Z</time></trkpt><trkpt lat="45.81067894059354" lon="9.378443839086831"><ele>389.0</ele><time>2026-04-25T16:31:19.002Z</time></trkpt><trkpt lat="45.81063069858111" lon="9.378282376386862"><ele>390.0</ele><time>2026-04-25T16:31:20.002Z</time></trkpt><trkpt lat="45.81060247924061" lon="9.37810764799797"><ele>391.0</ele><time>2026-04-25T16:31:21.002Z</time></trkpt><trkpt lat="45.81059395484953" lon="9.37793062098872"><ele>391.0</ele><time>2026-04-25T16:31:22.002Z</time></trkpt><trkpt lat="45.81059087852008" lon="9.377753574723773"><ele>391.0</ele><time>2026-04-25T16:31:23.002Z</time></trkpt><trkpt lat="45.81057226050239" lon="9.377572162893259"><ele>391.0</ele><time>2026-04-25T16:31:24.002Z</time></trkpt><trkpt lat="45.81054714918043" lon="9.377389744054955"><ele>391.0</ele><time>2026-04-25T16:31:25.002Z</time></trkpt><trkpt lat="45.81050135199887" lon="9.377191525086605"><ele>389.0</ele><time>2026-04-25T16:31:26.002Z</time></trkpt><trkpt lat="45.81045808224149" lon="9.377027494718257"><ele>387.0</ele><time>2026-04-25T16:31:27.002Z</time></trkpt><trkpt lat="45.810411344211495" lon="9.376865506277218"><ele>385.0</ele><time>2026-04-25T16:31:28.002Z</time></trkpt><trkpt lat="45.81034905479599" lon="9.376719051650905"><ele>383.0</ele><time>2026-04-25T16:31:29.002Z</time></trkpt><trkpt lat="45.81027400593324" lon="9.376600553933876"><ele>383.0</ele><time>2026-04-25T16:31:30.002Z</time></trkpt><trkpt lat="45.81018206111963" lon="9.37651292347877"><ele>383.0</ele><time>2026-04-25T16:31:31.002Z</time></trkpt><trkpt lat="45.81007177086989" lon="9.376449539599468"><ele>383.0</ele><time>2026-04-25T16:31:32.002Z</time></trkpt><trkpt lat="45.80995122032584" lon="9.376407731572243"><ele>383.0</ele><time>2026-04-25T16:31:33.002Z</time></trkpt><trkpt lat="45.80981475576588" lon="9.376353352875944"><ele>384.5</ele><time>2026-04-25T16:31:34.002Z</time></trkpt><trkpt lat="45.80968775028401" lon="9.376298185452738"><ele>386.0</ele><time>2026-04-25T16:31:35.002Z</time></trkpt><trkpt lat="45.809571891730236" lon="9.376258338699794"><ele>387.5</ele><time>2026-04-25T16:31:36.002Z</time></trkpt><trkpt lat="45.8094542612166" lon="9.37621363660236"><ele>389.0</ele><time>2026-04-25T16:31:37.002Z</time></trkpt><trkpt lat="45.809342511512355" lon="9.376176669722225"><ele>392.2</ele><time>2026-04-25T16:31:38.002Z</time></trkpt><trkpt lat="45.80923637561171" lon="9.376142342760202"><ele>395.4</ele><time>2026-04-25T16:31:39.002Z</time></trkpt><trkpt lat="45.80913507074966" lon="9.376113189199302"><ele>398.6</ele><time>2026-04-25T16:31:40.002Z</time></trkpt><trkpt lat="45.80903185234417" lon="9.376088920698276"><ele>401.8</ele><time>2026-04-25T16:31:41.002Z</time></trkpt><trkpt lat="45.808924550161734" lon="9.376083618367296"><ele>405.0</ele><time>2026-04-25T16:31:42.002Z</time></trkpt><trkpt lat="45.8088280334187" lon="9.37610760420167"><ele>405.0</ele><time>2026-04-25T16:31:43.002Z</time></trkpt><trkpt lat="45.80872419416125" lon="9.376132454772149"><ele>405.0</ele><time>2026-04-25T16:31:44.002Z</time></trkpt><trkpt lat="45.80861648764829" lon="9.376215933322294"><ele>405.0</ele><time>2026-04-25T16:31:45.002Z</time></trkpt><trkpt lat="45.80850411163738" lon="9.376345169898288"><ele>405.0</ele><time>2026-04-25T16:31:46.003Z</time></trkpt><trkpt lat="45.80837792437784" lon="9.376505527568156"><ele>408.33333333333337</ele><time>2026-04-25T16:31:47.003Z</time></trkpt><trkpt lat="45.80823718994848" lon="9.376690589894329"><ele>411.6666666666667</ele><time>2026-04-25T16:31:48.003Z</time></trkpt><trkpt lat="45.808092291806624" lon="9.376911166970999"><ele>415.0</ele><time>2026-04-25T16:31:49.003Z</time></trkpt><trkpt lat="45.80794605028009" lon="9.377099554384783"><ele>415.6666666666667</ele><time>2026-04-25T16:31:50.003Z</time></trkpt><trkpt lat="45.80783286138528" lon="9.377280937199822"><ele>416.33333333333337</ele><time>2026-04-25T16:31:51.003Z</time></trkpt><trkpt lat="45.80773924969755" lon="9.377460385202905"><ele>417.0</ele><time>2026-04-25T16:31:52.003Z</time></trkpt><trkpt lat="45.807651193624395" lon="9.377614642483216"><ele>417.0</ele><time>2026-04-25T16:31:53.003Z</time></trkpt><trkpt lat="45.80755970205182" lon="9.377733247760078"><ele>417.0</ele><time>2026-04-25T16:31:54.003Z</time></trkpt><trkpt lat="45.80747238751524" lon="9.377803023944123"><ele>417.0</ele><time>2026-04-25T16:31:55.003Z</time></trkpt><trkpt lat="45.80738637201206" lon="9.377816180794266"><ele>417.0</ele><time>2026-04-25T16:31:56.003Z</time></trkpt><trkpt lat="45.8073080427777" lon="9.377779090391021"><ele>417.0</ele><time>2026-04-25T16:31:57.003Z</time></trkpt><trkpt lat="45.80726446416982" lon="9.37769578578084"><ele>417.0</ele><time>2026-04-25T16:31:58Z</time></trkpt><trkpt lat="45.80723310924452" lon="9.377561691912705"><ele>417.0</ele><time>2026-04-25T16:31:59Z</time></trkpt><trkpt lat="45.80722406951714" lon="9.377391876749003"><ele>417.0</ele><time>2026-04-25T16:32:00Z</time></trkpt><trkpt lat="45.80721874756082" lon="9.37719558997929"><ele>417.0</ele><time>2026-04-25T16:32:01Z</time></trkpt><trkpt lat="45.80720323641678" lon="9.376973973237682"><ele>416.5</ele><time>2026-04-25T16:32:02Z</time></trkpt><trkpt lat="45.8071961669625" lon="9.376737077415923"><ele>416.0</ele><time>2026-04-25T16:32:03Z</time></trkpt><trkpt lat="45.807187402949054" lon="9.376531608790717"><ele>415.5</ele><time>2026-04-25T16:32:04Z</time></trkpt><trkpt lat="45.80716551166114" lon="9.376352228740734"><ele>415.0</ele><time>2026-04-25T16:32:05Z</time></trkpt><trkpt lat="45.807121746686036" lon="9.376195859195834"><ele>414.8</ele><time>2026-04-25T16:32:06Z</time></trkpt><trkpt lat="45.80705637568475" lon="9.37607553469806"><ele>414.6</ele><time>2026-04-25T16:32:07Z</time></trkpt><trkpt lat="45.8069645188433" lon="9.375985858147372"><ele>414.4</ele><time>2026-04-25T16:32:08Z</time></trkpt><trkpt lat="45.80686305951007" lon="9.37595068000599"><ele>414.2</ele><time>2026-04-25T16:32:09Z</time></trkpt><trkpt lat="45.806762439195175" lon="9.375966839199496"><ele>414.0</ele><time>2026-04-25T16:32:10Z</time></trkpt><trkpt lat="45.80667012123348" lon="9.376033586130667"><ele>417.0</ele><time>2026-04-25T16:32:11Z</time></trkpt><trkpt lat="45.80656527635118" lon="9.376136658418048"><ele>420.0</ele><time>2026-04-25T16:32:12Z</time></trkpt><trkpt lat="45.80644149311091" lon="9.376263069471586"><ele>423.0</ele><time>2026-04-25T16:32:13Z</time></trkpt><trkpt lat="45.806307652250545" lon="9.376378538530568"><ele>426.0</ele><time>2026-04-25T16:32:14Z</time></trkpt><trkpt lat="45.806187098060846" lon="9.376454881663058"><ele>426.75</ele><time>2026-04-25T16:32:15Z</time></trkpt><trkpt lat="45.80606728934494" lon="9.376497534570355"><ele>427.5</ele><time>2026-04-25T16:32:16Z</time></trkpt><trkpt lat="45.80594323598319" lon="9.37649339689619"><ele>428.25</ele><time>2026-04-25T16:32:17Z</time></trkpt><trkpt lat="45.80581272114177" lon="9.376450937646199"><ele>429.0</ele><time>2026-04-25T16:32:18Z</time></trkpt><trkpt lat="45.80566885481873" lon="9.376361696062832"><ele>431.33333333333337</ele><time>2026-04-25T16:32:19Z</time></trkpt><trkpt lat="45.8055243284171" lon="9.376253952548048"><ele>433.6666666666667</ele><time>2026-04-25T16:32:20Z</time></trkpt><trkpt lat="45.805374299734225" lon="9.376141026240493"><ele>436.0</ele><time>2026-04-25T16:32:21Z</time></trkpt><trkpt lat="45.80523565925903" lon="9.376032559390794"><ele>436.6666666666667</ele><time>2026-04-25T16:32:22Z</time></trkpt><trkpt lat="45.80508273420453" lon="9.375915719953811"><ele>437.33333333333337</ele><time>2026-04-25T16:32:23Z</time></trkpt><trkpt lat="45.80492860248451" lon="9.375810287698204"><ele>438.0</ele><time>2026-04-25T16:32:24Z</time></trkpt><trkpt lat="45.80477580071629" lon="9.375729633236466"><ele>438.0</ele><time>2026-04-25T16:32:25Z</time></trkpt><trkpt lat="45.80460899753296" lon="9.375672953741661"><ele>438.0</ele><time>2026-04-25T16:32:26Z</time></trkpt><trkpt lat="45.80441849470303" lon="9.375639875644124"><ele>438.0</ele><time>2026-04-25T16:32:27Z</time></trkpt><trkpt lat="45.80421201512633" lon="9.375624591083872"><ele>438.66666666666663</ele><time>2026-04-25T16:32:28Z</time></trkpt><trkpt lat="45.8039956216032" lon="9.375617780645491"><ele>439.3333333333333</ele><time>2026-04-25T16:32:29Z</time></trkpt><trkpt lat="45.803800090610366" lon="9.375605540301068"><ele>440.0</ele><time>2026-04-25T16:32:30Z</time></trkpt><trkpt lat="45.80361896804481" lon="9.375591849101696"><ele>441.3333333333333</ele><time>2026-04-25T16:32:31Z</time></trkpt><trkpt lat="45.80345320212579" lon="9.375576764292195"><ele>442.66666666666663</ele><time>2026-04-25T16:32:32Z</time></trkpt><trkpt lat="45.80329712324452" lon="9.375539982450686"><ele>444.0</ele><time>2026-04-25T16:32:33.001Z</time></trkpt><trkpt lat="45.80314009338779" lon="9.37545803861249"><ele>444.0</ele><time>2026-04-25T16:32:34.001Z</time></trkpt><trkpt lat="45.80297926329413" lon="9.375332502848812"><ele>444.0</ele><time>2026-04-25T16:32:35.001Z</time></trkpt><trkpt lat="45.802824296695135" lon="9.375213365537755"><ele>444.0</ele><time>2026-04-25T16:32:36.001Z</time></trkpt><trkpt lat="45.80267273620585" lon="9.37513595340249"><ele>446.5</ele><time>2026-04-25T16:32:37.001Z</time></trkpt><trkpt lat="45.80251787625324" lon="9.375089021438695"><ele>449.0</ele><time>2026-04-25T16:32:38.001Z</time></trkpt><trkpt lat="45.80237117605105" lon="9.375065427765527"><ele>451.5</ele><time>2026-04-25T16:32:39.001Z</time></trkpt><trkpt lat="45.802230216146164" lon="9.375030883110862"><ele>454.0</ele><time>2026-04-25T16:32:40.001Z</time></trkpt><trkpt lat="45.8020914284664" lon="9.374961912231921"><ele>454.0</ele><time>2026-04-25T16:32:41.001Z</time></trkpt><trkpt lat="45.80195240738403" lon="9.374864386533106"><ele>454.0</ele><time>2026-04-25T16:32:42.001Z</time></trkpt><trkpt lat="45.80181527960165" lon="9.374768280943309"><ele>454.0</ele><time>2026-04-25T16:32:43.001Z</time></trkpt><trkpt lat="45.80167825239759" lon="9.3746837793618"><ele>454.33333333333337</ele><time>2026-04-25T16:32:44.001Z</time></trkpt><trkpt lat="45.80151927237192" lon="9.374651151328154"><ele>454.66666666666663</ele><time>2026-04-25T16:32:45.001Z</time></trkpt><trkpt lat="45.8013431555647" lon="9.374637667579188"><ele>455.0</ele><time>2026-04-25T16:32:46.001Z</time></trkpt><trkpt lat="45.80115731695889" lon="9.374630036937518"><ele>457.3333333333333</ele><time>2026-04-25T16:32:47.001Z</time></trkpt><trkpt lat="45.80096859635618" lon="9.374606643901553"><ele>459.66666666666663</ele><time>2026-04-25T16:32:48.001Z</time></trkpt><trkpt lat="45.8008045298619" lon="9.374589727386102"><ele>462.0</ele><time>2026-04-25T16:32:49.001Z</time></trkpt><trkpt lat="45.80064563775786" lon="9.3745775312349"><ele>462.0</ele><time>2026-04-25T16:32:50.001Z</time></trkpt><trkpt lat="45.80049486916354" lon="9.374565118698618"><ele>462.0</ele><time>2026-04-25T16:32:51.001Z</time></trkpt><trkpt lat="45.800340969097604" lon="9.374533299294194"><ele>462.0</ele><time>2026-04-25T16:32:52.001Z</time></trkpt><trkpt lat="45.800168487655704" lon="9.374481252451497"><ele>465.66666666666663</ele><time>2026-04-25T16:32:53.001Z</time></trkpt><trkpt lat="45.79999024978269" lon="9.374415332489296"><ele>469.3333333333333</ele><time>2026-04-25T16:32:54.001Z</time></trkpt><trkpt lat="45.799834161977174" lon="9.374354253080368"><ele>473.0</ele><time>2026-04-25T16:32:55.001Z</time></trkpt><trkpt lat="45.799679725294276" lon="9.374299400503252"><ele>473.0</ele><time>2026-04-25T16:32:56.001Z</time></trkpt><trkpt lat="45.799525657439766" lon="9.374242543738204"><ele>473.0</ele><time>2026-04-25T16:32:57.001Z</time></trkpt><trkpt lat="45.79938853922203" lon="9.374193402533065"><ele>473.0</ele><time>2026-04-25T16:32:58.001Z</time></trkpt><trkpt lat="45.79926745557646" lon="9.374141602507407"><ele>473.0</ele><time>2026-04-25T16:32:59.001Z</time></trkpt><trkpt lat="45.79915626948505" lon="9.374119229935584"><ele>474.25</ele><time>2026-04-25T16:33:00.001Z</time></trkpt><trkpt lat="45.79903306146034" lon="9.374136989171614"><ele>475.5</ele><time>2026-04-25T16:33:01.001Z</time></trkpt><trkpt lat="45.79889851723706" lon="9.37418573055141"><ele>476.75</ele><time>2026-04-25T16:33:02.001Z</time></trkpt><trkpt lat="45.79874701444927" lon="9.374220410638523"><ele>478.0</ele><time>2026-04-25T16:33:03.001Z</time></trkpt><trkpt lat="45.79859559771728" lon="9.374205342447608"><ele>477.6666666666667</ele><time>2026-04-25T16:33:04.001Z</time></trkpt><trkpt lat="45.79843645477486" lon="9.374155469195108"><ele>477.33333333333337</ele><time>2026-04-25T16:33:05.001Z</time></trkpt><trkpt lat="45.798252721285515" lon="9.374119759265962"><ele>477.0</ele><time>2026-04-25T16:33:06.001Z</time></trkpt><trkpt lat="45.798045069148365" lon="9.37409138492287"><ele>477.0</ele><time>2026-04-25T16:33:07.001Z</time></trkpt><trkpt lat="45.79784889187354" lon="9.374056009084798"><ele>477.0</ele><time>2026-04-25T16:33:08.001Z</time></trkpt><trkpt lat="45.797677671135325" lon="9.374026442155989"><ele>477.0</ele><time>2026-04-25T16:33:09.001Z</time></trkpt><trkpt lat="45.7975145217112" lon="9.374009263246359"><ele>478.25</ele><time>2026-04-25T16:33:10.001Z</time></trkpt><trkpt lat="45.79736133790631" lon="9.374012186306027"><ele>479.5</ele><time>2026-04-25T16:33:11.001Z</time></trkpt><trkpt lat="45.79721825536164" lon="9.374007863696757"><ele>480.75</ele><time>2026-04-25T16:33:12.001Z</time></trkpt><trkpt lat="45.79709088090167" lon="9.373969826094067"><ele>482.0</ele><time>2026-04-25T16:33:13.001Z</time></trkpt><trkpt lat="45.796973523428115" lon="9.373899359371816"><ele>480.66666666666663</ele><time>2026-04-25T16:33:14.002Z</time></trkpt><trkpt lat="45.79684416411208" lon="9.373805557526396"><ele>479.33333333333337</ele><time>2026-04-25T16:33:15.002Z</time></trkpt><trkpt lat="45.79670678633919" lon="9.373702655648163"><ele>478.0</ele><time>2026-04-25T16:33:16.002Z</time></trkpt><trkpt lat="45.79655732314631" lon="9.373624760088168"><ele>481.0</ele><time>2026-04-25T16:33:17.002Z</time></trkpt><trkpt lat="45.796386359680554" lon="9.373566980589464"><ele>484.0</ele><time>2026-04-25T16:33:18.002Z</time></trkpt><trkpt lat="45.79620253758876" lon="9.37354127617234"><ele>487.0</ele><time>2026-04-25T16:33:19.002Z</time></trkpt><trkpt lat="45.796001906671876" lon="9.373522250880818"><ele>488.6666666666667</ele><time>2026-04-25T16:33:20.002Z</time></trkpt><trkpt lat="45.79579455755523" lon="9.373496691612937"><ele>490.33333333333337</ele><time>2026-04-25T16:33:21.002Z</time></trkpt><trkpt lat="45.79560616523847" lon="9.373473269506569"><ele>492.0</ele><time>2026-04-25T16:33:22.002Z</time></trkpt><trkpt lat="45.79540437961893" lon="9.373448855428629"><ele>492.0</ele><time>2026-04-25T16:33:23.002Z</time></trkpt><trkpt lat="45.79519819311089" lon="9.373423867753429"><ele>492.0</ele><time>2026-04-25T16:33:24.002Z</time></trkpt><trkpt lat="45.79499607267442" lon="9.373376708466632"><ele>492.0</ele><time>2026-04-25T16:33:25.002Z</time></trkpt><trkpt lat="45.79479509730328" lon="9.373362104589955"><ele>495.33333333333337</ele><time>2026-04-25T16:33:26.002Z</time></trkpt><trkpt lat="45.79460343553672" lon="9.37341341600935"><ele>498.6666666666667</ele><time>2026-04-25T16:33:27.002Z</time></trkpt><trkpt lat="45.79443084511868" lon="9.373435458055733"><ele>502.0</ele><time>2026-04-25T16:33:28.002Z</time></trkpt><trkpt lat="45.79427602470212" lon="9.373452453356458"><ele>504.0</ele><time>2026-04-25T16:33:29.002Z</time></trkpt><trkpt lat="45.79413981194126" lon="9.373462235939362"><ele>506.0</ele><time>2026-04-25T16:33:30.002Z</time></trkpt><trkpt lat="45.79401912374948" lon="9.373480274492826"><ele>508.0</ele><time>2026-04-25T16:33:31.002Z</time></trkpt><trkpt lat="45.79391473218733" lon="9.373497554804509"><ele>510.0</ele><time>2026-04-25T16:33:32.002Z</time></trkpt><trkpt lat="45.79383366781927" lon="9.373576351164486"><ele>510.0</ele><time>2026-04-25T16:33:33.002Z</time></trkpt><trkpt lat="45.793773195871694" lon="9.373696375893141"><ele>510.0</ele><time>2026-04-25T16:33:34.002Z</time></trkpt><trkpt lat="45.7937391069847" lon="9.373830157137458"><ele>510.0</ele><time>2026-04-25T16:33:35.002Z</time></trkpt><trkpt lat="45.793740856775045" lon="9.3739881045101"><ele>510.0</ele><time>2026-04-25T16:33:36.002Z</time></trkpt><trkpt lat="45.793767388022204" lon="9.374152049308384"><ele>510.0</ele><time>2026-04-25T16:33:37.002Z</time></trkpt><trkpt lat="45.79379218885397" lon="9.374334461562432"><ele>514.0</ele><time>2026-04-25T16:33:38.002Z</time></trkpt><trkpt lat="45.79382699007289" lon="9.37453906290963"><ele>518.0</ele><time>2026-04-25T16:33:39.002Z</time></trkpt><trkpt lat="45.79386206585271" lon="9.3747527221088"><ele>522.0</ele><time>2026-04-25T16:33:40.002Z</time></trkpt><trkpt lat="45.793901049298604" lon="9.374977598708561"><ele>523.0</ele><time>2026-04-25T16:33:41.002Z</time></trkpt><trkpt lat="45.7939311808692" lon="9.375188583178362"><ele>524.0</ele><time>2026-04-25T16:33:42.002Z</time></trkpt><trkpt lat="45.79393713423433" lon="9.375369813846552"><ele>525.0</ele><time>2026-04-25T16:33:43.002Z</time></trkpt><trkpt lat="45.793923078489115" lon="9.375534578600154"><ele>526.0</ele><time>2026-04-25T16:33:44.002Z</time></trkpt><trkpt lat="45.79389131849457" lon="9.375689479080213"><ele>527.2</ele><time>2026-04-25T16:33:45.002Z</time></trkpt><trkpt lat="45.79383121487481" lon="9.375791299407886"><ele>528.4000000000001</ele><time>2026-04-25T16:33:46.002Z</time></trkpt><trkpt lat="45.793761835748754" lon="9.375878705966583"><ele>529.6</ele><time>2026-04-25T16:33:47.002Z</time></trkpt><trkpt lat="45.79366220270464" lon="9.375909377304326"><ele>530.8000000000001</ele><time>2026-04-25T16:33:48.002Z</time></trkpt><trkpt lat="45.79355904734331" lon="9.375893280051274"><ele>532.0</ele><time>2026-04-25T16:33:49.002Z</time></trkpt><trkpt lat="45.79344934966095" lon="9.375835715399415"><ele>533.0</ele><time>2026-04-25T16:33:50.002Z</time></trkpt><trkpt lat="45.79333374997858" lon="9.375752172433746"><ele>534.0</ele><time>2026-04-25T16:33:51.002Z</time></trkpt><trkpt lat="45.79320971593044" lon="9.375647679118613"><ele>535.0</ele><time>2026-04-25T16:33:52.002Z</time></trkpt><trkpt lat="45.79308049544776" lon="9.375536513127665"><ele>536.0</ele><time>2026-04-25T16:33:53.002Z</time></trkpt><trkpt lat="45.792941369922445" lon="9.375429747470204"><ele>535.3333333333333</ele><time>2026-04-25T16:33:54.003Z</time></trkpt><trkpt lat="45.792803526017956" lon="9.375317807583945"><ele>534.6666666666666</ele><time>2026-04-25T16:33:55.003Z</time></trkpt><trkpt lat="45.79266102794301" lon="9.375205930604832"><ele>534.0</ele><time>2026-04-25T16:33:56.003Z</time></trkpt><trkpt lat="45.79251382186993" lon="9.375090694896427"><ele>534.0</ele><time>2026-04-25T16:33:57.003Z</time></trkpt><trkpt lat="45.79237318165722" lon="9.374981744612784"><ele>534.0</ele><time>2026-04-25T16:33:58.003Z</time></trkpt><trkpt lat="45.79222577498218" lon="9.374861258104222"><ele>534.0</ele><time>2026-04-25T16:33:59.003Z</time></trkpt><trkpt lat="45.79207324276291" lon="9.374735017152666"><ele>530.6666666666666</ele><time>2026-04-25T16:34:00.003Z</time></trkpt><trkpt lat="45.79191561469794" lon="9.374608177582532"><ele>527.3333333333333</ele><time>2026-04-25T16:34:01.003Z</time></trkpt><trkpt lat="45.7917592288302" lon="9.374484558644646"><ele>524.0</ele><time>2026-04-25T16:34:02.003Z</time></trkpt><trkpt lat="45.791606666763506" lon="9.37436027724176"><ele>524.0</ele><time>2026-04-25T16:34:03.003Z</time></trkpt><trkpt lat="45.79146406010531" lon="9.374244914059373"><ele>524.0</ele><time>2026-04-25T16:34:03.999Z</time></trkpt><trkpt lat="45.79131354064269" lon="9.374138587027534"><ele>524.0</ele><time>2026-04-25T16:34:04.999Z</time></trkpt><trkpt lat="45.79115349167828" lon="9.374039048592287"><ele>525.3333333333333</ele><time>2026-04-25T16:34:05.999Z</time></trkpt><trkpt lat="45.79097820588828" lon="9.373953660135392"><ele>526.6666666666666</ele><time>2026-04-25T16:34:06.999Z</time></trkpt><trkpt lat="45.790806664458735" lon="9.373875151722022"><ele>528.0</ele><time>2026-04-25T16:34:07.999Z</time></trkpt><trkpt lat="45.790647365772806" lon="9.373793263120165"><ele>524.6666666666666</ele><time>2026-04-25T16:34:08.999Z</time></trkpt><trkpt lat="45.79050479943766" lon="9.373695547882763"><ele>521.3333333333333</ele><time>2026-04-25T16:34:09.999Z</time></trkpt><trkpt lat="45.79038057787215" lon="9.373576711993314"><ele>518.0</ele><time>2026-04-25T16:34:10.999Z</time></trkpt><trkpt lat="45.79027725956687" lon="9.373433103468825"><ele>518.0</ele><time>2026-04-25T16:34:11.999Z</time></trkpt><trkpt lat="45.79018507144812" lon="9.373285015673071"><ele>518.0</ele><time>2026-04-25T16:34:12.999Z</time></trkpt><trkpt lat="45.790085680736134" lon="9.373161544500922"><ele>518.0</ele><time>2026-04-25T16:34:13.999Z</time></trkpt><trkpt lat="45.789973429146066" lon="9.373074863128615"><ele>518.0</ele><time>2026-04-25T16:34:15Z</time></trkpt><trkpt lat="45.7898516624471" lon="9.373037201467879"><ele>516.5</ele><time>2026-04-25T16:34:16Z</time></trkpt><trkpt lat="45.789732867381744" lon="9.373045571531055"><ele>515.0</ele><time>2026-04-25T16:34:17Z</time></trkpt><trkpt lat="45.7895957910583" lon="9.373073821894867"><ele>513.5</ele><time>2026-04-25T16:34:18Z</time></trkpt><trkpt lat="45.78946562094761" lon="9.373068135880272"><ele>512.0</ele><time>2026-04-25T16:34:19Z</time></trkpt><trkpt lat="45.78934773906498" lon="9.373022208111013"><ele>514.25</ele><time>2026-04-25T16:34:20Z</time></trkpt><trkpt lat="45.78924141922806" lon="9.372899631539328"><ele>516.5</ele><time>2026-04-25T16:34:21Z</time></trkpt><trkpt lat="45.78913514146099" lon="9.372784416430397"><ele>518.75</ele><time>2026-04-25T16:34:22Z</time></trkpt><trkpt lat="45.78901114762404" lon="9.37270135678461"><ele>521.0</ele><time>2026-04-25T16:34:23Z</time></trkpt><trkpt lat="45.7888754568184" lon="9.372640094025277"><ele>521.0</ele><time>2026-04-25T16:34:24Z</time></trkpt><trkpt lat="45.788736684645336" lon="9.372603014516896"><ele>521.0</ele><time>2026-04-25T16:34:25Z</time></trkpt><trkpt lat="45.78857883094232" lon="9.372564751582248"><ele>521.0</ele><time>2026-04-25T16:34:26Z</time></trkpt><trkpt lat="45.78840409129691" lon="9.372532412467619"><ele>524.6666666666666</ele><time>2026-04-25T16:34:27Z</time></trkpt><trkpt lat="45.78821843867863" lon="9.372494653499185"><ele>528.3333333333334</ele><time>2026-04-25T16:34:28Z</time></trkpt><trkpt lat="45.78805736509243" lon="9.372463997005973"><ele>532.0</ele><time>2026-04-25T16:34:29Z</time></trkpt><trkpt lat="45.78791176965741" lon="9.372438790153183"><ele>532.0</ele><time>2026-04-25T16:34:30Z</time></trkpt><trkpt lat="45.78778019895357" lon="9.37243357391147"><ele>532.0</ele><time>2026-04-25T16:34:31Z</time></trkpt><trkpt lat="45.787636735921765" lon="9.372438410203127"><ele>532.0</ele><time>2026-04-25T16:34:32Z</time></trkpt><trkpt lat="45.78749322761951" lon="9.372531193649426"><ele>532.0</ele><time>2026-04-25T16:34:33Z</time></trkpt><trkpt lat="45.787353373496494" lon="9.372614355312978"><ele>534.0</ele><time>2026-04-25T16:34:34Z</time></trkpt><trkpt lat="45.787224428828516" lon="9.372673022614137"><ele>536.0</ele><time>2026-04-25T16:34:35Z</time></trkpt><trkpt lat="45.7870848571992" lon="9.372678616952161"><ele>538.0</ele><time>2026-04-25T16:34:36Z</time></trkpt><trkpt lat="45.78693094945922" lon="9.372648156109237"><ele>540.0</ele><time>2026-04-25T16:34:37Z</time></trkpt><trkpt lat="45.786795376116835" lon="9.37260885769989"><ele>542.75</ele><time>2026-04-25T16:34:38Z</time></trkpt><trkpt lat="45.78667074541146" lon="9.372569067214805"><ele>545.5</ele><time>2026-04-25T16:34:39Z</time></trkpt><trkpt lat="45.78655958080453" lon="9.372491805322857"><ele>548.25</ele><time>2026-04-25T16:34:40Z</time></trkpt><trkpt lat="45.786464526248075" lon="9.37238405580701"><ele>551.0</ele><time>2026-04-25T16:34:41Z</time></trkpt><trkpt lat="45.786372556352774" lon="9.372276966798507"><ele>551.0</ele><time>2026-04-25T16:34:42Z</time></trkpt><trkpt lat="45.786279413195444" lon="9.372200148553699"><ele>551.0</ele><time>2026-04-25T16:34:43Z</time></trkpt><trkpt lat="45.78618770480137" lon="9.372151206037646"><ele>551.0</ele><time>2026-04-25T16:34:44Z</time></trkpt><trkpt lat="45.78607678242833" lon="9.372152144212938"><ele>551.0</ele><time>2026-04-25T16:34:45Z</time></trkpt><trkpt lat="45.78596415891972" lon="9.372174352770406"><ele>551.0</ele><time>2026-04-25T16:34:46.001Z</time></trkpt><trkpt lat="45.78586469450038" lon="9.372278504603704"><ele>552.6</ele><time>2026-04-25T16:34:47.001Z</time></trkpt><trkpt lat="45.78578896645983" lon="9.372447074576241"><ele>554.2</ele><time>2026-04-25T16:34:48.001Z</time></trkpt><trkpt lat="45.785704468910254" lon="9.372583888174503"><ele>555.8</ele><time>2026-04-25T16:34:49.001Z</time></trkpt><trkpt lat="45.78565385510214" lon="9.372686790396443"><ele>557.4</ele><time>2026-04-25T16:34:50.001Z</time></trkpt><trkpt lat="45.785586607479644" lon="9.372778228212526"><ele>559.0</ele><time>2026-04-25T16:34:51.001Z</time></trkpt><trkpt lat="45.78550818158076" lon="9.372833535588855"><ele>559.0</ele><time>2026-04-25T16:34:52.001Z</time></trkpt><trkpt lat="45.78541360801191" lon="9.3728232949504"><ele>559.0</ele><time>2026-04-25T16:34:53.001Z</time></trkpt><trkpt lat="45.785294660288855" lon="9.372765779309637"><ele>559.0</ele><time>2026-04-25T16:34:54.001Z</time></trkpt><trkpt lat="45.78514856765466" lon="9.372710089412392"><ele>559.0</ele><time>2026-04-25T16:34:55.001Z</time></trkpt><trkpt lat="45.78500917204236" lon="9.372670329685743"><ele>561.6666666666667</ele><time>2026-04-25T16:34:56.001Z</time></trkpt><trkpt lat="45.78484973835751" lon="9.372677351791376"><ele>564.3333333333334</ele><time>2026-04-25T16:34:57.001Z</time></trkpt><trkpt lat="45.78469132206403" lon="9.372711201279236"><ele>567.0</ele><time>2026-04-25T16:34:58.001Z</time></trkpt><trkpt lat="45.78455365247714" lon="9.372737278992979"><ele>567.0</ele><time>2026-04-25T16:34:59.001Z</time></trkpt><trkpt lat="45.78441338250986" lon="9.372726200562866"><ele>567.0</ele><time>2026-04-25T16:35:00.001Z</time></trkpt><trkpt lat="45.78425714289666" lon="9.372670762596114"><ele>567.0</ele><time>2026-04-25T16:35:01.001Z</time></trkpt><trkpt lat="45.784090361851234" lon="9.372583441590026"><ele>569.3333333333334</ele><time>2026-04-25T16:35:02.001Z</time></trkpt><trkpt lat="45.78391171167479" lon="9.372474619580053"><ele>571.6666666666667</ele><time>2026-04-25T16:35:03.001Z</time></trkpt><trkpt lat="45.7837177085957" lon="9.37236107043295"><ele>574.0</ele><time>2026-04-25T16:35:04.001Z</time></trkpt><trkpt lat="45.78354379417742" lon="9.37225958680572"><ele>572.0</ele><time>2026-04-25T16:35:05.001Z</time></trkpt><trkpt lat="45.78336686003978" lon="9.372154926296385"><ele>570.0</ele><time>2026-04-25T16:35:06.001Z</time></trkpt><trkpt lat="45.78317652127177" lon="9.372044729725104"><ele>568.0</ele><time>2026-04-25T16:35:07.001Z</time></trkpt><trkpt lat="45.78298915675721" lon="9.371946161825873"><ele>568.0</ele><time>2026-04-25T16:35:08.001Z</time></trkpt><trkpt lat="45.782779884735135" lon="9.371858030026985"><ele>568.0</ele><time>2026-04-25T16:35:09.001Z</time></trkpt><trkpt lat="45.78256600947079" lon="9.371791756622018"><ele>568.0</ele><time>2026-04-25T16:35:10.001Z</time></trkpt><trkpt lat="45.782378956653076" lon="9.37175007313128"><ele>571.0</ele><time>2026-04-25T16:35:11.001Z</time></trkpt><trkpt lat="45.78220642709831" lon="9.371720985848777"><ele>574.0</ele><time>2026-04-25T16:35:12.001Z</time></trkpt><trkpt lat="45.78204762894601" lon="9.371676779007622"><ele>577.0</ele><time>2026-04-25T16:35:13.001Z</time></trkpt><trkpt lat="45.78189671412951" lon="9.371603157753185"><ele>580.0</ele><time>2026-04-25T16:35:14.001Z</time></trkpt><trkpt lat="45.78175706778152" lon="9.371496679104274"><ele>583.0</ele><time>2026-04-25T16:35:15.001Z</time></trkpt><trkpt lat="45.781602218354486" lon="9.371448946084266"><ele>586.0</ele><time>2026-04-25T16:35:16.001Z</time></trkpt><trkpt lat="45.78145130792014" lon="9.371400581209047"><ele>586.0</ele><time>2026-04-25T16:35:17.001Z</time></trkpt><trkpt lat="45.78128123366925" lon="9.371359725497811"><ele>586.0</ele><time>2026-04-25T16:35:18.001Z</time></trkpt><trkpt lat="45.78111101302446" lon="9.371294483805249"><ele>586.0</ele><time>2026-04-25T16:35:19.001Z</time></trkpt><trkpt lat="45.78093848877893" lon="9.37125230176454"><ele>584.0</ele><time>2026-04-25T16:35:20.001Z</time></trkpt><trkpt lat="45.78076645951181" lon="9.37120723899478"><ele>582.0</ele><time>2026-04-25T16:35:21.001Z</time></trkpt><trkpt lat="45.780590597579156" lon="9.371181070924763"><ele>580.0</ele><time>2026-04-25T16:35:22.001Z</time></trkpt><trkpt lat="45.78042475197472" lon="9.371122066791118"><ele>580.0</ele><time>2026-04-25T16:35:23.002Z</time></trkpt><trkpt lat="45.78026383878301" lon="9.371056661396263"><ele>580.0</ele><time>2026-04-25T16:35:24.002Z</time></trkpt><trkpt lat="45.78011096650559" lon="9.37098527995166"><ele>580.0</ele><time>2026-04-25T16:35:25.002Z</time></trkpt><trkpt lat="45.779959232778474" lon="9.370903802957715"><ele>580.25</ele><time>2026-04-25T16:35:26.002Z</time></trkpt><trkpt lat="45.77981295457904" lon="9.370823374567456"><ele>580.5</ele><time>2026-04-25T16:35:27.002Z</time></trkpt><trkpt lat="45.779691447848656" lon="9.37076938420803"><ele>580.75</ele><time>2026-04-25T16:35:28.002Z</time></trkpt><trkpt lat="45.77956716231162" lon="9.370750102156222"><ele>581.0</ele><time>2026-04-25T16:35:29.002Z</time></trkpt><trkpt lat="45.77944759224509" lon="9.370778690899362"><ele>578.75</ele><time>2026-04-25T16:35:30.002Z</time></trkpt><trkpt lat="45.7793264305849" lon="9.37082830787451"><ele>576.5</ele><time>2026-04-25T16:35:31.002Z</time></trkpt><trkpt lat="45.7792306192925" lon="9.37096680041998"><ele>574.25</ele><time>2026-04-25T16:35:32.002Z</time></trkpt><trkpt lat="45.77912456678939" lon="9.371089381011599"><ele>572.0</ele><time>2026-04-25T16:35:33.002Z</time></trkpt><trkpt lat="45.77904324363966" lon="9.371235992309012"><ele>572.0</ele><time>2026-04-25T16:35:34.002Z</time></trkpt><trkpt lat="45.778938027481715" lon="9.37133477600953"><ele>572.0</ele><time>2026-04-25T16:35:35.002Z</time></trkpt><trkpt lat="45.77883892899763" lon="9.371392081410745"><ele>572.0</ele><time>2026-04-25T16:35:36.002Z</time></trkpt><trkpt lat="45.77873531646736" lon="9.371369991296998"><ele>572.0</ele><time>2026-04-25T16:35:37.002Z</time></trkpt><trkpt lat="45.778654415998595" lon="9.371292806179849"><ele>572.0</ele><time>2026-04-25T16:35:38.002Z</time></trkpt><trkpt lat="45.77860306840709" lon="9.371176772816169"><ele>572.0</ele><time>2026-04-25T16:35:39.002Z</time></trkpt><trkpt lat="45.77855915625651" lon="9.37102471636735"><ele>572.0</ele><time>2026-04-25T16:35:40.002Z</time></trkpt><trkpt lat="45.7784961626617" lon="9.370856178160105"><ele>572.0</ele><time>2026-04-25T16:35:41.002Z</time></trkpt><trkpt lat="45.77841458355261" lon="9.370701590076939"><ele>572.0</ele><time>2026-04-25T16:35:42.002Z</time></trkpt><trkpt lat="45.778312935894284" lon="9.370567285549868"><ele>569.3333333333333</ele><time>2026-04-25T16:35:43.002Z</time></trkpt><trkpt lat="45.77818351262593" lon="9.370459223647833"><ele>566.6666666666666</ele><time>2026-04-25T16:35:44.002Z</time></trkpt><trkpt lat="45.778039260692" lon="9.37035997329846"><ele>564.0</ele><time>2026-04-25T16:35:45.002Z</time></trkpt><trkpt lat="45.77787644418582" lon="9.370268697128525"><ele>564.0</ele><time>2026-04-25T16:35:46.002Z</time></trkpt><trkpt lat="45.77772764791605" lon="9.370191883415135"><ele>564.0</ele><time>2026-04-25T16:35:47.002Z</time></trkpt><trkpt lat="45.777569701662244" lon="9.370111541809242"><ele>564.0</ele><time>2026-04-25T16:35:48.002Z</time></trkpt><trkpt lat="45.77740503290085" lon="9.37002930756049"><ele>568.6666666666666</ele><time>2026-04-25T16:35:49.002Z</time></trkpt><trkpt lat="45.77723459749271" lon="9.369949923735893"><ele>573.3333333333333</ele><time>2026-04-25T16:35:50.002Z</time></trkpt><trkpt lat="45.777072512133415" lon="9.369871982101454"><ele>578.0</ele><time>2026-04-25T16:35:51.002Z</time></trkpt><trkpt lat="45.776916579521824" lon="9.369795972349738"><ele>576.3333333333333</ele><time>2026-04-25T16:35:52.002Z</time></trkpt><trkpt lat="45.77674526421045" lon="9.3697260204473"><ele>574.6666666666666</ele><time>2026-04-25T16:35:53.002Z</time></trkpt><trkpt lat="45.776583984600634" lon="9.369655918063746"><ele>573.0</ele><time>2026-04-25T16:35:54.002Z</time></trkpt><trkpt lat="45.77642170322193" lon="9.3695661781246"><ele>573.0</ele><time>2026-04-25T16:35:55.002Z</time></trkpt><trkpt lat="45.776257780066494" lon="9.369510416572696"><ele>573.0</ele><time>2026-04-25T16:35:56.002Z</time></trkpt><trkpt lat="45.77608277972075" lon="9.36946461940691"><ele>573.0</ele><time>2026-04-25T16:35:57.002Z</time></trkpt><trkpt lat="45.775909548644705" lon="9.369418695443796"><ele>576.6666666666666</ele><time>2026-04-25T16:35:58.002Z</time></trkpt><trkpt lat="45.775744213272084" lon="9.369384198961251"><ele>580.3333333333333</ele><time>2026-04-25T16:35:59.002Z</time></trkpt><trkpt lat="45.77557691121015" lon="9.369270705368837"><ele>584.0</ele><time>2026-04-25T16:36:00.003Z</time></trkpt><trkpt lat="45.77539086762486" lon="9.369163282530964"><ele>584.0</ele><time>2026-04-25T16:36:01.003Z</time></trkpt><trkpt lat="45.77519225983202" lon="9.369066377384808"><ele>584.0</ele><time>2026-04-25T16:36:02.003Z</time></trkpt><trkpt lat="45.77502372799858" lon="9.368965778946981"><ele>584.0</ele><time>2026-04-25T16:36:03.003Z</time></trkpt><trkpt lat="45.77486297304628" lon="9.368871350296438"><ele>582.75</ele><time>2026-04-25T16:36:04.003Z</time></trkpt><trkpt lat="45.774716777749944" lon="9.368786179274805"><ele>581.5</ele><time>2026-04-25T16:36:05.003Z</time></trkpt><trkpt lat="45.77457808925409" lon="9.368709202851567"><ele>580.25</ele><time>2026-04-25T16:36:06.003Z</time></trkpt><trkpt lat="45.77444432890741" lon="9.368642531187424"><ele>579.0</ele><time>2026-04-25T16:36:07.003Z</time></trkpt><trkpt lat="45.774316837109275" lon="9.368577280321595"><ele>579.0</ele><time>2026-04-25T16:36:08.003Z</time></trkpt><trkpt lat="45.77416963722593" lon="9.368573287076934"><ele>579.0</ele><time>2026-04-25T16:36:09.003Z</time></trkpt><trkpt lat="45.77402237938484" lon="9.368589126528063"><ele>579.0</ele><time>2026-04-25T16:36:10Z</time></trkpt><trkpt lat="45.77386623378931" lon="9.368640233734247"><ele>579.0</ele><time>2026-04-25T16:36:11Z</time></trkpt><trkpt lat="45.773714366509466" lon="9.368716392950475"><ele>579.0</ele><time>2026-04-25T16:36:12Z</time></trkpt><trkpt lat="45.773553070628445" lon="9.368789055374819"><ele>579.0</ele><time>2026-04-25T16:36:13Z</time></trkpt><trkpt lat="45.77338678234665" lon="9.368832338843847"><ele>579.3333333333334</ele><time>2026-04-25T16:36:14Z</time></trkpt><trkpt lat="45.77320949310139" lon="9.368841148067375"><ele>579.6666666666667</ele><time>2026-04-25T16:36:15Z</time></trkpt><trkpt lat="45.77303009025732" lon="9.368832978498071"><ele>580.0</ele><time>2026-04-25T16:36:16Z</time></trkpt><trkpt lat="45.77284964825574" lon="9.368831485853924"><ele>581.3333333333334</ele><time>2026-04-25T16:36:17Z</time></trkpt><trkpt lat="45.77267506896607" lon="9.368841152768722"><ele>582.6666666666666</ele><time>2026-04-25T16:36:18Z</time></trkpt><trkpt lat="45.772499683645194" lon="9.368839010639775"><ele>584.0</ele><time>2026-04-25T16:36:19Z</time></trkpt><trkpt lat="45.772331080490105" lon="9.368845813632863"><ele>584.0</ele><time>2026-04-25T16:36:20Z</time></trkpt><trkpt lat="45.77215603521843" lon="9.368842584069103"><ele>584.0</ele><time>2026-04-25T16:36:21Z</time></trkpt><trkpt lat="45.771983504238726" lon="9.368843955457436"><ele>584.0</ele><time>2026-04-25T16:36:22Z</time></trkpt><trkpt lat="45.77181463113821" lon="9.368851278919514"><ele>586.0</ele><time>2026-04-25T16:36:23Z</time></trkpt><trkpt lat="45.771653040935924" lon="9.368854024753283"><ele>588.0</ele><time>2026-04-25T16:36:24Z</time></trkpt><trkpt lat="45.771498662675604" lon="9.36885609785487"><ele>590.0</ele><time>2026-04-25T16:36:25Z</time></trkpt><trkpt lat="45.77134290807699" lon="9.368860540556906"><ele>590.0</ele><time>2026-04-25T16:36:26Z</time></trkpt><trkpt lat="45.771190236918976" lon="9.368862082212589"><ele>590.0</ele><time>2026-04-25T16:36:27Z</time></trkpt><trkpt lat="45.771033054814545" lon="9.368858984091068"><ele>590.0</ele><time>2026-04-25T16:36:28Z</time></trkpt><trkpt lat="45.77087525895645" lon="9.368844401554435"><ele>591.0</ele><time>2026-04-25T16:36:29Z</time></trkpt><trkpt lat="45.7707195771135" lon="9.36880787009629"><ele>592.0</ele><time>2026-04-25T16:36:30Z</time></trkpt><trkpt lat="45.770564051724385" lon="9.368747917480558"><ele>593.0</ele><time>2026-04-25T16:36:31Z</time></trkpt><trkpt lat="45.77040923176294" lon="9.36866160350149"><ele>593.0</ele><time>2026-04-25T16:36:32Z</time></trkpt><trkpt lat="45.77025198734708" lon="9.368537874154226"><ele>593.0</ele><time>2026-04-25T16:36:33Z</time></trkpt><trkpt lat="45.77009287158479" lon="9.368381328117545"><ele>593.0</ele><time>2026-04-25T16:36:34Z</time></trkpt><trkpt lat="45.76993739768484" lon="9.368196599178015"><ele>591.3333333333333</ele><time>2026-04-25T16:36:35Z</time></trkpt><trkpt lat="45.769782410324545" lon="9.36801071398737"><ele>589.6666666666666</ele><time>2026-04-25T16:36:36Z</time></trkpt><trkpt lat="45.76963436777429" lon="9.367840966843497"><ele>588.0</ele><time>2026-04-25T16:36:37Z</time></trkpt><trkpt lat="45.76947920137468" lon="9.36766708209332"><ele>587.3333333333334</ele><time>2026-04-25T16:36:38Z</time></trkpt><trkpt lat="45.769326611727855" lon="9.367492255439753"><ele>586.6666666666667</ele><time>2026-04-25T16:36:39Z</time></trkpt><trkpt lat="45.76917382406923" lon="9.367320580661177"><ele>586.0</ele><time>2026-04-25T16:36:40Z</time></trkpt><trkpt lat="45.76902122600622" lon="9.367141937344863"><ele>586.0</ele><time>2026-04-25T16:36:41.001Z</time></trkpt><trkpt lat="45.76887124663215" lon="9.366972702045008"><ele>586.0</ele><time>2026-04-25T16:36:42.001Z</time></trkpt><trkpt lat="45.768718724944485" lon="9.36680601259552"><ele>586.0</ele><time>2026-04-25T16:36:43.001Z</time></trkpt><trkpt lat="45.76857215493792" lon="9.366638042193275"><ele>584.3333333333334</ele><time>2026-04-25T16:36:44.001Z</time></trkpt><trkpt lat="45.76843731153203" lon="9.366467806311086"><ele>582.6666666666666</ele><time>2026-04-25T16:36:45.001Z</time></trkpt><trkpt lat="45.76830262384674" lon="9.366289989141361"><ele>581.0</ele><time>2026-04-25T16:36:46.001Z</time></trkpt><trkpt lat="45.76817221215507" lon="9.366107656984042"><ele>581.0</ele><time>2026-04-25T16:36:47.001Z</time></trkpt><trkpt lat="45.76802987181112" lon="9.36593033514724"><ele>581.0</ele><time>2026-04-25T16:36:48.001Z</time></trkpt><trkpt lat="45.76787516897145" lon="9.365751179628644"><ele>581.0</ele><time>2026-04-25T16:36:49.001Z</time></trkpt><trkpt lat="45.7677126205616" lon="9.365571161639261"><ele>579.0</ele><time>2026-04-25T16:36:50.001Z</time></trkpt><trkpt lat="45.76754007365407" lon="9.365390156757302"><ele>577.0</ele><time>2026-04-25T16:36:51.001Z</time></trkpt><trkpt lat="45.76736117048703" lon="9.365208915023073"><ele>575.0</ele><time>2026-04-25T16:36:52.001Z</time></trkpt><trkpt lat="45.76718443531744" lon="9.3650155213846"><ele>575.0</ele><time>2026-04-25T16:36:53.001Z</time></trkpt><trkpt lat="45.7670117653252" lon="9.364808114158532"><ele>575.0</ele><time>2026-04-25T16:36:54.001Z</time></trkpt><trkpt lat="45.766844146219775" lon="9.364598901734617"><ele>575.0</ele><time>2026-04-25T16:36:55.001Z</time></trkpt><trkpt lat="45.76668509133257" lon="9.364398753927889"><ele>575.0</ele><time>2026-04-25T16:36:56.001Z</time></trkpt><trkpt lat="45.766533515846284" lon="9.364211113031251"><ele>575.0</ele><time>2026-04-25T16:36:57.001Z</time></trkpt><trkpt lat="45.76639201848382" lon="9.364033660953258"><ele>575.0</ele><time>2026-04-25T16:36:58.001Z</time></trkpt><trkpt lat="45.76625105168324" lon="9.36385464303074"><ele>575.0</ele><time>2026-04-25T16:36:59.001Z</time></trkpt><trkpt lat="45.766116877011825" lon="9.3636892917168"><ele>575.0</ele><time>2026-04-25T16:37:00.001Z</time></trkpt><trkpt lat="45.7659921591878" lon="9.36353378886296"><ele>575.0</ele><time>2026-04-25T16:37:01.001Z</time></trkpt><trkpt lat="45.7658727206614" lon="9.363396749297394"><ele>573.5</ele><time>2026-04-25T16:37:02.001Z</time></trkpt><trkpt lat="45.76575628779005" lon="9.363288620414373"><ele>572.0</ele><time>2026-04-25T16:37:03.001Z</time></trkpt><trkpt lat="45.76562978159067" lon="9.363218279357673"><ele>570.5</ele><time>2026-04-25T16:37:04.001Z</time></trkpt><trkpt lat="45.7654938111813" lon="9.36318207214237"><ele>569.0</ele><time>2026-04-25T16:37:05.001Z</time></trkpt><trkpt lat="45.76533666978593" lon="9.363164354897428"><ele>567.3333333333333</ele><time>2026-04-25T16:37:06.001Z</time></trkpt><trkpt lat="45.76517100274813" lon="9.363159415960425"><ele>565.6666666666666</ele><time>2026-04-25T16:37:07.001Z</time></trkpt><trkpt lat="45.76499947532107" lon="9.36315592334725"><ele>564.0</ele><time>2026-04-25T16:37:08.001Z</time></trkpt><trkpt lat="45.764834695515006" lon="9.363146994081763"><ele>564.0</ele><time>2026-04-25T16:37:09.001Z</time></trkpt><trkpt lat="45.76466836578044" lon="9.363132484470203"><ele>564.0</ele><time>2026-04-25T16:37:10.001Z</time></trkpt><trkpt lat="45.7645116819331" lon="9.363108753661429"><ele>564.0</ele><time>2026-04-25T16:37:11.001Z</time></trkpt><trkpt lat="45.76434765889382" lon="9.363051469259155"><ele>564.0</ele><time>2026-04-25T16:37:12.001Z</time></trkpt><trkpt lat="45.76418003718454" lon="9.362968506834966"><ele>564.0</ele><time>2026-04-25T16:37:13.001Z</time></trkpt><trkpt lat="45.76400992747308" lon="9.362881075240706"><ele>564.0</ele><time>2026-04-25T16:37:14.001Z</time></trkpt><trkpt lat="45.76383497211141" lon="9.362797043281006"><ele>564.0</ele><time>2026-04-25T16:37:15.001Z</time></trkpt><trkpt lat="45.763658284645196" lon="9.362716319346546"><ele>564.0</ele><time>2026-04-25T16:37:16.001Z</time></trkpt><trkpt lat="45.76349076427333" lon="9.36264102771859"><ele>564.0</ele><time>2026-04-25T16:37:17.001Z</time></trkpt><trkpt lat="45.76332373217929" lon="9.362560645867545"><ele>561.0</ele><time>2026-04-25T16:37:18.001Z</time></trkpt><trkpt lat="45.76315512166862" lon="9.362482268044433"><ele>558.0</ele><time>2026-04-25T16:37:19.002Z</time></trkpt><trkpt lat="45.762995161389675" lon="9.362407194455779"><ele>555.0</ele><time>2026-04-25T16:37:20.002Z</time></trkpt><trkpt lat="45.762844345137175" lon="9.36233467504999"><ele>555.0</ele><time>2026-04-25T16:37:21.002Z</time></trkpt><trkpt lat="45.762699866776025" lon="9.36226719280686"><ele>555.0</ele><time>2026-04-25T16:37:22.002Z</time></trkpt><trkpt lat="45.76255898204043" lon="9.36220080844033"><ele>555.0</ele><time>2026-04-25T16:37:23.002Z</time></trkpt><trkpt lat="45.76241680006234" lon="9.362133350443544"><ele>554.6666666666666</ele><time>2026-04-25T16:37:24.002Z</time></trkpt><trkpt lat="45.76227231114761" lon="9.362065021656383"><ele>554.3333333333333</ele><time>2026-04-25T16:37:25.002Z</time></trkpt><trkpt lat="45.76212614209887" lon="9.361998997615052"><ele>554.0</ele><time>2026-04-25T16:37:26.002Z</time></trkpt><trkpt lat="45.76197785964446" lon="9.361931304170046"><ele>552.25</ele><time>2026-04-25T16:37:27.002Z</time></trkpt><trkpt lat="45.761829451183566" lon="9.3618757588152"><ele>550.5</ele><time>2026-04-25T16:37:28.002Z</time></trkpt><trkpt lat="45.76168646577216" lon="9.36180342190217"><ele>548.75</ele><time>2026-04-25T16:37:29.002Z</time></trkpt><trkpt lat="45.761550917566986" lon="9.361737983299637"><ele>547.0</ele><time>2026-04-25T16:37:30.002Z</time></trkpt><trkpt lat="45.76142338420217" lon="9.361668871694274"><ele>547.0</ele><time>2026-04-25T16:37:31.002Z</time></trkpt><trkpt lat="45.761290732022225" lon="9.361603414560854"><ele>547.0</ele><time>2026-04-25T16:37:32.002Z</time></trkpt><trkpt lat="45.761160939873285" lon="9.361544950985671"><ele>547.0</ele><time>2026-04-25T16:37:33.002Z</time></trkpt><trkpt lat="45.76103580111739" lon="9.361490790375056"><ele>547.0</ele><time>2026-04-25T16:37:34.002Z</time></trkpt><trkpt lat="45.7609118439212" lon="9.361463372184575"><ele>545.5</ele><time>2026-04-25T16:37:35.002Z</time></trkpt><trkpt lat="45.7607862314682" lon="9.361478680724352"><ele>544.0</ele><time>2026-04-25T16:37:36.002Z</time></trkpt><trkpt lat="45.76065002136597" lon="9.361518571119097"><ele>542.5</ele><time>2026-04-25T16:37:37.002Z</time></trkpt><trkpt lat="45.76051031204649" lon="9.361563461449151"><ele>541.0</ele><time>2026-04-25T16:37:38.002Z</time></trkpt><trkpt lat="45.760376062365225" lon="9.361605404465006"><ele>541.0</ele><time>2026-04-25T16:37:39.002Z</time></trkpt><trkpt lat="45.76024156162677" lon="9.361640191582657"><ele>541.0</ele><time>2026-04-25T16:37:40.002Z</time></trkpt><trkpt lat="45.760109677738384" lon="9.361673451551676"><ele>541.0</ele><time>2026-04-25T16:37:41.002Z</time></trkpt><trkpt lat="45.75998033173189" lon="9.361707878066166"><ele>541.0</ele><time>2026-04-25T16:37:42.002Z</time></trkpt><trkpt lat="45.75986657060613" lon="9.361736257513938"><ele>539.4</ele><time>2026-04-25T16:37:43.002Z</time></trkpt><trkpt lat="45.759771769108724" lon="9.361764072933031"><ele>537.8</ele><time>2026-04-25T16:37:44.002Z</time></trkpt><trkpt lat="45.75968791627193" lon="9.361790803352836"><ele>536.1999999999999</ele><time>2026-04-25T16:37:45.002Z</time></trkpt><trkpt lat="45.75961744985683" lon="9.361806220700702"><ele>534.6</ele><time>2026-04-25T16:37:46.002Z</time></trkpt><trkpt lat="45.75951495455878" lon="9.361801672783857"><ele>533.0</ele><time>2026-04-25T16:37:48.002Z</time></trkpt><trkpt lat="45.7594253176711" lon="9.361752095425125"><ele>532.6</ele><time>2026-04-25T16:37:50.002Z</time></trkpt><trkpt lat="45.75932099942045" lon="9.361763609330264"><ele>532.1999999999999</ele><time>2026-04-25T16:37:52.002Z</time></trkpt><trkpt lat="45.75924576624117" lon="9.36185332082438"><ele>531.8</ele><time>2026-04-25T16:37:54.002Z</time></trkpt><trkpt lat="45.75912628711017" lon="9.361890425030198"><ele>531.4</ele><time>2026-04-25T16:37:56.003Z</time></trkpt><trkpt lat="45.759045529007395" lon="9.361867377111597"><ele>531.0</ele><time>2026-04-25T16:37:57.003Z</time></trkpt><trkpt lat="45.75894159197234" lon="9.361824284096661"><ele>531.0</ele><time>2026-04-25T16:37:58.003Z</time></trkpt><trkpt lat="45.75884738778981" lon="9.361791440999546"><ele>531.0</ele><time>2026-04-25T16:37:59.003Z</time></trkpt><trkpt lat="45.758728979552735" lon="9.361755444826068"><ele>531.0</ele><time>2026-04-25T16:38:00.003Z</time></trkpt><trkpt lat="45.758580689302754" lon="9.361702134577268"><ele>531.0</ele><time>2026-04-25T16:38:01.003Z</time></trkpt><trkpt lat="45.75842215189644" lon="9.361629877097407"><ele>530.3333333333334</ele><time>2026-04-25T16:38:02.003Z</time></trkpt><trkpt lat="45.75827124560675" lon="9.361563262254979"><ele>529.6666666666667</ele><time>2026-04-25T16:38:03.003Z</time></trkpt><trkpt lat="45.75810970143901" lon="9.361510656770115"><ele>529.0</ele><time>2026-04-25T16:38:04.003Z</time></trkpt><trkpt lat="45.757943815409796" lon="9.361462796748478"><ele>529.0</ele><time>2026-04-25T16:38:05.003Z</time></trkpt><trkpt lat="45.757774044488976" lon="9.361414464309817"><ele>529.0</ele><time>2026-04-25T16:38:06.003Z</time></trkpt><trkpt lat="45.757611778402755" lon="9.361365369535386"><ele>529.0</ele><time>2026-04-25T16:38:07.003Z</time></trkpt><trkpt lat="45.75745387189582" lon="9.36132557254491"><ele>529.25</ele><time>2026-04-25T16:38:08.003Z</time></trkpt><trkpt lat="45.75730393012462" lon="9.36129793383399"><ele>529.5</ele><time>2026-04-25T16:38:09.003Z</time></trkpt><trkpt lat="45.75716435479274" lon="9.361278132591151"><ele>529.75</ele><time>2026-04-25T16:38:10.003Z</time></trkpt><trkpt lat="45.757027912972255" lon="9.361278224531251"><ele>530.0</ele><time>2026-04-25T16:38:11.003Z</time></trkpt><trkpt lat="45.7569036248204" lon="9.361297997884494"><ele>529.0</ele><time>2026-04-25T16:38:12.003Z</time></trkpt><trkpt lat="45.7567879010341" lon="9.361358141849049"><ele>528.0</ele><time>2026-04-25T16:38:13.003Z</time></trkpt><trkpt lat="45.75668811602201" lon="9.361453414258532"><ele>527.0</ele><time>2026-04-25T16:38:14.003Z</time></trkpt><trkpt lat="45.75659202362342" lon="9.361585482315574"><ele>526.0</ele><time>2026-04-25T16:38:15.003Z</time></trkpt><trkpt lat="45.756518822339615" lon="9.361724842575818"><ele>526.0</ele><time>2026-04-25T16:38:16.001Z</time></trkpt><trkpt lat="45.756447926859444" lon="9.361850388222965"><ele>526.0</ele><time>2026-04-25T16:38:17.001Z</time></trkpt><trkpt lat="45.75637154892306" lon="9.361940030304346"><ele>526.0</ele><time>2026-04-25T16:38:18.001Z</time></trkpt><trkpt lat="45.7562864416008" lon="9.361986670215078"><ele>526.0</ele><time>2026-04-25T16:38:19.001Z</time></trkpt><trkpt lat="45.756187647263225" lon="9.362009478594794"><ele>526.0</ele><time>2026-04-25T16:38:20.001Z</time></trkpt><trkpt lat="45.75607526519566" lon="9.36201929115911"><ele>525.0</ele><time>2026-04-25T16:38:21.001Z</time></trkpt><trkpt lat="45.75595984721248" lon="9.362042370860092"><ele>524.0</ele><time>2026-04-25T16:38:22.001Z</time></trkpt><trkpt lat="45.755859601606765" lon="9.362112876298225"><ele>523.0</ele><time>2026-04-25T16:38:23.001Z</time></trkpt><trkpt lat="45.75577308919366" lon="9.362210888644881"><ele>522.0</ele><time>2026-04-25T16:38:24.001Z</time></trkpt><trkpt lat="45.75568910334829" lon="9.36232934624047"><ele>522.0</ele><time>2026-04-25T16:38:25.001Z</time></trkpt><trkpt lat="45.75560853489588" lon="9.362464797210402"><ele>522.0</ele><time>2026-04-25T16:38:26.001Z</time></trkpt><trkpt lat="45.7555258051644" lon="9.362580366498083"><ele>522.0</ele><time>2026-04-25T16:38:27.001Z</time></trkpt><trkpt lat="45.755434828430815" lon="9.362663551430485"><ele>522.0</ele><time>2026-04-25T16:38:28.001Z</time></trkpt><trkpt lat="45.75534884929291" lon="9.362705742513851"><ele>522.0</ele><time>2026-04-25T16:38:29.001Z</time></trkpt><trkpt lat="45.755236550652064" lon="9.362698977432872"><ele>523.75</ele><time>2026-04-25T16:38:30.001Z</time></trkpt><trkpt lat="45.75510159132245" lon="9.362689976655785"><ele>525.5</ele><time>2026-04-25T16:38:31.001Z</time></trkpt><trkpt lat="45.7549515085552" lon="9.362700893715333"><ele>527.25</ele><time>2026-04-25T16:38:32.001Z</time></trkpt><trkpt lat="45.754793054956686" lon="9.362747413231533"><ele>529.0</ele><time>2026-04-25T16:38:33.001Z</time></trkpt><trkpt lat="45.75462817316783" lon="9.362799687771332"><ele>529.0</ele><time>2026-04-25T16:38:34.001Z</time></trkpt><trkpt lat="45.75445991458705" lon="9.362848486852577"><ele>529.0</ele><time>2026-04-25T16:38:35.001Z</time></trkpt><trkpt lat="45.75430041244976" lon="9.362894328426005"><ele>529.0</ele><time>2026-04-25T16:38:36.001Z</time></trkpt><trkpt lat="45.754151175566" lon="9.362948469723564"><ele>530.5</ele><time>2026-04-25T16:38:37.001Z</time></trkpt><trkpt lat="45.75401008191767" lon="9.363009429481753"><ele>532.0</ele><time>2026-04-25T16:38:38.001Z</time></trkpt><trkpt lat="45.75388051971343" lon="9.363053294928037"><ele>533.5</ele><time>2026-04-25T16:38:39.001Z</time></trkpt><trkpt lat="45.753769931119" lon="9.36306631590315"><ele>535.0</ele><time>2026-04-25T16:38:40.001Z</time></trkpt><trkpt lat="45.753655311460605" lon="9.363066435154066"><ele>534.0</ele><time>2026-04-25T16:38:41.001Z</time></trkpt><trkpt lat="45.753536791355096" lon="9.363046332374347"><ele>533.0</ele><time>2026-04-25T16:38:42.001Z</time></trkpt><trkpt lat="45.75340173125954" lon="9.3630258917985"><ele>532.0</ele><time>2026-04-25T16:38:43.001Z</time></trkpt><trkpt lat="45.753246360120414" lon="9.363033878200373"><ele>531.0</ele><time>2026-04-25T16:38:44.001Z</time></trkpt><trkpt lat="45.75307394666971" lon="9.363078175952735"><ele>517.3333333333334</ele><time>2026-04-25T16:38:45.001Z</time></trkpt><trkpt lat="45.752888525508254" lon="9.363107091744244"><ele>503.6666666666667</ele><time>2026-04-25T16:38:46.001Z</time></trkpt><trkpt lat="45.75271506156859" lon="9.363112027685935"><ele>490.0</ele><time>2026-04-25T16:38:47.001Z</time></trkpt><trkpt lat="45.752557792624714" lon="9.363105386054734"><ele>488.75</ele><time>2026-04-25T16:38:48.001Z</time></trkpt><trkpt lat="45.752409583680844" lon="9.363118795013873"><ele>487.5</ele><time>2026-04-25T16:38:49.001Z</time></trkpt><trkpt lat="45.75226247854129" lon="9.363158122489873"><ele>486.25</ele><time>2026-04-25T16:38:50.001Z</time></trkpt><trkpt lat="45.752124088102626" lon="9.363228251250012"><ele>485.0</ele><time>2026-04-25T16:38:51.001Z</time></trkpt><trkpt lat="45.75198623003919" lon="9.363267161690741"><ele>482.75</ele><time>2026-04-25T16:38:52.001Z</time></trkpt><trkpt lat="45.75185072109815" lon="9.36327039961479"><ele>480.5</ele><time>2026-04-25T16:38:53.001Z</time></trkpt><trkpt lat="45.75171551381829" lon="9.363236029531242"><ele>478.25</ele><time>2026-04-25T16:38:54.001Z</time></trkpt><trkpt lat="45.75159494209109" lon="9.363174079087013"><ele>476.0</ele><time>2026-04-25T16:38:55.001Z</time></trkpt><trkpt lat="45.751486404319195" lon="9.363080098106689"><ele>483.75</ele><time>2026-04-25T16:38:56.001Z</time></trkpt><trkpt lat="45.751384697285275" lon="9.362997818599297"><ele>491.5</ele><time>2026-04-25T16:38:57.001Z</time></trkpt><trkpt lat="45.751275661572336" lon="9.362948535519896"><ele>499.25</ele><time>2026-04-25T16:38:58.001Z</time></trkpt><trkpt lat="45.7511639014518" lon="9.362950606588713"><ele>507.0</ele><time>2026-04-25T16:38:59.001Z</time></trkpt><trkpt lat="45.75106089864655" lon="9.36301109816988"><ele>501.40000000000003</ele><time>2026-04-25T16:39:00.001Z</time></trkpt><trkpt lat="45.750952409900925" lon="9.363081798454806"><ele>495.80000000000007</ele><time>2026-04-25T16:39:01.001Z</time></trkpt><trkpt lat="45.75084622276157" lon="9.363137477223763"><ele>490.2</ele><time>2026-04-25T16:39:02.001Z</time></trkpt><trkpt lat="45.75074204615287" lon="9.363133563917264"><ele>484.6</ele><time>2026-04-25T16:39:03.001Z</time></trkpt><trkpt lat="45.75064366447484" lon="9.363086545973312"><ele>479.0</ele><time>2026-04-25T16:39:04.001Z</time></trkpt><trkpt lat="45.75055846125303" lon="9.362990856255886"><ele>479.0</ele><time>2026-04-25T16:39:05.002Z</time></trkpt><trkpt lat="45.75049748291477" lon="9.362865338924816"><ele>479.0</ele><time>2026-04-25T16:39:06.002Z</time></trkpt><trkpt lat="45.75045009580706" lon="9.3627356618834"><ele>479.0</ele><time>2026-04-25T16:39:07.002Z</time></trkpt><trkpt lat="45.75042030283441" lon="9.362596505376798"><ele>479.0</ele><time>2026-04-25T16:39:08.002Z</time></trkpt><trkpt lat="45.750407584012535" lon="9.362450924371773"><ele>479.0</ele><time>2026-04-25T16:39:09.002Z</time></trkpt><trkpt lat="45.750419724847895" lon="9.362307050288148"><ele>477.25</ele><time>2026-04-25T16:39:10.002Z</time></trkpt><trkpt lat="45.75044691232658" lon="9.36213650718796"><ele>475.5</ele><time>2026-04-25T16:39:11.002Z</time></trkpt><trkpt lat="45.75049246029851" lon="9.361963697421038"><ele>473.75</ele><time>2026-04-25T16:39:12.002Z</time></trkpt><trkpt lat="45.75056175297609" lon="9.361778498501423"><ele>472.0</ele><time>2026-04-25T16:39:13.002Z</time></trkpt><trkpt lat="45.75064147327291" lon="9.361590497591331"><ele>472.0</ele><time>2026-04-25T16:39:14.002Z</time></trkpt><trkpt lat="45.7507118873096" lon="9.361377187764656"><ele>472.0</ele><time>2026-04-25T16:39:15.002Z</time></trkpt><trkpt lat="45.75078453319658" lon="9.361156034914936"><ele>472.0</ele><time>2026-04-25T16:39:16.002Z</time></trkpt><trkpt lat="45.75085995880893" lon="9.360957865829723"><ele>469.0</ele><time>2026-04-25T16:39:17.002Z</time></trkpt><trkpt lat="45.750928560990346" lon="9.360764459753725"><ele>466.0</ele><time>2026-04-25T16:39:18.002Z</time></trkpt><trkpt lat="45.75098598506195" lon="9.360605096470422"><ele>463.0</ele><time>2026-04-25T16:39:19.002Z</time></trkpt><trkpt lat="45.75103181428083" lon="9.360468397803235"><ele>460.0</ele><time>2026-04-25T16:39:20.002Z</time></trkpt><trkpt lat="45.751054334310865" lon="9.36035013005247"><ele>458.2</ele><time>2026-04-25T16:39:21.002Z</time></trkpt><trkpt lat="45.75098199201682" lon="9.360221707456194"><ele>456.4</ele><time>2026-04-25T16:39:23.002Z</time></trkpt><trkpt lat="45.750902230853576" lon="9.360218805055453"><ele>454.6</ele><time>2026-04-25T16:39:24.002Z</time></trkpt><trkpt lat="45.75082369444816" lon="9.360227415853867"><ele>452.8</ele><time>2026-04-25T16:39:25.002Z</time></trkpt><trkpt lat="45.750742169757046" lon="9.360328303472084"><ele>451.0</ele><time>2026-04-25T16:39:26.002Z</time></trkpt><trkpt lat="45.75070929267941" lon="9.360493479389731"><ele>453.25</ele><time>2026-04-25T16:39:27.002Z</time></trkpt><trkpt lat="45.75065232122007" lon="9.36064843624441"><ele>455.5</ele><time>2026-04-25T16:39:28.002Z</time></trkpt><trkpt lat="45.75059399695538" lon="9.360825289270863"><ele>457.75</ele><time>2026-04-25T16:39:29.002Z</time></trkpt><trkpt lat="45.75053156058752" lon="9.361005577195543"><ele>460.0</ele><time>2026-04-25T16:39:30.002Z</time></trkpt><trkpt lat="45.750452383338605" lon="9.36117678692105"><ele>460.0</ele><time>2026-04-25T16:39:31.002Z</time></trkpt><trkpt lat="45.75035035589371" lon="9.361334858078504"><ele>460.0</ele><time>2026-04-25T16:39:32.002Z</time></trkpt><trkpt lat="45.75024899854922" lon="9.361473077747629"><ele>460.0</ele><time>2026-04-25T16:39:33.002Z</time></trkpt><trkpt lat="45.7501617724346" lon="9.361623655537231"><ele>460.0</ele><time>2026-04-25T16:39:34.002Z</time></trkpt><trkpt lat="45.75005062683905" lon="9.361741608070938"><ele>455.25</ele><time>2026-04-25T16:39:35.002Z</time></trkpt><trkpt lat="45.74996345821365" lon="9.3618842510282"><ele>450.5</ele><time>2026-04-25T16:39:36.002Z</time></trkpt><trkpt lat="45.74986358775915" lon="9.361997361499357"><ele>445.75</ele><time>2026-04-25T16:39:37.002Z</time></trkpt><trkpt lat="45.749754251941866" lon="9.362083736094926"><ele>441.0</ele><time>2026-04-25T16:39:38.002Z</time></trkpt><trkpt lat="45.749654722812686" lon="9.362195337318758"><ele>443.0</ele><time>2026-04-25T16:39:39.002Z</time></trkpt><trkpt lat="45.74958063902613" lon="9.362302416728506"><ele>445.0</ele><time>2026-04-25T16:39:40.002Z</time></trkpt><trkpt lat="45.74953411144571" lon="9.362421386944474"><ele>447.0</ele><time>2026-04-25T16:39:41.002Z</time></trkpt><trkpt lat="45.749543956427836" lon="9.362571433552455"><ele>449.0</ele><time>2026-04-25T16:39:42.002Z</time></trkpt><trkpt lat="45.74959145700464" lon="9.362705541585443"><ele>451.0</ele><time>2026-04-25T16:39:43.002Z</time></trkpt><trkpt lat="45.749667034778156" lon="9.362845529748745"><ele>451.0</ele><time>2026-04-25T16:39:44.002Z</time></trkpt><trkpt lat="45.749757388189536" lon="9.362979307799973"><ele>451.0</ele><time>2026-04-25T16:39:45.002Z</time></trkpt><trkpt lat="45.74983204230381" lon="9.363118986958987"><ele>451.0</ele><time>2026-04-25T16:39:46.002Z</time></trkpt><trkpt lat="45.749918710213215" lon="9.363248436753016"><ele>451.0</ele><time>2026-04-25T16:39:47.002Z</time></trkpt><trkpt lat="45.75000019674919" lon="9.363379603037917"><ele>448.75</ele><time>2026-04-25T16:39:48.003Z</time></trkpt><trkpt lat="45.75007201979033" lon="9.36351281498006"><ele>446.5</ele><time>2026-04-25T16:39:49.003Z</time></trkpt><trkpt lat="45.750137914496214" lon="9.363650794450496"><ele>444.25</ele><time>2026-04-25T16:39:50.003Z</time></trkpt><trkpt lat="45.750203973739985" lon="9.36378382672167"><ele>442.0</ele><time>2026-04-25T16:39:51.003Z</time></trkpt><trkpt lat="45.750213527929226" lon="9.363942156966376"><ele>441.20000000000005</ele><time>2026-04-25T16:39:52.003Z</time></trkpt><trkpt lat="45.75021096738874" lon="9.364086032351823"><ele>440.40000000000003</ele><time>2026-04-25T16:39:53.003Z</time></trkpt><trkpt lat="45.75017048796448" lon="9.364218279360513"><ele>439.59999999999997</ele><time>2026-04-25T16:39:54.003Z</time></trkpt><trkpt lat="45.750130054101454" lon="9.364335441273075"><ele>438.79999999999995</ele><time>2026-04-25T16:39:55.003Z</time></trkpt><trkpt lat="45.7500803214485" lon="9.364446733780607"><ele>438.0</ele><time>2026-04-25T16:39:56.003Z</time></trkpt><trkpt lat="45.7499879148301" lon="9.364494656491813"><ele>438.4</ele><time>2026-04-25T16:39:57.003Z</time></trkpt><trkpt lat="45.74987610056364" lon="9.364511222559567"><ele>438.79999999999995</ele><time>2026-04-25T16:39:58.003Z</time></trkpt><trkpt lat="45.749761584853346" lon="9.364509931756528"><ele>439.2</ele><time>2026-04-25T16:39:59.003Z</time></trkpt><trkpt lat="45.74965981007694" lon="9.364531949065277"><ele>439.6</ele><time>2026-04-25T16:40:00.003Z</time></trkpt><trkpt lat="45.74955869963978" lon="9.364603258043175"><ele>440.0</ele><time>2026-04-25T16:40:01.003Z</time></trkpt><trkpt lat="45.74947602985499" lon="9.364724312792273"><ele>440.0</ele><time>2026-04-25T16:40:02.003Z</time></trkpt><trkpt lat="45.749403740983674" lon="9.364883225265084"><ele>440.0</ele><time>2026-04-25T16:40:03.003Z</time></trkpt><trkpt lat="45.749335121053484" lon="9.365043662777536"><ele>440.0</ele><time>2026-04-25T16:40:04.003Z</time></trkpt><trkpt lat="45.74927769057712" lon="9.365202289207957"><ele>440.0</ele><time>2026-04-25T16:40:05.003Z</time></trkpt><trkpt lat="45.749216943929234" lon="9.365372437319406"><ele>435.25</ele><time>2026-04-25T16:40:06.003Z</time></trkpt><trkpt lat="45.74916524253695" lon="9.365549798195387"><ele>430.5</ele><time>2026-04-25T16:40:07.003Z</time></trkpt><trkpt lat="45.74911880861029" lon="9.365719171777021"><ele>425.75</ele><time>2026-04-25T16:40:08.003Z</time></trkpt><trkpt lat="45.749077984560664" lon="9.3658903138241"><ele>421.0</ele><time>2026-04-25T16:40:09.003Z</time></trkpt><trkpt lat="45.74903490583843" lon="9.366072963517475"><ele>421.0</ele><time>2026-04-25T16:40:10.003Z</time></trkpt><trkpt lat="45.74898507559246" lon="9.366260780537552"><ele>421.0</ele><time>2026-04-25T16:40:11.003Z</time></trkpt><trkpt lat="45.74893212581799" lon="9.366454480787718"><ele>421.0</ele><time>2026-04-25T16:40:12.003Z</time></trkpt><trkpt lat="45.748879110814016" lon="9.366654625442026"><ele>421.0</ele><time>2026-04-25T16:40:13.003Z</time></trkpt><trkpt lat="45.74882701401763" lon="9.366854146724394"><ele>423.5</ele><time>2026-04-25T16:40:14.003Z</time></trkpt><trkpt lat="45.74877778153635" lon="9.367056654510796"><ele>426.0</ele><time>2026-04-25T16:40:15.003Z</time></trkpt><trkpt lat="45.74872552236152" lon="9.367252284381879"><ele>428.5</ele><time>2026-04-25T16:40:16.003Z</time></trkpt><trkpt lat="45.74869959938758" lon="9.367461988361256"><ele>431.0</ele><time>2026-04-25T16:40:17.003Z</time></trkpt><trkpt lat="45.74868019939859" lon="9.367680982772763"><ele>432.75</ele><time>2026-04-25T16:40:18.003Z</time></trkpt><trkpt lat="45.74866581896543" lon="9.367896890470757"><ele>434.5</ele><time>2026-04-25T16:40:19.003Z</time></trkpt><trkpt lat="45.748651484324085" lon="9.368105900507452"><ele>436.25</ele><time>2026-04-25T16:40:20.003Z</time></trkpt><trkpt lat="45.74863077122113" lon="9.368283239840505"><ele>438.0</ele><time>2026-04-25T16:40:21.003Z</time></trkpt><trkpt lat="45.74860777785649" lon="9.36845547939055"><ele>438.0</ele><time>2026-04-25T16:40:22.001Z</time></trkpt><trkpt lat="45.74857393825328" lon="9.368611868574893"><ele>438.0</ele><time>2026-04-25T16:40:23.001Z</time></trkpt><trkpt lat="45.7485212864884" lon="9.368758456813193"><ele>438.0</ele><time>2026-04-25T16:40:24.001Z</time></trkpt><trkpt lat="45.74844871144069" lon="9.368911919220597"><ele>438.0</ele><time>2026-04-25T16:40:25.001Z</time></trkpt><trkpt lat="45.74835276584742" lon="9.369043667105146"><ele>431.25</ele><time>2026-04-25T16:40:26.001Z</time></trkpt><trkpt lat="45.74824919765345" lon="9.369172234903905"><ele>424.5</ele><time>2026-04-25T16:40:27.001Z</time></trkpt><trkpt lat="45.74814598710037" lon="9.36929505218924"><ele>417.75</ele><time>2026-04-25T16:40:28.001Z</time></trkpt><trkpt lat="45.74803860655437" lon="9.369416547004525"><ele>411.0</ele><time>2026-04-25T16:40:29.001Z</time></trkpt><trkpt lat="45.74793301583919" lon="9.369543115712933"><ele>411.0</ele><time>2026-04-25T16:40:30.001Z</time></trkpt><trkpt lat="45.747828329759706" lon="9.369662159858397"><ele>411.0</ele><time>2026-04-25T16:40:31.001Z</time></trkpt><trkpt lat="45.74772285346001" lon="9.369777911887514"><ele>411.0</ele><time>2026-04-25T16:40:32.001Z</time></trkpt><trkpt lat="45.74760715849153" lon="9.369883545786218"><ele>411.0</ele><time>2026-04-25T16:40:33.001Z</time></trkpt><trkpt lat="45.74747012851081" lon="9.369954257649042"><ele>409.25</ele><time>2026-04-25T16:40:34.001Z</time></trkpt><trkpt lat="45.74732287125035" lon="9.369978940715571"><ele>407.5</ele><time>2026-04-25T16:40:35.001Z</time></trkpt><trkpt lat="45.747177274116744" lon="9.369991587388997"><ele>405.75</ele><time>2026-04-25T16:40:36.001Z</time></trkpt><trkpt lat="45.74702981269172" lon="9.370004417174519"><ele>404.0</ele><time>2026-04-25T16:40:37.001Z</time></trkpt><trkpt lat="45.746880635584006" lon="9.370020212953099"><ele>403.75</ele><time>2026-04-25T16:40:38.001Z</time></trkpt><trkpt lat="45.74673667021777" lon="9.370034569473388"><ele>403.5</ele><time>2026-04-25T16:40:39.001Z</time></trkpt><trkpt lat="45.74659649794286" lon="9.370046250473713"><ele>403.25</ele><time>2026-04-25T16:40:40.001Z</time></trkpt><trkpt lat="45.74646203208568" lon="9.370056956455663"><ele>403.0</ele><time>2026-04-25T16:40:41.001Z</time></trkpt><trkpt lat="45.74632630716452" lon="9.370073060032334"><ele>403.0</ele><time>2026-04-25T16:40:42.001Z</time></trkpt><trkpt lat="45.74620320790012" lon="9.370095114919945"><ele>403.0</ele><time>2026-04-25T16:40:43.001Z</time></trkpt><trkpt lat="45.74608946356137" lon="9.370139771732726"><ele>403.0</ele><time>2026-04-25T16:40:44.001Z</time></trkpt><trkpt lat="45.745978598193524" lon="9.37018208253933"><ele>403.0</ele><time>2026-04-25T16:40:45.001Z</time></trkpt><trkpt lat="45.745870927359064" lon="9.370290950942964"><ele>401.75</ele><time>2026-04-25T16:40:46.001Z</time></trkpt><trkpt lat="45.74579425347823" lon="9.370443164635999"><ele>400.5</ele><time>2026-04-25T16:40:47.001Z</time></trkpt><trkpt lat="45.745724604570434" lon="9.370617075380734"><ele>399.25</ele><time>2026-04-25T16:40:48.001Z</time></trkpt><trkpt lat="45.74566018211939" lon="9.370790496526412"><ele>398.0</ele><time>2026-04-25T16:40:49.001Z</time></trkpt><trkpt lat="45.74560525009963" lon="9.370960474410232"><ele>397.75</ele><time>2026-04-25T16:40:50.001Z</time></trkpt><trkpt lat="45.74559104679121" lon="9.371146553913741"><ele>397.5</ele><time>2026-04-25T16:40:51.001Z</time></trkpt><trkpt lat="45.74554987258763" lon="9.37131254761368"><ele>397.25</ele><time>2026-04-25T16:40:52.001Z</time></trkpt><trkpt lat="45.74552454877579" lon="9.371478516673447"><ele>397.0</ele><time>2026-04-25T16:40:53.001Z</time></trkpt><trkpt lat="45.74549543855654" lon="9.371702555314627"><ele>396.75</ele><time>2026-04-25T16:40:54.001Z</time></trkpt><trkpt lat="45.74542979490075" lon="9.371857505344233"><ele>396.5</ele><time>2026-04-25T16:40:55.001Z</time></trkpt><trkpt lat="45.745367643242275" lon="9.372005467379568"><ele>396.25</ele><time>2026-04-25T16:40:56.001Z</time></trkpt><trkpt lat="45.74528698239715" lon="9.372159495316767"><ele>396.0</ele><time>2026-04-25T16:40:57.001Z</time></trkpt><trkpt lat="45.74519343385678" lon="9.37229743627857"><ele>393.0</ele><time>2026-04-25T16:40:58.001Z</time></trkpt><trkpt lat="45.745091563893176" lon="9.372424098410635"><ele>390.0</ele><time>2026-04-25T16:40:59.001Z</time></trkpt><trkpt lat="45.74498995384181" lon="9.372543117407796"><ele>387.0</ele><time>2026-04-25T16:41:00.001Z</time></trkpt><trkpt lat="45.74488726838963" lon="9.372660737824095"><ele>384.0</ele><time>2026-04-25T16:41:01.001Z</time></trkpt><trkpt lat="45.74479191094632" lon="9.372796644329583"><ele>384.0</ele><time>2026-04-25T16:41:02.001Z</time></trkpt><trkpt lat="45.74469044266425" lon="9.372917784873103"><ele>384.0</ele><time>2026-04-25T16:41:03.001Z</time></trkpt><trkpt lat="45.74459388465501" lon="9.373056201137778"><ele>384.0</ele><time>2026-04-25T16:41:04.001Z</time></trkpt><trkpt lat="45.74450753475685" lon="9.373217941112408"><ele>384.0</ele><time>2026-04-25T16:41:05.001Z</time></trkpt><trkpt lat="45.74443186676812" lon="9.373395850665986"><ele>383.0</ele><time>2026-04-25T16:41:06.001Z</time></trkpt><trkpt lat="45.74436619008047" lon="9.37356094339193"><ele>382.0</ele><time>2026-04-25T16:41:07.001Z</time></trkpt><trkpt lat="45.74430169272816" lon="9.373726013680933"><ele>381.0</ele><time>2026-04-25T16:41:08.001Z</time></trkpt><trkpt lat="45.74423705080433" lon="9.37388804078367"><ele>380.0</ele><time>2026-04-25T16:41:09.001Z</time></trkpt><trkpt lat="45.744172969313865" lon="9.374043736797365"><ele>380.0</ele><time>2026-04-25T16:41:10.001Z</time></trkpt><trkpt lat="45.74410916238522" lon="9.374209768528138"><ele>380.0</ele><time>2026-04-25T16:41:11.001Z</time></trkpt><trkpt lat="45.74404664169079" lon="9.374370204426445"><ele>380.0</ele><time>2026-04-25T16:41:12.001Z</time></trkpt><trkpt lat="45.743985480605026" lon="9.374518327481862"><ele>380.0</ele><time>2026-04-25T16:41:13.001Z</time></trkpt><trkpt lat="45.74393310618142" lon="9.374649831798969"><ele>380.0</ele><time>2026-04-25T16:41:14.001Z</time></trkpt><trkpt lat="45.74388231277747" lon="9.374738926015944"><ele>380.0</ele><time>2026-04-25T16:41:15.001Z</time></trkpt><trkpt lat="45.74382208435452" lon="9.374778940505223"><ele>380.0</ele><time>2026-04-25T16:41:16.001Z</time></trkpt><trkpt lat="45.74367003900103" lon="9.374600467109085"><ele>380.0</ele><time>2026-04-25T16:41:18.001Z</time></trkpt><trkpt lat="45.74363948956545" lon="9.374492865195618"><ele>380.0</ele><time>2026-04-25T16:41:19.001Z</time></trkpt><trkpt lat="45.743580299583975" lon="9.374360998701917"><ele>378.8</ele><time>2026-04-25T16:41:20.001Z</time></trkpt><trkpt lat="45.74353657519254" lon="9.374183503704968"><ele>377.6</ele><time>2026-04-25T16:41:21.001Z</time></trkpt><trkpt lat="45.74347785271305" lon="9.374032240677412"><ele>376.4</ele><time>2026-04-25T16:41:22.001Z</time></trkpt><trkpt lat="45.74343466546935" lon="9.373904209469874"><ele>375.2</ele><time>2026-04-25T16:41:23.001Z</time></trkpt><trkpt lat="45.74339402199855" lon="9.373785129264318"><ele>374.0</ele><time>2026-04-25T16:41:24.001Z</time></trkpt><trkpt lat="45.74334047398789" lon="9.373705114590358"><ele>374.0</ele><time>2026-04-25T16:41:25.001Z</time></trkpt><trkpt lat="45.74324871579845" lon="9.37368955074729"><ele>374.0</ele><time>2026-04-25T16:41:26.001Z</time></trkpt><trkpt lat="45.7431664196333" lon="9.373713325361823"><ele>374.0</ele><time>2026-04-25T16:41:27.001Z</time></trkpt><trkpt lat="45.7431005834772" lon="9.373778087153937"><ele>374.0</ele><time>2026-04-25T16:41:28.001Z</time></trkpt><trkpt lat="45.74303884766568" lon="9.373888665247256"><ele>374.0</ele><time>2026-04-25T16:41:29.001Z</time></trkpt><trkpt lat="45.74293851658658" lon="9.373974418608435"><ele>374.0</ele><time>2026-04-25T16:41:30.001Z</time></trkpt><trkpt lat="45.74285827458965" lon="9.374065838498018"><ele>374.0</ele><time>2026-04-25T16:41:31.001Z</time></trkpt><trkpt lat="45.74276396569226" lon="9.374123592689108"><ele>374.0</ele><time>2026-04-25T16:41:32.001Z</time></trkpt><trkpt lat="45.74264710383747" lon="9.374166181367274"><ele>374.0</ele><time>2026-04-25T16:41:33.002Z</time></trkpt><trkpt lat="45.74252296471174" lon="9.37420399707841"><ele>372.0</ele><time>2026-04-25T16:41:34.002Z</time></trkpt><trkpt lat="45.74240867488096" lon="9.37423846466599"><ele>370.0</ele><time>2026-04-25T16:41:35.002Z</time></trkpt><trkpt lat="45.74228849958209" lon="9.374242831459414"><ele>368.0</ele><time>2026-04-25T16:41:36.002Z</time></trkpt><trkpt lat="45.74214020214653" lon="9.37421656604295"><ele>366.0</ele><time>2026-04-25T16:41:37.002Z</time></trkpt><trkpt lat="45.74196733323543" lon="9.374201438651273"><ele>364.0</ele><time>2026-04-25T16:41:38.002Z</time></trkpt><trkpt lat="45.741778546927826" lon="9.37418271946707"><ele>362.0</ele><time>2026-04-25T16:41:39.002Z</time></trkpt><trkpt lat="45.74159772825576" lon="9.374172425482561"><ele>360.0</ele><time>2026-04-25T16:41:40.002Z</time></trkpt><trkpt lat="45.74142298402615" lon="9.374165675450916"><ele>360.0</ele><time>2026-04-25T16:41:41.002Z</time></trkpt><trkpt lat="45.74124792884583" lon="9.374146060672958"><ele>360.0</ele><time>2026-04-25T16:41:42.002Z</time></trkpt><trkpt lat="45.74107600667564" lon="9.374130464793113"><ele>360.0</ele><time>2026-04-25T16:41:43.002Z</time></trkpt><trkpt lat="45.740918556467115" lon="9.374117414448262"><ele>360.6666666666667</ele><time>2026-04-25T16:41:44.002Z</time></trkpt><trkpt lat="45.740767591458116" lon="9.374101129456415"><ele>361.33333333333337</ele><time>2026-04-25T16:41:45.002Z</time></trkpt><trkpt lat="45.74061219426529" lon="9.374084074415494"><ele>362.0</ele><time>2026-04-25T16:41:46.002Z</time></trkpt><trkpt lat="45.74044540105475" lon="9.374041450725286"><ele>362.0</ele><time>2026-04-25T16:41:47.002Z</time></trkpt><trkpt lat="45.74028247454471" lon="9.37398119379299"><ele>362.0</ele><time>2026-04-25T16:41:48.002Z</time></trkpt><trkpt lat="45.740135621690165" lon="9.37390940708287"><ele>362.0</ele><time>2026-04-25T16:41:49.002Z</time></trkpt><trkpt lat="45.74000417578566" lon="9.37383861720296"><ele>360.6</ele><time>2026-04-25T16:41:50.002Z</time></trkpt><trkpt lat="45.73988173042783" lon="9.373765844346831"><ele>359.20000000000005</ele><time>2026-04-25T16:41:51.002Z</time></trkpt><trkpt lat="45.73977788633832" lon="9.373693177751264"><ele>357.8</ele><time>2026-04-25T16:41:52.002Z</time></trkpt><trkpt lat="45.739683992514905" lon="9.373618903997954"><ele>356.4</ele><time>2026-04-25T16:41:53.002Z</time></trkpt><trkpt lat="45.73961221996872" lon="9.373546777056218"><ele>355.0</ele><time>2026-04-25T16:41:54.002Z</time></trkpt><trkpt lat="45.739553179491075" lon="9.373458591282562"><ele>355.0</ele><time>2026-04-25T16:41:55.002Z</time></trkpt><trkpt lat="45.739510707807845" lon="9.373362275187796"><ele>355.0</ele><time>2026-04-25T16:41:56.002Z</time></trkpt><trkpt lat="45.739452082977536" lon="9.373266220216149"><ele>355.0</ele><time>2026-04-25T16:41:57.002Z</time></trkpt><trkpt lat="45.739449399276474" lon="9.37309412373185"><ele>355.0</ele><time>2026-04-25T16:41:58.002Z</time></trkpt><trkpt lat="45.739445873911755" lon="9.372957383977932"><ele>355.0</ele><time>2026-04-25T16:41:59.002Z</time></trkpt><trkpt lat="45.73943715186912" lon="9.372846398206931"><ele>354.66666666666663</ele><time>2026-04-25T16:42:00.002Z</time></trkpt><trkpt lat="45.739428025387944" lon="9.372742660633364"><ele>354.3333333333333</ele><time>2026-04-25T16:42:01.002Z</time></trkpt><trkpt lat="45.739419314097205" lon="9.37263756309466"><ele>354.0</ele><time>2026-04-25T16:42:02.002Z</time></trkpt><trkpt lat="45.73940631689942" lon="9.372523222427487"><ele>353.6666666666667</ele><time>2026-04-25T16:42:03.002Z</time></trkpt><trkpt lat="45.73937452050047" lon="9.372344188625462"><ele>353.33333333333337</ele><time>2026-04-25T16:42:05.002Z</time></trkpt><trkpt lat="45.73936548625418" lon="9.372223162860893"><ele>353.0</ele><time>2026-04-25T16:42:06.002Z</time></trkpt><trkpt lat="45.73935435546455" lon="9.372066198000006"><ele>352.59999999999997</ele><time>2026-04-25T16:42:07.002Z</time></trkpt><trkpt lat="45.73937246722202" lon="9.371930514069236"><ele>352.2</ele><time>2026-04-25T16:42:08.002Z</time></trkpt><trkpt lat="45.73940361191268" lon="9.37179960464676"><ele>351.8</ele><time>2026-04-25T16:42:09.002Z</time></trkpt><trkpt lat="45.73945210633752" lon="9.371661516526498"><ele>351.4</ele><time>2026-04-25T16:42:10.002Z</time></trkpt><trkpt lat="45.739500001642874" lon="9.371520441934084"><ele>351.0</ele><time>2026-04-25T16:42:11.002Z</time></trkpt><trkpt lat="45.739581200079776" lon="9.371343999060695"><ele>349.0</ele><time>2026-04-25T16:42:12.002Z</time></trkpt><trkpt lat="45.73962542137442" lon="9.371151519989596"><ele>347.0</ele><time>2026-04-25T16:42:13.002Z</time></trkpt><trkpt lat="45.739666364654475" lon="9.370957364899546"><ele>345.0</ele><time>2026-04-25T16:42:14.002Z</time></trkpt><trkpt lat="45.73971313822223" lon="9.370757043146437"><ele>343.0</ele><time>2026-04-25T16:42:15.002Z</time></trkpt><trkpt lat="45.73976666925948" lon="9.37055125843339"><ele>342.3333333333333</ele><time>2026-04-25T16:42:16.002Z</time></trkpt><trkpt lat="45.73981530870636" lon="9.3703210871076"><ele>341.6666666666667</ele><time>2026-04-25T16:42:17.002Z</time></trkpt><trkpt lat="45.739863421047616" lon="9.370130206453064"><ele>341.0</ele><time>2026-04-25T16:42:18.002Z</time></trkpt><trkpt lat="45.73991428462868" lon="9.369919640165971"><ele>341.0</ele><time>2026-04-25T16:42:19.002Z</time></trkpt><trkpt lat="45.73997080678717" lon="9.369710236859746"><ele>341.0</ele><time>2026-04-25T16:42:20.003Z</time></trkpt><trkpt lat="45.74003151226086" lon="9.36950112044867"><ele>341.0</ele><time>2026-04-25T16:42:21.003Z</time></trkpt><trkpt lat="45.740071077561765" lon="9.369299879640035"><ele>341.75</ele><time>2026-04-25T16:42:22.003Z</time></trkpt><trkpt lat="45.74011757940801" lon="9.36910872976764"><ele>342.5</ele><time>2026-04-25T16:42:23.003Z</time></trkpt><trkpt lat="45.74016394602743" lon="9.368928487559845"><ele>343.25</ele><time>2026-04-25T16:42:24.003Z</time></trkpt><trkpt lat="45.7401986545043" lon="9.36874531889399"><ele>344.0</ele><time>2026-04-25T16:42:25.003Z</time></trkpt><trkpt lat="45.74021680928022" lon="9.368561976153885"><ele>343.5</ele><time>2026-04-25T16:42:26.003Z</time></trkpt><trkpt lat="45.74021102444987" lon="9.36837187295088"><ele>343.0</ele><time>2026-04-25T16:42:27.003Z</time></trkpt><trkpt lat="45.74018481895445" lon="9.368183003284061"><ele>342.5</ele><time>2026-04-25T16:42:28Z</time></trkpt><trkpt lat="45.740148897040726" lon="9.367995838623619"><ele>342.0</ele><time>2026-04-25T16:42:29Z</time></trkpt><trkpt lat="45.7401147402764" lon="9.367806466031421"><ele>342.0</ele><time>2026-04-25T16:42:30Z</time></trkpt><trkpt lat="45.74008354018665" lon="9.367611689237865"><ele>342.0</ele><time>2026-04-25T16:42:31Z</time></trkpt><trkpt lat="45.74006582180147" lon="9.367435300282335"><ele>342.0</ele><time>2026-04-25T16:42:32Z</time></trkpt><trkpt lat="45.74004862943037" lon="9.367259760592956"><ele>342.0</ele><time>2026-04-25T16:42:33Z</time></trkpt><trkpt lat="45.740043536509376" lon="9.367085424385618"><ele>341.75</ele><time>2026-04-25T16:42:34Z</time></trkpt><trkpt lat="45.740067290338594" lon="9.366915262997914"><ele>341.5</ele><time>2026-04-25T16:42:35Z</time></trkpt><trkpt lat="45.74012178556187" lon="9.366750646005078"><ele>341.25</ele><time>2026-04-25T16:42:36Z</time></trkpt><trkpt lat="45.74015823704963" lon="9.366589680354798"><ele>341.0</ele><time>2026-04-25T16:42:37Z</time></trkpt><trkpt lat="45.740190318701515" lon="9.366434686551626"><ele>340.20000000000005</ele><time>2026-04-25T16:42:38Z</time></trkpt><trkpt lat="45.74021386278973" lon="9.36628200687855"><ele>339.40000000000003</ele><time>2026-04-25T16:42:39Z</time></trkpt><trkpt lat="45.74023397689101" lon="9.366144538713264"><ele>338.6</ele><time>2026-04-25T16:42:40Z</time></trkpt><trkpt lat="45.74024251293539" lon="9.366043024373909"><ele>337.8</ele><time>2026-04-25T16:42:41Z</time></trkpt><trkpt lat="45.74027938048822" lon="9.365890146514628"><ele>337.0</ele><time>2026-04-25T16:42:43Z</time></trkpt><trkpt lat="45.740272822759586" lon="9.36577305768788"><ele>337.0</ele><time>2026-04-25T16:42:46Z</time></trkpt><trkpt lat="45.74020101068496" lon="9.365682677265122"><ele>337.0</ele><time>2026-04-25T16:42:48Z</time></trkpt><trkpt lat="45.7401494832297" lon="9.36561790239717"><ele>337.0</ele><time>2026-04-25T16:42:49Z</time></trkpt><trkpt lat="45.740087747916704" lon="9.365525300949077"><ele>337.0</ele><time>2026-04-25T16:42:50Z</time></trkpt><trkpt lat="45.74002207104014" lon="9.365460849722972"><ele>337.0</ele><time>2026-04-25T16:42:51Z</time></trkpt><trkpt lat="45.739968551533295" lon="9.365382904562"><ele>337.0</ele><time>2026-04-25T16:42:52Z</time></trkpt><trkpt lat="45.7399125826231" lon="9.365299362610445"><ele>336.66666666666663</ele><time>2026-04-25T16:42:53Z</time></trkpt><trkpt lat="45.739867085683244" lon="9.36522117732451"><ele>336.3333333333333</ele><time>2026-04-25T16:42:54Z</time></trkpt><trkpt lat="45.73981707266171" lon="9.365164332473979"><ele>336.0</ele><time>2026-04-25T16:42:55Z</time></trkpt><trkpt lat="45.73976190281831" lon="9.365112929615862"><ele>335.6666666666667</ele><time>2026-04-25T16:42:56Z</time></trkpt><trkpt lat="45.73968087665559" lon="9.364989724079294"><ele>335.33333333333337</ele><time>2026-04-25T16:42:58Z</time></trkpt><trkpt lat="45.73962239633479" lon="9.364904859374882"><ele>335.0</ele><time>2026-04-25T16:43:00Z</time></trkpt><trkpt lat="45.73964865465375" lon="9.364807564564215"><ele>335.0</ele><time>2026-04-25T16:43:02.001Z</time></trkpt><trkpt lat="45.73974199869781" lon="9.3647215721778"><ele>335.0</ele><time>2026-04-25T16:43:04.001Z</time></trkpt><trkpt lat="45.73980618601533" lon="9.364669743128424"><ele>335.0</ele><time>2026-04-25T16:43:05.001Z</time></trkpt><trkpt lat="45.73986430219258" lon="9.364591092049356"><ele>335.0</ele><time>2026-04-25T16:43:06.001Z</time></trkpt><trkpt lat="45.73991085259329" lon="9.364500271476873"><ele>335.0</ele><time>2026-04-25T16:43:07.001Z</time></trkpt><trkpt lat="45.73995616969672" lon="9.364398120122907"><ele>335.0</ele><time>2026-04-25T16:43:08.001Z</time></trkpt><trkpt lat="45.73999672420424" lon="9.36429634150231"><ele>335.2</ele><time>2026-04-25T16:43:09.001Z</time></trkpt><trkpt lat="45.740044563972404" lon="9.364192387025614"><ele>335.4</ele><time>2026-04-25T16:43:10.001Z</time></trkpt><trkpt lat="45.74007685194764" lon="9.364055921780041"><ele>335.6</ele><time>2026-04-25T16:43:11.001Z</time></trkpt><trkpt lat="45.74008794121556" lon="9.36389476729961"><ele>335.8</ele><time>2026-04-25T16:43:12.001Z</time></trkpt><trkpt lat="45.74009518241758" lon="9.363733224702651"><ele>336.0</ele><time>2026-04-25T16:43:13.001Z</time></trkpt><trkpt lat="45.740089930296826" lon="9.363593057122232"><ele>336.4</ele><time>2026-04-25T16:43:14.001Z</time></trkpt><trkpt lat="45.74007130931799" lon="9.363467106475147"><ele>336.8</ele><time>2026-04-25T16:43:15.001Z</time></trkpt><trkpt lat="45.74004492271436" lon="9.363342545686693"><ele>337.2</ele><time>2026-04-25T16:43:16.001Z</time></trkpt><trkpt lat="45.73995087494752" lon="9.363236203553871"><ele>337.59999999999997</ele><time>2026-04-25T16:43:17.001Z</time></trkpt><trkpt lat="45.739868214291114" lon="9.363118036057589"><ele>338.0</ele><time>2026-04-25T16:43:18.001Z</time></trkpt><trkpt lat="45.73979723786924" lon="9.36300289769973"><ele>338.4</ele><time>2026-04-25T16:43:19.001Z</time></trkpt><trkpt lat="45.73972829945647" lon="9.36289007816037"><ele>338.79999999999995</ele><time>2026-04-25T16:43:20.001Z</time></trkpt><trkpt lat="45.73965045459909" lon="9.36277668650628"><ele>339.2</ele><time>2026-04-25T16:43:21.001Z</time></trkpt><trkpt lat="45.73955737249113" lon="9.36267440594317"><ele>339.6</ele><time>2026-04-25T16:43:22.001Z</time></trkpt><trkpt lat="45.7394553330259" lon="9.362600677830343"><ele>340.0</ele><time>2026-04-25T16:43:23.001Z</time></trkpt><trkpt lat="45.739342154942335" lon="9.362539100370027"><ele>339.16666666666663</ele><time>2026-04-25T16:43:24.001Z</time></trkpt><trkpt lat="45.739223487367184" lon="9.362507531440944"><ele>338.3333333333333</ele><time>2026-04-25T16:43:25.001Z</time></trkpt><trkpt lat="45.73914774119757" lon="9.362468638870912"><ele>337.5</ele><time>2026-04-25T16:43:26.001Z</time></trkpt><trkpt lat="45.73907098883983" lon="9.362434744509004"><ele>336.6666666666667</ele><time>2026-04-25T16:43:27.001Z</time></trkpt><trkpt lat="45.738995680145564" lon="9.362398164455103"><ele>335.83333333333337</ele><time>2026-04-25T16:43:28.001Z</time></trkpt><trkpt lat="45.73893040450798" lon="9.362367725459436"><ele>335.0</ele><time>2026-04-25T16:43:29.001Z</time></trkpt><trkpt lat="45.738869105547224" lon="9.362340139227273"><ele>335.0</ele><time>2026-04-25T16:43:30.001Z</time></trkpt><trkpt lat="45.73878437162203" lon="9.36229506915009"><ele>335.0</ele><time>2026-04-25T16:43:32.001Z</time></trkpt><trkpt lat="45.738727816803475" lon="9.362217825809061"><ele>335.0</ele><time>2026-04-25T16:43:34.001Z</time></trkpt><trkpt lat="45.73875566626068" lon="9.362076894332231"><ele>335.0</ele><time>2026-04-25T16:43:35.001Z</time></trkpt><trkpt lat="45.73877995108686" lon="9.361976182496354"><ele>335.0</ele><time>2026-04-25T16:43:36.001Z</time></trkpt><trkpt lat="45.73880596872631" lon="9.361866787496544"><ele>335.0</ele><time>2026-04-25T16:43:37.001Z</time></trkpt><trkpt lat="45.73883402509327" lon="9.361756298485094"><ele>335.1666666666667</ele><time>2026-04-25T16:43:38.001Z</time></trkpt><trkpt lat="45.73886035770291" lon="9.36164694519256"><ele>335.33333333333337</ele><time>2026-04-25T16:43:39.001Z</time></trkpt><trkpt lat="45.73888301916195" lon="9.361557566357428"><ele>335.5</ele><time>2026-04-25T16:43:40.001Z</time></trkpt><trkpt lat="45.738914464798185" lon="9.361419681804765"><ele>335.6666666666667</ele><time>2026-04-25T16:43:42.001Z</time></trkpt><trkpt lat="45.73894313315842" lon="9.361304344254789"><ele>335.8333333333333</ele><time>2026-04-25T16:43:44.001Z</time></trkpt><trkpt lat="45.73897545441234" lon="9.361198822965813"><ele>336.0</ele><time>2026-04-25T16:43:46.001Z</time></trkpt><trkpt lat="45.73899909292386" lon="9.361106306099536"><ele>336.0</ele><time>2026-04-25T16:43:48.001Z</time></trkpt><trkpt lat="45.7390254514852" lon="9.361022337630281"><ele>336.0</ele><time>2026-04-25T16:43:50.002Z</time></trkpt><trkpt lat="45.73905772810397" lon="9.360907401618658"><ele>336.0</ele><time>2026-04-25T16:43:53.002Z</time></trkpt><trkpt lat="45.73907918360607" lon="9.360817319075663"><ele>336.0</ele><time>2026-04-25T16:44:06.002Z</time></trkpt><trkpt lat="45.73911301734576" lon="9.360730341823752"><ele>336.0</ele><time>2026-04-25T16:44:08.002Z</time></trkpt><trkpt lat="45.73895382744857" lon="9.360640520106738"><ele>336.0</ele><time>2026-04-25T16:44:11.002Z</time></trkpt><trkpt lat="45.73886536175733" lon="9.360591028615369"><ele>336.0</ele><time>2026-04-25T16:44:13.002Z</time></trkpt><trkpt lat="45.738810204079996" lon="9.360529078196876"><ele>336.0</ele><time>2026-04-25T16:45:29.001Z</time></trkpt><trkpt lat="45.738718711904085" lon="9.360462751519595"><ele>336.0</ele><time>2026-04-25T16:45:39.001Z</time></trkpt><trkpt lat="45.73865684581231" lon="9.360425127514423"><ele>336.0</ele><time>2026-04-25T16:45:40.001Z</time></trkpt><trkpt lat="45.73858195411301" lon="9.36035728386032"><ele>336.0</ele><time>2026-04-25T16:45:41.001Z</time></trkpt><trkpt lat="45.738515816973205" lon="9.360292237723776"><ele>337.0</ele><time>2026-04-25T16:45:42.001Z</time></trkpt><trkpt lat="45.7384368546586" lon="9.360213646954175"><ele>338.0</ele><time>2026-04-25T16:45:43.001Z</time></trkpt><trkpt lat="45.73834466966746" lon="9.360130583497043"><ele>339.0</ele><time>2026-04-25T16:45:44.001Z</time></trkpt><trkpt lat="45.73825532722919" lon="9.360045093047852"><ele>340.0</ele><time>2026-04-25T16:45:45.001Z</time></trkpt><trkpt lat="45.73818070757381" lon="9.35996227797928"><ele>341.0</ele><time>2026-04-25T16:45:46.001Z</time></trkpt><trkpt lat="45.73810911715961" lon="9.359867327555634"><ele>341.0</ele><time>2026-04-25T16:45:47.001Z</time></trkpt><trkpt lat="45.738049769297426" lon="9.359751711929999"><ele>341.0</ele><time>2026-04-25T16:45:48.001Z</time></trkpt><trkpt lat="45.73800600403678" lon="9.359615640877623"><ele>341.0</ele><time>2026-04-25T16:45:49.001Z</time></trkpt><trkpt lat="45.73798542742256" lon="9.359435761197123"><ele>341.0</ele><time>2026-04-25T16:45:50.001Z</time></trkpt><trkpt lat="45.73797402496067" lon="9.359244312703332"><ele>341.5</ele><time>2026-04-25T16:45:51.002Z</time></trkpt><trkpt lat="45.73796193114767" lon="9.35903595424396"><ele>342.0</ele><time>2026-04-25T16:45:52.002Z</time></trkpt><trkpt lat="45.73794622637122" lon="9.358823244489688"><ele>342.5</ele><time>2026-04-25T16:45:53.002Z</time></trkpt><trkpt lat="45.737929821234744" lon="9.358609462827618"><ele>343.0</ele><time>2026-04-25T16:45:54.002Z</time></trkpt><trkpt lat="45.73791875167163" lon="9.358425679032774"><ele>343.0</ele><time>2026-04-25T16:45:55.002Z</time></trkpt><trkpt lat="45.73792245766971" lon="9.358240988466175"><ele>343.0</ele><time>2026-04-25T16:45:56.002Z</time></trkpt><trkpt lat="45.73796141892869" lon="9.358074145193681"><ele>343.0</ele><time>2026-04-25T16:45:57.002Z</time></trkpt><trkpt lat="45.738010132201175" lon="9.35792221574273"><ele>343.0</ele><time>2026-04-25T16:45:58.002Z</time></trkpt><trkpt lat="45.73804221092418" lon="9.357789516327975"><ele>343.59999999999997</ele><time>2026-04-25T16:45:59.002Z</time></trkpt><trkpt lat="45.738044852683096" lon="9.357652119530636"><ele>344.2</ele><time>2026-04-25T16:46:00.002Z</time></trkpt><trkpt lat="45.73801850303957" lon="9.357516758954498"><ele>344.8</ele><time>2026-04-25T16:46:01.002Z</time></trkpt><trkpt lat="45.73796524164783" lon="9.357378214620288"><ele>345.4</ele><time>2026-04-25T16:46:02.002Z</time></trkpt><trkpt lat="45.73791234168593" lon="9.3572395999964"><ele>346.0</ele><time>2026-04-25T16:46:03.002Z</time></trkpt><trkpt lat="45.73788030038944" lon="9.35708575955785"><ele>346.6</ele><time>2026-04-25T16:46:04.002Z</time></trkpt><trkpt lat="45.73786667597917" lon="9.356922654828578"><ele>347.20000000000005</ele><time>2026-04-25T16:46:05.002Z</time></trkpt><trkpt lat="45.73786117233867" lon="9.356762317024483"><ele>347.79999999999995</ele><time>2026-04-25T16:46:06.002Z</time></trkpt><trkpt lat="45.737845825007135" lon="9.356612758721381"><ele>348.4</ele><time>2026-04-25T16:46:07.002Z</time></trkpt><trkpt lat="45.737803513268354" lon="9.356487983504662"><ele>349.0</ele><time>2026-04-25T16:46:08.002Z</time></trkpt><trkpt lat="45.73772863925011" lon="9.356397761339727"><ele>352.6</ele><time>2026-04-25T16:46:09.002Z</time></trkpt><trkpt lat="45.737634890493815" lon="9.356325892758301"><ele>356.2</ele><time>2026-04-25T16:46:10.002Z</time></trkpt><trkpt lat="45.7375438606452" lon="9.356259832680715"><ele>359.8</ele><time>2026-04-25T16:46:11.002Z</time></trkpt><trkpt lat="45.737476309357156" lon="9.356181538428965"><ele>363.40000000000003</ele><time>2026-04-25T16:46:12.002Z</time></trkpt><trkpt lat="45.737435950417975" lon="9.356080631499779"><ele>367.0</ele><time>2026-04-25T16:46:13.002Z</time></trkpt><trkpt lat="45.73742561277817" lon="9.355953047992662"><ele>367.0</ele><time>2026-04-25T16:46:14.002Z</time></trkpt><trkpt lat="45.737443576567955" lon="9.355813492760491"><ele>367.0</ele><time>2026-04-25T16:46:15.002Z</time></trkpt><trkpt lat="45.73749668261357" lon="9.355657938178481"><ele>367.0</ele><time>2026-04-25T16:46:16.002Z</time></trkpt><trkpt lat="45.73755644736647" lon="9.355480870937548"><ele>367.0</ele><time>2026-04-25T16:46:17.002Z</time></trkpt><trkpt lat="45.737612962518966" lon="9.355275265143936"><ele>368.3333333333333</ele><time>2026-04-25T16:46:18.002Z</time></trkpt><trkpt lat="45.737671446442455" lon="9.35506168158565"><ele>369.6666666666667</ele><time>2026-04-25T16:46:19.002Z</time></trkpt><trkpt lat="45.73772843138976" lon="9.35486109721897"><ele>371.0</ele><time>2026-04-25T16:46:20.002Z</time></trkpt><trkpt lat="45.7377904628061" lon="9.35464438135867"><ele>368.33333333333337</ele><time>2026-04-25T16:46:21.002Z</time></trkpt><trkpt lat="45.737854884815995" lon="9.354416173537825"><ele>365.6666666666667</ele><time>2026-04-25T16:46:22.002Z</time></trkpt><trkpt lat="45.73792908488837" lon="9.354167819309374"><ele>363.0</ele><time>2026-04-25T16:46:23.002Z</time></trkpt><trkpt lat="45.738018066015826" lon="9.353896403277366"><ele>363.6666666666667</ele><time>2026-04-25T16:46:24.002Z</time></trkpt><trkpt lat="45.738111140114086" lon="9.35364232168834"><ele>364.33333333333337</ele><time>2026-04-25T16:46:25.002Z</time></trkpt><trkpt lat="45.73819026339863" lon="9.353419827174333"><ele>365.0</ele><time>2026-04-25T16:46:26.002Z</time></trkpt><trkpt lat="45.738260169737046" lon="9.353210887195242"><ele>366.0</ele><time>2026-04-25T16:46:27.002Z</time></trkpt><trkpt lat="45.73832102015396" lon="9.353005592618702"><ele>367.0</ele><time>2026-04-25T16:46:28.002Z</time></trkpt><trkpt lat="45.738377425088466" lon="9.352795744764332"><ele>368.0</ele><time>2026-04-25T16:46:29.002Z</time></trkpt><trkpt lat="45.73841295221971" lon="9.352578889808685"><ele>368.0</ele><time>2026-04-25T16:46:30.002Z</time></trkpt><trkpt lat="45.738438337197195" lon="9.352364609364129"><ele>368.0</ele><time>2026-04-25T16:46:31.002Z</time></trkpt><trkpt lat="45.738469294005114" lon="9.352157779355698"><ele>368.0</ele><time>2026-04-25T16:46:32.002Z</time></trkpt><trkpt lat="45.73851800196025" lon="9.351948148147162"><ele>369.0</ele><time>2026-04-25T16:46:33.002Z</time></trkpt><trkpt lat="45.73859505205828" lon="9.351736402409227"><ele>370.0</ele><time>2026-04-25T16:46:34.002Z</time></trkpt><trkpt lat="45.73869216320035" lon="9.351523925012142"><ele>371.0</ele><time>2026-04-25T16:46:35.002Z</time></trkpt><trkpt lat="45.73878567494657" lon="9.351303592447486"><ele>371.0</ele><time>2026-04-25T16:46:36.002Z</time></trkpt><trkpt lat="45.73887275221987" lon="9.351073306651248"><ele>371.0</ele><time>2026-04-25T16:46:37.002Z</time></trkpt><trkpt lat="45.73894137349655" lon="9.350853791181692"><ele>371.0</ele><time>2026-04-25T16:46:38.002Z</time></trkpt><trkpt lat="45.7389991381035" lon="9.350651275705502"><ele>375.0</ele><time>2026-04-25T16:46:39.002Z</time></trkpt><trkpt lat="45.73905790494288" lon="9.350469244328023"><ele>379.0</ele><time>2026-04-25T16:46:40.001Z</time></trkpt><trkpt lat="45.73912748773373" lon="9.350279987470994"><ele>383.0</ele><time>2026-04-25T16:46:41.001Z</time></trkpt><trkpt lat="45.739223073282524" lon="9.350079327601884"><ele>383.0</ele><time>2026-04-25T16:46:42.001Z</time></trkpt><trkpt lat="45.73933277652959" lon="9.349871272235802"><ele>383.0</ele><time>2026-04-25T16:46:43.001Z</time></trkpt><trkpt lat="45.739451828803126" lon="9.349646561656956"><ele>383.0</ele><time>2026-04-25T16:46:44.001Z</time></trkpt><trkpt lat="45.73956646570236" lon="9.34942089191557"><ele>381.6666666666667</ele><time>2026-04-25T16:46:45.001Z</time></trkpt><trkpt lat="45.7396889434425" lon="9.349192577567894"><ele>380.3333333333333</ele><time>2026-04-25T16:46:46.001Z</time></trkpt><trkpt lat="45.73979260261105" lon="9.348956829626875"><ele>379.0</ele><time>2026-04-25T16:46:47.001Z</time></trkpt><trkpt lat="45.73989945471538" lon="9.348710647383262"><ele>379.0</ele><time>2026-04-25T16:46:48.001Z</time></trkpt><trkpt lat="45.739999003177964" lon="9.348458848533458"><ele>379.0</ele><time>2026-04-25T16:46:49.001Z</time></trkpt><trkpt lat="45.740093844891994" lon="9.34820798171953"><ele>379.0</ele><time>2026-04-25T16:46:50.001Z</time></trkpt><trkpt lat="45.740201566704705" lon="9.347960503552617"><ele>377.66666666666663</ele><time>2026-04-25T16:46:51.001Z</time></trkpt><trkpt lat="45.74030741582601" lon="9.34771859421958"><ele>376.3333333333333</ele><time>2026-04-25T16:46:52.001Z</time></trkpt><trkpt lat="45.740423877014045" lon="9.347484538644476"><ele>375.0</ele><time>2026-04-25T16:46:53.001Z</time></trkpt><trkpt lat="45.7405452065942" lon="9.34726954074756"><ele>378.66666666666663</ele><time>2026-04-25T16:46:54.001Z</time></trkpt><trkpt lat="45.740652295811834" lon="9.347080619485716"><ele>382.3333333333333</ele><time>2026-04-25T16:46:55.001Z</time></trkpt><trkpt lat="45.74075548270685" lon="9.346889843711464"><ele>386.0</ele><time>2026-04-25T16:46:56.001Z</time></trkpt><trkpt lat="45.74085487329022" lon="9.34669728204083"><ele>386.0</ele><time>2026-04-25T16:46:57.001Z</time></trkpt><trkpt lat="45.740935743800634" lon="9.346501205676615"><ele>386.0</ele><time>2026-04-25T16:46:58.001Z</time></trkpt><trkpt lat="45.74099789104309" lon="9.346277847903032"><ele>386.0</ele><time>2026-04-25T16:46:59.001Z</time></trkpt><trkpt lat="45.741032153729044" lon="9.346033225581099"><ele>385.66666666666663</ele><time>2026-04-25T16:47:00.001Z</time></trkpt><trkpt lat="45.74105684662648" lon="9.34577997126389"><ele>385.33333333333337</ele><time>2026-04-25T16:47:01.001Z</time></trkpt><trkpt lat="45.741081836453176" lon="9.345522174699921"><ele>385.0</ele><time>2026-04-25T16:47:02.001Z</time></trkpt><trkpt lat="45.741108802866364" lon="9.34527288413581"><ele>385.0</ele><time>2026-04-25T16:47:03.001Z</time></trkpt><trkpt lat="45.7411348969729" lon="9.34503947956358"><ele>385.0</ele><time>2026-04-25T16:47:04.001Z</time></trkpt><trkpt lat="45.74115844060029" lon="9.344820216784656"><ele>385.0</ele><time>2026-04-25T16:47:05.001Z</time></trkpt><trkpt lat="45.74119363394119" lon="9.344609256668035"><ele>388.6666666666667</ele><time>2026-04-25T16:47:06.001Z</time></trkpt><trkpt lat="45.74125479209467" lon="9.344410168659603"><ele>392.33333333333337</ele><time>2026-04-25T16:47:07.001Z</time></trkpt><trkpt lat="45.74134678367153" lon="9.344214568403586"><ele>396.0</ele><time>2026-04-25T16:47:08.001Z</time></trkpt><trkpt lat="45.741453714417105" lon="9.344005529773813"><ele>400.0</ele><time>2026-04-25T16:47:09.001Z</time></trkpt><trkpt lat="45.741556127804245" lon="9.343793292575384"><ele>404.0</ele><time>2026-04-25T16:47:10.001Z</time></trkpt><trkpt lat="45.74165856497242" lon="9.343569496711465"><ele>408.0</ele><time>2026-04-25T16:47:11.001Z</time></trkpt><trkpt lat="45.74176620622331" lon="9.343342166042886"><ele>408.0</ele><time>2026-04-25T16:47:12.001Z</time></trkpt><trkpt lat="45.74187526017129" lon="9.34312456941275"><ele>408.0</ele><time>2026-04-25T16:47:13.001Z</time></trkpt><trkpt lat="45.74198697321937" lon="9.342891860884643"><ele>408.0</ele><time>2026-04-25T16:47:14.001Z</time></trkpt><trkpt lat="45.74209697327186" lon="9.342648469660384"><ele>409.66666666666663</ele><time>2026-04-25T16:47:15.001Z</time></trkpt><trkpt lat="45.742210957988036" lon="9.342415280955517"><ele>411.3333333333333</ele><time>2026-04-25T16:47:16.001Z</time></trkpt><trkpt lat="45.74230741231257" lon="9.342196810442172"><ele>413.0</ele><time>2026-04-25T16:47:17.001Z</time></trkpt><trkpt lat="45.74241023155965" lon="9.341989786105167"><ele>413.0</ele><time>2026-04-25T16:47:18.001Z</time></trkpt><trkpt lat="45.74250414035268" lon="9.341793176385359"><ele>413.0</ele><time>2026-04-25T16:47:19.001Z</time></trkpt><trkpt lat="45.74259278416003" lon="9.341608562528368"><ele>413.0</ele><time>2026-04-25T16:47:20.001Z</time></trkpt><trkpt lat="45.74267086389256" lon="9.341434938789059"><ele>412.59999999999997</ele><time>2026-04-25T16:47:21.001Z</time></trkpt><trkpt lat="45.7427464915647" lon="9.341278274685974"><ele>412.2</ele><time>2026-04-25T16:47:22.001Z</time></trkpt><trkpt lat="45.742819603864696" lon="9.341133856678328"><ele>411.8</ele><time>2026-04-25T16:47:23.001Z</time></trkpt><trkpt lat="45.74288564557896" lon="9.341014127225316"><ele>411.4</ele><time>2026-04-25T16:47:24.001Z</time></trkpt><trkpt lat="45.74294003907975" lon="9.340922444888152"><ele>411.0</ele><time>2026-04-25T16:47:25.001Z</time></trkpt><trkpt lat="45.74296491009373" lon="9.340837418495063"><ele>411.0</ele><time>2026-04-25T16:47:26.001Z</time></trkpt><trkpt lat="45.74293911588838" lon="9.340716473496066"><ele>411.0</ele><time>2026-04-25T16:47:28.001Z</time></trkpt><trkpt lat="45.74287291366538" lon="9.340682902309434"><ele>411.0</ele><time>2026-04-25T16:47:29.001Z</time></trkpt><trkpt lat="45.742802628996856" lon="9.340741398799047"><ele>411.0</ele><time>2026-04-25T16:47:30.001Z</time></trkpt><trkpt lat="45.74274375178743" lon="9.340851984181018"><ele>411.0</ele><time>2026-04-25T16:47:31.001Z</time></trkpt><trkpt lat="45.74268037651238" lon="9.340956505263547"><ele>411.0</ele><time>2026-04-25T16:47:32.001Z</time></trkpt><trkpt lat="45.74261137704576" lon="9.34106940983053"><ele>412.8333333333333</ele><time>2026-04-25T16:47:33.001Z</time></trkpt><trkpt lat="45.742553093084965" lon="9.341164780483307"><ele>414.66666666666663</ele><time>2026-04-25T16:47:34.001Z</time></trkpt><trkpt lat="45.74250149336808" lon="9.341254804412424"><ele>416.5</ele><time>2026-04-25T16:47:35.001Z</time></trkpt><trkpt lat="45.74246277209673" lon="9.341337389559667"><ele>418.3333333333333</ele><time>2026-04-25T16:47:36.001Z</time></trkpt><trkpt lat="45.742378628322584" lon="9.34129040010801"><ele>420.16666666666663</ele><time>2026-04-25T16:47:38.001Z</time></trkpt><trkpt lat="45.74236340708738" lon="9.341131553509292"><ele>422.0</ele><time>2026-04-25T16:47:40.001Z</time></trkpt><trkpt lat="45.742389078253254" lon="9.341012211518423"><ele>422.0</ele><time>2026-04-25T16:47:41.001Z</time></trkpt><trkpt lat="45.74241430108756" lon="9.340871435577077"><ele>422.0</ele><time>2026-04-25T16:47:42.001Z</time></trkpt><trkpt lat="45.74243182838363" lon="9.340706985825689"><ele>422.0</ele><time>2026-04-25T16:47:43.001Z</time></trkpt><trkpt lat="45.742438650934176" lon="9.34053497984518"><ele>422.0</ele><time>2026-04-25T16:47:44.001Z</time></trkpt><trkpt lat="45.74244474661225" lon="9.340349240471035"><ele>422.75</ele><time>2026-04-25T16:47:45.001Z</time></trkpt><trkpt lat="45.742452239183415" lon="9.340153640485251"><ele>423.5</ele><time>2026-04-25T16:47:46.001Z</time></trkpt><trkpt lat="45.7424598037628" lon="9.33995929353942"><ele>424.25</ele><time>2026-04-25T16:47:47.001Z</time></trkpt><trkpt lat="45.742457457411774" lon="9.339790926654242"><ele>425.0</ele><time>2026-04-25T16:47:48.001Z</time></trkpt><trkpt lat="45.74245159570617" lon="9.339627895088384"><ele>426.0</ele><time>2026-04-25T16:47:49.001Z</time></trkpt><trkpt lat="45.74242244528684" lon="9.339473762283376"><ele>427.0</ele><time>2026-04-25T16:47:50.001Z</time></trkpt><trkpt lat="45.74236514908712" lon="9.339342974160752"><ele>428.0</ele><time>2026-04-25T16:47:51.001Z</time></trkpt><trkpt lat="45.742280363925126" lon="9.339234539641657"><ele>429.0</ele><time>2026-04-25T16:47:52.001Z</time></trkpt><trkpt lat="45.74216924888407" lon="9.33914913943517"><ele>429.0</ele><time>2026-04-25T16:47:53.001Z</time></trkpt><trkpt lat="45.742044225092194" lon="9.339081587958743"><ele>429.0</ele><time>2026-04-25T16:47:54.001Z</time></trkpt><trkpt lat="45.74193157778509" lon="9.339016817632203"><ele>429.0</ele><time>2026-04-25T16:47:55.001Z</time></trkpt><trkpt lat="45.74184202398246" lon="9.338948312149274"><ele>429.0</ele><time>2026-04-25T16:47:56.001Z</time></trkpt><trkpt lat="45.74177386342486" lon="9.33886483976987"><ele>429.0</ele><time>2026-04-25T16:47:57.001Z</time></trkpt><trkpt lat="45.74173793208606" lon="9.338764685905375"><ele>429.2</ele><time>2026-04-25T16:47:58.001Z</time></trkpt><trkpt lat="45.741731763505186" lon="9.338651428947113"><ele>429.4</ele><time>2026-04-25T16:47:59.002Z</time></trkpt><trkpt lat="45.741739893479284" lon="9.338517488436649"><ele>429.6</ele><time>2026-04-25T16:48:00.002Z</time></trkpt><trkpt lat="45.74179132317196" lon="9.338392215360237"><ele>429.8</ele><time>2026-04-25T16:48:01.002Z</time></trkpt><trkpt lat="45.74187402085551" lon="9.338269061887457"><ele>430.0</ele><time>2026-04-25T16:48:02.002Z</time></trkpt><trkpt lat="45.7419641209897" lon="9.33813552072599"><ele>433.0</ele><time>2026-04-25T16:48:03.002Z</time></trkpt><trkpt lat="45.74205605896824" lon="9.337976940115565"><ele>436.0</ele><time>2026-04-25T16:48:04.002Z</time></trkpt><trkpt lat="45.74215373155185" lon="9.337804127540128"><ele>439.0</ele><time>2026-04-25T16:48:05.002Z</time></trkpt><trkpt lat="45.74225668264864" lon="9.337626205838003"><ele>439.0</ele><time>2026-04-25T16:48:06.002Z</time></trkpt><trkpt lat="45.742358292831135" lon="9.337453852171464"><ele>439.0</ele><time>2026-04-25T16:48:07.002Z</time></trkpt><trkpt lat="45.74244711918402" lon="9.33730315503409"><ele>439.0</ele><time>2026-04-25T16:48:08.002Z</time></trkpt><trkpt lat="45.742525082997616" lon="9.337167635692781"><ele>439.0</ele><time>2026-04-25T16:48:09.002Z</time></trkpt><trkpt lat="45.7425835359183" lon="9.337040791069828"><ele>441.75</ele><time>2026-04-25T16:48:10.002Z</time></trkpt><trkpt lat="45.742616261763644" lon="9.336910192130652"><ele>444.5</ele><time>2026-04-25T16:48:11.002Z</time></trkpt><trkpt lat="45.74261252148425" lon="9.336762344668472"><ele>447.25</ele><time>2026-04-25T16:48:12.002Z</time></trkpt><trkpt lat="45.7425855384742" lon="9.336583840505702"><ele>450.0</ele><time>2026-04-25T16:48:13.002Z</time></trkpt><trkpt lat="45.74254951739119" lon="9.336386918746758"><ele>450.2</ele><time>2026-04-25T16:48:14.002Z</time></trkpt><trkpt lat="45.74252776524216" lon="9.336220972894749"><ele>450.4</ele><time>2026-04-25T16:48:15.002Z</time></trkpt><trkpt lat="45.74249470943355" lon="9.336078203328855"><ele>450.6</ele><time>2026-04-25T16:48:16.002Z</time></trkpt><trkpt lat="45.742435007404154" lon="9.335949775437944"><ele>450.8</ele><time>2026-04-25T16:48:17.002Z</time></trkpt><trkpt lat="45.74234740520033" lon="9.335855349802822"><ele>451.0</ele><time>2026-04-25T16:48:18.002Z</time></trkpt><trkpt lat="45.74223877255642" lon="9.335783182038643"><ele>451.0</ele><time>2026-04-25T16:48:19.002Z</time></trkpt><trkpt lat="45.7421210608024" lon="9.33573136190909"><ele>451.0</ele><time>2026-04-25T16:48:20.002Z</time></trkpt><trkpt lat="45.74201459729532" lon="9.335669044212816"><ele>451.0</ele><time>2026-04-25T16:48:21.002Z</time></trkpt><trkpt lat="45.741915397727205" lon="9.335573272571198"><ele>451.0</ele><time>2026-04-25T16:48:22.002Z</time></trkpt><trkpt lat="45.74185936246498" lon="9.33542783522924"><ele>452.75</ele><time>2026-04-25T16:48:23.002Z</time></trkpt><trkpt lat="45.74179218253758" lon="9.335268533377105"><ele>454.5</ele><time>2026-04-25T16:48:24.002Z</time></trkpt><trkpt lat="45.74174552590849" lon="9.335071685935636"><ele>456.25</ele><time>2026-04-25T16:48:25.002Z</time></trkpt><trkpt lat="45.74169160392068" lon="9.334861713994673"><ele>458.0</ele><time>2026-04-25T16:48:26.002Z</time></trkpt><trkpt lat="45.74163966708385" lon="9.334650634940685"><ele>458.0</ele><time>2026-04-25T16:48:27.002Z</time></trkpt><trkpt lat="45.74159566561904" lon="9.334457144969752"><ele>458.0</ele><time>2026-04-25T16:48:28.002Z</time></trkpt><trkpt lat="45.74154056251183" lon="9.334252775122257"><ele>458.0</ele><time>2026-04-25T16:48:29.002Z</time></trkpt><trkpt lat="45.74149054315787" lon="9.334051660795415"><ele>458.0</ele><time>2026-04-25T16:48:30.002Z</time></trkpt><trkpt lat="45.741432575378525" lon="9.333832604636143"><ele>458.0</ele><time>2026-04-25T16:48:31.002Z</time></trkpt><trkpt lat="45.74138093029783" lon="9.333614775141088"><ele>458.0</ele><time>2026-04-25T16:48:32.002Z</time></trkpt><trkpt lat="45.741326702934714" lon="9.333401963393511"><ele>458.0</ele><time>2026-04-25T16:48:33.002Z</time></trkpt><trkpt lat="45.741273344762995" lon="9.333208288537188"><ele>459.25</ele><time>2026-04-25T16:48:34.002Z</time></trkpt><trkpt lat="45.741231813551686" lon="9.333024213659098"><ele>460.5</ele><time>2026-04-25T16:48:35.002Z</time></trkpt><trkpt lat="45.74118371591883" lon="9.3328649336352"><ele>461.75</ele><time>2026-04-25T16:48:36.002Z</time></trkpt><trkpt lat="45.74111355347972" lon="9.33271225592793"><ele>463.0</ele><time>2026-04-25T16:48:37.002Z</time></trkpt><trkpt lat="45.74101135836348" lon="9.332583480212286"><ele>463.0</ele><time>2026-04-25T16:48:38.002Z</time></trkpt><trkpt lat="45.74089194285909" lon="9.332473630032629"><ele>463.0</ele><time>2026-04-25T16:48:39.002Z</time></trkpt><trkpt lat="45.74078396402863" lon="9.332363304611912"><ele>463.0</ele><time>2026-04-25T16:48:40.002Z</time></trkpt><trkpt lat="45.74066445024691" lon="9.332252404113053"><ele>463.0</ele><time>2026-04-25T16:48:41.002Z</time></trkpt><trkpt lat="45.740541953664994" lon="9.33213231299785"><ele>462.75</ele><time>2026-04-25T16:48:42.002Z</time></trkpt><trkpt lat="45.740418803855185" lon="9.331998766835392"><ele>462.5</ele><time>2026-04-25T16:48:43.002Z</time></trkpt><trkpt lat="45.74030275045104" lon="9.331870535960165"><ele>462.25</ele><time>2026-04-25T16:48:44.002Z</time></trkpt><trkpt lat="45.74019580359584" lon="9.331756877020009"><ele>462.0</ele><time>2026-04-25T16:48:45.002Z</time></trkpt><trkpt lat="45.74008740818058" lon="9.331671089680889"><ele>462.0</ele><time>2026-04-25T16:48:46Z</time></trkpt><trkpt lat="45.739979670341256" lon="9.331592517160253"><ele>462.0</ele><time>2026-04-25T16:48:47Z</time></trkpt><trkpt lat="45.739847701488934" lon="9.331604912705982"><ele>462.0</ele><time>2026-04-25T16:48:48Z</time></trkpt><trkpt lat="45.73969429600589" lon="9.331596400524099"><ele>462.0</ele><time>2026-04-25T16:48:49Z</time></trkpt><trkpt lat="45.73954190759019" lon="9.33161725884748"><ele>462.0</ele><time>2026-04-25T16:48:50Z</time></trkpt><trkpt lat="45.739389330939304" lon="9.331632987668405"><ele>462.0</ele><time>2026-04-25T16:48:51Z</time></trkpt><trkpt lat="45.73924697504129" lon="9.331656831883885"><ele>462.0</ele><time>2026-04-25T16:48:52Z</time></trkpt><trkpt lat="45.739095082050206" lon="9.331655843835062"><ele>462.0</ele><time>2026-04-25T16:48:53Z</time></trkpt><trkpt lat="45.73894426161181" lon="9.33165165411185"><ele>461.75</ele><time>2026-04-25T16:48:54Z</time></trkpt><trkpt lat="45.7388038954878" lon="9.331645650198894"><ele>461.5</ele><time>2026-04-25T16:48:55Z</time></trkpt><trkpt lat="45.73866561752868" lon="9.331636000029016"><ele>461.25</ele><time>2026-04-25T16:48:56Z</time></trkpt><trkpt lat="45.73853864701551" lon="9.33162956564374"><ele>461.0</ele><time>2026-04-25T16:48:57Z</time></trkpt><trkpt lat="45.738402769900574" lon="9.33161934048784"><ele>461.0</ele><time>2026-04-25T16:48:58Z</time></trkpt><trkpt lat="45.73826235645268" lon="9.331605078290623"><ele>461.0</ele><time>2026-04-25T16:48:59Z</time></trkpt><trkpt lat="45.7381366906041" lon="9.331591450240133"><ele>461.0</ele><time>2026-04-25T16:49:00Z</time></trkpt><trkpt lat="45.738020538746355" lon="9.33158773350385"><ele>461.0</ele><time>2026-04-25T16:49:01Z</time></trkpt><trkpt lat="45.73790947287421" lon="9.331582595200993"><ele>461.0</ele><time>2026-04-25T16:49:02Z</time></trkpt><trkpt lat="45.7378004554295" lon="9.331578192205498"><ele>461.0</ele><time>2026-04-25T16:49:03Z</time></trkpt><trkpt lat="45.73769217304595" lon="9.331571341417034"><ele>461.0</ele><time>2026-04-25T16:49:04Z</time></trkpt><trkpt lat="45.73758324278355" lon="9.331565753758314"><ele>461.0</ele><time>2026-04-25T16:49:05Z</time></trkpt><trkpt lat="45.737475223406506" lon="9.331560158815567"><ele>461.0</ele><time>2026-04-25T16:49:06Z</time></trkpt><trkpt lat="45.73737336026755" lon="9.331565383704964"><ele>461.5</ele><time>2026-04-25T16:49:07Z</time></trkpt><trkpt lat="45.73726144659301" lon="9.33155366097488"><ele>462.0</ele><time>2026-04-25T16:49:08Z</time></trkpt><trkpt lat="45.73714726855645" lon="9.33154192597078"><ele>462.5</ele><time>2026-04-25T16:49:09Z</time></trkpt><trkpt lat="45.737032329271614" lon="9.33152539293466"><ele>463.0</ele><time>2026-04-25T16:49:10Z</time></trkpt><trkpt lat="45.73692354348856" lon="9.331502779801589"><ele>462.59999999999997</ele><time>2026-04-25T16:49:11Z</time></trkpt><trkpt lat="45.736817330847316" lon="9.331465170972544"><ele>462.19999999999993</ele><time>2026-04-25T16:49:12Z</time></trkpt><trkpt lat="45.73671112739601" lon="9.331430657329692"><ele>461.8</ele><time>2026-04-25T16:49:13Z</time></trkpt><trkpt lat="45.73661535013686" lon="9.331388598992516"><ele>461.4</ele><time>2026-04-25T16:49:14Z</time></trkpt><trkpt lat="45.73652792616543" lon="9.331350834791534"><ele>461.0</ele><time>2026-04-25T16:49:15Z</time></trkpt><trkpt lat="45.73643705773494" lon="9.331329286742363"><ele>461.0</ele><time>2026-04-25T16:49:16Z</time></trkpt><trkpt lat="45.73636041533518" lon="9.331340861218969"><ele>461.0</ele><time>2026-04-25T16:49:17Z</time></trkpt><trkpt lat="45.73627285101018" lon="9.331389603748933"><ele>461.0</ele><time>2026-04-25T16:49:18Z</time></trkpt><trkpt lat="45.736176282363104" lon="9.331466989042253"><ele>461.0</ele><time>2026-04-25T16:49:19Z</time></trkpt><trkpt lat="45.73605750928709" lon="9.331522128703869"><ele>461.0</ele><time>2026-04-25T16:49:20Z</time></trkpt><trkpt lat="45.73594288239861" lon="9.3315970434188"><ele>461.25</ele><time>2026-04-25T16:49:21Z</time></trkpt><trkpt lat="45.735819711950136" lon="9.331635199529467"><ele>461.5</ele><time>2026-04-25T16:49:22Z</time></trkpt><trkpt lat="45.73569000952433" lon="9.331661407186136"><ele>461.75</ele><time>2026-04-25T16:49:23Z</time></trkpt><trkpt lat="45.735569474498796" lon="9.331670545185755"><ele>462.0</ele><time>2026-04-25T16:49:24Z</time></trkpt><trkpt lat="45.735447365573414" lon="9.331621243277693"><ele>462.0</ele><time>2026-04-25T16:49:25Z</time></trkpt><trkpt lat="45.73531534210075" lon="9.331585062053389"><ele>462.0</ele><time>2026-04-25T16:49:26Z</time></trkpt><trkpt lat="45.7351728012403" lon="9.331556251882589"><ele>462.0</ele><time>2026-04-25T16:49:27Z</time></trkpt><trkpt lat="45.73503328617733" lon="9.33150914921154"><ele>462.0</ele><time>2026-04-25T16:49:28Z</time></trkpt><trkpt lat="45.734894029051915" lon="9.331466185231875"><ele>463.0</ele><time>2026-04-25T16:49:29Z</time></trkpt><trkpt lat="45.73476102460228" lon="9.331413157137506"><ele>464.0</ele><time>2026-04-25T16:49:30Z</time></trkpt><trkpt lat="45.73464070156786" lon="9.331350423658284"><ele>465.0</ele><time>2026-04-25T16:49:31Z</time></trkpt><trkpt lat="45.734536144709956" lon="9.331284308131684"><ele>466.0</ele><time>2026-04-25T16:49:32Z</time></trkpt><trkpt lat="45.73444280915976" lon="9.331210820789696"><ele>467.1666666666667</ele><time>2026-04-25T16:49:33Z</time></trkpt><trkpt lat="45.734359476791084" lon="9.331147800932856"><ele>468.33333333333337</ele><time>2026-04-25T16:49:34Z</time></trkpt><trkpt lat="45.73429429297278" lon="9.331077499410386"><ele>469.5</ele><time>2026-04-25T16:49:35Z</time></trkpt><trkpt lat="45.734249708899185" lon="9.3309922587383"><ele>470.66666666666663</ele><time>2026-04-25T16:49:36Z</time></trkpt><trkpt lat="45.73421302341915" lon="9.330872968541659"><ele>471.8333333333333</ele><time>2026-04-25T16:49:37.001Z</time></trkpt><trkpt lat="45.73417183786405" lon="9.330734919115097"><ele>473.0</ele><time>2026-04-25T16:49:38.001Z</time></trkpt><trkpt lat="45.73413133566454" lon="9.330579265239601"><ele>472.75</ele><time>2026-04-25T16:49:39.001Z</time></trkpt><trkpt lat="45.73408565096874" lon="9.330403904472018"><ele>472.5</ele><time>2026-04-25T16:49:40.001Z</time></trkpt><trkpt lat="45.73403226174521" lon="9.330222984681528"><ele>472.25</ele><time>2026-04-25T16:49:41.001Z</time></trkpt><trkpt lat="45.733974869733125" lon="9.3300343925487"><ele>472.0</ele><time>2026-04-25T16:49:42.001Z</time></trkpt><trkpt lat="45.73391601737587" lon="9.329846806340585"><ele>472.75</ele><time>2026-04-25T16:49:43.001Z</time></trkpt><trkpt lat="45.73385400112765" lon="9.329657611986145"><ele>473.5</ele><time>2026-04-25T16:49:44.001Z</time></trkpt><trkpt lat="45.733784601621295" lon="9.329468695679155"><ele>474.25</ele><time>2026-04-25T16:49:45.001Z</time></trkpt><trkpt lat="45.73369746215807" lon="9.329294164886498"><ele>475.0</ele><time>2026-04-25T16:49:46.001Z</time></trkpt><trkpt lat="45.73359821698185" lon="9.32911861762443"><ele>470.33333333333337</ele><time>2026-04-25T16:49:47.001Z</time></trkpt><trkpt lat="45.7334904480722" lon="9.328946399072395"><ele>465.66666666666663</ele><time>2026-04-25T16:49:48.001Z</time></trkpt><trkpt lat="45.733375665409014" lon="9.328774003093573"><ele>461.0</ele><time>2026-04-25T16:49:49.001Z</time></trkpt><trkpt lat="45.73325876452904" lon="9.32860753671424"><ele>460.75</ele><time>2026-04-25T16:49:50.001Z</time></trkpt><trkpt lat="45.733147551323675" lon="9.32844309181579"><ele>460.5</ele><time>2026-04-25T16:49:51.001Z</time></trkpt><trkpt lat="45.733043362860755" lon="9.328291370278997"><ele>460.25</ele><time>2026-04-25T16:49:52.001Z</time></trkpt><trkpt lat="45.7329545600892" lon="9.328166016666012"><ele>460.0</ele><time>2026-04-25T16:49:53.001Z</time></trkpt><trkpt lat="45.7328491181208" lon="9.32805906228415"><ele>462.25</ele><time>2026-04-25T16:49:54.001Z</time></trkpt><trkpt lat="45.73273466826869" lon="9.327993497404652"><ele>464.5</ele><time>2026-04-25T16:49:55.001Z</time></trkpt><trkpt lat="45.73259599719831" lon="9.327910204559439"><ele>466.75</ele><time>2026-04-25T16:49:56.001Z</time></trkpt><trkpt lat="45.732428660731244" lon="9.327847073085282"><ele>469.0</ele><time>2026-04-25T16:49:57.001Z</time></trkpt><trkpt lat="45.73226465993515" lon="9.32774903683404"><ele>462.33333333333337</ele><time>2026-04-25T16:49:58.001Z</time></trkpt><trkpt lat="45.73209736848219" lon="9.327694403194602"><ele>455.66666666666663</ele><time>2026-04-25T16:49:59.001Z</time></trkpt><trkpt lat="45.731937312109366" lon="9.327644101391881"><ele>449.0</ele><time>2026-04-25T16:50:00.001Z</time></trkpt><trkpt lat="45.73178960554091" lon="9.327588322863127"><ele>446.5</ele><time>2026-04-25T16:50:01.001Z</time></trkpt><trkpt lat="45.73164405604867" lon="9.327524111849291"><ele>444.0</ele><time>2026-04-25T16:50:02.001Z</time></trkpt><trkpt lat="45.73151384747278" lon="9.3274458469718"><ele>441.5</ele><time>2026-04-25T16:50:03.001Z</time></trkpt><trkpt lat="45.731388847836044" lon="9.327367076721286"><ele>439.0</ele><time>2026-04-25T16:50:04.001Z</time></trkpt><trkpt lat="45.73126253862935" lon="9.327293108356436"><ele>438.25</ele><time>2026-04-25T16:50:05.001Z</time></trkpt><trkpt lat="45.73115786367188" lon="9.327182614558122"><ele>437.5</ele><time>2026-04-25T16:50:06.001Z</time></trkpt><trkpt lat="45.731061017621805" lon="9.327049353562057"><ele>436.75</ele><time>2026-04-25T16:50:07.001Z</time></trkpt><trkpt lat="45.73096041597859" lon="9.326889205223114"><ele>436.0</ele><time>2026-04-25T16:50:08.001Z</time></trkpt><trkpt lat="45.7308578834564" lon="9.326719829398806"><ele>436.0</ele><time>2026-04-25T16:50:09.001Z</time></trkpt><trkpt lat="45.73076135777142" lon="9.326562112475074"><ele>436.0</ele><time>2026-04-25T16:50:10.001Z</time></trkpt><trkpt lat="45.73067024317565" lon="9.326413791324327"><ele>436.0</ele><time>2026-04-25T16:50:11.001Z</time></trkpt><trkpt lat="45.730597556519974" lon="9.326263199016397"><ele>436.0</ele><time>2026-04-25T16:50:12.001Z</time></trkpt><trkpt lat="45.730543038906696" lon="9.326091651598698"><ele>436.75</ele><time>2026-04-25T16:50:13.001Z</time></trkpt><trkpt lat="45.73049061217945" lon="9.325894542417263"><ele>437.5</ele><time>2026-04-25T16:50:14.001Z</time></trkpt><trkpt lat="45.73042315249695" lon="9.325697821578803"><ele>438.25</ele><time>2026-04-25T16:50:15.001Z</time></trkpt><trkpt lat="45.73033018957918" lon="9.325531773660254"><ele>439.0</ele><time>2026-04-25T16:50:16.001Z</time></trkpt><trkpt lat="45.73022236489442" lon="9.325400073661585"><ele>439.0</ele><time>2026-04-25T16:50:17.001Z</time></trkpt><trkpt lat="45.730101562794076" lon="9.325296743758306"><ele>439.0</ele><time>2026-04-25T16:50:18.001Z</time></trkpt><trkpt lat="45.72997375533786" lon="9.32522600241821"><ele>439.0</ele><time>2026-04-25T16:50:19.001Z</time></trkpt><trkpt lat="45.729834916679124" lon="9.325192025168489"><ele>439.0</ele><time>2026-04-25T16:50:20.001Z</time></trkpt><trkpt lat="45.72969338587342" lon="9.325194752555623"><ele>439.0</ele><time>2026-04-25T16:50:21.001Z</time></trkpt><trkpt lat="45.72954660099372" lon="9.325243013734282"><ele>439.0</ele><time>2026-04-25T16:50:22.001Z</time></trkpt><trkpt lat="45.72939926577338" lon="9.325325295956523"><ele>439.0</ele><time>2026-04-25T16:50:23.001Z</time></trkpt><trkpt lat="45.729243135439674" lon="9.32542504039004"><ele>438.6666666666667</ele><time>2026-04-25T16:50:24.001Z</time></trkpt><trkpt lat="45.729089844163084" lon="9.325514094299855"><ele>438.33333333333337</ele><time>2026-04-25T16:50:25.001Z</time></trkpt><trkpt lat="45.728946297350014" lon="9.325604493640915"><ele>438.0</ele><time>2026-04-25T16:50:26.001Z</time></trkpt><trkpt lat="45.72880838539922" lon="9.325687192913387"><ele>435.25</ele><time>2026-04-25T16:50:27.001Z</time></trkpt><trkpt lat="45.72867438596626" lon="9.32576715143233"><ele>432.5</ele><time>2026-04-25T16:50:28.001Z</time></trkpt><trkpt lat="45.72854174754806" lon="9.325850241866897"><ele>429.75</ele><time>2026-04-25T16:50:29.001Z</time></trkpt><trkpt lat="45.72841085574653" lon="9.325926798961177"><ele>427.0</ele><time>2026-04-25T16:50:30.001Z</time></trkpt><trkpt lat="45.728283671707864" lon="9.32600216065513"><ele>427.0</ele><time>2026-04-25T16:50:31.002Z</time></trkpt><trkpt lat="45.72816213836822" lon="9.326077846433938"><ele>427.0</ele><time>2026-04-25T16:50:32.002Z</time></trkpt><trkpt lat="45.728052879927745" lon="9.32611843695294"><ele>427.0</ele><time>2026-04-25T16:50:33.002Z</time></trkpt><trkpt lat="45.72794458917775" lon="9.326122709915053"><ele>427.0</ele><time>2026-04-25T16:50:34.002Z</time></trkpt><trkpt lat="45.727848767950974" lon="9.326101922819461"><ele>427.0</ele><time>2026-04-25T16:50:35.002Z</time></trkpt><trkpt lat="45.72776080563217" lon="9.326046573822682"><ele>427.00000000000006</ele><time>2026-04-25T16:50:36.002Z</time></trkpt><trkpt lat="45.72767777030257" lon="9.325961400607632"><ele>427.00000000000006</ele><time>2026-04-25T16:50:37.002Z</time></trkpt><trkpt lat="45.72758171659244" lon="9.32585985492978"><ele>427.0</ele><time>2026-04-25T16:50:38.002Z</time></trkpt><trkpt lat="45.72748427528327" lon="9.325771126523552"><ele>427.0</ele><time>2026-04-25T16:50:39.002Z</time></trkpt><trkpt lat="45.72738836591492" lon="9.325688224542427"><ele>425.8</ele><time>2026-04-25T16:50:40.002Z</time></trkpt><trkpt lat="45.72728817405848" lon="9.325623395259257"><ele>424.6</ele><time>2026-04-25T16:50:41.002Z</time></trkpt><trkpt lat="45.727191518992164" lon="9.325569173734355"><ele>423.40000000000003</ele><time>2026-04-25T16:50:42.002Z</time></trkpt><trkpt lat="45.72709698346924" lon="9.32551704638984"><ele>422.20000000000005</ele><time>2026-04-25T16:50:43.002Z</time></trkpt><trkpt lat="45.72702440287456" lon="9.325454549483444"><ele>421.0</ele><time>2026-04-25T16:50:44.002Z</time></trkpt><trkpt lat="45.72698135902557" lon="9.325374589955125"><ele>421.0</ele><time>2026-04-25T16:50:45.002Z</time></trkpt><trkpt lat="45.72697220576851" lon="9.32526909084289"><ele>421.0</ele><time>2026-04-25T16:50:46.002Z</time></trkpt><trkpt lat="45.72699631860207" lon="9.32514505290347"><ele>421.0</ele><time>2026-04-25T16:50:47.002Z</time></trkpt><trkpt lat="45.72703130094879" lon="9.32500268315776"><ele>421.0</ele><time>2026-04-25T16:50:48.002Z</time></trkpt><trkpt lat="45.72706234275697" lon="9.324840627205125"><ele>421.0</ele><time>2026-04-25T16:50:49.002Z</time></trkpt><trkpt lat="45.72710296953892" lon="9.32466859846994"><ele>419.8</ele><time>2026-04-25T16:50:50.002Z</time></trkpt><trkpt lat="45.72714699652139" lon="9.324506557371501"><ele>418.6</ele><time>2026-04-25T16:50:51.002Z</time></trkpt><trkpt lat="45.72719270157736" lon="9.324359701921454"><ele>417.4</ele><time>2026-04-25T16:50:51.999Z</time></trkpt><trkpt lat="45.727227313358" lon="9.324226370509868"><ele>416.2</ele><time>2026-04-25T16:50:52.999Z</time></trkpt><trkpt lat="45.727220275335675" lon="9.324118369389085"><ele>415.0</ele><time>2026-04-25T16:50:53.999Z</time></trkpt><trkpt lat="45.727182994037406" lon="9.3240284242998"><ele>415.0</ele><time>2026-04-25T16:50:54.999Z</time></trkpt><trkpt lat="45.727116637365675" lon="9.323975126838137"><ele>415.0</ele><time>2026-04-25T16:50:55.999Z</time></trkpt><trkpt lat="45.72701503525244" lon="9.323940919987724"><ele>415.0</ele><time>2026-04-25T16:50:56.999Z</time></trkpt><trkpt lat="45.72689435977813" lon="9.323907266341259"><ele>415.0</ele><time>2026-04-25T16:50:57.999Z</time></trkpt><trkpt lat="45.72676984399094" lon="9.323866360480924"><ele>415.0</ele><time>2026-04-25T16:50:58.999Z</time></trkpt><trkpt lat="45.726638801085016" lon="9.323819922106644"><ele>413.5</ele><time>2026-04-25T16:50:59.999Z</time></trkpt><trkpt lat="45.72650498122671" lon="9.32377751221391"><ele>412.0</ele><time>2026-04-25T16:51:00.999Z</time></trkpt><trkpt lat="45.72638376083431" lon="9.323742599774302"><ele>410.5</ele><time>2026-04-25T16:51:01.999Z</time></trkpt><trkpt lat="45.726274712412874" lon="9.32370425374036"><ele>409.0</ele><time>2026-04-25T16:51:02.999Z</time></trkpt><trkpt lat="45.72617007945136" lon="9.323668217224741"><ele>409.0</ele><time>2026-04-25T16:51:03.999Z</time></trkpt><trkpt lat="45.7260706912909" lon="9.323639254838929"><ele>409.0</ele><time>2026-04-25T16:51:04.999Z</time></trkpt><trkpt lat="45.72596361355031" lon="9.323612295649946"><ele>409.0</ele><time>2026-04-25T16:51:05.999Z</time></trkpt><trkpt lat="45.72585965712575" lon="9.3235783098227"><ele>409.0</ele><time>2026-04-25T16:51:06.999Z</time></trkpt><trkpt lat="45.72576551794586" lon="9.32352881491483"><ele>409.0</ele><time>2026-04-25T16:51:07.999Z</time></trkpt><trkpt lat="45.72567454814458" lon="9.323462175178358"><ele>409.2</ele><time>2026-04-25T16:51:09Z</time></trkpt><trkpt lat="45.7255941097977" lon="9.323368993141573"><ele>409.4</ele><time>2026-04-25T16:51:10Z</time></trkpt><trkpt lat="45.725523337357146" lon="9.323249412926"><ele>409.6</ele><time>2026-04-25T16:51:11Z</time></trkpt><trkpt lat="45.72546149058096" lon="9.323118700763166"><ele>409.8</ele><time>2026-04-25T16:51:12Z</time></trkpt><trkpt lat="45.72540037411301" lon="9.322987272065324"><ele>410.0</ele><time>2026-04-25T16:51:13Z</time></trkpt><trkpt lat="45.7253390778082" lon="9.322871240304398"><ele>410.0</ele><time>2026-04-25T16:51:14Z</time></trkpt><trkpt lat="45.72527652970014" lon="9.322761347042114"><ele>410.0</ele><time>2026-04-25T16:51:15Z</time></trkpt><trkpt lat="45.72519912285451" lon="9.32267383148187"><ele>410.0</ele><time>2026-04-25T16:51:16Z</time></trkpt><trkpt lat="45.72512157434692" lon="9.322605929835575"><ele>410.0</ele><time>2026-04-25T16:51:17Z</time></trkpt><trkpt lat="45.725050828531" lon="9.322557511392265"><ele>410.0</ele><time>2026-04-25T16:51:18Z</time></trkpt><trkpt lat="45.72495994637588" lon="9.322532664079347"><ele>408.75</ele><time>2026-04-25T16:51:19Z</time></trkpt><trkpt lat="45.72486471014807" lon="9.322460057380061"><ele>407.5</ele><time>2026-04-25T16:51:20Z</time></trkpt><trkpt lat="45.72474283511338" lon="9.322416943469777"><ele>406.25</ele><time>2026-04-25T16:51:21Z</time></trkpt><trkpt lat="45.72461148974795" lon="9.322338212076707"><ele>405.0</ele><time>2026-04-25T16:51:22Z</time></trkpt><trkpt lat="45.7244696979735" lon="9.322261555472595"><ele>405.33333333333337</ele><time>2026-04-25T16:51:23Z</time></trkpt><trkpt lat="45.72432199767162" lon="9.322186448224434"><ele>405.6666666666667</ele><time>2026-04-25T16:51:24Z</time></trkpt><trkpt lat="45.7241772529553" lon="9.32209720706628"><ele>406.0</ele><time>2026-04-25T16:51:25Z</time></trkpt><trkpt lat="45.72403626611495" lon="9.322001984203531"><ele>406.0</ele><time>2026-04-25T16:51:26Z</time></trkpt><trkpt lat="45.72389606184021" lon="9.321904191520463"><ele>406.0</ele><time>2026-04-25T16:51:27Z</time></trkpt><trkpt lat="45.72375939880869" lon="9.321807511079523"><ele>406.0</ele><time>2026-04-25T16:51:28Z</time></trkpt><trkpt lat="45.72362225139142" lon="9.321709320563343"><ele>407.33333333333337</ele><time>2026-04-25T16:51:29Z</time></trkpt><trkpt lat="45.723476384993546" lon="9.321595750381205"><ele>408.66666666666663</ele><time>2026-04-25T16:51:30Z</time></trkpt><trkpt lat="45.72333261811658" lon="9.321484540710594"><ele>410.0</ele><time>2026-04-25T16:51:31Z</time></trkpt><trkpt lat="45.72318500452809" lon="9.321376257191423"><ele>410.0</ele><time>2026-04-25T16:51:32Z</time></trkpt><trkpt lat="45.72304511017694" lon="9.321273300726967"><ele>410.0</ele><time>2026-04-25T16:51:33Z</time></trkpt><trkpt lat="45.72291251739932" lon="9.32117190049036"><ele>410.0</ele><time>2026-04-25T16:51:34Z</time></trkpt><trkpt lat="45.72279758469238" lon="9.321074853282083"><ele>410.0</ele><time>2026-04-25T16:51:35Z</time></trkpt><trkpt lat="45.722702687631795" lon="9.320951875442104"><ele>408.25</ele><time>2026-04-25T16:51:36Z</time></trkpt><trkpt lat="45.72262727641983" lon="9.320825617279045"><ele>406.5</ele><time>2026-04-25T16:51:37Z</time></trkpt><trkpt lat="45.72256799951374" lon="9.32067854295936"><ele>404.75</ele><time>2026-04-25T16:51:38Z</time></trkpt><trkpt lat="45.72251780613818" lon="9.320508066775856"><ele>403.0</ele><time>2026-04-25T16:51:39Z</time></trkpt><trkpt lat="45.722475780528164" lon="9.320321952747998"><ele>403.0</ele><time>2026-04-25T16:51:40Z</time></trkpt><trkpt lat="45.72243647348185" lon="9.320123535970264"><ele>403.0</ele><time>2026-04-25T16:51:41Z</time></trkpt><trkpt lat="45.72239230433708" lon="9.31992137064126"><ele>403.0</ele><time>2026-04-25T16:51:42Z</time></trkpt><trkpt lat="45.72234629291113" lon="9.319719756892573"><ele>403.0</ele><time>2026-04-25T16:51:43Z</time></trkpt><trkpt lat="45.72230493153409" lon="9.319511128420409"><ele>402.5</ele><time>2026-04-25T16:51:44Z</time></trkpt><trkpt lat="45.7222726487845" lon="9.319312862078657"><ele>402.0</ele><time>2026-04-25T16:51:45Z</time></trkpt><trkpt lat="45.72223875767961" lon="9.31911704446734"><ele>401.5</ele><time>2026-04-25T16:51:46Z</time></trkpt><trkpt lat="45.7221900099528" lon="9.318931841376376"><ele>401.0</ele><time>2026-04-25T16:51:47.001Z</time></trkpt><trkpt lat="45.72212370457136" lon="9.31875408316806"><ele>399.0</ele><time>2026-04-25T16:51:48.001Z</time></trkpt><trkpt lat="45.72205391799753" lon="9.318574166399458"><ele>397.0</ele><time>2026-04-25T16:51:49.001Z</time></trkpt><trkpt lat="45.72193632317193" lon="9.318438430791959"><ele>395.0</ele><time>2026-04-25T16:51:50.001Z</time></trkpt><trkpt lat="45.72182950741737" lon="9.318301027148241"><ele>393.0</ele><time>2026-04-25T16:51:51.001Z</time></trkpt><trkpt lat="45.721700513744956" lon="9.318202290534066"><ele>392.33333333333337</ele><time>2026-04-25T16:51:52.001Z</time></trkpt><trkpt lat="45.721550228908775" lon="9.31814599445406"><ele>391.6666666666667</ele><time>2026-04-25T16:51:53.001Z</time></trkpt><trkpt lat="45.72140014934101" lon="9.318136961037181"><ele>391.0</ele><time>2026-04-25T16:51:54.001Z</time></trkpt><trkpt lat="45.721245783869854" lon="9.318115566598568"><ele>391.0</ele><time>2026-04-25T16:51:55.001Z</time></trkpt><trkpt lat="45.72108503396626" lon="9.318102112746528"><ele>391.0</ele><time>2026-04-25T16:51:56.001Z</time></trkpt><trkpt lat="45.720936178942104" lon="9.318087437938"><ele>391.0</ele><time>2026-04-25T16:51:57.001Z</time></trkpt><trkpt lat="45.72079066908436" lon="9.318067932483592"><ele>388.25</ele><time>2026-04-25T16:51:58.001Z</time></trkpt><trkpt lat="45.72064986100327" lon="9.31804659268989"><ele>385.5</ele><time>2026-04-25T16:51:59.001Z</time></trkpt><trkpt lat="45.72051493441515" lon="9.318006500649897"><ele>382.75</ele><time>2026-04-25T16:52:00.001Z</time></trkpt><trkpt lat="45.720383153849795" lon="9.317964873790551"><ele>380.0</ele><time>2026-04-25T16:52:01.001Z</time></trkpt><trkpt lat="45.72025270370898" lon="9.317931630144829"><ele>379.75</ele><time>2026-04-25T16:52:02.001Z</time></trkpt><trkpt lat="45.72012227873395" lon="9.317896014351602"><ele>379.5</ele><time>2026-04-25T16:52:03.001Z</time></trkpt><trkpt lat="45.71999097988189" lon="9.317854981311555"><ele>379.25</ele><time>2026-04-25T16:52:04.001Z</time></trkpt><trkpt lat="45.719865178399466" lon="9.31780373186367"><ele>379.0</ele><time>2026-04-25T16:52:05.001Z</time></trkpt><trkpt lat="45.719745449361284" lon="9.317742551831671"><ele>379.0</ele><time>2026-04-25T16:52:06.001Z</time></trkpt><trkpt lat="45.71963220158498" lon="9.317680902988137"><ele>379.0</ele><time>2026-04-25T16:52:07.001Z</time></trkpt><trkpt lat="45.71953198230427" lon="9.317632259358943"><ele>379.0</ele><time>2026-04-25T16:52:08.001Z</time></trkpt><trkpt lat="45.71944791013187" lon="9.317595614300092"><ele>379.0</ele><time>2026-04-25T16:52:09.001Z</time></trkpt><trkpt lat="45.71936861319464" lon="9.317661407874578"><ele>379.0</ele><time>2026-04-25T16:52:10.001Z</time></trkpt><trkpt lat="45.71931173023906" lon="9.317708256786394"><ele>379.0</ele><time>2026-04-25T16:52:11.001Z</time></trkpt><trkpt lat="45.71925368305332" lon="9.317662925869726"><ele>379.0</ele><time>2026-04-25T16:52:13.001Z</time></trkpt><trkpt lat="45.71927280471601" lon="9.317573743434972"><ele>379.0</ele><time>2026-04-25T16:52:23.001Z</time></trkpt><trkpt lat="45.71937562218753" lon="9.317542240296213"><ele>379.0</ele><time>2026-04-25T16:52:25.001Z</time></trkpt><trkpt lat="45.7194409614379" lon="9.317529867687913"><ele>379.0</ele><time>2026-04-25T16:52:26.001Z</time></trkpt><trkpt lat="45.71950976979053" lon="9.317412057815805"><ele>379.0</ele><time>2026-04-25T16:52:28.001Z</time></trkpt><trkpt lat="45.71945318958719" lon="9.317285189119893"><ele>379.0</ele><time>2026-04-25T16:52:30.001Z</time></trkpt><trkpt lat="45.7193902647183" lon="9.317280201950739"><ele>379.0</ele><time>2026-04-25T16:52:31.001Z</time></trkpt><trkpt lat="45.719328789160095" lon="9.31732947374626"><ele>379.0</ele><time>2026-04-25T16:52:32.001Z</time></trkpt><trkpt lat="45.71927088910784" lon="9.317405090601184"><ele>379.0</ele><time>2026-04-25T16:52:33.001Z</time></trkpt><trkpt lat="45.71920356079293" lon="9.317477264305765"><ele>379.0</ele><time>2026-04-25T16:52:34.001Z</time></trkpt><trkpt lat="45.71912844031291" lon="9.317510673279365"><ele>379.0</ele><time>2026-04-25T16:52:35.002Z</time></trkpt><trkpt lat="45.7190240530716" lon="9.317509846553634"><ele>379.0</ele><time>2026-04-25T16:52:36.002Z</time></trkpt><trkpt lat="45.718907922680096" lon="9.317508398800284"><ele>379.0</ele><time>2026-04-25T16:52:37.002Z</time></trkpt><trkpt lat="45.71878047725265" lon="9.317513446126336"><ele>379.0</ele><time>2026-04-25T16:52:38.002Z</time></trkpt><trkpt lat="45.71865348258957" lon="9.317517998416818"><ele>379.0</ele><time>2026-04-25T16:52:39.002Z</time></trkpt><trkpt lat="45.718539668840386" lon="9.317528414951546"><ele>378.75</ele><time>2026-04-25T16:52:40.002Z</time></trkpt><trkpt lat="45.71841698676156" lon="9.317554580558232"><ele>378.5</ele><time>2026-04-25T16:52:41.002Z</time></trkpt><trkpt lat="45.71829860431752" lon="9.31759636659716"><ele>378.25</ele><time>2026-04-25T16:52:42.002Z</time></trkpt><trkpt lat="45.718172591859314" lon="9.317660325143907"><ele>378.0</ele><time>2026-04-25T16:52:43.002Z</time></trkpt><trkpt lat="45.718046312913536" lon="9.317752272403633"><ele>378.0</ele><time>2026-04-25T16:52:44.002Z</time></trkpt><trkpt lat="45.71791716341569" lon="9.317874758961027"><ele>378.0</ele><time>2026-04-25T16:52:45.002Z</time></trkpt><trkpt lat="45.71778719632032" lon="9.318009652543239"><ele>378.0</ele><time>2026-04-25T16:52:46.002Z</time></trkpt><trkpt lat="45.71766427467123" lon="9.318128087018032"><ele>376.3333333333333</ele><time>2026-04-25T16:52:47.002Z</time></trkpt><trkpt lat="45.71754485036044" lon="9.318227564501917"><ele>374.66666666666663</ele><time>2026-04-25T16:52:48.002Z</time></trkpt><trkpt lat="45.71740719743706" lon="9.318304027333598"><ele>373.0</ele><time>2026-04-25T16:52:49.002Z</time></trkpt><trkpt lat="45.71724648143385" lon="9.318351788100886"><ele>373.0</ele><time>2026-04-25T16:52:50.002Z</time></trkpt><trkpt lat="45.71707886391721" lon="9.318368163157016"><ele>373.0</ele><time>2026-04-25T16:52:51.002Z</time></trkpt><trkpt lat="45.716893535727316" lon="9.318370262958174"><ele>373.0</ele><time>2026-04-25T16:52:52.002Z</time></trkpt><trkpt lat="45.71670182085385" lon="9.318370633411112"><ele>373.66666666666663</ele><time>2026-04-25T16:52:53.002Z</time></trkpt><trkpt lat="45.71650634578961" lon="9.318378526372092"><ele>374.3333333333333</ele><time>2026-04-25T16:52:54.002Z</time></trkpt><trkpt lat="45.716323135230894" lon="9.318388487442522"><ele>375.0</ele><time>2026-04-25T16:52:55.002Z</time></trkpt><trkpt lat="45.71613681329146" lon="9.318404202000316"><ele>375.3333333333333</ele><time>2026-04-25T16:52:56.002Z</time></trkpt><trkpt lat="45.715946892687626" lon="9.318413859897122"><ele>375.66666666666663</ele><time>2026-04-25T16:52:57.002Z</time></trkpt><trkpt lat="45.71576011784229" lon="9.318421438131278"><ele>376.0</ele><time>2026-04-25T16:52:58Z</time></trkpt><trkpt lat="45.71557046832856" lon="9.318432736418336"><ele>376.0</ele><time>2026-04-25T16:52:59Z</time></trkpt><trkpt lat="45.715388061539244" lon="9.31844222610797"><ele>376.0</ele><time>2026-04-25T16:53:00Z</time></trkpt><trkpt lat="45.71521164459657" lon="9.318449488576267"><ele>376.0</ele><time>2026-04-25T16:53:01Z</time></trkpt><trkpt lat="45.715037981017865" lon="9.31845875005327"><ele>376.66666666666663</ele><time>2026-04-25T16:53:02Z</time></trkpt><trkpt lat="45.71487366534712" lon="9.318466804975227"><ele>377.3333333333333</ele><time>2026-04-25T16:53:03Z</time></trkpt><trkpt lat="45.71471724926787" lon="9.318477785179217"><ele>378.0</ele><time>2026-04-25T16:53:04Z</time></trkpt><trkpt lat="45.71457134972147" lon="9.318488734466783"><ele>378.0</ele><time>2026-04-25T16:53:05Z</time></trkpt><trkpt lat="45.71443402882447" lon="9.318496309658086"><ele>378.0</ele><time>2026-04-25T16:53:06Z</time></trkpt><trkpt lat="45.71431739720401" lon="9.318491332551607"><ele>378.0</ele><time>2026-04-25T16:53:07Z</time></trkpt><trkpt lat="45.71422215516916" lon="9.31847561648884"><ele>378.0</ele><time>2026-04-25T16:53:08Z</time></trkpt><trkpt lat="45.71414346308046" lon="9.318438382360098"><ele>378.0</ele><time>2026-04-25T16:53:09Z</time></trkpt><trkpt lat="45.71406824719451" lon="9.318403829842472"><ele>378.59999999999997</ele><time>2026-04-25T16:53:10Z</time></trkpt><trkpt lat="45.71398454640493" lon="9.31841672589061"><ele>379.2</ele><time>2026-04-25T16:53:11Z</time></trkpt><trkpt lat="45.71389450751843" lon="9.318472120294903"><ele>379.8</ele><time>2026-04-25T16:53:12Z</time></trkpt><trkpt lat="45.7137882183055" lon="9.318513965907268"><ele>380.4</ele><time>2026-04-25T16:53:13Z</time></trkpt><trkpt lat="45.71366705415862" lon="9.318543019026729"><ele>381.0</ele><time>2026-04-25T16:53:14Z</time></trkpt><trkpt lat="45.71353662900105" lon="9.318559690859141"><ele>381.5</ele><time>2026-04-25T16:53:15Z</time></trkpt><trkpt lat="45.71340278233293" lon="9.318564359668452"><ele>382.0</ele><time>2026-04-25T16:53:16Z</time></trkpt><trkpt lat="45.71327252555685" lon="9.318565665852176"><ele>382.5</ele><time>2026-04-25T16:53:17Z</time></trkpt><trkpt lat="45.71313750566181" lon="9.318560017522898"><ele>383.0</ele><time>2026-04-25T16:53:18Z</time></trkpt><trkpt lat="45.71299911983154" lon="9.318560493586832"><ele>383.0</ele><time>2026-04-25T16:53:19Z</time></trkpt><trkpt lat="45.71285937045077" lon="9.318555464487465"><ele>383.0</ele><time>2026-04-25T16:53:20Z</time></trkpt><trkpt lat="45.71272320748044" lon="9.318545907861752"><ele>383.0</ele><time>2026-04-25T16:53:21Z</time></trkpt><trkpt lat="45.71257133626536" lon="9.318508723483411"><ele>383.0</ele><time>2026-04-25T16:53:22Z</time></trkpt><trkpt lat="45.712429009205785" lon="9.318482624664709"><ele>382.75</ele><time>2026-04-25T16:53:23Z</time></trkpt><trkpt lat="45.7122900254812" lon="9.318446209690125"><ele>382.5</ele><time>2026-04-25T16:53:24Z</time></trkpt><trkpt lat="45.712147855477305" lon="9.318396546313428"><ele>382.25</ele><time>2026-04-25T16:53:25Z</time></trkpt><trkpt lat="45.712010946049034" lon="9.318351121218889"><ele>382.0</ele><time>2026-04-25T16:53:26Z</time></trkpt><trkpt lat="45.71188684311969" lon="9.318293584799708"><ele>381.0</ele><time>2026-04-25T16:53:27Z</time></trkpt><trkpt lat="45.71176507712679" lon="9.318248837496773"><ele>380.0</ele><time>2026-04-25T16:53:28Z</time></trkpt><trkpt lat="45.71164563829898" lon="9.318205881463365"><ele>379.0</ele><time>2026-04-25T16:53:29Z</time></trkpt><trkpt lat="45.711524158743664" lon="9.318160154020402"><ele>378.0</ele><time>2026-04-25T16:53:30Z</time></trkpt><trkpt lat="45.71140568661176" lon="9.318109002133562"><ele>379.75</ele><time>2026-04-25T16:53:31Z</time></trkpt><trkpt lat="45.71128575392131" lon="9.318053876947275"><ele>381.5</ele><time>2026-04-25T16:53:32Z</time></trkpt><trkpt lat="45.71116113186188" lon="9.318002004768164"><ele>383.25</ele><time>2026-04-25T16:53:33Z</time></trkpt><trkpt lat="45.7110329041284" lon="9.317948987561316"><ele>385.0</ele><time>2026-04-25T16:53:34Z</time></trkpt><trkpt lat="45.71090389502596" lon="9.317896496255544"><ele>385.0</ele><time>2026-04-25T16:53:35Z</time></trkpt><trkpt lat="45.71077554369878" lon="9.317839119726722"><ele>385.0</ele><time>2026-04-25T16:53:36Z</time></trkpt><trkpt lat="45.71064437296362" lon="9.317797089839358"><ele>385.0</ele><time>2026-04-25T16:53:37Z</time></trkpt><trkpt lat="45.71051249688384" lon="9.317738231995186"><ele>385.0</ele><time>2026-04-25T16:53:38Z</time></trkpt><trkpt lat="45.7103776302166" lon="9.317679116097029"><ele>385.0</ele><time>2026-04-25T16:53:39Z</time></trkpt><trkpt lat="45.710261728880276" lon="9.317634495433776"><ele>385.0</ele><time>2026-04-25T16:53:40Z</time></trkpt><trkpt lat="45.71012559725083" lon="9.317573332015899"><ele>385.0</ele><time>2026-04-25T16:53:41Z</time></trkpt><trkpt lat="45.70999883031038" lon="9.31750908179137"><ele>385.0</ele><time>2026-04-25T16:53:42Z</time></trkpt><trkpt lat="45.70988704112778" lon="9.317435930831815"><ele>384.2</ele><time>2026-04-25T16:53:43Z</time></trkpt><trkpt lat="45.70981281305564" lon="9.317359526614986"><ele>383.4</ele><time>2026-04-25T16:53:44.001Z</time></trkpt><trkpt lat="45.70972228285955" lon="9.317269110979266"><ele>382.6</ele><time>2026-04-25T16:53:45.001Z</time></trkpt><trkpt lat="45.70963226328731" lon="9.317164284212659"><ele>381.8</ele><time>2026-04-25T16:53:46.001Z</time></trkpt><trkpt lat="45.709546546090166" lon="9.317047519223276"><ele>381.0</ele><time>2026-04-25T16:53:47.001Z</time></trkpt><trkpt lat="45.709473444410655" lon="9.31691969682455"><ele>381.0</ele><time>2026-04-25T16:53:48.001Z</time></trkpt><trkpt lat="45.7094029484837" lon="9.31678314612763"><ele>381.0</ele><time>2026-04-25T16:53:49.001Z</time></trkpt><trkpt lat="45.70934346795362" lon="9.316633749807341"><ele>381.0</ele><time>2026-04-25T16:53:50.001Z</time></trkpt><trkpt lat="45.7092871840438" lon="9.316484521413829"><ele>381.0</ele><time>2026-04-25T16:53:51.001Z</time></trkpt><trkpt lat="45.70923220008477" lon="9.31633348531936"><ele>381.0</ele><time>2026-04-25T16:53:52.001Z</time></trkpt><trkpt lat="45.70918545518663" lon="9.316196153685505"><ele>381.0</ele><time>2026-04-25T16:53:53.001Z</time></trkpt><trkpt lat="45.70913542079704" lon="9.316052875801402"><ele>381.0</ele><time>2026-04-25T16:53:54.001Z</time></trkpt><trkpt lat="45.709088293085976" lon="9.315904669779332"><ele>381.0</ele><time>2026-04-25T16:53:55.001Z</time></trkpt><trkpt lat="45.7090397610191" lon="9.315755579034311"><ele>381.0</ele><time>2026-04-25T16:53:56.001Z</time></trkpt><trkpt lat="45.708987250958636" lon="9.315597705640544"><ele>382.5</ele><time>2026-04-25T16:53:57.001Z</time></trkpt><trkpt lat="45.7089396929291" lon="9.315439669640853"><ele>384.0</ele><time>2026-04-25T16:53:58.001Z</time></trkpt><trkpt lat="45.70888724899558" lon="9.315279980088992"><ele>385.5</ele><time>2026-04-25T16:53:59.001Z</time></trkpt><trkpt lat="45.70882666268442" lon="9.315141108145378"><ele>387.0</ele><time>2026-04-25T16:54:00.001Z</time></trkpt><trkpt lat="45.70876386703807" lon="9.315020157935253"><ele>387.0</ele><time>2026-04-25T16:54:01.001Z</time></trkpt><trkpt lat="45.708692724152996" lon="9.314918296151195"><ele>387.0</ele><time>2026-04-25T16:54:02.001Z</time></trkpt><trkpt lat="45.708621044285024" lon="9.314831693257473"><ele>387.0</ele><time>2026-04-25T16:54:03.001Z</time></trkpt><trkpt lat="45.70854847831983" lon="9.31475163279754"><ele>387.0</ele><time>2026-04-25T16:54:04.001Z</time></trkpt><trkpt lat="45.70848692757869" lon="9.314679342782291"><ele>387.0</ele><time>2026-04-25T16:54:05.001Z</time></trkpt><trkpt lat="45.70842059549838" lon="9.314647453799582"><ele>387.0</ele><time>2026-04-25T16:54:06.001Z</time></trkpt><trkpt lat="45.70836005374225" lon="9.314531746059679"><ele>385.40000000000003</ele><time>2026-04-25T16:54:08.001Z</time></trkpt><trkpt lat="45.70830432606211" lon="9.3144672738656"><ele>383.8</ele><time>2026-04-25T16:54:10.001Z</time></trkpt><trkpt lat="45.70824410026014" lon="9.314404610283153"><ele>382.2</ele><time>2026-04-25T16:54:12.001Z</time></trkpt><trkpt lat="45.70818299009336" lon="9.314327044820645"><ele>380.6</ele><time>2026-04-25T16:54:14.001Z</time></trkpt><trkpt lat="45.70809821613551" lon="9.314220598814702"><ele>379.0</ele><time>2026-04-25T16:54:16.001Z</time></trkpt><trkpt lat="45.70799628776123" lon="9.31415528315291"><ele>379.0</ele><time>2026-04-25T16:54:18.001Z</time></trkpt><trkpt lat="45.707935728146616" lon="9.314124527656803"><ele>379.0</ele><time>2026-04-25T16:54:19.001Z</time></trkpt><trkpt lat="45.70786957580207" lon="9.314070109222737"><ele>379.0</ele><time>2026-04-25T16:54:20.001Z</time></trkpt><trkpt lat="45.70778819554354" lon="9.313987710896884"><ele>379.0</ele><time>2026-04-25T16:54:21.001Z</time></trkpt><trkpt lat="45.70770692019381" lon="9.313898505515542"><ele>379.0</ele><time>2026-04-25T16:54:22.001Z</time></trkpt><trkpt lat="45.707619118390014" lon="9.313803246629579"><ele>377.5</ele><time>2026-04-25T16:54:23.001Z</time></trkpt><trkpt lat="45.70752684680945" lon="9.313700060088426"><ele>376.0</ele><time>2026-04-25T16:54:24.001Z</time></trkpt><trkpt lat="45.707434330401895" lon="9.313575492697055"><ele>374.5</ele><time>2026-04-25T16:54:25.001Z</time></trkpt><trkpt lat="45.70733932261886" lon="9.313438573971998"><ele>373.0</ele><time>2026-04-25T16:54:26.001Z</time></trkpt><trkpt lat="45.70724294812277" lon="9.31328172353978"><ele>373.0</ele><time>2026-04-25T16:54:27.001Z</time></trkpt><trkpt lat="45.707154602628705" lon="9.313126283033345"><ele>373.0</ele><time>2026-04-25T16:54:28.001Z</time></trkpt><trkpt lat="45.70706299674527" lon="9.312976209968149"><ele>373.0</ele><time>2026-04-25T16:54:29.001Z</time></trkpt><trkpt lat="45.70697045777519" lon="9.312820042410527"><ele>373.0</ele><time>2026-04-25T16:54:30.002Z</time></trkpt><trkpt lat="45.706880357044945" lon="9.312658620916363"><ele>373.25</ele><time>2026-04-25T16:54:31.002Z</time></trkpt><trkpt lat="45.70679930737918" lon="9.312498862288855"><ele>373.5</ele><time>2026-04-25T16:54:32.002Z</time></trkpt><trkpt lat="45.70671221968497" lon="9.31234433614033"><ele>373.75</ele><time>2026-04-25T16:54:33.002Z</time></trkpt><trkpt lat="45.706626859521464" lon="9.312190931541334"><ele>374.0</ele><time>2026-04-25T16:54:34.002Z</time></trkpt><trkpt lat="45.70654153254893" lon="9.312049530361872"><ele>374.0</ele><time>2026-04-25T16:54:35.002Z</time></trkpt><trkpt lat="45.7064556958837" lon="9.311896860552595"><ele>374.0</ele><time>2026-04-25T16:54:36.002Z</time></trkpt><trkpt lat="45.70637453332856" lon="9.311747544836312"><ele>374.0</ele><time>2026-04-25T16:54:37.002Z</time></trkpt><trkpt lat="45.706292445610856" lon="9.311608542646773"><ele>374.0</ele><time>2026-04-25T16:54:38.002Z</time></trkpt><trkpt lat="45.70621295582392" lon="9.311473566207379"><ele>372.75</ele><time>2026-04-25T16:54:39.002Z</time></trkpt><trkpt lat="45.70612982662835" lon="9.311344093903093"><ele>371.5</ele><time>2026-04-25T16:54:40.002Z</time></trkpt><trkpt lat="45.70603717273016" lon="9.311224194477393"><ele>370.25</ele><time>2026-04-25T16:54:41.002Z</time></trkpt><trkpt lat="45.70593387723763" lon="9.311116141677157"><ele>369.0</ele><time>2026-04-25T16:54:42.002Z</time></trkpt><trkpt lat="45.70582495725328" lon="9.311021152750365"><ele>369.0</ele><time>2026-04-25T16:54:43.002Z</time></trkpt><trkpt lat="45.70571087738855" lon="9.310940652985877"><ele>369.0</ele><time>2026-04-25T16:54:44.002Z</time></trkpt><trkpt lat="45.70559641705168" lon="9.310876818600018"><ele>369.0</ele><time>2026-04-25T16:54:45.002Z</time></trkpt><trkpt lat="45.70548341292708" lon="9.310818982202887"><ele>369.0</ele><time>2026-04-25T16:54:46.002Z</time></trkpt><trkpt lat="45.70536696010477" lon="9.310770169227414"><ele>369.0</ele><time>2026-04-25T16:54:47.002Z</time></trkpt><trkpt lat="45.7052516132119" lon="9.310728131611057"><ele>369.0</ele><time>2026-04-25T16:54:48.002Z</time></trkpt><trkpt lat="45.70514169756785" lon="9.310695239692937"><ele>369.0</ele><time>2026-04-25T16:54:49.002Z</time></trkpt><trkpt lat="45.70503249263307" lon="9.310670723900706"><ele>369.0</ele><time>2026-04-25T16:54:50.002Z</time></trkpt><trkpt lat="45.70491689292754" lon="9.310668269828742"><ele>367.0</ele><time>2026-04-25T16:54:51.002Z</time></trkpt><trkpt lat="45.70480032818604" lon="9.310677722460433"><ele>365.0</ele><time>2026-04-25T16:54:52.002Z</time></trkpt><trkpt lat="45.704679306259806" lon="9.3107055359931"><ele>363.0</ele><time>2026-04-25T16:54:53.002Z</time></trkpt><trkpt lat="45.70456136145576" lon="9.310743967792924"><ele>361.0</ele><time>2026-04-25T16:54:54.002Z</time></trkpt><trkpt lat="45.704438166743074" lon="9.310795290418028"><ele>361.5</ele><time>2026-04-25T16:54:55.002Z</time></trkpt><trkpt lat="45.70431895190891" lon="9.310854322932663"><ele>362.0</ele><time>2026-04-25T16:54:56.002Z</time></trkpt><trkpt lat="45.70420071413333" lon="9.31092001966669"><ele>362.5</ele><time>2026-04-25T16:54:57.002Z</time></trkpt><trkpt lat="45.70406709872901" lon="9.311000647003524"><ele>363.0</ele><time>2026-04-25T16:54:58.002Z</time></trkpt><trkpt lat="45.70392986854488" lon="9.311116726966675"><ele>363.0</ele><time>2026-04-25T16:54:59.002Z</time></trkpt><trkpt lat="45.70376561191849" lon="9.31127407824917"><ele>363.0</ele><time>2026-04-25T16:55:00.002Z</time></trkpt><trkpt lat="45.70359061865023" lon="9.311447027948622"><ele>363.0</ele><time>2026-04-25T16:55:01.002Z</time></trkpt><trkpt lat="45.70342897861056" lon="9.311624329168643"><ele>362.3333333333333</ele><time>2026-04-25T16:55:02.002Z</time></trkpt><trkpt lat="45.70327196224936" lon="9.311756065595889"><ele>361.66666666666663</ele><time>2026-04-25T16:55:03.002Z</time></trkpt><trkpt lat="45.70313262651032" lon="9.311894231223922"><ele>361.0</ele><time>2026-04-25T16:55:03.999Z</time></trkpt><trkpt lat="45.702995446542985" lon="9.312016964721881"><ele>361.0</ele><time>2026-04-25T16:55:04.999Z</time></trkpt><trkpt lat="45.70286850442966" lon="9.312139366580325"><ele>361.0</ele><time>2026-04-25T16:55:05.999Z</time></trkpt><trkpt lat="45.70274294514129" lon="9.312266288323382"><ele>361.0</ele><time>2026-04-25T16:55:06.999Z</time></trkpt><trkpt lat="45.70262365350369" lon="9.312386100421389"><ele>361.5</ele><time>2026-04-25T16:55:07.999Z</time></trkpt><trkpt lat="45.70250973541275" lon="9.312485550706661"><ele>362.0</ele><time>2026-04-25T16:55:08.999Z</time></trkpt><trkpt lat="45.70239435934011" lon="9.312561735936937"><ele>362.5</ele><time>2026-04-25T16:55:09.999Z</time></trkpt><trkpt lat="45.70227382488103" lon="9.312608699054659"><ele>363.0</ele><time>2026-04-25T16:55:10.999Z</time></trkpt><trkpt lat="45.70214576618223" lon="9.312620374003055"><ele>363.0</ele><time>2026-04-25T16:55:11.999Z</time></trkpt><trkpt lat="45.7020195899807" lon="9.31260105263412"><ele>363.0</ele><time>2026-04-25T16:55:12.999Z</time></trkpt><trkpt lat="45.70189951366002" lon="9.312559982778112"><ele>363.0</ele><time>2026-04-25T16:55:13.999Z</time></trkpt><trkpt lat="45.70178248361546" lon="9.312485174222203"><ele>363.0</ele><time>2026-04-25T16:55:14.999Z</time></trkpt><trkpt lat="45.701668030844175" lon="9.312402893389313"><ele>363.0</ele><time>2026-04-25T16:55:15.999Z</time></trkpt><trkpt lat="45.70156269712855" lon="9.312305435957873"><ele>363.0</ele><time>2026-04-25T16:55:16.999Z</time></trkpt><trkpt lat="45.701454170644915" lon="9.312233321853661"><ele>363.0</ele><time>2026-04-25T16:55:17.999Z</time></trkpt><trkpt lat="45.70135103319018" lon="9.312167395870668"><ele>363.0</ele><time>2026-04-25T16:55:18.999Z</time></trkpt><trkpt lat="45.70125043364384" lon="9.312103304845474"><ele>363.0</ele><time>2026-04-25T16:55:19.999Z</time></trkpt><trkpt lat="45.701156999087644" lon="9.31204236915574"><ele>363.0</ele><time>2026-04-25T16:55:21Z</time></trkpt><trkpt lat="45.701060476583" lon="9.311983727965892"><ele>363.0</ele><time>2026-04-25T16:55:22Z</time></trkpt><trkpt lat="45.700961669647576" lon="9.311936171905549"><ele>363.0</ele><time>2026-04-25T16:55:23Z</time></trkpt><trkpt lat="45.70086436037742" lon="9.311868692484534"><ele>363.0</ele><time>2026-04-25T16:55:24Z</time></trkpt><trkpt lat="45.70075515003118" lon="9.311850717960171"><ele>362.8333333333333</ele><time>2026-04-25T16:55:25Z</time></trkpt><trkpt lat="45.70064717217259" lon="9.311844962270765"><ele>362.6666666666667</ele><time>2026-04-25T16:55:26Z</time></trkpt><trkpt lat="45.70054662108357" lon="9.311844641891144"><ele>362.5</ele><time>2026-04-25T16:55:27Z</time></trkpt><trkpt lat="45.700461563541054" lon="9.311846083942909"><ele>362.33333333333337</ele><time>2026-04-25T16:55:28Z</time></trkpt><trkpt lat="45.70039462740633" lon="9.311865303512072"><ele>362.1666666666667</ele><time>2026-04-25T16:55:29Z</time></trkpt><trkpt lat="45.700322256506794" lon="9.311858502248686"><ele>362.0</ele><time>2026-04-25T16:55:31Z</time></trkpt><trkpt lat="45.700184976248" lon="9.311860564710864"><ele>362.0</ele><time>2026-04-25T16:55:34Z</time></trkpt><trkpt lat="45.70011774364631" lon="9.311853610327585"><ele>362.0</ele><time>2026-04-25T16:55:35Z</time></trkpt><trkpt lat="45.70004963265407" lon="9.311853016089994"><ele>362.0</ele><time>2026-04-25T16:55:36Z</time></trkpt><trkpt lat="45.69998203763864" lon="9.311866231255975"><ele>362.0</ele><time>2026-04-25T16:55:38Z</time></trkpt><trkpt lat="45.699918354220536" lon="9.311887719729574"><ele>362.0</ele><time>2026-04-25T16:55:40Z</time></trkpt><trkpt lat="45.699808706740285" lon="9.311935178253641"><ele>362.0</ele><time>2026-04-25T16:55:50Z</time></trkpt><trkpt lat="45.69972635153732" lon="9.311962387629963"><ele>362.0</ele><time>2026-04-25T16:55:51Z</time></trkpt><trkpt lat="45.69964617676043" lon="9.311983007003189"><ele>362.0</ele><time>2026-04-25T16:55:52Z</time></trkpt><trkpt lat="45.69955057043658" lon="9.312010919779858"><ele>362.0</ele><time>2026-04-25T16:55:53Z</time></trkpt><trkpt lat="45.69944317591542" lon="9.312049901073047"><ele>362.0</ele><time>2026-04-25T16:55:54Z</time></trkpt><trkpt lat="45.69932233970333" lon="9.312096961754662"><ele>362.0</ele><time>2026-04-25T16:55:55.001Z</time></trkpt><trkpt lat="45.699201839572574" lon="9.31214005016284"><ele>362.0</ele><time>2026-04-25T16:55:56.001Z</time></trkpt><trkpt lat="45.6990696912648" lon="9.312190445819327"><ele>362.0</ele><time>2026-04-25T16:55:57.001Z</time></trkpt><trkpt lat="45.69893401687923" lon="9.312237360340951"><ele>362.0</ele><time>2026-04-25T16:55:58.001Z</time></trkpt><trkpt lat="45.69879240743051" lon="9.31229406382044"><ele>362.0</ele><time>2026-04-25T16:55:59.001Z</time></trkpt><trkpt lat="45.698651586866916" lon="9.31234892426129"><ele>361.5</ele><time>2026-04-25T16:56:00.001Z</time></trkpt><trkpt lat="45.69850630513756" lon="9.312404616264194"><ele>361.0</ele><time>2026-04-25T16:56:01.001Z</time></trkpt><trkpt lat="45.69836946060934" lon="9.312448945432136"><ele>360.5</ele><time>2026-04-25T16:56:02.001Z</time></trkpt><trkpt lat="45.698223148103914" lon="9.312477989208341"><ele>360.0</ele><time>2026-04-25T16:56:03.001Z</time></trkpt><trkpt lat="45.69807157562033" lon="9.312478611636982"><ele>360.0</ele><time>2026-04-25T16:56:04.001Z</time></trkpt><trkpt lat="45.69791998925236" lon="9.312453065750766"><ele>360.0</ele><time>2026-04-25T16:56:05.001Z</time></trkpt><trkpt lat="45.69777256880307" lon="9.312422967800705"><ele>360.0</ele><time>2026-04-25T16:56:06.001Z</time></trkpt><trkpt lat="45.69763261823124" lon="9.312385804924855"><ele>360.0</ele><time>2026-04-25T16:56:07.001Z</time></trkpt><trkpt lat="45.697501254366976" lon="9.312344549401656"><ele>361.25</ele><time>2026-04-25T16:56:08.001Z</time></trkpt><trkpt lat="45.6973848009624" lon="9.312320923605697"><ele>362.5</ele><time>2026-04-25T16:56:09.001Z</time></trkpt><trkpt lat="45.69727182512915" lon="9.312303894699062"><ele>363.75</ele><time>2026-04-25T16:56:10.001Z</time></trkpt><trkpt lat="45.69715985611404" lon="9.312296888209548"><ele>365.0</ele><time>2026-04-25T16:56:11.001Z</time></trkpt><trkpt lat="45.69704073818957" lon="9.31232765417877"><ele>364.75</ele><time>2026-04-25T16:56:12.001Z</time></trkpt><trkpt lat="45.6969102554754" lon="9.312386763287794"><ele>364.5</ele><time>2026-04-25T16:56:13.001Z</time></trkpt><trkpt lat="45.696780697535864" lon="9.312449888642446"><ele>364.25</ele><time>2026-04-25T16:56:14.001Z</time></trkpt><trkpt lat="45.69663602044414" lon="9.312529299933576"><ele>364.0</ele><time>2026-04-25T16:56:15.001Z</time></trkpt><trkpt lat="45.6964809357842" lon="9.312581669200858"><ele>364.0</ele><time>2026-04-25T16:56:16.001Z</time></trkpt><trkpt lat="45.69633900893024" lon="9.312678261056618"><ele>364.0</ele><time>2026-04-25T16:56:17.001Z</time></trkpt><trkpt lat="45.69617560074132" lon="9.31274458368729"><ele>364.0</ele><time>2026-04-25T16:56:18.001Z</time></trkpt><trkpt lat="45.69601296899124" lon="9.312787386630184"><ele>363.0</ele><time>2026-04-25T16:56:19.001Z</time></trkpt><trkpt lat="45.69583783376967" lon="9.312815924539258"><ele>362.0</ele><time>2026-04-25T16:56:20.001Z</time></trkpt><trkpt lat="45.69565747510689" lon="9.312839034674868"><ele>361.0</ele><time>2026-04-25T16:56:21.001Z</time></trkpt><trkpt lat="45.69548199564121" lon="9.312874105909302"><ele>361.0</ele><time>2026-04-25T16:56:22.001Z</time></trkpt><trkpt lat="45.69531168574284" lon="9.312899669365345"><ele>361.0</ele><time>2026-04-25T16:56:23.001Z</time></trkpt><trkpt lat="45.6951430373633" lon="9.31292875643641"><ele>361.0</ele><time>2026-04-25T16:56:24.001Z</time></trkpt><trkpt lat="45.69498732591818" lon="9.312955605107005"><ele>359.5</ele><time>2026-04-25T16:56:25.001Z</time></trkpt><trkpt lat="45.69484550215236" lon="9.312973317671515"><ele>358.0</ele><time>2026-04-25T16:56:26.001Z</time></trkpt><trkpt lat="45.69471262761985" lon="9.313002133874342"><ele>356.5</ele><time>2026-04-25T16:56:27.001Z</time></trkpt><trkpt lat="45.69460456829952" lon="9.313021569668726"><ele>355.0</ele><time>2026-04-25T16:56:28.001Z</time></trkpt><trkpt lat="45.69451504065059" lon="9.313061960124994"><ele>355.2</ele><time>2026-04-25T16:56:29.001Z</time></trkpt><trkpt lat="45.694432498394185" lon="9.313106389473285"><ele>355.4</ele><time>2026-04-25T16:56:30.001Z</time></trkpt><trkpt lat="45.69436927425132" lon="9.313144062337443"><ele>355.6</ele><time>2026-04-25T16:56:31.001Z</time></trkpt><trkpt lat="45.694288378497795" lon="9.313206939552698"><ele>355.8</ele><time>2026-04-25T16:56:33.001Z</time></trkpt><trkpt lat="45.69421688235329" lon="9.313273542104989"><ele>356.0</ele><time>2026-04-25T16:57:28Z</time></trkpt><trkpt lat="45.69410935848301" lon="9.31334532962258"><ele>355.6</ele><time>2026-04-25T16:57:30Z</time></trkpt><trkpt lat="45.69403471977079" lon="9.313394906579134"><ele>355.20000000000005</ele><time>2026-04-25T16:57:31Z</time></trkpt><trkpt lat="45.693951540673105" lon="9.313449485480644"><ele>354.79999999999995</ele><time>2026-04-25T16:57:32Z</time></trkpt><trkpt lat="45.69385488257534" lon="9.313512015404118"><ele>354.4</ele><time>2026-04-25T16:57:33Z</time></trkpt><trkpt lat="45.693750890014286" lon="9.31358137835692"><ele>354.0</ele><time>2026-04-25T16:57:34Z</time></trkpt><trkpt lat="45.693651175409975" lon="9.31364697234954"><ele>353.25</ele><time>2026-04-25T16:57:35Z</time></trkpt><trkpt lat="45.69353666909995" lon="9.313722296592397"><ele>352.5</ele><time>2026-04-25T16:57:36Z</time></trkpt><trkpt lat="45.69341170521243" lon="9.313804500043597"><ele>351.75</ele><time>2026-04-25T16:57:37Z</time></trkpt><trkpt lat="45.693280513328375" lon="9.313890800387663"><ele>351.0</ele><time>2026-04-25T16:57:38Z</time></trkpt><trkpt lat="45.693148225685114" lon="9.313985551950546"><ele>351.0</ele><time>2026-04-25T16:57:39Z</time></trkpt><trkpt lat="45.69301416327669" lon="9.314073196977084"><ele>351.0</ele><time>2026-04-25T16:57:40Z</time></trkpt><trkpt lat="45.69287840378041" lon="9.314162654570893"><ele>351.0</ele><time>2026-04-25T16:57:41Z</time></trkpt><trkpt lat="45.69274766528287" lon="9.314261062533559"><ele>351.0</ele><time>2026-04-25T16:57:42Z</time></trkpt><trkpt lat="45.692619637440195" lon="9.31437145802723"><ele>350.0</ele><time>2026-04-25T16:57:43Z</time></trkpt><trkpt lat="45.692494867654574" lon="9.314468470561748"><ele>349.0</ele><time>2026-04-25T16:57:44Z</time></trkpt><trkpt lat="45.692381374258304" lon="9.31457476027758"><ele>348.0</ele><time>2026-04-25T16:57:45Z</time></trkpt><trkpt lat="45.69226965717879" lon="9.31468013855659"><ele>347.0</ele><time>2026-04-25T16:57:46Z</time></trkpt><trkpt lat="45.692159325491815" lon="9.314788604953165"><ele>347.0</ele><time>2026-04-25T16:57:47Z</time></trkpt><trkpt lat="45.69205969328228" lon="9.314891306198232"><ele>347.0</ele><time>2026-04-25T16:57:48Z</time></trkpt><trkpt lat="45.69197217492148" lon="9.314983844431856"><ele>347.0</ele><time>2026-04-25T16:57:49Z</time></trkpt><trkpt lat="45.691881360221046" lon="9.315062478252905"><ele>347.0</ele><time>2026-04-25T16:57:50Z</time></trkpt><trkpt lat="45.69178711207641" lon="9.31513512904686"><ele>347.0</ele><time>2026-04-25T16:57:51Z</time></trkpt><trkpt lat="45.69168299098364" lon="9.315224315480068"><ele>343.5</ele><time>2026-04-25T16:57:52Z</time></trkpt><trkpt lat="45.6915743493747" lon="9.315310750734925"><ele>340.0</ele><time>2026-04-25T16:57:53.001Z</time></trkpt><trkpt lat="45.69146509163698" lon="9.315378755099704"><ele>336.5</ele><time>2026-04-25T16:57:54.001Z</time></trkpt><trkpt lat="45.6913560053511" lon="9.315431576204853"><ele>333.0</ele><time>2026-04-25T16:57:55.001Z</time></trkpt><trkpt lat="45.69124933503096" lon="9.315477369276453"><ele>333.0</ele><time>2026-04-25T16:57:56.001Z</time></trkpt><trkpt lat="45.69114608555008" lon="9.315513919695825"><ele>333.0</ele><time>2026-04-25T16:57:57.001Z</time></trkpt><trkpt lat="45.69104499407655" lon="9.315541137961707"><ele>333.0</ele><time>2026-04-25T16:57:58.001Z</time></trkpt><trkpt lat="45.69094704318776" lon="9.315562900339044"><ele>333.0</ele><time>2026-04-25T16:57:59.001Z</time></trkpt><trkpt lat="45.69084482791619" lon="9.31558671327034"><ele>333.0</ele><time>2026-04-25T16:58:00.001Z</time></trkpt><trkpt lat="45.69073725049717" lon="9.315608522787107"><ele>332.4</ele><time>2026-04-25T16:58:01.001Z</time></trkpt><trkpt lat="45.69062409509669" lon="9.315629091914397"><ele>331.79999999999995</ele><time>2026-04-25T16:58:02.001Z</time></trkpt><trkpt lat="45.69051291984609" lon="9.315654999019864"><ele>331.2</ele><time>2026-04-25T16:58:03.001Z</time></trkpt><trkpt lat="45.69040526629262" lon="9.315676787888208"><ele>330.6</ele><time>2026-04-25T16:58:04.001Z</time></trkpt><trkpt lat="45.69029616524084" lon="9.315696816160028"><ele>330.0</ele><time>2026-04-25T16:58:05.001Z</time></trkpt><trkpt lat="45.69018359112964" lon="9.31571411537761"><ele>329.75</ele><time>2026-04-25T16:58:06.001Z</time></trkpt><trkpt lat="45.69006887551955" lon="9.315733146131011"><ele>329.5</ele><time>2026-04-25T16:58:07.001Z</time></trkpt><trkpt lat="45.68995117359787" lon="9.315747243215839"><ele>329.25</ele><time>2026-04-25T16:58:08.001Z</time></trkpt><trkpt lat="45.689836596375464" lon="9.315766178917928"><ele>329.0</ele><time>2026-04-25T16:58:09.001Z</time></trkpt><trkpt lat="45.68972237011154" lon="9.315785850911718"><ele>329.0</ele><time>2026-04-25T16:58:10.001Z</time></trkpt><trkpt lat="45.689604767149554" lon="9.315803901250105"><ele>329.0</ele><time>2026-04-25T16:58:11.001Z</time></trkpt><trkpt lat="45.68949404233117" lon="9.315816768768888"><ele>329.0</ele><time>2026-04-25T16:58:12.001Z</time></trkpt><trkpt lat="45.68937302002523" lon="9.315829516197017"><ele>329.0</ele><time>2026-04-25T16:58:13.001Z</time></trkpt><trkpt lat="45.68925526104434" lon="9.315844337708976"><ele>328.6</ele><time>2026-04-25T16:58:14.001Z</time></trkpt><trkpt lat="45.689146417482" lon="9.315861451462126"><ele>328.2</ele><time>2026-04-25T16:58:15.001Z</time></trkpt><trkpt lat="45.689041203707305" lon="9.315881404274045"><ele>327.8</ele><time>2026-04-25T16:58:16.001Z</time></trkpt><trkpt lat="45.68894116448956" lon="9.31589345337425"><ele>327.40000000000003</ele><time>2026-04-25T16:58:17.001Z</time></trkpt><trkpt lat="45.68884476516499" lon="9.315903423802435"><ele>327.0</ele><time>2026-04-25T16:58:18.001Z</time></trkpt><trkpt lat="45.68875207639983" lon="9.315917928576052"><ele>327.0</ele><time>2026-04-25T16:58:19.001Z</time></trkpt><trkpt lat="45.688651943389885" lon="9.315937126258852"><ele>327.0</ele><time>2026-04-25T16:58:20.001Z</time></trkpt><trkpt lat="45.68854399084585" lon="9.31595903199078"><ele>327.0</ele><time>2026-04-25T16:58:21.001Z</time></trkpt><trkpt lat="45.68843180591106" lon="9.315980621823165"><ele>327.0</ele><time>2026-04-25T16:58:22.001Z</time></trkpt><trkpt lat="45.68831354937252" lon="9.31599988741619"><ele>327.0</ele><time>2026-04-25T16:58:23.001Z</time></trkpt><trkpt lat="45.68819149624784" lon="9.316017916194099"><ele>326.75</ele><time>2026-04-25T16:58:24.001Z</time></trkpt><trkpt lat="45.68806551870017" lon="9.316035982451973"><ele>326.5</ele><time>2026-04-25T16:58:25.001Z</time></trkpt><trkpt lat="45.68793910884632" lon="9.31605634403023"><ele>326.25</ele><time>2026-04-25T16:58:26.001Z</time></trkpt><trkpt lat="45.68781159344781" lon="9.316071296232895"><ele>326.0</ele><time>2026-04-25T16:58:27.001Z</time></trkpt><trkpt lat="45.68768412056294" lon="9.316090604694773"><ele>324.75</ele><time>2026-04-25T16:58:28.001Z</time></trkpt><trkpt lat="45.68755961355583" lon="9.31611115272307"><ele>323.5</ele><time>2026-04-25T16:58:29.002Z</time></trkpt><trkpt lat="45.6874397308403" lon="9.316128466582644"><ele>322.25</ele><time>2026-04-25T16:58:30.002Z</time></trkpt><trkpt lat="45.687322453841865" lon="9.31614134226009"><ele>321.0</ele><time>2026-04-25T16:58:31.002Z</time></trkpt><trkpt lat="45.687205948473434" lon="9.316156531524015"><ele>321.0</ele><time>2026-04-25T16:58:32.002Z</time></trkpt><trkpt lat="45.68708668619991" lon="9.316174620585876"><ele>321.0</ele><time>2026-04-25T16:58:33.002Z</time></trkpt><trkpt lat="45.68696668388701" lon="9.316191544915391"><ele>321.0</ele><time>2026-04-25T16:58:34.002Z</time></trkpt><trkpt lat="45.686847524941896" lon="9.316207544789936"><ele>321.0</ele><time>2026-04-25T16:58:35.002Z</time></trkpt><trkpt lat="45.68672897929398" lon="9.31622255520284"><ele>320.75</ele><time>2026-04-25T16:58:36.002Z</time></trkpt><trkpt lat="45.68660646866957" lon="9.316238947020123"><ele>320.5</ele><time>2026-04-25T16:58:37.002Z</time></trkpt><trkpt lat="45.68648717430155" lon="9.316256142639858"><ele>320.25</ele><time>2026-04-25T16:58:38.002Z</time></trkpt><trkpt lat="45.68637521024923" lon="9.316273268890415"><ele>320.0</ele><time>2026-04-25T16:58:39.002Z</time></trkpt><trkpt lat="45.68626351397397" lon="9.316288827962854"><ele>320.0</ele><time>2026-04-25T16:58:40.002Z</time></trkpt><trkpt lat="45.68615035164696" lon="9.316303432226915"><ele>320.0</ele><time>2026-04-25T16:58:41.002Z</time></trkpt><trkpt lat="45.6860344813119" lon="9.316319766951558"><ele>320.0</ele><time>2026-04-25T16:58:42.002Z</time></trkpt><trkpt lat="45.685915875022026" lon="9.316335005643454"><ele>320.0</ele><time>2026-04-25T16:58:43.002Z</time></trkpt><trkpt lat="45.68579620805963" lon="9.316352852979442"><ele>319.25</ele><time>2026-04-25T16:58:44.002Z</time></trkpt><trkpt lat="45.68567747185595" lon="9.31636705595094"><ele>318.5</ele><time>2026-04-25T16:58:45.002Z</time></trkpt><trkpt lat="45.68555894141584" lon="9.316382135870777"><ele>317.75</ele><time>2026-04-25T16:58:46.002Z</time></trkpt><trkpt lat="45.685442287651036" lon="9.316398154216602"><ele>317.0</ele><time>2026-04-25T16:58:47.002Z</time></trkpt><trkpt lat="45.68532681601891" lon="9.316412381260523"><ele>315.5</ele><time>2026-04-25T16:58:48.002Z</time></trkpt><trkpt lat="45.68521092261316" lon="9.316426016111475"><ele>314.0</ele><time>2026-04-25T16:58:49.002Z</time></trkpt><trkpt lat="45.68509121116393" lon="9.3164367680273"><ele>312.5</ele><time>2026-04-25T16:58:50.002Z</time></trkpt><trkpt lat="45.6849611920341" lon="9.316445573151565"><ele>311.0</ele><time>2026-04-25T16:58:51.002Z</time></trkpt><trkpt lat="45.68482485800802" lon="9.316449362249196"><ele>311.0</ele><time>2026-04-25T16:58:52.002Z</time></trkpt><trkpt lat="45.68468943575434" lon="9.316446318228987"><ele>311.0</ele><time>2026-04-25T16:58:53.002Z</time></trkpt><trkpt lat="45.68454887889538" lon="9.316442940963602"><ele>311.0</ele><time>2026-04-25T16:58:54.002Z</time></trkpt><trkpt lat="45.68440827654573" lon="9.316436189560106"><ele>311.0</ele><time>2026-04-25T16:58:55.002Z</time></trkpt><trkpt lat="45.68426862480123" lon="9.316435715662907"><ele>310.5</ele><time>2026-04-25T16:58:56.002Z</time></trkpt><trkpt lat="45.684127939973166" lon="9.316444968978535"><ele>310.0</ele><time>2026-04-25T16:58:57.002Z</time></trkpt><trkpt lat="45.68399018524144" lon="9.316468489139226"><ele>309.5</ele><time>2026-04-25T16:58:58.002Z</time></trkpt><trkpt lat="45.683846958797766" lon="9.316505681510321"><ele>309.0</ele><time>2026-04-25T16:58:59.002Z</time></trkpt><trkpt lat="45.683698147688006" lon="9.316545991376886"><ele>308.25</ele><time>2026-04-25T16:59:00.002Z</time></trkpt><trkpt lat="45.68355539994192" lon="9.316581976959256"><ele>307.5</ele><time>2026-04-25T16:59:01.002Z</time></trkpt><trkpt lat="45.68342371653332" lon="9.316611672662699"><ele>306.75</ele><time>2026-04-25T16:59:02.002Z</time></trkpt><trkpt lat="45.68330494293717" lon="9.316643958600887"><ele>306.0</ele><time>2026-04-25T16:59:03.002Z</time></trkpt><trkpt lat="45.683195213653" lon="9.31666866037256"><ele>306.0</ele><time>2026-04-25T16:59:04.002Z</time></trkpt><trkpt lat="45.6830854054475" lon="9.316692602446212"><ele>306.0</ele><time>2026-04-25T16:59:05.002Z</time></trkpt><trkpt lat="45.682963645867034" lon="9.316716442288682"><ele>306.0</ele><time>2026-04-25T16:59:06.003Z</time></trkpt><trkpt lat="45.682842109301305" lon="9.316739987393829"><ele>306.0</ele><time>2026-04-25T16:59:07.003Z</time></trkpt><trkpt lat="45.682714383197705" lon="9.31676798347161"><ele>305.0</ele><time>2026-04-25T16:59:08.003Z</time></trkpt><trkpt lat="45.68257935565552" lon="9.316798056789242"><ele>304.0</ele><time>2026-04-25T16:59:09.003Z</time></trkpt><trkpt lat="45.682437625842" lon="9.316824454906465"><ele>303.0</ele><time>2026-04-25T16:59:10.003Z</time></trkpt><trkpt lat="45.682290575496765" lon="9.316843707055712"><ele>302.0</ele><time>2026-04-25T16:59:11.003Z</time></trkpt><trkpt lat="45.68213739966801" lon="9.316861565614674"><ele>302.0</ele><time>2026-04-25T16:59:12.003Z</time></trkpt><trkpt lat="45.68198799015101" lon="9.316880687446263"><ele>302.0</ele><time>2026-04-25T16:59:13.003Z</time></trkpt><trkpt lat="45.681833964106325" lon="9.316899212345009"><ele>302.0</ele><time>2026-04-25T16:59:14.003Z</time></trkpt><trkpt lat="45.68167554813661" lon="9.316918757240417"><ele>300.0</ele><time>2026-04-25T16:59:15.003Z</time></trkpt><trkpt lat="45.68151034362011" lon="9.316939838960785"><ele>298.0</ele><time>2026-04-25T16:59:16Z</time></trkpt><trkpt lat="45.681341817302936" lon="9.316962127630077"><ele>296.0</ele><time>2026-04-25T16:59:17Z</time></trkpt><trkpt lat="45.681172924099876" lon="9.316983762563112"><ele>295.33333333333337</ele><time>2026-04-25T16:59:18Z</time></trkpt><trkpt lat="45.68099854297941" lon="9.317007616342144"><ele>294.6666666666667</ele><time>2026-04-25T16:59:19Z</time></trkpt><trkpt lat="45.68082560476001" lon="9.317030664970213"><ele>294.0</ele><time>2026-04-25T16:59:20Z</time></trkpt><trkpt lat="45.68065635988278" lon="9.317054762586556"><ele>294.0</ele><time>2026-04-25T16:59:21Z</time></trkpt><trkpt lat="45.680487817701454" lon="9.317078979461675"><ele>294.0</ele><time>2026-04-25T16:59:22Z</time></trkpt><trkpt lat="45.68032430426086" lon="9.317098056896791"><ele>294.0</ele><time>2026-04-25T16:59:23Z</time></trkpt><trkpt lat="45.68015458130066" lon="9.317117582575358"><ele>294.0</ele><time>2026-04-25T16:59:24Z</time></trkpt><trkpt lat="45.6799788450347" lon="9.317141057346848"><ele>294.0</ele><time>2026-04-25T16:59:25Z</time></trkpt><trkpt lat="45.67980256170634" lon="9.317162543231175"><ele>294.0</ele><time>2026-04-25T16:59:26Z</time></trkpt><trkpt lat="45.679624166241446" lon="9.317189882238532"><ele>294.0</ele><time>2026-04-25T16:59:27Z</time></trkpt><trkpt lat="45.67944108577704" lon="9.31721884512464"><ele>294.0</ele><time>2026-04-25T16:59:28Z</time></trkpt><trkpt lat="45.67926170212516" lon="9.31724521053654"><ele>294.0</ele><time>2026-04-25T16:59:29Z</time></trkpt><trkpt lat="45.6790886784969" lon="9.31727125382737"><ele>293.3333333333333</ele><time>2026-04-25T16:59:30Z</time></trkpt><trkpt lat="45.678909783783915" lon="9.317295565182944"><ele>292.66666666666663</ele><time>2026-04-25T16:59:31Z</time></trkpt><trkpt lat="45.678728929823315" lon="9.317317602387142"><ele>292.0</ele><time>2026-04-25T16:59:32Z</time></trkpt><trkpt lat="45.678544875725066" lon="9.31734247967095"><ele>292.0</ele><time>2026-04-25T16:59:33Z</time></trkpt><trkpt lat="45.67835755387056" lon="9.317365767982249"><ele>292.0</ele><time>2026-04-25T16:59:34Z</time></trkpt><trkpt lat="45.67817762432807" lon="9.317384048805877"><ele>292.0</ele><time>2026-04-25T16:59:35Z</time></trkpt><trkpt lat="45.678003370463074" lon="9.317395159824127"><ele>292.0</ele><time>2026-04-25T16:59:36Z</time></trkpt><trkpt lat="45.67782822578071" lon="9.31740468019777"><ele>292.0</ele><time>2026-04-25T16:59:37Z</time></trkpt><trkpt lat="45.677651724196494" lon="9.317411739027616"><ele>292.0</ele><time>2026-04-25T16:59:38Z</time></trkpt><trkpt lat="45.677478319189845" lon="9.317421319567602"><ele>291.25</ele><time>2026-04-25T16:59:39Z</time></trkpt><trkpt lat="45.67731615931445" lon="9.3174336582409"><ele>290.5</ele><time>2026-04-25T16:59:40.001Z</time></trkpt><trkpt lat="45.67716616848105" lon="9.317428321292876"><ele>289.75</ele><time>2026-04-25T16:59:41.001Z</time></trkpt><trkpt lat="45.677037079336785" lon="9.317422091457017"><ele>289.0</ele><time>2026-04-25T16:59:42.001Z</time></trkpt><trkpt lat="45.67690042888351" lon="9.317418450705159"><ele>287.66666666666663</ele><time>2026-04-25T16:59:43.001Z</time></trkpt><trkpt lat="45.67675470277331" lon="9.317423630638974"><ele>286.3333333333333</ele><time>2026-04-25T16:59:44.001Z</time></trkpt><trkpt lat="45.6765986018174" lon="9.317433624294678"><ele>285.0</ele><time>2026-04-25T16:59:45.001Z</time></trkpt><trkpt lat="45.67643568720045" lon="9.317437996264525"><ele>285.0</ele><time>2026-04-25T16:59:46.001Z</time></trkpt><trkpt lat="45.67626886902243" lon="9.317443423802949"><ele>285.0</ele><time>2026-04-25T16:59:47.001Z</time></trkpt><trkpt lat="45.6761024229148" lon="9.31744214920579"><ele>285.0</ele><time>2026-04-25T16:59:48.001Z</time></trkpt><trkpt lat="45.67593778455529" lon="9.317445761210616"><ele>284.3333333333333</ele><time>2026-04-25T16:59:49.001Z</time></trkpt><trkpt lat="45.67576949545065" lon="9.317448916069665"><ele>283.66666666666663</ele><time>2026-04-25T16:59:50.001Z</time></trkpt><trkpt lat="45.67560001322959" lon="9.317451692190396"><ele>283.0</ele><time>2026-04-25T16:59:51.001Z</time></trkpt><trkpt lat="45.67542621593436" lon="9.31745509836671"><ele>282.0</ele><time>2026-04-25T16:59:52.001Z</time></trkpt><trkpt lat="45.67524730070041" lon="9.317462676145357"><ele>281.0</ele><time>2026-04-25T16:59:53.001Z</time></trkpt><trkpt lat="45.67506808983021" lon="9.31746843424605"><ele>280.0</ele><time>2026-04-25T16:59:54.001Z</time></trkpt><trkpt lat="45.67488739956062" lon="9.317471079784132"><ele>280.0</ele><time>2026-04-25T16:59:55.001Z</time></trkpt><trkpt lat="45.67471076166705" lon="9.317482948729209"><ele>280.0</ele><time>2026-04-25T16:59:56.001Z</time></trkpt><trkpt lat="45.67454131827477" lon="9.317481699315763"><ele>280.0</ele><time>2026-04-25T16:59:57.001Z</time></trkpt><trkpt lat="45.674362562916315" lon="9.317483300821053"><ele>279.0</ele><time>2026-04-25T16:59:58.001Z</time></trkpt><trkpt lat="45.67418650204493" lon="9.317491115248806"><ele>278.0</ele><time>2026-04-25T16:59:59.001Z</time></trkpt><trkpt lat="45.674011052221346" lon="9.317494395466893"><ele>277.0</ele><time>2026-04-25T17:00:00.001Z</time></trkpt><trkpt lat="45.673841978515426" lon="9.317500077943869"><ele>277.0</ele><time>2026-04-25T17:00:01.001Z</time></trkpt><trkpt lat="45.67368061902706" lon="9.317500526499622"><ele>277.0</ele><time>2026-04-25T17:00:02.001Z</time></trkpt><trkpt lat="45.673521804651614" lon="9.317500650264284"><ele>277.0</ele><time>2026-04-25T17:00:03.001Z</time></trkpt><trkpt lat="45.673368964601615" lon="9.317501649191064"><ele>276.5</ele><time>2026-04-25T17:00:04.001Z</time></trkpt><trkpt lat="45.673224305439774" lon="9.31750297911276"><ele>276.0</ele><time>2026-04-25T17:00:05.001Z</time></trkpt><trkpt lat="45.673089757639495" lon="9.31749967704021"><ele>275.5</ele><time>2026-04-25T17:00:06.001Z</time></trkpt><trkpt lat="45.672967299666055" lon="9.317492246669492"><ele>275.0</ele><time>2026-04-25T17:00:07.001Z</time></trkpt><trkpt lat="45.6728480185186" lon="9.31747437336988"><ele>274.0</ele><time>2026-04-25T17:00:08.001Z</time></trkpt><trkpt lat="45.672725705144856" lon="9.317467099867697"><ele>273.0</ele><time>2026-04-25T17:00:09.001Z</time></trkpt><trkpt lat="45.6725889338284" lon="9.317488682714282"><ele>272.0</ele><time>2026-04-25T17:00:10.001Z</time></trkpt><trkpt lat="45.67243757693943" lon="9.317509348753594"><ele>271.0</ele><time>2026-04-25T17:00:11.001Z</time></trkpt><trkpt lat="45.672272814115736" lon="9.317515143369686"><ele>271.0</ele><time>2026-04-25T17:00:12.001Z</time></trkpt><trkpt lat="45.67209698931157" lon="9.317518188441051"><ele>271.0</ele><time>2026-04-25T17:00:13.001Z</time></trkpt><trkpt lat="45.67191626365682" lon="9.317521800987688"><ele>271.0</ele><time>2026-04-25T17:00:14.001Z</time></trkpt><trkpt lat="45.671729064691725" lon="9.317528064246881"><ele>270.3333333333333</ele><time>2026-04-25T17:00:15.001Z</time></trkpt><trkpt lat="45.67153814962526" lon="9.317531214522974"><ele>269.6666666666667</ele><time>2026-04-25T17:00:16.001Z</time></trkpt><trkpt lat="45.671344632073" lon="9.31753632358196"><ele>269.0</ele><time>2026-04-25T17:00:17.001Z</time></trkpt><trkpt lat="45.67115040191811" lon="9.317541047097073"><ele>269.0</ele><time>2026-04-25T17:00:18.001Z</time></trkpt><trkpt lat="45.67096034527403" lon="9.317546874577637"><ele>269.0</ele><time>2026-04-25T17:00:19.001Z</time></trkpt><trkpt lat="45.6707794090981" lon="9.317547482862635"><ele>269.0</ele><time>2026-04-25T17:00:20.001Z</time></trkpt><trkpt lat="45.67060558552682" lon="9.317541336841645"><ele>269.0</ele><time>2026-04-25T17:00:21.001Z</time></trkpt><trkpt lat="45.67043899857732" lon="9.317527951560127"><ele>269.0</ele><time>2026-04-25T17:00:22.001Z</time></trkpt><trkpt lat="45.670277915961805" lon="9.31750152558908"><ele>269.0</ele><time>2026-04-25T17:00:23.002Z</time></trkpt><trkpt lat="45.67012037280421" lon="9.317462022098107"><ele>267.6666666666667</ele><time>2026-04-25T17:00:24.002Z</time></trkpt><trkpt lat="45.66995818994276" lon="9.31741115574586"><ele>266.3333333333333</ele><time>2026-04-25T17:00:25.002Z</time></trkpt><trkpt lat="45.66979521634054" lon="9.317356098700133"><ele>265.0</ele><time>2026-04-25T17:00:26.002Z</time></trkpt><trkpt lat="45.66963172020548" lon="9.317311327407506"><ele>265.0</ele><time>2026-04-25T17:00:27.002Z</time></trkpt><trkpt lat="45.66947100940417" lon="9.317286042123664"><ele>265.0</ele><time>2026-04-25T17:00:28.002Z</time></trkpt><trkpt lat="45.66930504006623" lon="9.317275867150283"><ele>265.0</ele><time>2026-04-25T17:00:29.002Z</time></trkpt><trkpt lat="45.66913928932912" lon="9.317280476229747"><ele>264.3333333333333</ele><time>2026-04-25T17:00:30.002Z</time></trkpt><trkpt lat="45.668975023268416" lon="9.317298568440336"><ele>263.6666666666667</ele><time>2026-04-25T17:00:31.002Z</time></trkpt><trkpt lat="45.66880973606403" lon="9.317328355703925"><ele>263.0</ele><time>2026-04-25T17:00:32.002Z</time></trkpt><trkpt lat="45.66864315288362" lon="9.317365553226072"><ele>263.0</ele><time>2026-04-25T17:00:33.002Z</time></trkpt><trkpt lat="45.66848011728117" lon="9.317397993415058"><ele>263.0</ele><time>2026-04-25T17:00:34.002Z</time></trkpt><trkpt lat="45.66831840374516" lon="9.317422212620421"><ele>263.0</ele><time>2026-04-25T17:00:35.002Z</time></trkpt><trkpt lat="45.66815299641015" lon="9.317427951005754"><ele>263.0</ele><time>2026-04-25T17:00:36.002Z</time></trkpt><trkpt lat="45.6679920552274" lon="9.317405219234006"><ele>263.0</ele><time>2026-04-25T17:00:37.002Z</time></trkpt><trkpt lat="45.667841363466685" lon="9.31736025517302"><ele>263.0</ele><time>2026-04-25T17:00:38.002Z</time></trkpt><trkpt lat="45.66769582500361" lon="9.317307124465536"><ele>263.25</ele><time>2026-04-25T17:00:39.002Z</time></trkpt><trkpt lat="45.66756021395113" lon="9.317245389489106"><ele>263.5</ele><time>2026-04-25T17:00:40.002Z</time></trkpt><trkpt lat="45.66743309885071" lon="9.317179169595216"><ele>263.75</ele><time>2026-04-25T17:00:41.002Z</time></trkpt><trkpt lat="45.6673139546204" lon="9.317112634361957"><ele>264.0</ele><time>2026-04-25T17:00:42.002Z</time></trkpt><trkpt lat="45.667211882476636" lon="9.317045321832852"><ele>264.0</ele><time>2026-04-25T17:00:43.002Z</time></trkpt><trkpt lat="45.66712470904307" lon="9.316982365783344"><ele>264.0</ele><time>2026-04-25T17:00:44.002Z</time></trkpt><trkpt lat="45.66704990069146" lon="9.31691927677392"><ele>264.0</ele><time>2026-04-25T17:00:45.002Z</time></trkpt><trkpt lat="45.66698987155743" lon="9.316855029653608"><ele>264.0</ele><time>2026-04-25T17:00:46.002Z</time></trkpt><trkpt lat="45.666948084409974" lon="9.316780928664949"><ele>264.0</ele><time>2026-04-25T17:00:47.002Z</time></trkpt><trkpt lat="45.66690764540658" lon="9.316703008466558"><ele>264.0</ele><time>2026-04-25T17:00:48.002Z</time></trkpt><trkpt lat="45.666858192840365" lon="9.316642381915294"><ele>263.4</ele><time>2026-04-25T17:00:49.002Z</time></trkpt><trkpt lat="45.6667373874882" lon="9.316636814262527"><ele>262.79999999999995</ele><time>2026-04-25T17:00:51.002Z</time></trkpt><trkpt lat="45.666663529964566" lon="9.316684520997953"><ele>262.20000000000005</ele><time>2026-04-25T17:00:52.002Z</time></trkpt><trkpt lat="45.666588733281365" lon="9.316714147424413"><ele>261.6</ele><time>2026-04-25T17:00:53.002Z</time></trkpt><trkpt lat="45.666500354804995" lon="9.316709968520627"><ele>261.0</ele><time>2026-04-25T17:00:54.002Z</time></trkpt><trkpt lat="45.666418117999235" lon="9.316681226095577"><ele>261.0</ele><time>2026-04-25T17:00:55.002Z</time></trkpt><trkpt lat="45.66632819218357" lon="9.316646796891243"><ele>261.0</ele><time>2026-04-25T17:00:56.002Z</time></trkpt><trkpt lat="45.66623917093923" lon="9.316600047735376"><ele>261.0</ele><time>2026-04-25T17:00:57.002Z</time></trkpt><trkpt lat="45.66614708956357" lon="9.316555176581186"><ele>261.0</ele><time>2026-04-25T17:00:58.002Z</time></trkpt><trkpt lat="45.66605048181355" lon="9.31650308674057"><ele>261.0</ele><time>2026-04-25T17:00:59.002Z</time></trkpt><trkpt lat="45.66594972996407" lon="9.316451412207659"><ele>260.5</ele><time>2026-04-25T17:01:00.002Z</time></trkpt><trkpt lat="45.66584552130129" lon="9.316394701839172"><ele>260.0</ele><time>2026-04-25T17:01:01.002Z</time></trkpt><trkpt lat="45.66573868810713" lon="9.316336640139012"><ele>259.5</ele><time>2026-04-25T17:01:02.002Z</time></trkpt><trkpt lat="45.665632303968465" lon="9.316279095194211"><ele>259.0</ele><time>2026-04-25T17:01:03.003Z</time></trkpt><trkpt lat="45.665526406641135" lon="9.316224891731153"><ele>259.0</ele><time>2026-04-25T17:01:04.003Z</time></trkpt><trkpt lat="45.665420882375884" lon="9.316169697829702"><ele>259.0</ele><time>2026-04-25T17:01:05.003Z</time></trkpt><trkpt lat="45.665314570028585" lon="9.316111545323942"><ele>259.0</ele><time>2026-04-25T17:01:06.003Z</time></trkpt><trkpt lat="45.665205763330626" lon="9.31605241778592"><ele>259.0</ele><time>2026-04-25T17:01:07.003Z</time></trkpt><trkpt lat="45.66510093902461" lon="9.3159965895248"><ele>258.8</ele><time>2026-04-25T17:01:08.003Z</time></trkpt><trkpt lat="45.664999209352594" lon="9.31594183568531"><ele>258.59999999999997</ele><time>2026-04-25T17:01:09.003Z</time></trkpt><trkpt lat="45.66490045778778" lon="9.315890739931499"><ele>258.4</ele><time>2026-04-25T17:01:10.003Z</time></trkpt><trkpt lat="45.66480707958345" lon="9.31584465309391"><ele>258.2</ele><time>2026-04-25T17:01:11.003Z</time></trkpt><trkpt lat="45.66471959363418" lon="9.315797850263747"><ele>258.0</ele><time>2026-04-25T17:01:12.003Z</time></trkpt><trkpt lat="45.66463496802746" lon="9.315750945785123"><ele>258.0</ele><time>2026-04-25T17:01:13.003Z</time></trkpt><trkpt lat="45.66455064885249" lon="9.31570487797384"><ele>258.0</ele><time>2026-04-25T17:01:14.003Z</time></trkpt><trkpt lat="45.66446051613932" lon="9.315658336119508"><ele>258.0</ele><time>2026-04-25T17:01:15.003Z</time></trkpt><trkpt lat="45.6643606648598" lon="9.315608578006364"><ele>258.0</ele><time>2026-04-25T17:01:16.003Z</time></trkpt><trkpt lat="45.66425509095227" lon="9.315550924618565"><ele>258.0</ele><time>2026-04-25T17:01:17.003Z</time></trkpt><trkpt lat="45.664145361895955" lon="9.315493010501452"><ele>258.25</ele><time>2026-04-25T17:01:18.003Z</time></trkpt><trkpt lat="45.66403877368102" lon="9.315434073252563"><ele>258.5</ele><time>2026-04-25T17:01:19.003Z</time></trkpt><trkpt lat="45.66393143170228" lon="9.315379798895783"><ele>258.75</ele><time>2026-04-25T17:01:20.003Z</time></trkpt><trkpt lat="45.66382731357964" lon="9.315321346656415"><ele>259.0</ele><time>2026-04-25T17:01:21.003Z</time></trkpt><trkpt lat="45.66371935034035" lon="9.315264899197173"><ele>258.5</ele><time>2026-04-25T17:01:22Z</time></trkpt><trkpt lat="45.663611755260845" lon="9.315206517409655"><ele>258.0</ele><time>2026-04-25T17:01:23Z</time></trkpt><trkpt lat="45.663499661227206" lon="9.315148944527053"><ele>257.5</ele><time>2026-04-25T17:01:24Z</time></trkpt><trkpt lat="45.66338384641066" lon="9.315087477536368"><ele>257.0</ele><time>2026-04-25T17:01:25Z</time></trkpt><trkpt lat="45.66326402870349" lon="9.315026369225679"><ele>257.0</ele><time>2026-04-25T17:01:26Z</time></trkpt><trkpt lat="45.663142731532474" lon="9.314962858338653"><ele>257.0</ele><time>2026-04-25T17:01:27Z</time></trkpt><trkpt lat="45.66301857747554" lon="9.314898158556039"><ele>257.0</ele><time>2026-04-25T17:01:28Z</time></trkpt><trkpt lat="45.66289806470228" lon="9.314832267427455"><ele>257.0</ele><time>2026-04-25T17:01:29Z</time></trkpt><trkpt lat="45.66277546089203" lon="9.314768323589455"><ele>256.25</ele><time>2026-04-25T17:01:30Z</time></trkpt><trkpt lat="45.66265708455924" lon="9.314706170914603"><ele>255.5</ele><time>2026-04-25T17:01:31Z</time></trkpt><trkpt lat="45.662545296889036" lon="9.314645585257352"><ele>254.75</ele><time>2026-04-25T17:01:32Z</time></trkpt><trkpt lat="45.662435431727175" lon="9.314589929460436"><ele>254.0</ele><time>2026-04-25T17:01:33Z</time></trkpt><trkpt lat="45.66232537980546" lon="9.314531095011425"><ele>254.0</ele><time>2026-04-25T17:01:34Z</time></trkpt><trkpt lat="45.662218224697995" lon="9.314469928992256"><ele>254.0</ele><time>2026-04-25T17:01:35Z</time></trkpt><trkpt lat="45.66211202438315" lon="9.314412060113735"><ele>254.0</ele><time>2026-04-25T17:01:36Z</time></trkpt><trkpt lat="45.66200759493611" lon="9.314355914669509"><ele>254.0</ele><time>2026-04-25T17:01:37Z</time></trkpt><trkpt lat="45.66190523355931" lon="9.314301763449135"><ele>253.6</ele><time>2026-04-25T17:01:38Z</time></trkpt><trkpt lat="45.661802892507175" lon="9.314248465616503"><ele>253.2</ele><time>2026-04-25T17:01:39Z</time></trkpt><trkpt lat="45.66170295026849" lon="9.3142052973632"><ele>252.79999999999998</ele><time>2026-04-25T17:01:40Z</time></trkpt><trkpt lat="45.661608215367515" lon="9.314166628578107"><ele>252.39999999999998</ele><time>2026-04-25T17:01:41Z</time></trkpt><trkpt lat="45.66150941318365" lon="9.314141754155886"><ele>252.0</ele><time>2026-04-25T17:01:42Z</time></trkpt><trkpt lat="45.66140911591646" lon="9.314124969067395"><ele>252.0</ele><time>2026-04-25T17:01:43Z</time></trkpt><trkpt lat="45.66131012776387" lon="9.314117520082924"><ele>252.0</ele><time>2026-04-25T17:01:44Z</time></trkpt><trkpt lat="45.66121162704217" lon="9.314117101987575"><ele>252.0</ele><time>2026-04-25T17:01:45Z</time></trkpt><trkpt lat="45.66110754116186" lon="9.314122426566078"><ele>252.0</ele><time>2026-04-25T17:01:46Z</time></trkpt><trkpt lat="45.660997558826104" lon="9.314124685178246"><ele>252.0</ele><time>2026-04-25T17:01:47.001Z</time></trkpt><trkpt lat="45.66088408158543" lon="9.314126646938078"><ele>252.5</ele><time>2026-04-25T17:01:48.001Z</time></trkpt><trkpt lat="45.66076872681044" lon="9.314120335930282"><ele>253.0</ele><time>2026-04-25T17:01:49.001Z</time></trkpt><trkpt lat="45.660657582673146" lon="9.314100971068045"><ele>253.5</ele><time>2026-04-25T17:01:50.001Z</time></trkpt><trkpt lat="45.66054599263081" lon="9.314070963489991"><ele>254.0</ele><time>2026-04-25T17:01:51.001Z</time></trkpt><trkpt lat="45.66043596577333" lon="9.314018554173101"><ele>254.0</ele><time>2026-04-25T17:01:52.001Z</time></trkpt><trkpt lat="45.6603227239869" lon="9.313948760669906"><ele>254.0</ele><time>2026-04-25T17:01:53.001Z</time></trkpt><trkpt lat="45.66021529517563" lon="9.313862839870254"><ele>254.0</ele><time>2026-04-25T17:01:54.001Z</time></trkpt><trkpt lat="45.66011611747728" lon="9.313780594164243"><ele>254.0</ele><time>2026-04-25T17:01:55.001Z</time></trkpt><trkpt lat="45.6600181632594" lon="9.3137018291683"><ele>253.5</ele><time>2026-04-25T17:01:56.001Z</time></trkpt><trkpt lat="45.65992077394471" lon="9.313620393308538"><ele>253.0</ele><time>2026-04-25T17:01:57.001Z</time></trkpt><trkpt lat="45.65981810768275" lon="9.31354061277637"><ele>252.5</ele><time>2026-04-25T17:01:58.001Z</time></trkpt><trkpt lat="45.65971490168184" lon="9.313463259478352"><ele>252.0</ele><time>2026-04-25T17:01:59.001Z</time></trkpt><trkpt lat="45.65960896013453" lon="9.31339471296153"><ele>252.0</ele><time>2026-04-25T17:02:00.001Z</time></trkpt><trkpt lat="45.659504541534304" lon="9.313328572865316"><ele>252.0</ele><time>2026-04-25T17:02:01.001Z</time></trkpt><trkpt lat="45.659396764417494" lon="9.313266744584439"><ele>252.0</ele><time>2026-04-25T17:02:02.001Z</time></trkpt><trkpt lat="45.65928621048286" lon="9.313204005255878"><ele>252.0</ele><time>2026-04-25T17:02:03.001Z</time></trkpt><trkpt lat="45.6591801723506" lon="9.3131434236861"><ele>252.0</ele><time>2026-04-25T17:02:04.001Z</time></trkpt><trkpt lat="45.659077871590405" lon="9.313083592438932"><ele>252.0</ele><time>2026-04-25T17:02:05.001Z</time></trkpt><trkpt lat="45.6589862828146" lon="9.313019455805534"><ele>252.0</ele><time>2026-04-25T17:02:06.001Z</time></trkpt><trkpt lat="45.65889707136306" lon="9.312959736586489"><ele>252.0</ele><time>2026-04-25T17:02:07.001Z</time></trkpt><trkpt lat="45.65880080912574" lon="9.31288803471566"><ele>252.0</ele><time>2026-04-25T17:02:08.001Z</time></trkpt><trkpt lat="45.65869804143137" lon="9.312810792918292"><ele>251.5</ele><time>2026-04-25T17:02:09.001Z</time></trkpt><trkpt lat="45.658591652166685" lon="9.31272858163974"><ele>251.0</ele><time>2026-04-25T17:02:10.001Z</time></trkpt><trkpt lat="45.65848997053377" lon="9.312634997931642"><ele>250.5</ele><time>2026-04-25T17:02:11.001Z</time></trkpt><trkpt lat="45.658380253112306" lon="9.312532291702434"><ele>250.0</ele><time>2026-04-25T17:02:12.001Z</time></trkpt><trkpt lat="45.658274931582255" lon="9.3123901358206"><ele>250.0</ele><time>2026-04-25T17:02:13.001Z</time></trkpt><trkpt lat="45.658143002325694" lon="9.31227628955637"><ele>250.0</ele><time>2026-04-25T17:02:14.001Z</time></trkpt><trkpt lat="45.658022832577636" lon="9.312136621868726"><ele>250.0</ele><time>2026-04-25T17:02:15.001Z</time></trkpt><trkpt lat="45.65789340598247" lon="9.311997770691562"><ele>249.33333333333331</ele><time>2026-04-25T17:02:16.001Z</time></trkpt><trkpt lat="45.65776462583951" lon="9.311854332721696"><ele>248.66666666666669</ele><time>2026-04-25T17:02:17.001Z</time></trkpt><trkpt lat="45.65763242202524" lon="9.311715684764893"><ele>248.0</ele><time>2026-04-25T17:02:18.001Z</time></trkpt><trkpt lat="45.657496083611946" lon="9.311587434302108"><ele>248.0</ele><time>2026-04-25T17:02:19.001Z</time></trkpt><trkpt lat="45.65735548638942" lon="9.31146299162762"><ele>248.0</ele><time>2026-04-25T17:02:20.001Z</time></trkpt><trkpt lat="45.65721627338493" lon="9.311353439998898"><ele>248.0</ele><time>2026-04-25T17:02:21.001Z</time></trkpt><trkpt lat="45.65708094360004" lon="9.311257029291236"><ele>247.75</ele><time>2026-04-25T17:02:22.001Z</time></trkpt><trkpt lat="45.65695216238454" lon="9.31117378577662"><ele>247.5</ele><time>2026-04-25T17:02:23.001Z</time></trkpt><trkpt lat="45.656820347635254" lon="9.311089418314115"><ele>247.25</ele><time>2026-04-25T17:02:24.001Z</time></trkpt><trkpt lat="45.65668937937452" lon="9.311014326681525"><ele>247.0</ele><time>2026-04-25T17:02:25.001Z</time></trkpt><trkpt lat="45.6565564176795" lon="9.310944748165703"><ele>247.0</ele><time>2026-04-25T17:02:26.001Z</time></trkpt><trkpt lat="45.656424808373195" lon="9.310874458937551"><ele>247.0</ele><time>2026-04-25T17:02:27.001Z</time></trkpt><trkpt lat="45.65629269964755" lon="9.310801347874643"><ele>247.0</ele><time>2026-04-25T17:02:28.001Z</time></trkpt><trkpt lat="45.65615817768362" lon="9.310734636528968"><ele>247.0</ele><time>2026-04-25T17:02:29.002Z</time></trkpt><trkpt lat="45.65602903400655" lon="9.31066315904305"><ele>247.5</ele><time>2026-04-25T17:02:30.002Z</time></trkpt><trkpt lat="45.65589971986304" lon="9.310594898280518"><ele>248.0</ele><time>2026-04-25T17:02:31.002Z</time></trkpt><trkpt lat="45.65576947533411" lon="9.310521665142309"><ele>248.5</ele><time>2026-04-25T17:02:32.002Z</time></trkpt><trkpt lat="45.65564482716029" lon="9.310450386159436"><ele>249.0</ele><time>2026-04-25T17:02:33.002Z</time></trkpt><trkpt lat="45.655524621529295" lon="9.310367981487472"><ele>248.0</ele><time>2026-04-25T17:02:34.002Z</time></trkpt><trkpt lat="45.65539041019892" lon="9.3102829743903"><ele>247.0</ele><time>2026-04-25T17:02:35.002Z</time></trkpt><trkpt lat="45.655251456072605" lon="9.31020106732977"><ele>246.0</ele><time>2026-04-25T17:02:36.002Z</time></trkpt><trkpt lat="45.65510893657375" lon="9.31011272568247"><ele>246.0</ele><time>2026-04-25T17:02:37.002Z</time></trkpt><trkpt lat="45.654963308480696" lon="9.310024476395698"><ele>246.0</ele><time>2026-04-25T17:02:38.002Z</time></trkpt><trkpt lat="45.65481669265334" lon="9.309942246324391"><ele>246.0</ele><time>2026-04-25T17:02:39.002Z</time></trkpt><trkpt lat="45.6546713215879" lon="9.309863338317927"><ele>246.0</ele><time>2026-04-25T17:02:40.002Z</time></trkpt><trkpt lat="45.65452884256437" lon="9.30978205660915"><ele>246.0</ele><time>2026-04-25T17:02:41.002Z</time></trkpt><trkpt lat="45.65438360375609" lon="9.309698420736172"><ele>246.0</ele><time>2026-04-25T17:02:42.002Z</time></trkpt><trkpt lat="45.6542378871685" lon="9.309617568017096"><ele>247.33333333333331</ele><time>2026-04-25T17:02:43.002Z</time></trkpt><trkpt lat="45.65409144818016" lon="9.309544708347822"><ele>248.66666666666666</ele><time>2026-04-25T17:02:44.002Z</time></trkpt><trkpt lat="45.65394743502759" lon="9.309475423196085"><ele>250.0</ele><time>2026-04-25T17:02:45.002Z</time></trkpt><trkpt lat="45.653802823727375" lon="9.309402526465645"><ele>250.0</ele><time>2026-04-25T17:02:46.002Z</time></trkpt><trkpt lat="45.653655798759814" lon="9.309330417534209"><ele>250.0</ele><time>2026-04-25T17:02:47.002Z</time></trkpt><trkpt lat="45.65350844923693" lon="9.309252993058713"><ele>250.0</ele><time>2026-04-25T17:02:48.002Z</time></trkpt><trkpt lat="45.65336080625386" lon="9.30917170158307"><ele>249.66666666666666</ele><time>2026-04-25T17:02:49.002Z</time></trkpt><trkpt lat="45.653209933522135" lon="9.309090984163847"><ele>249.33333333333331</ele><time>2026-04-25T17:02:50.002Z</time></trkpt><trkpt lat="45.653060804148744" lon="9.309011878963187"><ele>249.0</ele><time>2026-04-25T17:02:51.002Z</time></trkpt><trkpt lat="45.65290943952728" lon="9.308932516509447"><ele>248.66666666666669</ele><time>2026-04-25T17:02:52.002Z</time></trkpt><trkpt lat="45.6527581929205" lon="9.308854652287845"><ele>248.33333333333334</ele><time>2026-04-25T17:02:53.002Z</time></trkpt><trkpt lat="45.65260740486938" lon="9.308777707856956"><ele>248.0</ele><time>2026-04-25T17:02:54.002Z</time></trkpt><trkpt lat="45.652460338911354" lon="9.308700719882582"><ele>248.0</ele><time>2026-04-25T17:02:55.002Z</time></trkpt><trkpt lat="45.652314187094746" lon="9.308627683131549"><ele>248.0</ele><time>2026-04-25T17:02:56.002Z</time></trkpt><trkpt lat="45.65216726878328" lon="9.308556016320285"><ele>248.0</ele><time>2026-04-25T17:02:57.002Z</time></trkpt><trkpt lat="45.65202021273413" lon="9.308484778874952"><ele>248.25</ele><time>2026-04-25T17:02:58.002Z</time></trkpt><trkpt lat="45.651879746284294" lon="9.308418967678628"><ele>248.5</ele><time>2026-04-25T17:02:59.002Z</time></trkpt><trkpt lat="45.65174809725746" lon="9.308359098601416"><ele>248.75</ele><time>2026-04-25T17:03:00.002Z</time></trkpt><trkpt lat="45.6516208427326" lon="9.308302866978012"><ele>249.0</ele><time>2026-04-25T17:03:01.002Z</time></trkpt><trkpt lat="45.65150195722663" lon="9.308254934440594"><ele>249.0</ele><time>2026-04-25T17:03:02.002Z</time></trkpt><trkpt lat="45.65138769084659" lon="9.30821132976677"><ele>248.99999999999997</ele><time>2026-04-25T17:03:03.002Z</time></trkpt><trkpt lat="45.65127766813575" lon="9.308177926452506"><ele>248.99999999999997</ele><time>2026-04-25T17:03:04.002Z</time></trkpt><trkpt lat="45.651173148101506" lon="9.308152598064305"><ele>249.0</ele><time>2026-04-25T17:03:05.002Z</time></trkpt><trkpt lat="45.65106793076504" lon="9.30814234251383"><ele>249.0</ele><time>2026-04-25T17:03:06.002Z</time></trkpt><trkpt lat="45.650960951287146" lon="9.308147681055473"><ele>249.39999999999998</ele><time>2026-04-25T17:03:07.002Z</time></trkpt><trkpt lat="45.65085165888375" lon="9.308159958484246"><ele>249.79999999999998</ele><time>2026-04-25T17:03:08.002Z</time></trkpt><trkpt lat="45.65074213318535" lon="9.308178616997251"><ele>250.20000000000002</ele><time>2026-04-25T17:03:09.003Z</time></trkpt><trkpt lat="45.650633346053375" lon="9.308205772880035"><ele>250.60000000000002</ele><time>2026-04-25T17:03:10.003Z</time></trkpt><trkpt lat="45.65052708623116" lon="9.308239883296306"><ele>251.0</ele><time>2026-04-25T17:03:11.003Z</time></trkpt><trkpt lat="45.65040644665651" lon="9.308278207350908"><ele>250.8</ele><time>2026-04-25T17:03:12.003Z</time></trkpt><trkpt lat="45.65028126026914" lon="9.308315592644053"><ele>250.60000000000002</ele><time>2026-04-25T17:03:13.003Z</time></trkpt><trkpt lat="45.65016568741243" lon="9.308350011572852"><ele>250.4</ele><time>2026-04-25T17:03:14.003Z</time></trkpt><trkpt lat="45.65006565883073" lon="9.308387161722631"><ele>250.2</ele><time>2026-04-25T17:03:15.003Z</time></trkpt><trkpt lat="45.6499811772483" lon="9.30842841650533"><ele>250.0</ele><time>2026-04-25T17:03:16.003Z</time></trkpt><trkpt lat="45.6499035043714" lon="9.308473307113806"><ele>249.99999999999997</ele><time>2026-04-25T17:03:17.003Z</time></trkpt><trkpt lat="45.64982375491058" lon="9.308519168984505"><ele>250.0</ele><time>2026-04-25T17:03:18.003Z</time></trkpt><trkpt lat="45.6497419069732" lon="9.308558157969221"><ele>250.0</ele><time>2026-04-25T17:03:19.003Z</time></trkpt><trkpt lat="45.64965512094218" lon="9.308590909240147"><ele>250.0</ele><time>2026-04-25T17:03:20.003Z</time></trkpt><trkpt lat="45.64956722152063" lon="9.308608449194121"><ele>249.99999999999997</ele><time>2026-04-25T17:03:21.003Z</time></trkpt><trkpt lat="45.64948355967994" lon="9.308617450832317"><ele>250.0</ele><time>2026-04-25T17:03:22.003Z</time></trkpt><trkpt lat="45.649399250628676" lon="9.30861870366272"><ele>249.83333333333331</ele><time>2026-04-25T17:03:23.003Z</time></trkpt><trkpt lat="45.649313842753344" lon="9.3086137614486"><ele>249.66666666666666</ele><time>2026-04-25T17:03:24.003Z</time></trkpt><trkpt lat="45.64922968634896" lon="9.308599096218702"><ele>249.5</ele><time>2026-04-25T17:03:25.003Z</time></trkpt><trkpt lat="45.64914458500887" lon="9.308579901145194"><ele>249.33333333333331</ele><time>2026-04-25T17:03:26.003Z</time></trkpt><trkpt lat="45.64906415709692" lon="9.308555313336795"><ele>249.16666666666666</ele><time>2026-04-25T17:03:27.003Z</time></trkpt><trkpt lat="45.648986679833776" lon="9.308528562562111"><ele>249.0</ele><time>2026-04-25T17:03:28Z</time></trkpt><trkpt lat="45.648913661132056" lon="9.308499485087976"><ele>249.0</ele><time>2026-04-25T17:03:29Z</time></trkpt><trkpt lat="45.648846560860186" lon="9.30846327190112"><ele>248.99999999999997</ele><time>2026-04-25T17:03:30Z</time></trkpt><trkpt lat="45.64878051982903" lon="9.308424927578763"><ele>249.0</ele><time>2026-04-25T17:03:31Z</time></trkpt><trkpt lat="45.64871823249827" lon="9.30838531408485"><ele>249.0</ele><time>2026-04-25T17:03:32Z</time></trkpt><trkpt lat="45.64865350962917" lon="9.308344277574452"><ele>248.99999999999997</ele><time>2026-04-25T17:03:33Z</time></trkpt><trkpt lat="45.648587763298025" lon="9.30829840597175"><ele>249.0</ele><time>2026-04-25T17:03:34Z</time></trkpt><trkpt lat="45.6485181008066" lon="9.308249389676366"><ele>249.0</ele><time>2026-04-25T17:03:35Z</time></trkpt><trkpt lat="45.64844269035838" lon="9.308199222299546"><ele>248.66666666666666</ele><time>2026-04-25T17:03:36Z</time></trkpt><trkpt lat="45.648368395469475" lon="9.308143375140242"><ele>248.33333333333331</ele><time>2026-04-25T17:03:37Z</time></trkpt><trkpt lat="45.64829430093135" lon="9.308088582770285"><ele>248.0</ele><time>2026-04-25T17:03:38Z</time></trkpt><trkpt lat="45.64822097710567" lon="9.308038537325698"><ele>247.66666666666666</ele><time>2026-04-25T17:03:39Z</time></trkpt><trkpt lat="45.64815116529499" lon="9.307991722626792"><ele>247.33333333333331</ele><time>2026-04-25T17:03:40Z</time></trkpt><trkpt lat="45.64808054658355" lon="9.307945260481224"><ele>247.0</ele><time>2026-04-25T17:03:41Z</time></trkpt><trkpt lat="45.64801141944998" lon="9.307902379185897"><ele>246.99999999999997</ele><time>2026-04-25T17:03:42Z</time></trkpt><trkpt lat="45.6479396352815" lon="9.307853319044108"><ele>247.0</ele><time>2026-04-25T17:03:43Z</time></trkpt><trkpt lat="45.64786360218925" lon="9.30781808986962"><ele>247.0</ele><time>2026-04-25T17:03:44Z</time></trkpt><trkpt lat="45.64779264528153" lon="9.307800473316034"><ele>247.0</ele><time>2026-04-25T17:03:45Z</time></trkpt><trkpt lat="45.64771989607532" lon="9.307796465188437"><ele>246.99999999999997</ele><time>2026-04-25T17:03:46Z</time></trkpt><trkpt lat="45.64765187183831" lon="9.307801552827808"><ele>247.0</ele><time>2026-04-25T17:03:47Z</time></trkpt><trkpt lat="45.64754662473985" lon="9.307805449431553"><ele>246.2</ele><time>2026-04-25T17:03:49Z</time></trkpt><trkpt lat="45.64742760296298" lon="9.307770688289825"><ele>245.39999999999998</ele><time>2026-04-25T17:03:51Z</time></trkpt><trkpt lat="45.647355073634465" lon="9.30773786410577"><ele>244.60000000000002</ele><time>2026-04-25T17:03:52Z</time></trkpt><trkpt lat="45.647278528163234" lon="9.307694291531636"><ele>243.8</ele><time>2026-04-25T17:03:53Z</time></trkpt><trkpt lat="45.647192410356574" lon="9.307626382203622"><ele>243.0</ele><time>2026-04-25T17:03:54Z</time></trkpt><trkpt lat="45.647102803388954" lon="9.307555428910117"><ele>243.0</ele><time>2026-04-25T17:03:55Z</time></trkpt><trkpt lat="45.64700374223273" lon="9.307494604028124"><ele>243.0</ele><time>2026-04-25T17:03:56Z</time></trkpt><trkpt lat="45.64689886969132" lon="9.30743311399538"><ele>243.0</ele><time>2026-04-25T17:03:57Z</time></trkpt><trkpt lat="45.64679565703888" lon="9.307368370907284"><ele>243.0</ele><time>2026-04-25T17:03:58Z</time></trkpt><trkpt lat="45.646692090981965" lon="9.307319148885153"><ele>243.0</ele><time>2026-04-25T17:03:59Z</time></trkpt><trkpt lat="45.6465947487355" lon="9.307264296125933"><ele>242.2</ele><time>2026-04-25T17:04:00Z</time></trkpt><trkpt lat="45.64649962645097" lon="9.307211851188214"><ele>241.4</ele><time>2026-04-25T17:04:01.001Z</time></trkpt><trkpt lat="45.64639739227524" lon="9.307157031456144"><ele>240.59999999999997</ele><time>2026-04-25T17:04:02.001Z</time></trkpt><trkpt lat="45.64629024293805" lon="9.307102787215461"><ele>239.79999999999998</ele><time>2026-04-25T17:04:03.001Z</time></trkpt><trkpt lat="45.64617712191472" lon="9.307041487897857"><ele>239.0</ele><time>2026-04-25T17:04:04.001Z</time></trkpt><trkpt lat="45.6460612234949" lon="9.306980322855548"><ele>237.5</ele><time>2026-04-25T17:04:05.001Z</time></trkpt><trkpt lat="45.645945470075" lon="9.306922761064166"><ele>236.0</ele><time>2026-04-25T17:04:06.001Z</time></trkpt><trkpt lat="45.64582793133503" lon="9.306861620349427"><ele>234.5</ele><time>2026-04-25T17:04:07.001Z</time></trkpt><trkpt lat="45.64571447359663" lon="9.306798406243583"><ele>233.0</ele><time>2026-04-25T17:04:08.001Z</time></trkpt><trkpt lat="45.6456045795307" lon="9.306739836653414"><ele>233.0</ele><time>2026-04-25T17:04:09.001Z</time></trkpt><trkpt lat="45.64549475859826" lon="9.306681383644408"><ele>233.0</ele><time>2026-04-25T17:04:10.001Z</time></trkpt><trkpt lat="45.645388226287984" lon="9.306626069517442"><ele>233.0</ele><time>2026-04-25T17:04:11.001Z</time></trkpt><trkpt lat="45.64528516737464" lon="9.306573542152405"><ele>233.0</ele><time>2026-04-25T17:04:12.001Z</time></trkpt><trkpt lat="45.64518659108724" lon="9.306522393357486"><ele>233.0</ele><time>2026-04-25T17:04:13.001Z</time></trkpt><trkpt lat="45.6450915000434" lon="9.306471368275167"><ele>231.8</ele><time>2026-04-25T17:04:14.001Z</time></trkpt><trkpt lat="45.644997043741846" lon="9.306422054256023"><ele>230.60000000000002</ele><time>2026-04-25T17:04:15.001Z</time></trkpt><trkpt lat="45.64490697529737" lon="9.306373592252315"><ele>229.39999999999998</ele><time>2026-04-25T17:04:16.001Z</time></trkpt><trkpt lat="45.64481884161784" lon="9.30632572521064"><ele>228.2</ele><time>2026-04-25T17:04:17.001Z</time></trkpt><trkpt lat="45.644728389140084" lon="9.30627803590751"><ele>227.0</ele><time>2026-04-25T17:04:18.001Z</time></trkpt><trkpt lat="45.64463179853734" lon="9.306231461660905"><ele>226.8</ele><time>2026-04-25T17:04:19.001Z</time></trkpt><trkpt lat="45.64453045849421" lon="9.30617746615953"><ele>226.6</ele><time>2026-04-25T17:04:20.001Z</time></trkpt><trkpt lat="45.64443014326513" lon="9.306127279565297"><ele>226.40000000000003</ele><time>2026-04-25T17:04:21.001Z</time></trkpt><trkpt lat="45.644329329160286" lon="9.306075132556566"><ele>226.20000000000002</ele><time>2026-04-25T17:04:22.001Z</time></trkpt><trkpt lat="45.64423047552788" lon="9.306020055316187"><ele>226.0</ele><time>2026-04-25T17:04:23.001Z</time></trkpt><trkpt lat="45.64412834507974" lon="9.305963887445916"><ele>225.0</ele><time>2026-04-25T17:04:24.001Z</time></trkpt><trkpt lat="45.64402064565805" lon="9.305904824988868"><ele>224.0</ele><time>2026-04-25T17:04:25.001Z</time></trkpt><trkpt lat="45.6439079781149" lon="9.305843089597268"><ele>223.0</ele><time>2026-04-25T17:04:26.001Z</time></trkpt><trkpt lat="45.64379669006438" lon="9.305782000345955"><ele>222.0</ele><time>2026-04-25T17:04:27.001Z</time></trkpt><trkpt lat="45.643684582711415" lon="9.305720365741076"><ele>221.5</ele><time>2026-04-25T17:04:28.001Z</time></trkpt><trkpt lat="45.643570857367955" lon="9.305655944961234"><ele>221.0</ele><time>2026-04-25T17:04:29.001Z</time></trkpt><trkpt lat="45.643459209162444" lon="9.305591173526235"><ele>220.5</ele><time>2026-04-25T17:04:30.001Z</time></trkpt><trkpt lat="45.643355267446644" lon="9.305534872766279"><ele>220.0</ele><time>2026-04-25T17:04:31.001Z</time></trkpt><trkpt lat="45.643256130176574" lon="9.305479713004672"><ele>219.8</ele><time>2026-04-25T17:04:32.001Z</time></trkpt><trkpt lat="45.643160363183725" lon="9.30542609740025"><ele>219.6</ele><time>2026-04-25T17:04:33.001Z</time></trkpt><trkpt lat="45.64306184255447" lon="9.30537194227689"><ele>219.39999999999998</ele><time>2026-04-25T17:04:34.001Z</time></trkpt><trkpt lat="45.642963020364434" lon="9.305316455568786"><ele>219.2</ele><time>2026-04-25T17:04:35.001Z</time></trkpt><trkpt lat="45.642860112092826" lon="9.305258332276177"><ele>219.0</ele><time>2026-04-25T17:04:36.001Z</time></trkpt><trkpt lat="45.642750180248576" lon="9.305198898044326"><ele>219.0</ele><time>2026-04-25T17:04:37.001Z</time></trkpt><trkpt lat="45.642637382655934" lon="9.305143530522558"><ele>219.0</ele><time>2026-04-25T17:04:38.001Z</time></trkpt><trkpt lat="45.64252617460807" lon="9.305090139713478"><ele>219.0</ele><time>2026-04-25T17:04:39.001Z</time></trkpt><trkpt lat="45.64242126951302" lon="9.305040617320675"><ele>219.0</ele><time>2026-04-25T17:04:40.001Z</time></trkpt><trkpt lat="45.642321455649196" lon="9.304996116609347"><ele>219.0</ele><time>2026-04-25T17:04:41.001Z</time></trkpt><trkpt lat="45.64222450060524" lon="9.304957019808603"><ele>218.99999999999997</ele><time>2026-04-25T17:04:42.002Z</time></trkpt><trkpt lat="45.64213383500035" lon="9.304916881361358"><ele>218.99999999999997</ele><time>2026-04-25T17:04:43.002Z</time></trkpt><trkpt lat="45.64204572327485" lon="9.304862234108997"><ele>219.0</ele><time>2026-04-25T17:04:44.002Z</time></trkpt><trkpt lat="45.641960795644565" lon="9.304786754471746"><ele>219.0</ele><time>2026-04-25T17:04:45.002Z</time></trkpt><trkpt lat="45.64186963874676" lon="9.304734183397297"><ele>218.5</ele><time>2026-04-25T17:04:46.002Z</time></trkpt><trkpt lat="45.64176263547102" lon="9.304691791056815"><ele>218.0</ele><time>2026-04-25T17:04:47.002Z</time></trkpt><trkpt lat="45.641649197796674" lon="9.304635686820038"><ele>217.5</ele><time>2026-04-25T17:04:48.002Z</time></trkpt><trkpt lat="45.641535248114664" lon="9.304558308701482"><ele>217.0</ele><time>2026-04-25T17:04:49.002Z</time></trkpt><trkpt lat="45.64141392590693" lon="9.304488737917325"><ele>217.0</ele><time>2026-04-25T17:04:50.002Z</time></trkpt><trkpt lat="45.64128700705474" lon="9.304430782742815"><ele>217.0</ele><time>2026-04-25T17:04:51.002Z</time></trkpt><trkpt lat="45.64116222584512" lon="9.30437885944732"><ele>217.0</ele><time>2026-04-25T17:04:52.002Z</time></trkpt><trkpt lat="45.64103921128286" lon="9.304337386884391"><ele>217.0</ele><time>2026-04-25T17:04:53.002Z</time></trkpt><trkpt lat="45.640913158988106" lon="9.304303510434725"><ele>216.25</ele><time>2026-04-25T17:04:54.002Z</time></trkpt><trkpt lat="45.64078046245725" lon="9.304276697792725"><ele>215.5</ele><time>2026-04-25T17:04:55.002Z</time></trkpt><trkpt lat="45.64064457303323" lon="9.304256113678097"><ele>214.75</ele><time>2026-04-25T17:04:56.002Z</time></trkpt><trkpt lat="45.64050546774268" lon="9.304241341118036"><ele>214.0</ele><time>2026-04-25T17:04:57.002Z</time></trkpt><trkpt lat="45.64036472655569" lon="9.30422839587014"><ele>213.25</ele><time>2026-04-25T17:04:58.002Z</time></trkpt><trkpt lat="45.64023262598107" lon="9.304222635617787"><ele>212.5</ele><time>2026-04-25T17:04:59.002Z</time></trkpt><trkpt lat="45.64010256974072" lon="9.30421754940212"><ele>211.75</ele><time>2026-04-25T17:05:00.002Z</time></trkpt><trkpt lat="45.63997619365392" lon="9.304212662096546"><ele>211.0</ele><time>2026-04-25T17:05:01.002Z</time></trkpt><trkpt lat="45.63984252344168" lon="9.304208438293845"><ele>211.0</ele><time>2026-04-25T17:05:02.002Z</time></trkpt><trkpt lat="45.63970994307218" lon="9.304211697387544"><ele>211.0</ele><time>2026-04-25T17:05:03.002Z</time></trkpt><trkpt lat="45.63958481030347" lon="9.304223613332836"><ele>211.0</ele><time>2026-04-25T17:05:04.002Z</time></trkpt><trkpt lat="45.63946396309078" lon="9.304246443057833"><ele>211.0</ele><time>2026-04-25T17:05:05.002Z</time></trkpt><trkpt lat="45.63934549164212" lon="9.304277144112724"><ele>209.60000000000002</ele><time>2026-04-25T17:05:06.002Z</time></trkpt><trkpt lat="45.63922871165392" lon="9.304310153182694"><ele>208.2</ele><time>2026-04-25T17:05:07.002Z</time></trkpt><trkpt lat="45.639116736637696" lon="9.30434629670884"><ele>206.8</ele><time>2026-04-25T17:05:08.002Z</time></trkpt><trkpt lat="45.63901202958545" lon="9.30438249014963"><ele>205.39999999999998</ele><time>2026-04-25T17:05:09.002Z</time></trkpt><trkpt lat="45.63891526110804" lon="9.304415416241165"><ele>204.0</ele><time>2026-04-25T17:05:10.002Z</time></trkpt><trkpt lat="45.638822128105716" lon="9.30444519434943"><ele>204.0</ele><time>2026-04-25T17:05:11.002Z</time></trkpt><trkpt lat="45.63873911313292" lon="9.304470877064077"><ele>204.0</ele><time>2026-04-25T17:05:12.002Z</time></trkpt><trkpt lat="45.63865413801641" lon="9.304497308798505"><ele>204.0</ele><time>2026-04-25T17:05:13.002Z</time></trkpt><trkpt lat="45.63856557849551" lon="9.304528113709422"><ele>204.0</ele><time>2026-04-25T17:05:14.002Z</time></trkpt><trkpt lat="45.6384808507692" lon="9.304558329239246"><ele>204.0</ele><time>2026-04-25T17:05:15.002Z</time></trkpt><trkpt lat="45.63839584867963" lon="9.304588997657286"><ele>204.0</ele><time>2026-04-25T17:05:16.002Z</time></trkpt><trkpt lat="45.638299127663146" lon="9.304620542836046"><ele>203.5</ele><time>2026-04-25T17:05:17.002Z</time></trkpt><trkpt lat="45.638200619098974" lon="9.304647636389545"><ele>203.0</ele><time>2026-04-25T17:05:18.002Z</time></trkpt><trkpt lat="45.63810864332054" lon="9.304681735573693"><ele>202.5</ele><time>2026-04-25T17:05:19.002Z</time></trkpt><trkpt lat="45.6380341727982" lon="9.304707861588906"><ele>202.0</ele><time>2026-04-25T17:05:20.002Z</time></trkpt><trkpt lat="45.63797262859867" lon="9.304728605180102"><ele>201.5</ele><time>2026-04-25T17:05:21.002Z</time></trkpt><trkpt lat="45.63786723238144" lon="9.304767271077715"><ele>201.0</ele><time>2026-04-25T17:05:23.003Z</time></trkpt><trkpt lat="45.63778418390028" lon="9.304805367839164"><ele>199.66666666666666</ele><time>2026-04-25T17:05:25.003Z</time></trkpt><trkpt lat="45.63770675114036" lon="9.304835114065705"><ele>198.33333333333331</ele><time>2026-04-25T17:05:28.003Z</time></trkpt><trkpt lat="45.6375986010105" lon="9.304869443741786"><ele>197.0</ele><time>2026-04-25T17:05:30.003Z</time></trkpt><trkpt lat="45.63751891003631" lon="9.304871938895172"><ele>195.66666666666666</ele><time>2026-04-25T17:05:32.003Z</time></trkpt><trkpt lat="45.63741575239784" lon="9.304845451596266"><ele>194.33333333333331</ele><time>2026-04-25T17:05:38Z</time></trkpt><trkpt lat="45.6373516385515" lon="9.304803076675"><ele>193.0</ele><time>2026-04-25T17:05:39Z</time></trkpt><trkpt lat="45.637229590124974" lon="9.304814596156765"><ele>193.0</ele><time>2026-04-25T17:05:41Z</time></trkpt><trkpt lat="45.63717160743962" lon="9.304889032604898"><ele>193.0</ele><time>2026-04-25T17:05:42Z</time></trkpt><trkpt lat="45.637120594435665" lon="9.304996566398465"><ele>193.0</ele><time>2026-04-25T17:05:43Z</time></trkpt><trkpt lat="45.637051764224296" lon="9.305114042607512"><ele>193.0</ele><time>2026-04-25T17:05:44Z</time></trkpt><trkpt lat="45.63697084111463" lon="9.305206352337114"><ele>193.0</ele><time>2026-04-25T17:05:45Z</time></trkpt><trkpt lat="45.63687905498424" lon="9.30529067975921"><ele>193.0</ele><time>2026-04-25T17:05:46Z</time></trkpt><trkpt lat="45.63678054489088" lon="9.305384385165155"><ele>193.0</ele><time>2026-04-25T17:05:47Z</time></trkpt><trkpt lat="45.63668264811827" lon="9.305481519280466"><ele>193.0</ele><time>2026-04-25T17:05:48Z</time></trkpt><trkpt lat="45.63658492039263" lon="9.305577620276692"><ele>193.0</ele><time>2026-04-25T17:05:49Z</time></trkpt><trkpt lat="45.636485530607864" lon="9.305676096088519"><ele>193.0</ele><time>2026-04-25T17:05:50Z</time></trkpt><trkpt lat="45.636382055256654" lon="9.305782599432417"><ele>193.0</ele><time>2026-04-25T17:05:51Z</time></trkpt><trkpt lat="45.636282193581216" lon="9.30588277991829"><ele>193.0</ele><time>2026-04-25T17:05:52Z</time></trkpt><trkpt lat="45.63617916576244" lon="9.305975834646675"><ele>193.0</ele><time>2026-04-25T17:05:53Z</time></trkpt><trkpt lat="45.6360654911803" lon="9.306066466382248"><ele>193.25</ele><time>2026-04-25T17:05:54Z</time></trkpt><trkpt lat="45.63595142168492" lon="9.306146161163543"><ele>193.5</ele><time>2026-04-25T17:05:55Z</time></trkpt><trkpt lat="45.635842440659935" lon="9.3062146254488"><ele>193.75</ele><time>2026-04-25T17:05:56Z</time></trkpt><trkpt lat="45.6357280951504" lon="9.306284550132771"><ele>194.0</ele><time>2026-04-25T17:05:57Z</time></trkpt><trkpt lat="45.63561072090225" lon="9.306359183670866"><ele>193.75</ele><time>2026-04-25T17:05:58Z</time></trkpt><trkpt lat="45.63549024357753" lon="9.306434151681515"><ele>193.5</ele><time>2026-04-25T17:05:59Z</time></trkpt><trkpt lat="45.63536931199113" lon="9.306511559855286"><ele>193.25</ele><time>2026-04-25T17:06:00Z</time></trkpt><trkpt lat="45.63525050997674" lon="9.30658448524434"><ele>193.0</ele><time>2026-04-25T17:06:01Z</time></trkpt><trkpt lat="45.63513635691212" lon="9.306654761292833"><ele>193.0</ele><time>2026-04-25T17:06:02Z</time></trkpt><trkpt lat="45.635026903957346" lon="9.306723532749931"><ele>193.0</ele><time>2026-04-25T17:06:03Z</time></trkpt><trkpt lat="45.634919532101726" lon="9.306792140973807"><ele>193.0</ele><time>2026-04-25T17:06:04Z</time></trkpt><trkpt lat="45.63480940724432" lon="9.30685999171933"><ele>193.0</ele><time>2026-04-25T17:06:05Z</time></trkpt><trkpt lat="45.634700529626855" lon="9.30692663644706"><ele>193.0</ele><time>2026-04-25T17:06:06Z</time></trkpt><trkpt lat="45.63459432512481" lon="9.30699306269839"><ele>193.0</ele><time>2026-04-25T17:06:07Z</time></trkpt><trkpt lat="45.63449083821326" lon="9.3070569087329"><ele>193.0</ele><time>2026-04-25T17:06:08Z</time></trkpt><trkpt lat="45.634387652375935" lon="9.307120146335453"><ele>193.0</ele><time>2026-04-25T17:06:09Z</time></trkpt><trkpt lat="45.63427835259033" lon="9.307183299521919"><ele>193.0</ele><time>2026-04-25T17:06:10Z</time></trkpt><trkpt lat="45.63416539984113" lon="9.307250219762329"><ele>193.0</ele><time>2026-04-25T17:06:11Z</time></trkpt><trkpt lat="45.634049244241645" lon="9.307319375132941"><ele>193.0</ele><time>2026-04-25T17:06:12Z</time></trkpt><trkpt lat="45.633934306213966" lon="9.307388514478168"><ele>193.0</ele><time>2026-04-25T17:06:13Z</time></trkpt><trkpt lat="45.633820073961374" lon="9.307455357692813"><ele>193.0</ele><time>2026-04-25T17:06:14Z</time></trkpt><trkpt lat="45.6337076420198" lon="9.307521959824102"><ele>193.0</ele><time>2026-04-25T17:06:15Z</time></trkpt><trkpt lat="45.63359959686593" lon="9.307587696325259"><ele>193.0</ele><time>2026-04-25T17:06:16Z</time></trkpt><trkpt lat="45.63349989515056" lon="9.307651099830036"><ele>193.0</ele><time>2026-04-25T17:06:17Z</time></trkpt><trkpt lat="45.63340636526091" lon="9.307709356323048"><ele>192.60000000000002</ele><time>2026-04-25T17:06:18Z</time></trkpt><trkpt lat="45.633311269867995" lon="9.30776742842508"><ele>192.20000000000002</ele><time>2026-04-25T17:06:19Z</time></trkpt><trkpt lat="45.633209765387704" lon="9.307825920757269"><ele>191.8</ele><time>2026-04-25T17:06:20.001Z</time></trkpt><trkpt lat="45.633105287146996" lon="9.30788666417059"><ele>191.4</ele><time>2026-04-25T17:06:21.001Z</time></trkpt><trkpt lat="45.63299888546014" lon="9.307950303894955"><ele>191.0</ele><time>2026-04-25T17:06:22.001Z</time></trkpt><trkpt lat="45.6328902015895" lon="9.308017394700043"><ele>191.0</ele><time>2026-04-25T17:06:23.001Z</time></trkpt><trkpt lat="45.632775627818766" lon="9.308087521223943"><ele>191.0</ele><time>2026-04-25T17:06:24.001Z</time></trkpt><trkpt lat="45.63266033409319" lon="9.308161944128289"><ele>191.0</ele><time>2026-04-25T17:06:25.001Z</time></trkpt><trkpt lat="45.63254673100427" lon="9.30823759400044"><ele>191.0</ele><time>2026-04-25T17:06:26.001Z</time></trkpt><trkpt lat="45.632440765583446" lon="9.308304715041936"><ele>191.0</ele><time>2026-04-25T17:06:27.001Z</time></trkpt><trkpt lat="45.63234143480741" lon="9.308368632186205"><ele>191.0</ele><time>2026-04-25T17:06:28.001Z</time></trkpt><trkpt lat="45.632247444150735" lon="9.308426315325297"><ele>191.0</ele><time>2026-04-25T17:06:29.001Z</time></trkpt><trkpt lat="45.63215777472866" lon="9.308481586680674"><ele>191.0</ele><time>2026-04-25T17:06:30.001Z</time></trkpt><trkpt lat="45.6320652497529" lon="9.308543649153965"><ele>191.0</ele><time>2026-04-25T17:06:31.001Z</time></trkpt><trkpt lat="45.63197239937948" lon="9.308616097322524"><ele>190.66666666666666</ele><time>2026-04-25T17:06:32.001Z</time></trkpt><trkpt lat="45.63188288530777" lon="9.308693277575847"><ele>190.33333333333331</ele><time>2026-04-25T17:06:33.001Z</time></trkpt><trkpt lat="45.63179815287066" lon="9.308764610222699"><ele>190.0</ele><time>2026-04-25T17:06:34.001Z</time></trkpt><trkpt lat="45.63171773114985" lon="9.308826179009595"><ele>189.66666666666666</ele><time>2026-04-25T17:06:35.001Z</time></trkpt><trkpt lat="45.63164711106269" lon="9.308871870584682"><ele>189.33333333333334</ele><time>2026-04-25T17:06:36.001Z</time></trkpt><trkpt lat="45.631585449455386" lon="9.308898084547806"><ele>189.0</ele><time>2026-04-25T17:06:37.001Z</time></trkpt><trkpt lat="45.631473205318485" lon="9.30891082385035"><ele>189.0</ele><time>2026-04-25T17:06:39.001Z</time></trkpt><trkpt lat="45.63138493245209" lon="9.30892139189358"><ele>189.0</ele><time>2026-04-25T17:06:41.001Z</time></trkpt><trkpt lat="45.631286935441246" lon="9.309007057299"><ele>189.0</ele><time>2026-04-25T17:06:43.001Z</time></trkpt><trkpt lat="45.63122721361833" lon="9.30906262539812"><ele>189.0</ele><time>2026-04-25T17:06:44.001Z</time></trkpt><trkpt lat="45.63116389314815" lon="9.309111607543695"><ele>189.0</ele><time>2026-04-25T17:06:45.001Z</time></trkpt><trkpt lat="45.63109851809419" lon="9.30914805582233"><ele>189.0</ele><time>2026-04-25T17:06:46.001Z</time></trkpt><trkpt lat="45.63103132919192" lon="9.30917860959956"><ele>189.2</ele><time>2026-04-25T17:06:47.001Z</time></trkpt><trkpt lat="45.63095382106092" lon="9.309213454715074"><ele>189.39999999999998</ele><time>2026-04-25T17:06:48.001Z</time></trkpt><trkpt lat="45.63087127552485" lon="9.30925657441307"><ele>189.6</ele><time>2026-04-25T17:06:49.001Z</time></trkpt><trkpt lat="45.63078113794076" lon="9.309314695677854"><ele>189.8</ele><time>2026-04-25T17:06:50.001Z</time></trkpt><trkpt lat="45.63067709170671" lon="9.309387695974142"><ele>190.0</ele><time>2026-04-25T17:06:51.001Z</time></trkpt><trkpt lat="45.63055701169996" lon="9.309467120272366"><ele>190.0</ele><time>2026-04-25T17:06:52.001Z</time></trkpt><trkpt lat="45.63042428428919" lon="9.309547327550732"><ele>190.0</ele><time>2026-04-25T17:06:53.001Z</time></trkpt><trkpt lat="45.63029802419459" lon="9.309619267128504"><ele>190.0</ele><time>2026-04-25T17:06:54.001Z</time></trkpt><trkpt lat="45.63017274366461" lon="9.309691590269153"><ele>190.0</ele><time>2026-04-25T17:06:55.001Z</time></trkpt><trkpt lat="45.63005372267637" lon="9.309761808908219"><ele>189.0</ele><time>2026-04-25T17:06:56.001Z</time></trkpt><trkpt lat="45.62994028439899" lon="9.309821722273073"><ele>188.0</ele><time>2026-04-25T17:06:57.001Z</time></trkpt><trkpt lat="45.629831069358815" lon="9.309878979828708"><ele>187.0</ele><time>2026-04-25T17:06:58.002Z</time></trkpt><trkpt lat="45.62973373499118" lon="9.309934542533352"><ele>186.0</ele><time>2026-04-25T17:06:59.002Z</time></trkpt><trkpt lat="45.62962359176396" lon="9.310004392687851"><ele>186.0</ele><time>2026-04-25T17:07:00.002Z</time></trkpt><trkpt lat="45.62950571394356" lon="9.310077763414073"><ele>186.0</ele><time>2026-04-25T17:07:01.002Z</time></trkpt><trkpt lat="45.62939256354507" lon="9.310146433840606"><ele>186.0</ele><time>2026-04-25T17:07:02.002Z</time></trkpt><trkpt lat="45.62927809421546" lon="9.310213588689823"><ele>186.0</ele><time>2026-04-25T17:07:03.002Z</time></trkpt><trkpt lat="45.62914532099748" lon="9.310291770491146"><ele>185.75</ele><time>2026-04-25T17:07:04.002Z</time></trkpt><trkpt lat="45.628989775068156" lon="9.310367407569757"><ele>185.5</ele><time>2026-04-25T17:07:05.002Z</time></trkpt><trkpt lat="45.628864467562714" lon="9.310418589980166"><ele>185.25</ele><time>2026-04-25T17:07:06.002Z</time></trkpt><trkpt lat="45.62874075933298" lon="9.310458734817761"><ele>185.0</ele><time>2026-04-25T17:07:07.002Z</time></trkpt><trkpt lat="45.62863070242462" lon="9.31048649585919"><ele>184.0</ele><time>2026-04-25T17:07:08.002Z</time></trkpt><trkpt lat="45.62852863337991" lon="9.31053191976409"><ele>183.0</ele><time>2026-04-25T17:07:09.002Z</time></trkpt><trkpt lat="45.62819382189296" lon="9.310640789875215"><ele>182.66666666666666</ele><time>2026-04-25T17:07:10.002Z</time></trkpt><trkpt lat="45.6280226145388" lon="9.310676639981892"><ele>182.33333333333331</ele><time>2026-04-25T17:07:11.002Z</time></trkpt><trkpt lat="45.627847207155995" lon="9.310703660442478"><ele>182.0</ele><time>2026-04-25T17:07:12.002Z</time></trkpt><trkpt lat="45.62768222224362" lon="9.310726054811182"><ele>183.0</ele><time>2026-04-25T17:07:13.002Z</time></trkpt><trkpt lat="45.62752535970266" lon="9.310732826509453"><ele>184.0</ele><time>2026-04-25T17:07:14.002Z</time></trkpt><trkpt lat="45.62737983947096" lon="9.310734229063184"><ele>185.0</ele><time>2026-04-25T17:07:15.002Z</time></trkpt><trkpt lat="45.62723248691488" lon="9.310732303328914"><ele>185.0</ele><time>2026-04-25T17:07:16.002Z</time></trkpt><trkpt lat="45.62708577502393" lon="9.310723936334462"><ele>185.0</ele><time>2026-04-25T17:07:17.002Z</time></trkpt><trkpt lat="45.62694150320347" lon="9.310714944996501"><ele>185.0</ele><time>2026-04-25T17:07:18.002Z</time></trkpt><trkpt lat="45.626801824014436" lon="9.310708288948137"><ele>185.0</ele><time>2026-04-25T17:07:19.002Z</time></trkpt><trkpt lat="45.62666874612261" lon="9.31070079304608"><ele>185.25</ele><time>2026-04-25T17:07:20.002Z</time></trkpt><trkpt lat="45.626538900256875" lon="9.310693421489288"><ele>185.5</ele><time>2026-04-25T17:07:21.002Z</time></trkpt><trkpt lat="45.62640774811844" lon="9.310687433758504"><ele>185.75</ele><time>2026-04-25T17:07:22.002Z</time></trkpt><trkpt lat="45.62628047421246" lon="9.310678131831681"><ele>186.0</ele><time>2026-04-25T17:07:23.002Z</time></trkpt><trkpt lat="45.62615314909756" lon="9.310668297896772"><ele>186.0</ele><time>2026-04-25T17:07:24.002Z</time></trkpt><trkpt lat="45.62602571845022" lon="9.310658949915002"><ele>186.0</ele><time>2026-04-25T17:07:25.002Z</time></trkpt><trkpt lat="45.62589988735691" lon="9.310649042786475"><ele>186.0</ele><time>2026-04-25T17:07:26.002Z</time></trkpt><trkpt lat="45.625773819209414" lon="9.310637443462065"><ele>186.0</ele><time>2026-04-25T17:07:27.002Z</time></trkpt><trkpt lat="45.62564944687108" lon="9.31062444538433"><ele>186.0</ele><time>2026-04-25T17:07:28.002Z</time></trkpt><trkpt lat="45.625524019943576" lon="9.310612721355106"><ele>186.0</ele><time>2026-04-25T17:07:29.002Z</time></trkpt><trkpt lat="45.62540046979234" lon="9.310602522324894"><ele>186.0</ele><time>2026-04-25T17:07:30.002Z</time></trkpt><trkpt lat="45.625277894927095" lon="9.31059319337379"><ele>186.0</ele><time>2026-04-25T17:07:31.002Z</time></trkpt><trkpt lat="45.625152384490626" lon="9.310584536906745"><ele>186.0</ele><time>2026-04-25T17:07:32.002Z</time></trkpt><trkpt lat="45.62502860716997" lon="9.310575929841248"><ele>186.0</ele><time>2026-04-25T17:07:33.002Z</time></trkpt><trkpt lat="45.62490425703836" lon="9.310565711432037"><ele>186.0</ele><time>2026-04-25T17:07:34.002Z</time></trkpt><trkpt lat="45.624780626298566" lon="9.310554400546277"><ele>186.0</ele><time>2026-04-25T17:07:35.002Z</time></trkpt><trkpt lat="45.62466123929798" lon="9.310545854807225"><ele>186.0</ele><time>2026-04-25T17:07:36.003Z</time></trkpt><trkpt lat="45.624544480266835" lon="9.310540436237519"><ele>186.0</ele><time>2026-04-25T17:07:37.003Z</time></trkpt><trkpt lat="45.62442803666483" lon="9.310534266798031"><ele>186.0</ele><time>2026-04-25T17:07:38.003Z</time></trkpt><trkpt lat="45.62431255046184" lon="9.310528025148868"><ele>186.0</ele><time>2026-04-25T17:07:39.003Z</time></trkpt><trkpt lat="45.624199812302" lon="9.310522172416208"><ele>186.0</ele><time>2026-04-25T17:07:39.999Z</time></trkpt><trkpt lat="45.624087510134146" lon="9.310516752614884"><ele>186.0</ele><time>2026-04-25T17:07:40.999Z</time></trkpt><trkpt lat="45.6239745034563" lon="9.310510680354747"><ele>186.0</ele><time>2026-04-25T17:07:41.999Z</time></trkpt><trkpt lat="45.62385961469031" lon="9.310505100776219"><ele>186.0</ele><time>2026-04-25T17:07:42.999Z</time></trkpt><trkpt lat="45.62374446447454" lon="9.310501086491707"><ele>185.75</ele><time>2026-04-25T17:07:43.999Z</time></trkpt><trkpt lat="45.62363000339541" lon="9.310498351760563"><ele>185.5</ele><time>2026-04-25T17:07:44.999Z</time></trkpt><trkpt lat="45.6235169558166" lon="9.310495975447322"><ele>185.25</ele><time>2026-04-25T17:07:45.999Z</time></trkpt><trkpt lat="45.623400844762244" lon="9.310490616695228"><ele>185.0</ele><time>2026-04-25T17:07:46.999Z</time></trkpt><trkpt lat="45.62328419461663" lon="9.310481373242403"><ele>185.0</ele><time>2026-04-25T17:07:47.999Z</time></trkpt><trkpt lat="45.62316462174277" lon="9.310473180971865"><ele>185.0</ele><time>2026-04-25T17:07:48.999Z</time></trkpt><trkpt lat="45.623043820374924" lon="9.310464903477875"><ele>185.0</ele><time>2026-04-25T17:07:49.999Z</time></trkpt><trkpt lat="45.6229188113056" lon="9.31045743673606"><ele>185.0</ele><time>2026-04-25T17:07:50.999Z</time></trkpt><trkpt lat="45.62279038395771" lon="9.310452665763565"><ele>184.8</ele><time>2026-04-25T17:07:51.999Z</time></trkpt><trkpt lat="45.62266620055199" lon="9.310445229802445"><ele>184.6</ele><time>2026-04-25T17:07:52.999Z</time></trkpt><trkpt lat="45.62255126645942" lon="9.310429102708914"><ele>184.39999999999998</ele><time>2026-04-25T17:07:53.999Z</time></trkpt><trkpt lat="45.62245457447341" lon="9.310403970022483"><ele>184.2</ele><time>2026-04-25T17:07:54.999Z</time></trkpt><trkpt lat="45.62237999294361" lon="9.310365588477524"><ele>184.0</ele><time>2026-04-25T17:07:55.999Z</time></trkpt><trkpt lat="45.62227317048714" lon="9.310368280269278"><ele>184.0</ele><time>2026-04-25T17:07:57.999Z</time></trkpt><trkpt lat="45.62219124687929" lon="9.310363083040148"><ele>184.0</ele><time>2026-04-25T17:09:57.001Z</time></trkpt><trkpt lat="45.62211516620543" lon="9.310393200586665"><ele>184.0</ele><time>2026-04-25T17:09:59.001Z</time></trkpt><trkpt lat="45.62198197424479" lon="9.31041450093183"><ele>184.0</ele><time>2026-04-25T17:10:01.001Z</time></trkpt><trkpt lat="45.621890376507245" lon="9.310416169585604"><ele>184.0</ele><time>2026-04-25T17:10:02.001Z</time></trkpt><trkpt lat="45.62178879138566" lon="9.310411772066269"><ele>184.0</ele><time>2026-04-25T17:10:03.001Z</time></trkpt><trkpt lat="45.62166902647265" lon="9.310402927154575"><ele>184.0</ele><time>2026-04-25T17:10:04.001Z</time></trkpt><trkpt lat="45.62154206065767" lon="9.310394215373528"><ele>184.0</ele><time>2026-04-25T17:10:05.001Z</time></trkpt><trkpt lat="45.621421168469936" lon="9.310385471678211"><ele>184.0</ele><time>2026-04-25T17:10:06.001Z</time></trkpt><trkpt lat="45.62129444866552" lon="9.31037754097131"><ele>184.0</ele><time>2026-04-25T17:10:07.001Z</time></trkpt><trkpt lat="45.62116727506148" lon="9.310369902002659"><ele>184.0</ele><time>2026-04-25T17:10:08.001Z</time></trkpt><trkpt lat="45.621049285942874" lon="9.310363538278187"><ele>184.0</ele><time>2026-04-25T17:10:09.001Z</time></trkpt><trkpt lat="45.620933180734596" lon="9.310356682875929"><ele>184.0</ele><time>2026-04-25T17:10:10.001Z</time></trkpt><trkpt lat="45.620833296511364" lon="9.310342166069276"><ele>184.0</ele><time>2026-04-25T17:10:11.001Z</time></trkpt><trkpt lat="45.62074224613465" lon="9.31032556868714"><ele>184.0</ele><time>2026-04-25T17:10:12.001Z</time></trkpt><trkpt lat="45.62067968637764" lon="9.310298487273963"><ele>184.0</ele><time>2026-04-25T17:10:13.001Z</time></trkpt><trkpt lat="45.62058105387077" lon="9.31021962542236"><ele>184.0</ele><time>2026-04-25T17:10:15.001Z</time></trkpt><trkpt lat="45.620513782617955" lon="9.310187610137417"><ele>184.0</ele><time>2026-04-25T17:10:16.001Z</time></trkpt><trkpt lat="45.62042992975066" lon="9.31019092040301"><ele>184.0</ele><time>2026-04-25T17:10:17.001Z</time></trkpt><trkpt lat="45.62033606151481" lon="9.31021823267104"><ele>183.75</ele><time>2026-04-25T17:10:18.001Z</time></trkpt><trkpt lat="45.62022785089105" lon="9.310254599471573"><ele>183.5</ele><time>2026-04-25T17:10:19.001Z</time></trkpt><trkpt lat="45.62011779228614" lon="9.310280608295582"><ele>183.25</ele><time>2026-04-25T17:10:20.001Z</time></trkpt><trkpt lat="45.620001211629514" lon="9.310298298947966"><ele>183.0</ele><time>2026-04-25T17:10:21.001Z</time></trkpt><trkpt lat="45.61988808138744" lon="9.310308831972149"><ele>183.0</ele><time>2026-04-25T17:10:22.001Z</time></trkpt><trkpt lat="45.61977376393793" lon="9.31032958071505"><ele>183.0</ele><time>2026-04-25T17:10:23.001Z</time></trkpt><trkpt lat="45.61966802039095" lon="9.310348753720886"><ele>183.0</ele><time>2026-04-25T17:10:24.001Z</time></trkpt><trkpt lat="45.61954931616358" lon="9.310377123648857"><ele>183.0</ele><time>2026-04-25T17:10:25.001Z</time></trkpt><trkpt lat="45.619430744355036" lon="9.310413001977434"><ele>183.0</ele><time>2026-04-25T17:10:26.001Z</time></trkpt><trkpt lat="45.619304852923555" lon="9.310461920882382"><ele>183.0</ele><time>2026-04-25T17:10:27.001Z</time></trkpt><trkpt lat="45.61918014544159" lon="9.31051948028177"><ele>183.0</ele><time>2026-04-25T17:10:28.001Z</time></trkpt><trkpt lat="45.619055797172834" lon="9.310586610453797"><ele>183.0</ele><time>2026-04-25T17:10:29.001Z</time></trkpt><trkpt lat="45.61894291618944" lon="9.310655507198565"><ele>183.0</ele><time>2026-04-25T17:10:30.001Z</time></trkpt><trkpt lat="45.61883195662487" lon="9.310730576585545"><ele>183.0</ele><time>2026-04-25T17:10:31.001Z</time></trkpt><trkpt lat="45.61872359842652" lon="9.310821336600117"><ele>183.0</ele><time>2026-04-25T17:10:32.001Z</time></trkpt><trkpt lat="45.618610368005704" lon="9.310920455200225"><ele>183.0</ele><time>2026-04-25T17:10:33.001Z</time></trkpt><trkpt lat="45.6184991316175" lon="9.311032537025802"><ele>182.33333333333334</ele><time>2026-04-25T17:10:34.001Z</time></trkpt><trkpt lat="45.61838443802519" lon="9.311162282636566"><ele>181.66666666666669</ele><time>2026-04-25T17:10:35.002Z</time></trkpt><trkpt lat="45.61827201683465" lon="9.31130949975689"><ele>181.0</ele><time>2026-04-25T17:10:36.002Z</time></trkpt><trkpt lat="45.61816019110936" lon="9.311470392361295"><ele>181.0</ele><time>2026-04-25T17:10:37.002Z</time></trkpt><trkpt lat="45.618055582271666" lon="9.311641667903086"><ele>181.0</ele><time>2026-04-25T17:10:38.002Z</time></trkpt><trkpt lat="45.61795442028045" lon="9.31181617387307"><ele>181.0</ele><time>2026-04-25T17:10:39.002Z</time></trkpt><trkpt lat="45.617857877819866" lon="9.311984954814509"><ele>180.66666666666669</ele><time>2026-04-25T17:10:40.002Z</time></trkpt><trkpt lat="45.61776092287736" lon="9.31215135745566"><ele>180.33333333333334</ele><time>2026-04-25T17:10:41.002Z</time></trkpt><trkpt lat="45.61766277047565" lon="9.312319626294112"><ele>180.0</ele><time>2026-04-25T17:10:42.002Z</time></trkpt><trkpt lat="45.6175689542711" lon="9.312487812474254"><ele>180.75</ele><time>2026-04-25T17:10:43.002Z</time></trkpt><trkpt lat="45.61747755976669" lon="9.312655979282336"><ele>181.5</ele><time>2026-04-25T17:10:44.002Z</time></trkpt><trkpt lat="45.617387088391624" lon="9.3128210686232"><ele>182.25</ele><time>2026-04-25T17:10:45.002Z</time></trkpt><trkpt lat="45.617297351981875" lon="9.312981702941578"><ele>183.0</ele><time>2026-04-25T17:10:46.002Z</time></trkpt><trkpt lat="45.61720884578393" lon="9.31313923205681"><ele>183.0</ele><time>2026-04-25T17:10:47.002Z</time></trkpt><trkpt lat="45.61712103649871" lon="9.313299212789929"><ele>183.0</ele><time>2026-04-25T17:10:48.002Z</time></trkpt><trkpt lat="45.6170333181022" lon="9.313461888961562"><ele>183.0</ele><time>2026-04-25T17:10:49.002Z</time></trkpt><trkpt lat="45.61694327594283" lon="9.313625220593636"><ele>183.0</ele><time>2026-04-25T17:10:50.002Z</time></trkpt><trkpt lat="45.616849410719176" lon="9.313792538391233"><ele>182.75</ele><time>2026-04-25T17:10:51.002Z</time></trkpt><trkpt lat="45.616755871802255" lon="9.313959949964996"><ele>182.5</ele><time>2026-04-25T17:10:52.002Z</time></trkpt><trkpt lat="45.61666359020214" lon="9.314126404791946"><ele>182.25</ele><time>2026-04-25T17:10:53.002Z</time></trkpt><trkpt lat="45.61657028392168" lon="9.314293377260976"><ele>182.0</ele><time>2026-04-25T17:10:54.002Z</time></trkpt><trkpt lat="45.6164773329887" lon="9.314460080568523"><ele>182.0</ele><time>2026-04-25T17:10:55.002Z</time></trkpt><trkpt lat="45.61638016132866" lon="9.314631286329947"><ele>182.0</ele><time>2026-04-25T17:10:56.002Z</time></trkpt><trkpt lat="45.616286817125946" lon="9.31480096915358"><ele>182.0</ele><time>2026-04-25T17:10:57.002Z</time></trkpt><trkpt lat="45.61619251878166" lon="9.31497362041036"><ele>184.0</ele><time>2026-04-25T17:10:58.002Z</time></trkpt><trkpt lat="45.61609835834703" lon="9.31514805697133"><ele>186.0</ele><time>2026-04-25T17:10:59.002Z</time></trkpt><trkpt lat="45.61600244649052" lon="9.315322723005732"><ele>188.0</ele><time>2026-04-25T17:11:00.002Z</time></trkpt><trkpt lat="45.61590761085617" lon="9.315491790277227"><ele>186.75</ele><time>2026-04-25T17:11:01.002Z</time></trkpt><trkpt lat="45.615812560129655" lon="9.315660929006848"><ele>185.5</ele><time>2026-04-25T17:11:02.002Z</time></trkpt><trkpt lat="45.61571977227321" lon="9.315826682352716"><ele>184.25</ele><time>2026-04-25T17:11:03.002Z</time></trkpt><trkpt lat="45.61562732135004" lon="9.315991555103407"><ele>183.0</ele><time>2026-04-25T17:11:04.002Z</time></trkpt><trkpt lat="45.61553801470879" lon="9.31615458183526"><ele>183.0</ele><time>2026-04-25T17:11:05.002Z</time></trkpt><trkpt lat="45.61544970585474" lon="9.316314474310893"><ele>183.0</ele><time>2026-04-25T17:11:06.002Z</time></trkpt><trkpt lat="45.61536269866742" lon="9.31647227011154"><ele>183.0</ele><time>2026-04-25T17:11:07.002Z</time></trkpt><trkpt lat="45.61527542538003" lon="9.3166300235583"><ele>183.0</ele><time>2026-04-25T17:11:08.002Z</time></trkpt><trkpt lat="45.61518906353963" lon="9.31678672447613"><ele>183.0</ele><time>2026-04-25T17:11:09.002Z</time></trkpt><trkpt lat="45.615103527923765" lon="9.316938282922475"><ele>183.0</ele><time>2026-04-25T17:11:10.002Z</time></trkpt><trkpt lat="45.6150190364315" lon="9.317092522467322"><ele>183.0</ele><time>2026-04-25T17:11:11.002Z</time></trkpt><trkpt lat="45.61493416732167" lon="9.317248500917918"><ele>183.0</ele><time>2026-04-25T17:11:12.002Z</time></trkpt><trkpt lat="45.614845060232575" lon="9.317408217691932"><ele>183.0</ele><time>2026-04-25T17:11:13.002Z</time></trkpt><trkpt lat="45.614756914182614" lon="9.317567617418588"><ele>183.0</ele><time>2026-04-25T17:11:14.002Z</time></trkpt><trkpt lat="45.61466798115508" lon="9.317726907769808"><ele>183.0</ele><time>2026-04-25T17:11:15.002Z</time></trkpt><trkpt lat="45.61457607506022" lon="9.317887026160728"><ele>183.0</ele><time>2026-04-25T17:11:16.003Z</time></trkpt><trkpt lat="45.6144856839991" lon="9.31805231506484"><ele>183.0</ele><time>2026-04-25T17:11:17.003Z</time></trkpt><trkpt lat="45.61439412709549" lon="9.318221302410807"><ele>183.0</ele><time>2026-04-25T17:11:18.003Z</time></trkpt><trkpt lat="45.61430144338151" lon="9.318390094390033"><ele>183.0</ele><time>2026-04-25T17:11:19.003Z</time></trkpt><trkpt lat="45.614210355638136" lon="9.318551923828656"><ele>183.0</ele><time>2026-04-25T17:11:20.003Z</time></trkpt><trkpt lat="45.614121853958956" lon="9.318709340024565"><ele>183.0</ele><time>2026-04-25T17:11:21.003Z</time></trkpt><trkpt lat="45.61403528364678" lon="9.318861718670712"><ele>183.0</ele><time>2026-04-25T17:11:22.003Z</time></trkpt><trkpt lat="45.61395298790878" lon="9.319006663293713"><ele>183.0</ele><time>2026-04-25T17:11:23.003Z</time></trkpt><trkpt lat="45.613873361902336" lon="9.319142968884771"><ele>183.0</ele><time>2026-04-25T17:11:24.003Z</time></trkpt><trkpt lat="45.61379681506376" lon="9.319267112605644"><ele>182.66666666666666</ele><time>2026-04-25T17:11:25.003Z</time></trkpt><trkpt lat="45.61372786515286" lon="9.319371618293957"><ele>182.33333333333334</ele><time>2026-04-25T17:11:26.003Z</time></trkpt><trkpt lat="45.613668122255106" lon="9.319451664949513"><ele>182.0</ele><time>2026-04-25T17:11:27.003Z</time></trkpt><trkpt lat="45.613616194817105" lon="9.319511361165757"><ele>181.66666666666669</ele><time>2026-04-25T17:11:28.003Z</time></trkpt><trkpt lat="45.61354960728611" lon="9.319592129284759"><ele>181.33333333333334</ele><time>2026-04-25T17:11:30.003Z</time></trkpt><trkpt lat="45.61348431910496" lon="9.319645903064485"><ele>181.0</ele><time>2026-04-25T17:11:32.003Z</time></trkpt><trkpt lat="45.61337854882294" lon="9.319678102732711"><ele>180.83333333333334</ele><time>2026-04-25T17:11:34.003Z</time></trkpt><trkpt lat="45.61332118787355" lon="9.319718846694117"><ele>180.66666666666669</ele><time>2026-04-25T17:11:35.003Z</time></trkpt><trkpt lat="45.61326434239844" lon="9.319788241814583"><ele>180.5</ele><time>2026-04-25T17:11:36.003Z</time></trkpt><trkpt lat="45.613217855375844" lon="9.31989519363833"><ele>180.33333333333334</ele><time>2026-04-25T17:11:37.003Z</time></trkpt><trkpt lat="45.6131877332111" lon="9.320019880289802"><ele>180.16666666666666</ele><time>2026-04-25T17:11:38.003Z</time></trkpt><trkpt lat="45.61319597768821" lon="9.32014952658632"><ele>180.0</ele><time>2026-04-25T17:11:39.003Z</time></trkpt><trkpt lat="45.61315849133281" lon="9.320282408348003"><ele>180.0</ele><time>2026-04-25T17:11:40.003Z</time></trkpt><trkpt lat="45.61312313038435" lon="9.32042195537825"><ele>180.0</ele><time>2026-04-25T17:11:41.003Z</time></trkpt><trkpt lat="45.61305726705761" lon="9.32056612607796"><ele>180.0</ele><time>2026-04-25T17:11:42.003Z</time></trkpt><trkpt lat="45.61298455761936" lon="9.320710950526749"><ele>180.0</ele><time>2026-04-25T17:11:43.003Z</time></trkpt><trkpt lat="45.61289911199447" lon="9.32086413165861"><ele>180.25</ele><time>2026-04-25T17:11:44.003Z</time></trkpt><trkpt lat="45.612817632235576" lon="9.321010522374605"><ele>180.5</ele><time>2026-04-25T17:11:45.003Z</time></trkpt><trkpt lat="45.61273476385197" lon="9.321159243474062"><ele>180.75</ele><time>2026-04-25T17:11:46.003Z</time></trkpt><trkpt lat="45.612647617460645" lon="9.321320733679178"><ele>181.0</ele><time>2026-04-25T17:11:47.003Z</time></trkpt><trkpt lat="45.61255393352836" lon="9.321501384145547"><ele>181.33333333333334</ele><time>2026-04-25T17:11:48.003Z</time></trkpt><trkpt lat="45.612452726455906" lon="9.321695555915587"><ele>181.66666666666666</ele><time>2026-04-25T17:11:49.003Z</time></trkpt><trkpt lat="45.612333891824235" lon="9.321914607689285"><ele>182.0</ele><time>2026-04-25T17:11:50.003Z</time></trkpt><trkpt lat="45.6122015529279" lon="9.322150783971537"><ele>182.0</ele><time>2026-04-25T17:11:51.003Z</time></trkpt><trkpt lat="45.612056800744035" lon="9.32241087663275"><ele>182.0</ele><time>2026-04-25T17:11:52Z</time></trkpt><trkpt lat="45.61190323851284" lon="9.322688475406041"><ele>182.0</ele><time>2026-04-25T17:11:53Z</time></trkpt><trkpt lat="45.6117604196395" lon="9.322948578549767"><ele>182.0</ele><time>2026-04-25T17:11:54Z</time></trkpt><trkpt lat="45.61161363209383" lon="9.323208992753916"><ele>182.0</ele><time>2026-04-25T17:11:55Z</time></trkpt><trkpt lat="45.61145835517878" lon="9.323485943532244"><ele>182.0</ele><time>2026-04-25T17:11:56Z</time></trkpt><trkpt lat="45.611290398661296" lon="9.323783064415919"><ele>182.5</ele><time>2026-04-25T17:11:57Z</time></trkpt><trkpt lat="45.611120904148855" lon="9.324085571516635"><ele>183.0</ele><time>2026-04-25T17:11:58Z</time></trkpt><trkpt lat="45.610967135408735" lon="9.324357146934862"><ele>183.0</ele><time>2026-04-25T17:11:59Z</time></trkpt><trkpt lat="45.610819216789125" lon="9.324614625845225"><ele>183.0</ele><time>2026-04-25T17:12:00Z</time></trkpt><trkpt lat="45.61068043487449" lon="9.324859372800217"><ele>183.33333333333334</ele><time>2026-04-25T17:12:01Z</time></trkpt><trkpt lat="45.61054863994056" lon="9.325092313986197"><ele>183.66666666666669</ele><time>2026-04-25T17:12:02Z</time></trkpt><trkpt lat="45.61041824901385" lon="9.325321096719362"><ele>184.0</ele><time>2026-04-25T17:12:03Z</time></trkpt><trkpt lat="45.610288533577865" lon="9.325553829472282"><ele>183.33333333333334</ele><time>2026-04-25T17:12:04Z</time></trkpt><trkpt lat="45.610164637490186" lon="9.325777774879999"><ele>182.66666666666666</ele><time>2026-04-25T17:12:05Z</time></trkpt><trkpt lat="45.61004397760373" lon="9.32599439276285"><ele>182.0</ele><time>2026-04-25T17:12:06Z</time></trkpt><trkpt lat="45.60992544219639" lon="9.326209726363688"><ele>181.33333333333331</ele><time>2026-04-25T17:12:07Z</time></trkpt><trkpt lat="45.60980580550125" lon="9.326425423223114"><ele>180.66666666666666</ele><time>2026-04-25T17:12:08Z</time></trkpt><trkpt lat="45.60968690698435" lon="9.326642219697401"><ele>180.0</ele><time>2026-04-25T17:12:09Z</time></trkpt><trkpt lat="45.60956935438091" lon="9.326859056904555"><ele>180.33333333333334</ele><time>2026-04-25T17:12:10Z</time></trkpt><trkpt lat="45.60945620222693" lon="9.327067214238706"><ele>180.66666666666669</ele><time>2026-04-25T17:12:11Z</time></trkpt><trkpt lat="45.60934638761095" lon="9.327265423591287"><ele>181.0</ele><time>2026-04-25T17:12:12Z</time></trkpt><trkpt lat="45.60923210548982" lon="9.327467313185517"><ele>181.33333333333334</ele><time>2026-04-25T17:12:13Z</time></trkpt><trkpt lat="45.609120739648255" lon="9.327667245363632"><ele>181.66666666666666</ele><time>2026-04-25T17:12:14Z</time></trkpt><trkpt lat="45.609013225323025" lon="9.327864726538532"><ele>182.0</ele><time>2026-04-25T17:12:15Z</time></trkpt><trkpt lat="45.60891287406433" lon="9.328056147727958"><ele>182.0</ele><time>2026-04-25T17:12:16Z</time></trkpt><trkpt lat="45.60882205463021" lon="9.328246331504719"><ele>182.0</ele><time>2026-04-25T17:12:17Z</time></trkpt><trkpt lat="45.60874134153245" lon="9.328435224993623"><ele>182.0</ele><time>2026-04-25T17:12:18Z</time></trkpt><trkpt lat="45.60866758409194" lon="9.328622824686244"><ele>182.0</ele><time>2026-04-25T17:12:19Z</time></trkpt><trkpt lat="45.60859962705793" lon="9.32881032960201"><ele>182.0</ele><time>2026-04-25T17:12:20Z</time></trkpt><trkpt lat="45.60853726554984" lon="9.328995344946032"><ele>182.0</ele><time>2026-04-25T17:12:21Z</time></trkpt><trkpt lat="45.60848314911857" lon="9.329169797260748"><ele>182.0</ele><time>2026-04-25T17:12:22Z</time></trkpt><trkpt lat="45.60842958456137" lon="9.329327934539915"><ele>182.0</ele><time>2026-04-25T17:12:23Z</time></trkpt><trkpt lat="45.60837577410389" lon="9.329468320352044"><ele>182.0</ele><time>2026-04-25T17:12:24Z</time></trkpt><trkpt lat="45.60831982110995" lon="9.329591239450968"><ele>182.0</ele><time>2026-04-25T17:12:25Z</time></trkpt><trkpt lat="45.60825825507421" lon="9.329694159175235"><ele>182.0</ele><time>2026-04-25T17:12:26Z</time></trkpt><trkpt lat="45.60818425293844" lon="9.329793932188137"><ele>182.0</ele><time>2026-04-25T17:12:27Z</time></trkpt><trkpt lat="45.608106526412435" lon="9.329913230971025"><ele>182.25</ele><time>2026-04-25T17:12:28Z</time></trkpt><trkpt lat="45.60801133705888" lon="9.330015445443575"><ele>182.5</ele><time>2026-04-25T17:12:29Z</time></trkpt><trkpt lat="45.60787016546095" lon="9.330041476949763"><ele>182.75</ele><time>2026-04-25T17:12:30Z</time></trkpt><trkpt lat="45.60774228062626" lon="9.330050451228745"><ele>183.0</ele><time>2026-04-25T17:12:31.001Z</time></trkpt><trkpt lat="45.607603228445484" lon="9.33001117577445"><ele>183.33333333333334</ele><time>2026-04-25T17:12:32.001Z</time></trkpt><trkpt lat="45.607456172257876" lon="9.329941580806741"><ele>183.66666666666669</ele><time>2026-04-25T17:12:33.001Z</time></trkpt><trkpt lat="45.60730158033803" lon="9.329849372620188"><ele>184.0</ele><time>2026-04-25T17:12:34.001Z</time></trkpt><trkpt lat="45.607138628425965" lon="9.329746864902464"><ele>182.33333333333334</ele><time>2026-04-25T17:12:35.001Z</time></trkpt><trkpt lat="45.60697697752296" lon="9.329645175702993"><ele>180.66666666666666</ele><time>2026-04-25T17:12:36.001Z</time></trkpt><trkpt lat="45.606816739639456" lon="9.329543454600964"><ele>179.0</ele><time>2026-04-25T17:12:37.001Z</time></trkpt><trkpt lat="45.60664839595275" lon="9.329429605751486"><ele>179.0</ele><time>2026-04-25T17:12:38.001Z</time></trkpt><trkpt lat="45.60647760208965" lon="9.329293342163176"><ele>179.0</ele><time>2026-04-25T17:12:39.001Z</time></trkpt><trkpt lat="45.606309806045076" lon="9.329139296296287"><ele>179.0</ele><time>2026-04-25T17:12:40.001Z</time></trkpt><trkpt lat="45.60616781645316" lon="9.328956504202848"><ele>178.33333333333331</ele><time>2026-04-25T17:12:41.001Z</time></trkpt><trkpt lat="45.60602268442888" lon="9.32878127695135"><ele>177.66666666666666</ele><time>2026-04-25T17:12:42.001Z</time></trkpt><trkpt lat="45.60587288283642" lon="9.328611568417685"><ele>177.0</ele><time>2026-04-25T17:12:43.001Z</time></trkpt><trkpt lat="45.60574258678072" lon="9.32840363194396"><ele>177.0</ele><time>2026-04-25T17:12:44.001Z</time></trkpt><trkpt lat="45.60561881490974" lon="9.328174377268814"><ele>177.0</ele><time>2026-04-25T17:12:45.001Z</time></trkpt><trkpt lat="45.60550406431988" lon="9.327925101969212"><ele>177.0</ele><time>2026-04-25T17:12:46.001Z</time></trkpt><trkpt lat="45.605399981996236" lon="9.32766319144347"><ele>177.0</ele><time>2026-04-25T17:12:47.001Z</time></trkpt><trkpt lat="45.605310772092864" lon="9.32738166775436"><ele>177.0</ele><time>2026-04-25T17:12:48.001Z</time></trkpt><trkpt lat="45.60524449498003" lon="9.327084923654928"><ele>177.0</ele><time>2026-04-25T17:12:49.001Z</time></trkpt><trkpt lat="45.605163082836036" lon="9.326799871356494"><ele>177.0</ele><time>2026-04-25T17:12:50.001Z</time></trkpt><trkpt lat="45.60508270010544" lon="9.326516173919273"><ele>177.0</ele><time>2026-04-25T17:12:51.001Z</time></trkpt><trkpt lat="45.605007091403984" lon="9.326249856453822"><ele>177.0</ele><time>2026-04-25T17:12:52.001Z</time></trkpt><trkpt lat="45.60493078981562" lon="9.325978828971316"><ele>177.0</ele><time>2026-04-25T17:12:53.001Z</time></trkpt><trkpt lat="45.604855569843494" lon="9.325708749142093"><ele>177.0</ele><time>2026-04-25T17:12:54.001Z</time></trkpt><trkpt lat="45.60478082720018" lon="9.325443375986394"><ele>177.0</ele><time>2026-04-25T17:12:55.001Z</time></trkpt><trkpt lat="45.604704864816746" lon="9.325175550514565"><ele>177.0</ele><time>2026-04-25T17:12:56.001Z</time></trkpt><trkpt lat="45.604632519764394" lon="9.324907151004593"><ele>177.0</ele><time>2026-04-25T17:12:57.001Z</time></trkpt><trkpt lat="45.60455787572046" lon="9.324635456732548"><ele>177.0</ele><time>2026-04-25T17:12:58.001Z</time></trkpt><trkpt lat="45.60448442704865" lon="9.324362294330468"><ele>177.0</ele><time>2026-04-25T17:12:59.001Z</time></trkpt><trkpt lat="45.60440960650679" lon="9.324088922000767"><ele>177.0</ele><time>2026-04-25T17:13:00.001Z</time></trkpt><trkpt lat="45.60433263561653" lon="9.3238078115911"><ele>177.0</ele><time>2026-04-25T17:13:01.001Z</time></trkpt><trkpt lat="45.60425484550634" lon="9.323525157375213"><ele>177.33333333333334</ele><time>2026-04-25T17:13:02.001Z</time></trkpt><trkpt lat="45.604176173159146" lon="9.323242830833728"><ele>177.66666666666669</ele><time>2026-04-25T17:13:03.001Z</time></trkpt><trkpt lat="45.604092450758316" lon="9.322944925661742"><ele>178.0</ele><time>2026-04-25T17:13:04.001Z</time></trkpt><trkpt lat="45.60400594264614" lon="9.32263987376446"><ele>178.5</ele><time>2026-04-25T17:13:05.001Z</time></trkpt><trkpt lat="45.60392085872397" lon="9.322340936284695"><ele>179.0</ele><time>2026-04-25T17:13:06.001Z</time></trkpt><trkpt lat="45.60383493866718" lon="9.322043039417512"><ele>179.0</ele><time>2026-04-25T17:13:07.001Z</time></trkpt><trkpt lat="45.603748283803604" lon="9.321751097132946"><ele>179.0</ele><time>2026-04-25T17:13:08.002Z</time></trkpt><trkpt lat="45.60365947841244" lon="9.321460522336595"><ele>179.0</ele><time>2026-04-25T17:13:09.002Z</time></trkpt><trkpt lat="45.603569587616676" lon="9.321174071908004"><ele>178.33333333333331</ele><time>2026-04-25T17:13:10.002Z</time></trkpt><trkpt lat="45.603474056522614" lon="9.32089035738059"><ele>177.66666666666666</ele><time>2026-04-25T17:13:11.002Z</time></trkpt><trkpt lat="45.603372671330554" lon="9.320617174271739"><ele>177.0</ele><time>2026-04-25T17:13:12.002Z</time></trkpt><trkpt lat="45.603252609089125" lon="9.320357427431023"><ele>177.0</ele><time>2026-04-25T17:13:13.002Z</time></trkpt><trkpt lat="45.60311718358172" lon="9.320105095960104"><ele>177.0</ele><time>2026-04-25T17:13:14.002Z</time></trkpt><trkpt lat="45.60296742104405" lon="9.319863243149362"><ele>177.0</ele><time>2026-04-25T17:13:15.002Z</time></trkpt><trkpt lat="45.60280584682834" lon="9.319636129845627"><ele>175.0</ele><time>2026-04-25T17:13:16.002Z</time></trkpt><trkpt lat="45.602630841238145" lon="9.319429469577106"><ele>173.0</ele><time>2026-04-25T17:13:17.002Z</time></trkpt><trkpt lat="45.60244469793502" lon="9.319239525959041"><ele>173.0</ele><time>2026-04-25T17:13:18.002Z</time></trkpt><trkpt lat="45.60224798388038" lon="9.319069381517485"><ele>173.0</ele><time>2026-04-25T17:13:19.002Z</time></trkpt><trkpt lat="45.60203920190762" lon="9.318908574452976"><ele>174.5</ele><time>2026-04-25T17:13:20.002Z</time></trkpt><trkpt lat="45.601828812603536" lon="9.318750873286621"><ele>176.0</ele><time>2026-04-25T17:13:21.002Z</time></trkpt><trkpt lat="45.60162332705367" lon="9.31858835883604"><ele>176.0</ele><time>2026-04-25T17:13:22.002Z</time></trkpt><trkpt lat="45.60140693315056" lon="9.318418199344352"><ele>176.0</ele><time>2026-04-25T17:13:23.002Z</time></trkpt><trkpt lat="45.6011936951439" lon="9.318252595364385"><ele>175.0</ele><time>2026-04-25T17:13:24.002Z</time></trkpt><trkpt lat="45.60097600966669" lon="9.318085536709678"><ele>174.0</ele><time>2026-04-25T17:13:25.002Z</time></trkpt><trkpt lat="45.60074758787881" lon="9.317908593227878"><ele>174.0</ele><time>2026-04-25T17:13:26.002Z</time></trkpt><trkpt lat="45.60050444154359" lon="9.317723582336912"><ele>174.0</ele><time>2026-04-25T17:13:27.002Z</time></trkpt><trkpt lat="45.600254387769205" lon="9.317530025194658"><ele>174.0</ele><time>2026-04-25T17:13:28.002Z</time></trkpt><trkpt lat="45.599996475837905" lon="9.317329348482616"><ele>174.0</ele><time>2026-04-25T17:13:29.002Z</time></trkpt><trkpt lat="45.59972925033606" lon="9.31712172573142"><ele>173.0</ele><time>2026-04-25T17:13:30.002Z</time></trkpt><trkpt lat="45.599457833291254" lon="9.316908876024122"><ele>172.0</ele><time>2026-04-25T17:13:31.002Z</time></trkpt><trkpt lat="45.59918818000106" lon="9.31669805588716"><ele>172.0</ele><time>2026-04-25T17:13:32.002Z</time></trkpt><trkpt lat="45.59892674748684" lon="9.316493669937698"><ele>172.0</ele><time>2026-04-25T17:13:33.002Z</time></trkpt><trkpt lat="45.59867779080006" lon="9.316297641931016"><ele>172.5</ele><time>2026-04-25T17:13:34.002Z</time></trkpt><trkpt lat="45.59843943255317" lon="9.316110350950678"><ele>173.0</ele><time>2026-04-25T17:13:35.002Z</time></trkpt><trkpt lat="45.59820856458972" lon="9.31592231050526"><ele>173.0</ele><time>2026-04-25T17:13:36.002Z</time></trkpt><trkpt lat="45.59798018304908" lon="9.315733884118464"><ele>173.0</ele><time>2026-04-25T17:13:37.002Z</time></trkpt><trkpt lat="45.59775871526256" lon="9.315557638285503"><ele>173.0</ele><time>2026-04-25T17:13:38.002Z</time></trkpt><trkpt lat="45.5975361518114" lon="9.315370890654794"><ele>173.0</ele><time>2026-04-25T17:13:39.002Z</time></trkpt><trkpt lat="45.59732205095753" lon="9.31518014000828"><ele>173.0</ele><time>2026-04-25T17:13:40.002Z</time></trkpt><trkpt lat="45.59711325027358" lon="9.314977432807147"><ele>173.0</ele><time>2026-04-25T17:13:41.002Z</time></trkpt><trkpt lat="45.59691054731074" lon="9.314754158068698"><ele>171.5</ele><time>2026-04-25T17:13:42.002Z</time></trkpt><trkpt lat="45.59671385234364" lon="9.314501049313678"><ele>170.0</ele><time>2026-04-25T17:13:43.002Z</time></trkpt><trkpt lat="45.59651908011162" lon="9.314236728571766"><ele>170.0</ele><time>2026-04-25T17:13:44.002Z</time></trkpt><trkpt lat="45.59632376033154" lon="9.31396068217836"><ele>170.0</ele><time>2026-04-25T17:13:45.003Z</time></trkpt><trkpt lat="45.59612638810253" lon="9.313687152999824"><ele>171.0</ele><time>2026-04-25T17:13:46.003Z</time></trkpt><trkpt lat="45.59593211441839" lon="9.313420928367233"><ele>172.0</ele><time>2026-04-25T17:13:47.003Z</time></trkpt><trkpt lat="45.59574794056926" lon="9.313178944386072"><ele>171.5</ele><time>2026-04-25T17:13:48.003Z</time></trkpt><trkpt lat="45.595567785627445" lon="9.312954312689147"><ele>171.0</ele><time>2026-04-25T17:13:49.003Z</time></trkpt><trkpt lat="45.59538020168651" lon="9.312736820344396"><ele>172.0</ele><time>2026-04-25T17:13:50.003Z</time></trkpt><trkpt lat="45.59517954411363" lon="9.312533183994745"><ele>173.0</ele><time>2026-04-25T17:13:51.003Z</time></trkpt><trkpt lat="45.5949681256639" lon="9.31235056678045"><ele>171.0</ele><time>2026-04-25T17:13:52.003Z</time></trkpt><trkpt lat="45.594752037295024" lon="9.312190174133898"><ele>169.0</ele><time>2026-04-25T17:13:53.003Z</time></trkpt><trkpt lat="45.59453325496622" lon="9.312052559062574"><ele>169.0</ele><time>2026-04-25T17:13:54.003Z</time></trkpt><trkpt lat="45.5943117920508" lon="9.311938998533211"><ele>169.0</ele><time>2026-04-25T17:13:55.003Z</time></trkpt><trkpt lat="45.59408985431801" lon="9.311843707879772"><ele>169.0</ele><time>2026-04-25T17:13:56.003Z</time></trkpt><trkpt lat="45.5938779385851" lon="9.311760918441205"><ele>169.0</ele><time>2026-04-25T17:13:57.003Z</time></trkpt><trkpt lat="45.59367174173089" lon="9.311682226775433"><ele>169.0</ele><time>2026-04-25T17:13:57.998Z</time></trkpt><trkpt lat="45.59347920759677" lon="9.311605969312811"><ele>168.33333333333334</ele><time>2026-04-25T17:13:58.998Z</time></trkpt><trkpt lat="45.59329625013003" lon="9.311533436766615"><ele>167.66666666666666</ele><time>2026-04-25T17:13:59.998Z</time></trkpt><trkpt lat="45.593128162786236" lon="9.31146125463235"><ele>167.0</ele><time>2026-04-25T17:14:00.998Z</time></trkpt><trkpt lat="45.59298180554116" lon="9.311399149174543"><ele>167.0</ele><time>2026-04-25T17:14:01.998Z</time></trkpt><trkpt lat="45.59286071050324" lon="9.311347815954331"><ele>167.0</ele><time>2026-04-25T17:14:02.998Z</time></trkpt><trkpt lat="45.592748816622475" lon="9.311304627160926"><ele>167.0</ele><time>2026-04-25T17:14:03.998Z</time></trkpt><trkpt lat="45.59266674479448" lon="9.311275094072528"><ele>167.0</ele><time>2026-04-25T17:14:04.998Z</time></trkpt><trkpt lat="45.59259039834953" lon="9.311246237436299"><ele>167.0</ele><time>2026-04-25T17:14:06.998Z</time></trkpt><trkpt lat="45.59249346010196" lon="9.311202771706462"><ele>166.83333333333331</ele><time>2026-04-25T17:14:09.998Z</time></trkpt><trkpt lat="45.592427429091096" lon="9.311141012086177"><ele>166.66666666666666</ele><time>2026-04-25T17:14:10.998Z</time></trkpt><trkpt lat="45.592358958229575" lon="9.31107200302979"><ele>166.5</ele><time>2026-04-25T17:14:11.999Z</time></trkpt><trkpt lat="45.59229761672328" lon="9.311026254253822"><ele>166.33333333333334</ele><time>2026-04-25T17:14:12.999Z</time></trkpt><trkpt lat="45.59221810552723" lon="9.310984212971867"><ele>166.16666666666669</ele><time>2026-04-25T17:14:13.999Z</time></trkpt><trkpt lat="45.592129390452904" lon="9.310950106071502"><ele>166.0</ele><time>2026-04-25T17:14:14.999Z</time></trkpt><trkpt lat="45.59203389457244" lon="9.310927851141132"><ele>165.8</ele><time>2026-04-25T17:14:15.999Z</time></trkpt><trkpt lat="45.59193785697262" lon="9.310925557379914"><ele>165.60000000000002</ele><time>2026-04-25T17:14:16.999Z</time></trkpt><trkpt lat="45.59184880963783" lon="9.310962614474564"><ele>165.4</ele><time>2026-04-25T17:14:17.999Z</time></trkpt><trkpt lat="45.59176740228366" lon="9.311033579364256"><ele>165.2</ele><time>2026-04-25T17:14:18.999Z</time></trkpt><trkpt lat="45.591703189615764" lon="9.311128474914355"><ele>165.0</ele><time>2026-04-25T17:14:19.999Z</time></trkpt><trkpt lat="45.591665620213305" lon="9.311248668166378"><ele>165.0</ele><time>2026-04-25T17:14:20.999Z</time></trkpt><trkpt lat="45.59165577544854" lon="9.311388247377415"><ele>165.0</ele><time>2026-04-25T17:14:21.999Z</time></trkpt><trkpt lat="45.591672854203715" lon="9.311532018331834"><ele>165.0</ele><time>2026-04-25T17:14:22.999Z</time></trkpt><trkpt lat="45.59171578611999" lon="9.311670987872212"><ele>165.0</ele><time>2026-04-25T17:14:23.999Z</time></trkpt><trkpt lat="45.59179072882109" lon="9.311812711634888"><ele>165.0</ele><time>2026-04-25T17:14:24.999Z</time></trkpt><trkpt lat="45.591885434245086" lon="9.311961778422535"><ele>165.5</ele><time>2026-04-25T17:14:25.999Z</time></trkpt><trkpt lat="45.591970224037595" lon="9.312102726183136"><ele>166.0</ele><time>2026-04-25T17:14:26.999Z</time></trkpt><trkpt lat="45.592041723617314" lon="9.312281545058287"><ele>166.5</ele><time>2026-04-25T17:14:28Z</time></trkpt><trkpt lat="45.59209543399452" lon="9.312497843808018"><ele>167.0</ele><time>2026-04-25T17:14:29Z</time></trkpt><trkpt lat="45.5921279322673" lon="9.312742087542018"><ele>167.33333333333331</ele><time>2026-04-25T17:14:30Z</time></trkpt><trkpt lat="45.59215692950677" lon="9.313000795671837"><ele>167.66666666666666</ele><time>2026-04-25T17:14:31Z</time></trkpt><trkpt lat="45.5921827564819" lon="9.313238854538886"><ele>168.0</ele><time>2026-04-25T17:14:32Z</time></trkpt><trkpt lat="45.59220257174961" lon="9.313476476918117"><ele>167.33333333333334</ele><time>2026-04-25T17:14:33Z</time></trkpt><trkpt lat="45.59221062670395" lon="9.313729979162865"><ele>166.66666666666669</ele><time>2026-04-25T17:14:34Z</time></trkpt><trkpt lat="45.592210688069855" lon="9.313987382566536"><ele>166.0</ele><time>2026-04-25T17:14:35Z</time></trkpt><trkpt lat="45.592200896969516" lon="9.31424779756793"><ele>166.0</ele><time>2026-04-25T17:14:36Z</time></trkpt><trkpt lat="45.592176369088065" lon="9.314515106395248"><ele>166.0</ele><time>2026-04-25T17:14:37Z</time></trkpt><trkpt lat="45.59213744989903" lon="9.314789830606616"><ele>166.0</ele><time>2026-04-25T17:14:38Z</time></trkpt><trkpt lat="45.59209756825634" lon="9.315070783427547"><ele>166.66666666666669</ele><time>2026-04-25T17:14:39Z</time></trkpt><trkpt lat="45.592061641548646" lon="9.315336463838944"><ele>167.33333333333334</ele><time>2026-04-25T17:14:40Z</time></trkpt><trkpt lat="45.59202873887884" lon="9.315599297257629"><ele>168.0</ele><time>2026-04-25T17:14:41Z</time></trkpt><trkpt lat="45.59199462271642" lon="9.315873838641544"><ele>168.0</ele><time>2026-04-25T17:14:42Z</time></trkpt><trkpt lat="45.59196185448406" lon="9.316155644164004"><ele>168.0</ele><time>2026-04-25T17:14:43Z</time></trkpt><trkpt lat="45.59193208443581" lon="9.31644691119273"><ele>168.0</ele><time>2026-04-25T17:14:44Z</time></trkpt><trkpt lat="45.591901538918115" lon="9.316744212700218"><ele>168.0</ele><time>2026-04-25T17:14:45Z</time></trkpt><trkpt lat="45.59187340727128" lon="9.317046432762655"><ele>168.0</ele><time>2026-04-25T17:14:46Z</time></trkpt><trkpt lat="45.5918453841896" lon="9.317356668421027"><ele>168.0</ele><time>2026-04-25T17:14:47Z</time></trkpt><trkpt lat="45.59181520843532" lon="9.317668815864993"><ele>168.0</ele><time>2026-04-25T17:14:48Z</time></trkpt><trkpt lat="45.591781198495475" lon="9.317979771037916"><ele>168.0</ele><time>2026-04-25T17:14:49Z</time></trkpt><trkpt lat="45.591746856449475" lon="9.31828986973688"><ele>168.0</ele><time>2026-04-25T17:14:50Z</time></trkpt><trkpt lat="45.59171308806155" lon="9.31859082276479"><ele>168.0</ele><time>2026-04-25T17:14:51Z</time></trkpt><trkpt lat="45.59167664563687" lon="9.318884390628975"><ele>168.0</ele><time>2026-04-25T17:14:52Z</time></trkpt><trkpt lat="45.59163846050604" lon="9.319163330281219"><ele>168.0</ele><time>2026-04-25T17:14:53.001Z</time></trkpt><trkpt lat="45.59160004325839" lon="9.319432735277772"><ele>168.0</ele><time>2026-04-25T17:14:54.001Z</time></trkpt><trkpt lat="45.591563464106294" lon="9.319688714539645"><ele>168.0</ele><time>2026-04-25T17:14:55.001Z</time></trkpt><trkpt lat="45.591527569856574" lon="9.319932512021449"><ele>168.0</ele><time>2026-04-25T17:14:56.001Z</time></trkpt><trkpt lat="45.59149079228609" lon="9.320161250499812"><ele>168.0</ele><time>2026-04-25T17:14:57.001Z</time></trkpt><trkpt lat="45.591456424093586" lon="9.320374988185083"><ele>168.0</ele><time>2026-04-25T17:14:58.001Z</time></trkpt><trkpt lat="45.59142277100087" lon="9.32056520469664"><ele>168.0</ele><time>2026-04-25T17:14:59.001Z</time></trkpt><trkpt lat="45.591386563122555" lon="9.320736218589827"><ele>168.0</ele><time>2026-04-25T17:15:00.001Z</time></trkpt><trkpt lat="45.591344159093026" lon="9.320867995537878"><ele>167.5</ele><time>2026-04-25T17:15:01.001Z</time></trkpt><trkpt lat="45.59129385734944" lon="9.320981101291672"><ele>167.0</ele><time>2026-04-25T17:15:02.001Z</time></trkpt><trkpt lat="45.59122537736073" lon="9.321037751879238"><ele>166.5</ele><time>2026-04-25T17:15:03.001Z</time></trkpt><trkpt lat="45.59115279691978" lon="9.32108735153894"><ele>166.0</ele><time>2026-04-25T17:15:04.001Z</time></trkpt><trkpt lat="45.59108567972653" lon="9.321157799243656"><ele>165.5</ele><time>2026-04-25T17:15:05.001Z</time></trkpt><trkpt lat="45.59104387790797" lon="9.32125925356195"><ele>165.0</ele><time>2026-04-25T17:15:06.001Z</time></trkpt><trkpt lat="45.591038608565256" lon="9.321369651220497"><ele>165.4</ele><time>2026-04-25T17:15:07.001Z</time></trkpt><trkpt lat="45.59106639157123" lon="9.321486347165491"><ele>165.8</ele><time>2026-04-25T17:15:08.001Z</time></trkpt><trkpt lat="45.59112028623559" lon="9.321603613125333"><ele>166.2</ele><time>2026-04-25T17:15:09.001Z</time></trkpt><trkpt lat="45.59117186027583" lon="9.321719982203499"><ele>166.6</ele><time>2026-04-25T17:15:10.001Z</time></trkpt><trkpt lat="45.59119885875019" lon="9.321843217465348"><ele>167.0</ele><time>2026-04-25T17:15:11.001Z</time></trkpt><trkpt lat="45.59119288838038" lon="9.321996664684894"><ele>167.0</ele><time>2026-04-25T17:15:12.001Z</time></trkpt><trkpt lat="45.591168555895024" lon="9.322175905753033"><ele>167.0</ele><time>2026-04-25T17:15:13.001Z</time></trkpt><trkpt lat="45.59113190017942" lon="9.322373379663944"><ele>167.0</ele><time>2026-04-25T17:15:14.001Z</time></trkpt><trkpt lat="45.59109299475948" lon="9.322582477721575"><ele>167.0</ele><time>2026-04-25T17:15:15.001Z</time></trkpt><trkpt lat="45.59105011988395" lon="9.322809408876289"><ele>167.0</ele><time>2026-04-25T17:15:16.001Z</time></trkpt><trkpt lat="45.59100516692978" lon="9.323051590736917"><ele>167.0</ele><time>2026-04-25T17:15:17.001Z</time></trkpt><trkpt lat="45.590960010013845" lon="9.323284325252677"><ele>167.0</ele><time>2026-04-25T17:15:18.001Z</time></trkpt><trkpt lat="45.59091049032776" lon="9.323531765522786"><ele>167.0</ele><time>2026-04-25T17:15:19.001Z</time></trkpt><trkpt lat="45.59086126867124" lon="9.323786580184864"><ele>167.0</ele><time>2026-04-25T17:15:20.001Z</time></trkpt><trkpt lat="45.590812353358565" lon="9.324046117932806"><ele>167.0</ele><time>2026-04-25T17:15:21.001Z</time></trkpt><trkpt lat="45.59076313029159" lon="9.324302983821893"><ele>166.66666666666666</ele><time>2026-04-25T17:15:22.001Z</time></trkpt><trkpt lat="45.59071121676524" lon="9.324560659501156"><ele>166.33333333333334</ele><time>2026-04-25T17:15:23.001Z</time></trkpt><trkpt lat="45.59065901851365" lon="9.324818709687998"><ele>166.0</ele><time>2026-04-25T17:15:24.001Z</time></trkpt><trkpt lat="45.59060860854211" lon="9.325077131377487"><ele>165.66666666666669</ele><time>2026-04-25T17:15:25.002Z</time></trkpt><trkpt lat="45.590558203671236" lon="9.325325612430705"><ele>165.33333333333334</ele><time>2026-04-25T17:15:26.002Z</time></trkpt><trkpt lat="45.59050963442676" lon="9.325564690049776"><ele>165.0</ele><time>2026-04-25T17:15:27.002Z</time></trkpt><trkpt lat="45.59046522984917" lon="9.325787365141611"><ele>165.66666666666666</ele><time>2026-04-25T17:15:28.002Z</time></trkpt><trkpt lat="45.5904238832206" lon="9.325999789666678"><ele>166.33333333333331</ele><time>2026-04-25T17:15:29.002Z</time></trkpt><trkpt lat="45.590381278523104" lon="9.326213515681504"><ele>167.0</ele><time>2026-04-25T17:15:30.002Z</time></trkpt><trkpt lat="45.59034090103287" lon="9.32641531460305"><ele>167.39999999999998</ele><time>2026-04-25T17:15:31.002Z</time></trkpt><trkpt lat="45.59030481868521" lon="9.326600633199881"><ele>167.79999999999998</ele><time>2026-04-25T17:15:32.002Z</time></trkpt><trkpt lat="45.59027263955912" lon="9.326740607577197"><ele>168.2</ele><time>2026-04-25T17:15:33.002Z</time></trkpt><trkpt lat="45.59024578278438" lon="9.326851309598302"><ele>168.6</ele><time>2026-04-25T17:15:34.002Z</time></trkpt><trkpt lat="45.59021157280069" lon="9.326948670941631"><ele>169.0</ele><time>2026-04-25T17:15:35.002Z</time></trkpt><trkpt lat="45.59016845534956" lon="9.327023038658218"><ele>169.0</ele><time>2026-04-25T17:15:36.002Z</time></trkpt><trkpt lat="45.590112802921574" lon="9.327179091313644"><ele>169.0</ele><time>2026-04-25T17:15:38.002Z</time></trkpt><trkpt lat="45.59011665585908" lon="9.327274668596427"><ele>169.0</ele><time>2026-04-25T17:15:39.002Z</time></trkpt><trkpt lat="45.590129280686455" lon="9.327381917108161"><ele>169.0</ele><time>2026-04-25T17:15:40.002Z</time></trkpt><trkpt lat="45.59012427372208" lon="9.327501770200923"><ele>169.0</ele><time>2026-04-25T17:15:41.002Z</time></trkpt><trkpt lat="45.59010281008751" lon="9.327628344219258"><ele>169.0</ele><time>2026-04-25T17:15:42.002Z</time></trkpt><trkpt lat="45.590081898851295" lon="9.327757189225787"><ele>169.33333333333334</ele><time>2026-04-25T17:15:43.002Z</time></trkpt><trkpt lat="45.59005948484431" lon="9.327880677693635"><ele>169.66666666666669</ele><time>2026-04-25T17:15:44.002Z</time></trkpt><trkpt lat="45.59003728333805" lon="9.327997747306034"><ele>170.0</ele><time>2026-04-25T17:15:45.002Z</time></trkpt><trkpt lat="45.590016543140706" lon="9.328107105525158"><ele>170.33333333333334</ele><time>2026-04-25T17:15:46.002Z</time></trkpt><trkpt lat="45.58999901501245" lon="9.32819504187264"><ele>170.66666666666666</ele><time>2026-04-25T17:15:47.002Z</time></trkpt><trkpt lat="45.589978388524464" lon="9.328314120149273"><ele>171.0</ele><time>2026-04-25T17:15:49.002Z</time></trkpt><trkpt lat="45.58995115188726" lon="9.328414678140142"><ele>171.0</ele><time>2026-04-25T17:15:51.002Z</time></trkpt><trkpt lat="45.589901589281695" lon="9.32856923594913"><ele>171.0</ele><time>2026-04-25T17:15:53.002Z</time></trkpt><trkpt lat="45.589881017662904" lon="9.328675590962131"><ele>171.0</ele><time>2026-04-25T17:15:54.002Z</time></trkpt><trkpt lat="45.58986320527298" lon="9.328794546631514"><ele>171.0</ele><time>2026-04-25T17:15:55.002Z</time></trkpt><trkpt lat="45.58984800503505" lon="9.328903265481426"><ele>171.0</ele><time>2026-04-25T17:15:56.002Z</time></trkpt><trkpt lat="45.589829461374975" lon="9.329015537284178"><ele>171.0</ele><time>2026-04-25T17:15:57.002Z</time></trkpt><trkpt lat="45.58980490411987" lon="9.329143644153918"><ele>171.0</ele><time>2026-04-25T17:15:58.003Z</time></trkpt><trkpt lat="45.58977669576017" lon="9.329282620859482"><ele>171.0</ele><time>2026-04-25T17:15:59.003Z</time></trkpt><trkpt lat="45.58974695573748" lon="9.329428210608363"><ele>171.0</ele><time>2026-04-25T17:16:00.003Z</time></trkpt><trkpt lat="45.589716758114136" lon="9.329573641997724"><ele>171.0</ele><time>2026-04-25T17:16:01.003Z</time></trkpt><trkpt lat="45.589685993120504" lon="9.329714873547518"><ele>171.0</ele><time>2026-04-25T17:16:02.003Z</time></trkpt><trkpt lat="45.5896562550279" lon="9.329850233202796"><ele>171.0</ele><time>2026-04-25T17:16:03.003Z</time></trkpt><trkpt lat="45.589628925945185" lon="9.329980410763168"><ele>171.0</ele><time>2026-04-25T17:16:03.998Z</time></trkpt><trkpt lat="45.589605182775216" lon="9.330109500311762"><ele>171.0</ele><time>2026-04-25T17:16:04.998Z</time></trkpt><trkpt lat="45.589587036460905" lon="9.330231841063286"><ele>171.0</ele><time>2026-04-25T17:16:05.998Z</time></trkpt><trkpt lat="45.589570819305564" lon="9.33035033749215"><ele>171.0</ele><time>2026-04-25T17:16:06.998Z</time></trkpt><trkpt lat="45.58955559167447" lon="9.330463215772623"><ele>171.0</ele><time>2026-04-25T17:16:07.998Z</time></trkpt><trkpt lat="45.589543430163296" lon="9.330560582565404"><ele>171.20000000000002</ele><time>2026-04-25T17:16:08.998Z</time></trkpt><trkpt lat="45.58952257728052" lon="9.330705305077794"><ele>171.4</ele><time>2026-04-25T17:16:10.999Z</time></trkpt><trkpt lat="45.58949227944427" lon="9.330817510547218"><ele>171.6</ele><time>2026-04-25T17:16:12.999Z</time></trkpt><trkpt lat="45.58940709437209" lon="9.330946399525283"><ele>171.8</ele><time>2026-04-25T17:16:14.999Z</time></trkpt><trkpt lat="45.58930777499239" lon="9.330927268765079"><ele>172.0</ele><time>2026-04-25T17:16:15.999Z</time></trkpt><trkpt lat="45.58921779599234" lon="9.33092360043491"><ele>172.0</ele><time>2026-04-25T17:16:16.999Z</time></trkpt><trkpt lat="45.58911817720656" lon="9.330908904507368"><ele>172.0</ele><time>2026-04-25T17:16:17.999Z</time></trkpt><trkpt lat="45.589025528762804" lon="9.330887404341857"><ele>172.0</ele><time>2026-04-25T17:16:18.999Z</time></trkpt><trkpt lat="45.5889322285707" lon="9.330866724241648"><ele>172.0</ele><time>2026-04-25T17:16:19.999Z</time></trkpt><trkpt lat="45.58883005140354" lon="9.330837954847125"><ele>172.0</ele><time>2026-04-25T17:16:20.999Z</time></trkpt><trkpt lat="45.58871851184633" lon="9.330807966537886"><ele>171.5</ele><time>2026-04-25T17:16:21.999Z</time></trkpt><trkpt lat="45.58860671370942" lon="9.330782970269112"><ele>171.0</ele><time>2026-04-25T17:16:23Z</time></trkpt><trkpt lat="45.5884880923089" lon="9.330758271731813"><ele>170.5</ele><time>2026-04-25T17:16:24Z</time></trkpt><trkpt lat="45.58836113274348" lon="9.330730277502774"><ele>170.0</ele><time>2026-04-25T17:16:25Z</time></trkpt><trkpt lat="45.588232305550754" lon="9.330701849530323"><ele>170.0</ele><time>2026-04-25T17:16:26Z</time></trkpt><trkpt lat="45.588102459349315" lon="9.330676486636126"><ele>170.0</ele><time>2026-04-25T17:16:27Z</time></trkpt><trkpt lat="45.587978457512946" lon="9.330649180777032"><ele>170.0</ele><time>2026-04-25T17:16:28Z</time></trkpt><trkpt lat="45.58786137308077" lon="9.330619608813828"><ele>170.0</ele><time>2026-04-25T17:16:29Z</time></trkpt><trkpt lat="45.5877543039301" lon="9.330594232545682"><ele>170.0</ele><time>2026-04-25T17:16:30Z</time></trkpt><trkpt lat="45.587651196328416" lon="9.33057150590248"><ele>170.0</ele><time>2026-04-25T17:16:31Z</time></trkpt><trkpt lat="45.58755296334908" lon="9.330545018347722"><ele>170.0</ele><time>2026-04-25T17:16:32Z</time></trkpt><trkpt lat="45.5874532561696" lon="9.33052234711525"><ele>170.0</ele><time>2026-04-25T17:16:33Z</time></trkpt><trkpt lat="45.587365297027915" lon="9.330495387686273"><ele>170.0</ele><time>2026-04-25T17:16:34Z</time></trkpt><trkpt lat="45.587287323385596" lon="9.330461466468568"><ele>169.4</ele><time>2026-04-25T17:16:35Z</time></trkpt><trkpt lat="45.58721859789415" lon="9.330427491437836"><ele>168.8</ele><time>2026-04-25T17:16:36Z</time></trkpt><trkpt lat="45.58715065315967" lon="9.330393147599517"><ele>168.2</ele><time>2026-04-25T17:16:37Z</time></trkpt><trkpt lat="45.5870877394194" lon="9.330349167903558"><ele>167.6</ele><time>2026-04-25T17:16:38Z</time></trkpt><trkpt lat="45.58697731796422" lon="9.330340092622572"><ele>167.0</ele><time>2026-04-25T17:16:40.001Z</time></trkpt><trkpt lat="45.586960943817935" lon="9.330533393288766"><ele>167.39999999999998</ele><time>2026-04-25T17:16:43.001Z</time></trkpt><trkpt lat="45.58692386451545" lon="9.330662592381413"><ele>167.79999999999998</ele><time>2026-04-25T17:16:45.001Z</time></trkpt><trkpt lat="45.58687620751014" lon="9.33082501605428"><ele>168.2</ele><time>2026-04-25T17:16:47.001Z</time></trkpt><trkpt lat="45.5868399910922" lon="9.330901167039103"><ele>168.6</ele><time>2026-04-25T17:16:48.001Z</time></trkpt><trkpt lat="45.58676659432368" lon="9.33103291734676"><ele>169.0</ele><time>2026-04-25T17:16:50.001Z</time></trkpt><trkpt lat="45.586685504848205" lon="9.331141620575899"><ele>169.0</ele><time>2026-04-25T17:16:52.001Z</time></trkpt><trkpt lat="45.586587330735256" lon="9.331217249383513"><ele>169.0</ele><time>2026-04-25T17:16:54.001Z</time></trkpt><trkpt lat="45.58652558363844" lon="9.33134207139255"><ele>169.0</ele><time>2026-04-25T17:16:56.001Z</time></trkpt><trkpt lat="45.58655350434598" lon="9.3315279112439"><ele>169.0</ele><time>2026-04-25T17:16:58.001Z</time></trkpt><trkpt lat="45.586586183380916" lon="9.331637718947153"><ele>169.0</ele><time>2026-04-25T17:16:59.001Z</time></trkpt><trkpt lat="45.58662413537264" lon="9.33176040073878"><ele>170.0</ele><time>2026-04-25T17:17:00.001Z</time></trkpt><trkpt lat="45.58666245751485" lon="9.331898354675875"><ele>171.0</ele><time>2026-04-25T17:17:01.001Z</time></trkpt><trkpt lat="45.586692766070406" lon="9.332046065052175"><ele>172.0</ele><time>2026-04-25T17:17:02.001Z</time></trkpt><trkpt lat="45.586714607394136" lon="9.332199397288043"><ele>173.0</ele><time>2026-04-25T17:17:03.001Z</time></trkpt><trkpt lat="45.58672837168086" lon="9.332342543184465"><ele>174.0</ele><time>2026-04-25T17:17:04.001Z</time></trkpt><trkpt lat="45.586734299825785" lon="9.33247572678946"><ele>174.33333333333334</ele><time>2026-04-25T17:17:05.001Z</time></trkpt><trkpt lat="45.58674199149104" lon="9.332594735675265"><ele>174.66666666666666</ele><time>2026-04-25T17:17:06.001Z</time></trkpt><trkpt lat="45.586736164101" lon="9.332712405722352"><ele>175.0</ele><time>2026-04-25T17:17:07.002Z</time></trkpt><trkpt lat="45.586741245960496" lon="9.332816871990458"><ele>175.33333333333331</ele><time>2026-04-25T17:17:08.002Z</time></trkpt><trkpt lat="45.58674702171952" lon="9.332911250177665"><ele>175.66666666666666</ele><time>2026-04-25T17:17:09.002Z</time></trkpt><trkpt lat="45.58671170809487" lon="9.333025812159175"><ele>176.0</ele><time>2026-04-25T17:17:11.002Z</time></trkpt><trkpt lat="45.58661382427953" lon="9.33300619399017"><ele>176.0</ele><time>2026-04-25T17:17:13.002Z</time></trkpt><trkpt lat="45.58654841580215" lon="9.33295813555407"><ele>176.0</ele><time>2026-04-25T17:17:14.002Z</time></trkpt><trkpt lat="45.58647245984276" lon="9.332912774206859"><ele>176.0</ele><time>2026-04-25T17:17:15.002Z</time></trkpt><trkpt lat="45.58639041982687" lon="9.332855442917902"><ele>176.0</ele><time>2026-04-25T17:17:16.002Z</time></trkpt><trkpt lat="45.58629954563555" lon="9.332797114443252"><ele>176.0</ele><time>2026-04-25T17:17:17.002Z</time></trkpt><trkpt lat="45.586200869180914" lon="9.332758874351189"><ele>176.0</ele><time>2026-04-25T17:17:18.002Z</time></trkpt><trkpt lat="45.586127639539455" lon="9.332707087680108"><ele>175.5</ele><time>2026-04-25T17:17:19.002Z</time></trkpt><trkpt lat="45.58605568723736" lon="9.332665873153305"><ele>175.0</ele><time>2026-04-25T17:17:20.002Z</time></trkpt><trkpt lat="45.58600241362002" lon="9.33260795102178"><ele>174.5</ele><time>2026-04-25T17:17:21.002Z</time></trkpt><trkpt lat="45.58593366713277" lon="9.33256935126289"><ele>174.0</ele><time>2026-04-25T17:17:22.002Z</time></trkpt><trkpt lat="45.58584657757898" lon="9.332507799328875"><ele>173.5</ele><time>2026-04-25T17:17:23.002Z</time></trkpt><trkpt lat="45.585745653958575" lon="9.332448922572029"><ele>173.0</ele><time>2026-04-25T17:17:24.002Z</time></trkpt><trkpt lat="45.585635556495745" lon="9.332400879793148"><ele>173.0</ele><time>2026-04-25T17:17:25.002Z</time></trkpt><trkpt lat="45.58551227682034" lon="9.332361451474865"><ele>173.0</ele><time>2026-04-25T17:17:26.002Z</time></trkpt><trkpt lat="45.5853896064642" lon="9.332326808997664"><ele>173.0</ele><time>2026-04-25T17:17:27.002Z</time></trkpt><trkpt lat="45.58527119364304" lon="9.332293272904206"><ele>173.0</ele><time>2026-04-25T17:17:28.002Z</time></trkpt><trkpt lat="45.585145677485315" lon="9.332251926773713"><ele>171.75</ele><time>2026-04-25T17:17:29.002Z</time></trkpt><trkpt lat="45.585018106184826" lon="9.332215532150098"><ele>170.5</ele><time>2026-04-25T17:17:30.002Z</time></trkpt><trkpt lat="45.58489503171068" lon="9.332183569854099"><ele>169.25</ele><time>2026-04-25T17:17:31.002Z</time></trkpt><trkpt lat="45.584781958209525" lon="9.332157280753531"><ele>168.0</ele><time>2026-04-25T17:17:32.002Z</time></trkpt><trkpt lat="45.58467521570405" lon="9.33212829406462"><ele>168.0</ele><time>2026-04-25T17:17:33.002Z</time></trkpt><trkpt lat="45.58457573318819" lon="9.332099064556953"><ele>168.0</ele><time>2026-04-25T17:17:34.002Z</time></trkpt><trkpt lat="45.5844965235432" lon="9.332075748906119"><ele>168.0</ele><time>2026-04-25T17:17:35.002Z</time></trkpt><trkpt lat="45.584407734078" lon="9.332066557097393"><ele>168.0</ele><time>2026-04-25T17:17:37.002Z</time></trkpt><trkpt lat="45.58433092904023" lon="9.332062687102752"><ele>168.0</ele><time>2026-04-25T17:17:40.003Z</time></trkpt><trkpt lat="45.58431106510633" lon="9.332313722721072"><ele>168.2</ele><time>2026-04-25T17:17:41.003Z</time></trkpt><trkpt lat="45.58429742763023" lon="9.3324428571803"><ele>168.4</ele><time>2026-04-25T17:17:42.003Z</time></trkpt><trkpt lat="45.58427828491467" lon="9.332582285915317"><ele>168.6</ele><time>2026-04-25T17:17:43.003Z</time></trkpt><trkpt lat="45.58425905572393" lon="9.332716195997245"><ele>168.79999999999998</ele><time>2026-04-25T17:17:44.003Z</time></trkpt><trkpt lat="45.58423801237258" lon="9.33285947820799"><ele>169.0</ele><time>2026-04-25T17:17:45.003Z</time></trkpt><trkpt lat="45.584215446643164" lon="9.333011298907323"><ele>169.25</ele><time>2026-04-25T17:17:46.003Z</time></trkpt><trkpt lat="45.58419365970918" lon="9.33316729661822"><ele>169.5</ele><time>2026-04-25T17:17:47.003Z</time></trkpt><trkpt lat="45.58416815939335" lon="9.33331965132278"><ele>169.75</ele><time>2026-04-25T17:17:48.003Z</time></trkpt><trkpt lat="45.58414998054748" lon="9.333475554855724"><ele>170.0</ele><time>2026-04-25T17:17:49.003Z</time></trkpt><trkpt lat="45.58413807572628" lon="9.333654624755514"><ele>170.0</ele><time>2026-04-25T17:17:50.003Z</time></trkpt><trkpt lat="45.58410350592529" lon="9.333836590587122"><ele>170.0</ele><time>2026-04-25T17:17:51.003Z</time></trkpt><trkpt lat="45.584095269577226" lon="9.334033888380675"><ele>170.0</ele><time>2026-04-25T17:17:52.003Z</time></trkpt><trkpt lat="45.58407275263949" lon="9.334242968370624"><ele>170.0</ele><time>2026-04-25T17:17:53.003Z</time></trkpt><trkpt lat="45.58404803526823" lon="9.334491943932145"><ele>170.25</ele><time>2026-04-25T17:17:54.003Z</time></trkpt><trkpt lat="45.584023499533814" lon="9.334722064307602"><ele>170.5</ele><time>2026-04-25T17:17:55.003Z</time></trkpt><trkpt lat="45.5840072112492" lon="9.334923976936379"><ele>170.75</ele><time>2026-04-25T17:17:56.003Z</time></trkpt><trkpt lat="45.58398510423253" lon="9.335099834226794"><ele>171.0</ele><time>2026-04-25T17:17:57.003Z</time></trkpt><trkpt lat="45.58397015325331" lon="9.335236294501009"><ele>171.0</ele><time>2026-04-25T17:17:58.003Z</time></trkpt><trkpt lat="45.58396017763904" lon="9.335341791114475"><ele>171.0</ele><time>2026-04-25T17:17:59.003Z</time></trkpt><trkpt lat="45.58393743329545" lon="9.33549983272174"><ele>171.0</ele><time>2026-04-25T17:18:01.003Z</time></trkpt><trkpt lat="45.58410352799851" lon="9.335564947932772"><ele>171.0</ele><time>2026-04-25T17:18:04.003Z</time></trkpt><trkpt lat="45.58420617038742" lon="9.335604805606437"><ele>170.75</ele><time>2026-04-25T17:18:06.003Z</time></trkpt><trkpt lat="45.58428632199093" lon="9.335614879704027"><ele>170.5</ele><time>2026-04-25T17:18:08.003Z</time></trkpt><trkpt lat="45.584264222854955" lon="9.335984000424338"><ele>170.25</ele><time>2026-04-25T17:18:40Z</time></trkpt><trkpt lat="45.58423453625318" lon="9.336064582714732"><ele>170.0</ele><time>2026-04-25T17:18:42Z</time></trkpt><trkpt lat="45.58417892" lon="9.33630561"><ele>170.0</ele><time>2026-04-25T17:19:01.576Z</time></trkpt><trkpt lat="45.58421270938811" lon="9.335746232327365"><ele>170.0</ele><time>2026-04-25T17:19:18.3Z</time></trkpt><trkpt lat="45.58415078282693" lon="9.335853671061276"><ele>170.0</ele><time>2026-04-25T17:19:48.035Z</time></trkpt><trkpt lat="45.584212490400176" lon="9.336191983902209"><ele>170.0</ele><time>2026-04-25T17:20:00.003Z</time></trkpt><trkpt lat="45.584255056101554" lon="9.336039476995781"><ele>170.0</ele><time>2026-04-25T17:21:21.001Z</time></trkpt><trkpt lat="45.58431766776439" lon="9.336057710587745"><ele>170.0</ele><time>2026-04-25T17:22:05.002Z</time></trkpt><trkpt lat="45.58433058877202" lon="9.335729048267632"><ele>170.0</ele><time>2026-04-25T17:23:59.001Z</time></trkpt><trkpt lat="45.58434529572239" lon="9.335832021994365"><ele>170.0</ele><time>2026-04-25T17:24:11.002Z</time></trkpt><trkpt lat="45.584333082327376" lon="9.335951173158016"><ele>170.0</ele><time>2026-04-25T17:24:48.001Z</time></trkpt><trkpt lat="45.58436478217552" lon="9.335828619749954"><ele>170.0</ele><time>2026-04-25T17:25:08.021Z</time></trkpt><trkpt lat="45.58414838365433" lon="9.335841306145786"><ele>170.0</ele><time>2026-04-25T17:25:26.638Z</time></trkpt><trkpt lat="45.584281577193195" lon="9.335975474034937"><ele>170.0</ele><time>2026-04-25T17:25:32.001Z</time></trkpt><trkpt lat="45.58430245837488" lon="9.335887864861844"><ele>170.0</ele><time>2026-04-25T17:25:48.001Z</time></trkpt><trkpt lat="45.58429300542902" lon="9.335783652956746"><ele>170.0</ele><time>2026-04-25T17:25:54.001Z</time></trkpt><trkpt lat="45.58426466314849" lon="9.335699147772916"><ele>170.0</ele><time>2026-04-25T17:26:05.001Z</time></trkpt><trkpt lat="45.584258559657165" lon="9.335792456896469"><ele>170.0</ele><time>2026-04-25T17:26:10.001Z</time></trkpt><trkpt lat="45.58424202286711" lon="9.335880252788998"><ele>170.0</ele><time>2026-04-25T17:26:17.001Z</time></trkpt><trkpt lat="45.584313570148524" lon="9.335890666468039"><ele>170.0</ele><time>2026-04-25T17:26:28.001Z</time></trkpt><trkpt lat="45.58428552609827" lon="9.335985627222222"><ele>170.0</ele><time>2026-04-25T17:26:37.001Z</time></trkpt><trkpt lat="45.58424976654626" lon="9.336071429157304"><ele>170.0</ele><time>2026-04-25T17:26:43.001Z</time></trkpt></trkseg></trk></gpx>